<?xml version='1.0' encoding='UTF-8'?><gpx version="1.1" creator="JPX - https://github.com/jenetics/jpx" xmlns="http://www.topografix.com/GPX/1/1"><trk><trkseg><trkpt lat="43.0597899" lon="11.4904496"><ele>511.0</ele><time>2026-04-20T13:14:54.319Z</time></trkpt><trkpt lat="43.059745" lon="11.4906958"><ele>511.0</ele><time>2026-04-20T13:15:00.186Z</time></trkpt><trkpt lat="43.0593521" lon="11.4906976"><ele>511.0</ele><time>2026-04-20T13:15:05.903Z</time></trkpt><trkpt lat="43.0592764" lon="11.4908316"><ele>511.0</ele><time>2026-04-20T13:15:07.901Z</time></trkpt><trkpt lat="43.0591576" lon="11.4907754"><ele>511.0</ele><time>2026-04-20T13:15:09.897Z</time></trkpt><trkpt lat="43.0590853" lon="11.4904825"><ele>512.5</ele><time>2026-04-20T13:15:10.919Z</time></trkpt><trkpt lat="43.059048" lon="11.4906368"><ele>514.0</ele><time>2026-04-20T13:15:11.936Z</time></trkpt><trkpt lat="43.0589834" lon="11.4906659"><ele>515.5</ele><time>2026-04-20T13:15:12.959Z</time></trkpt><trkpt lat="43.0589173" lon="11.4906693"><ele>517.0</ele><time>2026-04-20T13:15:13.956Z</time></trkpt><trkpt lat="43.0588531" lon="11.4906861"><ele>518.5</ele><time>2026-04-20T13:15:14.99Z</time></trkpt><trkpt lat="43.0587651" lon="11.4907271"><ele>520.0</ele><time>2026-04-20T13:15:16.362Z</time></trkpt><trkpt lat="43.0587025" lon="11.4907684"><ele>520.0</ele><time>2026-04-20T13:15:17.372Z</time></trkpt><trkpt lat="43.0586344" lon="11.4908195"><ele>520.0</ele><time>2026-04-20T13:15:18.307Z</time></trkpt><trkpt lat="43.0585565" lon="11.4908573"><ele>520.0</ele><time>2026-04-20T13:15:19.307Z</time></trkpt><trkpt lat="43.0584803" lon="11.4908834"><ele>520.0</ele><time>2026-04-20T13:15:20.307Z</time></trkpt><trkpt lat="43.0584006" lon="11.4909098"><ele>520.0</ele><time>2026-04-20T13:15:21.307Z</time></trkpt><trkpt lat="43.0583189" lon="11.4909403"><ele>520.0</ele><time>2026-04-20T13:15:22.307Z</time></trkpt><trkpt lat="43.0582442" lon="11.4909616"><ele>523.0</ele><time>2026-04-20T13:15:23.307Z</time></trkpt><trkpt lat="43.0581705" lon="11.490988"><ele>526.0</ele><time>2026-04-20T13:15:24.307Z</time></trkpt><trkpt lat="43.0580862" lon="11.4910159"><ele>529.0</ele><time>2026-04-20T13:15:25.307Z</time></trkpt><trkpt lat="43.0580024" lon="11.4910488"><ele>532.0</ele><time>2026-04-20T13:15:26.308Z</time></trkpt><trkpt lat="43.0579237" lon="11.4910806"><ele>535.0</ele><time>2026-04-20T13:15:27.307Z</time></trkpt><trkpt lat="43.0578392" lon="11.4911014"><ele>538.0</ele><time>2026-04-20T13:15:28.307Z</time></trkpt><trkpt lat="43.0576741" lon="11.4911475"><ele>538.0</ele><time>2026-04-20T13:15:30.308Z</time></trkpt><trkpt lat="43.0575995" lon="11.4911995"><ele>538.0</ele><time>2026-04-20T13:15:31.308Z</time></trkpt><trkpt lat="43.0575396" lon="11.4912635"><ele>538.0</ele><time>2026-04-20T13:15:32.308Z</time></trkpt><trkpt lat="43.0574622" lon="11.4913524"><ele>538.0</ele><time>2026-04-20T13:15:34.308Z</time></trkpt><trkpt lat="43.0574068" lon="11.4914439"><ele>538.0</ele><time>2026-04-20T13:15:37.308Z</time></trkpt><trkpt lat="43.0574179" lon="11.4916119"><ele>537.2857142857143</ele><time>2026-04-20T13:15:39.308Z</time></trkpt><trkpt lat="43.0574058" lon="11.491707"><ele>536.5714285714287</ele><time>2026-04-20T13:15:40.308Z</time></trkpt><trkpt lat="43.0573901" lon="11.4917964"><ele>535.8571428571429</ele><time>2026-04-20T13:15:41.308Z</time></trkpt><trkpt lat="43.0573767" lon="11.4918821"><ele>535.1428571428571</ele><time>2026-04-20T13:15:42.309Z</time></trkpt><trkpt lat="43.0573693" lon="11.491972"><ele>534.4285714285713</ele><time>2026-04-20T13:15:43.308Z</time></trkpt><trkpt lat="43.0573593" lon="11.4920576"><ele>533.7142857142857</ele><time>2026-04-20T13:15:44.308Z</time></trkpt><trkpt lat="43.0573517" lon="11.4921778"><ele>533.0</ele><time>2026-04-20T13:15:46.308Z</time></trkpt><trkpt lat="43.0573584" lon="11.4922677"><ele>530.5</ele><time>2026-04-20T13:15:49.308Z</time></trkpt><trkpt lat="43.0572619" lon="11.4923257"><ele>528.0</ele><time>2026-04-20T13:15:52.308Z</time></trkpt><trkpt lat="43.0571902" lon="11.4923547"><ele>525.5</ele><time>2026-04-20T13:15:53.308Z</time></trkpt><trkpt lat="43.0571216" lon="11.4923783"><ele>523.0</ele><time>2026-04-20T13:15:54.308Z</time></trkpt><trkpt lat="43.0570565" lon="11.4924038"><ele>520.5</ele><time>2026-04-20T13:15:55.308Z</time></trkpt><trkpt lat="43.0569812" lon="11.4924432"><ele>518.0</ele><time>2026-04-20T13:15:57.308Z</time></trkpt><trkpt lat="43.0569077" lon="11.4924787"><ele>518.0</ele><time>2026-04-20T13:15:59.308Z</time></trkpt><trkpt lat="43.0568396" lon="11.4924782"><ele>518.0</ele><time>2026-04-20T13:16:01.308Z</time></trkpt><trkpt lat="43.0567405" lon="11.4924578"><ele>518.0</ele><time>2026-04-20T13:16:03.308Z</time></trkpt><trkpt lat="43.056678" lon="11.4924385"><ele>518.0</ele><time>2026-04-20T13:16:04.308Z</time></trkpt><trkpt lat="43.0565583" lon="11.4924218"><ele>518.0</ele><time>2026-04-20T13:16:06.309Z</time></trkpt><trkpt lat="43.0564393" lon="11.4924425"><ele>516.6666666666666</ele><time>2026-04-20T13:16:08.308Z</time></trkpt><trkpt lat="43.0563312" lon="11.4924325"><ele>515.3333333333333</ele><time>2026-04-20T13:16:10.308Z</time></trkpt><trkpt lat="43.0562513" lon="11.4923913"><ele>514.0</ele><time>2026-04-20T13:16:12.308Z</time></trkpt><trkpt lat="43.0562109" lon="11.4923155"><ele>512.6666666666666</ele><time>2026-04-20T13:16:14.308Z</time></trkpt><trkpt lat="43.0561912" lon="11.4922324"><ele>511.3333333333333</ele><time>2026-04-20T13:16:16.308Z</time></trkpt><trkpt lat="43.0561043" lon="11.49219"><ele>510.0</ele><time>2026-04-20T13:16:18.309Z</time></trkpt><trkpt lat="43.0560403" lon="11.4921681"><ele>510.0</ele><time>2026-04-20T13:16:19.309Z</time></trkpt><trkpt lat="43.0559444" lon="11.4921556"><ele>510.0</ele><time>2026-04-20T13:16:20.309Z</time></trkpt><trkpt lat="43.0558769" lon="11.4921329"><ele>510.0</ele><time>2026-04-20T13:16:21.309Z</time></trkpt><trkpt lat="43.0558156" lon="11.492104"><ele>510.0</ele><time>2026-04-20T13:16:22.309Z</time></trkpt><trkpt lat="43.0557239" lon="11.4920468"><ele>510.0</ele><time>2026-04-20T13:16:24.309Z</time></trkpt><trkpt lat="43.0556757" lon="11.4919866"><ele>510.0</ele><time>2026-04-20T13:16:26.309Z</time></trkpt><trkpt lat="43.0555932" lon="11.4919576"><ele>511.4</ele><time>2026-04-20T13:16:29.309Z</time></trkpt><trkpt lat="43.0554867" lon="11.4919382"><ele>512.8</ele><time>2026-04-20T13:16:32.309Z</time></trkpt><trkpt lat="43.055424" lon="11.4919036"><ele>514.2</ele><time>2026-04-20T13:16:33.31Z</time></trkpt><trkpt lat="43.0553563" lon="11.4918492"><ele>515.6</ele><time>2026-04-20T13:16:34.31Z</time></trkpt><trkpt lat="43.0552851" lon="11.4917494"><ele>517.0</ele><time>2026-04-20T13:16:35.31Z</time></trkpt><trkpt lat="43.0552112" lon="11.4916397"><ele>517.0</ele><time>2026-04-20T13:16:36.309Z</time></trkpt><trkpt lat="43.0551347" lon="11.4915275"><ele>517.0</ele><time>2026-04-20T13:16:37.309Z</time></trkpt><trkpt lat="43.0550573" lon="11.4914162"><ele>517.0</ele><time>2026-04-20T13:16:38.309Z</time></trkpt><trkpt lat="43.0549814" lon="11.4913046"><ele>517.0</ele><time>2026-04-20T13:16:39.309Z</time></trkpt><trkpt lat="43.0549072" lon="11.4911909"><ele>517.0</ele><time>2026-04-20T13:16:40.31Z</time></trkpt><trkpt lat="43.0548374" lon="11.4910848"><ele>521.2</ele><time>2026-04-20T13:16:41.309Z</time></trkpt><trkpt lat="43.0547622" lon="11.490999"><ele>525.4000000000001</ele><time>2026-04-20T13:16:42.309Z</time></trkpt><trkpt lat="43.0546845" lon="11.4909328"><ele>529.5999999999999</ele><time>2026-04-20T13:16:43.309Z</time></trkpt><trkpt lat="43.054588" lon="11.4909326"><ele>533.8</ele><time>2026-04-20T13:16:44.309Z</time></trkpt><trkpt lat="43.0545001" lon="11.4909773"><ele>538.0</ele><time>2026-04-20T13:16:45.309Z</time></trkpt><trkpt lat="43.0544324" lon="11.4910613"><ele>538.0</ele><time>2026-04-20T13:16:46.309Z</time></trkpt><trkpt lat="43.0543687" lon="11.491166"><ele>538.0</ele><time>2026-04-20T13:16:47.309Z</time></trkpt><trkpt lat="43.054353" lon="11.4913063"><ele>538.0</ele><time>2026-04-20T13:16:48.309Z</time></trkpt><trkpt lat="43.0543601" lon="11.491456"><ele>538.0</ele><time>2026-04-20T13:16:49.31Z</time></trkpt><trkpt lat="43.0543782" lon="11.4916119"><ele>538.0</ele><time>2026-04-20T13:16:50.31Z</time></trkpt><trkpt lat="43.0543987" lon="11.4917781"><ele>537.5</ele><time>2026-04-20T13:16:51.31Z</time></trkpt><trkpt lat="43.0544198" lon="11.4919503"><ele>537.0</ele><time>2026-04-20T13:16:52.309Z</time></trkpt><trkpt lat="43.0544354" lon="11.4921233"><ele>536.5</ele><time>2026-04-20T13:16:53.31Z</time></trkpt><trkpt lat="43.0544429" lon="11.4922974"><ele>536.0</ele><time>2026-04-20T13:16:54.31Z</time></trkpt><trkpt lat="43.0544423" lon="11.4924706"><ele>533.0</ele><time>2026-04-20T13:16:55.309Z</time></trkpt><trkpt lat="43.0544286" lon="11.4926409"><ele>530.0</ele><time>2026-04-20T13:16:56.309Z</time></trkpt><trkpt lat="43.054405" lon="11.4928057"><ele>527.0</ele><time>2026-04-20T13:16:57.309Z</time></trkpt><trkpt lat="43.054365" lon="11.4929609"><ele>524.0</ele><time>2026-04-20T13:16:58.309Z</time></trkpt><trkpt lat="43.0543075" lon="11.4931057"><ele>521.5</ele><time>2026-04-20T13:16:59.309Z</time></trkpt><trkpt lat="43.0542368" lon="11.4932419"><ele>519.0</ele><time>2026-04-20T13:17:00.309Z</time></trkpt><trkpt lat="43.0541637" lon="11.4933658"><ele>516.5</ele><time>2026-04-20T13:17:01.309Z</time></trkpt><trkpt lat="43.0540602" lon="11.4934718"><ele>514.0</ele><time>2026-04-20T13:17:02.309Z</time></trkpt><trkpt lat="43.0539535" lon="11.4935704"><ele>514.0</ele><time>2026-04-20T13:17:03.31Z</time></trkpt><trkpt lat="43.0538497" lon="11.4936681"><ele>514.0</ele><time>2026-04-20T13:17:04.309Z</time></trkpt><trkpt lat="43.0537532" lon="11.493782"><ele>514.0</ele><time>2026-04-20T13:17:05.309Z</time></trkpt><trkpt lat="43.0536678" lon="11.4939105"><ele>514.0</ele><time>2026-04-20T13:17:06.31Z</time></trkpt><trkpt lat="43.053602" lon="11.4940519"><ele>512.5</ele><time>2026-04-20T13:17:07.31Z</time></trkpt><trkpt lat="43.0535439" lon="11.4941998"><ele>511.0</ele><time>2026-04-20T13:17:08.31Z</time></trkpt><trkpt lat="43.0535065" lon="11.4943589"><ele>509.5</ele><time>2026-04-20T13:17:09.31Z</time></trkpt><trkpt lat="43.053492" lon="11.4945283"><ele>508.0</ele><time>2026-04-20T13:17:10.31Z</time></trkpt><trkpt lat="43.0534956" lon="11.4947001"><ele>507.25</ele><time>2026-04-20T13:17:11.31Z</time></trkpt><trkpt lat="43.0535002" lon="11.4948734"><ele>506.5</ele><time>2026-04-20T13:17:12.31Z</time></trkpt><trkpt lat="43.0535073" lon="11.495049"><ele>505.75</ele><time>2026-04-20T13:17:13.31Z</time></trkpt><trkpt lat="43.0535183" lon="11.4952223"><ele>505.0</ele><time>2026-04-20T13:17:14.31Z</time></trkpt><trkpt lat="43.0535329" lon="11.4953931"><ele>504.75</ele><time>2026-04-20T13:17:15.31Z</time></trkpt><trkpt lat="43.0535424" lon="11.4955564"><ele>504.5</ele><time>2026-04-20T13:17:16.31Z</time></trkpt><trkpt lat="43.0535423" lon="11.495722"><ele>504.25</ele><time>2026-04-20T13:17:17.31Z</time></trkpt><trkpt lat="43.0535379" lon="11.4958879"><ele>504.0</ele><time>2026-04-20T13:17:18.31Z</time></trkpt><trkpt lat="43.0535262" lon="11.4960543"><ele>504.0</ele><time>2026-04-20T13:17:19.31Z</time></trkpt><trkpt lat="43.0535091" lon="11.4962267"><ele>504.0</ele><time>2026-04-20T13:17:20.31Z</time></trkpt><trkpt lat="43.0534878" lon="11.4964084"><ele>504.0</ele><time>2026-04-20T13:17:21.31Z</time></trkpt><trkpt lat="43.0534671" lon="11.4965962"><ele>504.0</ele><time>2026-04-20T13:17:22.311Z</time></trkpt><trkpt lat="43.0534461" lon="11.4967803"><ele>502.75</ele><time>2026-04-20T13:17:23.31Z</time></trkpt><trkpt lat="43.0534174" lon="11.4969604"><ele>501.5</ele><time>2026-04-20T13:17:24.31Z</time></trkpt><trkpt lat="43.0533797" lon="11.4971362"><ele>500.25</ele><time>2026-04-20T13:17:25.31Z</time></trkpt><trkpt lat="43.0533399" lon="11.4973074"><ele>499.0</ele><time>2026-04-20T13:17:26.31Z</time></trkpt><trkpt lat="43.0532904" lon="11.4974726"><ele>499.25</ele><time>2026-04-20T13:17:27.31Z</time></trkpt><trkpt lat="43.0532374" lon="11.497639"><ele>499.5</ele><time>2026-04-20T13:17:28.31Z</time></trkpt><trkpt lat="43.0531719" lon="11.4978207"><ele>499.75</ele><time>2026-04-20T13:17:29.311Z</time></trkpt><trkpt lat="43.0530946" lon="11.4980194"><ele>500.0</ele><time>2026-04-20T13:17:30.31Z</time></trkpt><trkpt lat="43.0529969" lon="11.4982306"><ele>500.0</ele><time>2026-04-20T13:17:31.311Z</time></trkpt><trkpt lat="43.0528988" lon="11.4984356"><ele>500.0</ele><time>2026-04-20T13:17:32.31Z</time></trkpt><trkpt lat="43.0527988" lon="11.4986548"><ele>500.0</ele><time>2026-04-20T13:17:33.31Z</time></trkpt><trkpt lat="43.0526957" lon="11.4988869"><ele>496.5</ele><time>2026-04-20T13:17:34.31Z</time></trkpt><trkpt lat="43.0525025" lon="11.4993421"><ele>493.0</ele><time>2026-04-20T13:17:36.31Z</time></trkpt><trkpt lat="43.0524133" lon="11.4995533"><ele>488.33333333333337</ele><time>2026-04-20T13:17:37.31Z</time></trkpt><trkpt lat="43.0523237" lon="11.4997619"><ele>483.66666666666663</ele><time>2026-04-20T13:17:38.31Z</time></trkpt><trkpt lat="43.0522352" lon="11.4999702"><ele>479.0</ele><time>2026-04-20T13:17:39.31Z</time></trkpt><trkpt lat="43.0521498" lon="11.5001738"><ele>479.0</ele><time>2026-04-20T13:17:40.31Z</time></trkpt><trkpt lat="43.052071" lon="11.5003697"><ele>479.0</ele><time>2026-04-20T13:17:41.31Z</time></trkpt><trkpt lat="43.0520044" lon="11.5005603"><ele>479.0</ele><time>2026-04-20T13:17:42.31Z</time></trkpt><trkpt lat="43.0519585" lon="11.5007591"><ele>477.3333333333333</ele><time>2026-04-20T13:17:43.31Z</time></trkpt><trkpt lat="43.051926" lon="11.50097"><ele>475.66666666666663</ele><time>2026-04-20T13:17:44.31Z</time></trkpt><trkpt lat="43.0519131" lon="11.5011939"><ele>474.0</ele><time>2026-04-20T13:17:45.31Z</time></trkpt><trkpt lat="43.0519194" lon="11.5014197"><ele>472.75</ele><time>2026-04-20T13:17:46.311Z</time></trkpt><trkpt lat="43.0519303" lon="11.5016406"><ele>471.5</ele><time>2026-04-20T13:17:47.311Z</time></trkpt><trkpt lat="43.0519429" lon="11.5018409"><ele>470.25</ele><time>2026-04-20T13:17:48.311Z</time></trkpt><trkpt lat="43.0519369" lon="11.502032"><ele>469.0</ele><time>2026-04-20T13:17:49.31Z</time></trkpt><trkpt lat="43.0519094" lon="11.5022166"><ele>468.25</ele><time>2026-04-20T13:17:50.31Z</time></trkpt><trkpt lat="43.0518588" lon="11.5024005"><ele>467.5</ele><time>2026-04-20T13:17:51.31Z</time></trkpt><trkpt lat="43.051796" lon="11.5025828"><ele>466.75</ele><time>2026-04-20T13:17:52.31Z</time></trkpt><trkpt lat="43.0517425" lon="11.5027591"><ele>466.0</ele><time>2026-04-20T13:17:53.31Z</time></trkpt><trkpt lat="43.0517094" lon="11.5029359"><ele>465.5</ele><time>2026-04-20T13:17:54.31Z</time></trkpt><trkpt lat="43.0517129" lon="11.5031102"><ele>465.0</ele><time>2026-04-20T13:17:55.311Z</time></trkpt><trkpt lat="43.0517541" lon="11.5032783"><ele>464.5</ele><time>2026-04-20T13:17:56.312Z</time></trkpt><trkpt lat="43.0518108" lon="11.5034456"><ele>464.0</ele><time>2026-04-20T13:17:57.311Z</time></trkpt><trkpt lat="43.0518831" lon="11.5036117"><ele>462.0</ele><time>2026-04-20T13:17:58.311Z</time></trkpt><trkpt lat="43.0519583" lon="11.5037759"><ele>460.0</ele><time>2026-04-20T13:17:59.311Z</time></trkpt><trkpt lat="43.0520331" lon="11.5039262"><ele>458.0</ele><time>2026-04-20T13:18:00.311Z</time></trkpt><trkpt lat="43.0520977" lon="11.5040687"><ele>456.0</ele><time>2026-04-20T13:18:01.311Z</time></trkpt><trkpt lat="43.0521495" lon="11.5042085"><ele>456.0</ele><time>2026-04-20T13:18:02.312Z</time></trkpt><trkpt lat="43.0522009" lon="11.5043412"><ele>456.0</ele><time>2026-04-20T13:18:03.312Z</time></trkpt><trkpt lat="43.0522477" lon="11.5044636"><ele>456.0</ele><time>2026-04-20T13:18:04.311Z</time></trkpt><trkpt lat="43.0522867" lon="11.5045828"><ele>456.0</ele><time>2026-04-20T13:18:05.311Z</time></trkpt><trkpt lat="43.0523042" lon="11.5046921"><ele>456.0</ele><time>2026-04-20T13:18:06.311Z</time></trkpt><trkpt lat="43.0523059" lon="11.5047931"><ele>456.4</ele><time>2026-04-20T13:18:07.311Z</time></trkpt><trkpt lat="43.0522959" lon="11.504906"><ele>456.8</ele><time>2026-04-20T13:18:08.311Z</time></trkpt><trkpt lat="43.0522872" lon="11.5049951"><ele>457.19999999999993</ele><time>2026-04-20T13:18:09.311Z</time></trkpt><trkpt lat="43.052365" lon="11.505082"><ele>457.59999999999997</ele><time>2026-04-20T13:18:11.312Z</time></trkpt><trkpt lat="43.0524999" lon="11.5050444"><ele>458.0</ele><time>2026-04-20T13:18:13.312Z</time></trkpt><trkpt lat="43.0525859" lon="11.5050073"><ele>458.0</ele><time>2026-04-20T13:18:14.311Z</time></trkpt><trkpt lat="43.0526745" lon="11.5050262"><ele>457.99999999999994</ele><time>2026-04-20T13:18:15.311Z</time></trkpt><trkpt lat="43.0527717" lon="11.5050736"><ele>457.99999999999994</ele><time>2026-04-20T13:18:16.311Z</time></trkpt><trkpt lat="43.0528737" lon="11.5051395"><ele>458.0</ele><time>2026-04-20T13:18:17.311Z</time></trkpt><trkpt lat="43.0529804" lon="11.5052125"><ele>458.0</ele><time>2026-04-20T13:18:18.312Z</time></trkpt><trkpt lat="43.0530887" lon="11.5052972"><ele>458.0</ele><time>2026-04-20T13:18:19.311Z</time></trkpt><trkpt lat="43.0531873" lon="11.5054098"><ele>458.0</ele><time>2026-04-20T13:18:20.312Z</time></trkpt><trkpt lat="43.0532632" lon="11.5055527"><ele>458.0</ele><time>2026-04-20T13:18:21.312Z</time></trkpt><trkpt lat="43.0533064" lon="11.5057187"><ele>458.0</ele><time>2026-04-20T13:18:22.311Z</time></trkpt><trkpt lat="43.0532725" lon="11.5060881"><ele>456.75</ele><time>2026-04-20T13:18:24.311Z</time></trkpt><trkpt lat="43.0532461" lon="11.50628"><ele>455.5</ele><time>2026-04-20T13:18:25.311Z</time></trkpt><trkpt lat="43.0532182" lon="11.5064806"><ele>454.25</ele><time>2026-04-20T13:18:26.311Z</time></trkpt><trkpt lat="43.0531889" lon="11.5066849"><ele>453.0</ele><time>2026-04-20T13:18:27.311Z</time></trkpt><trkpt lat="43.0531604" lon="11.5068953"><ele>450.33333333333337</ele><time>2026-04-20T13:18:28.311Z</time></trkpt><trkpt lat="43.0531299" lon="11.5071111"><ele>447.6666666666667</ele><time>2026-04-20T13:18:29.311Z</time></trkpt><trkpt lat="43.0530986" lon="11.50733"><ele>445.0</ele><time>2026-04-20T13:18:30.311Z</time></trkpt><trkpt lat="43.0530686" lon="11.5075519"><ele>445.0</ele><time>2026-04-20T13:18:31.311Z</time></trkpt><trkpt lat="43.0530412" lon="11.5077748"><ele>445.0</ele><time>2026-04-20T13:18:32.311Z</time></trkpt><trkpt lat="43.0530165" lon="11.5079967"><ele>445.0</ele><time>2026-04-20T13:18:33.311Z</time></trkpt><trkpt lat="43.0529941" lon="11.5082191"><ele>442.0</ele><time>2026-04-20T13:18:34.311Z</time></trkpt><trkpt lat="43.0529749" lon="11.5084409"><ele>439.0</ele><time>2026-04-20T13:18:35.311Z</time></trkpt><trkpt lat="43.0529659" lon="11.5086608"><ele>436.0</ele><time>2026-04-20T13:18:36.311Z</time></trkpt><trkpt lat="43.0529799" lon="11.5088817"><ele>433.33333333333337</ele><time>2026-04-20T13:18:37.311Z</time></trkpt><trkpt lat="43.0530115" lon="11.5090992"><ele>430.66666666666663</ele><time>2026-04-20T13:18:38.311Z</time></trkpt><trkpt lat="43.053057" lon="11.5093124"><ele>428.0</ele><time>2026-04-20T13:18:39.313Z</time></trkpt><trkpt lat="43.0531104" lon="11.5095184"><ele>427.25</ele><time>2026-04-20T13:18:40.311Z</time></trkpt><trkpt lat="43.053163" lon="11.509716"><ele>426.5</ele><time>2026-04-20T13:18:41.311Z</time></trkpt><trkpt lat="43.0532165" lon="11.5099048"><ele>425.75</ele><time>2026-04-20T13:18:42.312Z</time></trkpt><trkpt lat="43.0532751" lon="11.5100823"><ele>425.0</ele><time>2026-04-20T13:18:43.312Z</time></trkpt><trkpt lat="43.0533554" lon="11.5102305"><ele>425.0</ele><time>2026-04-20T13:18:44.312Z</time></trkpt><trkpt lat="43.0534532" lon="11.5103546"><ele>425.0</ele><time>2026-04-20T13:18:45.313Z</time></trkpt><trkpt lat="43.0535837" lon="11.5104657"><ele>425.0</ele><time>2026-04-20T13:18:46.312Z</time></trkpt><trkpt lat="43.0537176" lon="11.5105742"><ele>425.0</ele><time>2026-04-20T13:18:47.312Z</time></trkpt><trkpt lat="43.0538511" lon="11.5106671"><ele>423.25</ele><time>2026-04-20T13:18:48.313Z</time></trkpt><trkpt lat="43.0539906" lon="11.5107307"><ele>421.5</ele><time>2026-04-20T13:18:49.313Z</time></trkpt><trkpt lat="43.0541443" lon="11.5107504"><ele>419.75</ele><time>2026-04-20T13:18:50.313Z</time></trkpt><trkpt lat="43.0542915" lon="11.5107287"><ele>418.0</ele><time>2026-04-20T13:18:51.313Z</time></trkpt><trkpt lat="43.0544412" lon="11.510665"><ele>417.33333333333337</ele><time>2026-04-20T13:18:52.312Z</time></trkpt><trkpt lat="43.0545733" lon="11.5105697"><ele>416.66666666666663</ele><time>2026-04-20T13:18:53.312Z</time></trkpt><trkpt lat="43.0547034" lon="11.5104456"><ele>416.0</ele><time>2026-04-20T13:18:54.312Z</time></trkpt><trkpt lat="43.0548259" lon="11.510297"><ele>413.66666666666663</ele><time>2026-04-20T13:18:55.312Z</time></trkpt><trkpt lat="43.0549395" lon="11.5101221"><ele>411.33333333333337</ele><time>2026-04-20T13:18:56.312Z</time></trkpt><trkpt lat="43.0550366" lon="11.5099179"><ele>409.0</ele><time>2026-04-20T13:18:57.313Z</time></trkpt><trkpt lat="43.0551125" lon="11.5096935"><ele>410.6666666666667</ele><time>2026-04-20T13:18:58.312Z</time></trkpt><trkpt lat="43.0551801" lon="11.5094677"><ele>412.33333333333337</ele><time>2026-04-20T13:18:59.312Z</time></trkpt><trkpt lat="43.0552378" lon="11.5092493"><ele>414.0</ele><time>2026-04-20T13:19:00.312Z</time></trkpt><trkpt lat="43.0553052" lon="11.5090514"><ele>414.0</ele><time>2026-04-20T13:19:01.312Z</time></trkpt><trkpt lat="43.0553916" lon="11.5088715"><ele>414.0</ele><time>2026-04-20T13:19:02.312Z</time></trkpt><trkpt lat="43.0554982" lon="11.5087196"><ele>414.0</ele><time>2026-04-20T13:19:03.312Z</time></trkpt><trkpt lat="43.0556212" lon="11.5085837"><ele>414.25</ele><time>2026-04-20T13:19:04.312Z</time></trkpt><trkpt lat="43.0557411" lon="11.5084495"><ele>414.5</ele><time>2026-04-20T13:19:05.312Z</time></trkpt><trkpt lat="43.0558518" lon="11.5083127"><ele>414.75</ele><time>2026-04-20T13:19:06.312Z</time></trkpt><trkpt lat="43.0559448" lon="11.5081668"><ele>415.0</ele><time>2026-04-20T13:19:07.312Z</time></trkpt><trkpt lat="43.0560083" lon="11.5080061"><ele>408.6666666666667</ele><time>2026-04-20T13:19:08.312Z</time></trkpt><trkpt lat="43.0560357" lon="11.5078042"><ele>402.33333333333337</ele><time>2026-04-20T13:19:09.312Z</time></trkpt><trkpt lat="43.0560271" lon="11.5075822"><ele>396.0</ele><time>2026-04-20T13:19:10.312Z</time></trkpt><trkpt lat="43.0560004" lon="11.5073719"><ele>396.0</ele><time>2026-04-20T13:19:11.312Z</time></trkpt><trkpt lat="43.0559653" lon="11.507185"><ele>396.0</ele><time>2026-04-20T13:19:12.312Z</time></trkpt><trkpt lat="43.0559039" lon="11.5070225"><ele>396.0</ele><time>2026-04-20T13:19:13.312Z</time></trkpt><trkpt lat="43.0558147" lon="11.5068636"><ele>396.0</ele><time>2026-04-20T13:19:14.312Z</time></trkpt><trkpt lat="43.0557187" lon="11.5067164"><ele>397.5</ele><time>2026-04-20T13:19:15.312Z</time></trkpt><trkpt lat="43.0556139" lon="11.5065785"><ele>399.0</ele><time>2026-04-20T13:19:16.313Z</time></trkpt><trkpt lat="43.0555213" lon="11.5064247"><ele>400.5</ele><time>2026-04-20T13:19:17.312Z</time></trkpt><trkpt lat="43.0554609" lon="11.5062503"><ele>402.0</ele><time>2026-04-20T13:19:18.312Z</time></trkpt><trkpt lat="43.0554411" lon="11.5060539"><ele>402.66666666666663</ele><time>2026-04-20T13:19:19.312Z</time></trkpt><trkpt lat="43.0554561" lon="11.5058457"><ele>403.3333333333333</ele><time>2026-04-20T13:19:20.313Z</time></trkpt><trkpt lat="43.0555057" lon="11.5056358"><ele>404.0</ele><time>2026-04-20T13:19:21.313Z</time></trkpt><trkpt lat="43.0555752" lon="11.5054289"><ele>403.3333333333333</ele><time>2026-04-20T13:19:22.312Z</time></trkpt><trkpt lat="43.0556579" lon="11.505221"><ele>402.66666666666663</ele><time>2026-04-20T13:19:23.313Z</time></trkpt><trkpt lat="43.0557431" lon="11.5050147"><ele>402.0</ele><time>2026-04-20T13:19:24.312Z</time></trkpt><trkpt lat="43.0558435" lon="11.5048033"><ele>398.0</ele><time>2026-04-20T13:19:25.313Z</time></trkpt><trkpt lat="43.0559491" lon="11.50461"><ele>394.0</ele><time>2026-04-20T13:19:26.312Z</time></trkpt><trkpt lat="43.0560586" lon="11.5044383"><ele>390.0</ele><time>2026-04-20T13:19:27.312Z</time></trkpt><trkpt lat="43.0561595" lon="11.5042663"><ele>390.0</ele><time>2026-04-20T13:19:28.312Z</time></trkpt><trkpt lat="43.0562594" lon="11.5041049"><ele>390.0</ele><time>2026-04-20T13:19:29.313Z</time></trkpt><trkpt lat="43.056373" lon="11.5039712"><ele>390.0</ele><time>2026-04-20T13:19:30.313Z</time></trkpt><trkpt lat="43.0565094" lon="11.5038686"><ele>388.0</ele><time>2026-04-20T13:19:31.312Z</time></trkpt><trkpt lat="43.0566673" lon="11.5037852"><ele>386.0</ele><time>2026-04-20T13:19:32.314Z</time></trkpt><trkpt lat="43.0568283" lon="11.5037103"><ele>384.0</ele><time>2026-04-20T13:19:33.313Z</time></trkpt><trkpt lat="43.0569883" lon="11.5036266"><ele>384.0</ele><time>2026-04-20T13:19:34.313Z</time></trkpt><trkpt lat="43.0571466" lon="11.5035442"><ele>384.0</ele><time>2026-04-20T13:19:35.313Z</time></trkpt><trkpt lat="43.0572993" lon="11.5034805"><ele>384.0</ele><time>2026-04-20T13:19:36.313Z</time></trkpt><trkpt lat="43.0574529" lon="11.5034312"><ele>381.0</ele><time>2026-04-20T13:19:37.313Z</time></trkpt><trkpt lat="43.0575972" lon="11.5033855"><ele>378.0</ele><time>2026-04-20T13:19:38.313Z</time></trkpt><trkpt lat="43.0577156" lon="11.503318"><ele>375.0</ele><time>2026-04-20T13:19:39.313Z</time></trkpt><trkpt lat="43.0577958" lon="11.5032126"><ele>372.0</ele><time>2026-04-20T13:19:40.313Z</time></trkpt><trkpt lat="43.0578447" lon="11.5030708"><ele>372.75</ele><time>2026-04-20T13:19:41.314Z</time></trkpt><trkpt lat="43.0578655" lon="11.5028928"><ele>373.5</ele><time>2026-04-20T13:19:42.313Z</time></trkpt><trkpt lat="43.0578623" lon="11.5026993"><ele>374.25</ele><time>2026-04-20T13:19:43.313Z</time></trkpt><trkpt lat="43.0578421" lon="11.5025159"><ele>375.0</ele><time>2026-04-20T13:19:44.314Z</time></trkpt><trkpt lat="43.057836" lon="11.5023601"><ele>375.0</ele><time>2026-04-20T13:19:45.313Z</time></trkpt><trkpt lat="43.0578633" lon="11.502232"><ele>375.0</ele><time>2026-04-20T13:19:46.313Z</time></trkpt><trkpt lat="43.0579312" lon="11.5021277"><ele>375.0</ele><time>2026-04-20T13:19:47.314Z</time></trkpt><trkpt lat="43.0580194" lon="11.5020438"><ele>375.0</ele><time>2026-04-20T13:19:48.313Z</time></trkpt><trkpt lat="43.0581368" lon="11.5020017"><ele>375.0</ele><time>2026-04-20T13:19:49.314Z</time></trkpt><trkpt lat="43.0582618" lon="11.5019884"><ele>372.75</ele><time>2026-04-20T13:19:50.313Z</time></trkpt><trkpt lat="43.0583847" lon="11.5019812"><ele>370.5</ele><time>2026-04-20T13:19:51.314Z</time></trkpt><trkpt lat="43.0584921" lon="11.501999"><ele>368.25</ele><time>2026-04-20T13:19:52.313Z</time></trkpt><trkpt lat="43.0585914" lon="11.5020531"><ele>366.0</ele><time>2026-04-20T13:19:53.313Z</time></trkpt><trkpt lat="43.0586938" lon="11.5021548"><ele>363.5</ele><time>2026-04-20T13:19:54.313Z</time></trkpt><trkpt lat="43.0587964" lon="11.5023094"><ele>361.0</ele><time>2026-04-20T13:19:55.313Z</time></trkpt><trkpt lat="43.0590109" lon="11.5026017"><ele>361.0</ele><time>2026-04-20T13:19:57.313Z</time></trkpt><trkpt lat="43.0591131" lon="11.5027288"><ele>361.0</ele><time>2026-04-20T13:19:58.313Z</time></trkpt><trkpt lat="43.0592223" lon="11.5028386"><ele>361.0</ele><time>2026-04-20T13:19:59.313Z</time></trkpt><trkpt lat="43.0593424" lon="11.5029239"><ele>361.0</ele><time>2026-04-20T13:20:00.313Z</time></trkpt><trkpt lat="43.0594655" lon="11.5029994"><ele>356.25</ele><time>2026-04-20T13:20:01.313Z</time></trkpt><trkpt lat="43.0596026" lon="11.5030419"><ele>351.5</ele><time>2026-04-20T13:20:02.313Z</time></trkpt><trkpt lat="43.0597497" lon="11.5030674"><ele>346.75</ele><time>2026-04-20T13:20:03.313Z</time></trkpt><trkpt lat="43.0598962" lon="11.5030854"><ele>342.0</ele><time>2026-04-20T13:20:04.313Z</time></trkpt><trkpt lat="43.0600446" lon="11.5030865"><ele>341.0</ele><time>2026-04-20T13:20:05.313Z</time></trkpt><trkpt lat="43.0601844" lon="11.5030646"><ele>340.0</ele><time>2026-04-20T13:20:06.314Z</time></trkpt><trkpt lat="43.0603177" lon="11.5030062"><ele>339.0</ele><time>2026-04-20T13:20:07.313Z</time></trkpt><trkpt lat="43.0604375" lon="11.5029158"><ele>338.0</ele><time>2026-04-20T13:20:08.313Z</time></trkpt><trkpt lat="43.0605445" lon="11.5027935"><ele>339.0</ele><time>2026-04-20T13:20:09.313Z</time></trkpt><trkpt lat="43.0606352" lon="11.5026509"><ele>340.0</ele><time>2026-04-20T13:20:10.313Z</time></trkpt><trkpt lat="43.0607136" lon="11.5024867"><ele>341.0</ele><time>2026-04-20T13:20:11.314Z</time></trkpt><trkpt lat="43.0607895" lon="11.5023266"><ele>342.0</ele><time>2026-04-20T13:20:12.313Z</time></trkpt><trkpt lat="43.0608745" lon="11.502201"><ele>342.0</ele><time>2026-04-20T13:20:13.314Z</time></trkpt><trkpt lat="43.0609851" lon="11.5021045"><ele>342.0</ele><time>2026-04-20T13:20:14.313Z</time></trkpt><trkpt lat="43.0611142" lon="11.5020485"><ele>342.0</ele><time>2026-04-20T13:20:15.313Z</time></trkpt><trkpt lat="43.0612622" lon="11.5020227"><ele>342.0</ele><time>2026-04-20T13:20:16.313Z</time></trkpt><trkpt lat="43.0614175" lon="11.5020243"><ele>342.0</ele><time>2026-04-20T13:20:17.313Z</time></trkpt><trkpt lat="43.0615645" lon="11.5020078"><ele>342.0</ele><time>2026-04-20T13:20:18.313Z</time></trkpt><trkpt lat="43.0616944" lon="11.5019432"><ele>342.0</ele><time>2026-04-20T13:20:19.314Z</time></trkpt><trkpt lat="43.0618192" lon="11.5018366"><ele>342.0</ele><time>2026-04-20T13:20:20.313Z</time></trkpt><trkpt lat="43.061935" lon="11.5017283"><ele>342.0</ele><time>2026-04-20T13:20:21.314Z</time></trkpt><trkpt lat="43.0620455" lon="11.5016179"><ele>342.0</ele><time>2026-04-20T13:20:22.314Z</time></trkpt><trkpt lat="43.0621563" lon="11.5015063"><ele>342.0</ele><time>2026-04-20T13:20:23.314Z</time></trkpt><trkpt lat="43.0622668" lon="11.5013996"><ele>342.0</ele><time>2026-04-20T13:20:24.315Z</time></trkpt><trkpt lat="43.0623747" lon="11.5012994"><ele>340.75</ele><time>2026-04-20T13:20:25.314Z</time></trkpt><trkpt lat="43.0624828" lon="11.5012006"><ele>339.5</ele><time>2026-04-20T13:20:26.314Z</time></trkpt><trkpt lat="43.0625833" lon="11.5011116"><ele>338.25</ele><time>2026-04-20T13:20:27.314Z</time></trkpt><trkpt lat="43.062681" lon="11.5010369"><ele>337.0</ele><time>2026-04-20T13:20:28.314Z</time></trkpt><trkpt lat="43.0627856" lon="11.5009891"><ele>337.0</ele><time>2026-04-20T13:20:29.315Z</time></trkpt><trkpt lat="43.0629048" lon="11.500972"><ele>337.0</ele><time>2026-04-20T13:20:30.315Z</time></trkpt><trkpt lat="43.0630332" lon="11.5009831"><ele>337.0</ele><time>2026-04-20T13:20:31.314Z</time></trkpt><trkpt lat="43.0631671" lon="11.5010253"><ele>337.0</ele><time>2026-04-20T13:20:32.314Z</time></trkpt><trkpt lat="43.0633044" lon="11.5010931"><ele>335.5</ele><time>2026-04-20T13:20:33.314Z</time></trkpt><trkpt lat="43.0634402" lon="11.5011781"><ele>334.0</ele><time>2026-04-20T13:20:34.314Z</time></trkpt><trkpt lat="43.0635689" lon="11.5012521"><ele>332.5</ele><time>2026-04-20T13:20:35.314Z</time></trkpt><trkpt lat="43.0636886" lon="11.5013181"><ele>331.0</ele><time>2026-04-20T13:20:36.314Z</time></trkpt><trkpt lat="43.0638004" lon="11.5013793"><ele>329.0</ele><time>2026-04-20T13:20:37.314Z</time></trkpt><trkpt lat="43.0639112" lon="11.5014369"><ele>327.0</ele><time>2026-04-20T13:20:38.314Z</time></trkpt><trkpt lat="43.064027" lon="11.5014954"><ele>325.0</ele><time>2026-04-20T13:20:39.315Z</time></trkpt><trkpt lat="43.0641478" lon="11.5015573"><ele>323.0</ele><time>2026-04-20T13:20:40.314Z</time></trkpt><trkpt lat="43.0642695" lon="11.5016218"><ele>322.75</ele><time>2026-04-20T13:20:41.314Z</time></trkpt><trkpt lat="43.0643862" lon="11.501681"><ele>322.5</ele><time>2026-04-20T13:20:42.314Z</time></trkpt><trkpt lat="43.0644984" lon="11.5017317"><ele>322.25</ele><time>2026-04-20T13:20:43.314Z</time></trkpt><trkpt lat="43.0646133" lon="11.5017682"><ele>322.0</ele><time>2026-04-20T13:20:44.315Z</time></trkpt><trkpt lat="43.0647376" lon="11.5017825"><ele>322.0</ele><time>2026-04-20T13:20:45.314Z</time></trkpt><trkpt lat="43.0648692" lon="11.5017645"><ele>322.0</ele><time>2026-04-20T13:20:46.314Z</time></trkpt><trkpt lat="43.0649983" lon="11.501715"><ele>322.0</ele><time>2026-04-20T13:20:47.314Z</time></trkpt><trkpt lat="43.0651165" lon="11.5016361"><ele>322.0</ele><time>2026-04-20T13:20:48.314Z</time></trkpt><trkpt lat="43.065223" lon="11.5015313"><ele>321.75</ele><time>2026-04-20T13:20:49.314Z</time></trkpt><trkpt lat="43.0653214" lon="11.5014016"><ele>321.5</ele><time>2026-04-20T13:20:50.314Z</time></trkpt><trkpt lat="43.0654105" lon="11.5012492"><ele>321.25</ele><time>2026-04-20T13:20:51.314Z</time></trkpt><trkpt lat="43.065488" lon="11.5010752"><ele>321.0</ele><time>2026-04-20T13:20:52.314Z</time></trkpt><trkpt lat="43.0655657" lon="11.5008825"><ele>321.0</ele><time>2026-04-20T13:20:53.314Z</time></trkpt><trkpt lat="43.0656494" lon="11.5006876"><ele>321.0</ele><time>2026-04-20T13:20:54.315Z</time></trkpt><trkpt lat="43.065733" lon="11.5005129"><ele>321.0</ele><time>2026-04-20T13:20:55.314Z</time></trkpt><trkpt lat="43.0658218" lon="11.5003561"><ele>319.25</ele><time>2026-04-20T13:20:56.314Z</time></trkpt><trkpt lat="43.0659253" lon="11.500228"><ele>317.5</ele><time>2026-04-20T13:20:57.314Z</time></trkpt><trkpt lat="43.0660512" lon="11.5001366"><ele>315.75</ele><time>2026-04-20T13:20:58.314Z</time></trkpt><trkpt lat="43.0661944" lon="11.5000713"><ele>314.0</ele><time>2026-04-20T13:20:59.314Z</time></trkpt><trkpt lat="43.0663433" lon="11.5000268"><ele>314.0</ele><time>2026-04-20T13:21:00.314Z</time></trkpt><trkpt lat="43.0664983" lon="11.4999921"><ele>314.0</ele><time>2026-04-20T13:21:01.314Z</time></trkpt><trkpt lat="43.0666498" lon="11.4999604"><ele>314.0</ele><time>2026-04-20T13:21:02.314Z</time></trkpt><trkpt lat="43.0667978" lon="11.4999054"><ele>311.33333333333337</ele><time>2026-04-20T13:21:03.314Z</time></trkpt><trkpt lat="43.0669465" lon="11.4998272"><ele>308.6666666666667</ele><time>2026-04-20T13:21:04.314Z</time></trkpt><trkpt lat="43.0670913" lon="11.4997282"><ele>306.0</ele><time>2026-04-20T13:21:05.314Z</time></trkpt><trkpt lat="43.0672279" lon="11.4996238"><ele>305.3333333333333</ele><time>2026-04-20T13:21:06.314Z</time></trkpt><trkpt lat="43.0673563" lon="11.4995276"><ele>304.66666666666663</ele><time>2026-04-20T13:21:07.315Z</time></trkpt><trkpt lat="43.0674845" lon="11.4994373"><ele>304.0</ele><time>2026-04-20T13:21:08.314Z</time></trkpt><trkpt lat="43.0677534" lon="11.4992709"><ele>304.0</ele><time>2026-04-20T13:21:10.315Z</time></trkpt><trkpt lat="43.0679008" lon="11.4992021"><ele>304.0</ele><time>2026-04-20T13:21:11.315Z</time></trkpt><trkpt lat="43.0680609" lon="11.499151"><ele>304.0</ele><time>2026-04-20T13:21:12.316Z</time></trkpt><trkpt lat="43.0682283" lon="11.4991103"><ele>300.66666666666663</ele><time>2026-04-20T13:21:13.315Z</time></trkpt><trkpt lat="43.0683942" lon="11.4990677"><ele>297.3333333333333</ele><time>2026-04-20T13:21:14.316Z</time></trkpt><trkpt lat="43.0685588" lon="11.4990238"><ele>294.0</ele><time>2026-04-20T13:21:15.315Z</time></trkpt><trkpt lat="43.0687239" lon="11.4989768"><ele>294.0</ele><time>2026-04-20T13:21:16.315Z</time></trkpt><trkpt lat="43.0688938" lon="11.4989255"><ele>294.0</ele><time>2026-04-20T13:21:17.315Z</time></trkpt><trkpt lat="43.0690659" lon="11.498874"><ele>294.0</ele><time>2026-04-20T13:21:18.315Z</time></trkpt><trkpt lat="43.0692378" lon="11.4988233"><ele>292.3333333333333</ele><time>2026-04-20T13:21:19.316Z</time></trkpt><trkpt lat="43.0694086" lon="11.4987722"><ele>290.66666666666663</ele><time>2026-04-20T13:21:20.315Z</time></trkpt><trkpt lat="43.069579" lon="11.4987203"><ele>289.0</ele><time>2026-04-20T13:21:21.315Z</time></trkpt><trkpt lat="43.0697474" lon="11.4986681"><ele>289.0</ele><time>2026-04-20T13:21:22.315Z</time></trkpt><trkpt lat="43.0699124" lon="11.498615"><ele>289.0</ele><time>2026-04-20T13:21:23.315Z</time></trkpt><trkpt lat="43.0700691" lon="11.4985501"><ele>289.0</ele><time>2026-04-20T13:21:24.315Z</time></trkpt><trkpt lat="43.0702164" lon="11.4984666"><ele>287.66666666666663</ele><time>2026-04-20T13:21:25.315Z</time></trkpt><trkpt lat="43.070358" lon="11.4983741"><ele>286.3333333333333</ele><time>2026-04-20T13:21:26.316Z</time></trkpt><trkpt lat="43.0704987" lon="11.4982791"><ele>285.0</ele><time>2026-04-20T13:21:27.315Z</time></trkpt><trkpt lat="43.0706379" lon="11.4981799"><ele>284.3333333333333</ele><time>2026-04-20T13:21:28.315Z</time></trkpt><trkpt lat="43.0707782" lon="11.4980725"><ele>283.66666666666663</ele><time>2026-04-20T13:21:29.315Z</time></trkpt><trkpt lat="43.0709185" lon="11.4979637"><ele>283.0</ele><time>2026-04-20T13:21:30.316Z</time></trkpt><trkpt lat="43.0710601" lon="11.4978508"><ele>281.0</ele><time>2026-04-20T13:21:31.316Z</time></trkpt><trkpt lat="43.0712041" lon="11.4977384"><ele>279.0</ele><time>2026-04-20T13:21:32.315Z</time></trkpt><trkpt lat="43.0713504" lon="11.4976253"><ele>277.0</ele><time>2026-04-20T13:21:33.316Z</time></trkpt><trkpt lat="43.0714972" lon="11.4975105"><ele>278.0</ele><time>2026-04-20T13:21:34.315Z</time></trkpt><trkpt lat="43.071647" lon="11.4973964"><ele>279.0</ele><time>2026-04-20T13:21:35.315Z</time></trkpt><trkpt lat="43.0717992" lon="11.4972796"><ele>280.0</ele><time>2026-04-20T13:21:36.315Z</time></trkpt><trkpt lat="43.0719581" lon="11.4971542"><ele>278.66666666666663</ele><time>2026-04-20T13:21:37.315Z</time></trkpt><trkpt lat="43.0721243" lon="11.4970265"><ele>277.3333333333333</ele><time>2026-04-20T13:21:38.315Z</time></trkpt><trkpt lat="43.0722893" lon="11.4968986"><ele>276.0</ele><time>2026-04-20T13:21:39.315Z</time></trkpt><trkpt lat="43.0724535" lon="11.4967721"><ele>276.0</ele><time>2026-04-20T13:21:40.315Z</time></trkpt><trkpt lat="43.0726181" lon="11.4966538"><ele>276.0</ele><time>2026-04-20T13:21:41.315Z</time></trkpt><trkpt lat="43.0727891" lon="11.4965478"><ele>276.0</ele><time>2026-04-20T13:21:42.316Z</time></trkpt><trkpt lat="43.072961" lon="11.4964632"><ele>276.0</ele><time>2026-04-20T13:21:43.315Z</time></trkpt><trkpt lat="43.0731361" lon="11.4963886"><ele>276.0</ele><time>2026-04-20T13:21:44.315Z</time></trkpt><trkpt lat="43.0733109" lon="11.4963159"><ele>276.0</ele><time>2026-04-20T13:21:45.315Z</time></trkpt><trkpt lat="43.0734845" lon="11.4962464"><ele>272.3333333333333</ele><time>2026-04-20T13:21:46.315Z</time></trkpt><trkpt lat="43.0736611" lon="11.4961688"><ele>268.66666666666663</ele><time>2026-04-20T13:21:47.315Z</time></trkpt><trkpt lat="43.0738336" lon="11.496079"><ele>265.0</ele><time>2026-04-20T13:21:48.315Z</time></trkpt><trkpt lat="43.0739995" lon="11.4959691"><ele>264.66666666666663</ele><time>2026-04-20T13:21:49.315Z</time></trkpt><trkpt lat="43.0741615" lon="11.4958458"><ele>264.3333333333333</ele><time>2026-04-20T13:21:50.315Z</time></trkpt><trkpt lat="43.07432" lon="11.4957113"><ele>264.0</ele><time>2026-04-20T13:21:51.316Z</time></trkpt><trkpt lat="43.074471" lon="11.4955803"><ele>264.0</ele><time>2026-04-20T13:21:52.316Z</time></trkpt><trkpt lat="43.074623" lon="11.4954491"><ele>264.0</ele><time>2026-04-20T13:21:53.315Z</time></trkpt><trkpt lat="43.0747771" lon="11.4953179"><ele>264.0</ele><time>2026-04-20T13:21:54.315Z</time></trkpt><trkpt lat="43.0749327" lon="11.4951861"><ele>262.0</ele><time>2026-04-20T13:21:55.317Z</time></trkpt><trkpt lat="43.0750873" lon="11.4950535"><ele>260.0</ele><time>2026-04-20T13:21:56.316Z</time></trkpt><trkpt lat="43.0752421" lon="11.4949189"><ele>258.0</ele><time>2026-04-20T13:21:57.315Z</time></trkpt><trkpt lat="43.0753944" lon="11.4947837"><ele>258.0</ele><time>2026-04-20T13:21:58.316Z</time></trkpt><trkpt lat="43.0755471" lon="11.4946473"><ele>258.0</ele><time>2026-04-20T13:21:59.316Z</time></trkpt><trkpt lat="43.0757011" lon="11.4945066"><ele>258.0</ele><time>2026-04-20T13:22:00.317Z</time></trkpt><trkpt lat="43.0758523" lon="11.4943601"><ele>256.3333333333333</ele><time>2026-04-20T13:22:01.316Z</time></trkpt><trkpt lat="43.0759997" lon="11.4942097"><ele>254.66666666666666</ele><time>2026-04-20T13:22:02.316Z</time></trkpt><trkpt lat="43.0761426" lon="11.4940597"><ele>253.0</ele><time>2026-04-20T13:22:03.316Z</time></trkpt><trkpt lat="43.0762829" lon="11.4939122"><ele>253.0</ele><time>2026-04-20T13:22:04.316Z</time></trkpt><trkpt lat="43.0764249" lon="11.4937654"><ele>253.0</ele><time>2026-04-20T13:22:05.316Z</time></trkpt><trkpt lat="43.0765651" lon="11.4936196"><ele>253.0</ele><time>2026-04-20T13:22:06.317Z</time></trkpt><trkpt lat="43.0767057" lon="11.4934736"><ele>252.33333333333331</ele><time>2026-04-20T13:22:07.316Z</time></trkpt><trkpt lat="43.0768435" lon="11.4933404"><ele>251.66666666666669</ele><time>2026-04-20T13:22:08.316Z</time></trkpt><trkpt lat="43.0769768" lon="11.4932232"><ele>251.0</ele><time>2026-04-20T13:22:09.316Z</time></trkpt><trkpt lat="43.0771074" lon="11.4931296"><ele>251.0</ele><time>2026-04-20T13:22:10.316Z</time></trkpt><trkpt lat="43.0772315" lon="11.4930528"><ele>251.00000000000003</ele><time>2026-04-20T13:22:11.316Z</time></trkpt><trkpt lat="43.0773328" lon="11.4929998"><ele>251.00000000000003</ele><time>2026-04-20T13:22:12.316Z</time></trkpt><trkpt lat="43.0774135" lon="11.4929579"><ele>251.0</ele><time>2026-04-20T13:22:13.317Z</time></trkpt><trkpt lat="43.0774791" lon="11.492921"><ele>251.0</ele><time>2026-04-20T13:22:14.316Z</time></trkpt><trkpt lat="43.0775864" lon="11.4928511"><ele>250.83333333333334</ele><time>2026-04-20T13:22:16.316Z</time></trkpt><trkpt lat="43.0776675" lon="11.4928658"><ele>250.66666666666669</ele><time>2026-04-20T13:22:18.316Z</time></trkpt><trkpt lat="43.0777442" lon="11.4929613"><ele>250.5</ele><time>2026-04-20T13:22:20.317Z</time></trkpt><trkpt lat="43.077797" lon="11.4930165"><ele>250.33333333333331</ele><time>2026-04-20T13:22:21.316Z</time></trkpt><trkpt lat="43.077857" lon="11.4930644"><ele>250.16666666666666</ele><time>2026-04-20T13:22:22.316Z</time></trkpt><trkpt lat="43.0779239" lon="11.4931224"><ele>250.0</ele><time>2026-04-20T13:22:23.316Z</time></trkpt><trkpt lat="43.0779911" lon="11.4931978"><ele>250.0</ele><time>2026-04-20T13:22:24.316Z</time></trkpt><trkpt lat="43.0780565" lon="11.4932762"><ele>250.0</ele><time>2026-04-20T13:22:25.316Z</time></trkpt><trkpt lat="43.07812" lon="11.4933616"><ele>250.0</ele><time>2026-04-20T13:22:26.316Z</time></trkpt><trkpt lat="43.0781806" lon="11.4934503"><ele>250.0</ele><time>2026-04-20T13:22:27.316Z</time></trkpt><trkpt lat="43.0782448" lon="11.4935432"><ele>250.0</ele><time>2026-04-20T13:22:28.316Z</time></trkpt><trkpt lat="43.0783099" lon="11.4936364"><ele>250.4</ele><time>2026-04-20T13:22:29.316Z</time></trkpt><trkpt lat="43.0783783" lon="11.4937297"><ele>250.8</ele><time>2026-04-20T13:22:30.316Z</time></trkpt><trkpt lat="43.0784451" lon="11.4938216"><ele>251.2</ele><time>2026-04-20T13:22:31.317Z</time></trkpt><trkpt lat="43.0785104" lon="11.4939167"><ele>251.6</ele><time>2026-04-20T13:22:32.316Z</time></trkpt><trkpt lat="43.0785697" lon="11.4940141"><ele>252.0</ele><time>2026-04-20T13:22:33.316Z</time></trkpt><trkpt lat="43.0786253" lon="11.4941159"><ele>252.39999999999998</ele><time>2026-04-20T13:22:34.316Z</time></trkpt><trkpt lat="43.0786807" lon="11.4942236"><ele>252.79999999999998</ele><time>2026-04-20T13:22:35.316Z</time></trkpt><trkpt lat="43.0787278" lon="11.494334"><ele>253.2</ele><time>2026-04-20T13:22:36.316Z</time></trkpt><trkpt lat="43.0787688" lon="11.4944462"><ele>253.6</ele><time>2026-04-20T13:22:37.316Z</time></trkpt><trkpt lat="43.0788061" lon="11.4945596"><ele>254.0</ele><time>2026-04-20T13:22:38.316Z</time></trkpt><trkpt lat="43.078843" lon="11.4946767"><ele>254.0</ele><time>2026-04-20T13:22:39.317Z</time></trkpt><trkpt lat="43.0788834" lon="11.4947928"><ele>253.99999999999997</ele><time>2026-04-20T13:22:40.316Z</time></trkpt><trkpt lat="43.0789254" lon="11.4949147"><ele>253.99999999999997</ele><time>2026-04-20T13:22:41.316Z</time></trkpt><trkpt lat="43.078963" lon="11.4950332"><ele>254.0</ele><time>2026-04-20T13:22:42.317Z</time></trkpt><trkpt lat="43.0789969" lon="11.4951498"><ele>254.0</ele><time>2026-04-20T13:22:43.317Z</time></trkpt><trkpt lat="43.0790307" lon="11.4952602"><ele>254.00000000000003</ele><time>2026-04-20T13:22:44.317Z</time></trkpt><trkpt lat="43.0790657" lon="11.4953668"><ele>254.0</ele><time>2026-04-20T13:22:45.316Z</time></trkpt><trkpt lat="43.0791044" lon="11.4954729"><ele>254.0</ele><time>2026-04-20T13:22:46.317Z</time></trkpt><trkpt lat="43.0791445" lon="11.4955797"><ele>254.0</ele><time>2026-04-20T13:22:47.317Z</time></trkpt><trkpt lat="43.0791847" lon="11.495688"><ele>254.00000000000003</ele><time>2026-04-20T13:22:48.318Z</time></trkpt><trkpt lat="43.0792235" lon="11.4958001"><ele>254.0</ele><time>2026-04-20T13:22:49.317Z</time></trkpt><trkpt lat="43.07926" lon="11.495907"><ele>255.33333333333334</ele><time>2026-04-20T13:22:50.317Z</time></trkpt><trkpt lat="43.0792963" lon="11.4960121"><ele>256.6666666666667</ele><time>2026-04-20T13:22:51.317Z</time></trkpt><trkpt lat="43.0793339" lon="11.4961193"><ele>258.0</ele><time>2026-04-20T13:22:52.318Z</time></trkpt><trkpt lat="43.0793736" lon="11.4962304"><ele>259.3333333333333</ele><time>2026-04-20T13:22:53.317Z</time></trkpt><trkpt lat="43.0794121" lon="11.496338"><ele>260.66666666666663</ele><time>2026-04-20T13:22:54.317Z</time></trkpt><trkpt lat="43.0794486" lon="11.4964414"><ele>262.0</ele><time>2026-04-20T13:22:55.317Z</time></trkpt><trkpt lat="43.0794826" lon="11.4965444"><ele>262.16666666666663</ele><time>2026-04-20T13:22:56.317Z</time></trkpt><trkpt lat="43.0795086" lon="11.4966505"><ele>262.3333333333333</ele><time>2026-04-20T13:22:57.317Z</time></trkpt><trkpt lat="43.079526" lon="11.4967588"><ele>262.5</ele><time>2026-04-20T13:22:58.317Z</time></trkpt><trkpt lat="43.0795358" lon="11.496868"><ele>262.6666666666667</ele><time>2026-04-20T13:22:59.317Z</time></trkpt><trkpt lat="43.0795405" lon="11.4969719"><ele>262.83333333333337</ele><time>2026-04-20T13:23:00.317Z</time></trkpt><trkpt lat="43.0795459" lon="11.4970801"><ele>263.0</ele><time>2026-04-20T13:23:01.317Z</time></trkpt><trkpt lat="43.0795581" lon="11.4971945"><ele>263.0</ele><time>2026-04-20T13:23:02.317Z</time></trkpt><trkpt lat="43.0795796" lon="11.4973128"><ele>263.0</ele><time>2026-04-20T13:23:03.317Z</time></trkpt><trkpt lat="43.0796107" lon="11.4974294"><ele>263.0</ele><time>2026-04-20T13:23:04.317Z</time></trkpt><trkpt lat="43.0796458" lon="11.4975463"><ele>263.0</ele><time>2026-04-20T13:23:05.317Z</time></trkpt><trkpt lat="43.0796828" lon="11.4976637"><ele>263.0</ele><time>2026-04-20T13:23:06.318Z</time></trkpt><trkpt lat="43.0797201" lon="11.4977806"><ele>263.0</ele><time>2026-04-20T13:23:07.317Z</time></trkpt><trkpt lat="43.0797597" lon="11.4978987"><ele>263.0</ele><time>2026-04-20T13:23:08.317Z</time></trkpt><trkpt lat="43.0797996" lon="11.498019"><ele>263.0</ele><time>2026-04-20T13:23:09.317Z</time></trkpt><trkpt lat="43.0798362" lon="11.4981434"><ele>263.0</ele><time>2026-04-20T13:23:10.317Z</time></trkpt><trkpt lat="43.0798677" lon="11.4982631"><ele>263.0</ele><time>2026-04-20T13:23:11.317Z</time></trkpt><trkpt lat="43.0799" lon="11.4983735"><ele>263.83333333333337</ele><time>2026-04-20T13:23:12.317Z</time></trkpt><trkpt lat="43.0799377" lon="11.4984783"><ele>264.6666666666667</ele><time>2026-04-20T13:23:13.317Z</time></trkpt><trkpt lat="43.0799806" lon="11.4985773"><ele>265.5</ele><time>2026-04-20T13:23:14.318Z</time></trkpt><trkpt lat="43.0800302" lon="11.4986656"><ele>266.3333333333333</ele><time>2026-04-20T13:23:15.317Z</time></trkpt><trkpt lat="43.0800906" lon="11.4987556"><ele>267.16666666666663</ele><time>2026-04-20T13:23:16.317Z</time></trkpt><trkpt lat="43.0801582" lon="11.4988518"><ele>268.0</ele><time>2026-04-20T13:23:17.318Z</time></trkpt><trkpt lat="43.0802299" lon="11.4989519"><ele>268.0</ele><time>2026-04-20T13:23:18.318Z</time></trkpt><trkpt lat="43.0803001" lon="11.4990509"><ele>268.0</ele><time>2026-04-20T13:23:19.317Z</time></trkpt><trkpt lat="43.080368" lon="11.499146"><ele>268.0</ele><time>2026-04-20T13:23:20.317Z</time></trkpt><trkpt lat="43.0804363" lon="11.4992466"><ele>268.0</ele><time>2026-04-20T13:23:21.317Z</time></trkpt><trkpt lat="43.0805063" lon="11.4993543"><ele>268.0</ele><time>2026-04-20T13:23:22.317Z</time></trkpt><trkpt lat="43.080581" lon="11.4994684"><ele>268.0</ele><time>2026-04-20T13:23:23.317Z</time></trkpt><trkpt lat="43.080662" lon="11.4995915"><ele>268.0</ele><time>2026-04-20T13:23:24.318Z</time></trkpt><trkpt lat="43.0807474" lon="11.4997239"><ele>268.0</ele><time>2026-04-20T13:23:25.317Z</time></trkpt><trkpt lat="43.0808337" lon="11.4998605"><ele>268.0</ele><time>2026-04-20T13:23:26.318Z</time></trkpt><trkpt lat="43.0809216" lon="11.4999916"><ele>268.0</ele><time>2026-04-20T13:23:27.317Z</time></trkpt><trkpt lat="43.0810104" lon="11.5001092"><ele>268.0</ele><time>2026-04-20T13:23:28.318Z</time></trkpt><trkpt lat="43.0811001" lon="11.5002075"><ele>268.0</ele><time>2026-04-20T13:23:29.317Z</time></trkpt><trkpt lat="43.081195" lon="11.5002775"><ele>268.0</ele><time>2026-04-20T13:23:30.317Z</time></trkpt><trkpt lat="43.0812906" lon="11.5003235"><ele>268.0</ele><time>2026-04-20T13:23:31.317Z</time></trkpt><trkpt lat="43.0813915" lon="11.5003506"><ele>268.0</ele><time>2026-04-20T13:23:32.317Z</time></trkpt><trkpt lat="43.0814933" lon="11.5003714"><ele>268.0</ele><time>2026-04-20T13:23:33.317Z</time></trkpt><trkpt lat="43.0816011" lon="11.5003898"><ele>268.0</ele><time>2026-04-20T13:23:34.317Z</time></trkpt><trkpt lat="43.081714" lon="11.5004104"><ele>268.0</ele><time>2026-04-20T13:23:35.317Z</time></trkpt><trkpt lat="43.0818324" lon="11.500434"><ele>268.0</ele><time>2026-04-20T13:23:36.319Z</time></trkpt><trkpt lat="43.0819487" lon="11.5004629"><ele>267.75</ele><time>2026-04-20T13:23:37.318Z</time></trkpt><trkpt lat="43.0820635" lon="11.5004964"><ele>267.5</ele><time>2026-04-20T13:23:38.318Z</time></trkpt><trkpt lat="43.0821743" lon="11.5005301"><ele>267.25</ele><time>2026-04-20T13:23:39.318Z</time></trkpt><trkpt lat="43.0822825" lon="11.5005679"><ele>267.0</ele><time>2026-04-20T13:23:40.318Z</time></trkpt><trkpt lat="43.0823904" lon="11.5006143"><ele>267.75</ele><time>2026-04-20T13:23:41.318Z</time></trkpt><trkpt lat="43.0824954" lon="11.5006623"><ele>268.5</ele><time>2026-04-20T13:23:42.318Z</time></trkpt><trkpt lat="43.0826064" lon="11.5007144"><ele>269.25</ele><time>2026-04-20T13:23:43.318Z</time></trkpt><trkpt lat="43.0827172" lon="11.5007727"><ele>270.0</ele><time>2026-04-20T13:23:44.318Z</time></trkpt><trkpt lat="43.0828265" lon="11.5008364"><ele>270.0</ele><time>2026-04-20T13:23:45.319Z</time></trkpt><trkpt lat="43.082936" lon="11.5009053"><ele>270.0</ele><time>2026-04-20T13:23:46.318Z</time></trkpt><trkpt lat="43.0830442" lon="11.5009732"><ele>270.0</ele><time>2026-04-20T13:23:47.319Z</time></trkpt><trkpt lat="43.0831456" lon="11.5010344"><ele>270.0</ele><time>2026-04-20T13:23:48.318Z</time></trkpt><trkpt lat="43.0832415" lon="11.5010885"><ele>269.4</ele><time>2026-04-20T13:23:49.318Z</time></trkpt><trkpt lat="43.0833343" lon="11.5011403"><ele>268.8</ele><time>2026-04-20T13:23:50.318Z</time></trkpt><trkpt lat="43.0834215" lon="11.501191"><ele>268.2</ele><time>2026-04-20T13:23:51.318Z</time></trkpt><trkpt lat="43.0835022" lon="11.5012413"><ele>267.6</ele><time>2026-04-20T13:23:52.318Z</time></trkpt><trkpt lat="43.0835825" lon="11.5012918"><ele>267.0</ele><time>2026-04-20T13:23:53.318Z</time></trkpt><trkpt lat="43.0836631" lon="11.5013394"><ele>267.0</ele><time>2026-04-20T13:23:54.318Z</time></trkpt><trkpt lat="43.0837482" lon="11.5013862"><ele>267.0</ele><time>2026-04-20T13:23:55.318Z</time></trkpt><trkpt lat="43.0838362" lon="11.5014332"><ele>267.0</ele><time>2026-04-20T13:23:56.318Z</time></trkpt><trkpt lat="43.0839227" lon="11.5014822"><ele>267.0</ele><time>2026-04-20T13:23:57.319Z</time></trkpt><trkpt lat="43.0840014" lon="11.5015296"><ele>267.0</ele><time>2026-04-20T13:23:58.318Z</time></trkpt><trkpt lat="43.0840669" lon="11.5015707"><ele>267.0</ele><time>2026-04-20T13:23:59.318Z</time></trkpt><trkpt lat="43.0841665" lon="11.5016352"><ele>267.1666666666667</ele><time>2026-04-20T13:24:01.319Z</time></trkpt><trkpt lat="43.0842367" lon="11.5017306"><ele>267.3333333333333</ele><time>2026-04-20T13:24:03.318Z</time></trkpt><trkpt lat="43.084249" lon="11.5018966"><ele>267.5</ele><time>2026-04-20T13:24:05.319Z</time></trkpt><trkpt lat="43.0842262" lon="11.5019854"><ele>267.66666666666663</ele><time>2026-04-20T13:24:06.318Z</time></trkpt><trkpt lat="43.0841939" lon="11.5020726"><ele>267.8333333333333</ele><time>2026-04-20T13:24:07.318Z</time></trkpt><trkpt lat="43.0841603" lon="11.5021609"><ele>268.0</ele><time>2026-04-20T13:24:08.318Z</time></trkpt><trkpt lat="43.0841297" lon="11.502253"><ele>268.0</ele><time>2026-04-20T13:24:09.318Z</time></trkpt><trkpt lat="43.084102" lon="11.5023442"><ele>268.0</ele><time>2026-04-20T13:24:10.318Z</time></trkpt><trkpt lat="43.0840757" lon="11.5024285"><ele>268.0</ele><time>2026-04-20T13:24:11.318Z</time></trkpt><trkpt lat="43.0840521" lon="11.5025098"><ele>268.0</ele><time>2026-04-20T13:24:12.318Z</time></trkpt><trkpt lat="43.0840175" lon="11.5026738"><ele>268.0</ele><time>2026-04-20T13:24:14.318Z</time></trkpt><trkpt lat="43.0840081" lon="11.5027781"><ele>268.0</ele><time>2026-04-20T13:24:15.318Z</time></trkpt><trkpt lat="43.0840083" lon="11.5029003"><ele>269.2</ele><time>2026-04-20T13:24:16.32Z</time></trkpt><trkpt lat="43.0840178" lon="11.5030258"><ele>270.4</ele><time>2026-04-20T13:24:17.318Z</time></trkpt><trkpt lat="43.0840308" lon="11.5031517"><ele>271.59999999999997</ele><time>2026-04-20T13:24:18.318Z</time></trkpt><trkpt lat="43.0840428" lon="11.5032759"><ele>272.8</ele><time>2026-04-20T13:24:19.318Z</time></trkpt><trkpt lat="43.0840515" lon="11.5033974"><ele>274.0</ele><time>2026-04-20T13:24:20.318Z</time></trkpt><trkpt lat="43.0840507" lon="11.5035164"><ele>274.0</ele><time>2026-04-20T13:24:21.319Z</time></trkpt><trkpt lat="43.084038" lon="11.5036344"><ele>274.0</ele><time>2026-04-20T13:24:22.318Z</time></trkpt><trkpt lat="43.0840124" lon="11.5037483"><ele>274.0</ele><time>2026-04-20T13:24:23.318Z</time></trkpt><trkpt lat="43.083977" lon="11.5038624"><ele>274.0</ele><time>2026-04-20T13:24:24.318Z</time></trkpt><trkpt lat="43.0839321" lon="11.5039734"><ele>274.0</ele><time>2026-04-20T13:24:25.319Z</time></trkpt><trkpt lat="43.0838853" lon="11.5040745"><ele>274.0</ele><time>2026-04-20T13:24:26.319Z</time></trkpt><trkpt lat="43.0838386" lon="11.5041671"><ele>274.8333333333333</ele><time>2026-04-20T13:24:27.32Z</time></trkpt><trkpt lat="43.0837906" lon="11.5042415"><ele>275.66666666666663</ele><time>2026-04-20T13:24:28.319Z</time></trkpt><trkpt lat="43.0837379" lon="11.5042933"><ele>276.5</ele><time>2026-04-20T13:24:29.319Z</time></trkpt><trkpt lat="43.0836756" lon="11.5043264"><ele>277.3333333333333</ele><time>2026-04-20T13:24:30.32Z</time></trkpt><trkpt lat="43.083602" lon="11.5043365"><ele>278.1666666666667</ele><time>2026-04-20T13:24:31.32Z</time></trkpt><trkpt lat="43.0835209" lon="11.5043195"><ele>279.0</ele><time>2026-04-20T13:24:32.319Z</time></trkpt><trkpt lat="43.0834331" lon="11.5042797"><ele>279.0</ele><time>2026-04-20T13:24:33.32Z</time></trkpt><trkpt lat="43.0833497" lon="11.5042407"><ele>279.0</ele><time>2026-04-20T13:24:34.319Z</time></trkpt><trkpt lat="43.0832701" lon="11.5042157"><ele>279.0</ele><time>2026-04-20T13:24:35.319Z</time></trkpt><trkpt lat="43.0831938" lon="11.504204"><ele>279.0</ele><time>2026-04-20T13:24:36.319Z</time></trkpt><trkpt lat="43.0831245" lon="11.5042047"><ele>279.0</ele><time>2026-04-20T13:24:37.319Z</time></trkpt><trkpt lat="43.0830616" lon="11.5042189"><ele>279.0</ele><time>2026-04-20T13:24:38.319Z</time></trkpt><trkpt lat="43.0829645" lon="11.5042932"><ele>280.8</ele><time>2026-04-20T13:24:40.319Z</time></trkpt><trkpt lat="43.0828771" lon="11.504431"><ele>282.59999999999997</ele><time>2026-04-20T13:24:42.32Z</time></trkpt><trkpt lat="43.0828338" lon="11.5045162"><ele>284.4</ele><time>2026-04-20T13:24:43.319Z</time></trkpt><trkpt lat="43.0827897" lon="11.504605"><ele>286.2</ele><time>2026-04-20T13:24:44.319Z</time></trkpt><trkpt lat="43.0827412" lon="11.5046987"><ele>288.0</ele><time>2026-04-20T13:24:45.32Z</time></trkpt><trkpt lat="43.0826867" lon="11.5047959"><ele>289.0</ele><time>2026-04-20T13:24:46.319Z</time></trkpt><trkpt lat="43.0826286" lon="11.5048914"><ele>290.0</ele><time>2026-04-20T13:24:47.319Z</time></trkpt><trkpt lat="43.082571" lon="11.5049891"><ele>291.0</ele><time>2026-04-20T13:24:48.32Z</time></trkpt><trkpt lat="43.0825129" lon="11.5050899"><ele>292.0</ele><time>2026-04-20T13:24:49.319Z</time></trkpt><trkpt lat="43.082454" lon="11.50519"><ele>293.0</ele><time>2026-04-20T13:24:50.319Z</time></trkpt><trkpt lat="43.0823942" lon="11.5052954"><ele>293.2</ele><time>2026-04-20T13:24:51.32Z</time></trkpt><trkpt lat="43.0823377" lon="11.5053933"><ele>293.4</ele><time>2026-04-20T13:24:52.319Z</time></trkpt><trkpt lat="43.0822831" lon="11.5054889"><ele>293.59999999999997</ele><time>2026-04-20T13:24:53.319Z</time></trkpt><trkpt lat="43.0822265" lon="11.5055843"><ele>293.8</ele><time>2026-04-20T13:24:54.32Z</time></trkpt><trkpt lat="43.0821705" lon="11.5056805"><ele>294.0</ele><time>2026-04-20T13:24:55.319Z</time></trkpt><trkpt lat="43.082113" lon="11.5057769"><ele>295.0</ele><time>2026-04-20T13:24:56.319Z</time></trkpt><trkpt lat="43.0820591" lon="11.5058702"><ele>296.0</ele><time>2026-04-20T13:24:57.32Z</time></trkpt><trkpt lat="43.0820036" lon="11.5059623"><ele>297.0</ele><time>2026-04-20T13:24:58.32Z</time></trkpt><trkpt lat="43.0819485" lon="11.5060537"><ele>298.0</ele><time>2026-04-20T13:24:59.319Z</time></trkpt><trkpt lat="43.0818932" lon="11.5061457"><ele>299.0</ele><time>2026-04-20T13:25:00.319Z</time></trkpt><trkpt lat="43.0818398" lon="11.5062415"><ele>300.0</ele><time>2026-04-20T13:25:01.319Z</time></trkpt><trkpt lat="43.0817882" lon="11.5063346"><ele>300.0</ele><time>2026-04-20T13:25:02.319Z</time></trkpt><trkpt lat="43.0817346" lon="11.5064307"><ele>300.0</ele><time>2026-04-20T13:25:03.319Z</time></trkpt><trkpt lat="43.081681" lon="11.5065258"><ele>300.0</ele><time>2026-04-20T13:25:04.319Z</time></trkpt><trkpt lat="43.081628" lon="11.5066215"><ele>300.0</ele><time>2026-04-20T13:25:05.319Z</time></trkpt><trkpt lat="43.081575" lon="11.5067174"><ele>300.0</ele><time>2026-04-20T13:25:06.32Z</time></trkpt><trkpt lat="43.0815184" lon="11.5068162"><ele>300.0</ele><time>2026-04-20T13:25:07.319Z</time></trkpt><trkpt lat="43.0814587" lon="11.5069163"><ele>299.4</ele><time>2026-04-20T13:25:08.32Z</time></trkpt><trkpt lat="43.0813921" lon="11.5070249"><ele>298.8</ele><time>2026-04-20T13:25:09.319Z</time></trkpt><trkpt lat="43.081323" lon="11.5071414"><ele>298.2</ele><time>2026-04-20T13:25:10.32Z</time></trkpt><trkpt lat="43.0812516" lon="11.5072642"><ele>297.6</ele><time>2026-04-20T13:25:11.319Z</time></trkpt><trkpt lat="43.0811756" lon="11.5073941"><ele>297.0</ele><time>2026-04-20T13:25:12.319Z</time></trkpt><trkpt lat="43.0810981" lon="11.5075289"><ele>299.25</ele><time>2026-04-20T13:25:13.319Z</time></trkpt><trkpt lat="43.081022" lon="11.5076613"><ele>301.5</ele><time>2026-04-20T13:25:14.32Z</time></trkpt><trkpt lat="43.0809463" lon="11.5077907"><ele>303.75</ele><time>2026-04-20T13:25:15.321Z</time></trkpt><trkpt lat="43.0808697" lon="11.5079186"><ele>306.0</ele><time>2026-04-20T13:25:16.32Z</time></trkpt><trkpt lat="43.0807938" lon="11.5080449"><ele>306.25</ele><time>2026-04-20T13:25:17.32Z</time></trkpt><trkpt lat="43.0807195" lon="11.5081752"><ele>306.5</ele><time>2026-04-20T13:25:18.32Z</time></trkpt><trkpt lat="43.0806467" lon="11.5083048"><ele>306.75</ele><time>2026-04-20T13:25:19.32Z</time></trkpt><trkpt lat="43.0805744" lon="11.5084325"><ele>307.0</ele><time>2026-04-20T13:25:20.32Z</time></trkpt><trkpt lat="43.0805042" lon="11.5085574"><ele>307.0</ele><time>2026-04-20T13:25:21.321Z</time></trkpt><trkpt lat="43.0804407" lon="11.508674"><ele>307.0</ele><time>2026-04-20T13:25:22.32Z</time></trkpt><trkpt lat="43.080384" lon="11.5087832"><ele>307.0</ele><time>2026-04-20T13:25:23.32Z</time></trkpt><trkpt lat="43.0803349" lon="11.5088871"><ele>307.0</ele><time>2026-04-20T13:25:24.321Z</time></trkpt><trkpt lat="43.0802901" lon="11.5089893"><ele>307.0</ele><time>2026-04-20T13:25:25.32Z</time></trkpt><trkpt lat="43.0802423" lon="11.5090967"><ele>307.2</ele><time>2026-04-20T13:25:26.321Z</time></trkpt><trkpt lat="43.0801929" lon="11.5092076"><ele>307.4</ele><time>2026-04-20T13:25:27.32Z</time></trkpt><trkpt lat="43.0801417" lon="11.5093232"><ele>307.6</ele><time>2026-04-20T13:25:28.32Z</time></trkpt><trkpt lat="43.080092" lon="11.509437"><ele>307.8</ele><time>2026-04-20T13:25:29.32Z</time></trkpt><trkpt lat="43.0800458" lon="11.5095454"><ele>308.0</ele><time>2026-04-20T13:25:30.32Z</time></trkpt><trkpt lat="43.0800016" lon="11.5096511"><ele>308.0</ele><time>2026-04-20T13:25:31.32Z</time></trkpt><trkpt lat="43.0799601" lon="11.5097586"><ele>308.0</ele><time>2026-04-20T13:25:32.321Z</time></trkpt><trkpt lat="43.0799225" lon="11.5098698"><ele>308.0</ele><time>2026-04-20T13:25:33.32Z</time></trkpt><trkpt lat="43.0798961" lon="11.5099815"><ele>308.0</ele><time>2026-04-20T13:25:34.321Z</time></trkpt><trkpt lat="43.079879" lon="11.5100983"><ele>308.0</ele><time>2026-04-20T13:25:35.32Z</time></trkpt><trkpt lat="43.0798724" lon="11.5102199"><ele>308.0</ele><time>2026-04-20T13:25:36.321Z</time></trkpt><trkpt lat="43.0798752" lon="11.5103431"><ele>308.6</ele><time>2026-04-20T13:25:37.32Z</time></trkpt><trkpt lat="43.0798833" lon="11.5104646"><ele>309.20000000000005</ele><time>2026-04-20T13:25:38.32Z</time></trkpt><trkpt lat="43.0798942" lon="11.5105868"><ele>309.8</ele><time>2026-04-20T13:25:39.32Z</time></trkpt><trkpt lat="43.079909" lon="11.5107118"><ele>310.40000000000003</ele><time>2026-04-20T13:25:40.32Z</time></trkpt><trkpt lat="43.0799226" lon="11.5108405"><ele>311.0</ele><time>2026-04-20T13:25:41.321Z</time></trkpt><trkpt lat="43.079934" lon="11.5109665"><ele>311.0</ele><time>2026-04-20T13:25:42.32Z</time></trkpt><trkpt lat="43.0799405" lon="11.5110884"><ele>311.0</ele><time>2026-04-20T13:25:43.321Z</time></trkpt><trkpt lat="43.0799492" lon="11.5112033"><ele>311.0</ele><time>2026-04-20T13:25:44.321Z</time></trkpt><trkpt lat="43.0799667" lon="11.5113123"><ele>311.0</ele><time>2026-04-20T13:25:45.32Z</time></trkpt><trkpt lat="43.0799959" lon="11.5114283"><ele>311.0</ele><time>2026-04-20T13:25:46.32Z</time></trkpt><trkpt lat="43.0800367" lon="11.5115446"><ele>311.0</ele><time>2026-04-20T13:25:47.32Z</time></trkpt><trkpt lat="43.0800867" lon="11.5116521"><ele>310.83333333333337</ele><time>2026-04-20T13:25:48.32Z</time></trkpt><trkpt lat="43.080142" lon="11.5117499"><ele>310.6666666666667</ele><time>2026-04-20T13:25:49.321Z</time></trkpt><trkpt lat="43.0801989" lon="11.5118435"><ele>310.5</ele><time>2026-04-20T13:25:50.32Z</time></trkpt><trkpt lat="43.0802533" lon="11.5119367"><ele>310.3333333333333</ele><time>2026-04-20T13:25:51.321Z</time></trkpt><trkpt lat="43.0803082" lon="11.5120299"><ele>310.16666666666663</ele><time>2026-04-20T13:25:52.32Z</time></trkpt><trkpt lat="43.0803619" lon="11.5121223"><ele>310.0</ele><time>2026-04-20T13:25:53.32Z</time></trkpt><trkpt lat="43.0804151" lon="11.5122132"><ele>310.3333333333333</ele><time>2026-04-20T13:25:54.32Z</time></trkpt><trkpt lat="43.0804672" lon="11.5123051"><ele>310.66666666666663</ele><time>2026-04-20T13:25:55.32Z</time></trkpt><trkpt lat="43.0805193" lon="11.5124002"><ele>311.0</ele><time>2026-04-20T13:25:56.32Z</time></trkpt><trkpt lat="43.0805716" lon="11.5124965"><ele>311.3333333333333</ele><time>2026-04-20T13:25:57.32Z</time></trkpt><trkpt lat="43.0806244" lon="11.5125938"><ele>311.6666666666667</ele><time>2026-04-20T13:25:58.32Z</time></trkpt><trkpt lat="43.0806761" lon="11.5126907"><ele>312.0</ele><time>2026-04-20T13:25:59.32Z</time></trkpt><trkpt lat="43.080727" lon="11.5127884"><ele>313.5</ele><time>2026-04-20T13:26:00.32Z</time></trkpt><trkpt lat="43.0807766" lon="11.5128853"><ele>315.0</ele><time>2026-04-20T13:26:01.32Z</time></trkpt><trkpt lat="43.0808286" lon="11.5129764"><ele>316.5</ele><time>2026-04-20T13:26:02.32Z</time></trkpt><trkpt lat="43.0808854" lon="11.5130608"><ele>318.0</ele><time>2026-04-20T13:26:03.321Z</time></trkpt><trkpt lat="43.0809448" lon="11.513135"><ele>319.5</ele><time>2026-04-20T13:26:04.32Z</time></trkpt><trkpt lat="43.0810055" lon="11.5131915"><ele>321.0</ele><time>2026-04-20T13:26:05.321Z</time></trkpt><trkpt lat="43.0810681" lon="11.5132245"><ele>321.5</ele><time>2026-04-20T13:26:06.321Z</time></trkpt><trkpt lat="43.0811941" lon="11.5132312"><ele>322.0</ele><time>2026-04-20T13:26:08.321Z</time></trkpt><trkpt lat="43.0812679" lon="11.5132169"><ele>322.5</ele><time>2026-04-20T13:26:09.322Z</time></trkpt><trkpt lat="43.0813455" lon="11.5131969"><ele>323.0</ele><time>2026-04-20T13:26:10.321Z</time></trkpt><trkpt lat="43.0814198" lon="11.5131847"><ele>323.5</ele><time>2026-04-20T13:26:11.321Z</time></trkpt><trkpt lat="43.0814874" lon="11.5131851"><ele>324.0</ele><time>2026-04-20T13:26:12.321Z</time></trkpt><trkpt lat="43.0816125" lon="11.5132447"><ele>324.5</ele><time>2026-04-20T13:26:14.321Z</time></trkpt><trkpt lat="43.0816817" lon="11.5133022"><ele>325.0</ele><time>2026-04-20T13:26:15.322Z</time></trkpt><trkpt lat="43.0817492" lon="11.5133713"><ele>325.5</ele><time>2026-04-20T13:26:16.321Z</time></trkpt><trkpt lat="43.081812" lon="11.5134501"><ele>326.0</ele><time>2026-04-20T13:26:17.322Z</time></trkpt><trkpt lat="43.0818683" lon="11.5135315"><ele>326.5</ele><time>2026-04-20T13:26:18.322Z</time></trkpt><trkpt lat="43.081916" lon="11.5136097"><ele>327.0</ele><time>2026-04-20T13:26:19.321Z</time></trkpt><trkpt lat="43.081964" lon="11.5136826"><ele>327.1666666666667</ele><time>2026-04-20T13:26:20.321Z</time></trkpt><trkpt lat="43.082022" lon="11.5137617"><ele>327.3333333333333</ele><time>2026-04-20T13:26:21.322Z</time></trkpt><trkpt lat="43.0820865" lon="11.5138517"><ele>327.5</ele><time>2026-04-20T13:26:22.321Z</time></trkpt><trkpt lat="43.0821508" lon="11.5139469"><ele>327.66666666666663</ele><time>2026-04-20T13:26:23.321Z</time></trkpt><trkpt lat="43.0822106" lon="11.5140354"><ele>327.8333333333333</ele><time>2026-04-20T13:26:24.322Z</time></trkpt><trkpt lat="43.0822704" lon="11.5141213"><ele>328.0</ele><time>2026-04-20T13:26:25.321Z</time></trkpt><trkpt lat="43.0823336" lon="11.5142088"><ele>328.0</ele><time>2026-04-20T13:26:26.322Z</time></trkpt><trkpt lat="43.0824007" lon="11.5142937"><ele>328.0</ele><time>2026-04-20T13:26:27.321Z</time></trkpt><trkpt lat="43.082471" lon="11.5143697"><ele>328.0</ele><time>2026-04-20T13:26:28.321Z</time></trkpt><trkpt lat="43.0825459" lon="11.514439"><ele>328.0</ele><time>2026-04-20T13:26:29.321Z</time></trkpt><trkpt lat="43.0826213" lon="11.5144992"><ele>328.0</ele><time>2026-04-20T13:26:30.322Z</time></trkpt><trkpt lat="43.0826981" lon="11.5145584"><ele>328.0</ele><time>2026-04-20T13:26:31.322Z</time></trkpt><trkpt lat="43.0827766" lon="11.5146228"><ele>327.79999999999995</ele><time>2026-04-20T13:26:32.321Z</time></trkpt><trkpt lat="43.0828533" lon="11.5146926"><ele>327.6</ele><time>2026-04-20T13:26:33.321Z</time></trkpt><trkpt lat="43.0829318" lon="11.5147619"><ele>327.4</ele><time>2026-04-20T13:26:34.321Z</time></trkpt><trkpt lat="43.0830093" lon="11.5148272"><ele>327.20000000000005</ele><time>2026-04-20T13:26:35.321Z</time></trkpt><trkpt lat="43.0830881" lon="11.5148839"><ele>327.0</ele><time>2026-04-20T13:26:36.322Z</time></trkpt><trkpt lat="43.0831656" lon="11.5149324"><ele>327.0</ele><time>2026-04-20T13:26:37.321Z</time></trkpt><trkpt lat="43.0832437" lon="11.5149728"><ele>327.0</ele><time>2026-04-20T13:26:38.321Z</time></trkpt><trkpt lat="43.0833222" lon="11.5150034"><ele>327.0</ele><time>2026-04-20T13:26:39.321Z</time></trkpt><trkpt lat="43.0834052" lon="11.5150278"><ele>327.0</ele><time>2026-04-20T13:26:40.321Z</time></trkpt><trkpt lat="43.0834911" lon="11.5150501"><ele>327.0</ele><time>2026-04-20T13:26:41.321Z</time></trkpt><trkpt lat="43.0835788" lon="11.5150727"><ele>327.0</ele><time>2026-04-20T13:26:42.321Z</time></trkpt><trkpt lat="43.0836642" lon="11.5150939"><ele>326.5</ele><time>2026-04-20T13:26:43.321Z</time></trkpt><trkpt lat="43.0837447" lon="11.5151082"><ele>326.0</ele><time>2026-04-20T13:26:44.321Z</time></trkpt><trkpt lat="43.0838221" lon="11.5151125"><ele>325.5</ele><time>2026-04-20T13:26:45.322Z</time></trkpt><trkpt lat="43.0838983" lon="11.5151032"><ele>325.0</ele><time>2026-04-20T13:26:46.321Z</time></trkpt><trkpt lat="43.0839771" lon="11.5150771"><ele>324.5</ele><time>2026-04-20T13:26:47.321Z</time></trkpt><trkpt lat="43.0840579" lon="11.5150352"><ele>324.0</ele><time>2026-04-20T13:26:48.323Z</time></trkpt><trkpt lat="43.0841368" lon="11.5149796"><ele>323.5</ele><time>2026-04-20T13:26:49.321Z</time></trkpt><trkpt lat="43.0842109" lon="11.5149273"><ele>323.0</ele><time>2026-04-20T13:26:50.321Z</time></trkpt><trkpt lat="43.0842839" lon="11.5148846"><ele>322.5</ele><time>2026-04-20T13:26:51.321Z</time></trkpt><trkpt lat="43.0843685" lon="11.5148551"><ele>322.0</ele><time>2026-04-20T13:26:52.322Z</time></trkpt><trkpt lat="43.0844641" lon="11.5148364"><ele>321.5</ele><time>2026-04-20T13:26:53.321Z</time></trkpt><trkpt lat="43.084555" lon="11.514833"><ele>321.0</ele><time>2026-04-20T13:26:54.322Z</time></trkpt><trkpt lat="43.084644" lon="11.5148398"><ele>321.0</ele><time>2026-04-20T13:26:55.322Z</time></trkpt><trkpt lat="43.0847299" lon="11.5148492"><ele>321.0</ele><time>2026-04-20T13:26:56.322Z</time></trkpt><trkpt lat="43.0848149" lon="11.5148574"><ele>321.0</ele><time>2026-04-20T13:26:57.322Z</time></trkpt><trkpt lat="43.0848992" lon="11.5148603"><ele>321.0</ele><time>2026-04-20T13:26:58.322Z</time></trkpt><trkpt lat="43.0849812" lon="11.5148605"><ele>321.0</ele><time>2026-04-20T13:26:59.322Z</time></trkpt><trkpt lat="43.0850654" lon="11.5148609"><ele>321.0</ele><time>2026-04-20T13:27:00.322Z</time></trkpt><trkpt lat="43.0851505" lon="11.5148639"><ele>320.3333333333333</ele><time>2026-04-20T13:27:01.322Z</time></trkpt><trkpt lat="43.0852366" lon="11.5148724"><ele>319.6666666666667</ele><time>2026-04-20T13:27:02.322Z</time></trkpt><trkpt lat="43.0853245" lon="11.5148934"><ele>319.0</ele><time>2026-04-20T13:27:03.322Z</time></trkpt><trkpt lat="43.0854119" lon="11.5149286"><ele>318.33333333333337</ele><time>2026-04-20T13:27:04.322Z</time></trkpt><trkpt lat="43.0854944" lon="11.514978"><ele>317.6666666666667</ele><time>2026-04-20T13:27:05.322Z</time></trkpt><trkpt lat="43.0855701" lon="11.5150395"><ele>317.0</ele><time>2026-04-20T13:27:06.322Z</time></trkpt><trkpt lat="43.0856352" lon="11.5151102"><ele>317.0</ele><time>2026-04-20T13:27:07.322Z</time></trkpt><trkpt lat="43.0856916" lon="11.5151952"><ele>317.0</ele><time>2026-04-20T13:27:08.322Z</time></trkpt><trkpt lat="43.0857432" lon="11.5152881"><ele>317.0</ele><time>2026-04-20T13:27:09.323Z</time></trkpt><trkpt lat="43.0857938" lon="11.5153791"><ele>317.0</ele><time>2026-04-20T13:27:10.322Z</time></trkpt><trkpt lat="43.0858468" lon="11.5154588"><ele>317.0</ele><time>2026-04-20T13:27:11.323Z</time></trkpt><trkpt lat="43.0859122" lon="11.5155312"><ele>317.0</ele><time>2026-04-20T13:27:12.323Z</time></trkpt><trkpt lat="43.0859835" lon="11.5155938"><ele>316.1666666666667</ele><time>2026-04-20T13:27:13.322Z</time></trkpt><trkpt lat="43.0860553" lon="11.5156469"><ele>315.33333333333337</ele><time>2026-04-20T13:27:14.322Z</time></trkpt><trkpt lat="43.0861245" lon="11.5156959"><ele>314.5</ele><time>2026-04-20T13:27:15.322Z</time></trkpt><trkpt lat="43.0861914" lon="11.5157512"><ele>313.6666666666667</ele><time>2026-04-20T13:27:16.323Z</time></trkpt><trkpt lat="43.0862532" lon="11.5158218"><ele>312.8333333333333</ele><time>2026-04-20T13:27:17.323Z</time></trkpt><trkpt lat="43.0863097" lon="11.5159055"><ele>312.0</ele><time>2026-04-20T13:27:18.322Z</time></trkpt><trkpt lat="43.0863585" lon="11.5159902"><ele>312.0</ele><time>2026-04-20T13:27:19.323Z</time></trkpt><trkpt lat="43.0864057" lon="11.5160747"><ele>312.0</ele><time>2026-04-20T13:27:20.322Z</time></trkpt><trkpt lat="43.0864509" lon="11.5161603"><ele>312.0</ele><time>2026-04-20T13:27:21.322Z</time></trkpt><trkpt lat="43.0864923" lon="11.5162501"><ele>312.0</ele><time>2026-04-20T13:27:22.323Z</time></trkpt><trkpt lat="43.0865287" lon="11.5163554"><ele>312.0</ele><time>2026-04-20T13:27:23.323Z</time></trkpt><trkpt lat="43.086558" lon="11.5164721"><ele>312.0</ele><time>2026-04-20T13:27:24.322Z</time></trkpt><trkpt lat="43.086577" lon="11.5165959"><ele>310.4</ele><time>2026-04-20T13:27:25.323Z</time></trkpt><trkpt lat="43.0865806" lon="11.5167253"><ele>308.79999999999995</ele><time>2026-04-20T13:27:26.322Z</time></trkpt><trkpt lat="43.0865736" lon="11.5168514"><ele>307.2</ele><time>2026-04-20T13:27:27.322Z</time></trkpt><trkpt lat="43.0865605" lon="11.5169764"><ele>305.59999999999997</ele><time>2026-04-20T13:27:28.322Z</time></trkpt><trkpt lat="43.0865463" lon="11.5170978"><ele>304.0</ele><time>2026-04-20T13:27:29.322Z</time></trkpt><trkpt lat="43.0865316" lon="11.5172148"><ele>303.16666666666663</ele><time>2026-04-20T13:27:30.322Z</time></trkpt><trkpt lat="43.0865184" lon="11.5173348"><ele>302.3333333333333</ele><time>2026-04-20T13:27:31.322Z</time></trkpt><trkpt lat="43.0865043" lon="11.5174545"><ele>301.5</ele><time>2026-04-20T13:27:32.322Z</time></trkpt><trkpt lat="43.0864928" lon="11.5175749"><ele>300.6666666666667</ele><time>2026-04-20T13:27:33.322Z</time></trkpt><trkpt lat="43.0864826" lon="11.5176959"><ele>299.83333333333337</ele><time>2026-04-20T13:27:34.322Z</time></trkpt><trkpt lat="43.0864714" lon="11.5178144"><ele>299.0</ele><time>2026-04-20T13:27:35.322Z</time></trkpt><trkpt lat="43.0864589" lon="11.5179322"><ele>298.5</ele><time>2026-04-20T13:27:36.323Z</time></trkpt><trkpt lat="43.0864446" lon="11.5180514"><ele>298.0</ele><time>2026-04-20T13:27:37.323Z</time></trkpt><trkpt lat="43.0864313" lon="11.5181714"><ele>297.5</ele><time>2026-04-20T13:27:38.322Z</time></trkpt><trkpt lat="43.0864186" lon="11.5182906"><ele>297.0</ele><time>2026-04-20T13:27:39.322Z</time></trkpt><trkpt lat="43.0864068" lon="11.518411"><ele>296.5</ele><time>2026-04-20T13:27:40.322Z</time></trkpt><trkpt lat="43.0863947" lon="11.5185366"><ele>296.0</ele><time>2026-04-20T13:27:41.322Z</time></trkpt><trkpt lat="43.0863809" lon="11.5186673"><ele>295.6</ele><time>2026-04-20T13:27:42.322Z</time></trkpt><trkpt lat="43.0863663" lon="11.5187993"><ele>295.20000000000005</ele><time>2026-04-20T13:27:43.323Z</time></trkpt><trkpt lat="43.0863522" lon="11.5189295"><ele>294.79999999999995</ele><time>2026-04-20T13:27:44.324Z</time></trkpt><trkpt lat="43.0863389" lon="11.5190609"><ele>294.4</ele><time>2026-04-20T13:27:45.323Z</time></trkpt><trkpt lat="43.0863259" lon="11.519192"><ele>294.0</ele><time>2026-04-20T13:27:46.323Z</time></trkpt><trkpt lat="43.0863127" lon="11.5193199"><ele>294.0</ele><time>2026-04-20T13:27:47.323Z</time></trkpt><trkpt lat="43.086299" lon="11.5194439"><ele>294.0</ele><time>2026-04-20T13:27:48.324Z</time></trkpt><trkpt lat="43.0862867" lon="11.5195634"><ele>294.0</ele><time>2026-04-20T13:27:49.324Z</time></trkpt><trkpt lat="43.0862741" lon="11.5196826"><ele>294.0</ele><time>2026-04-20T13:27:50.324Z</time></trkpt><trkpt lat="43.0862613" lon="11.5198055"><ele>294.0</ele><time>2026-04-20T13:27:51.323Z</time></trkpt><trkpt lat="43.086247" lon="11.5199373"><ele>294.4</ele><time>2026-04-20T13:27:52.323Z</time></trkpt><trkpt lat="43.0862294" lon="11.5200818"><ele>294.79999999999995</ele><time>2026-04-20T13:27:53.323Z</time></trkpt><trkpt lat="43.0862094" lon="11.520224"><ele>295.20000000000005</ele><time>2026-04-20T13:27:54.323Z</time></trkpt><trkpt lat="43.0861883" lon="11.5203601"><ele>295.6</ele><time>2026-04-20T13:27:55.323Z</time></trkpt><trkpt lat="43.0861617" lon="11.5204927"><ele>296.0</ele><time>2026-04-20T13:27:56.323Z</time></trkpt><trkpt lat="43.0861232" lon="11.5206224"><ele>296.6</ele><time>2026-04-20T13:27:57.323Z</time></trkpt><trkpt lat="43.0860689" lon="11.5207487"><ele>297.20000000000005</ele><time>2026-04-20T13:27:58.323Z</time></trkpt><trkpt lat="43.0860045" lon="11.5208699"><ele>297.79999999999995</ele><time>2026-04-20T13:27:59.323Z</time></trkpt><trkpt lat="43.0859337" lon="11.5209837"><ele>298.4</ele><time>2026-04-20T13:28:00.324Z</time></trkpt><trkpt lat="43.0858569" lon="11.5210909"><ele>299.0</ele><time>2026-04-20T13:28:01.323Z</time></trkpt><trkpt lat="43.0857712" lon="11.5211882"><ele>298.8</ele><time>2026-04-20T13:28:02.323Z</time></trkpt><trkpt lat="43.0856797" lon="11.5212739"><ele>298.59999999999997</ele><time>2026-04-20T13:28:03.323Z</time></trkpt><trkpt lat="43.0855844" lon="11.5213485"><ele>298.4</ele><time>2026-04-20T13:28:04.323Z</time></trkpt><trkpt lat="43.0854864" lon="11.5214134"><ele>298.2</ele><time>2026-04-20T13:28:05.323Z</time></trkpt><trkpt lat="43.0853877" lon="11.5214689"><ele>298.0</ele><time>2026-04-20T13:28:06.324Z</time></trkpt><trkpt lat="43.0852859" lon="11.5215168"><ele>298.0</ele><time>2026-04-20T13:28:07.324Z</time></trkpt><trkpt lat="43.0851803" lon="11.5215557"><ele>298.0</ele><time>2026-04-20T13:28:08.323Z</time></trkpt><trkpt lat="43.0850813" lon="11.5215891"><ele>298.0</ele><time>2026-04-20T13:28:09.324Z</time></trkpt><trkpt lat="43.0849865" lon="11.5216189"><ele>298.0</ele><time>2026-04-20T13:28:10.323Z</time></trkpt><trkpt lat="43.0848991" lon="11.5216485"><ele>298.0</ele><time>2026-04-20T13:28:11.323Z</time></trkpt><trkpt lat="43.0848194" lon="11.5216795"><ele>297.4</ele><time>2026-04-20T13:28:12.324Z</time></trkpt><trkpt lat="43.0847402" lon="11.521713"><ele>296.8</ele><time>2026-04-20T13:28:13.323Z</time></trkpt><trkpt lat="43.0846565" lon="11.5217506"><ele>296.2</ele><time>2026-04-20T13:28:14.323Z</time></trkpt><trkpt lat="43.084568" lon="11.5217906"><ele>295.6</ele><time>2026-04-20T13:28:15.323Z</time></trkpt><trkpt lat="43.0844774" lon="11.5218339"><ele>295.0</ele><time>2026-04-20T13:28:16.324Z</time></trkpt><trkpt lat="43.0843851" lon="11.5218811"><ele>295.0</ele><time>2026-04-20T13:28:17.323Z</time></trkpt><trkpt lat="43.0842922" lon="11.5219267"><ele>295.0</ele><time>2026-04-20T13:28:18.323Z</time></trkpt><trkpt lat="43.0842054" lon="11.52197"><ele>295.0</ele><time>2026-04-20T13:28:19.323Z</time></trkpt><trkpt lat="43.0841179" lon="11.5220119"><ele>295.0</ele><time>2026-04-20T13:28:20.323Z</time></trkpt><trkpt lat="43.0840238" lon="11.5220602"><ele>295.0</ele><time>2026-04-20T13:28:21.324Z</time></trkpt><trkpt lat="43.0839272" lon="11.5221102"><ele>295.8</ele><time>2026-04-20T13:28:22.323Z</time></trkpt><trkpt lat="43.0838353" lon="11.5221591"><ele>296.6</ele><time>2026-04-20T13:28:23.323Z</time></trkpt><trkpt lat="43.0837511" lon="11.5222125"><ele>297.4</ele><time>2026-04-20T13:28:24.323Z</time></trkpt><trkpt lat="43.0836742" lon="11.5222773"><ele>298.2</ele><time>2026-04-20T13:28:25.324Z</time></trkpt><trkpt lat="43.0836041" lon="11.5223564"><ele>299.0</ele><time>2026-04-20T13:28:26.323Z</time></trkpt><trkpt lat="43.0835435" lon="11.5224473"><ele>299.0</ele><time>2026-04-20T13:28:27.323Z</time></trkpt><trkpt lat="43.0834911" lon="11.5225449"><ele>299.0</ele><time>2026-04-20T13:28:28.323Z</time></trkpt><trkpt lat="43.0834548" lon="11.5226443"><ele>299.0</ele><time>2026-04-20T13:28:29.323Z</time></trkpt><trkpt lat="43.0834233" lon="11.5227592"><ele>299.0</ele><time>2026-04-20T13:28:30.323Z</time></trkpt><trkpt lat="43.0833965" lon="11.5228781"><ele>299.0</ele><time>2026-04-20T13:28:31.324Z</time></trkpt><trkpt lat="43.08337" lon="11.5229985"><ele>299.0</ele><time>2026-04-20T13:28:32.323Z</time></trkpt><trkpt lat="43.0833424" lon="11.5231187"><ele>299.0</ele><time>2026-04-20T13:28:33.323Z</time></trkpt><trkpt lat="43.0833134" lon="11.5232376"><ele>299.0</ele><time>2026-04-20T13:28:34.324Z</time></trkpt><trkpt lat="43.0832855" lon="11.5233568"><ele>299.0</ele><time>2026-04-20T13:28:35.324Z</time></trkpt><trkpt lat="43.0832615" lon="11.5234789"><ele>299.0</ele><time>2026-04-20T13:28:36.324Z</time></trkpt><trkpt lat="43.0832441" lon="11.5235947"><ele>299.0</ele><time>2026-04-20T13:28:37.324Z</time></trkpt><trkpt lat="43.0832284" lon="11.5236979"><ele>299.0</ele><time>2026-04-20T13:28:38.324Z</time></trkpt><trkpt lat="43.0832094" lon="11.523785"><ele>298.7142857142857</ele><time>2026-04-20T13:28:39.324Z</time></trkpt><trkpt lat="43.0831825" lon="11.5238645"><ele>298.42857142857144</ele><time>2026-04-20T13:28:40.325Z</time></trkpt><trkpt lat="43.0831426" lon="11.5239357"><ele>298.14285714285717</ele><time>2026-04-20T13:28:41.325Z</time></trkpt><trkpt lat="43.0830921" lon="11.5240063"><ele>297.8571428571429</ele><time>2026-04-20T13:28:42.325Z</time></trkpt><trkpt lat="43.0830342" lon="11.5240726"><ele>297.5714285714286</ele><time>2026-04-20T13:28:43.324Z</time></trkpt><trkpt lat="43.0829652" lon="11.5241302"><ele>297.2857142857143</ele><time>2026-04-20T13:28:44.324Z</time></trkpt><trkpt lat="43.0828875" lon="11.5241748"><ele>297.0</ele><time>2026-04-20T13:28:45.324Z</time></trkpt><trkpt lat="43.0827998" lon="11.5242128"><ele>297.0</ele><time>2026-04-20T13:28:46.324Z</time></trkpt><trkpt lat="43.0827135" lon="11.5242502"><ele>297.0</ele><time>2026-04-20T13:28:47.324Z</time></trkpt><trkpt lat="43.08263" lon="11.5242936"><ele>297.0</ele><time>2026-04-20T13:28:48.324Z</time></trkpt><trkpt lat="43.0825475" lon="11.5243477"><ele>297.0</ele><time>2026-04-20T13:28:49.324Z</time></trkpt><trkpt lat="43.0824641" lon="11.5244138"><ele>297.0</ele><time>2026-04-20T13:28:50.324Z</time></trkpt><trkpt lat="43.0823821" lon="11.5244885"><ele>296.0</ele><time>2026-04-20T13:28:51.324Z</time></trkpt><trkpt lat="43.0823044" lon="11.5245696"><ele>295.0</ele><time>2026-04-20T13:28:52.324Z</time></trkpt><trkpt lat="43.0822337" lon="11.524655"><ele>294.0</ele><time>2026-04-20T13:28:53.324Z</time></trkpt><trkpt lat="43.0821678" lon="11.5247427"><ele>293.0</ele><time>2026-04-20T13:28:54.324Z</time></trkpt><trkpt lat="43.0821016" lon="11.5248328"><ele>292.0</ele><time>2026-04-20T13:28:55.324Z</time></trkpt><trkpt lat="43.0820322" lon="11.5249244"><ele>292.0</ele><time>2026-04-20T13:28:56.324Z</time></trkpt><trkpt lat="43.0819635" lon="11.5250154"><ele>292.0</ele><time>2026-04-20T13:28:57.324Z</time></trkpt><trkpt lat="43.0818946" lon="11.5251043"><ele>292.0</ele><time>2026-04-20T13:28:58.324Z</time></trkpt><trkpt lat="43.081822" lon="11.525196"><ele>292.0</ele><time>2026-04-20T13:28:59.324Z</time></trkpt><trkpt lat="43.0817488" lon="11.5252907"><ele>292.0</ele><time>2026-04-20T13:29:00.324Z</time></trkpt><trkpt lat="43.0816775" lon="11.5253863"><ele>291.8</ele><time>2026-04-20T13:29:01.324Z</time></trkpt><trkpt lat="43.081607" lon="11.5254795"><ele>291.6</ele><time>2026-04-20T13:29:02.324Z</time></trkpt><trkpt lat="43.0815379" lon="11.5255733"><ele>291.40000000000003</ele><time>2026-04-20T13:29:03.324Z</time></trkpt><trkpt lat="43.0814729" lon="11.5256728"><ele>291.2</ele><time>2026-04-20T13:29:04.324Z</time></trkpt><trkpt lat="43.0814154" lon="11.5257834"><ele>291.0</ele><time>2026-04-20T13:29:05.324Z</time></trkpt><trkpt lat="43.081366" lon="11.5259007"><ele>291.40000000000003</ele><time>2026-04-20T13:29:06.324Z</time></trkpt><trkpt lat="43.0813181" lon="11.5260216"><ele>291.8</ele><time>2026-04-20T13:29:07.324Z</time></trkpt><trkpt lat="43.081269" lon="11.52614"><ele>292.20000000000005</ele><time>2026-04-20T13:29:08.324Z</time></trkpt><trkpt lat="43.081221" lon="11.5262595"><ele>292.6</ele><time>2026-04-20T13:29:09.325Z</time></trkpt><trkpt lat="43.0811763" lon="11.5263791"><ele>293.0</ele><time>2026-04-20T13:29:10.324Z</time></trkpt><trkpt lat="43.0811325" lon="11.5265059"><ele>293.6</ele><time>2026-04-20T13:29:11.325Z</time></trkpt><trkpt lat="43.0810873" lon="11.5266315"><ele>294.20000000000005</ele><time>2026-04-20T13:29:12.324Z</time></trkpt><trkpt lat="43.0810403" lon="11.5267524"><ele>294.8</ele><time>2026-04-20T13:29:13.324Z</time></trkpt><trkpt lat="43.0809911" lon="11.5268737"><ele>295.40000000000003</ele><time>2026-04-20T13:29:14.324Z</time></trkpt><trkpt lat="43.0809423" lon="11.5269968"><ele>296.0</ele><time>2026-04-20T13:29:15.325Z</time></trkpt><trkpt lat="43.080894" lon="11.5271219"><ele>296.40000000000003</ele><time>2026-04-20T13:29:16.324Z</time></trkpt><trkpt lat="43.0808469" lon="11.5272451"><ele>296.8</ele><time>2026-04-20T13:29:17.324Z</time></trkpt><trkpt lat="43.0807998" lon="11.5273658"><ele>297.20000000000005</ele><time>2026-04-20T13:29:18.324Z</time></trkpt><trkpt lat="43.0807538" lon="11.5274896"><ele>297.6</ele><time>2026-04-20T13:29:19.324Z</time></trkpt><trkpt lat="43.0807083" lon="11.5276145"><ele>298.0</ele><time>2026-04-20T13:29:20.324Z</time></trkpt><trkpt lat="43.0806602" lon="11.5277358"><ele>300.0</ele><time>2026-04-20T13:29:21.324Z</time></trkpt><trkpt lat="43.0806114" lon="11.5278567"><ele>302.0</ele><time>2026-04-20T13:29:22.324Z</time></trkpt><trkpt lat="43.0805617" lon="11.5279791"><ele>304.0</ele><time>2026-04-20T13:29:23.324Z</time></trkpt><trkpt lat="43.0805142" lon="11.5280953"><ele>306.0</ele><time>2026-04-20T13:29:24.325Z</time></trkpt><trkpt lat="43.080467" lon="11.5282137"><ele>308.0</ele><time>2026-04-20T13:29:25.325Z</time></trkpt><trkpt lat="43.0804192" lon="11.5283341"><ele>308.1666666666667</ele><time>2026-04-20T13:29:26.326Z</time></trkpt><trkpt lat="43.0803721" lon="11.5284553"><ele>308.33333333333337</ele><time>2026-04-20T13:29:27.325Z</time></trkpt><trkpt lat="43.0803276" lon="11.5285763"><ele>308.5</ele><time>2026-04-20T13:29:28.325Z</time></trkpt><trkpt lat="43.080287" lon="11.5286859"><ele>308.6666666666667</ele><time>2026-04-20T13:29:29.326Z</time></trkpt><trkpt lat="43.0802498" lon="11.5287817"><ele>308.8333333333333</ele><time>2026-04-20T13:29:30.325Z</time></trkpt><trkpt lat="43.0802206" lon="11.5288597"><ele>309.0</ele><time>2026-04-20T13:29:31.325Z</time></trkpt><trkpt lat="43.0801766" lon="11.5289846"><ele>309.0</ele><time>2026-04-20T13:29:33.325Z</time></trkpt><trkpt lat="43.0801396" lon="11.5291114"><ele>309.0</ele><time>2026-04-20T13:29:35.325Z</time></trkpt><trkpt lat="43.0801084" lon="11.5292388"><ele>309.0</ele><time>2026-04-20T13:29:37.326Z</time></trkpt><trkpt lat="43.0800733" lon="11.5293681"><ele>309.0</ele><time>2026-04-20T13:29:39.325Z</time></trkpt><trkpt lat="43.0800404" lon="11.5295074"><ele>309.0</ele><time>2026-04-20T13:29:41.325Z</time></trkpt><trkpt lat="43.0800152" lon="11.5296533"><ele>308.4</ele><time>2026-04-20T13:29:43.325Z</time></trkpt><trkpt lat="43.0799942" lon="11.529797"><ele>307.79999999999995</ele><time>2026-04-20T13:29:45.325Z</time></trkpt><trkpt lat="43.0799802" lon="11.5299659"><ele>307.20000000000005</ele><time>2026-04-20T13:29:47.325Z</time></trkpt><trkpt lat="43.0799758" lon="11.5300589"><ele>306.6</ele><time>2026-04-20T13:29:48.325Z</time></trkpt><trkpt lat="43.079975" lon="11.5301609"><ele>306.0</ele><time>2026-04-20T13:29:49.326Z</time></trkpt><trkpt lat="43.0799759" lon="11.5302739"><ele>306.0</ele><time>2026-04-20T13:29:50.326Z</time></trkpt><trkpt lat="43.0799787" lon="11.5303896"><ele>306.0</ele><time>2026-04-20T13:29:51.325Z</time></trkpt><trkpt lat="43.0799853" lon="11.5304953"><ele>306.0</ele><time>2026-04-20T13:29:52.325Z</time></trkpt><trkpt lat="43.079993" lon="11.5305942"><ele>306.0</ele><time>2026-04-20T13:29:53.325Z</time></trkpt><trkpt lat="43.0799984" lon="11.5306912"><ele>306.0</ele><time>2026-04-20T13:29:54.325Z</time></trkpt><trkpt lat="43.0800014" lon="11.5307794"><ele>306.0</ele><time>2026-04-20T13:29:55.326Z</time></trkpt><trkpt lat="43.0799981" lon="11.5309504"><ele>305.8</ele><time>2026-04-20T13:29:57.325Z</time></trkpt><trkpt lat="43.0799867" lon="11.5311204"><ele>305.6</ele><time>2026-04-20T13:29:59.325Z</time></trkpt><trkpt lat="43.0799737" lon="11.5312098"><ele>305.4</ele><time>2026-04-20T13:30:00.325Z</time></trkpt><trkpt lat="43.0799578" lon="11.5313"><ele>305.2</ele><time>2026-04-20T13:30:01.325Z</time></trkpt><trkpt lat="43.0799399" lon="11.5313881"><ele>305.0</ele><time>2026-04-20T13:30:02.325Z</time></trkpt><trkpt lat="43.0798966" lon="11.5315483"><ele>304.8</ele><time>2026-04-20T13:30:04.326Z</time></trkpt><trkpt lat="43.0798464" lon="11.5317057"><ele>304.6</ele><time>2026-04-20T13:30:06.326Z</time></trkpt><trkpt lat="43.0797923" lon="11.5318595"><ele>304.4</ele><time>2026-04-20T13:30:08.325Z</time></trkpt><trkpt lat="43.0797591" lon="11.5319329"><ele>304.2</ele><time>2026-04-20T13:30:09.325Z</time></trkpt><trkpt lat="43.0797232" lon="11.532004"><ele>304.0</ele><time>2026-04-20T13:30:10.326Z</time></trkpt><trkpt lat="43.0796645" lon="11.532149"><ele>304.0</ele><time>2026-04-20T13:30:12.326Z</time></trkpt><trkpt lat="43.0796226" lon="11.5322987"><ele>304.0</ele><time>2026-04-20T13:30:14.326Z</time></trkpt><trkpt lat="43.0796106" lon="11.5324457"><ele>304.0</ele><time>2026-04-20T13:30:16.326Z</time></trkpt><trkpt lat="43.0796368" lon="11.5325866"><ele>304.0</ele><time>2026-04-20T13:30:18.326Z</time></trkpt><trkpt lat="43.0796846" lon="11.5327391"><ele>304.0</ele><time>2026-04-20T13:30:20.326Z</time></trkpt><trkpt lat="43.0797106" lon="11.5328208"><ele>304.0</ele><time>2026-04-20T13:30:21.327Z</time></trkpt><trkpt lat="43.0797374" lon="11.5329083"><ele>304.0</ele><time>2026-04-20T13:30:22.327Z</time></trkpt><trkpt lat="43.0797636" lon="11.5330053"><ele>304.0</ele><time>2026-04-20T13:30:23.326Z</time></trkpt><trkpt lat="43.0797865" lon="11.533104"><ele>304.0</ele><time>2026-04-20T13:30:24.326Z</time></trkpt><trkpt lat="43.0798044" lon="11.5332018"><ele>304.0</ele><time>2026-04-20T13:30:25.326Z</time></trkpt><trkpt lat="43.0798153" lon="11.5332969"><ele>304.0</ele><time>2026-04-20T13:30:26.326Z</time></trkpt><trkpt lat="43.0798142" lon="11.5333888"><ele>305.3333333333333</ele><time>2026-04-20T13:30:27.326Z</time></trkpt><trkpt lat="43.0797973" lon="11.5334855"><ele>306.66666666666663</ele><time>2026-04-20T13:30:28.326Z</time></trkpt><trkpt lat="43.0797663" lon="11.5335849"><ele>308.0</ele><time>2026-04-20T13:30:29.326Z</time></trkpt><trkpt lat="43.0797352" lon="11.5336811"><ele>309.3333333333333</ele><time>2026-04-20T13:30:30.326Z</time></trkpt><trkpt lat="43.0797161" lon="11.5337678"><ele>310.6666666666667</ele><time>2026-04-20T13:30:31.327Z</time></trkpt><trkpt lat="43.0797148" lon="11.5339265"><ele>312.0</ele><time>2026-04-20T13:30:33.326Z</time></trkpt><trkpt lat="43.0797311" lon="11.5340648"><ele>313.25</ele><time>2026-04-20T13:30:35.326Z</time></trkpt><trkpt lat="43.0797587" lon="11.5342166"><ele>314.5</ele><time>2026-04-20T13:30:37.326Z</time></trkpt><trkpt lat="43.0797923" lon="11.5343652"><ele>315.75</ele><time>2026-04-20T13:30:39.326Z</time></trkpt><trkpt lat="43.0798265" lon="11.5345116"><ele>317.0</ele><time>2026-04-20T13:30:41.326Z</time></trkpt><trkpt lat="43.0798672" lon="11.5346548"><ele>317.4</ele><time>2026-04-20T13:30:43.326Z</time></trkpt><trkpt lat="43.0799197" lon="11.5348153"><ele>317.79999999999995</ele><time>2026-04-20T13:30:45.326Z</time></trkpt><trkpt lat="43.0799479" lon="11.5348925"><ele>318.2</ele><time>2026-04-20T13:30:46.326Z</time></trkpt><trkpt lat="43.0800224" lon="11.5350172"><ele>318.59999999999997</ele><time>2026-04-20T13:30:48.326Z</time></trkpt><trkpt lat="43.0801137" lon="11.5351325"><ele>319.0</ele><time>2026-04-20T13:30:50.326Z</time></trkpt><trkpt lat="43.0801965" lon="11.5352534"><ele>317.2857142857143</ele><time>2026-04-20T13:30:52.326Z</time></trkpt><trkpt lat="43.0802516" lon="11.5353961"><ele>315.57142857142856</ele><time>2026-04-20T13:30:54.326Z</time></trkpt><trkpt lat="43.0802674" lon="11.535481"><ele>313.85714285714283</ele><time>2026-04-20T13:30:55.326Z</time></trkpt><trkpt lat="43.0802719" lon="11.5355693"><ele>312.1428571428571</ele><time>2026-04-20T13:30:56.326Z</time></trkpt><trkpt lat="43.0802648" lon="11.5356579"><ele>310.42857142857144</ele><time>2026-04-20T13:30:57.326Z</time></trkpt><trkpt lat="43.0802519" lon="11.5357456"><ele>308.71428571428567</ele><time>2026-04-20T13:30:58.326Z</time></trkpt><trkpt lat="43.080236" lon="11.5358314"><ele>307.0</ele><time>2026-04-20T13:30:59.326Z</time></trkpt><trkpt lat="43.0802208" lon="11.5359205"><ele>306.99999999999994</ele><time>2026-04-20T13:31:00.326Z</time></trkpt><trkpt lat="43.0802092" lon="11.5360122"><ele>307.0</ele><time>2026-04-20T13:31:01.326Z</time></trkpt><trkpt lat="43.0802059" lon="11.5361047"><ele>307.0</ele><time>2026-04-20T13:31:02.326Z</time></trkpt><trkpt lat="43.0802126" lon="11.5361988"><ele>307.0</ele><time>2026-04-20T13:31:03.327Z</time></trkpt><trkpt lat="43.0802235" lon="11.5362929"><ele>307.0</ele><time>2026-04-20T13:31:04.327Z</time></trkpt><trkpt lat="43.0802356" lon="11.5363864"><ele>306.99999999999994</ele><time>2026-04-20T13:31:05.327Z</time></trkpt><trkpt lat="43.0802479" lon="11.5364807"><ele>307.0</ele><time>2026-04-20T13:31:06.327Z</time></trkpt><trkpt lat="43.0802606" lon="11.536575"><ele>305.5</ele><time>2026-04-20T13:31:07.327Z</time></trkpt><trkpt lat="43.080269" lon="11.5366689"><ele>304.0</ele><time>2026-04-20T13:31:08.327Z</time></trkpt><trkpt lat="43.0802686" lon="11.5367635"><ele>302.5</ele><time>2026-04-20T13:31:09.327Z</time></trkpt><trkpt lat="43.0802567" lon="11.5368585"><ele>301.0</ele><time>2026-04-20T13:31:10.328Z</time></trkpt><trkpt lat="43.08024" lon="11.5369529"><ele>299.5</ele><time>2026-04-20T13:31:11.328Z</time></trkpt><trkpt lat="43.0802283" lon="11.5370464"><ele>298.0</ele><time>2026-04-20T13:31:12.327Z</time></trkpt><trkpt lat="43.0802439" lon="11.5372097"><ele>296.6</ele><time>2026-04-20T13:31:14.327Z</time></trkpt><trkpt lat="43.0803248" lon="11.5373473"><ele>295.20000000000005</ele><time>2026-04-20T13:31:16.327Z</time></trkpt><trkpt lat="43.0803876" lon="11.5374053"><ele>293.8</ele><time>2026-04-20T13:31:17.327Z</time></trkpt><trkpt lat="43.0804629" lon="11.5374571"><ele>292.40000000000003</ele><time>2026-04-20T13:31:18.328Z</time></trkpt><trkpt lat="43.0805401" lon="11.537505"><ele>291.0</ele><time>2026-04-20T13:31:19.328Z</time></trkpt><trkpt lat="43.080609" lon="11.5375607"><ele>291.0</ele><time>2026-04-20T13:31:20.328Z</time></trkpt><trkpt lat="43.0806595" lon="11.5376362"><ele>291.0</ele><time>2026-04-20T13:31:21.327Z</time></trkpt><trkpt lat="43.080698" lon="11.5377382"><ele>291.0</ele><time>2026-04-20T13:31:22.327Z</time></trkpt><trkpt lat="43.080729" lon="11.5378607"><ele>291.0</ele><time>2026-04-20T13:31:23.327Z</time></trkpt><trkpt lat="43.0807501" lon="11.5379879"><ele>291.0</ele><time>2026-04-20T13:31:24.327Z</time></trkpt><trkpt lat="43.0807657" lon="11.5381093"><ele>291.0</ele><time>2026-04-20T13:31:25.327Z</time></trkpt><trkpt lat="43.0807798" lon="11.5382275"><ele>290.3333333333333</ele><time>2026-04-20T13:31:26.328Z</time></trkpt><trkpt lat="43.0807946" lon="11.5383449"><ele>289.6666666666667</ele><time>2026-04-20T13:31:27.327Z</time></trkpt><trkpt lat="43.0808099" lon="11.5384632"><ele>289.0</ele><time>2026-04-20T13:31:28.327Z</time></trkpt><trkpt lat="43.0808271" lon="11.538586"><ele>288.33333333333337</ele><time>2026-04-20T13:31:29.327Z</time></trkpt><trkpt lat="43.0808472" lon="11.5387095"><ele>287.6666666666667</ele><time>2026-04-20T13:31:30.327Z</time></trkpt><trkpt lat="43.0808675" lon="11.5388294"><ele>287.0</ele><time>2026-04-20T13:31:31.327Z</time></trkpt><trkpt lat="43.0808868" lon="11.5389474"><ele>286.8</ele><time>2026-04-20T13:31:32.327Z</time></trkpt><trkpt lat="43.0809079" lon="11.5390669"><ele>286.6</ele><time>2026-04-20T13:31:33.327Z</time></trkpt><trkpt lat="43.0809299" lon="11.5391887"><ele>286.40000000000003</ele><time>2026-04-20T13:31:34.327Z</time></trkpt><trkpt lat="43.080952" lon="11.539312"><ele>286.2</ele><time>2026-04-20T13:31:35.327Z</time></trkpt><trkpt lat="43.0809799" lon="11.5394283"><ele>286.0</ele><time>2026-04-20T13:31:36.327Z</time></trkpt><trkpt lat="43.0810208" lon="11.5395359"><ele>286.6</ele><time>2026-04-20T13:31:37.327Z</time></trkpt><trkpt lat="43.0810767" lon="11.5396396"><ele>287.20000000000005</ele><time>2026-04-20T13:31:38.327Z</time></trkpt><trkpt lat="43.0811423" lon="11.5397356"><ele>287.79999999999995</ele><time>2026-04-20T13:31:39.327Z</time></trkpt><trkpt lat="43.0812177" lon="11.5398203"><ele>288.4</ele><time>2026-04-20T13:31:40.327Z</time></trkpt><trkpt lat="43.0812941" lon="11.5398944"><ele>289.0</ele><time>2026-04-20T13:31:41.327Z</time></trkpt><trkpt lat="43.0813674" lon="11.5399693"><ele>289.0</ele><time>2026-04-20T13:31:42.328Z</time></trkpt><trkpt lat="43.0814395" lon="11.5400496"><ele>289.0</ele><time>2026-04-20T13:31:43.327Z</time></trkpt><trkpt lat="43.081506" lon="11.5401346"><ele>289.0</ele><time>2026-04-20T13:31:44.327Z</time></trkpt><trkpt lat="43.0815611" lon="11.540223"><ele>289.0</ele><time>2026-04-20T13:31:45.327Z</time></trkpt><trkpt lat="43.0816056" lon="11.5403154"><ele>289.0</ele><time>2026-04-20T13:31:46.327Z</time></trkpt><trkpt lat="43.0816429" lon="11.5404192"><ele>289.0</ele><time>2026-04-20T13:31:47.327Z</time></trkpt><trkpt lat="43.081671" lon="11.5405336"><ele>289.66666666666663</ele><time>2026-04-20T13:31:48.328Z</time></trkpt><trkpt lat="43.0816863" lon="11.5406464"><ele>290.3333333333333</ele><time>2026-04-20T13:31:49.327Z</time></trkpt><trkpt lat="43.0816924" lon="11.5407472"><ele>291.0</ele><time>2026-04-20T13:31:50.327Z</time></trkpt><trkpt lat="43.0816936" lon="11.540837"><ele>291.6666666666667</ele><time>2026-04-20T13:31:51.327Z</time></trkpt><trkpt lat="43.0817006" lon="11.5409825"><ele>292.33333333333337</ele><time>2026-04-20T13:31:53.327Z</time></trkpt><trkpt lat="43.081724" lon="11.5411084"><ele>293.0</ele><time>2026-04-20T13:31:55.328Z</time></trkpt><trkpt lat="43.0817561" lon="11.5412237"><ele>293.6</ele><time>2026-04-20T13:31:57.329Z</time></trkpt><trkpt lat="43.0817826" lon="11.5413477"><ele>294.20000000000005</ele><time>2026-04-20T13:31:59.328Z</time></trkpt><trkpt lat="43.0818056" lon="11.5414852"><ele>294.8</ele><time>2026-04-20T13:32:01.328Z</time></trkpt><trkpt lat="43.0818343" lon="11.5416238"><ele>295.40000000000003</ele><time>2026-04-20T13:32:03.328Z</time></trkpt><trkpt lat="43.0818646" lon="11.5417816"><ele>296.0</ele><time>2026-04-20T13:32:05.328Z</time></trkpt><trkpt lat="43.0818799" lon="11.5418676"><ele>296.0</ele><time>2026-04-20T13:32:06.328Z</time></trkpt><trkpt lat="43.0818926" lon="11.5419591"><ele>296.0</ele><time>2026-04-20T13:32:07.329Z</time></trkpt><trkpt lat="43.0819041" lon="11.5420587"><ele>296.0</ele><time>2026-04-20T13:32:08.329Z</time></trkpt><trkpt lat="43.0819133" lon="11.5421722"><ele>296.0</ele><time>2026-04-20T13:32:09.329Z</time></trkpt><trkpt lat="43.0819159" lon="11.5422927"><ele>296.0</ele><time>2026-04-20T13:32:10.328Z</time></trkpt><trkpt lat="43.0819128" lon="11.5424036"><ele>296.0</ele><time>2026-04-20T13:32:11.328Z</time></trkpt><trkpt lat="43.0819093" lon="11.5425034"><ele>296.0</ele><time>2026-04-20T13:32:12.328Z</time></trkpt><trkpt lat="43.0819108" lon="11.5425973"><ele>296.0</ele><time>2026-04-20T13:32:13.328Z</time></trkpt><trkpt lat="43.0819195" lon="11.5426862"><ele>296.0</ele><time>2026-04-20T13:32:14.328Z</time></trkpt><trkpt lat="43.0819571" lon="11.5428415"><ele>296.0</ele><time>2026-04-20T13:32:16.328Z</time></trkpt><trkpt lat="43.0820303" lon="11.5429623"><ele>296.0</ele><time>2026-04-20T13:32:18.329Z</time></trkpt><trkpt lat="43.0821439" lon="11.5430325"><ele>294.8</ele><time>2026-04-20T13:32:20.328Z</time></trkpt><trkpt lat="43.0822124" lon="11.543049"><ele>293.6</ele><time>2026-04-20T13:32:21.328Z</time></trkpt><trkpt lat="43.0822935" lon="11.5430589"><ele>292.4</ele><time>2026-04-20T13:32:22.328Z</time></trkpt><trkpt lat="43.082388" lon="11.5430712"><ele>291.2</ele><time>2026-04-20T13:32:23.328Z</time></trkpt><trkpt lat="43.0824886" lon="11.5430945"><ele>290.0</ele><time>2026-04-20T13:32:24.328Z</time></trkpt><trkpt lat="43.0825901" lon="11.543129"><ele>290.0</ele><time>2026-04-20T13:32:25.328Z</time></trkpt><trkpt lat="43.0826846" lon="11.5431681"><ele>290.0</ele><time>2026-04-20T13:32:26.328Z</time></trkpt><trkpt lat="43.0827692" lon="11.5432035"><ele>290.0</ele><time>2026-04-20T13:32:27.328Z</time></trkpt><trkpt lat="43.0828484" lon="11.5432295"><ele>290.0</ele><time>2026-04-20T13:32:28.328Z</time></trkpt><trkpt lat="43.0829314" lon="11.5432419"><ele>290.0</ele><time>2026-04-20T13:32:29.328Z</time></trkpt><trkpt lat="43.0830164" lon="11.5432448"><ele>290.0</ele><time>2026-04-20T13:32:30.328Z</time></trkpt><trkpt lat="43.0830988" lon="11.5432506"><ele>290.0</ele><time>2026-04-20T13:32:31.329Z</time></trkpt><trkpt lat="43.0831775" lon="11.543264"><ele>290.0</ele><time>2026-04-20T13:32:32.328Z</time></trkpt><trkpt lat="43.0832525" lon="11.5432863"><ele>290.0</ele><time>2026-04-20T13:32:33.328Z</time></trkpt><trkpt lat="43.0833284" lon="11.543312"><ele>290.0</ele><time>2026-04-20T13:32:34.328Z</time></trkpt><trkpt lat="43.0834036" lon="11.5433361"><ele>290.0</ele><time>2026-04-20T13:32:35.329Z</time></trkpt><trkpt lat="43.0834766" lon="11.5433568"><ele>290.0</ele><time>2026-04-20T13:32:36.328Z</time></trkpt><trkpt lat="43.0835451" lon="11.5433691"><ele>289.1666666666667</ele><time>2026-04-20T13:32:37.328Z</time></trkpt><trkpt lat="43.0836726" lon="11.5433479"><ele>288.33333333333337</ele><time>2026-04-20T13:32:39.328Z</time></trkpt><trkpt lat="43.0837382" lon="11.5433089"><ele>287.5</ele><time>2026-04-20T13:32:40.328Z</time></trkpt><trkpt lat="43.0838024" lon="11.5432563"><ele>286.6666666666667</ele><time>2026-04-20T13:32:41.328Z</time></trkpt><trkpt lat="43.0838609" lon="11.5432087"><ele>285.8333333333333</ele><time>2026-04-20T13:32:42.329Z</time></trkpt><trkpt lat="43.083921" lon="11.5431792"><ele>285.0</ele><time>2026-04-20T13:32:43.328Z</time></trkpt><trkpt lat="43.0839853" lon="11.5431755"><ele>285.0</ele><time>2026-04-20T13:32:44.328Z</time></trkpt><trkpt lat="43.0840545" lon="11.5431918"><ele>285.0</ele><time>2026-04-20T13:32:45.328Z</time></trkpt><trkpt lat="43.0841274" lon="11.5432268"><ele>285.0</ele><time>2026-04-20T13:32:46.329Z</time></trkpt><trkpt lat="43.0842097" lon="11.5432702"><ele>285.0</ele><time>2026-04-20T13:32:47.329Z</time></trkpt><trkpt lat="43.084299" lon="11.5433178"><ele>285.0</ele><time>2026-04-20T13:32:48.329Z</time></trkpt><trkpt lat="43.0843952" lon="11.543367"><ele>285.0</ele><time>2026-04-20T13:32:49.329Z</time></trkpt><trkpt lat="43.0844926" lon="11.543411"><ele>283.6666666666667</ele><time>2026-04-20T13:32:50.329Z</time></trkpt><trkpt lat="43.084581" lon="11.5434474"><ele>282.3333333333333</ele><time>2026-04-20T13:32:51.329Z</time></trkpt><trkpt lat="43.0846639" lon="11.5434775"><ele>281.0</ele><time>2026-04-20T13:32:52.329Z</time></trkpt><trkpt lat="43.0847456" lon="11.5435075"><ele>279.66666666666663</ele><time>2026-04-20T13:32:53.329Z</time></trkpt><trkpt lat="43.0848242" lon="11.5435358"><ele>278.3333333333333</ele><time>2026-04-20T13:32:54.329Z</time></trkpt><trkpt lat="43.0849027" lon="11.5435711"><ele>277.0</ele><time>2026-04-20T13:32:55.329Z</time></trkpt><trkpt lat="43.0849798" lon="11.5436129"><ele>275.6</ele><time>2026-04-20T13:32:56.329Z</time></trkpt><trkpt lat="43.085057" lon="11.5436583"><ele>274.2</ele><time>2026-04-20T13:32:57.329Z</time></trkpt><trkpt lat="43.0851359" lon="11.5437083"><ele>272.8</ele><time>2026-04-20T13:32:58.329Z</time></trkpt><trkpt lat="43.0852208" lon="11.5437618"><ele>271.4</ele><time>2026-04-20T13:32:59.329Z</time></trkpt><trkpt lat="43.0853112" lon="11.5438191"><ele>270.0</ele><time>2026-04-20T13:33:00.329Z</time></trkpt><trkpt lat="43.0854026" lon="11.5438737"><ele>270.0</ele><time>2026-04-20T13:33:01.329Z</time></trkpt><trkpt lat="43.0854884" lon="11.5439202"><ele>270.0</ele><time>2026-04-20T13:33:02.329Z</time></trkpt><trkpt lat="43.0855728" lon="11.5439609"><ele>270.0</ele><time>2026-04-20T13:33:03.329Z</time></trkpt><trkpt lat="43.0856585" lon="11.543994"><ele>270.0</ele><time>2026-04-20T13:33:04.329Z</time></trkpt><trkpt lat="43.0857486" lon="11.5440201"><ele>270.0</ele><time>2026-04-20T13:33:05.329Z</time></trkpt><trkpt lat="43.0858443" lon="11.5440396"><ele>270.0</ele><time>2026-04-20T13:33:06.33Z</time></trkpt><trkpt lat="43.0859417" lon="11.5440527"><ele>270.0</ele><time>2026-04-20T13:33:07.329Z</time></trkpt><trkpt lat="43.0860343" lon="11.5440633"><ele>270.0</ele><time>2026-04-20T13:33:08.329Z</time></trkpt><trkpt lat="43.0861141" lon="11.5440708"><ele>270.0</ele><time>2026-04-20T13:33:09.329Z</time></trkpt><trkpt lat="43.0861926" lon="11.5440819"><ele>270.0</ele><time>2026-04-20T13:33:10.329Z</time></trkpt><trkpt lat="43.0862772" lon="11.5441013"><ele>270.0</ele><time>2026-04-20T13:33:11.329Z</time></trkpt><trkpt lat="43.0863693" lon="11.5441335"><ele>270.0</ele><time>2026-04-20T13:33:12.329Z</time></trkpt><trkpt lat="43.0864636" lon="11.5441791"><ele>270.0</ele><time>2026-04-20T13:33:13.329Z</time></trkpt><trkpt lat="43.0865558" lon="11.5442398"><ele>270.0</ele><time>2026-04-20T13:33:14.33Z</time></trkpt><trkpt lat="43.0866403" lon="11.5443107"><ele>270.0</ele><time>2026-04-20T13:33:15.329Z</time></trkpt><trkpt lat="43.0867205" lon="11.5443782"><ele>270.0</ele><time>2026-04-20T13:33:16.329Z</time></trkpt><trkpt lat="43.086798" lon="11.5444437"><ele>270.1666666666667</ele><time>2026-04-20T13:33:17.329Z</time></trkpt><trkpt lat="43.0868674" lon="11.5445036"><ele>270.3333333333333</ele><time>2026-04-20T13:33:18.329Z</time></trkpt><trkpt lat="43.0869229" lon="11.5445549"><ele>270.5</ele><time>2026-04-20T13:33:19.329Z</time></trkpt><trkpt lat="43.0870064" lon="11.5446398"><ele>270.66666666666663</ele><time>2026-04-20T13:33:21.329Z</time></trkpt><trkpt lat="43.0870677" lon="11.5447108"><ele>270.8333333333333</ele><time>2026-04-20T13:33:23.33Z</time></trkpt><trkpt lat="43.0871193" lon="11.5448039"><ele>271.0</ele><time>2026-04-20T13:33:27.329Z</time></trkpt><trkpt lat="43.0870831" lon="11.5449541"><ele>271.0</ele><time>2026-04-20T13:33:29.33Z</time></trkpt><trkpt lat="43.0870414" lon="11.5450591"><ele>271.0</ele><time>2026-04-20T13:33:30.33Z</time></trkpt><trkpt lat="43.0869943" lon="11.5451825"><ele>271.0</ele><time>2026-04-20T13:33:31.329Z</time></trkpt><trkpt lat="43.0869457" lon="11.5453133"><ele>271.0</ele><time>2026-04-20T13:33:32.33Z</time></trkpt><trkpt lat="43.086901" lon="11.5454375"><ele>271.0</ele><time>2026-04-20T13:33:33.329Z</time></trkpt><trkpt lat="43.0868579" lon="11.5455719"><ele>270.2</ele><time>2026-04-20T13:33:34.329Z</time></trkpt><trkpt lat="43.086816" lon="11.54571"><ele>269.40000000000003</ele><time>2026-04-20T13:33:35.33Z</time></trkpt><trkpt lat="43.0867785" lon="11.5458451"><ele>268.6</ele><time>2026-04-20T13:33:36.33Z</time></trkpt><trkpt lat="43.0867474" lon="11.5459748"><ele>267.8</ele><time>2026-04-20T13:33:37.33Z</time></trkpt><trkpt lat="43.086717" lon="11.5461065"><ele>267.0</ele><time>2026-04-20T13:33:38.331Z</time></trkpt><trkpt lat="43.0866883" lon="11.5462402"><ele>266.75</ele><time>2026-04-20T13:33:39.33Z</time></trkpt><trkpt lat="43.0866569" lon="11.5463834"><ele>266.5</ele><time>2026-04-20T13:33:40.331Z</time></trkpt><trkpt lat="43.086625" lon="11.5465451"><ele>266.25</ele><time>2026-04-20T13:33:41.33Z</time></trkpt><trkpt lat="43.0865911" lon="11.5467084"><ele>266.0</ele><time>2026-04-20T13:33:42.33Z</time></trkpt><trkpt lat="43.0865478" lon="11.5468727"><ele>264.25</ele><time>2026-04-20T13:33:43.33Z</time></trkpt><trkpt lat="43.0865011" lon="11.5470426"><ele>262.5</ele><time>2026-04-20T13:33:44.33Z</time></trkpt><trkpt lat="43.086462" lon="11.5472103"><ele>260.75</ele><time>2026-04-20T13:33:45.33Z</time></trkpt><trkpt lat="43.0864278" lon="11.5473746"><ele>259.0</ele><time>2026-04-20T13:33:46.33Z</time></trkpt><trkpt lat="43.086403" lon="11.5475309"><ele>258.8</ele><time>2026-04-20T13:33:47.33Z</time></trkpt><trkpt lat="43.0863796" lon="11.5476781"><ele>258.59999999999997</ele><time>2026-04-20T13:33:48.33Z</time></trkpt><trkpt lat="43.0863551" lon="11.5478125"><ele>258.4</ele><time>2026-04-20T13:33:49.33Z</time></trkpt><trkpt lat="43.0863333" lon="11.5479366"><ele>258.2</ele><time>2026-04-20T13:33:50.33Z</time></trkpt><trkpt lat="43.0863121" lon="11.5480488"><ele>258.0</ele><time>2026-04-20T13:33:51.331Z</time></trkpt><trkpt lat="43.0862803" lon="11.5481479"><ele>257.6666666666667</ele><time>2026-04-20T13:33:52.33Z</time></trkpt><trkpt lat="43.0862528" lon="11.5482261"><ele>257.3333333333333</ele><time>2026-04-20T13:33:53.33Z</time></trkpt><trkpt lat="43.0862202" lon="11.5483157"><ele>257.0</ele><time>2026-04-20T13:33:57.33Z</time></trkpt><trkpt lat="43.0862315" lon="11.5484031"><ele>256.66666666666663</ele><time>2026-04-20T13:34:01.331Z</time></trkpt><trkpt lat="43.086284" lon="11.5482753"><ele>256.3333333333333</ele><time>2026-04-20T13:34:19.331Z</time></trkpt><trkpt lat="43.0862958" lon="11.5481817"><ele>256.0</ele><time>2026-04-20T13:34:20.33Z</time></trkpt><trkpt lat="43.0863174" lon="11.5480515"><ele>256.0</ele><time>2026-04-20T13:34:21.33Z</time></trkpt><trkpt lat="43.0863472" lon="11.5479223"><ele>256.0</ele><time>2026-04-20T13:34:22.33Z</time></trkpt><trkpt lat="43.0863725" lon="11.5478029"><ele>256.0</ele><time>2026-04-20T13:34:23.33Z</time></trkpt><trkpt lat="43.0863952" lon="11.5476877"><ele>256.0</ele><time>2026-04-20T13:34:24.33Z</time></trkpt><trkpt lat="43.0864182" lon="11.5475747"><ele>256.0</ele><time>2026-04-20T13:34:25.331Z</time></trkpt><trkpt lat="43.0864435" lon="11.547459"><ele>256.3333333333333</ele><time>2026-04-20T13:34:26.331Z</time></trkpt><trkpt lat="43.0864643" lon="11.5473431"><ele>256.66666666666663</ele><time>2026-04-20T13:34:27.331Z</time></trkpt><trkpt lat="43.0864913" lon="11.5472229"><ele>257.0</ele><time>2026-04-20T13:34:28.331Z</time></trkpt><trkpt lat="43.0865161" lon="11.5471061"><ele>257.3333333333333</ele><time>2026-04-20T13:34:29.331Z</time></trkpt><trkpt lat="43.0865397" lon="11.5470001"><ele>257.6666666666667</ele><time>2026-04-20T13:34:30.332Z</time></trkpt><trkpt lat="43.0865618" lon="11.5468991"><ele>258.0</ele><time>2026-04-20T13:34:31.331Z</time></trkpt><trkpt lat="43.0865833" lon="11.5467959"><ele>259.6</ele><time>2026-04-20T13:34:32.331Z</time></trkpt><trkpt lat="43.0866069" lon="11.5466758"><ele>261.20000000000005</ele><time>2026-04-20T13:34:33.331Z</time></trkpt><trkpt lat="43.0866384" lon="11.5465374"><ele>262.8</ele><time>2026-04-20T13:34:34.331Z</time></trkpt><trkpt lat="43.0866765" lon="11.5463961"><ele>264.40000000000003</ele><time>2026-04-20T13:34:35.331Z</time></trkpt><trkpt lat="43.0867159" lon="11.5462711"><ele>266.0</ele><time>2026-04-20T13:34:36.331Z</time></trkpt><trkpt lat="43.0867404" lon="11.546178"><ele>266.1666666666667</ele><time>2026-04-20T13:34:37.331Z</time></trkpt><trkpt lat="43.0867471" lon="11.5460794"><ele>266.33333333333337</ele><time>2026-04-20T13:34:39.331Z</time></trkpt><trkpt lat="43.0866861" lon="11.5460173"><ele>266.5</ele><time>2026-04-20T13:34:41.331Z</time></trkpt><trkpt lat="43.0866159" lon="11.5459938"><ele>266.6666666666667</ele><time>2026-04-20T13:34:42.331Z</time></trkpt><trkpt lat="43.0865316" lon="11.5459612"><ele>266.8333333333333</ele><time>2026-04-20T13:34:43.332Z</time></trkpt><trkpt lat="43.0864372" lon="11.5459328"><ele>267.0</ele><time>2026-04-20T13:34:44.331Z</time></trkpt><trkpt lat="43.0863422" lon="11.5459043"><ele>266.0</ele><time>2026-04-20T13:34:45.331Z</time></trkpt><trkpt lat="43.0862414" lon="11.5458825"><ele>265.0</ele><time>2026-04-20T13:34:46.331Z</time></trkpt><trkpt lat="43.0861423" lon="11.5458716"><ele>264.0</ele><time>2026-04-20T13:34:47.331Z</time></trkpt><trkpt lat="43.0860496" lon="11.5458609"><ele>263.0</ele><time>2026-04-20T13:34:48.331Z</time></trkpt><trkpt lat="43.0859703" lon="11.5458388"><ele>262.0</ele><time>2026-04-20T13:34:49.332Z</time></trkpt><trkpt lat="43.0858947" lon="11.5458067"><ele>262.0</ele><time>2026-04-20T13:34:50.332Z</time></trkpt><trkpt lat="43.0858219" lon="11.5457775"><ele>262.0</ele><time>2026-04-20T13:34:51.331Z</time></trkpt><trkpt lat="43.0857589" lon="11.5457534"><ele>262.0</ele><time>2026-04-20T13:34:52.331Z</time></trkpt><trkpt lat="43.0856816" lon="11.5456935"><ele>262.0</ele><time>2026-04-20T13:34:54.331Z</time></trkpt><trkpt lat="43.085629" lon="11.5456441"><ele>262.0</ele><time>2026-04-20T13:34:55.331Z</time></trkpt><trkpt lat="43.0855676" lon="11.5455848"><ele>262.0</ele><time>2026-04-20T13:34:56.331Z</time></trkpt><trkpt lat="43.0854997" lon="11.5455234"><ele>261.8333333333333</ele><time>2026-04-20T13:34:57.331Z</time></trkpt><trkpt lat="43.0854292" lon="11.5454623"><ele>261.66666666666663</ele><time>2026-04-20T13:34:58.331Z</time></trkpt><trkpt lat="43.0853596" lon="11.5454002"><ele>261.5</ele><time>2026-04-20T13:34:59.331Z</time></trkpt><trkpt lat="43.0852924" lon="11.5453415"><ele>261.3333333333333</ele><time>2026-04-20T13:35:00.332Z</time></trkpt><trkpt lat="43.0852124" lon="11.5452625"><ele>261.1666666666667</ele><time>2026-04-20T13:35:02.332Z</time></trkpt><trkpt lat="43.0852787" lon="11.5453161"><ele>261.0</ele><time>2026-04-20T13:35:26.333Z</time></trkpt><trkpt lat="43.0853474" lon="11.5453854"><ele>261.0</ele><time>2026-04-20T13:35:27.332Z</time></trkpt><trkpt lat="43.0854194" lon="11.545463"><ele>261.0</ele><time>2026-04-20T13:35:28.332Z</time></trkpt><trkpt lat="43.0854977" lon="11.5455366"><ele>261.0</ele><time>2026-04-20T13:35:29.332Z</time></trkpt><trkpt lat="43.0855707" lon="11.5456054"><ele>261.0</ele><time>2026-04-20T13:35:30.332Z</time></trkpt><trkpt lat="43.0856309" lon="11.5456647"><ele>261.0</ele><time>2026-04-20T13:35:31.332Z</time></trkpt><trkpt lat="43.0857162" lon="11.5457562"><ele>261.0</ele><time>2026-04-20T13:35:33.333Z</time></trkpt><trkpt lat="43.0857537" lon="11.54584"><ele>261.0</ele><time>2026-04-20T13:35:36.332Z</time></trkpt><trkpt lat="43.0856906" lon="11.5459921"><ele>261.0</ele><time>2026-04-20T13:35:38.333Z</time></trkpt><trkpt lat="43.0856341" lon="11.5460963"><ele>261.0</ele><time>2026-04-20T13:35:39.332Z</time></trkpt><trkpt lat="43.0855769" lon="11.5462048"><ele>261.0</ele><time>2026-04-20T13:35:40.333Z</time></trkpt><trkpt lat="43.0855247" lon="11.5463081"><ele>260.5</ele><time>2026-04-20T13:35:41.332Z</time></trkpt><trkpt lat="43.085433" lon="11.5465092"><ele>260.0</ele><time>2026-04-20T13:35:43.332Z</time></trkpt><trkpt lat="43.0853811" lon="11.5466059"><ele>259.5</ele><time>2026-04-20T13:35:44.332Z</time></trkpt><trkpt lat="43.0853246" lon="11.5467091"><ele>259.0</ele><time>2026-04-20T13:35:45.332Z</time></trkpt><trkpt lat="43.0852692" lon="11.546816"><ele>259.0</ele><time>2026-04-20T13:35:46.333Z</time></trkpt><trkpt lat="43.0852184" lon="11.5469203"><ele>259.0</ele><time>2026-04-20T13:35:47.332Z</time></trkpt><trkpt lat="43.0851698" lon="11.5470219"><ele>259.0</ele><time>2026-04-20T13:35:48.332Z</time></trkpt><trkpt lat="43.085123" lon="11.5471229"><ele>259.0</ele><time>2026-04-20T13:35:49.332Z</time></trkpt><trkpt lat="43.0850758" lon="11.5472286"><ele>259.0</ele><time>2026-04-20T13:35:50.333Z</time></trkpt><trkpt lat="43.0850185" lon="11.547346"><ele>258.4</ele><time>2026-04-20T13:35:51.332Z</time></trkpt><trkpt lat="43.0849557" lon="11.54747"><ele>257.79999999999995</ele><time>2026-04-20T13:35:52.332Z</time></trkpt><trkpt lat="43.0848931" lon="11.5475951"><ele>257.20000000000005</ele><time>2026-04-20T13:35:53.332Z</time></trkpt><trkpt lat="43.0848364" lon="11.5477124"><ele>256.6</ele><time>2026-04-20T13:35:54.333Z</time></trkpt><trkpt lat="43.0847853" lon="11.5478235"><ele>256.0</ele><time>2026-04-20T13:35:55.333Z</time></trkpt><trkpt lat="43.0847388" lon="11.5479236"><ele>254.83333333333331</ele><time>2026-04-20T13:35:56.332Z</time></trkpt><trkpt lat="43.084697" lon="11.5480107"><ele>253.66666666666666</ele><time>2026-04-20T13:35:57.333Z</time></trkpt><trkpt lat="43.0846607" lon="11.5480872"><ele>252.5</ele><time>2026-04-20T13:35:58.332Z</time></trkpt><trkpt lat="43.0846004" lon="11.5482073"><ele>251.33333333333331</ele><time>2026-04-20T13:36:00.332Z</time></trkpt><trkpt lat="43.0845623" lon="11.5482803"><ele>250.16666666666666</ele><time>2026-04-20T13:36:02.332Z</time></trkpt><trkpt lat="43.0844751" lon="11.5483219"><ele>249.0</ele><time>2026-04-20T13:36:04.332Z</time></trkpt><trkpt lat="43.0843827" lon="11.5483218"><ele>249.0</ele><time>2026-04-20T13:36:05.333Z</time></trkpt><trkpt lat="43.0842708" lon="11.5483164"><ele>249.0</ele><time>2026-04-20T13:36:06.334Z</time></trkpt><trkpt lat="43.0841488" lon="11.5483151"><ele>249.0</ele><time>2026-04-20T13:36:07.334Z</time></trkpt><trkpt lat="43.0840251" lon="11.5483282"><ele>249.0</ele><time>2026-04-20T13:36:08.333Z</time></trkpt><trkpt lat="43.0838884" lon="11.5483406"><ele>248.75</ele><time>2026-04-20T13:36:09.334Z</time></trkpt><trkpt lat="43.0837491" lon="11.5483478"><ele>248.5</ele><time>2026-04-20T13:36:10.333Z</time></trkpt><trkpt lat="43.0836062" lon="11.548347"><ele>248.25</ele><time>2026-04-20T13:36:11.333Z</time></trkpt><trkpt lat="43.0834645" lon="11.5483434"><ele>248.0</ele><time>2026-04-20T13:36:12.333Z</time></trkpt><trkpt lat="43.0833182" lon="11.5483423"><ele>248.66666666666669</ele><time>2026-04-20T13:36:13.333Z</time></trkpt><trkpt lat="43.0831682" lon="11.5483463"><ele>249.33333333333331</ele><time>2026-04-20T13:36:14.334Z</time></trkpt><trkpt lat="43.0830158" lon="11.5483554"><ele>250.0</ele><time>2026-04-20T13:36:15.333Z</time></trkpt><trkpt lat="43.0828654" lon="11.5483634"><ele>250.0</ele><time>2026-04-20T13:36:16.333Z</time></trkpt><trkpt lat="43.0827132" lon="11.5483716"><ele>250.0</ele><time>2026-04-20T13:36:17.333Z</time></trkpt><trkpt lat="43.0825616" lon="11.5483811"><ele>250.0</ele><time>2026-04-20T13:36:18.333Z</time></trkpt><trkpt lat="43.0824165" lon="11.548385"><ele>250.0</ele><time>2026-04-20T13:36:19.333Z</time></trkpt><trkpt lat="43.082274" lon="11.54837"><ele>249.25</ele><time>2026-04-20T13:36:20.333Z</time></trkpt><trkpt lat="43.0821428" lon="11.5483099"><ele>248.5</ele><time>2026-04-20T13:36:21.333Z</time></trkpt><trkpt lat="43.0820297" lon="11.54821"><ele>247.75</ele><time>2026-04-20T13:36:22.333Z</time></trkpt><trkpt lat="43.0819361" lon="11.5480739"><ele>247.0</ele><time>2026-04-20T13:36:23.334Z</time></trkpt><trkpt lat="43.0818626" lon="11.5479078"><ele>248.0</ele><time>2026-04-20T13:36:24.333Z</time></trkpt><trkpt lat="43.0818055" lon="11.5477421"><ele>249.0</ele><time>2026-04-20T13:36:25.333Z</time></trkpt><trkpt lat="43.0817546" lon="11.5475717"><ele>250.0</ele><time>2026-04-20T13:36:26.333Z</time></trkpt><trkpt lat="43.0816989" lon="11.547411"><ele>251.0</ele><time>2026-04-20T13:36:27.333Z</time></trkpt><trkpt lat="43.0816332" lon="11.547268"><ele>250.5</ele><time>2026-04-20T13:36:28.333Z</time></trkpt><trkpt lat="43.0815499" lon="11.5471469"><ele>250.0</ele><time>2026-04-20T13:36:29.334Z</time></trkpt><trkpt lat="43.0814528" lon="11.5470363"><ele>249.5</ele><time>2026-04-20T13:36:30.333Z</time></trkpt><trkpt lat="43.0813278" lon="11.5469641"><ele>249.0</ele><time>2026-04-20T13:36:31.333Z</time></trkpt><trkpt lat="43.0811846" lon="11.5469273"><ele>249.0</ele><time>2026-04-20T13:36:32.333Z</time></trkpt><trkpt lat="43.0810234" lon="11.546907"><ele>249.0</ele><time>2026-04-20T13:36:33.333Z</time></trkpt><trkpt lat="43.0808641" lon="11.5468869"><ele>249.0</ele><time>2026-04-20T13:36:34.333Z</time></trkpt><trkpt lat="43.0807014" lon="11.5468761"><ele>249.0</ele><time>2026-04-20T13:36:35.333Z</time></trkpt><trkpt lat="43.0805331" lon="11.546863"><ele>249.0</ele><time>2026-04-20T13:36:36.334Z</time></trkpt><trkpt lat="43.080364" lon="11.5468485"><ele>249.0</ele><time>2026-04-20T13:36:37.333Z</time></trkpt><trkpt lat="43.0801952" lon="11.5468288"><ele>249.0</ele><time>2026-04-20T13:36:38.334Z</time></trkpt><trkpt lat="43.0800333" lon="11.5467888"><ele>249.0</ele><time>2026-04-20T13:36:39.333Z</time></trkpt><trkpt lat="43.0798706" lon="11.5467276"><ele>249.0</ele><time>2026-04-20T13:36:40.333Z</time></trkpt><trkpt lat="43.0796988" lon="11.5466407"><ele>247.33333333333331</ele><time>2026-04-20T13:36:41.334Z</time></trkpt><trkpt lat="43.0795273" lon="11.5465389"><ele>245.66666666666666</ele><time>2026-04-20T13:36:42.333Z</time></trkpt><trkpt lat="43.0793575" lon="11.5464318"><ele>244.0</ele><time>2026-04-20T13:36:43.333Z</time></trkpt><trkpt lat="43.0791923" lon="11.5463282"><ele>243.66666666666666</ele><time>2026-04-20T13:36:44.333Z</time></trkpt><trkpt lat="43.0790288" lon="11.5462308"><ele>243.33333333333331</ele><time>2026-04-20T13:36:45.333Z</time></trkpt><trkpt lat="43.0788723" lon="11.5461401"><ele>243.0</ele><time>2026-04-20T13:36:46.333Z</time></trkpt><trkpt lat="43.0787311" lon="11.54606"><ele>243.60000000000002</ele><time>2026-04-20T13:36:47.333Z</time></trkpt><trkpt lat="43.078613" lon="11.5459916"><ele>244.20000000000002</ele><time>2026-04-20T13:36:48.334Z</time></trkpt><trkpt lat="43.0785232" lon="11.545945"><ele>244.8</ele><time>2026-04-20T13:36:49.333Z</time></trkpt><trkpt lat="43.0784477" lon="11.5459267"><ele>245.4</ele><time>2026-04-20T13:36:50.334Z</time></trkpt><trkpt lat="43.0783785" lon="11.5459559"><ele>246.0</ele><time>2026-04-20T13:36:51.333Z</time></trkpt><trkpt lat="43.0783186" lon="11.5460345"><ele>246.60000000000002</ele><time>2026-04-20T13:36:52.333Z</time></trkpt><trkpt lat="43.0782656" lon="11.546168"><ele>247.20000000000002</ele><time>2026-04-20T13:36:53.333Z</time></trkpt><trkpt lat="43.0782287" lon="11.5463313"><ele>247.79999999999998</ele><time>2026-04-20T13:36:54.333Z</time></trkpt><trkpt lat="43.0781785" lon="11.5464532"><ele>248.39999999999998</ele><time>2026-04-20T13:36:55.334Z</time></trkpt><trkpt lat="43.0781057" lon="11.5465203"><ele>249.0</ele><time>2026-04-20T13:36:56.334Z</time></trkpt><trkpt lat="43.0780044" lon="11.5465563"><ele>247.5</ele><time>2026-04-20T13:36:57.334Z</time></trkpt><trkpt lat="43.0778904" lon="11.5465635"><ele>246.0</ele><time>2026-04-20T13:36:58.335Z</time></trkpt><trkpt lat="43.0777667" lon="11.5465511"><ele>244.5</ele><time>2026-04-20T13:36:59.334Z</time></trkpt><trkpt lat="43.0776422" lon="11.5465452"><ele>243.0</ele><time>2026-04-20T13:37:00.334Z</time></trkpt><trkpt lat="43.0775255" lon="11.5465543"><ele>243.60000000000002</ele><time>2026-04-20T13:37:01.334Z</time></trkpt><trkpt lat="43.0774095" lon="11.5465694"><ele>244.20000000000002</ele><time>2026-04-20T13:37:02.335Z</time></trkpt><trkpt lat="43.0773005" lon="11.5465872"><ele>244.8</ele><time>2026-04-20T13:37:03.334Z</time></trkpt><trkpt lat="43.0772053" lon="11.546605"><ele>245.4</ele><time>2026-04-20T13:37:04.334Z</time></trkpt><trkpt lat="43.0771294" lon="11.5466184"><ele>246.0</ele><time>2026-04-20T13:37:05.334Z</time></trkpt><trkpt lat="43.0770099" lon="11.5465956"><ele>246.0</ele><time>2026-04-20T13:37:07.334Z</time></trkpt><trkpt lat="43.0769054" lon="11.5465396"><ele>246.0</ele><time>2026-04-20T13:37:09.335Z</time></trkpt><trkpt lat="43.0768352" lon="11.5465304"><ele>246.0</ele><time>2026-04-20T13:37:11.334Z</time></trkpt><trkpt lat="43.0767566" lon="11.5465676"><ele>246.0</ele><time>2026-04-20T13:42:20.34Z</time></trkpt><trkpt lat="43.0766727" lon="11.5466"><ele>246.0</ele><time>2026-04-20T13:42:22.341Z</time></trkpt><trkpt lat="43.0766195" lon="11.5466827"><ele>246.0</ele><time>2026-04-20T13:42:25.341Z</time></trkpt><trkpt lat="43.0766452" lon="11.5467792"><ele>246.0</ele><time>2026-04-20T13:42:31.34Z</time></trkpt><trkpt lat="43.0767479" lon="11.5468083"><ele>246.00000000000003</ele><time>2026-04-20T13:42:33.341Z</time></trkpt><trkpt lat="43.0768417" lon="11.546777"><ele>246.00000000000003</ele><time>2026-04-20T13:42:34.34Z</time></trkpt><trkpt lat="43.07696" lon="11.5467305"><ele>246.0</ele><time>2026-04-20T13:42:35.34Z</time></trkpt><trkpt lat="43.0770798" lon="11.5466958"><ele>246.0</ele><time>2026-04-20T13:42:36.341Z</time></trkpt><trkpt lat="43.0772098" lon="11.5466689"><ele>246.0</ele><time>2026-04-20T13:42:37.34Z</time></trkpt><trkpt lat="43.0773523" lon="11.5466419"><ele>246.0</ele><time>2026-04-20T13:42:38.34Z</time></trkpt><trkpt lat="43.0775012" lon="11.5466134"><ele>246.0</ele><time>2026-04-20T13:42:39.34Z</time></trkpt><trkpt lat="43.0776525" lon="11.5465921"><ele>246.0</ele><time>2026-04-20T13:42:40.34Z</time></trkpt><trkpt lat="43.0778036" lon="11.5465881"><ele>245.0</ele><time>2026-04-20T13:42:41.34Z</time></trkpt><trkpt lat="43.0779534" lon="11.5466032"><ele>244.0</ele><time>2026-04-20T13:42:42.342Z</time></trkpt><trkpt lat="43.0781058" lon="11.5466319"><ele>243.0</ele><time>2026-04-20T13:42:43.341Z</time></trkpt><trkpt lat="43.0782597" lon="11.5466638"><ele>243.0</ele><time>2026-04-20T13:42:44.342Z</time></trkpt><trkpt lat="43.0784149" lon="11.5466904"><ele>243.0</ele><time>2026-04-20T13:42:45.341Z</time></trkpt><trkpt lat="43.078571" lon="11.5467143"><ele>243.0</ele><time>2026-04-20T13:42:46.341Z</time></trkpt><trkpt lat="43.0787274" lon="11.5467431"><ele>243.0</ele><time>2026-04-20T13:42:47.341Z</time></trkpt><trkpt lat="43.0788851" lon="11.5467816"><ele>243.0</ele><time>2026-04-20T13:42:48.342Z</time></trkpt><trkpt lat="43.0790456" lon="11.5468291"><ele>243.0</ele><time>2026-04-20T13:42:49.341Z</time></trkpt><trkpt lat="43.0792082" lon="11.5468784"><ele>243.33333333333331</ele><time>2026-04-20T13:42:50.342Z</time></trkpt><trkpt lat="43.0793709" lon="11.5469297"><ele>243.66666666666666</ele><time>2026-04-20T13:42:51.341Z</time></trkpt><trkpt lat="43.0795298" lon="11.5469843"><ele>244.0</ele><time>2026-04-20T13:42:52.341Z</time></trkpt><trkpt lat="43.0796798" lon="11.5470392"><ele>244.0</ele><time>2026-04-20T13:42:53.341Z</time></trkpt><trkpt lat="43.0798176" lon="11.5470955"><ele>244.0</ele><time>2026-04-20T13:42:54.341Z</time></trkpt><trkpt lat="43.0799438" lon="11.5471629"><ele>244.0</ele><time>2026-04-20T13:42:55.341Z</time></trkpt><trkpt lat="43.0800591" lon="11.5472552"><ele>244.0</ele><time>2026-04-20T13:42:56.341Z</time></trkpt><trkpt lat="43.080161" lon="11.5473637"><ele>244.0</ele><time>2026-04-20T13:42:57.341Z</time></trkpt><trkpt lat="43.0802587" lon="11.547493"><ele>244.0</ele><time>2026-04-20T13:42:58.341Z</time></trkpt><trkpt lat="43.0803559" lon="11.5476308"><ele>244.0</ele><time>2026-04-20T13:42:59.342Z</time></trkpt><trkpt lat="43.0804622" lon="11.5477498"><ele>244.0</ele><time>2026-04-20T13:43:00.341Z</time></trkpt><trkpt lat="43.0805876" lon="11.5478429"><ele>243.75</ele><time>2026-04-20T13:43:01.341Z</time></trkpt><trkpt lat="43.0807227" lon="11.5479198"><ele>243.5</ele><time>2026-04-20T13:43:02.341Z</time></trkpt><trkpt lat="43.0808587" lon="11.5479948"><ele>243.25</ele><time>2026-04-20T13:43:03.341Z</time></trkpt><trkpt lat="43.080994" lon="11.5480698"><ele>243.0</ele><time>2026-04-20T13:43:04.341Z</time></trkpt><trkpt lat="43.0811274" lon="11.5481359"><ele>243.0</ele><time>2026-04-20T13:43:05.342Z</time></trkpt><trkpt lat="43.0812625" lon="11.5481848"><ele>243.0</ele><time>2026-04-20T13:43:06.342Z</time></trkpt><trkpt lat="43.081393" lon="11.5482172"><ele>243.0</ele><time>2026-04-20T13:43:07.341Z</time></trkpt><trkpt lat="43.0815193" lon="11.5482373"><ele>243.0</ele><time>2026-04-20T13:43:08.341Z</time></trkpt><trkpt lat="43.0816401" lon="11.5482599"><ele>244.0</ele><time>2026-04-20T13:43:09.342Z</time></trkpt><trkpt lat="43.0817566" lon="11.5482837"><ele>245.0</ele><time>2026-04-20T13:43:10.341Z</time></trkpt><trkpt lat="43.0818693" lon="11.5483091"><ele>246.0</ele><time>2026-04-20T13:43:11.341Z</time></trkpt><trkpt lat="43.0819793" lon="11.5483365"><ele>247.0</ele><time>2026-04-20T13:43:12.341Z</time></trkpt><trkpt lat="43.0820848" lon="11.5483614"><ele>247.0</ele><time>2026-04-20T13:43:13.341Z</time></trkpt><trkpt lat="43.0821893" lon="11.5483835"><ele>247.0</ele><time>2026-04-20T13:43:14.341Z</time></trkpt><trkpt lat="43.0822941" lon="11.5484035"><ele>247.0</ele><time>2026-04-20T13:43:15.341Z</time></trkpt><trkpt lat="43.0824011" lon="11.5484189"><ele>247.0</ele><time>2026-04-20T13:43:16.341Z</time></trkpt><trkpt lat="43.0825121" lon="11.5484278"><ele>247.0</ele><time>2026-04-20T13:43:17.341Z</time></trkpt><trkpt lat="43.0826305" lon="11.5484266"><ele>247.75</ele><time>2026-04-20T13:43:18.341Z</time></trkpt><trkpt lat="43.0827546" lon="11.5484188"><ele>248.5</ele><time>2026-04-20T13:43:19.342Z</time></trkpt><trkpt lat="43.0828895" lon="11.5484085"><ele>249.25</ele><time>2026-04-20T13:43:20.342Z</time></trkpt><trkpt lat="43.0830304" lon="11.5484008"><ele>250.0</ele><time>2026-04-20T13:43:21.341Z</time></trkpt><trkpt lat="43.0831668" lon="11.5483985"><ele>249.5</ele><time>2026-04-20T13:43:22.341Z</time></trkpt><trkpt lat="43.0832976" lon="11.5483984"><ele>249.0</ele><time>2026-04-20T13:43:23.342Z</time></trkpt><trkpt lat="43.0834318" lon="11.5483954"><ele>248.5</ele><time>2026-04-20T13:43:24.341Z</time></trkpt><trkpt lat="43.083573" lon="11.5483912"><ele>248.0</ele><time>2026-04-20T13:43:25.341Z</time></trkpt><trkpt lat="43.0837227" lon="11.5483855"><ele>248.0</ele><time>2026-04-20T13:43:26.342Z</time></trkpt><trkpt lat="43.0838745" lon="11.5483779"><ele>248.0</ele><time>2026-04-20T13:43:27.342Z</time></trkpt><trkpt lat="43.0840243" lon="11.5483699"><ele>248.0</ele><time>2026-04-20T13:43:28.341Z</time></trkpt><trkpt lat="43.0841674" lon="11.5483631"><ele>248.0</ele><time>2026-04-20T13:43:29.341Z</time></trkpt><trkpt lat="43.0843027" lon="11.5483566"><ele>248.25</ele><time>2026-04-20T13:43:30.341Z</time></trkpt><trkpt lat="43.0844377" lon="11.5483537"><ele>248.5</ele><time>2026-04-20T13:43:31.342Z</time></trkpt><trkpt lat="43.0845735" lon="11.5483628"><ele>248.75</ele><time>2026-04-20T13:43:32.343Z</time></trkpt><trkpt lat="43.0847066" lon="11.5483912"><ele>249.0</ele><time>2026-04-20T13:43:33.342Z</time></trkpt><trkpt lat="43.0848355" lon="11.5484515"><ele>249.5</ele><time>2026-04-20T13:43:34.342Z</time></trkpt><trkpt lat="43.08496" lon="11.54854"><ele>250.0</ele><time>2026-04-20T13:43:35.342Z</time></trkpt><trkpt lat="43.0850758" lon="11.5486572"><ele>250.5</ele><time>2026-04-20T13:43:36.342Z</time></trkpt><trkpt lat="43.0851795" lon="11.5487828"><ele>251.0</ele><time>2026-04-20T13:43:37.342Z</time></trkpt><trkpt lat="43.0852827" lon="11.548901"><ele>251.0</ele><time>2026-04-20T13:43:38.343Z</time></trkpt><trkpt lat="43.0853887" lon="11.5490039"><ele>251.0</ele><time>2026-04-20T13:43:39.342Z</time></trkpt><trkpt lat="43.0854934" lon="11.549106"><ele>251.0</ele><time>2026-04-20T13:43:40.342Z</time></trkpt><trkpt lat="43.085596" lon="11.5491954"><ele>251.0</ele><time>2026-04-20T13:43:41.343Z</time></trkpt><trkpt lat="43.085691" lon="11.5492668"><ele>251.60000000000002</ele><time>2026-04-20T13:43:42.342Z</time></trkpt><trkpt lat="43.0857843" lon="11.5493171"><ele>252.20000000000002</ele><time>2026-04-20T13:43:43.342Z</time></trkpt><trkpt lat="43.0858611" lon="11.5493562"><ele>252.79999999999998</ele><time>2026-04-20T13:43:44.342Z</time></trkpt><trkpt lat="43.0859522" lon="11.5493878"><ele>253.39999999999998</ele><time>2026-04-20T13:43:46.342Z</time></trkpt><trkpt lat="43.0859496" lon="11.5494842"><ele>254.0</ele><time>2026-04-20T13:43:49.342Z</time></trkpt><trkpt lat="43.0858691" lon="11.5496126"><ele>254.0</ele><time>2026-04-20T13:43:51.342Z</time></trkpt><trkpt lat="43.0858054" lon="11.5497085"><ele>254.0</ele><time>2026-04-20T13:43:52.342Z</time></trkpt><trkpt lat="43.0857364" lon="11.5498161"><ele>254.0</ele><time>2026-04-20T13:43:53.342Z</time></trkpt><trkpt lat="43.0856669" lon="11.5499381"><ele>254.0</ele><time>2026-04-20T13:43:54.342Z</time></trkpt><trkpt lat="43.0855104" lon="11.5501958"><ele>253.0</ele><time>2026-04-20T13:43:55.343Z</time></trkpt><trkpt lat="43.0854339" lon="11.5503198"><ele>252.0</ele><time>2026-04-20T13:43:56.342Z</time></trkpt><trkpt lat="43.0853549" lon="11.550446"><ele>251.0</ele><time>2026-04-20T13:43:57.342Z</time></trkpt><trkpt lat="43.0852786" lon="11.5505643"><ele>250.0</ele><time>2026-04-20T13:43:58.342Z</time></trkpt><trkpt lat="43.0852089" lon="11.5506764"><ele>249.5</ele><time>2026-04-20T13:43:59.342Z</time></trkpt><trkpt lat="43.0851428" lon="11.55078"><ele>249.0</ele><time>2026-04-20T13:44:00.342Z</time></trkpt><trkpt lat="43.0850714" lon="11.5508781"><ele>248.5</ele><time>2026-04-20T13:44:01.342Z</time></trkpt><trkpt lat="43.0849923" lon="11.5509836"><ele>248.0</ele><time>2026-04-20T13:44:02.343Z</time></trkpt><trkpt lat="43.0848117" lon="11.5512379"><ele>247.5</ele><time>2026-04-20T13:44:04.342Z</time></trkpt><trkpt lat="43.0847175" lon="11.5513691"><ele>247.0</ele><time>2026-04-20T13:44:05.342Z</time></trkpt><trkpt lat="43.0846214" lon="11.5515072"><ele>246.5</ele><time>2026-04-20T13:44:06.342Z</time></trkpt><trkpt lat="43.0845221" lon="11.5516446"><ele>246.0</ele><time>2026-04-20T13:44:07.342Z</time></trkpt><trkpt lat="43.084421" lon="11.5517852"><ele>246.0</ele><time>2026-04-20T13:44:08.342Z</time></trkpt><trkpt lat="43.0843189" lon="11.5519351"><ele>246.0</ele><time>2026-04-20T13:44:09.343Z</time></trkpt><trkpt lat="43.0842246" lon="11.5520983"><ele>246.0</ele><time>2026-04-20T13:44:10.342Z</time></trkpt><trkpt lat="43.0841372" lon="11.5522712"><ele>244.66666666666669</ele><time>2026-04-20T13:44:11.342Z</time></trkpt><trkpt lat="43.0840552" lon="11.5524518"><ele>243.33333333333334</ele><time>2026-04-20T13:44:12.342Z</time></trkpt><trkpt lat="43.0839803" lon="11.5526412"><ele>242.0</ele><time>2026-04-20T13:44:13.342Z</time></trkpt><trkpt lat="43.0839162" lon="11.5528429"><ele>242.33333333333334</ele><time>2026-04-20T13:44:14.342Z</time></trkpt><trkpt lat="43.0838665" lon="11.5530535"><ele>242.66666666666669</ele><time>2026-04-20T13:44:15.342Z</time></trkpt><trkpt lat="43.0838241" lon="11.5532709"><ele>243.0</ele><time>2026-04-20T13:44:16.342Z</time></trkpt><trkpt lat="43.0837854" lon="11.5534928"><ele>244.0</ele><time>2026-04-20T13:44:17.343Z</time></trkpt><trkpt lat="43.0837499" lon="11.5537195"><ele>245.0</ele><time>2026-04-20T13:44:18.342Z</time></trkpt><trkpt lat="43.083715" lon="11.5539471"><ele>246.0</ele><time>2026-04-20T13:44:19.342Z</time></trkpt><trkpt lat="43.0836809" lon="11.5541785"><ele>246.0</ele><time>2026-04-20T13:44:20.343Z</time></trkpt><trkpt lat="43.0836484" lon="11.554414"><ele>246.0</ele><time>2026-04-20T13:44:21.343Z</time></trkpt><trkpt lat="43.083614" lon="11.5546486"><ele>246.0</ele><time>2026-04-20T13:44:22.343Z</time></trkpt><trkpt lat="43.0835763" lon="11.5548807"><ele>247.66666666666669</ele><time>2026-04-20T13:44:23.343Z</time></trkpt><trkpt lat="43.0835358" lon="11.5551124"><ele>249.33333333333334</ele><time>2026-04-20T13:44:24.343Z</time></trkpt><trkpt lat="43.0834988" lon="11.5553426"><ele>251.0</ele><time>2026-04-20T13:44:25.343Z</time></trkpt><trkpt lat="43.0834711" lon="11.5555662"><ele>252.0</ele><time>2026-04-20T13:44:26.343Z</time></trkpt><trkpt lat="43.0834623" lon="11.5557626"><ele>253.0</ele><time>2026-04-20T13:44:27.343Z</time></trkpt><trkpt lat="43.0834724" lon="11.55593"><ele>254.0</ele><time>2026-04-20T13:44:28.343Z</time></trkpt><trkpt lat="43.0835119" lon="11.556076"><ele>255.0</ele><time>2026-04-20T13:44:29.343Z</time></trkpt><trkpt lat="43.0835812" lon="11.5561895"><ele>255.0</ele><time>2026-04-20T13:44:30.343Z</time></trkpt><trkpt lat="43.0836838" lon="11.5562618"><ele>255.0</ele><time>2026-04-20T13:44:31.344Z</time></trkpt><trkpt lat="43.0838044" lon="11.5563194"><ele>255.0</ele><time>2026-04-20T13:44:32.343Z</time></trkpt><trkpt lat="43.0839396" lon="11.5563639"><ele>255.0</ele><time>2026-04-20T13:44:33.343Z</time></trkpt><trkpt lat="43.08407" lon="11.5564181"><ele>257.5</ele><time>2026-04-20T13:44:34.343Z</time></trkpt><trkpt lat="43.0842012" lon="11.556513"><ele>260.0</ele><time>2026-04-20T13:44:35.343Z</time></trkpt><trkpt lat="43.0843185" lon="11.5566413"><ele>262.5</ele><time>2026-04-20T13:44:36.343Z</time></trkpt><trkpt lat="43.0844262" lon="11.556785"><ele>265.0</ele><time>2026-04-20T13:44:37.344Z</time></trkpt><trkpt lat="43.0845114" lon="11.5569342"><ele>267.0</ele><time>2026-04-20T13:44:38.343Z</time></trkpt><trkpt lat="43.0845546" lon="11.5570846"><ele>269.0</ele><time>2026-04-20T13:44:39.343Z</time></trkpt><trkpt lat="43.0845752" lon="11.5572545"><ele>271.0</ele><time>2026-04-20T13:44:40.343Z</time></trkpt><trkpt lat="43.0845822" lon="11.5574328"><ele>273.0</ele><time>2026-04-20T13:44:41.343Z</time></trkpt><trkpt lat="43.0845679" lon="11.5578128"><ele>274.25</ele><time>2026-04-20T13:44:43.344Z</time></trkpt><trkpt lat="43.0845238" lon="11.5579986"><ele>275.5</ele><time>2026-04-20T13:44:44.344Z</time></trkpt><trkpt lat="43.0844716" lon="11.5581892"><ele>276.75</ele><time>2026-04-20T13:44:45.344Z</time></trkpt><trkpt lat="43.0844156" lon="11.5583775"><ele>278.0</ele><time>2026-04-20T13:44:46.343Z</time></trkpt><trkpt lat="43.0843716" lon="11.5585428"><ele>278.75</ele><time>2026-04-20T13:44:47.343Z</time></trkpt><trkpt lat="43.0843498" lon="11.5587159"><ele>279.5</ele><time>2026-04-20T13:44:48.344Z</time></trkpt><trkpt lat="43.0843504" lon="11.5588849"><ele>280.25</ele><time>2026-04-20T13:44:49.343Z</time></trkpt><trkpt lat="43.084384" lon="11.5590344"><ele>281.0</ele><time>2026-04-20T13:44:50.343Z</time></trkpt><trkpt lat="43.0844461" lon="11.5591521"><ele>281.0</ele><time>2026-04-20T13:44:51.343Z</time></trkpt><trkpt lat="43.0845335" lon="11.5592342"><ele>281.0</ele><time>2026-04-20T13:44:52.343Z</time></trkpt><trkpt lat="43.0846284" lon="11.5592764"><ele>281.0</ele><time>2026-04-20T13:44:53.343Z</time></trkpt><trkpt lat="43.0847241" lon="11.5593157"><ele>281.0</ele><time>2026-04-20T13:44:54.343Z</time></trkpt><trkpt lat="43.0847968" lon="11.5593925"><ele>281.0</ele><time>2026-04-20T13:44:55.343Z</time></trkpt><trkpt lat="43.0848293" lon="11.559513"><ele>282.40000000000003</ele><time>2026-04-20T13:44:56.343Z</time></trkpt><trkpt lat="43.0848285" lon="11.5596454"><ele>283.8</ele><time>2026-04-20T13:44:57.344Z</time></trkpt><trkpt lat="43.0848042" lon="11.5597851"><ele>285.20000000000005</ele><time>2026-04-20T13:44:58.343Z</time></trkpt><trkpt lat="43.0847749" lon="11.5599279"><ele>286.6</ele><time>2026-04-20T13:44:59.343Z</time></trkpt><trkpt lat="43.0847724" lon="11.5600654"><ele>288.0</ele><time>2026-04-20T13:45:00.343Z</time></trkpt><trkpt lat="43.0848138" lon="11.560183"><ele>288.0</ele><time>2026-04-20T13:45:01.343Z</time></trkpt><trkpt lat="43.0848709" lon="11.5602863"><ele>288.0</ele><time>2026-04-20T13:45:02.343Z</time></trkpt><trkpt lat="43.084956" lon="11.5603686"><ele>288.0</ele><time>2026-04-20T13:45:03.344Z</time></trkpt><trkpt lat="43.0850403" lon="11.5604498"><ele>288.0</ele><time>2026-04-20T13:45:04.344Z</time></trkpt><trkpt lat="43.0851083" lon="11.5605462"><ele>288.0</ele><time>2026-04-20T13:45:05.343Z</time></trkpt><trkpt lat="43.0851219" lon="11.5606742"><ele>288.6</ele><time>2026-04-20T13:45:06.343Z</time></trkpt><trkpt lat="43.0850846" lon="11.5608224"><ele>289.20000000000005</ele><time>2026-04-20T13:45:07.343Z</time></trkpt><trkpt lat="43.0850153" lon="11.5609503"><ele>289.8</ele><time>2026-04-20T13:45:08.343Z</time></trkpt><trkpt lat="43.0849314" lon="11.5610373"><ele>290.40000000000003</ele><time>2026-04-20T13:45:09.343Z</time></trkpt><trkpt lat="43.0848314" lon="11.5611071"><ele>291.0</ele><time>2026-04-20T13:45:10.343Z</time></trkpt><trkpt lat="43.0847709" lon="11.5612016"><ele>292.75</ele><time>2026-04-20T13:45:11.344Z</time></trkpt><trkpt lat="43.084765" lon="11.5613217"><ele>294.5</ele><time>2026-04-20T13:45:12.345Z</time></trkpt><trkpt lat="43.0848686" lon="11.5615934"><ele>296.25</ele><time>2026-04-20T13:45:14.344Z</time></trkpt><trkpt lat="43.0849305" lon="11.5617394"><ele>298.0</ele><time>2026-04-20T13:45:15.344Z</time></trkpt><trkpt lat="43.0849913" lon="11.5618977"><ele>298.75</ele><time>2026-04-20T13:45:16.344Z</time></trkpt><trkpt lat="43.0850457" lon="11.5620577"><ele>299.5</ele><time>2026-04-20T13:45:17.345Z</time></trkpt><trkpt lat="43.0850776" lon="11.5622204"><ele>300.25</ele><time>2026-04-20T13:45:18.344Z</time></trkpt><trkpt lat="43.0850811" lon="11.5623806"><ele>301.0</ele><time>2026-04-20T13:45:19.344Z</time></trkpt><trkpt lat="43.0850761" lon="11.5625302"><ele>301.0</ele><time>2026-04-20T13:45:20.344Z</time></trkpt><trkpt lat="43.0850389" lon="11.5626603"><ele>301.0</ele><time>2026-04-20T13:45:21.344Z</time></trkpt><trkpt lat="43.0849677" lon="11.562765"><ele>301.0</ele><time>2026-04-20T13:45:22.344Z</time></trkpt><trkpt lat="43.0848691" lon="11.5628592"><ele>301.0</ele><time>2026-04-20T13:45:23.345Z</time></trkpt><trkpt lat="43.084745" lon="11.5629203"><ele>300.66666666666663</ele><time>2026-04-20T13:45:24.344Z</time></trkpt><trkpt lat="43.0845947" lon="11.562941"><ele>300.3333333333333</ele><time>2026-04-20T13:45:25.344Z</time></trkpt><trkpt lat="43.0844283" lon="11.5629303"><ele>300.0</ele><time>2026-04-20T13:45:26.344Z</time></trkpt><trkpt lat="43.0842589" lon="11.5629197"><ele>300.0</ele><time>2026-04-20T13:45:27.344Z</time></trkpt><trkpt lat="43.084097" lon="11.562926"><ele>300.0</ele><time>2026-04-20T13:45:28.344Z</time></trkpt><trkpt lat="43.0839403" lon="11.5629589"><ele>300.0</ele><time>2026-04-20T13:45:29.344Z</time></trkpt><trkpt lat="43.0837952" lon="11.5630233"><ele>300.3333333333333</ele><time>2026-04-20T13:45:30.345Z</time></trkpt><trkpt lat="43.0836621" lon="11.5631218"><ele>300.66666666666663</ele><time>2026-04-20T13:45:31.344Z</time></trkpt><trkpt lat="43.0835448" lon="11.5632613"><ele>301.0</ele><time>2026-04-20T13:45:32.345Z</time></trkpt><trkpt lat="43.0834419" lon="11.5634356"><ele>301.0</ele><time>2026-04-20T13:45:33.345Z</time></trkpt><trkpt lat="43.0833496" lon="11.5636214"><ele>301.0</ele><time>2026-04-20T13:45:34.344Z</time></trkpt><trkpt lat="43.0832584" lon="11.5638067"><ele>301.0</ele><time>2026-04-20T13:45:35.345Z</time></trkpt><trkpt lat="43.0831727" lon="11.5639948"><ele>301.0</ele><time>2026-04-20T13:45:36.344Z</time></trkpt><trkpt lat="43.0830941" lon="11.5641845"><ele>301.0</ele><time>2026-04-20T13:45:37.344Z</time></trkpt><trkpt lat="43.0830268" lon="11.5643741"><ele>301.0</ele><time>2026-04-20T13:45:38.344Z</time></trkpt><trkpt lat="43.0829674" lon="11.5645586"><ele>302.5</ele><time>2026-04-20T13:45:39.344Z</time></trkpt><trkpt lat="43.0829089" lon="11.5647423"><ele>304.0</ele><time>2026-04-20T13:45:40.344Z</time></trkpt><trkpt lat="43.0828459" lon="11.5649279"><ele>305.5</ele><time>2026-04-20T13:45:41.344Z</time></trkpt><trkpt lat="43.0827766" lon="11.5651057"><ele>307.0</ele><time>2026-04-20T13:45:42.344Z</time></trkpt><trkpt lat="43.0827015" lon="11.5652748"><ele>307.25</ele><time>2026-04-20T13:45:43.344Z</time></trkpt><trkpt lat="43.0826213" lon="11.5654305"><ele>307.5</ele><time>2026-04-20T13:45:44.344Z</time></trkpt><trkpt lat="43.0825302" lon="11.5655736"><ele>307.75</ele><time>2026-04-20T13:45:45.344Z</time></trkpt><trkpt lat="43.0824304" lon="11.5657157"><ele>308.0</ele><time>2026-04-20T13:45:46.344Z</time></trkpt><trkpt lat="43.0823287" lon="11.5658626"><ele>308.0</ele><time>2026-04-20T13:45:47.344Z</time></trkpt><trkpt lat="43.0822262" lon="11.5660135"><ele>308.0</ele><time>2026-04-20T13:45:48.344Z</time></trkpt><trkpt lat="43.0821256" lon="11.566164"><ele>308.0</ele><time>2026-04-20T13:45:49.344Z</time></trkpt><trkpt lat="43.0820224" lon="11.5663181"><ele>311.6666666666667</ele><time>2026-04-20T13:45:50.345Z</time></trkpt><trkpt lat="43.0819215" lon="11.5664805"><ele>315.3333333333333</ele><time>2026-04-20T13:45:51.344Z</time></trkpt><trkpt lat="43.0818223" lon="11.5666473"><ele>319.0</ele><time>2026-04-20T13:45:52.344Z</time></trkpt><trkpt lat="43.0817301" lon="11.5668217"><ele>319.0</ele><time>2026-04-20T13:45:53.344Z</time></trkpt><trkpt lat="43.0816547" lon="11.5670128"><ele>319.0</ele><time>2026-04-20T13:45:54.345Z</time></trkpt><trkpt lat="43.0815961" lon="11.5672179"><ele>319.0</ele><time>2026-04-20T13:45:55.344Z</time></trkpt><trkpt lat="43.0815572" lon="11.5674337"><ele>316.0</ele><time>2026-04-20T13:45:56.344Z</time></trkpt><trkpt lat="43.0815311" lon="11.5676484"><ele>313.0</ele><time>2026-04-20T13:45:57.344Z</time></trkpt><trkpt lat="43.0815136" lon="11.5678622"><ele>310.0</ele><time>2026-04-20T13:45:58.344Z</time></trkpt><trkpt lat="43.0815037" lon="11.5680739"><ele>310.0</ele><time>2026-04-20T13:45:59.345Z</time></trkpt><trkpt lat="43.0814952" lon="11.5682809"><ele>310.0</ele><time>2026-04-20T13:46:00.344Z</time></trkpt><trkpt lat="43.0814799" lon="11.5684888"><ele>310.0</ele><time>2026-04-20T13:46:01.344Z</time></trkpt><trkpt lat="43.0814539" lon="11.5686959"><ele>313.66666666666663</ele><time>2026-04-20T13:46:02.345Z</time></trkpt><trkpt lat="43.0814162" lon="11.5688991"><ele>317.3333333333333</ele><time>2026-04-20T13:46:03.345Z</time></trkpt><trkpt lat="43.0813559" lon="11.5691005"><ele>321.0</ele><time>2026-04-20T13:46:04.345Z</time></trkpt><trkpt lat="43.0812841" lon="11.5692975"><ele>321.0</ele><time>2026-04-20T13:46:05.345Z</time></trkpt><trkpt lat="43.0812092" lon="11.569492"><ele>321.0</ele><time>2026-04-20T13:46:06.346Z</time></trkpt><trkpt lat="43.0811333" lon="11.5696819"><ele>321.0</ele><time>2026-04-20T13:46:07.345Z</time></trkpt><trkpt lat="43.0810554" lon="11.5698693"><ele>323.75</ele><time>2026-04-20T13:46:08.345Z</time></trkpt><trkpt lat="43.080972" lon="11.5700373"><ele>326.5</ele><time>2026-04-20T13:46:09.345Z</time></trkpt><trkpt lat="43.0808821" lon="11.570176"><ele>329.25</ele><time>2026-04-20T13:46:10.345Z</time></trkpt><trkpt lat="43.0807863" lon="11.5702909"><ele>332.0</ele><time>2026-04-20T13:46:11.345Z</time></trkpt><trkpt lat="43.0806836" lon="11.570369"><ele>334.0</ele><time>2026-04-20T13:46:12.345Z</time></trkpt><trkpt lat="43.0805742" lon="11.5704033"><ele>336.0</ele><time>2026-04-20T13:46:13.345Z</time></trkpt><trkpt lat="43.0804673" lon="11.5704238"><ele>338.0</ele><time>2026-04-20T13:46:14.345Z</time></trkpt><trkpt lat="43.0803624" lon="11.5704583"><ele>340.0</ele><time>2026-04-20T13:46:15.345Z</time></trkpt><trkpt lat="43.0802619" lon="11.5704913"><ele>342.0</ele><time>2026-04-20T13:46:16.345Z</time></trkpt><trkpt lat="43.0801593" lon="11.5705166"><ele>342.0</ele><time>2026-04-20T13:46:17.345Z</time></trkpt><trkpt lat="43.0800504" lon="11.5705335"><ele>342.0</ele><time>2026-04-20T13:46:18.345Z</time></trkpt><trkpt lat="43.0799526" lon="11.5705512"><ele>342.0</ele><time>2026-04-20T13:46:19.345Z</time></trkpt><trkpt lat="43.0798727" lon="11.5705677"><ele>342.0</ele><time>2026-04-20T13:46:20.345Z</time></trkpt><trkpt lat="43.0798047" lon="11.5705885"><ele>342.0</ele><time>2026-04-20T13:46:21.345Z</time></trkpt><trkpt lat="43.0796995" lon="11.5706318"><ele>342.0</ele><time>2026-04-20T13:46:23.345Z</time></trkpt><trkpt lat="43.0796511" lon="11.570726"><ele>342.0</ele><time>2026-04-20T13:46:25.345Z</time></trkpt><trkpt lat="43.0797147" lon="11.5708524"><ele>342.0</ele><time>2026-04-20T13:46:27.346Z</time></trkpt><trkpt lat="43.0797745" lon="11.5708886"><ele>342.0</ele><time>2026-04-20T13:46:28.346Z</time></trkpt><trkpt lat="43.079846" lon="11.5708907"><ele>342.0</ele><time>2026-04-20T13:46:29.345Z</time></trkpt><trkpt lat="43.0799305" lon="11.5708775"><ele>342.0</ele><time>2026-04-20T13:46:30.345Z</time></trkpt><trkpt lat="43.080014" lon="11.5708898"><ele>342.0</ele><time>2026-04-20T13:46:31.345Z</time></trkpt><trkpt lat="43.0800915" lon="11.5709174"><ele>342.0</ele><time>2026-04-20T13:46:32.345Z</time></trkpt><trkpt lat="43.080168" lon="11.5709556"><ele>342.0</ele><time>2026-04-20T13:46:33.345Z</time></trkpt><trkpt lat="43.0802451" lon="11.5710012"><ele>342.0</ele><time>2026-04-20T13:46:34.345Z</time></trkpt><trkpt lat="43.0803215" lon="11.571049"><ele>342.0</ele><time>2026-04-20T13:46:35.345Z</time></trkpt><trkpt lat="43.0804006" lon="11.5711024"><ele>342.0</ele><time>2026-04-20T13:46:36.345Z</time></trkpt><trkpt lat="43.0804812" lon="11.5711585"><ele>342.6</ele><time>2026-04-20T13:46:37.346Z</time></trkpt><trkpt lat="43.0805646" lon="11.571216"><ele>343.20000000000005</ele><time>2026-04-20T13:46:38.345Z</time></trkpt><trkpt lat="43.0806483" lon="11.5712697"><ele>343.8</ele><time>2026-04-20T13:46:39.345Z</time></trkpt><trkpt lat="43.0807304" lon="11.5713258"><ele>344.4</ele><time>2026-04-20T13:46:40.345Z</time></trkpt><trkpt lat="43.0808122" lon="11.5713817"><ele>345.0</ele><time>2026-04-20T13:46:41.345Z</time></trkpt><trkpt lat="43.0808925" lon="11.5714406"><ele>345.0</ele><time>2026-04-20T13:46:42.345Z</time></trkpt><trkpt lat="43.08097" lon="11.5715018"><ele>345.0</ele><time>2026-04-20T13:46:43.345Z</time></trkpt><trkpt lat="43.0810474" lon="11.5715648"><ele>345.0</ele><time>2026-04-20T13:46:44.345Z</time></trkpt><trkpt lat="43.0811215" lon="11.5716294"><ele>345.0</ele><time>2026-04-20T13:46:45.345Z</time></trkpt><trkpt lat="43.0811941" lon="11.5716951"><ele>345.0</ele><time>2026-04-20T13:46:46.346Z</time></trkpt><trkpt lat="43.0812649" lon="11.5717574"><ele>345.0</ele><time>2026-04-20T13:46:47.346Z</time></trkpt><trkpt lat="43.0813305" lon="11.5718142"><ele>345.0</ele><time>2026-04-20T13:46:48.345Z</time></trkpt><trkpt lat="43.0813957" lon="11.5718656"><ele>345.0</ele><time>2026-04-20T13:46:49.345Z</time></trkpt><trkpt lat="43.0814695" lon="11.5719171"><ele>345.0</ele><time>2026-04-20T13:46:50.346Z</time></trkpt><trkpt lat="43.0815512" lon="11.5719703"><ele>345.0</ele><time>2026-04-20T13:46:51.346Z</time></trkpt><trkpt lat="43.0816313" lon="11.572029"><ele>345.0</ele><time>2026-04-20T13:46:52.346Z</time></trkpt><trkpt lat="43.0817019" lon="11.5720969"><ele>345.0</ele><time>2026-04-20T13:46:53.346Z</time></trkpt><trkpt lat="43.0817643" lon="11.5721822"><ele>345.8</ele><time>2026-04-20T13:46:54.346Z</time></trkpt><trkpt lat="43.0818238" lon="11.572284"><ele>346.6</ele><time>2026-04-20T13:46:55.346Z</time></trkpt><trkpt lat="43.0818773" lon="11.5723943"><ele>347.4</ele><time>2026-04-20T13:46:56.346Z</time></trkpt><trkpt lat="43.081926" lon="11.5725113"><ele>348.2</ele><time>2026-04-20T13:46:57.346Z</time></trkpt><trkpt lat="43.0819735" lon="11.572633"><ele>349.0</ele><time>2026-04-20T13:46:58.346Z</time></trkpt><trkpt lat="43.082021" lon="11.5727523"><ele>346.79999999999995</ele><time>2026-04-20T13:46:59.346Z</time></trkpt><trkpt lat="43.0820708" lon="11.5728686"><ele>344.59999999999997</ele><time>2026-04-20T13:47:00.346Z</time></trkpt><trkpt lat="43.0821217" lon="11.5729832"><ele>342.4</ele><time>2026-04-20T13:47:01.346Z</time></trkpt><trkpt lat="43.0821754" lon="11.5731007"><ele>340.2</ele><time>2026-04-20T13:47:02.347Z</time></trkpt><trkpt lat="43.0822283" lon="11.5732253"><ele>338.0</ele><time>2026-04-20T13:47:03.346Z</time></trkpt><trkpt lat="43.0822801" lon="11.5733538"><ele>338.0</ele><time>2026-04-20T13:47:04.346Z</time></trkpt><trkpt lat="43.0823328" lon="11.5734847"><ele>338.0</ele><time>2026-04-20T13:47:05.346Z</time></trkpt><trkpt lat="43.082388" lon="11.5736169"><ele>338.0</ele><time>2026-04-20T13:47:06.346Z</time></trkpt><trkpt lat="43.0824454" lon="11.5737515"><ele>338.0</ele><time>2026-04-20T13:47:07.347Z</time></trkpt><trkpt lat="43.0825058" lon="11.5738869"><ele>341.5</ele><time>2026-04-20T13:47:08.346Z</time></trkpt><trkpt lat="43.0825681" lon="11.5740232"><ele>345.0</ele><time>2026-04-20T13:47:09.346Z</time></trkpt><trkpt lat="43.0826273" lon="11.5741593"><ele>348.5</ele><time>2026-04-20T13:47:10.346Z</time></trkpt><trkpt lat="43.0826833" lon="11.5742981"><ele>352.0</ele><time>2026-04-20T13:47:11.347Z</time></trkpt><trkpt lat="43.0827385" lon="11.5744376"><ele>350.75</ele><time>2026-04-20T13:47:12.346Z</time></trkpt><trkpt lat="43.0827959" lon="11.5745789"><ele>349.5</ele><time>2026-04-20T13:47:13.346Z</time></trkpt><trkpt lat="43.0828532" lon="11.5747213"><ele>348.25</ele><time>2026-04-20T13:47:14.346Z</time></trkpt><trkpt lat="43.0829086" lon="11.5748625"><ele>347.0</ele><time>2026-04-20T13:47:15.346Z</time></trkpt><trkpt lat="43.0829618" lon="11.5749994"><ele>347.0</ele><time>2026-04-20T13:47:16.346Z</time></trkpt><trkpt lat="43.0830176" lon="11.5751383"><ele>347.0</ele><time>2026-04-20T13:47:17.346Z</time></trkpt><trkpt lat="43.0830726" lon="11.5752725"><ele>347.0</ele><time>2026-04-20T13:47:18.346Z</time></trkpt><trkpt lat="43.0831269" lon="11.5754019"><ele>347.0</ele><time>2026-04-20T13:47:19.346Z</time></trkpt><trkpt lat="43.0831829" lon="11.575528"><ele>347.0</ele><time>2026-04-20T13:47:20.346Z</time></trkpt><trkpt lat="43.0832426" lon="11.5756573"><ele>347.6</ele><time>2026-04-20T13:47:21.346Z</time></trkpt><trkpt lat="43.0833043" lon="11.5757884"><ele>348.20000000000005</ele><time>2026-04-20T13:47:22.346Z</time></trkpt><trkpt lat="43.0833651" lon="11.5759212"><ele>348.8</ele><time>2026-04-20T13:47:23.346Z</time></trkpt><trkpt lat="43.0834229" lon="11.5760505"><ele>349.4</ele><time>2026-04-20T13:47:24.346Z</time></trkpt><trkpt lat="43.083477" lon="11.5761741"><ele>350.0</ele><time>2026-04-20T13:47:25.346Z</time></trkpt><trkpt lat="43.0835301" lon="11.576296"><ele>350.0</ele><time>2026-04-20T13:47:26.346Z</time></trkpt><trkpt lat="43.0835789" lon="11.5764198"><ele>350.0</ele><time>2026-04-20T13:47:27.346Z</time></trkpt><trkpt lat="43.0836263" lon="11.5765521"><ele>350.0</ele><time>2026-04-20T13:47:28.346Z</time></trkpt><trkpt lat="43.0836729" lon="11.57669"><ele>350.0</ele><time>2026-04-20T13:47:29.346Z</time></trkpt><trkpt lat="43.0837113" lon="11.5768264"><ele>350.0</ele><time>2026-04-20T13:47:30.346Z</time></trkpt><trkpt lat="43.0837439" lon="11.5769621"><ele>350.0</ele><time>2026-04-20T13:47:31.346Z</time></trkpt><trkpt lat="43.0837711" lon="11.5770869"><ele>350.0</ele><time>2026-04-20T13:47:32.346Z</time></trkpt><trkpt lat="43.0837965" lon="11.5771996"><ele>350.0</ele><time>2026-04-20T13:47:33.346Z</time></trkpt><trkpt lat="43.0838201" lon="11.5773018"><ele>350.0</ele><time>2026-04-20T13:47:34.347Z</time></trkpt><trkpt lat="43.0838442" lon="11.5773989"><ele>350.0</ele><time>2026-04-20T13:47:35.346Z</time></trkpt><trkpt lat="43.0838689" lon="11.5774932"><ele>350.0</ele><time>2026-04-20T13:47:36.346Z</time></trkpt><trkpt lat="43.0838916" lon="11.5775835"><ele>350.0</ele><time>2026-04-20T13:47:37.346Z</time></trkpt><trkpt lat="43.083912" lon="11.577673"><ele>350.0</ele><time>2026-04-20T13:47:38.346Z</time></trkpt><trkpt lat="43.0839292" lon="11.5777694"><ele>350.0</ele><time>2026-04-20T13:47:39.346Z</time></trkpt><trkpt lat="43.083943" lon="11.5778726"><ele>350.0</ele><time>2026-04-20T13:47:40.346Z</time></trkpt><trkpt lat="43.0839604" lon="11.577981"><ele>350.0</ele><time>2026-04-20T13:47:41.348Z</time></trkpt><trkpt lat="43.0839835" lon="11.5780916"><ele>350.0</ele><time>2026-04-20T13:47:42.347Z</time></trkpt><trkpt lat="43.0840131" lon="11.5782083"><ele>350.0</ele><time>2026-04-20T13:47:43.348Z</time></trkpt><trkpt lat="43.0840446" lon="11.5783314"><ele>350.0</ele><time>2026-04-20T13:47:44.347Z</time></trkpt><trkpt lat="43.0840742" lon="11.5784593"><ele>350.0</ele><time>2026-04-20T13:47:45.347Z</time></trkpt><trkpt lat="43.0841015" lon="11.5785901"><ele>350.0</ele><time>2026-04-20T13:47:46.347Z</time></trkpt><trkpt lat="43.0841296" lon="11.5787228"><ele>350.0</ele><time>2026-04-20T13:47:47.348Z</time></trkpt><trkpt lat="43.0841577" lon="11.5788505"><ele>352.0</ele><time>2026-04-20T13:47:48.347Z</time></trkpt><trkpt lat="43.0841862" lon="11.5789682"><ele>354.0</ele><time>2026-04-20T13:47:49.347Z</time></trkpt><trkpt lat="43.0842171" lon="11.5790768"><ele>356.0</ele><time>2026-04-20T13:47:50.347Z</time></trkpt><trkpt lat="43.0842531" lon="11.5791791"><ele>358.0</ele><time>2026-04-20T13:47:51.347Z</time></trkpt><trkpt lat="43.0843029" lon="11.5792784"><ele>360.0</ele><time>2026-04-20T13:47:52.347Z</time></trkpt><trkpt lat="43.084368" lon="11.5793789"><ele>362.0</ele><time>2026-04-20T13:47:53.347Z</time></trkpt><trkpt lat="43.0844357" lon="11.5794743"><ele>363.33333333333337</ele><time>2026-04-20T13:47:54.347Z</time></trkpt><trkpt lat="43.084496" lon="11.579571"><ele>364.6666666666667</ele><time>2026-04-20T13:47:55.348Z</time></trkpt><trkpt lat="43.0845493" lon="11.5796684"><ele>366.0</ele><time>2026-04-20T13:47:56.347Z</time></trkpt><trkpt lat="43.0845993" lon="11.5797651"><ele>367.3333333333333</ele><time>2026-04-20T13:47:57.347Z</time></trkpt><trkpt lat="43.0846498" lon="11.5798624"><ele>368.66666666666663</ele><time>2026-04-20T13:47:58.347Z</time></trkpt><trkpt lat="43.0847019" lon="11.5799639"><ele>370.0</ele><time>2026-04-20T13:47:59.347Z</time></trkpt><trkpt lat="43.0847556" lon="11.5800655"><ele>370.0</ele><time>2026-04-20T13:48:00.347Z</time></trkpt><trkpt lat="43.0848067" lon="11.5801534"><ele>370.0</ele><time>2026-04-20T13:48:01.347Z</time></trkpt><trkpt lat="43.0848517" lon="11.5802281"><ele>370.0</ele><time>2026-04-20T13:48:02.348Z</time></trkpt><trkpt lat="43.0848879" lon="11.580306"><ele>370.0</ele><time>2026-04-20T13:48:03.347Z</time></trkpt><trkpt lat="43.0849185" lon="11.5803956"><ele>370.0</ele><time>2026-04-20T13:48:04.347Z</time></trkpt><trkpt lat="43.0849485" lon="11.5804916"><ele>370.0</ele><time>2026-04-20T13:48:05.347Z</time></trkpt><trkpt lat="43.0849795" lon="11.5806019"><ele>371.0</ele><time>2026-04-20T13:48:06.347Z</time></trkpt><trkpt lat="43.0850115" lon="11.5807172"><ele>372.0</ele><time>2026-04-20T13:48:07.348Z</time></trkpt><trkpt lat="43.0850429" lon="11.5808346"><ele>373.0</ele><time>2026-04-20T13:48:08.347Z</time></trkpt><trkpt lat="43.085078" lon="11.5809546"><ele>374.0</ele><time>2026-04-20T13:48:09.348Z</time></trkpt><trkpt lat="43.0851133" lon="11.5810708"><ele>375.0</ele><time>2026-04-20T13:48:10.347Z</time></trkpt><trkpt lat="43.0851436" lon="11.5811806"><ele>374.3333333333333</ele><time>2026-04-20T13:48:11.347Z</time></trkpt><trkpt lat="43.0851721" lon="11.5812939"><ele>373.6666666666667</ele><time>2026-04-20T13:48:12.348Z</time></trkpt><trkpt lat="43.0852059" lon="11.5814111"><ele>373.0</ele><time>2026-04-20T13:48:13.348Z</time></trkpt><trkpt lat="43.0852438" lon="11.5815253"><ele>372.33333333333337</ele><time>2026-04-20T13:48:14.347Z</time></trkpt><trkpt lat="43.0852838" lon="11.581635"><ele>371.6666666666667</ele><time>2026-04-20T13:48:15.347Z</time></trkpt><trkpt lat="43.0853264" lon="11.5817396"><ele>371.0</ele><time>2026-04-20T13:48:16.347Z</time></trkpt><trkpt lat="43.085379" lon="11.5818384"><ele>371.0</ele><time>2026-04-20T13:48:17.347Z</time></trkpt><trkpt lat="43.0854385" lon="11.5819311"><ele>371.0</ele><time>2026-04-20T13:48:18.347Z</time></trkpt><trkpt lat="43.0855068" lon="11.5820222"><ele>371.0</ele><time>2026-04-20T13:48:19.347Z</time></trkpt><trkpt lat="43.0855761" lon="11.5821151"><ele>371.0</ele><time>2026-04-20T13:48:20.347Z</time></trkpt><trkpt lat="43.0856406" lon="11.5822042"><ele>371.0</ele><time>2026-04-20T13:48:21.348Z</time></trkpt><trkpt lat="43.0856984" lon="11.5822923"><ele>371.6666666666667</ele><time>2026-04-20T13:48:22.347Z</time></trkpt><trkpt lat="43.0857463" lon="11.582372"><ele>372.33333333333337</ele><time>2026-04-20T13:48:23.348Z</time></trkpt><trkpt lat="43.0858062" lon="11.5825036"><ele>373.0</ele><time>2026-04-20T13:48:25.348Z</time></trkpt><trkpt lat="43.0858764" lon="11.5826339"><ele>373.6666666666667</ele><time>2026-04-20T13:48:27.347Z</time></trkpt><trkpt lat="43.0859311" lon="11.5826824"><ele>374.3333333333333</ele><time>2026-04-20T13:48:28.347Z</time></trkpt><trkpt lat="43.0859966" lon="11.5827299"><ele>375.0</ele><time>2026-04-20T13:48:29.347Z</time></trkpt><trkpt lat="43.0860598" lon="11.5827866"><ele>375.0</ele><time>2026-04-20T13:48:30.347Z</time></trkpt><trkpt lat="43.0861189" lon="11.5828461"><ele>375.0</ele><time>2026-04-20T13:48:31.349Z</time></trkpt><trkpt lat="43.0861743" lon="11.582905"><ele>375.0</ele><time>2026-04-20T13:48:32.348Z</time></trkpt><trkpt lat="43.0862291" lon="11.5829658"><ele>375.0</ele><time>2026-04-20T13:48:33.348Z</time></trkpt><trkpt lat="43.0863321" lon="11.5830566"><ele>375.0</ele><time>2026-04-20T13:48:35.348Z</time></trkpt><trkpt lat="43.0863824" lon="11.5831114"><ele>375.0</ele><time>2026-04-20T13:48:36.348Z</time></trkpt><trkpt lat="43.0864332" lon="11.5831641"><ele>374.14285714285717</ele><time>2026-04-20T13:48:37.348Z</time></trkpt><trkpt lat="43.0864851" lon="11.5832136"><ele>373.2857142857143</ele><time>2026-04-20T13:48:38.348Z</time></trkpt><trkpt lat="43.0865392" lon="11.5832676"><ele>372.42857142857144</ele><time>2026-04-20T13:48:39.348Z</time></trkpt><trkpt lat="43.0865928" lon="11.5833178"><ele>371.57142857142856</ele><time>2026-04-20T13:48:40.349Z</time></trkpt><trkpt lat="43.0866463" lon="11.5833662"><ele>370.71428571428567</ele><time>2026-04-20T13:48:41.348Z</time></trkpt><trkpt lat="43.0867047" lon="11.5834156"><ele>369.85714285714283</ele><time>2026-04-20T13:48:42.348Z</time></trkpt><trkpt lat="43.0867682" lon="11.5834648"><ele>369.0</ele><time>2026-04-20T13:48:43.348Z</time></trkpt><trkpt lat="43.0868313" lon="11.5835143"><ele>369.0</ele><time>2026-04-20T13:48:44.348Z</time></trkpt><trkpt lat="43.0868996" lon="11.5835632"><ele>369.0</ele><time>2026-04-20T13:48:45.348Z</time></trkpt><trkpt lat="43.0869701" lon="11.5836125"><ele>369.0</ele><time>2026-04-20T13:48:46.348Z</time></trkpt><trkpt lat="43.0870391" lon="11.5836682"><ele>369.0</ele><time>2026-04-20T13:48:47.348Z</time></trkpt><trkpt lat="43.0871072" lon="11.583723"><ele>369.0</ele><time>2026-04-20T13:48:48.349Z</time></trkpt><trkpt lat="43.0871774" lon="11.5837783"><ele>369.0</ele><time>2026-04-20T13:48:49.348Z</time></trkpt><trkpt lat="43.0872479" lon="11.5838346"><ele>366.6666666666667</ele><time>2026-04-20T13:48:50.348Z</time></trkpt><trkpt lat="43.0873186" lon="11.5838961"><ele>364.3333333333333</ele><time>2026-04-20T13:48:51.348Z</time></trkpt><trkpt lat="43.0873916" lon="11.5839557"><ele>362.0</ele><time>2026-04-20T13:48:52.348Z</time></trkpt><trkpt lat="43.0874658" lon="11.584015"><ele>359.66666666666663</ele><time>2026-04-20T13:48:53.348Z</time></trkpt><trkpt lat="43.0875387" lon="11.5840739"><ele>357.3333333333333</ele><time>2026-04-20T13:48:54.348Z</time></trkpt><trkpt lat="43.0876084" lon="11.5841308"><ele>355.0</ele><time>2026-04-20T13:48:55.348Z</time></trkpt><trkpt lat="43.0876787" lon="11.5841875"><ele>355.0</ele><time>2026-04-20T13:48:56.348Z</time></trkpt><trkpt lat="43.0877532" lon="11.5842459"><ele>355.0</ele><time>2026-04-20T13:48:57.349Z</time></trkpt><trkpt lat="43.0878253" lon="11.5843028"><ele>355.0</ele><time>2026-04-20T13:48:58.349Z</time></trkpt><trkpt lat="43.087892" lon="11.5843588"><ele>355.0</ele><time>2026-04-20T13:48:59.348Z</time></trkpt><trkpt lat="43.0879618" lon="11.5844206"><ele>355.0</ele><time>2026-04-20T13:49:00.348Z</time></trkpt><trkpt lat="43.0880342" lon="11.5844786"><ele>355.0</ele><time>2026-04-20T13:49:01.348Z</time></trkpt><trkpt lat="43.0881088" lon="11.5845329"><ele>355.8333333333333</ele><time>2026-04-20T13:49:02.349Z</time></trkpt><trkpt lat="43.0881854" lon="11.5845888"><ele>356.66666666666663</ele><time>2026-04-20T13:49:03.348Z</time></trkpt><trkpt lat="43.0882623" lon="11.5846399"><ele>357.5</ele><time>2026-04-20T13:49:04.348Z</time></trkpt><trkpt lat="43.0883422" lon="11.5846891"><ele>358.3333333333333</ele><time>2026-04-20T13:49:05.348Z</time></trkpt><trkpt lat="43.088421" lon="11.5847391"><ele>359.1666666666667</ele><time>2026-04-20T13:49:06.348Z</time></trkpt><trkpt lat="43.0885017" lon="11.5847872"><ele>360.0</ele><time>2026-04-20T13:49:07.348Z</time></trkpt><trkpt lat="43.0885823" lon="11.5848377"><ele>360.0</ele><time>2026-04-20T13:49:08.348Z</time></trkpt><trkpt lat="43.0886594" lon="11.5848951"><ele>360.0</ele><time>2026-04-20T13:49:09.348Z</time></trkpt><trkpt lat="43.088736" lon="11.5849568"><ele>360.0</ele><time>2026-04-20T13:49:10.348Z</time></trkpt><trkpt lat="43.0888128" lon="11.5850219"><ele>360.0</ele><time>2026-04-20T13:49:11.348Z</time></trkpt><trkpt lat="43.0888903" lon="11.5850884"><ele>360.0</ele><time>2026-04-20T13:49:12.348Z</time></trkpt><trkpt lat="43.0889633" lon="11.5851489"><ele>360.0</ele><time>2026-04-20T13:49:13.349Z</time></trkpt><trkpt lat="43.0890375" lon="11.5852114"><ele>360.3333333333333</ele><time>2026-04-20T13:49:14.348Z</time></trkpt><trkpt lat="43.0891111" lon="11.5852742"><ele>360.6666666666667</ele><time>2026-04-20T13:49:15.348Z</time></trkpt><trkpt lat="43.0891836" lon="11.5853375"><ele>361.0</ele><time>2026-04-20T13:49:16.348Z</time></trkpt><trkpt lat="43.0892527" lon="11.5854028"><ele>361.33333333333337</ele><time>2026-04-20T13:49:17.349Z</time></trkpt><trkpt lat="43.0893242" lon="11.5854707"><ele>361.6666666666667</ele><time>2026-04-20T13:49:18.348Z</time></trkpt><trkpt lat="43.0893993" lon="11.5855373"><ele>362.0</ele><time>2026-04-20T13:49:19.348Z</time></trkpt><trkpt lat="43.0894786" lon="11.5856023"><ele>363.33333333333337</ele><time>2026-04-20T13:49:20.348Z</time></trkpt><trkpt lat="43.0895577" lon="11.585667"><ele>364.6666666666667</ele><time>2026-04-20T13:49:21.349Z</time></trkpt><trkpt lat="43.0896287" lon="11.5857242"><ele>366.0</ele><time>2026-04-20T13:49:22.349Z</time></trkpt><trkpt lat="43.0896952" lon="11.5857791"><ele>367.3333333333333</ele><time>2026-04-20T13:49:23.35Z</time></trkpt><trkpt lat="43.0897587" lon="11.5858331"><ele>368.66666666666663</ele><time>2026-04-20T13:49:24.349Z</time></trkpt><trkpt lat="43.0898196" lon="11.5858852"><ele>370.0</ele><time>2026-04-20T13:49:25.349Z</time></trkpt><trkpt lat="43.0899172" lon="11.5859747"><ele>369.0</ele><time>2026-04-20T13:49:27.349Z</time></trkpt><trkpt lat="43.0900199" lon="11.5860703"><ele>368.0</ele><time>2026-04-20T13:49:29.349Z</time></trkpt><trkpt lat="43.0900773" lon="11.5861331"><ele>367.0</ele><time>2026-04-20T13:49:30.349Z</time></trkpt><trkpt lat="43.0901351" lon="11.5862061"><ele>366.0</ele><time>2026-04-20T13:49:31.35Z</time></trkpt><trkpt lat="43.0901917" lon="11.5862903"><ele>365.0</ele><time>2026-04-20T13:49:32.349Z</time></trkpt><trkpt lat="43.0902487" lon="11.5863831"><ele>364.0</ele><time>2026-04-20T13:49:33.349Z</time></trkpt><trkpt lat="43.090303" lon="11.5864841"><ele>366.79999999999995</ele><time>2026-04-20T13:49:34.349Z</time></trkpt><trkpt lat="43.0903535" lon="11.5865909"><ele>369.59999999999997</ele><time>2026-04-20T13:49:35.349Z</time></trkpt><trkpt lat="43.0904017" lon="11.586697"><ele>372.4</ele><time>2026-04-20T13:49:36.35Z</time></trkpt><trkpt lat="43.0904499" lon="11.5868012"><ele>375.2</ele><time>2026-04-20T13:49:37.349Z</time></trkpt><trkpt lat="43.0904994" lon="11.5869004"><ele>378.0</ele><time>2026-04-20T13:49:38.349Z</time></trkpt><trkpt lat="43.0905525" lon="11.5870003"><ele>379.2</ele><time>2026-04-20T13:49:39.349Z</time></trkpt><trkpt lat="43.0906079" lon="11.5870985"><ele>380.4</ele><time>2026-04-20T13:49:40.349Z</time></trkpt><trkpt lat="43.0906601" lon="11.587202"><ele>381.59999999999997</ele><time>2026-04-20T13:49:41.349Z</time></trkpt><trkpt lat="43.0907123" lon="11.5873023"><ele>382.79999999999995</ele><time>2026-04-20T13:49:42.349Z</time></trkpt><trkpt lat="43.0907642" lon="11.5874064"><ele>384.0</ele><time>2026-04-20T13:49:43.349Z</time></trkpt><trkpt lat="43.0908157" lon="11.5875122"><ele>381.6666666666667</ele><time>2026-04-20T13:49:44.349Z</time></trkpt><trkpt lat="43.0908647" lon="11.5876065"><ele>379.3333333333333</ele><time>2026-04-20T13:49:45.349Z</time></trkpt><trkpt lat="43.0909145" lon="11.5876883"><ele>377.0</ele><time>2026-04-20T13:49:46.349Z</time></trkpt><trkpt lat="43.0909726" lon="11.5877558"><ele>374.66666666666663</ele><time>2026-04-20T13:49:47.349Z</time></trkpt><trkpt lat="43.0910411" lon="11.5878107"><ele>372.3333333333333</ele><time>2026-04-20T13:49:48.349Z</time></trkpt><trkpt lat="43.0911218" lon="11.5878607"><ele>370.0</ele><time>2026-04-20T13:49:49.349Z</time></trkpt><trkpt lat="43.0912089" lon="11.5879052"><ele>370.0</ele><time>2026-04-20T13:49:50.349Z</time></trkpt><trkpt lat="43.0913006" lon="11.587954"><ele>370.0</ele><time>2026-04-20T13:49:51.349Z</time></trkpt><trkpt lat="43.0913892" lon="11.5880052"><ele>370.0</ele><time>2026-04-20T13:49:52.349Z</time></trkpt><trkpt lat="43.0914746" lon="11.5880537"><ele>370.0</ele><time>2026-04-20T13:49:53.35Z</time></trkpt><trkpt lat="43.0915547" lon="11.5881014"><ele>370.0</ele><time>2026-04-20T13:49:54.349Z</time></trkpt><trkpt lat="43.0916275" lon="11.5881501"><ele>369.3333333333333</ele><time>2026-04-20T13:49:55.349Z</time></trkpt><trkpt lat="43.0917014" lon="11.5882023"><ele>368.66666666666663</ele><time>2026-04-20T13:49:56.349Z</time></trkpt><trkpt lat="43.0917783" lon="11.5882572"><ele>368.0</ele><time>2026-04-20T13:49:57.349Z</time></trkpt><trkpt lat="43.0918603" lon="11.5883145"><ele>367.3333333333333</ele><time>2026-04-20T13:49:58.349Z</time></trkpt><trkpt lat="43.0919419" lon="11.5883688"><ele>366.6666666666667</ele><time>2026-04-20T13:49:59.35Z</time></trkpt><trkpt lat="43.0920228" lon="11.5884202"><ele>366.0</ele><time>2026-04-20T13:50:00.349Z</time></trkpt><trkpt lat="43.0921023" lon="11.5884688"><ele>366.0</ele><time>2026-04-20T13:50:01.349Z</time></trkpt><trkpt lat="43.0921891" lon="11.5885274"><ele>366.0</ele><time>2026-04-20T13:50:02.349Z</time></trkpt><trkpt lat="43.0922703" lon="11.5885801"><ele>366.0</ele><time>2026-04-20T13:50:03.349Z</time></trkpt><trkpt lat="43.0923499" lon="11.588627"><ele>366.0</ele><time>2026-04-20T13:50:04.349Z</time></trkpt><trkpt lat="43.0924279" lon="11.5886712"><ele>366.0</ele><time>2026-04-20T13:50:05.35Z</time></trkpt><trkpt lat="43.0925048" lon="11.5887159"><ele>366.0</ele><time>2026-04-20T13:50:06.35Z</time></trkpt><trkpt lat="43.0925767" lon="11.5887632"><ele>364.6666666666667</ele><time>2026-04-20T13:50:07.349Z</time></trkpt><trkpt lat="43.0926427" lon="11.5888141"><ele>363.3333333333333</ele><time>2026-04-20T13:50:08.349Z</time></trkpt><trkpt lat="43.0927064" lon="11.5888707"><ele>362.0</ele><time>2026-04-20T13:50:09.35Z</time></trkpt><trkpt lat="43.0927683" lon="11.5889324"><ele>360.66666666666663</ele><time>2026-04-20T13:50:10.35Z</time></trkpt><trkpt lat="43.0928277" lon="11.5889994"><ele>359.3333333333333</ele><time>2026-04-20T13:50:11.349Z</time></trkpt><trkpt lat="43.0928868" lon="11.5890689"><ele>358.0</ele><time>2026-04-20T13:50:12.351Z</time></trkpt><trkpt lat="43.0929465" lon="11.5891417"><ele>358.0</ele><time>2026-04-20T13:50:13.35Z</time></trkpt><trkpt lat="43.0930059" lon="11.5892181"><ele>358.0</ele><time>2026-04-20T13:50:14.351Z</time></trkpt><trkpt lat="43.0930647" lon="11.5892967"><ele>358.0</ele><time>2026-04-20T13:50:15.35Z</time></trkpt><trkpt lat="43.0931227" lon="11.5893822"><ele>358.0</ele><time>2026-04-20T13:50:16.35Z</time></trkpt><trkpt lat="43.0931769" lon="11.5894753"><ele>358.0</ele><time>2026-04-20T13:50:17.35Z</time></trkpt><trkpt lat="43.0932261" lon="11.5895737"><ele>358.0</ele><time>2026-04-20T13:50:18.351Z</time></trkpt><trkpt lat="43.0932692" lon="11.5896747"><ele>356.3333333333333</ele><time>2026-04-20T13:50:19.35Z</time></trkpt><trkpt lat="43.0933106" lon="11.5897767"><ele>354.66666666666663</ele><time>2026-04-20T13:50:20.35Z</time></trkpt><trkpt lat="43.0933538" lon="11.5898794"><ele>353.0</ele><time>2026-04-20T13:50:21.35Z</time></trkpt><trkpt lat="43.0933967" lon="11.5899811"><ele>351.3333333333333</ele><time>2026-04-20T13:50:22.35Z</time></trkpt><trkpt lat="43.0934424" lon="11.5900809"><ele>349.6666666666667</ele><time>2026-04-20T13:50:23.35Z</time></trkpt><trkpt lat="43.0934889" lon="11.5901757"><ele>348.0</ele><time>2026-04-20T13:50:24.35Z</time></trkpt><trkpt lat="43.0935395" lon="11.5902639"><ele>345.8333333333333</ele><time>2026-04-20T13:50:25.35Z</time></trkpt><trkpt lat="43.0935944" lon="11.5903439"><ele>343.6666666666667</ele><time>2026-04-20T13:50:26.35Z</time></trkpt><trkpt lat="43.0936583" lon="11.5904182"><ele>341.5</ele><time>2026-04-20T13:50:27.35Z</time></trkpt><trkpt lat="43.0937307" lon="11.5904881"><ele>339.33333333333337</ele><time>2026-04-20T13:50:28.35Z</time></trkpt><trkpt lat="43.093805" lon="11.5905559"><ele>337.1666666666667</ele><time>2026-04-20T13:50:29.35Z</time></trkpt><trkpt lat="43.093877" lon="11.5906219"><ele>335.0</ele><time>2026-04-20T13:50:30.35Z</time></trkpt><trkpt lat="43.0939513" lon="11.5906906"><ele>335.0</ele><time>2026-04-20T13:50:31.35Z</time></trkpt><trkpt lat="43.0940265" lon="11.590763"><ele>335.0</ele><time>2026-04-20T13:50:32.35Z</time></trkpt><trkpt lat="43.0940985" lon="11.5908324"><ele>335.0</ele><time>2026-04-20T13:50:33.35Z</time></trkpt><trkpt lat="43.0941699" lon="11.5908978"><ele>335.0</ele><time>2026-04-20T13:50:34.35Z</time></trkpt><trkpt lat="43.0942411" lon="11.5909635"><ele>335.0</ele><time>2026-04-20T13:50:35.35Z</time></trkpt><trkpt lat="43.0943115" lon="11.5910345"><ele>335.0</ele><time>2026-04-20T13:50:36.35Z</time></trkpt><trkpt lat="43.0943764" lon="11.5911174"><ele>335.4</ele><time>2026-04-20T13:50:37.35Z</time></trkpt><trkpt lat="43.0944306" lon="11.5912179"><ele>335.8</ele><time>2026-04-20T13:50:38.35Z</time></trkpt><trkpt lat="43.0944682" lon="11.5913341"><ele>336.20000000000005</ele><time>2026-04-20T13:50:39.35Z</time></trkpt><trkpt lat="43.0944972" lon="11.5914541"><ele>336.6</ele><time>2026-04-20T13:50:40.35Z</time></trkpt><trkpt lat="43.0945264" lon="11.5915726"><ele>337.0</ele><time>2026-04-20T13:50:41.351Z</time></trkpt><trkpt lat="43.0945602" lon="11.5916898"><ele>337.0</ele><time>2026-04-20T13:50:42.35Z</time></trkpt><trkpt lat="43.0945999" lon="11.5918021"><ele>337.0</ele><time>2026-04-20T13:50:43.35Z</time></trkpt><trkpt lat="43.0946444" lon="11.5919072"><ele>337.0</ele><time>2026-04-20T13:50:44.35Z</time></trkpt><trkpt lat="43.0946897" lon="11.5920085"><ele>337.0</ele><time>2026-04-20T13:50:45.35Z</time></trkpt><trkpt lat="43.0947327" lon="11.5921086"><ele>337.0</ele><time>2026-04-20T13:50:46.35Z</time></trkpt><trkpt lat="43.0947737" lon="11.5922143"><ele>337.0</ele><time>2026-04-20T13:50:47.35Z</time></trkpt><trkpt lat="43.0948146" lon="11.5923245"><ele>336.0</ele><time>2026-04-20T13:50:48.35Z</time></trkpt><trkpt lat="43.094855" lon="11.5924325"><ele>335.0</ele><time>2026-04-20T13:50:49.35Z</time></trkpt><trkpt lat="43.0948959" lon="11.5925357"><ele>334.0</ele><time>2026-04-20T13:50:50.35Z</time></trkpt><trkpt lat="43.0949392" lon="11.5926344"><ele>333.0</ele><time>2026-04-20T13:50:51.35Z</time></trkpt><trkpt lat="43.0949827" lon="11.5927302"><ele>332.0</ele><time>2026-04-20T13:50:52.35Z</time></trkpt><trkpt lat="43.0950258" lon="11.5928271"><ele>331.0</ele><time>2026-04-20T13:50:53.351Z</time></trkpt><trkpt lat="43.095068" lon="11.5929256"><ele>333.0</ele><time>2026-04-20T13:50:54.35Z</time></trkpt><trkpt lat="43.095111" lon="11.5930275"><ele>335.0</ele><time>2026-04-20T13:50:55.351Z</time></trkpt><trkpt lat="43.0951553" lon="11.5931286"><ele>337.0</ele><time>2026-04-20T13:50:56.35Z</time></trkpt><trkpt lat="43.0951981" lon="11.5932282"><ele>339.0</ele><time>2026-04-20T13:50:57.35Z</time></trkpt><trkpt lat="43.0952395" lon="11.5933315"><ele>341.0</ele><time>2026-04-20T13:50:58.35Z</time></trkpt><trkpt lat="43.0952824" lon="11.5934376"><ele>343.0</ele><time>2026-04-20T13:50:59.35Z</time></trkpt><trkpt lat="43.0953265" lon="11.593543"><ele>343.0</ele><time>2026-04-20T13:51:00.35Z</time></trkpt><trkpt lat="43.0953714" lon="11.5936553"><ele>343.0</ele><time>2026-04-20T13:51:01.35Z</time></trkpt><trkpt lat="43.0954161" lon="11.5937694"><ele>343.0</ele><time>2026-04-20T13:51:02.351Z</time></trkpt><trkpt lat="43.0954588" lon="11.5938791"><ele>343.0</ele><time>2026-04-20T13:51:03.351Z</time></trkpt><trkpt lat="43.0955005" lon="11.5939836"><ele>343.0</ele><time>2026-04-20T13:51:04.351Z</time></trkpt><trkpt lat="43.0955424" lon="11.5940859"><ele>343.66666666666663</ele><time>2026-04-20T13:51:05.351Z</time></trkpt><trkpt lat="43.0955845" lon="11.5941886"><ele>344.3333333333333</ele><time>2026-04-20T13:51:06.351Z</time></trkpt><trkpt lat="43.0956268" lon="11.594294"><ele>345.0</ele><time>2026-04-20T13:51:07.351Z</time></trkpt><trkpt lat="43.0956693" lon="11.5944005"><ele>345.6666666666667</ele><time>2026-04-20T13:51:08.351Z</time></trkpt><trkpt lat="43.0957097" lon="11.5945032"><ele>346.33333333333337</ele><time>2026-04-20T13:51:09.351Z</time></trkpt><trkpt lat="43.0957531" lon="11.5946053"><ele>347.0</ele><time>2026-04-20T13:51:10.351Z</time></trkpt><trkpt lat="43.0957977" lon="11.5947031"><ele>347.0</ele><time>2026-04-20T13:51:11.351Z</time></trkpt><trkpt lat="43.095846" lon="11.5947895"><ele>347.0</ele><time>2026-04-20T13:51:12.351Z</time></trkpt><trkpt lat="43.0959051" lon="11.5948619"><ele>347.0</ele><time>2026-04-20T13:51:13.351Z</time></trkpt><trkpt lat="43.0959759" lon="11.5949233"><ele>347.0</ele><time>2026-04-20T13:51:14.351Z</time></trkpt><trkpt lat="43.0960551" lon="11.5949739"><ele>347.0</ele><time>2026-04-20T13:51:15.351Z</time></trkpt><trkpt lat="43.0961368" lon="11.5950264"><ele>347.0</ele><time>2026-04-20T13:51:16.351Z</time></trkpt><trkpt lat="43.0962132" lon="11.5950858"><ele>347.0</ele><time>2026-04-20T13:51:17.352Z</time></trkpt><trkpt lat="43.0962825" lon="11.5951626"><ele>347.0</ele><time>2026-04-20T13:51:18.351Z</time></trkpt><trkpt lat="43.0963427" lon="11.595257"><ele>347.0</ele><time>2026-04-20T13:51:19.351Z</time></trkpt><trkpt lat="43.0963924" lon="11.5953649"><ele>347.0</ele><time>2026-04-20T13:51:20.351Z</time></trkpt><trkpt lat="43.0964343" lon="11.5954757"><ele>347.0</ele><time>2026-04-20T13:51:21.352Z</time></trkpt><trkpt lat="43.0964701" lon="11.5955861"><ele>346.8</ele><time>2026-04-20T13:51:22.351Z</time></trkpt><trkpt lat="43.0965044" lon="11.5956955"><ele>346.6</ele><time>2026-04-20T13:51:23.351Z</time></trkpt><trkpt lat="43.096534" lon="11.595807"><ele>346.40000000000003</ele><time>2026-04-20T13:51:24.351Z</time></trkpt><trkpt lat="43.0965638" lon="11.5959253"><ele>346.20000000000005</ele><time>2026-04-20T13:51:25.351Z</time></trkpt><trkpt lat="43.0965934" lon="11.596046"><ele>346.0</ele><time>2026-04-20T13:51:26.351Z</time></trkpt><trkpt lat="43.0966212" lon="11.5961666"><ele>347.8333333333333</ele><time>2026-04-20T13:51:27.351Z</time></trkpt><trkpt lat="43.0966456" lon="11.5962836"><ele>349.66666666666663</ele><time>2026-04-20T13:51:28.351Z</time></trkpt><trkpt lat="43.0966697" lon="11.5963997"><ele>351.5</ele><time>2026-04-20T13:51:29.351Z</time></trkpt><trkpt lat="43.0966954" lon="11.5965123"><ele>353.3333333333333</ele><time>2026-04-20T13:51:30.351Z</time></trkpt><trkpt lat="43.0967245" lon="11.5966247"><ele>355.1666666666667</ele><time>2026-04-20T13:51:31.351Z</time></trkpt><trkpt lat="43.0967555" lon="11.59674"><ele>357.0</ele><time>2026-04-20T13:51:32.351Z</time></trkpt><trkpt lat="43.0967832" lon="11.5968572"><ele>357.0</ele><time>2026-04-20T13:51:33.351Z</time></trkpt><trkpt lat="43.096809" lon="11.5969718"><ele>357.0</ele><time>2026-04-20T13:51:34.351Z</time></trkpt><trkpt lat="43.0968353" lon="11.5970767"><ele>357.0</ele><time>2026-04-20T13:51:35.352Z</time></trkpt><trkpt lat="43.0968631" lon="11.5971626"><ele>357.0</ele><time>2026-04-20T13:51:36.351Z</time></trkpt><trkpt lat="43.0969439" lon="11.5972887"><ele>357.0</ele><time>2026-04-20T13:51:38.351Z</time></trkpt><trkpt lat="43.0970128" lon="11.5973274"><ele>357.0</ele><time>2026-04-20T13:51:39.351Z</time></trkpt><trkpt lat="43.0970935" lon="11.5973543"><ele>357.3333333333333</ele><time>2026-04-20T13:51:40.351Z</time></trkpt><trkpt lat="43.0971762" lon="11.5973858"><ele>357.6666666666667</ele><time>2026-04-20T13:51:41.351Z</time></trkpt><trkpt lat="43.0972522" lon="11.5974416"><ele>358.0</ele><time>2026-04-20T13:51:42.351Z</time></trkpt><trkpt lat="43.0973194" lon="11.5975229"><ele>358.33333333333337</ele><time>2026-04-20T13:51:43.352Z</time></trkpt><trkpt lat="43.0973783" lon="11.5976166"><ele>358.6666666666667</ele><time>2026-04-20T13:51:44.351Z</time></trkpt><trkpt lat="43.0974404" lon="11.5977117"><ele>359.0</ele><time>2026-04-20T13:51:45.351Z</time></trkpt><trkpt lat="43.0975036" lon="11.5978081"><ele>361.0</ele><time>2026-04-20T13:51:46.351Z</time></trkpt><trkpt lat="43.0975683" lon="11.5979026"><ele>363.0</ele><time>2026-04-20T13:51:47.352Z</time></trkpt><trkpt lat="43.0976329" lon="11.5979969"><ele>365.0</ele><time>2026-04-20T13:51:48.351Z</time></trkpt><trkpt lat="43.0976946" lon="11.5980897"><ele>367.0</ele><time>2026-04-20T13:51:49.351Z</time></trkpt><trkpt lat="43.0977539" lon="11.5981812"><ele>369.0</ele><time>2026-04-20T13:51:50.351Z</time></trkpt><trkpt lat="43.0978099" lon="11.5982668"><ele>369.0</ele><time>2026-04-20T13:51:51.353Z</time></trkpt><trkpt lat="43.0978587" lon="11.5983482"><ele>369.0</ele><time>2026-04-20T13:51:52.352Z</time></trkpt><trkpt lat="43.097903" lon="11.5984256"><ele>369.0</ele><time>2026-04-20T13:51:53.352Z</time></trkpt><trkpt lat="43.0979451" lon="11.5984949"><ele>369.0</ele><time>2026-04-20T13:51:54.352Z</time></trkpt><trkpt lat="43.098035" lon="11.5986052"><ele>369.0</ele><time>2026-04-20T13:51:56.352Z</time></trkpt><trkpt lat="43.0981505" lon="11.5986342"><ele>369.0</ele><time>2026-04-20T13:51:58.352Z</time></trkpt><trkpt lat="43.0982199" lon="11.5986088"><ele>369.0</ele><time>2026-04-20T13:51:59.352Z</time></trkpt><trkpt lat="43.0982898" lon="11.5985679"><ele>369.0</ele><time>2026-04-20T13:52:00.352Z</time></trkpt><trkpt lat="43.0983518" lon="11.5985193"><ele>369.0</ele><time>2026-04-20T13:52:01.352Z</time></trkpt><trkpt lat="43.0984054" lon="11.5984675"><ele>369.0</ele><time>2026-04-20T13:52:02.352Z</time></trkpt><trkpt lat="43.0984558" lon="11.5983978"><ele>369.0</ele><time>2026-04-20T13:52:03.352Z</time></trkpt><trkpt lat="43.0984989" lon="11.5983087"><ele>369.0</ele><time>2026-04-20T13:52:04.352Z</time></trkpt><trkpt lat="43.0985287" lon="11.5982025"><ele>368.6666666666667</ele><time>2026-04-20T13:52:05.352Z</time></trkpt><trkpt lat="43.0985492" lon="11.5980861"><ele>368.3333333333333</ele><time>2026-04-20T13:52:06.352Z</time></trkpt><trkpt lat="43.0985676" lon="11.5979654"><ele>368.0</ele><time>2026-04-20T13:52:07.353Z</time></trkpt><trkpt lat="43.0985886" lon="11.5978607"><ele>367.66666666666663</ele><time>2026-04-20T13:52:08.352Z</time></trkpt><trkpt lat="43.098618" lon="11.5977551"><ele>367.3333333333333</ele><time>2026-04-20T13:52:09.352Z</time></trkpt><trkpt lat="43.0986484" lon="11.5976589"><ele>367.0</ele><time>2026-04-20T13:52:10.353Z</time></trkpt><trkpt lat="43.0986759" lon="11.5975807"><ele>366.0</ele><time>2026-04-20T13:52:11.352Z</time></trkpt><trkpt lat="43.0987412" lon="11.597454"><ele>365.0</ele><time>2026-04-20T13:52:13.352Z</time></trkpt><trkpt lat="43.0988474" lon="11.5973847"><ele>364.0</ele><time>2026-04-20T13:52:15.352Z</time></trkpt><trkpt lat="43.0989145" lon="11.5973991"><ele>363.0</ele><time>2026-04-20T13:52:16.352Z</time></trkpt><trkpt lat="43.0989879" lon="11.5974421"><ele>362.0</ele><time>2026-04-20T13:52:17.352Z</time></trkpt><trkpt lat="43.0990649" lon="11.5975039"><ele>361.20000000000005</ele><time>2026-04-20T13:52:18.352Z</time></trkpt><trkpt lat="43.0991399" lon="11.597574"><ele>360.4</ele><time>2026-04-20T13:52:19.352Z</time></trkpt><trkpt lat="43.0992177" lon="11.5976555"><ele>359.6</ele><time>2026-04-20T13:52:20.353Z</time></trkpt><trkpt lat="43.0992885" lon="11.5977491"><ele>358.79999999999995</ele><time>2026-04-20T13:52:21.352Z</time></trkpt><trkpt lat="43.0993543" lon="11.5978386"><ele>358.0</ele><time>2026-04-20T13:52:22.352Z</time></trkpt><trkpt lat="43.0994171" lon="11.5979334"><ele>359.59999999999997</ele><time>2026-04-20T13:52:23.352Z</time></trkpt><trkpt lat="43.0994814" lon="11.5980314"><ele>361.2</ele><time>2026-04-20T13:52:24.352Z</time></trkpt><trkpt lat="43.099545" lon="11.598128"><ele>362.8</ele><time>2026-04-20T13:52:25.352Z</time></trkpt><trkpt lat="43.099606" lon="11.5982225"><ele>364.4</ele><time>2026-04-20T13:52:26.353Z</time></trkpt><trkpt lat="43.0996651" lon="11.5983138"><ele>366.0</ele><time>2026-04-20T13:52:27.352Z</time></trkpt><trkpt lat="43.0997197" lon="11.598402"><ele>366.0</ele><time>2026-04-20T13:52:28.352Z</time></trkpt><trkpt lat="43.0997691" lon="11.5984876"><ele>366.0</ele><time>2026-04-20T13:52:29.352Z</time></trkpt><trkpt lat="43.099817" lon="11.5985726"><ele>366.0</ele><time>2026-04-20T13:52:30.352Z</time></trkpt><trkpt lat="43.0998647" lon="11.598658"><ele>366.0</ele><time>2026-04-20T13:52:31.352Z</time></trkpt><trkpt lat="43.0999169" lon="11.598744"><ele>366.0</ele><time>2026-04-20T13:52:32.352Z</time></trkpt><trkpt lat="43.0999741" lon="11.5988363"><ele>366.0</ele><time>2026-04-20T13:52:33.353Z</time></trkpt><trkpt lat="43.1000356" lon="11.59893"><ele>364.0</ele><time>2026-04-20T13:52:34.352Z</time></trkpt><trkpt lat="43.1000981" lon="11.5990193"><ele>362.0</ele><time>2026-04-20T13:52:35.352Z</time></trkpt><trkpt lat="43.10016" lon="11.599102"><ele>360.0</ele><time>2026-04-20T13:52:36.352Z</time></trkpt><trkpt lat="43.1002271" lon="11.5991736"><ele>358.0</ele><time>2026-04-20T13:52:37.352Z</time></trkpt><trkpt lat="43.1003046" lon="11.5992288"><ele>356.0</ele><time>2026-04-20T13:52:38.352Z</time></trkpt><trkpt lat="43.1003881" lon="11.5992599"><ele>354.0</ele><time>2026-04-20T13:52:39.353Z</time></trkpt><trkpt lat="43.1004792" lon="11.599279"><ele>354.0</ele><time>2026-04-20T13:52:40.353Z</time></trkpt><trkpt lat="43.1005715" lon="11.5992882"><ele>354.0</ele><time>2026-04-20T13:52:41.353Z</time></trkpt><trkpt lat="43.1006594" lon="11.5992865"><ele>354.0</ele><time>2026-04-20T13:52:42.353Z</time></trkpt><trkpt lat="43.1007521" lon="11.5992757"><ele>354.0</ele><time>2026-04-20T13:52:43.353Z</time></trkpt><trkpt lat="43.1008465" lon="11.5992615"><ele>354.0</ele><time>2026-04-20T13:52:44.354Z</time></trkpt><trkpt lat="43.1009369" lon="11.599247"><ele>353.1666666666667</ele><time>2026-04-20T13:52:45.353Z</time></trkpt><trkpt lat="43.1010251" lon="11.5992341"><ele>352.3333333333333</ele><time>2026-04-20T13:52:46.353Z</time></trkpt><trkpt lat="43.101114" lon="11.5992241"><ele>351.5</ele><time>2026-04-20T13:52:47.353Z</time></trkpt><trkpt lat="43.1012019" lon="11.5992206"><ele>350.66666666666663</ele><time>2026-04-20T13:52:48.354Z</time></trkpt><trkpt lat="43.1012865" lon="11.5992287"><ele>349.8333333333333</ele><time>2026-04-20T13:52:49.354Z</time></trkpt><trkpt lat="43.1013713" lon="11.5992496"><ele>349.0</ele><time>2026-04-20T13:52:50.353Z</time></trkpt><trkpt lat="43.1014563" lon="11.5992855"><ele>349.0</ele><time>2026-04-20T13:52:51.353Z</time></trkpt><trkpt lat="43.1015389" lon="11.5993382"><ele>349.0</ele><time>2026-04-20T13:52:52.353Z</time></trkpt><trkpt lat="43.1016187" lon="11.5994056"><ele>349.0</ele><time>2026-04-20T13:52:53.353Z</time></trkpt><trkpt lat="43.1016954" lon="11.59948"><ele>349.0</ele><time>2026-04-20T13:52:54.353Z</time></trkpt><trkpt lat="43.1017684" lon="11.5995577"><ele>349.0</ele><time>2026-04-20T13:52:55.353Z</time></trkpt><trkpt lat="43.1018369" lon="11.5996375"><ele>349.5</ele><time>2026-04-20T13:52:56.353Z</time></trkpt><trkpt lat="43.1018973" lon="11.5997274"><ele>350.0</ele><time>2026-04-20T13:52:57.353Z</time></trkpt><trkpt lat="43.1019458" lon="11.5998249"><ele>350.5</ele><time>2026-04-20T13:52:58.353Z</time></trkpt><trkpt lat="43.1019904" lon="11.599925"><ele>351.0</ele><time>2026-04-20T13:52:59.353Z</time></trkpt><trkpt lat="43.1020362" lon="11.6000288"><ele>351.5</ele><time>2026-04-20T13:53:00.353Z</time></trkpt><trkpt lat="43.1020835" lon="11.6001345"><ele>352.0</ele><time>2026-04-20T13:53:01.353Z</time></trkpt><trkpt lat="43.1021291" lon="11.6002433"><ele>350.5</ele><time>2026-04-20T13:53:02.353Z</time></trkpt><trkpt lat="43.1021782" lon="11.6003507"><ele>349.0</ele><time>2026-04-20T13:53:03.353Z</time></trkpt><trkpt lat="43.1022277" lon="11.6004528"><ele>347.5</ele><time>2026-04-20T13:53:04.353Z</time></trkpt><trkpt lat="43.1022754" lon="11.6005544"><ele>346.0</ele><time>2026-04-20T13:53:05.353Z</time></trkpt><trkpt lat="43.1023213" lon="11.6006583"><ele>344.5</ele><time>2026-04-20T13:53:06.353Z</time></trkpt><trkpt lat="43.1023651" lon="11.6007593"><ele>343.0</ele><time>2026-04-20T13:53:07.353Z</time></trkpt><trkpt lat="43.1024072" lon="11.6008493"><ele>346.16666666666663</ele><time>2026-04-20T13:53:08.353Z</time></trkpt><trkpt lat="43.1024467" lon="11.6009214"><ele>349.3333333333333</ele><time>2026-04-20T13:53:09.353Z</time></trkpt><trkpt lat="43.1025391" lon="11.6010408"><ele>352.5</ele><time>2026-04-20T13:53:11.353Z</time></trkpt><trkpt lat="43.1025964" lon="11.6010857"><ele>355.6666666666667</ele><time>2026-04-20T13:53:12.353Z</time></trkpt><trkpt lat="43.1026592" lon="11.6011113"><ele>358.83333333333337</ele><time>2026-04-20T13:53:13.353Z</time></trkpt><trkpt lat="43.1027794" lon="11.6010861"><ele>362.0</ele><time>2026-04-20T13:53:15.353Z</time></trkpt><trkpt lat="43.1028347" lon="11.6010385"><ele>362.0</ele><time>2026-04-20T13:53:16.353Z</time></trkpt><trkpt lat="43.1028877" lon="11.6009726"><ele>362.0</ele><time>2026-04-20T13:53:17.353Z</time></trkpt><trkpt lat="43.1029361" lon="11.600906"><ele>362.0</ele><time>2026-04-20T13:53:18.353Z</time></trkpt><trkpt lat="43.1029931" lon="11.6008324"><ele>362.0</ele><time>2026-04-20T13:53:19.353Z</time></trkpt><trkpt lat="43.1030543" lon="11.6007589"><ele>362.0</ele><time>2026-04-20T13:53:20.353Z</time></trkpt><trkpt lat="43.1031122" lon="11.6006901"><ele>362.0</ele><time>2026-04-20T13:53:21.353Z</time></trkpt><trkpt lat="43.1031742" lon="11.6006182"><ele>362.0</ele><time>2026-04-20T13:53:22.354Z</time></trkpt><trkpt lat="43.1032345" lon="11.6005558"><ele>362.0</ele><time>2026-04-20T13:53:23.354Z</time></trkpt><trkpt lat="43.1032992" lon="11.6005091"><ele>362.0</ele><time>2026-04-20T13:53:24.353Z</time></trkpt><trkpt lat="43.1033729" lon="11.6004815"><ele>362.0</ele><time>2026-04-20T13:53:25.353Z</time></trkpt><trkpt lat="43.1034591" lon="11.6004797"><ele>362.0</ele><time>2026-04-20T13:53:26.353Z</time></trkpt><trkpt lat="43.1035484" lon="11.6004942"><ele>362.0</ele><time>2026-04-20T13:53:27.353Z</time></trkpt><trkpt lat="43.1036407" lon="11.6005131"><ele>362.20000000000005</ele><time>2026-04-20T13:53:28.353Z</time></trkpt><trkpt lat="43.1037373" lon="11.600532"><ele>362.4</ele><time>2026-04-20T13:53:29.354Z</time></trkpt><trkpt lat="43.103837" lon="11.6005491"><ele>362.6</ele><time>2026-04-20T13:53:30.353Z</time></trkpt><trkpt lat="43.1039407" lon="11.6005635"><ele>362.79999999999995</ele><time>2026-04-20T13:53:31.354Z</time></trkpt><trkpt lat="43.1040459" lon="11.6005796"><ele>363.0</ele><time>2026-04-20T13:53:32.354Z</time></trkpt><trkpt lat="43.1041479" lon="11.6005941"><ele>363.4</ele><time>2026-04-20T13:53:33.355Z</time></trkpt><trkpt lat="43.1042504" lon="11.6006096"><ele>363.79999999999995</ele><time>2026-04-20T13:53:34.354Z</time></trkpt><trkpt lat="43.1043539" lon="11.6006268"><ele>364.2</ele><time>2026-04-20T13:53:35.354Z</time></trkpt><trkpt lat="43.1044598" lon="11.6006468"><ele>364.6</ele><time>2026-04-20T13:53:36.354Z</time></trkpt><trkpt lat="43.1045661" lon="11.6006683"><ele>365.0</ele><time>2026-04-20T13:53:37.355Z</time></trkpt><trkpt lat="43.1046701" lon="11.6006884"><ele>365.0</ele><time>2026-04-20T13:53:38.354Z</time></trkpt><trkpt lat="43.1047742" lon="11.6007082"><ele>365.0</ele><time>2026-04-20T13:53:39.354Z</time></trkpt><trkpt lat="43.1048798" lon="11.6007261"><ele>365.0</ele><time>2026-04-20T13:53:40.354Z</time></trkpt><trkpt lat="43.1049898" lon="11.6007437"><ele>365.0</ele><time>2026-04-20T13:53:41.354Z</time></trkpt><trkpt lat="43.1050967" lon="11.6007619"><ele>365.0</ele><time>2026-04-20T13:53:42.354Z</time></trkpt><trkpt lat="43.1051993" lon="11.6007743"><ele>365.4</ele><time>2026-04-20T13:53:43.354Z</time></trkpt><trkpt lat="43.105299" lon="11.6007797"><ele>365.8</ele><time>2026-04-20T13:53:44.354Z</time></trkpt><trkpt lat="43.1053953" lon="11.6007721"><ele>366.20000000000005</ele><time>2026-04-20T13:53:45.355Z</time></trkpt><trkpt lat="43.1054953" lon="11.6007449"><ele>366.6</ele><time>2026-04-20T13:53:46.354Z</time></trkpt><trkpt lat="43.1055972" lon="11.6007015"><ele>367.0</ele><time>2026-04-20T13:53:47.355Z</time></trkpt><trkpt lat="43.1056986" lon="11.6006482"><ele>368.20000000000005</ele><time>2026-04-20T13:53:48.354Z</time></trkpt><trkpt lat="43.1057992" lon="11.6005846"><ele>369.4</ele><time>2026-04-20T13:53:49.354Z</time></trkpt><trkpt lat="43.1058994" lon="11.6005145"><ele>370.6</ele><time>2026-04-20T13:53:50.354Z</time></trkpt><trkpt lat="43.1059878" lon="11.6004524"><ele>371.79999999999995</ele><time>2026-04-20T13:53:51.354Z</time></trkpt><trkpt lat="43.1060625" lon="11.600401"><ele>373.0</ele><time>2026-04-20T13:53:52.355Z</time></trkpt><trkpt lat="43.1061304" lon="11.6003616"><ele>373.0</ele><time>2026-04-20T13:53:53.354Z</time></trkpt><trkpt lat="43.1062045" lon="11.6003329"><ele>373.0</ele><time>2026-04-20T13:53:54.354Z</time></trkpt><trkpt lat="43.106285" lon="11.6003228"><ele>373.0</ele><time>2026-04-20T13:53:55.355Z</time></trkpt><trkpt lat="43.1063686" lon="11.6003348"><ele>373.0</ele><time>2026-04-20T13:53:56.354Z</time></trkpt><trkpt lat="43.1064544" lon="11.600368"><ele>373.0</ele><time>2026-04-20T13:53:57.354Z</time></trkpt><trkpt lat="43.1065364" lon="11.6004143"><ele>373.0</ele><time>2026-04-20T13:53:58.355Z</time></trkpt><trkpt lat="43.1066161" lon="11.6004672"><ele>375.2</ele><time>2026-04-20T13:53:59.354Z</time></trkpt><trkpt lat="43.1066968" lon="11.600521"><ele>377.4</ele><time>2026-04-20T13:54:00.354Z</time></trkpt><trkpt lat="43.1067793" lon="11.6005733"><ele>379.59999999999997</ele><time>2026-04-20T13:54:01.354Z</time></trkpt><trkpt lat="43.1068616" lon="11.6006288"><ele>381.79999999999995</ele><time>2026-04-20T13:54:02.354Z</time></trkpt><trkpt lat="43.1069444" lon="11.6006903"><ele>384.0</ele><time>2026-04-20T13:54:03.354Z</time></trkpt><trkpt lat="43.1070256" lon="11.6007506"><ele>384.0</ele><time>2026-04-20T13:54:04.354Z</time></trkpt><trkpt lat="43.1071072" lon="11.6008086"><ele>384.0</ele><time>2026-04-20T13:54:05.355Z</time></trkpt><trkpt lat="43.1071904" lon="11.6008664"><ele>384.0</ele><time>2026-04-20T13:54:06.354Z</time></trkpt><trkpt lat="43.1072721" lon="11.6009244"><ele>384.0</ele><time>2026-04-20T13:54:07.354Z</time></trkpt><trkpt lat="43.1073489" lon="11.6009826"><ele>384.0</ele><time>2026-04-20T13:54:08.354Z</time></trkpt><trkpt lat="43.1074181" lon="11.6010391"><ele>384.0</ele><time>2026-04-20T13:54:09.354Z</time></trkpt><trkpt lat="43.1074766" lon="11.6010898"><ele>383.79999999999995</ele><time>2026-04-20T13:54:10.355Z</time></trkpt><trkpt lat="43.1075748" lon="11.6011627"><ele>383.59999999999997</ele><time>2026-04-20T13:54:12.354Z</time></trkpt><trkpt lat="43.1076884" lon="11.6012457"><ele>383.4</ele><time>2026-04-20T13:54:14.354Z</time></trkpt><trkpt lat="43.1077481" lon="11.6012986"><ele>383.2</ele><time>2026-04-20T13:54:15.354Z</time></trkpt><trkpt lat="43.107809" lon="11.6013574"><ele>383.0</ele><time>2026-04-20T13:54:16.354Z</time></trkpt><trkpt lat="43.1078657" lon="11.6014232"><ele>384.0</ele><time>2026-04-20T13:54:17.355Z</time></trkpt><trkpt lat="43.1079148" lon="11.6014953"><ele>385.0</ele><time>2026-04-20T13:54:18.354Z</time></trkpt><trkpt lat="43.1079565" lon="11.6015681"><ele>386.0</ele><time>2026-04-20T13:54:19.354Z</time></trkpt><trkpt lat="43.1079935" lon="11.6016391"><ele>387.0</ele><time>2026-04-20T13:54:20.354Z</time></trkpt><trkpt lat="43.1080473" lon="11.6017741"><ele>387.99999999999994</ele><time>2026-04-20T13:54:22.355Z</time></trkpt><trkpt lat="43.1080736" lon="11.6019508"><ele>389.0</ele><time>2026-04-20T13:54:24.355Z</time></trkpt><trkpt lat="43.1080743" lon="11.6020575"><ele>388.99999999999994</ele><time>2026-04-20T13:54:25.355Z</time></trkpt><trkpt lat="43.1080698" lon="11.6021707"><ele>389.0</ele><time>2026-04-20T13:54:26.355Z</time></trkpt><trkpt lat="43.1080631" lon="11.6022837"><ele>389.0</ele><time>2026-04-20T13:54:27.355Z</time></trkpt><trkpt lat="43.1080509" lon="11.6023913"><ele>389.0</ele><time>2026-04-20T13:54:28.355Z</time></trkpt><trkpt lat="43.1080292" lon="11.6024913"><ele>388.99999999999994</ele><time>2026-04-20T13:54:29.355Z</time></trkpt><trkpt lat="43.1080053" lon="11.6025889"><ele>389.0</ele><time>2026-04-20T13:54:30.355Z</time></trkpt><trkpt lat="43.1079801" lon="11.6026848"><ele>389.0</ele><time>2026-04-20T13:54:31.355Z</time></trkpt><trkpt lat="43.1079552" lon="11.6027838"><ele>389.0</ele><time>2026-04-20T13:54:32.355Z</time></trkpt><trkpt lat="43.1079309" lon="11.6028826"><ele>389.0</ele><time>2026-04-20T13:54:33.355Z</time></trkpt><trkpt lat="43.1079072" lon="11.6029766"><ele>389.0</ele><time>2026-04-20T13:54:34.355Z</time></trkpt><trkpt lat="43.1078816" lon="11.6030669"><ele>389.0</ele><time>2026-04-20T13:54:35.355Z</time></trkpt><trkpt lat="43.1078554" lon="11.6031587"><ele>389.0</ele><time>2026-04-20T13:54:36.356Z</time></trkpt><trkpt lat="43.1078346" lon="11.6032592"><ele>389.0</ele><time>2026-04-20T13:54:37.356Z</time></trkpt><trkpt lat="43.107822" lon="11.6033622"><ele>387.16666666666663</ele><time>2026-04-20T13:54:38.355Z</time></trkpt><trkpt lat="43.1078237" lon="11.6034675"><ele>385.3333333333333</ele><time>2026-04-20T13:54:39.356Z</time></trkpt><trkpt lat="43.1078413" lon="11.6035723"><ele>383.5</ele><time>2026-04-20T13:54:40.355Z</time></trkpt><trkpt lat="43.1078722" lon="11.6036745"><ele>381.66666666666663</ele><time>2026-04-20T13:54:41.356Z</time></trkpt><trkpt lat="43.1079074" lon="11.603776"><ele>379.8333333333333</ele><time>2026-04-20T13:54:42.355Z</time></trkpt><trkpt lat="43.1079425" lon="11.6038816"><ele>378.0</ele><time>2026-04-20T13:54:43.355Z</time></trkpt><trkpt lat="43.1079729" lon="11.6039836"><ele>376.8333333333333</ele><time>2026-04-20T13:54:44.355Z</time></trkpt><trkpt lat="43.1080005" lon="11.6040782"><ele>375.6666666666667</ele><time>2026-04-20T13:54:45.355Z</time></trkpt><trkpt lat="43.1080277" lon="11.6041678"><ele>374.5</ele><time>2026-04-20T13:54:46.355Z</time></trkpt><trkpt lat="43.1080579" lon="11.6042584"><ele>373.33333333333337</ele><time>2026-04-20T13:54:47.355Z</time></trkpt><trkpt lat="43.1080947" lon="11.6043536"><ele>372.1666666666667</ele><time>2026-04-20T13:54:48.356Z</time></trkpt><trkpt lat="43.1081401" lon="11.6044477"><ele>371.0</ele><time>2026-04-20T13:54:49.355Z</time></trkpt><trkpt lat="43.1081942" lon="11.6045321"><ele>371.83333333333337</ele><time>2026-04-20T13:54:50.355Z</time></trkpt><trkpt lat="43.1082566" lon="11.6046019"><ele>372.6666666666667</ele><time>2026-04-20T13:54:51.355Z</time></trkpt><trkpt lat="43.1083245" lon="11.6046676"><ele>373.5</ele><time>2026-04-20T13:54:52.355Z</time></trkpt><trkpt lat="43.108398" lon="11.6047335"><ele>374.3333333333333</ele><time>2026-04-20T13:54:53.355Z</time></trkpt><trkpt lat="43.108475" lon="11.6048006"><ele>375.16666666666663</ele><time>2026-04-20T13:54:54.356Z</time></trkpt><trkpt lat="43.1085501" lon="11.6048644"><ele>376.0</ele><time>2026-04-20T13:54:55.355Z</time></trkpt><trkpt lat="43.1086241" lon="11.6049294"><ele>376.0</ele><time>2026-04-20T13:54:56.355Z</time></trkpt><trkpt lat="43.1086993" lon="11.6049999"><ele>376.0</ele><time>2026-04-20T13:54:57.355Z</time></trkpt><trkpt lat="43.1087783" lon="11.6050743"><ele>376.0</ele><time>2026-04-20T13:54:58.355Z</time></trkpt><trkpt lat="43.1088583" lon="11.6051488"><ele>376.0</ele><time>2026-04-20T13:54:59.355Z</time></trkpt><trkpt lat="43.1089381" lon="11.6052189"><ele>376.0</ele><time>2026-04-20T13:55:00.356Z</time></trkpt><trkpt lat="43.1090163" lon="11.6052867"><ele>375.8</ele><time>2026-04-20T13:55:01.355Z</time></trkpt><trkpt lat="43.1090944" lon="11.6053553"><ele>375.6</ele><time>2026-04-20T13:55:02.355Z</time></trkpt><trkpt lat="43.1091736" lon="11.605426"><ele>375.4</ele><time>2026-04-20T13:55:03.355Z</time></trkpt><trkpt lat="43.1092533" lon="11.6054972"><ele>375.2</ele><time>2026-04-20T13:55:04.355Z</time></trkpt><trkpt lat="43.1093304" lon="11.6055666"><ele>375.0</ele><time>2026-04-20T13:55:05.356Z</time></trkpt><trkpt lat="43.1094023" lon="11.6056329"><ele>375.0</ele><time>2026-04-20T13:55:06.355Z</time></trkpt><trkpt lat="43.1094724" lon="11.6057005"><ele>375.0</ele><time>2026-04-20T13:55:07.356Z</time></trkpt><trkpt lat="43.1095445" lon="11.6057703"><ele>375.0</ele><time>2026-04-20T13:55:08.355Z</time></trkpt><trkpt lat="43.1096155" lon="11.6058423"><ele>375.0</ele><time>2026-04-20T13:55:09.355Z</time></trkpt><trkpt lat="43.109686" lon="11.6059169"><ele>375.0</ele><time>2026-04-20T13:55:10.355Z</time></trkpt><trkpt lat="43.1097568" lon="11.6059919"><ele>375.0</ele><time>2026-04-20T13:55:11.355Z</time></trkpt><trkpt lat="43.1098269" lon="11.6060622"><ele>375.0</ele><time>2026-04-20T13:55:12.356Z</time></trkpt><trkpt lat="43.1098994" lon="11.6061285"><ele>375.0</ele><time>2026-04-20T13:55:13.356Z</time></trkpt><trkpt lat="43.109974" lon="11.6061954"><ele>375.0</ele><time>2026-04-20T13:55:14.357Z</time></trkpt><trkpt lat="43.1100501" lon="11.60627"><ele>375.0</ele><time>2026-04-20T13:55:15.356Z</time></trkpt><trkpt lat="43.110124" lon="11.6063476"><ele>375.0</ele><time>2026-04-20T13:55:16.356Z</time></trkpt><trkpt lat="43.1101975" lon="11.6064242"><ele>374.5</ele><time>2026-04-20T13:55:17.357Z</time></trkpt><trkpt lat="43.110271" lon="11.6064992"><ele>374.0</ele><time>2026-04-20T13:55:18.356Z</time></trkpt><trkpt lat="43.1103431" lon="11.6065688"><ele>373.5</ele><time>2026-04-20T13:55:19.356Z</time></trkpt><trkpt lat="43.1104116" lon="11.606634"><ele>373.0</ele><time>2026-04-20T13:55:20.356Z</time></trkpt><trkpt lat="43.1104787" lon="11.6066964"><ele>372.5</ele><time>2026-04-20T13:55:21.356Z</time></trkpt><trkpt lat="43.1105494" lon="11.6067468"><ele>372.0</ele><time>2026-04-20T13:55:22.356Z</time></trkpt><trkpt lat="43.1106321" lon="11.6067891"><ele>372.0</ele><time>2026-04-20T13:55:23.356Z</time></trkpt><trkpt lat="43.1107233" lon="11.6068227"><ele>372.0</ele><time>2026-04-20T13:55:24.356Z</time></trkpt><trkpt lat="43.1108145" lon="11.6068573"><ele>372.0</ele><time>2026-04-20T13:55:25.356Z</time></trkpt><trkpt lat="43.1108976" lon="11.6068967"><ele>372.0</ele><time>2026-04-20T13:55:26.356Z</time></trkpt><trkpt lat="43.1109729" lon="11.6069464"><ele>372.0</ele><time>2026-04-20T13:55:27.356Z</time></trkpt><trkpt lat="43.1110475" lon="11.6070067"><ele>372.0</ele><time>2026-04-20T13:55:28.357Z</time></trkpt><trkpt lat="43.1111246" lon="11.6070757"><ele>370.6</ele><time>2026-04-20T13:55:29.356Z</time></trkpt><trkpt lat="43.1112032" lon="11.6071488"><ele>369.20000000000005</ele><time>2026-04-20T13:55:30.356Z</time></trkpt><trkpt lat="43.1112838" lon="11.6072243"><ele>367.8</ele><time>2026-04-20T13:55:31.356Z</time></trkpt><trkpt lat="43.1113642" lon="11.6072995"><ele>366.4</ele><time>2026-04-20T13:55:32.356Z</time></trkpt><trkpt lat="43.1114453" lon="11.6073763"><ele>365.0</ele><time>2026-04-20T13:55:33.356Z</time></trkpt><trkpt lat="43.1115293" lon="11.6074541"><ele>366.8</ele><time>2026-04-20T13:55:34.357Z</time></trkpt><trkpt lat="43.1116139" lon="11.6075326"><ele>368.6</ele><time>2026-04-20T13:55:35.356Z</time></trkpt><trkpt lat="43.1116974" lon="11.6076095"><ele>370.4</ele><time>2026-04-20T13:55:36.356Z</time></trkpt><trkpt lat="43.1117774" lon="11.6076819"><ele>372.2</ele><time>2026-04-20T13:55:37.356Z</time></trkpt><trkpt lat="43.1118514" lon="11.6077473"><ele>374.0</ele><time>2026-04-20T13:55:38.356Z</time></trkpt><trkpt lat="43.1119207" lon="11.6078038"><ele>372.5</ele><time>2026-04-20T13:55:39.357Z</time></trkpt><trkpt lat="43.1119905" lon="11.6078586"><ele>371.0</ele><time>2026-04-20T13:55:40.356Z</time></trkpt><trkpt lat="43.1120633" lon="11.607918"><ele>369.5</ele><time>2026-04-20T13:55:41.356Z</time></trkpt><trkpt lat="43.1121376" lon="11.6079826"><ele>368.0</ele><time>2026-04-20T13:55:42.356Z</time></trkpt><trkpt lat="43.1122103" lon="11.6080496"><ele>366.5</ele><time>2026-04-20T13:55:43.356Z</time></trkpt><trkpt lat="43.1122815" lon="11.6081188"><ele>365.0</ele><time>2026-04-20T13:55:44.356Z</time></trkpt><trkpt lat="43.1123514" lon="11.6081914"><ele>365.0</ele><time>2026-04-20T13:55:45.356Z</time></trkpt><trkpt lat="43.1124205" lon="11.6082674"><ele>365.0</ele><time>2026-04-20T13:55:46.356Z</time></trkpt><trkpt lat="43.1124925" lon="11.6083436"><ele>365.0</ele><time>2026-04-20T13:55:47.356Z</time></trkpt><trkpt lat="43.1125669" lon="11.6084204"><ele>365.0</ele><time>2026-04-20T13:55:48.356Z</time></trkpt><trkpt lat="43.1126439" lon="11.6085039"><ele>365.0</ele><time>2026-04-20T13:55:49.356Z</time></trkpt><trkpt lat="43.1127197" lon="11.6085944"><ele>364.0</ele><time>2026-04-20T13:55:50.356Z</time></trkpt><trkpt lat="43.1127911" lon="11.6086854"><ele>363.0</ele><time>2026-04-20T13:55:51.356Z</time></trkpt><trkpt lat="43.1128544" lon="11.608781"><ele>362.0</ele><time>2026-04-20T13:55:52.357Z</time></trkpt><trkpt lat="43.1129119" lon="11.6088786"><ele>361.0</ele><time>2026-04-20T13:55:53.357Z</time></trkpt><trkpt lat="43.1129668" lon="11.6089771"><ele>360.0</ele><time>2026-04-20T13:55:54.356Z</time></trkpt><trkpt lat="43.1130202" lon="11.609079"><ele>360.0</ele><time>2026-04-20T13:55:55.357Z</time></trkpt><trkpt lat="43.1130712" lon="11.6091879"><ele>360.0</ele><time>2026-04-20T13:55:56.357Z</time></trkpt><trkpt lat="43.1131182" lon="11.6092995"><ele>360.0</ele><time>2026-04-20T13:55:57.356Z</time></trkpt><trkpt lat="43.1131626" lon="11.6094078"><ele>360.0</ele><time>2026-04-20T13:55:58.356Z</time></trkpt><trkpt lat="43.113202" lon="11.6095192"><ele>360.0</ele><time>2026-04-20T13:55:59.357Z</time></trkpt><trkpt lat="43.1132405" lon="11.6096339"><ele>361.8</ele><time>2026-04-20T13:56:00.356Z</time></trkpt><trkpt lat="43.1132772" lon="11.6097469"><ele>363.6</ele><time>2026-04-20T13:56:01.356Z</time></trkpt><trkpt lat="43.1133134" lon="11.6098599"><ele>365.4</ele><time>2026-04-20T13:56:02.358Z</time></trkpt><trkpt lat="43.1133525" lon="11.6099744"><ele>367.2</ele><time>2026-04-20T13:56:03.357Z</time></trkpt><trkpt lat="43.1133985" lon="11.6100854"><ele>369.0</ele><time>2026-04-20T13:56:04.357Z</time></trkpt><trkpt lat="43.1134518" lon="11.6101925"><ele>369.0</ele><time>2026-04-20T13:56:05.357Z</time></trkpt><trkpt lat="43.1135075" lon="11.6102954"><ele>369.0</ele><time>2026-04-20T13:56:06.357Z</time></trkpt><trkpt lat="43.1135646" lon="11.6103962"><ele>369.0</ele><time>2026-04-20T13:56:07.357Z</time></trkpt><trkpt lat="43.1136191" lon="11.6104941"><ele>369.0</ele><time>2026-04-20T13:56:08.357Z</time></trkpt><trkpt lat="43.1136706" lon="11.6105897"><ele>369.0</ele><time>2026-04-20T13:56:09.357Z</time></trkpt><trkpt lat="43.1137226" lon="11.610689"><ele>367.8333333333333</ele><time>2026-04-20T13:56:10.358Z</time></trkpt><trkpt lat="43.1137743" lon="11.6107949"><ele>366.6666666666667</ele><time>2026-04-20T13:56:11.357Z</time></trkpt><trkpt lat="43.1138272" lon="11.610897"><ele>365.5</ele><time>2026-04-20T13:56:12.358Z</time></trkpt><trkpt lat="43.1138753" lon="11.6109876"><ele>364.33333333333337</ele><time>2026-04-20T13:56:13.357Z</time></trkpt><trkpt lat="43.1139228" lon="11.6110657"><ele>363.1666666666667</ele><time>2026-04-20T13:56:14.357Z</time></trkpt><trkpt lat="43.1139775" lon="11.611139"><ele>362.0</ele><time>2026-04-20T13:56:15.357Z</time></trkpt><trkpt lat="43.1140408" lon="11.6112111"><ele>363.0</ele><time>2026-04-20T13:56:16.358Z</time></trkpt><trkpt lat="43.1141102" lon="11.6112817"><ele>364.0</ele><time>2026-04-20T13:56:17.358Z</time></trkpt><trkpt lat="43.1141824" lon="11.6113513"><ele>365.0</ele><time>2026-04-20T13:56:18.357Z</time></trkpt><trkpt lat="43.1142534" lon="11.6114263"><ele>366.0</ele><time>2026-04-20T13:56:19.357Z</time></trkpt><trkpt lat="43.1143177" lon="11.611508"><ele>367.0</ele><time>2026-04-20T13:56:20.357Z</time></trkpt><trkpt lat="43.1143759" lon="11.6115981"><ele>368.0</ele><time>2026-04-20T13:56:21.357Z</time></trkpt><trkpt lat="43.1144269" lon="11.6116881"><ele>368.0</ele><time>2026-04-20T13:56:22.357Z</time></trkpt><trkpt lat="43.1144755" lon="11.6117817"><ele>368.0</ele><time>2026-04-20T13:56:23.357Z</time></trkpt><trkpt lat="43.1145258" lon="11.6118776"><ele>368.0</ele><time>2026-04-20T13:56:24.357Z</time></trkpt><trkpt lat="43.1145751" lon="11.6119777"><ele>368.0</ele><time>2026-04-20T13:56:25.357Z</time></trkpt><trkpt lat="43.1146169" lon="11.6120841"><ele>368.0</ele><time>2026-04-20T13:56:26.357Z</time></trkpt><trkpt lat="43.1146479" lon="11.6122"><ele>368.0</ele><time>2026-04-20T13:56:27.357Z</time></trkpt><trkpt lat="43.1146703" lon="11.6123184"><ele>366.6666666666667</ele><time>2026-04-20T13:56:28.357Z</time></trkpt><trkpt lat="43.1146894" lon="11.6124335"><ele>365.33333333333337</ele><time>2026-04-20T13:56:29.357Z</time></trkpt><trkpt lat="43.1147106" lon="11.6125504"><ele>364.0</ele><time>2026-04-20T13:56:30.358Z</time></trkpt><trkpt lat="43.114736" lon="11.6126576"><ele>362.6666666666667</ele><time>2026-04-20T13:56:31.357Z</time></trkpt><trkpt lat="43.1147671" lon="11.612752"><ele>361.3333333333333</ele><time>2026-04-20T13:56:32.357Z</time></trkpt><trkpt lat="43.1148078" lon="11.6128401"><ele>360.0</ele><time>2026-04-20T13:56:33.357Z</time></trkpt><trkpt lat="43.1148602" lon="11.6129267"><ele>361.6666666666667</ele><time>2026-04-20T13:56:34.357Z</time></trkpt><trkpt lat="43.1149206" lon="11.6130145"><ele>363.3333333333333</ele><time>2026-04-20T13:56:35.357Z</time></trkpt><trkpt lat="43.1149814" lon="11.6131069"><ele>365.0</ele><time>2026-04-20T13:56:36.357Z</time></trkpt><trkpt lat="43.1150404" lon="11.6132007"><ele>366.66666666666663</ele><time>2026-04-20T13:56:37.357Z</time></trkpt><trkpt lat="43.1150999" lon="11.613291"><ele>368.3333333333333</ele><time>2026-04-20T13:56:38.357Z</time></trkpt><trkpt lat="43.11516" lon="11.6133819"><ele>370.0</ele><time>2026-04-20T13:56:39.357Z</time></trkpt><trkpt lat="43.1152194" lon="11.6134721"><ele>370.0</ele><time>2026-04-20T13:56:40.357Z</time></trkpt><trkpt lat="43.115275" lon="11.6135642"><ele>370.0</ele><time>2026-04-20T13:56:41.357Z</time></trkpt><trkpt lat="43.1153298" lon="11.6136623"><ele>370.0</ele><time>2026-04-20T13:56:42.357Z</time></trkpt><trkpt lat="43.1153879" lon="11.6137608"><ele>370.0</ele><time>2026-04-20T13:56:43.358Z</time></trkpt><trkpt lat="43.1154507" lon="11.6138489"><ele>370.0</ele><time>2026-04-20T13:56:44.357Z</time></trkpt><trkpt lat="43.1155183" lon="11.6139248"><ele>370.0</ele><time>2026-04-20T13:56:45.357Z</time></trkpt><trkpt lat="43.1155898" lon="11.6139929"><ele>369.16666666666663</ele><time>2026-04-20T13:56:46.357Z</time></trkpt><trkpt lat="43.115663" lon="11.614058"><ele>368.3333333333333</ele><time>2026-04-20T13:56:47.357Z</time></trkpt><trkpt lat="43.115731" lon="11.6141176"><ele>367.5</ele><time>2026-04-20T13:56:48.357Z</time></trkpt><trkpt lat="43.1157935" lon="11.6141738"><ele>366.6666666666667</ele><time>2026-04-20T13:56:49.358Z</time></trkpt><trkpt lat="43.1158544" lon="11.6142363"><ele>365.83333333333337</ele><time>2026-04-20T13:56:50.358Z</time></trkpt><trkpt lat="43.1159112" lon="11.6143069"><ele>365.0</ele><time>2026-04-20T13:56:51.358Z</time></trkpt><trkpt lat="43.1159605" lon="11.6143862"><ele>366.83333333333337</ele><time>2026-04-20T13:56:52.358Z</time></trkpt><trkpt lat="43.1160017" lon="11.6144778"><ele>368.6666666666667</ele><time>2026-04-20T13:56:53.358Z</time></trkpt><trkpt lat="43.1160353" lon="11.6145806"><ele>370.5</ele><time>2026-04-20T13:56:54.358Z</time></trkpt><trkpt lat="43.1160642" lon="11.6146889"><ele>372.3333333333333</ele><time>2026-04-20T13:56:55.358Z</time></trkpt><trkpt lat="43.1160861" lon="11.6148015"><ele>374.16666666666663</ele><time>2026-04-20T13:56:56.358Z</time></trkpt><trkpt lat="43.1160978" lon="11.6149179"><ele>376.0</ele><time>2026-04-20T13:56:57.358Z</time></trkpt><trkpt lat="43.116099" lon="11.6150326"><ele>376.16666666666663</ele><time>2026-04-20T13:56:58.358Z</time></trkpt><trkpt lat="43.1160962" lon="11.6151469"><ele>376.3333333333333</ele><time>2026-04-20T13:56:59.358Z</time></trkpt><trkpt lat="43.1160928" lon="11.6152623"><ele>376.5</ele><time>2026-04-20T13:57:00.358Z</time></trkpt><trkpt lat="43.116089" lon="11.6153816"><ele>376.6666666666667</ele><time>2026-04-20T13:57:01.358Z</time></trkpt><trkpt lat="43.1160825" lon="11.615505"><ele>376.83333333333337</ele><time>2026-04-20T13:57:02.359Z</time></trkpt><trkpt lat="43.1160755" lon="11.6156324"><ele>377.0</ele><time>2026-04-20T13:57:03.358Z</time></trkpt><trkpt lat="43.1160674" lon="11.6157622"><ele>377.33333333333337</ele><time>2026-04-20T13:57:04.358Z</time></trkpt><trkpt lat="43.1160557" lon="11.6158931"><ele>377.6666666666667</ele><time>2026-04-20T13:57:05.358Z</time></trkpt><trkpt lat="43.1160395" lon="11.6160198"><ele>378.0</ele><time>2026-04-20T13:57:06.358Z</time></trkpt><trkpt lat="43.1160169" lon="11.6161334"><ele>378.3333333333333</ele><time>2026-04-20T13:57:07.358Z</time></trkpt><trkpt lat="43.1159883" lon="11.6162428"><ele>378.66666666666663</ele><time>2026-04-20T13:57:08.359Z</time></trkpt><trkpt lat="43.1159516" lon="11.616351"><ele>379.0</ele><time>2026-04-20T13:57:09.359Z</time></trkpt><trkpt lat="43.115906" lon="11.616456"><ele>379.3333333333333</ele><time>2026-04-20T13:57:10.358Z</time></trkpt><trkpt lat="43.1158581" lon="11.6165625"><ele>379.66666666666663</ele><time>2026-04-20T13:57:11.358Z</time></trkpt><trkpt lat="43.1158113" lon="11.6166708"><ele>380.0</ele><time>2026-04-20T13:57:12.358Z</time></trkpt><trkpt lat="43.1157644" lon="11.6167742"><ele>380.3333333333333</ele><time>2026-04-20T13:57:13.358Z</time></trkpt><trkpt lat="43.1157184" lon="11.616876"><ele>380.6666666666667</ele><time>2026-04-20T13:57:14.358Z</time></trkpt><trkpt lat="43.1156747" lon="11.6169707"><ele>381.0</ele><time>2026-04-20T13:57:15.358Z</time></trkpt><trkpt lat="43.1156314" lon="11.6170635"><ele>381.1666666666667</ele><time>2026-04-20T13:57:16.358Z</time></trkpt><trkpt lat="43.115587" lon="11.6171612"><ele>381.3333333333333</ele><time>2026-04-20T13:57:17.358Z</time></trkpt><trkpt lat="43.1155427" lon="11.617265"><ele>381.5</ele><time>2026-04-20T13:57:18.359Z</time></trkpt><trkpt lat="43.1154969" lon="11.6173719"><ele>381.66666666666663</ele><time>2026-04-20T13:57:19.358Z</time></trkpt><trkpt lat="43.1154495" lon="11.6174797"><ele>381.8333333333333</ele><time>2026-04-20T13:57:20.358Z</time></trkpt><trkpt lat="43.1154007" lon="11.6175893"><ele>382.0</ele><time>2026-04-20T13:57:21.358Z</time></trkpt><trkpt lat="43.1153513" lon="11.6176978"><ele>382.0</ele><time>2026-04-20T13:57:22.358Z</time></trkpt><trkpt lat="43.1153061" lon="11.6178055"><ele>382.0</ele><time>2026-04-20T13:57:23.358Z</time></trkpt><trkpt lat="43.115265" lon="11.6179166"><ele>382.0</ele><time>2026-04-20T13:57:24.358Z</time></trkpt><trkpt lat="43.1152275" lon="11.6180327"><ele>382.0</ele><time>2026-04-20T13:57:25.358Z</time></trkpt><trkpt lat="43.1151953" lon="11.6181454"><ele>382.0</ele><time>2026-04-20T13:57:26.359Z</time></trkpt><trkpt lat="43.1151703" lon="11.6182434"><ele>382.0</ele><time>2026-04-20T13:57:27.358Z</time></trkpt><trkpt lat="43.1151431" lon="11.6183795"><ele>383.16666666666663</ele><time>2026-04-20T13:57:29.358Z</time></trkpt><trkpt lat="43.1151311" lon="11.6184723"><ele>384.3333333333333</ele><time>2026-04-20T13:57:31.359Z</time></trkpt><trkpt lat="43.1151955" lon="11.6185419"><ele>385.5</ele><time>2026-04-20T13:57:34.358Z</time></trkpt><trkpt lat="43.1152941" lon="11.6185596"><ele>386.66666666666663</ele><time>2026-04-20T13:57:36.359Z</time></trkpt><trkpt lat="43.1153612" lon="11.6185792"><ele>387.8333333333333</ele><time>2026-04-20T13:57:37.359Z</time></trkpt><trkpt lat="43.1154339" lon="11.6186044"><ele>389.0</ele><time>2026-04-20T13:57:38.358Z</time></trkpt><trkpt lat="43.1155074" lon="11.6186287"><ele>389.0</ele><time>2026-04-20T13:57:39.359Z</time></trkpt><trkpt lat="43.1155796" lon="11.6186463"><ele>389.0</ele><time>2026-04-20T13:57:40.36Z</time></trkpt><trkpt lat="43.1156472" lon="11.6186538"><ele>389.0</ele><time>2026-04-20T13:57:41.358Z</time></trkpt><trkpt lat="43.1157126" lon="11.6186591"><ele>389.0</ele><time>2026-04-20T13:57:42.359Z</time></trkpt><trkpt lat="43.115778" lon="11.6186626"><ele>389.0</ele><time>2026-04-20T13:57:43.36Z</time></trkpt><trkpt lat="43.1158437" lon="11.6186646"><ele>389.0</ele><time>2026-04-20T13:57:44.359Z</time></trkpt><trkpt lat="43.1159114" lon="11.6186689"><ele>389.0</ele><time>2026-04-20T13:57:45.359Z</time></trkpt><trkpt lat="43.1159776" lon="11.6186734"><ele>388.49999999999994</ele><time>2026-04-20T13:57:46.359Z</time></trkpt><trkpt lat="43.1161042" lon="11.6186466"><ele>388.0</ele><time>2026-04-20T13:57:48.359Z</time></trkpt><trkpt lat="43.1161753" lon="11.6186196"><ele>387.5</ele><time>2026-04-20T13:57:49.359Z</time></trkpt><trkpt lat="43.1162475" lon="11.6185904"><ele>387.0</ele><time>2026-04-20T13:57:50.359Z</time></trkpt><trkpt lat="43.1163221" lon="11.6185613"><ele>386.49999999999994</ele><time>2026-04-20T13:57:51.359Z</time></trkpt><trkpt lat="43.1164027" lon="11.6185305"><ele>386.0</ele><time>2026-04-20T13:57:52.36Z</time></trkpt><trkpt lat="43.1164864" lon="11.6185045"><ele>384.66666666666663</ele><time>2026-04-20T13:57:53.359Z</time></trkpt><trkpt lat="43.1165709" lon="11.618485"><ele>383.3333333333333</ele><time>2026-04-20T13:57:54.359Z</time></trkpt><trkpt lat="43.1166566" lon="11.6184735"><ele>382.0</ele><time>2026-04-20T13:57:55.359Z</time></trkpt><trkpt lat="43.1167459" lon="11.6184706"><ele>380.66666666666663</ele><time>2026-04-20T13:57:56.36Z</time></trkpt><trkpt lat="43.1168381" lon="11.618475"><ele>379.3333333333333</ele><time>2026-04-20T13:57:57.36Z</time></trkpt><trkpt lat="43.1169273" lon="11.6184858"><ele>378.0</ele><time>2026-04-20T13:57:58.359Z</time></trkpt><trkpt lat="43.117014" lon="11.6184993"><ele>378.0</ele><time>2026-04-20T13:57:59.359Z</time></trkpt><trkpt lat="43.1170975" lon="11.6185117"><ele>378.0</ele><time>2026-04-20T13:58:00.359Z</time></trkpt><trkpt lat="43.1171804" lon="11.6185241"><ele>378.0</ele><time>2026-04-20T13:58:01.36Z</time></trkpt><trkpt lat="43.1172679" lon="11.6185351"><ele>378.0</ele><time>2026-04-20T13:58:02.359Z</time></trkpt><trkpt lat="43.1173602" lon="11.6185452"><ele>378.0</ele><time>2026-04-20T13:58:03.36Z</time></trkpt><trkpt lat="43.1174532" lon="11.6185557"><ele>378.0</ele><time>2026-04-20T13:58:04.359Z</time></trkpt><trkpt lat="43.1175464" lon="11.6185643"><ele>377.1666666666667</ele><time>2026-04-20T13:58:05.36Z</time></trkpt><trkpt lat="43.1176414" lon="11.6185725"><ele>376.3333333333333</ele><time>2026-04-20T13:58:06.359Z</time></trkpt><trkpt lat="43.1177323" lon="11.6185774"><ele>375.5</ele><time>2026-04-20T13:58:07.359Z</time></trkpt><trkpt lat="43.1178192" lon="11.618578"><ele>374.66666666666663</ele><time>2026-04-20T13:58:08.359Z</time></trkpt><trkpt lat="43.1179026" lon="11.6185749"><ele>373.8333333333333</ele><time>2026-04-20T13:58:09.359Z</time></trkpt><trkpt lat="43.1179825" lon="11.6185721"><ele>373.0</ele><time>2026-04-20T13:58:10.359Z</time></trkpt><trkpt lat="43.1180619" lon="11.6185729"><ele>373.0</ele><time>2026-04-20T13:58:11.359Z</time></trkpt><trkpt lat="43.118141" lon="11.6185766"><ele>373.0</ele><time>2026-04-20T13:58:12.359Z</time></trkpt><trkpt lat="43.1182195" lon="11.6185806"><ele>373.0</ele><time>2026-04-20T13:58:13.359Z</time></trkpt><trkpt lat="43.1182952" lon="11.6185831"><ele>373.0</ele><time>2026-04-20T13:58:14.359Z</time></trkpt><trkpt lat="43.1183677" lon="11.6185823"><ele>373.0</ele><time>2026-04-20T13:58:15.36Z</time></trkpt><trkpt lat="43.1184483" lon="11.6185834"><ele>373.0</ele><time>2026-04-20T13:58:16.36Z</time></trkpt><trkpt lat="43.1185392" lon="11.6185896"><ele>372.59999999999997</ele><time>2026-04-20T13:58:17.36Z</time></trkpt><trkpt lat="43.1186336" lon="11.6185979"><ele>372.2</ele><time>2026-04-20T13:58:18.359Z</time></trkpt><trkpt lat="43.1187286" lon="11.6186053"><ele>371.8</ele><time>2026-04-20T13:58:19.359Z</time></trkpt><trkpt lat="43.1188267" lon="11.6186141"><ele>371.4</ele><time>2026-04-20T13:58:20.359Z</time></trkpt><trkpt lat="43.1189235" lon="11.6186229"><ele>371.0</ele><time>2026-04-20T13:58:21.36Z</time></trkpt><trkpt lat="43.1190204" lon="11.6186345"><ele>370.6666666666667</ele><time>2026-04-20T13:58:22.359Z</time></trkpt><trkpt lat="43.1191152" lon="11.618647"><ele>370.33333333333337</ele><time>2026-04-20T13:58:23.359Z</time></trkpt><trkpt lat="43.1192046" lon="11.6186576"><ele>370.0</ele><time>2026-04-20T13:58:24.359Z</time></trkpt><trkpt lat="43.1192914" lon="11.6186681"><ele>369.6666666666667</ele><time>2026-04-20T13:58:25.359Z</time></trkpt><trkpt lat="43.1193783" lon="11.6186817"><ele>369.3333333333333</ele><time>2026-04-20T13:58:26.359Z</time></trkpt><trkpt lat="43.1194667" lon="11.6186963"><ele>369.0</ele><time>2026-04-20T13:58:27.36Z</time></trkpt><trkpt lat="43.1195553" lon="11.6187073"><ele>369.0</ele><time>2026-04-20T13:58:28.359Z</time></trkpt><trkpt lat="43.1196462" lon="11.6187144"><ele>369.0</ele><time>2026-04-20T13:58:29.36Z</time></trkpt><trkpt lat="43.1197403" lon="11.6187196"><ele>369.0</ele><time>2026-04-20T13:58:30.359Z</time></trkpt><trkpt lat="43.1198345" lon="11.618726"><ele>369.0</ele><time>2026-04-20T13:58:31.36Z</time></trkpt><trkpt lat="43.1199266" lon="11.6187325"><ele>369.0</ele><time>2026-04-20T13:58:32.359Z</time></trkpt><trkpt lat="43.1200188" lon="11.6187385"><ele>370.0</ele><time>2026-04-20T13:58:33.36Z</time></trkpt><trkpt lat="43.1201118" lon="11.6187447"><ele>371.0</ele><time>2026-04-20T13:58:34.36Z</time></trkpt><trkpt lat="43.1202042" lon="11.618753"><ele>372.0</ele><time>2026-04-20T13:58:35.36Z</time></trkpt><trkpt lat="43.120293" lon="11.6187619"><ele>373.0</ele><time>2026-04-20T13:58:36.36Z</time></trkpt><trkpt lat="43.1203795" lon="11.6187711"><ele>374.0</ele><time>2026-04-20T13:58:37.36Z</time></trkpt><trkpt lat="43.1204648" lon="11.61878"><ele>375.0</ele><time>2026-04-20T13:58:38.36Z</time></trkpt><trkpt lat="43.1205509" lon="11.6187837"><ele>375.0</ele><time>2026-04-20T13:58:39.361Z</time></trkpt><trkpt lat="43.1206395" lon="11.6187751"><ele>375.0</ele><time>2026-04-20T13:58:40.361Z</time></trkpt><trkpt lat="43.1207252" lon="11.6187497"><ele>375.0</ele><time>2026-04-20T13:58:41.36Z</time></trkpt><trkpt lat="43.1208045" lon="11.618707"><ele>375.0</ele><time>2026-04-20T13:58:42.361Z</time></trkpt><trkpt lat="43.1208788" lon="11.6186522"><ele>375.0</ele><time>2026-04-20T13:58:43.36Z</time></trkpt><trkpt lat="43.1209483" lon="11.6185892"><ele>375.0</ele><time>2026-04-20T13:58:44.36Z</time></trkpt><trkpt lat="43.1210176" lon="11.6185183"><ele>376.0</ele><time>2026-04-20T13:58:45.36Z</time></trkpt><trkpt lat="43.1210863" lon="11.6184431"><ele>377.0</ele><time>2026-04-20T13:58:46.36Z</time></trkpt><trkpt lat="43.1211545" lon="11.6183643"><ele>378.0</ele><time>2026-04-20T13:58:47.361Z</time></trkpt><trkpt lat="43.1212278" lon="11.6182844"><ele>379.0</ele><time>2026-04-20T13:58:48.36Z</time></trkpt><trkpt lat="43.1213043" lon="11.6182057"><ele>380.0</ele><time>2026-04-20T13:58:49.36Z</time></trkpt><trkpt lat="43.1213819" lon="11.6181268"><ele>380.0</ele><time>2026-04-20T13:58:50.36Z</time></trkpt><trkpt lat="43.12146" lon="11.6180442"><ele>380.0</ele><time>2026-04-20T13:58:51.36Z</time></trkpt><trkpt lat="43.1215357" lon="11.6179647"><ele>380.0</ele><time>2026-04-20T13:58:52.36Z</time></trkpt><trkpt lat="43.1216055" lon="11.6178911"><ele>380.0</ele><time>2026-04-20T13:58:53.36Z</time></trkpt><trkpt lat="43.1216703" lon="11.6178213"><ele>380.0</ele><time>2026-04-20T13:58:54.36Z</time></trkpt><trkpt lat="43.1217332" lon="11.617755"><ele>380.0</ele><time>2026-04-20T13:58:55.36Z</time></trkpt><trkpt lat="43.1217984" lon="11.6176866"><ele>380.5</ele><time>2026-04-20T13:58:56.36Z</time></trkpt><trkpt lat="43.1218652" lon="11.617615"><ele>381.0</ele><time>2026-04-20T13:58:57.361Z</time></trkpt><trkpt lat="43.1219348" lon="11.6175427"><ele>381.5</ele><time>2026-04-20T13:58:58.36Z</time></trkpt><trkpt lat="43.1220044" lon="11.6174725"><ele>382.0</ele><time>2026-04-20T13:58:59.36Z</time></trkpt><trkpt lat="43.1220713" lon="11.6174041"><ele>382.5</ele><time>2026-04-20T13:59:00.36Z</time></trkpt><trkpt lat="43.1221378" lon="11.6173374"><ele>383.0</ele><time>2026-04-20T13:59:01.36Z</time></trkpt><trkpt lat="43.1222026" lon="11.6172737"><ele>383.0</ele><time>2026-04-20T13:59:02.36Z</time></trkpt><trkpt lat="43.1222668" lon="11.6172096"><ele>383.0</ele><time>2026-04-20T13:59:03.36Z</time></trkpt><trkpt lat="43.1223337" lon="11.6171424"><ele>383.0</ele><time>2026-04-20T13:59:04.361Z</time></trkpt><trkpt lat="43.1224004" lon="11.6170709"><ele>383.0</ele><time>2026-04-20T13:59:05.361Z</time></trkpt><trkpt lat="43.1224629" lon="11.6169957"><ele>383.0</ele><time>2026-04-20T13:59:06.36Z</time></trkpt><trkpt lat="43.1225222" lon="11.6169183"><ele>383.0</ele><time>2026-04-20T13:59:07.361Z</time></trkpt><trkpt lat="43.122585" lon="11.6168348"><ele>381.5</ele><time>2026-04-20T13:59:08.361Z</time></trkpt><trkpt lat="43.1226481" lon="11.6167465"><ele>380.0</ele><time>2026-04-20T13:59:09.36Z</time></trkpt><trkpt lat="43.1227084" lon="11.6166506"><ele>378.5</ele><time>2026-04-20T13:59:10.36Z</time></trkpt><trkpt lat="43.1227627" lon="11.6165561"><ele>377.0</ele><time>2026-04-20T13:59:11.36Z</time></trkpt><trkpt lat="43.1228138" lon="11.6164636"><ele>375.5</ele><time>2026-04-20T13:59:12.36Z</time></trkpt><trkpt lat="43.1228634" lon="11.6163715"><ele>374.0</ele><time>2026-04-20T13:59:13.36Z</time></trkpt><trkpt lat="43.1229088" lon="11.6162772"><ele>374.0</ele><time>2026-04-20T13:59:14.36Z</time></trkpt><trkpt lat="43.122953" lon="11.6161812"><ele>374.0</ele><time>2026-04-20T13:59:15.36Z</time></trkpt><trkpt lat="43.122996" lon="11.6160819"><ele>374.0</ele><time>2026-04-20T13:59:16.36Z</time></trkpt><trkpt lat="43.1230381" lon="11.6159773"><ele>374.0</ele><time>2026-04-20T13:59:17.361Z</time></trkpt><trkpt lat="43.1230809" lon="11.6158711"><ele>374.0</ele><time>2026-04-20T13:59:18.36Z</time></trkpt><trkpt lat="43.1231225" lon="11.6157681"><ele>374.0</ele><time>2026-04-20T13:59:19.36Z</time></trkpt><trkpt lat="43.1231643" lon="11.6156736"><ele>374.1666666666667</ele><time>2026-04-20T13:59:20.361Z</time></trkpt><trkpt lat="43.1232094" lon="11.6155842"><ele>374.33333333333337</ele><time>2026-04-20T13:59:21.36Z</time></trkpt><trkpt lat="43.1232555" lon="11.6154931"><ele>374.5</ele><time>2026-04-20T13:59:22.362Z</time></trkpt><trkpt lat="43.1233052" lon="11.615399"><ele>374.6666666666667</ele><time>2026-04-20T13:59:23.361Z</time></trkpt><trkpt lat="43.1233575" lon="11.6153036"><ele>374.8333333333333</ele><time>2026-04-20T13:59:24.361Z</time></trkpt><trkpt lat="43.1234104" lon="11.6152113"><ele>375.0</ele><time>2026-04-20T13:59:25.361Z</time></trkpt><trkpt lat="43.1234657" lon="11.6151214"><ele>376.1666666666667</ele><time>2026-04-20T13:59:26.361Z</time></trkpt><trkpt lat="43.1235189" lon="11.6150369"><ele>377.3333333333333</ele><time>2026-04-20T13:59:27.361Z</time></trkpt><trkpt lat="43.123572" lon="11.6149522"><ele>378.5</ele><time>2026-04-20T13:59:28.361Z</time></trkpt><trkpt lat="43.1236239" lon="11.6148693"><ele>379.66666666666663</ele><time>2026-04-20T13:59:29.361Z</time></trkpt><trkpt lat="43.1236758" lon="11.6147917"><ele>380.8333333333333</ele><time>2026-04-20T13:59:30.361Z</time></trkpt><trkpt lat="43.1237308" lon="11.6147187"><ele>382.0</ele><time>2026-04-20T13:59:31.361Z</time></trkpt><trkpt lat="43.1237907" lon="11.6146506"><ele>382.0</ele><time>2026-04-20T13:59:32.361Z</time></trkpt><trkpt lat="43.1238567" lon="11.6145879"><ele>382.0</ele><time>2026-04-20T13:59:33.361Z</time></trkpt><trkpt lat="43.1239294" lon="11.6145279"><ele>382.0</ele><time>2026-04-20T13:59:34.361Z</time></trkpt><trkpt lat="43.1240064" lon="11.6144736"><ele>382.0</ele><time>2026-04-20T13:59:35.361Z</time></trkpt><trkpt lat="43.1240861" lon="11.6144263"><ele>382.0</ele><time>2026-04-20T13:59:36.361Z</time></trkpt><trkpt lat="43.1241691" lon="11.6143881"><ele>382.0</ele><time>2026-04-20T13:59:37.361Z</time></trkpt><trkpt lat="43.124251" lon="11.614359"><ele>383.16666666666663</ele><time>2026-04-20T13:59:38.361Z</time></trkpt><trkpt lat="43.1243298" lon="11.6143354"><ele>384.3333333333333</ele><time>2026-04-20T13:59:39.361Z</time></trkpt><trkpt lat="43.1244104" lon="11.6143174"><ele>385.5</ele><time>2026-04-20T13:59:40.362Z</time></trkpt><trkpt lat="43.124493" lon="11.6142981"><ele>386.66666666666663</ele><time>2026-04-20T13:59:41.361Z</time></trkpt><trkpt lat="43.1245752" lon="11.6142782"><ele>387.8333333333333</ele><time>2026-04-20T13:59:42.361Z</time></trkpt><trkpt lat="43.1246534" lon="11.6142604"><ele>389.0</ele><time>2026-04-20T13:59:43.362Z</time></trkpt><trkpt lat="43.1247294" lon="11.614248"><ele>388.99999999999994</ele><time>2026-04-20T13:59:44.362Z</time></trkpt><trkpt lat="43.1248075" lon="11.6142425"><ele>389.0</ele><time>2026-04-20T13:59:45.361Z</time></trkpt><trkpt lat="43.1248895" lon="11.6142478"><ele>389.0</ele><time>2026-04-20T13:59:46.362Z</time></trkpt><trkpt lat="43.124975" lon="11.614265"><ele>389.0</ele><time>2026-04-20T13:59:47.362Z</time></trkpt><trkpt lat="43.1250563" lon="11.6142908"><ele>388.99999999999994</ele><time>2026-04-20T13:59:48.361Z</time></trkpt><trkpt lat="43.125135" lon="11.6143227"><ele>389.0</ele><time>2026-04-20T13:59:49.361Z</time></trkpt><trkpt lat="43.1252125" lon="11.6143605"><ele>387.8333333333333</ele><time>2026-04-20T13:59:50.362Z</time></trkpt><trkpt lat="43.1252891" lon="11.6144054"><ele>386.66666666666663</ele><time>2026-04-20T13:59:51.362Z</time></trkpt><trkpt lat="43.1253664" lon="11.6144515"><ele>385.5</ele><time>2026-04-20T13:59:52.362Z</time></trkpt><trkpt lat="43.1254459" lon="11.6144948"><ele>384.3333333333333</ele><time>2026-04-20T13:59:53.362Z</time></trkpt><trkpt lat="43.1255255" lon="11.6145309"><ele>383.16666666666663</ele><time>2026-04-20T13:59:54.361Z</time></trkpt><trkpt lat="43.1256069" lon="11.6145572"><ele>382.0</ele><time>2026-04-20T13:59:55.361Z</time></trkpt><trkpt lat="43.1256911" lon="11.6145726"><ele>381.16666666666663</ele><time>2026-04-20T13:59:56.361Z</time></trkpt><trkpt lat="43.1257729" lon="11.6145743"><ele>380.3333333333333</ele><time>2026-04-20T13:59:57.361Z</time></trkpt><trkpt lat="43.125854" lon="11.6145668"><ele>379.5</ele><time>2026-04-20T13:59:58.362Z</time></trkpt><trkpt lat="43.1259341" lon="11.6145532"><ele>378.6666666666667</ele><time>2026-04-20T13:59:59.361Z</time></trkpt><trkpt lat="43.1260174" lon="11.6145367"><ele>377.83333333333337</ele><time>2026-04-20T14:00:00.361Z</time></trkpt><trkpt lat="43.1261043" lon="11.6145196"><ele>377.0</ele><time>2026-04-20T14:00:01.361Z</time></trkpt><trkpt lat="43.1261873" lon="11.6145024"><ele>376.99999999999994</ele><time>2026-04-20T14:00:02.361Z</time></trkpt><trkpt lat="43.1262646" lon="11.61449"><ele>377.0</ele><time>2026-04-20T14:00:03.361Z</time></trkpt><trkpt lat="43.1263364" lon="11.6144812"><ele>377.0</ele><time>2026-04-20T14:00:04.361Z</time></trkpt><trkpt lat="43.1264064" lon="11.6144734"><ele>377.0</ele><time>2026-04-20T14:00:05.361Z</time></trkpt><trkpt lat="43.1264713" lon="11.6144662"><ele>377.0</ele><time>2026-04-20T14:00:06.361Z</time></trkpt><trkpt lat="43.1265386" lon="11.6144572"><ele>376.99999999999994</ele><time>2026-04-20T14:00:07.361Z</time></trkpt><trkpt lat="43.1266113" lon="11.6144514"><ele>377.0</ele><time>2026-04-20T14:00:08.361Z</time></trkpt><trkpt lat="43.1266852" lon="11.6144464"><ele>377.20000000000005</ele><time>2026-04-20T14:00:09.361Z</time></trkpt><trkpt lat="43.1267564" lon="11.6144433"><ele>377.4</ele><time>2026-04-20T14:00:10.361Z</time></trkpt><trkpt lat="43.1268236" lon="11.6144383"><ele>377.6</ele><time>2026-04-20T14:00:11.361Z</time></trkpt><trkpt lat="43.1268876" lon="11.6144319"><ele>377.79999999999995</ele><time>2026-04-20T14:00:12.361Z</time></trkpt><trkpt lat="43.1270107" lon="11.6144208"><ele>378.0</ele><time>2026-04-20T14:00:14.362Z</time></trkpt><trkpt lat="43.1271331" lon="11.6143979"><ele>378.0</ele><time>2026-04-20T14:00:16.362Z</time></trkpt><trkpt lat="43.1271982" lon="11.6143789"><ele>378.0</ele><time>2026-04-20T14:00:17.363Z</time></trkpt><trkpt lat="43.1272638" lon="11.6143484"><ele>378.0</ele><time>2026-04-20T14:00:18.362Z</time></trkpt><trkpt lat="43.1273281" lon="11.6143077"><ele>378.0</ele><time>2026-04-20T14:00:19.362Z</time></trkpt><trkpt lat="43.1273887" lon="11.6142547"><ele>378.0</ele><time>2026-04-20T14:00:20.363Z</time></trkpt><trkpt lat="43.1274383" lon="11.6141967"><ele>378.0</ele><time>2026-04-20T14:00:21.362Z</time></trkpt><trkpt lat="43.1275194" lon="11.6140747"><ele>377.57142857142856</ele><time>2026-04-20T14:00:23.362Z</time></trkpt><trkpt lat="43.1275635" lon="11.6140064"><ele>377.1428571428571</ele><time>2026-04-20T14:00:24.362Z</time></trkpt><trkpt lat="43.1276127" lon="11.6139384"><ele>376.7142857142857</ele><time>2026-04-20T14:00:25.362Z</time></trkpt><trkpt lat="43.1276617" lon="11.6138728"><ele>376.2857142857143</ele><time>2026-04-20T14:00:26.362Z</time></trkpt><trkpt lat="43.1277079" lon="11.6138069"><ele>375.85714285714283</ele><time>2026-04-20T14:00:27.362Z</time></trkpt><trkpt lat="43.1277544" lon="11.6137384"><ele>375.42857142857144</ele><time>2026-04-20T14:00:28.362Z</time></trkpt><trkpt lat="43.1278031" lon="11.6136679"><ele>375.0</ele><time>2026-04-20T14:00:29.363Z</time></trkpt><trkpt lat="43.1278537" lon="11.6135989"><ele>374.1666666666667</ele><time>2026-04-20T14:00:30.362Z</time></trkpt><trkpt lat="43.1279073" lon="11.613532"><ele>373.3333333333333</ele><time>2026-04-20T14:00:31.362Z</time></trkpt><trkpt lat="43.1279675" lon="11.6134724"><ele>372.5</ele><time>2026-04-20T14:00:32.362Z</time></trkpt><trkpt lat="43.1280347" lon="11.6134181"><ele>371.66666666666663</ele><time>2026-04-20T14:00:33.362Z</time></trkpt><trkpt lat="43.128104" lon="11.613366"><ele>370.8333333333333</ele><time>2026-04-20T14:00:34.362Z</time></trkpt><trkpt lat="43.1281703" lon="11.6133152"><ele>370.0</ele><time>2026-04-20T14:00:35.362Z</time></trkpt><trkpt lat="43.1282359" lon="11.6132649"><ele>369.71428571428567</ele><time>2026-04-20T14:00:36.362Z</time></trkpt><trkpt lat="43.1282985" lon="11.6132188"><ele>369.42857142857144</ele><time>2026-04-20T14:00:37.363Z</time></trkpt><trkpt lat="43.1283592" lon="11.613178"><ele>369.1428571428571</ele><time>2026-04-20T14:00:38.362Z</time></trkpt><trkpt lat="43.128425" lon="11.6131353"><ele>368.85714285714283</ele><time>2026-04-20T14:00:39.362Z</time></trkpt><trkpt lat="43.1284935" lon="11.6130919"><ele>368.57142857142856</ele><time>2026-04-20T14:00:40.363Z</time></trkpt><trkpt lat="43.1285623" lon="11.6130465"><ele>368.2857142857143</ele><time>2026-04-20T14:00:41.362Z</time></trkpt><trkpt lat="43.1286269" lon="11.613003"><ele>368.0</ele><time>2026-04-20T14:00:42.362Z</time></trkpt><trkpt lat="43.128685" lon="11.6129608"><ele>368.0</ele><time>2026-04-20T14:00:43.362Z</time></trkpt><trkpt lat="43.1287793" lon="11.6128473"><ele>368.0</ele><time>2026-04-20T14:00:45.362Z</time></trkpt><trkpt lat="43.1288137" lon="11.6127671"><ele>368.0</ele><time>2026-04-20T14:00:46.362Z</time></trkpt><trkpt lat="43.1288363" lon="11.6126787"><ele>368.0</ele><time>2026-04-20T14:00:47.362Z</time></trkpt><trkpt lat="43.1288387" lon="11.6125813"><ele>368.0</ele><time>2026-04-20T14:00:48.363Z</time></trkpt><trkpt lat="43.1288328" lon="11.612475"><ele>368.0</ele><time>2026-04-20T14:00:49.363Z</time></trkpt><trkpt lat="43.1288283" lon="11.6123597"><ele>366.59999999999997</ele><time>2026-04-20T14:00:50.362Z</time></trkpt><trkpt lat="43.1288279" lon="11.6122369"><ele>365.2</ele><time>2026-04-20T14:00:51.363Z</time></trkpt><trkpt lat="43.1288287" lon="11.6121093"><ele>363.8</ele><time>2026-04-20T14:00:52.362Z</time></trkpt><trkpt lat="43.1288302" lon="11.6119788"><ele>362.4</ele><time>2026-04-20T14:00:53.362Z</time></trkpt><trkpt lat="43.1288327" lon="11.6118437"><ele>361.0</ele><time>2026-04-20T14:00:54.362Z</time></trkpt><trkpt lat="43.1288376" lon="11.6117023"><ele>359.6</ele><time>2026-04-20T14:00:55.362Z</time></trkpt><trkpt lat="43.1288443" lon="11.6115558"><ele>358.20000000000005</ele><time>2026-04-20T14:00:56.362Z</time></trkpt><trkpt lat="43.1288507" lon="11.6114103"><ele>356.79999999999995</ele><time>2026-04-20T14:00:57.362Z</time></trkpt><trkpt lat="43.1288564" lon="11.6112672"><ele>355.4</ele><time>2026-04-20T14:00:58.362Z</time></trkpt><trkpt lat="43.1288624" lon="11.6111266"><ele>354.0</ele><time>2026-04-20T14:00:59.362Z</time></trkpt><trkpt lat="43.1288707" lon="11.610987"><ele>353.6</ele><time>2026-04-20T14:01:00.362Z</time></trkpt><trkpt lat="43.1288792" lon="11.6108477"><ele>353.2</ele><time>2026-04-20T14:01:01.363Z</time></trkpt><trkpt lat="43.1288848" lon="11.6107081"><ele>352.8</ele><time>2026-04-20T14:01:02.362Z</time></trkpt><trkpt lat="43.128886" lon="11.6105708"><ele>352.40000000000003</ele><time>2026-04-20T14:01:03.363Z</time></trkpt><trkpt lat="43.1288827" lon="11.6104343"><ele>352.0</ele><time>2026-04-20T14:01:04.363Z</time></trkpt><trkpt lat="43.1288701" lon="11.6102974"><ele>353.40000000000003</ele><time>2026-04-20T14:01:05.363Z</time></trkpt><trkpt lat="43.1288454" lon="11.6101631"><ele>354.8</ele><time>2026-04-20T14:01:06.363Z</time></trkpt><trkpt lat="43.1288094" lon="11.6100337"><ele>356.2</ele><time>2026-04-20T14:01:07.363Z</time></trkpt><trkpt lat="43.1287707" lon="11.6099049"><ele>357.6</ele><time>2026-04-20T14:01:08.364Z</time></trkpt><trkpt lat="43.1287326" lon="11.6097793"><ele>359.0</ele><time>2026-04-20T14:01:09.363Z</time></trkpt><trkpt lat="43.1286921" lon="11.6096601"><ele>359.0</ele><time>2026-04-20T14:01:10.363Z</time></trkpt><trkpt lat="43.1286454" lon="11.6095459"><ele>359.0</ele><time>2026-04-20T14:01:11.363Z</time></trkpt><trkpt lat="43.128592" lon="11.6094338"><ele>359.0</ele><time>2026-04-20T14:01:12.363Z</time></trkpt><trkpt lat="43.1285361" lon="11.6093217"><ele>359.0</ele><time>2026-04-20T14:01:13.363Z</time></trkpt><trkpt lat="43.1284819" lon="11.6092119"><ele>359.0</ele><time>2026-04-20T14:01:14.363Z</time></trkpt><trkpt lat="43.1284302" lon="11.6090992"><ele>359.4</ele><time>2026-04-20T14:01:15.364Z</time></trkpt><trkpt lat="43.1283817" lon="11.6089801"><ele>359.79999999999995</ele><time>2026-04-20T14:01:16.363Z</time></trkpt><trkpt lat="43.1283371" lon="11.6088557"><ele>360.20000000000005</ele><time>2026-04-20T14:01:17.363Z</time></trkpt><trkpt lat="43.1282979" lon="11.6087321"><ele>360.6</ele><time>2026-04-20T14:01:18.364Z</time></trkpt><trkpt lat="43.1282588" lon="11.6086156"><ele>361.0</ele><time>2026-04-20T14:01:19.363Z</time></trkpt><trkpt lat="43.1282153" lon="11.6085038"><ele>361.0</ele><time>2026-04-20T14:01:20.363Z</time></trkpt><trkpt lat="43.1281643" lon="11.6083948"><ele>361.0</ele><time>2026-04-20T14:01:21.364Z</time></trkpt><trkpt lat="43.1281037" lon="11.6082859"><ele>361.0</ele><time>2026-04-20T14:01:22.363Z</time></trkpt><trkpt lat="43.1280385" lon="11.6081804"><ele>361.0</ele><time>2026-04-20T14:01:23.363Z</time></trkpt><trkpt lat="43.1279691" lon="11.6080815"><ele>361.0</ele><time>2026-04-20T14:01:24.364Z</time></trkpt><trkpt lat="43.127901" lon="11.607984"><ele>361.0</ele><time>2026-04-20T14:01:25.363Z</time></trkpt><trkpt lat="43.1278393" lon="11.6078938"><ele>361.0</ele><time>2026-04-20T14:01:26.363Z</time></trkpt><trkpt lat="43.1277893" lon="11.607813"><ele>361.0</ele><time>2026-04-20T14:01:27.363Z</time></trkpt><trkpt lat="43.1277505" lon="11.6077368"><ele>361.0</ele><time>2026-04-20T14:01:28.363Z</time></trkpt><trkpt lat="43.1277113" lon="11.6076471"><ele>361.0</ele><time>2026-04-20T14:01:29.363Z</time></trkpt><trkpt lat="43.1276726" lon="11.6075502"><ele>361.0</ele><time>2026-04-20T14:01:30.363Z</time></trkpt><trkpt lat="43.1276345" lon="11.6074494"><ele>362.5</ele><time>2026-04-20T14:01:31.363Z</time></trkpt><trkpt lat="43.1276006" lon="11.607346"><ele>364.0</ele><time>2026-04-20T14:01:32.363Z</time></trkpt><trkpt lat="43.1275693" lon="11.607239"><ele>365.5</ele><time>2026-04-20T14:01:33.363Z</time></trkpt><trkpt lat="43.1275401" lon="11.6071353"><ele>367.0</ele><time>2026-04-20T14:01:34.363Z</time></trkpt><trkpt lat="43.1275073" lon="11.6070353"><ele>368.5</ele><time>2026-04-20T14:01:35.363Z</time></trkpt><trkpt lat="43.1274788" lon="11.606946"><ele>370.0</ele><time>2026-04-20T14:01:36.363Z</time></trkpt><trkpt lat="43.1274532" lon="11.6068561"><ele>370.3333333333333</ele><time>2026-04-20T14:01:37.363Z</time></trkpt><trkpt lat="43.1274276" lon="11.6067619"><ele>370.66666666666663</ele><time>2026-04-20T14:01:38.363Z</time></trkpt><trkpt lat="43.1274029" lon="11.6066642"><ele>371.0</ele><time>2026-04-20T14:01:39.363Z</time></trkpt><trkpt lat="43.127381" lon="11.606565"><ele>371.3333333333333</ele><time>2026-04-20T14:01:40.363Z</time></trkpt><trkpt lat="43.1273637" lon="11.6064634"><ele>371.6666666666667</ele><time>2026-04-20T14:01:41.363Z</time></trkpt><trkpt lat="43.1273491" lon="11.6063628"><ele>372.0</ele><time>2026-04-20T14:01:42.363Z</time></trkpt><trkpt lat="43.1273352" lon="11.606261"><ele>370.3333333333333</ele><time>2026-04-20T14:01:43.364Z</time></trkpt><trkpt lat="43.1273191" lon="11.6061579"><ele>368.6666666666667</ele><time>2026-04-20T14:01:44.363Z</time></trkpt><trkpt lat="43.1272939" lon="11.6060578"><ele>367.0</ele><time>2026-04-20T14:01:45.363Z</time></trkpt><trkpt lat="43.1272611" lon="11.6059521"><ele>365.33333333333337</ele><time>2026-04-20T14:01:46.363Z</time></trkpt><trkpt lat="43.1272188" lon="11.605848"><ele>363.6666666666667</ele><time>2026-04-20T14:01:47.363Z</time></trkpt><trkpt lat="43.1271686" lon="11.6057476"><ele>362.0</ele><time>2026-04-20T14:01:48.363Z</time></trkpt><trkpt lat="43.1271096" lon="11.6056579"><ele>362.0</ele><time>2026-04-20T14:01:49.363Z</time></trkpt><trkpt lat="43.1270423" lon="11.6055805"><ele>362.0</ele><time>2026-04-20T14:01:50.364Z</time></trkpt><trkpt lat="43.1269718" lon="11.6055106"><ele>362.0</ele><time>2026-04-20T14:01:51.364Z</time></trkpt><trkpt lat="43.1269" lon="11.6054447"><ele>362.0</ele><time>2026-04-20T14:01:52.364Z</time></trkpt><trkpt lat="43.1268275" lon="11.605379"><ele>362.0</ele><time>2026-04-20T14:01:53.364Z</time></trkpt><trkpt lat="43.1267516" lon="11.6053151"><ele>362.0</ele><time>2026-04-20T14:01:54.364Z</time></trkpt><trkpt lat="43.1266762" lon="11.6052503"><ele>362.20000000000005</ele><time>2026-04-20T14:01:55.365Z</time></trkpt><trkpt lat="43.1266032" lon="11.6051794"><ele>362.4</ele><time>2026-04-20T14:01:56.364Z</time></trkpt><trkpt lat="43.1265302" lon="11.6050988"><ele>362.6</ele><time>2026-04-20T14:01:57.364Z</time></trkpt><trkpt lat="43.1264593" lon="11.6050049"><ele>362.79999999999995</ele><time>2026-04-20T14:01:58.365Z</time></trkpt><trkpt lat="43.1263951" lon="11.6049043"><ele>363.0</ele><time>2026-04-20T14:01:59.364Z</time></trkpt><trkpt lat="43.1263405" lon="11.6048045"><ele>362.6666666666667</ele><time>2026-04-20T14:02:00.364Z</time></trkpt><trkpt lat="43.1262961" lon="11.6047086"><ele>362.3333333333333</ele><time>2026-04-20T14:02:01.364Z</time></trkpt><trkpt lat="43.1262571" lon="11.6046115"><ele>362.0</ele><time>2026-04-20T14:02:02.364Z</time></trkpt><trkpt lat="43.1262155" lon="11.6045045"><ele>361.66666666666663</ele><time>2026-04-20T14:02:03.364Z</time></trkpt><trkpt lat="43.1261729" lon="11.6043921"><ele>361.3333333333333</ele><time>2026-04-20T14:02:04.364Z</time></trkpt><trkpt lat="43.1261297" lon="11.6042793"><ele>361.0</ele><time>2026-04-20T14:02:05.364Z</time></trkpt><trkpt lat="43.1260844" lon="11.6041638"><ele>361.8</ele><time>2026-04-20T14:02:06.364Z</time></trkpt><trkpt lat="43.1260333" lon="11.604042"><ele>362.6</ele><time>2026-04-20T14:02:07.364Z</time></trkpt><trkpt lat="43.1259799" lon="11.6039157"><ele>363.4</ele><time>2026-04-20T14:02:08.364Z</time></trkpt><trkpt lat="43.125925" lon="11.6037846"><ele>364.2</ele><time>2026-04-20T14:02:09.364Z</time></trkpt><trkpt lat="43.1258684" lon="11.6036459"><ele>365.0</ele><time>2026-04-20T14:02:10.364Z</time></trkpt><trkpt lat="43.1258125" lon="11.6035071"><ele>365.0</ele><time>2026-04-20T14:02:11.364Z</time></trkpt><trkpt lat="43.1257578" lon="11.6033648"><ele>365.0</ele><time>2026-04-20T14:02:12.365Z</time></trkpt><trkpt lat="43.1257016" lon="11.6032189"><ele>365.0</ele><time>2026-04-20T14:02:13.364Z</time></trkpt><trkpt lat="43.1256427" lon="11.6030724"><ele>365.0</ele><time>2026-04-20T14:02:14.363Z</time></trkpt><trkpt lat="43.1255817" lon="11.6029302"><ele>364.25</ele><time>2026-04-20T14:02:15.364Z</time></trkpt><trkpt lat="43.1255204" lon="11.6027893"><ele>363.5</ele><time>2026-04-20T14:02:16.364Z</time></trkpt><trkpt lat="43.1254591" lon="11.6026487"><ele>362.75</ele><time>2026-04-20T14:02:17.364Z</time></trkpt><trkpt lat="43.1253992" lon="11.6025076"><ele>362.0</ele><time>2026-04-20T14:02:18.364Z</time></trkpt><trkpt lat="43.1253414" lon="11.6023711"><ele>362.0</ele><time>2026-04-20T14:02:19.364Z</time></trkpt><trkpt lat="43.1252821" lon="11.6022329"><ele>362.0</ele><time>2026-04-20T14:02:20.364Z</time></trkpt><trkpt lat="43.1252222" lon="11.6020844"><ele>362.0</ele><time>2026-04-20T14:02:21.364Z</time></trkpt><trkpt lat="43.1251639" lon="11.6019334"><ele>362.0</ele><time>2026-04-20T14:02:22.364Z</time></trkpt><trkpt lat="43.1251049" lon="11.6017829"><ele>363.25</ele><time>2026-04-20T14:02:23.364Z</time></trkpt><trkpt lat="43.1250461" lon="11.6016344"><ele>364.5</ele><time>2026-04-20T14:02:24.364Z</time></trkpt><trkpt lat="43.1249915" lon="11.6014827"><ele>365.75</ele><time>2026-04-20T14:02:25.364Z</time></trkpt><trkpt lat="43.1249406" lon="11.6013249"><ele>367.0</ele><time>2026-04-20T14:02:26.364Z</time></trkpt><trkpt lat="43.1248929" lon="11.6011744"><ele>366.0</ele><time>2026-04-20T14:02:27.364Z</time></trkpt><trkpt lat="43.1248451" lon="11.6010307"><ele>365.0</ele><time>2026-04-20T14:02:28.364Z</time></trkpt><trkpt lat="43.1247939" lon="11.6008838"><ele>364.0</ele><time>2026-04-20T14:02:29.364Z</time></trkpt><trkpt lat="43.1247406" lon="11.6007331"><ele>363.0</ele><time>2026-04-20T14:02:30.364Z</time></trkpt><trkpt lat="43.1246833" lon="11.6005868"><ele>363.0</ele><time>2026-04-20T14:02:31.364Z</time></trkpt><trkpt lat="43.1246246" lon="11.6004499"><ele>363.0</ele><time>2026-04-20T14:02:32.364Z</time></trkpt><trkpt lat="43.124563" lon="11.6003299"><ele>363.0</ele><time>2026-04-20T14:02:33.364Z</time></trkpt><trkpt lat="43.124496" lon="11.6002088"><ele>363.0</ele><time>2026-04-20T14:02:34.365Z</time></trkpt><trkpt lat="43.1244256" lon="11.6000781"><ele>364.59999999999997</ele><time>2026-04-20T14:02:35.365Z</time></trkpt><trkpt lat="43.1243515" lon="11.5999475"><ele>366.2</ele><time>2026-04-20T14:02:36.364Z</time></trkpt><trkpt lat="43.1242833" lon="11.599829"><ele>367.8</ele><time>2026-04-20T14:02:37.364Z</time></trkpt><trkpt lat="43.1242236" lon="11.5997191"><ele>369.4</ele><time>2026-04-20T14:02:38.364Z</time></trkpt><trkpt lat="43.1241719" lon="11.5996173"><ele>371.0</ele><time>2026-04-20T14:02:39.365Z</time></trkpt><trkpt lat="43.1241278" lon="11.5995273"><ele>370.83333333333337</ele><time>2026-04-20T14:02:40.364Z</time></trkpt><trkpt lat="43.1240868" lon="11.5994439"><ele>370.6666666666667</ele><time>2026-04-20T14:02:41.364Z</time></trkpt><trkpt lat="43.1240487" lon="11.5993554"><ele>370.5</ele><time>2026-04-20T14:02:42.364Z</time></trkpt><trkpt lat="43.1240197" lon="11.5992506"><ele>370.3333333333333</ele><time>2026-04-20T14:02:43.366Z</time></trkpt><trkpt lat="43.1240072" lon="11.5991361"><ele>370.16666666666663</ele><time>2026-04-20T14:02:44.365Z</time></trkpt><trkpt lat="43.1240101" lon="11.5990187"><ele>370.0</ele><time>2026-04-20T14:02:45.365Z</time></trkpt><trkpt lat="43.1240366" lon="11.5988989"><ele>369.6</ele><time>2026-04-20T14:02:46.365Z</time></trkpt><trkpt lat="43.1240836" lon="11.5987817"><ele>369.2</ele><time>2026-04-20T14:02:47.365Z</time></trkpt><trkpt lat="43.1241433" lon="11.5986656"><ele>368.79999999999995</ele><time>2026-04-20T14:02:48.365Z</time></trkpt><trkpt lat="43.1242011" lon="11.598542"><ele>368.4</ele><time>2026-04-20T14:02:49.366Z</time></trkpt><trkpt lat="43.1242509" lon="11.5984118"><ele>368.0</ele><time>2026-04-20T14:02:50.365Z</time></trkpt><trkpt lat="43.1242954" lon="11.5982791"><ele>368.0</ele><time>2026-04-20T14:02:51.365Z</time></trkpt><trkpt lat="43.1243319" lon="11.5981541"><ele>368.0</ele><time>2026-04-20T14:02:52.366Z</time></trkpt><trkpt lat="43.124355" lon="11.5980348"><ele>368.0</ele><time>2026-04-20T14:02:53.365Z</time></trkpt><trkpt lat="43.1243626" lon="11.5979105"><ele>368.0</ele><time>2026-04-20T14:02:54.365Z</time></trkpt><trkpt lat="43.1243586" lon="11.5977767"><ele>368.0</ele><time>2026-04-20T14:02:55.365Z</time></trkpt><trkpt lat="43.1243554" lon="11.5976387"><ele>367.59999999999997</ele><time>2026-04-20T14:02:56.366Z</time></trkpt><trkpt lat="43.1243559" lon="11.5974975"><ele>367.2</ele><time>2026-04-20T14:02:57.366Z</time></trkpt><trkpt lat="43.1243584" lon="11.5973599"><ele>366.8</ele><time>2026-04-20T14:02:58.366Z</time></trkpt><trkpt lat="43.1243624" lon="11.5972293"><ele>366.4</ele><time>2026-04-20T14:02:59.366Z</time></trkpt><trkpt lat="43.124366" lon="11.5971036"><ele>366.0</ele><time>2026-04-20T14:03:00.365Z</time></trkpt><trkpt lat="43.1243716" lon="11.5969751"><ele>364.6</ele><time>2026-04-20T14:03:01.365Z</time></trkpt><trkpt lat="43.1243768" lon="11.5968421"><ele>363.20000000000005</ele><time>2026-04-20T14:03:02.365Z</time></trkpt><trkpt lat="43.124385" lon="11.5967007"><ele>361.79999999999995</ele><time>2026-04-20T14:03:03.365Z</time></trkpt><trkpt lat="43.124395" lon="11.5965614"><ele>360.4</ele><time>2026-04-20T14:03:04.366Z</time></trkpt><trkpt lat="43.124411" lon="11.596413"><ele>359.0</ele><time>2026-04-20T14:03:05.365Z</time></trkpt><trkpt lat="43.1244304" lon="11.5962638"><ele>359.0</ele><time>2026-04-20T14:03:06.366Z</time></trkpt><trkpt lat="43.1244496" lon="11.59612"><ele>359.0</ele><time>2026-04-20T14:03:07.365Z</time></trkpt><trkpt lat="43.1244656" lon="11.5959837"><ele>359.0</ele><time>2026-04-20T14:03:08.365Z</time></trkpt><trkpt lat="43.1244781" lon="11.5958471"><ele>359.0</ele><time>2026-04-20T14:03:09.365Z</time></trkpt><trkpt lat="43.1244874" lon="11.5957157"><ele>359.0</ele><time>2026-04-20T14:03:10.365Z</time></trkpt><trkpt lat="43.1244847" lon="11.5955905"><ele>359.0</ele><time>2026-04-20T14:03:11.365Z</time></trkpt><trkpt lat="43.1244705" lon="11.5954682"><ele>359.0</ele><time>2026-04-20T14:03:12.365Z</time></trkpt><trkpt lat="43.1244411" lon="11.5953444"><ele>359.0</ele><time>2026-04-20T14:03:13.365Z</time></trkpt><trkpt lat="43.1244042" lon="11.5952223"><ele>359.0</ele><time>2026-04-20T14:03:14.365Z</time></trkpt><trkpt lat="43.1243653" lon="11.5950994"><ele>359.0</ele><time>2026-04-20T14:03:15.365Z</time></trkpt><trkpt lat="43.1243283" lon="11.5949765"><ele>360.0</ele><time>2026-04-20T14:03:16.365Z</time></trkpt><trkpt lat="43.1242907" lon="11.5948506"><ele>361.0</ele><time>2026-04-20T14:03:17.367Z</time></trkpt><trkpt lat="43.1242534" lon="11.5947257"><ele>362.0</ele><time>2026-04-20T14:03:18.365Z</time></trkpt><trkpt lat="43.1242197" lon="11.5946183"><ele>363.0</ele><time>2026-04-20T14:03:19.366Z</time></trkpt><trkpt lat="43.1241874" lon="11.5945235"><ele>364.0</ele><time>2026-04-20T14:03:20.365Z</time></trkpt><trkpt lat="43.1241424" lon="11.5943762"><ele>364.4</ele><time>2026-04-20T14:03:22.365Z</time></trkpt><trkpt lat="43.1241027" lon="11.5942392"><ele>364.79999999999995</ele><time>2026-04-20T14:03:24.365Z</time></trkpt><trkpt lat="43.1240727" lon="11.5940922"><ele>365.20000000000005</ele><time>2026-04-20T14:03:26.365Z</time></trkpt><trkpt lat="43.1240654" lon="11.5940018"><ele>365.6</ele><time>2026-04-20T14:03:27.366Z</time></trkpt><trkpt lat="43.1240716" lon="11.593839"><ele>366.0</ele><time>2026-04-20T14:03:29.365Z</time></trkpt><trkpt lat="43.1240823" lon="11.5936703"><ele>366.75</ele><time>2026-04-20T14:03:31.365Z</time></trkpt><trkpt lat="43.1241026" lon="11.5934979"><ele>367.5</ele><time>2026-04-20T14:03:33.366Z</time></trkpt><trkpt lat="43.1241161" lon="11.5933451"><ele>368.25</ele><time>2026-04-20T14:03:35.366Z</time></trkpt><trkpt lat="43.1241461" lon="11.5932381"><ele>369.0</ele><time>2026-04-20T14:03:37.366Z</time></trkpt><trkpt lat="43.1242622" lon="11.593169"><ele>369.0</ele><time>2026-04-20T14:03:39.366Z</time></trkpt><trkpt lat="43.1243368" lon="11.5931417"><ele>369.0</ele><time>2026-04-20T14:03:40.367Z</time></trkpt><trkpt lat="43.1244163" lon="11.5931206"><ele>369.0</ele><time>2026-04-20T14:03:41.366Z</time></trkpt><trkpt lat="43.1245039" lon="11.5930944"><ele>369.0</ele><time>2026-04-20T14:03:42.366Z</time></trkpt><trkpt lat="43.1245832" lon="11.5930548"><ele>369.0</ele><time>2026-04-20T14:03:43.366Z</time></trkpt><trkpt lat="43.1246594" lon="11.5930194"><ele>369.0</ele><time>2026-04-20T14:03:44.366Z</time></trkpt><trkpt lat="43.1247361" lon="11.5929775"><ele>369.0</ele><time>2026-04-20T14:03:45.367Z</time></trkpt><trkpt lat="43.1248159" lon="11.5929301"><ele>369.0</ele><time>2026-04-20T14:03:46.366Z</time></trkpt><trkpt lat="43.1248972" lon="11.5928841"><ele>369.0</ele><time>2026-04-20T14:03:47.367Z</time></trkpt><trkpt lat="43.1249815" lon="11.5928378"><ele>369.0</ele><time>2026-04-20T14:03:48.366Z</time></trkpt><trkpt lat="43.1250594" lon="11.5927985"><ele>369.0</ele><time>2026-04-20T14:03:49.366Z</time></trkpt><trkpt lat="43.1251415" lon="11.5927592"><ele>369.0</ele><time>2026-04-20T14:03:50.366Z</time></trkpt><trkpt lat="43.1252284" lon="11.5927134"><ele>369.8333333333333</ele><time>2026-04-20T14:03:51.366Z</time></trkpt><trkpt lat="43.1253133" lon="11.592671"><ele>370.6666666666667</ele><time>2026-04-20T14:03:52.366Z</time></trkpt><trkpt lat="43.1253936" lon="11.5926365"><ele>371.5</ele><time>2026-04-20T14:03:53.366Z</time></trkpt><trkpt lat="43.1254749" lon="11.5926097"><ele>372.33333333333337</ele><time>2026-04-20T14:03:54.366Z</time></trkpt><trkpt lat="43.1255555" lon="11.5925927"><ele>373.1666666666667</ele><time>2026-04-20T14:03:55.366Z</time></trkpt><trkpt lat="43.1256254" lon="11.5925702"><ele>374.0</ele><time>2026-04-20T14:03:56.366Z</time></trkpt><trkpt lat="43.1256951" lon="11.5925504"><ele>371.5</ele><time>2026-04-20T14:03:57.366Z</time></trkpt><trkpt lat="43.125765" lon="11.5925354"><ele>369.0</ele><time>2026-04-20T14:03:58.366Z</time></trkpt><trkpt lat="43.1258343" lon="11.592516"><ele>366.5</ele><time>2026-04-20T14:03:59.366Z</time></trkpt><trkpt lat="43.1259016" lon="11.5924929"><ele>364.0</ele><time>2026-04-20T14:04:00.367Z</time></trkpt><trkpt lat="43.1260133" lon="11.5924159"><ele>361.5</ele><time>2026-04-20T14:04:02.366Z</time></trkpt><trkpt lat="43.1260629" lon="11.5923558"><ele>359.0</ele><time>2026-04-20T14:04:03.367Z</time></trkpt><trkpt lat="43.1261111" lon="11.5922844"><ele>359.0</ele><time>2026-04-20T14:04:04.366Z</time></trkpt><trkpt lat="43.1261608" lon="11.5922016"><ele>359.0</ele><time>2026-04-20T14:04:05.367Z</time></trkpt><trkpt lat="43.1262134" lon="11.5921031"><ele>359.0</ele><time>2026-04-20T14:04:06.367Z</time></trkpt><trkpt lat="43.1262609" lon="11.5920045"><ele>359.0</ele><time>2026-04-20T14:04:07.366Z</time></trkpt><trkpt lat="43.1263042" lon="11.5919115"><ele>359.0</ele><time>2026-04-20T14:04:08.366Z</time></trkpt><trkpt lat="43.1263413" lon="11.591815"><ele>359.0</ele><time>2026-04-20T14:04:09.366Z</time></trkpt><trkpt lat="43.1263706" lon="11.5917289"><ele>359.6</ele><time>2026-04-20T14:04:10.366Z</time></trkpt><trkpt lat="43.1263944" lon="11.5916467"><ele>360.2</ele><time>2026-04-20T14:04:11.367Z</time></trkpt><trkpt lat="43.1264345" lon="11.5914916"><ele>360.8</ele><time>2026-04-20T14:04:13.367Z</time></trkpt><trkpt lat="43.1264632" lon="11.5913222"><ele>361.40000000000003</ele><time>2026-04-20T14:04:15.366Z</time></trkpt><trkpt lat="43.1264597" lon="11.5911655"><ele>362.0</ele><time>2026-04-20T14:04:17.366Z</time></trkpt><trkpt lat="43.1264174" lon="11.5910181"><ele>360.1666666666667</ele><time>2026-04-20T14:04:19.366Z</time></trkpt><trkpt lat="43.1263934" lon="11.5909374"><ele>358.33333333333337</ele><time>2026-04-20T14:04:20.366Z</time></trkpt><trkpt lat="43.1263518" lon="11.5907921"><ele>356.5</ele><time>2026-04-20T14:04:22.366Z</time></trkpt><trkpt lat="43.1262957" lon="11.5906445"><ele>354.6666666666667</ele><time>2026-04-20T14:04:24.367Z</time></trkpt><trkpt lat="43.1262653" lon="11.5905599"><ele>352.8333333333333</ele><time>2026-04-20T14:04:25.367Z</time></trkpt><trkpt lat="43.1262497" lon="11.590475"><ele>351.0</ele><time>2026-04-20T14:04:26.367Z</time></trkpt><trkpt lat="43.1262502" lon="11.5903827"><ele>349.00000000000006</ele><time>2026-04-20T14:04:27.367Z</time></trkpt><trkpt lat="43.1262692" lon="11.5902834"><ele>347.0</ele><time>2026-04-20T14:04:28.367Z</time></trkpt><trkpt lat="43.1262978" lon="11.5901848"><ele>345.0</ele><time>2026-04-20T14:04:29.367Z</time></trkpt><trkpt lat="43.1263344" lon="11.590095"><ele>343.0</ele><time>2026-04-20T14:04:30.367Z</time></trkpt><trkpt lat="43.1263729" lon="11.5900202"><ele>341.0</ele><time>2026-04-20T14:04:31.367Z</time></trkpt><trkpt lat="43.1264115" lon="11.5899513"><ele>339.00000000000006</ele><time>2026-04-20T14:04:32.367Z</time></trkpt><trkpt lat="43.1264505" lon="11.5898809"><ele>337.0</ele><time>2026-04-20T14:04:33.367Z</time></trkpt><trkpt lat="43.1264921" lon="11.5898118"><ele>337.00000000000006</ele><time>2026-04-20T14:04:34.367Z</time></trkpt><trkpt lat="43.1265395" lon="11.5897455"><ele>337.0</ele><time>2026-04-20T14:04:35.367Z</time></trkpt><trkpt lat="43.1265863" lon="11.58968"><ele>337.0</ele><time>2026-04-20T14:04:36.367Z</time></trkpt><trkpt lat="43.1266332" lon="11.5896199"><ele>337.0</ele><time>2026-04-20T14:04:37.367Z</time></trkpt><trkpt lat="43.1266834" lon="11.5895541"><ele>337.0</ele><time>2026-04-20T14:04:38.367Z</time></trkpt><trkpt lat="43.126742" lon="11.5894787"><ele>337.00000000000006</ele><time>2026-04-20T14:04:39.369Z</time></trkpt><trkpt lat="43.1268043" lon="11.5893974"><ele>337.0</ele><time>2026-04-20T14:04:40.367Z</time></trkpt><trkpt lat="43.1268742" lon="11.5893063"><ele>337.20000000000005</ele><time>2026-04-20T14:04:41.367Z</time></trkpt><trkpt lat="43.126955" lon="11.5891985"><ele>337.4</ele><time>2026-04-20T14:04:42.367Z</time></trkpt><trkpt lat="43.1270347" lon="11.5890891"><ele>337.6</ele><time>2026-04-20T14:04:43.367Z</time></trkpt><trkpt lat="43.1271088" lon="11.5889882"><ele>337.79999999999995</ele><time>2026-04-20T14:04:44.367Z</time></trkpt><trkpt lat="43.12718" lon="11.5888947"><ele>338.0</ele><time>2026-04-20T14:04:45.367Z</time></trkpt><trkpt lat="43.127248" lon="11.5888062"><ele>338.0</ele><time>2026-04-20T14:04:46.367Z</time></trkpt><trkpt lat="43.1273112" lon="11.5887217"><ele>338.0</ele><time>2026-04-20T14:04:47.367Z</time></trkpt><trkpt lat="43.1273736" lon="11.5886396"><ele>338.0</ele><time>2026-04-20T14:04:48.367Z</time></trkpt><trkpt lat="43.1274328" lon="11.5885582"><ele>338.0</ele><time>2026-04-20T14:04:49.367Z</time></trkpt><trkpt lat="43.1274873" lon="11.5884831"><ele>338.0</ele><time>2026-04-20T14:04:50.368Z</time></trkpt><trkpt lat="43.1275421" lon="11.5884097"><ele>338.0</ele><time>2026-04-20T14:04:51.367Z</time></trkpt><trkpt lat="43.1275957" lon="11.5883348"><ele>337.6666666666667</ele><time>2026-04-20T14:04:52.367Z</time></trkpt><trkpt lat="43.1276429" lon="11.5882637"><ele>337.33333333333337</ele><time>2026-04-20T14:04:53.367Z</time></trkpt><trkpt lat="43.1276931" lon="11.5881917"><ele>337.0</ele><time>2026-04-20T14:04:54.367Z</time></trkpt><trkpt lat="43.1277471" lon="11.5881092"><ele>336.6666666666667</ele><time>2026-04-20T14:04:55.367Z</time></trkpt><trkpt lat="43.1277987" lon="11.5880161"><ele>336.3333333333333</ele><time>2026-04-20T14:04:56.368Z</time></trkpt><trkpt lat="43.1278431" lon="11.5879127"><ele>336.0</ele><time>2026-04-20T14:04:57.367Z</time></trkpt><trkpt lat="43.1278748" lon="11.587804"><ele>335.6</ele><time>2026-04-20T14:04:58.367Z</time></trkpt><trkpt lat="43.1278992" lon="11.5876866"><ele>335.20000000000005</ele><time>2026-04-20T14:04:59.367Z</time></trkpt><trkpt lat="43.1279195" lon="11.5875649"><ele>334.79999999999995</ele><time>2026-04-20T14:05:00.367Z</time></trkpt><trkpt lat="43.1279383" lon="11.5874422"><ele>334.4</ele><time>2026-04-20T14:05:01.367Z</time></trkpt><trkpt lat="43.1279557" lon="11.5873189"><ele>334.0</ele><time>2026-04-20T14:05:02.367Z</time></trkpt><trkpt lat="43.1279704" lon="11.5871939"><ele>334.0</ele><time>2026-04-20T14:05:03.367Z</time></trkpt><trkpt lat="43.1279865" lon="11.5870724"><ele>334.0</ele><time>2026-04-20T14:05:04.368Z</time></trkpt><trkpt lat="43.1280047" lon="11.5869543"><ele>334.0</ele><time>2026-04-20T14:05:05.367Z</time></trkpt><trkpt lat="43.1280245" lon="11.5868355"><ele>334.0</ele><time>2026-04-20T14:05:06.367Z</time></trkpt><trkpt lat="43.1280463" lon="11.5867146"><ele>334.0</ele><time>2026-04-20T14:05:07.367Z</time></trkpt><trkpt lat="43.1280701" lon="11.5865994"><ele>334.0</ele><time>2026-04-20T14:05:08.367Z</time></trkpt><trkpt lat="43.1280961" lon="11.5864864"><ele>333.4</ele><time>2026-04-20T14:05:09.367Z</time></trkpt><trkpt lat="43.128123" lon="11.5863694"><ele>332.79999999999995</ele><time>2026-04-20T14:05:10.367Z</time></trkpt><trkpt lat="43.1281515" lon="11.5862448"><ele>332.20000000000005</ele><time>2026-04-20T14:05:11.367Z</time></trkpt><trkpt lat="43.1281841" lon="11.5861202"><ele>331.6</ele><time>2026-04-20T14:05:12.367Z</time></trkpt><trkpt lat="43.1282091" lon="11.5859953"><ele>331.0</ele><time>2026-04-20T14:05:13.368Z</time></trkpt><trkpt lat="43.1282266" lon="11.5858706"><ele>329.8333333333333</ele><time>2026-04-20T14:05:14.368Z</time></trkpt><trkpt lat="43.1282372" lon="11.5857555"><ele>328.66666666666663</ele><time>2026-04-20T14:05:15.368Z</time></trkpt><trkpt lat="43.1282448" lon="11.5856418"><ele>327.5</ele><time>2026-04-20T14:05:16.368Z</time></trkpt><trkpt lat="43.1282516" lon="11.5855248"><ele>326.3333333333333</ele><time>2026-04-20T14:05:17.368Z</time></trkpt><trkpt lat="43.1282597" lon="11.5854023"><ele>325.1666666666667</ele><time>2026-04-20T14:05:18.368Z</time></trkpt><trkpt lat="43.128267" lon="11.5852749"><ele>324.0</ele><time>2026-04-20T14:05:19.368Z</time></trkpt><trkpt lat="43.1282736" lon="11.5851531"><ele>323.2</ele><time>2026-04-20T14:05:20.368Z</time></trkpt><trkpt lat="43.1282816" lon="11.585035"><ele>322.4</ele><time>2026-04-20T14:05:21.368Z</time></trkpt><trkpt lat="43.1282906" lon="11.5849139"><ele>321.6</ele><time>2026-04-20T14:05:22.368Z</time></trkpt><trkpt lat="43.128298" lon="11.5847934"><ele>320.8</ele><time>2026-04-20T14:05:23.368Z</time></trkpt><trkpt lat="43.1283098" lon="11.584667"><ele>320.0</ele><time>2026-04-20T14:05:24.368Z</time></trkpt><trkpt lat="43.1283287" lon="11.5845347"><ele>318.4</ele><time>2026-04-20T14:05:25.368Z</time></trkpt><trkpt lat="43.1283584" lon="11.5844064"><ele>316.8</ele><time>2026-04-20T14:05:26.368Z</time></trkpt><trkpt lat="43.1283944" lon="11.5842869"><ele>315.2</ele><time>2026-04-20T14:05:27.368Z</time></trkpt><trkpt lat="43.1284364" lon="11.5841777"><ele>313.6</ele><time>2026-04-20T14:05:28.368Z</time></trkpt><trkpt lat="43.1284878" lon="11.5840793"><ele>312.0</ele><time>2026-04-20T14:05:29.368Z</time></trkpt><trkpt lat="43.1285481" lon="11.5839854"><ele>312.0</ele><time>2026-04-20T14:05:30.369Z</time></trkpt><trkpt lat="43.1286125" lon="11.5838961"><ele>312.0</ele><time>2026-04-20T14:05:31.368Z</time></trkpt><trkpt lat="43.1286905" lon="11.5838134"><ele>312.0</ele><time>2026-04-20T14:05:32.368Z</time></trkpt><trkpt lat="43.1287957" lon="11.583754"><ele>312.0</ele><time>2026-04-20T14:05:33.368Z</time></trkpt><trkpt lat="43.1289118" lon="11.5837194"><ele>312.0</ele><time>2026-04-20T14:05:34.368Z</time></trkpt><trkpt lat="43.1290122" lon="11.5836858"><ele>309.0</ele><time>2026-04-20T14:05:35.368Z</time></trkpt><trkpt lat="43.1290841" lon="11.5836346"><ele>306.0</ele><time>2026-04-20T14:05:36.368Z</time></trkpt><trkpt lat="43.129146" lon="11.583539"><ele>303.0</ele><time>2026-04-20T14:05:37.368Z</time></trkpt><trkpt lat="43.1291857" lon="11.5834206"><ele>300.0</ele><time>2026-04-20T14:05:38.368Z</time></trkpt><trkpt lat="43.1292142" lon="11.5833069"><ele>297.0</ele><time>2026-04-20T14:05:39.369Z</time></trkpt><trkpt lat="43.1292394" lon="11.5831916"><ele>294.0</ele><time>2026-04-20T14:05:40.368Z</time></trkpt><trkpt lat="43.1292673" lon="11.5830742"><ele>294.0</ele><time>2026-04-20T14:05:41.368Z</time></trkpt><trkpt lat="43.1292949" lon="11.5829563"><ele>294.0</ele><time>2026-04-20T14:05:42.368Z</time></trkpt><trkpt lat="43.1293152" lon="11.5828368"><ele>294.0</ele><time>2026-04-20T14:05:43.368Z</time></trkpt><trkpt lat="43.1293286" lon="11.5827144"><ele>294.0</ele><time>2026-04-20T14:05:44.368Z</time></trkpt><trkpt lat="43.1293388" lon="11.5825904"><ele>294.0</ele><time>2026-04-20T14:05:45.368Z</time></trkpt><trkpt lat="43.1293509" lon="11.5824656"><ele>291.8</ele><time>2026-04-20T14:05:46.368Z</time></trkpt><trkpt lat="43.1293654" lon="11.5823379"><ele>289.59999999999997</ele><time>2026-04-20T14:05:47.368Z</time></trkpt><trkpt lat="43.1293798" lon="11.5822047"><ele>287.4</ele><time>2026-04-20T14:05:48.368Z</time></trkpt><trkpt lat="43.129396" lon="11.5820685"><ele>285.2</ele><time>2026-04-20T14:05:49.368Z</time></trkpt><trkpt lat="43.1294123" lon="11.58193"><ele>283.0</ele><time>2026-04-20T14:05:50.368Z</time></trkpt><trkpt lat="43.1294293" lon="11.5817934"><ele>280.6</ele><time>2026-04-20T14:05:51.368Z</time></trkpt><trkpt lat="43.1294494" lon="11.5816572"><ele>278.20000000000005</ele><time>2026-04-20T14:05:52.368Z</time></trkpt><trkpt lat="43.129468" lon="11.5815217"><ele>275.8</ele><time>2026-04-20T14:05:53.368Z</time></trkpt><trkpt lat="43.129487" lon="11.5813865"><ele>273.40000000000003</ele><time>2026-04-20T14:05:54.368Z</time></trkpt><trkpt lat="43.129504" lon="11.5812523"><ele>271.0</ele><time>2026-04-20T14:05:55.368Z</time></trkpt><trkpt lat="43.1295252" lon="11.5811227"><ele>269.8333333333333</ele><time>2026-04-20T14:05:56.368Z</time></trkpt><trkpt lat="43.129547" lon="11.5809991"><ele>268.66666666666663</ele><time>2026-04-20T14:05:57.368Z</time></trkpt><trkpt lat="43.1295668" lon="11.5808829"><ele>267.5</ele><time>2026-04-20T14:05:58.368Z</time></trkpt><trkpt lat="43.1295819" lon="11.5807741"><ele>266.3333333333333</ele><time>2026-04-20T14:05:59.368Z</time></trkpt><trkpt lat="43.1295938" lon="11.5806648"><ele>265.1666666666667</ele><time>2026-04-20T14:06:00.368Z</time></trkpt><trkpt lat="43.129604" lon="11.5805607"><ele>264.0</ele><time>2026-04-20T14:06:01.369Z</time></trkpt><trkpt lat="43.1296175" lon="11.5804639"><ele>264.0</ele><time>2026-04-20T14:06:02.368Z</time></trkpt><trkpt lat="43.1296325" lon="11.5803657"><ele>264.0</ele><time>2026-04-20T14:06:03.369Z</time></trkpt><trkpt lat="43.1296483" lon="11.5802671"><ele>264.0</ele><time>2026-04-20T14:06:04.37Z</time></trkpt><trkpt lat="43.1296638" lon="11.5801656"><ele>264.0</ele><time>2026-04-20T14:06:05.369Z</time></trkpt><trkpt lat="43.1296795" lon="11.5800565"><ele>264.0</ele><time>2026-04-20T14:06:06.369Z</time></trkpt><trkpt lat="43.1297051" lon="11.5799422"><ele>264.0</ele><time>2026-04-20T14:06:07.369Z</time></trkpt><trkpt lat="43.1297386" lon="11.5798341"><ele>263.6666666666667</ele><time>2026-04-20T14:06:08.369Z</time></trkpt><trkpt lat="43.1297811" lon="11.5797335"><ele>263.3333333333333</ele><time>2026-04-20T14:06:09.369Z</time></trkpt><trkpt lat="43.1298239" lon="11.5796389"><ele>263.0</ele><time>2026-04-20T14:06:10.37Z</time></trkpt><trkpt lat="43.1298636" lon="11.5795533"><ele>262.66666666666663</ele><time>2026-04-20T14:06:11.369Z</time></trkpt><trkpt lat="43.1299005" lon="11.5794757"><ele>262.3333333333333</ele><time>2026-04-20T14:06:12.369Z</time></trkpt><trkpt lat="43.1299407" lon="11.579392"><ele>262.0</ele><time>2026-04-20T14:06:13.369Z</time></trkpt><trkpt lat="43.1299838" lon="11.5793027"><ele>262.0</ele><time>2026-04-20T14:06:14.37Z</time></trkpt><trkpt lat="43.1300308" lon="11.5792028"><ele>262.0</ele><time>2026-04-20T14:06:15.369Z</time></trkpt><trkpt lat="43.1300747" lon="11.5791029"><ele>262.0</ele><time>2026-04-20T14:06:16.37Z</time></trkpt><trkpt lat="43.1301166" lon="11.5790036"><ele>262.0</ele><time>2026-04-20T14:06:17.369Z</time></trkpt><trkpt lat="43.1301573" lon="11.5789011"><ele>262.0</ele><time>2026-04-20T14:06:18.369Z</time></trkpt><trkpt lat="43.1301959" lon="11.5787973"><ele>262.0</ele><time>2026-04-20T14:06:19.369Z</time></trkpt><trkpt lat="43.130227" lon="11.5786913"><ele>261.66666666666663</ele><time>2026-04-20T14:06:20.369Z</time></trkpt><trkpt lat="43.1302475" lon="11.5785774"><ele>261.3333333333333</ele><time>2026-04-20T14:06:21.369Z</time></trkpt><trkpt lat="43.1302599" lon="11.5784553"><ele>261.0</ele><time>2026-04-20T14:06:22.369Z</time></trkpt><trkpt lat="43.1302634" lon="11.5783343"><ele>260.6666666666667</ele><time>2026-04-20T14:06:23.37Z</time></trkpt><trkpt lat="43.1302553" lon="11.5782253"><ele>260.33333333333337</ele><time>2026-04-20T14:06:24.369Z</time></trkpt><trkpt lat="43.1302396" lon="11.5781231"><ele>260.0</ele><time>2026-04-20T14:06:25.369Z</time></trkpt><trkpt lat="43.130216" lon="11.5780278"><ele>260.0</ele><time>2026-04-20T14:06:26.369Z</time></trkpt><trkpt lat="43.1301837" lon="11.5779353"><ele>260.0</ele><time>2026-04-20T14:06:27.369Z</time></trkpt><trkpt lat="43.1301397" lon="11.5778417"><ele>260.0</ele><time>2026-04-20T14:06:28.37Z</time></trkpt><trkpt lat="43.1300912" lon="11.5777508"><ele>260.0</ele><time>2026-04-20T14:06:29.369Z</time></trkpt><trkpt lat="43.1300376" lon="11.5776576"><ele>260.0</ele><time>2026-04-20T14:06:30.369Z</time></trkpt><trkpt lat="43.1299851" lon="11.5775695"><ele>260.0</ele><time>2026-04-20T14:06:31.369Z</time></trkpt><trkpt lat="43.1299306" lon="11.577488"><ele>258.6</ele><time>2026-04-20T14:06:32.37Z</time></trkpt><trkpt lat="43.1298794" lon="11.577423"><ele>257.2</ele><time>2026-04-20T14:06:33.369Z</time></trkpt><trkpt lat="43.129773" lon="11.5773458"><ele>255.8</ele><time>2026-04-20T14:06:35.369Z</time></trkpt><trkpt lat="43.1296457" lon="11.5773232"><ele>254.4</ele><time>2026-04-20T14:06:37.369Z</time></trkpt><trkpt lat="43.1295777" lon="11.5773223"><ele>253.0</ele><time>2026-04-20T14:06:38.369Z</time></trkpt><trkpt lat="43.1295091" lon="11.5773221"><ele>253.00000000000003</ele><time>2026-04-20T14:06:39.369Z</time></trkpt><trkpt lat="43.1294425" lon="11.5773184"><ele>253.0</ele><time>2026-04-20T14:06:40.369Z</time></trkpt><trkpt lat="43.1293802" lon="11.5773059"><ele>253.00000000000003</ele><time>2026-04-20T14:06:41.369Z</time></trkpt><trkpt lat="43.1293156" lon="11.5772806"><ele>253.00000000000003</ele><time>2026-04-20T14:06:42.369Z</time></trkpt><trkpt lat="43.1292521" lon="11.5772383"><ele>253.0</ele><time>2026-04-20T14:06:43.369Z</time></trkpt><trkpt lat="43.1291954" lon="11.5771801"><ele>253.00000000000003</ele><time>2026-04-20T14:06:44.369Z</time></trkpt><trkpt lat="43.129141" lon="11.5771032"><ele>253.00000000000003</ele><time>2026-04-20T14:06:45.37Z</time></trkpt><trkpt lat="43.129103" lon="11.5770124"><ele>253.4</ele><time>2026-04-20T14:06:46.369Z</time></trkpt><trkpt lat="43.1290761" lon="11.5769205"><ele>253.8</ele><time>2026-04-20T14:06:47.37Z</time></trkpt><trkpt lat="43.1290708" lon="11.5768094"><ele>254.2</ele><time>2026-04-20T14:06:48.369Z</time></trkpt><trkpt lat="43.1290813" lon="11.5766847"><ele>254.6</ele><time>2026-04-20T14:06:49.369Z</time></trkpt><trkpt lat="43.1290992" lon="11.5765444"><ele>255.0</ele><time>2026-04-20T14:06:50.37Z</time></trkpt><trkpt lat="43.1291061" lon="11.5764017"><ele>255.0</ele><time>2026-04-20T14:06:51.37Z</time></trkpt><trkpt lat="43.1291129" lon="11.5762664"><ele>255.0</ele><time>2026-04-20T14:06:52.369Z</time></trkpt><trkpt lat="43.1291184" lon="11.5761273"><ele>255.0</ele><time>2026-04-20T14:06:53.371Z</time></trkpt><trkpt lat="43.1291238" lon="11.5759866"><ele>255.0</ele><time>2026-04-20T14:06:54.371Z</time></trkpt><trkpt lat="43.1291307" lon="11.5758441"><ele>255.0</ele><time>2026-04-20T14:06:55.371Z</time></trkpt><trkpt lat="43.1291396" lon="11.5757081"><ele>255.6</ele><time>2026-04-20T14:06:56.371Z</time></trkpt><trkpt lat="43.1291494" lon="11.5755717"><ele>256.2</ele><time>2026-04-20T14:06:57.37Z</time></trkpt><trkpt lat="43.1291604" lon="11.5754304"><ele>256.8</ele><time>2026-04-20T14:06:58.37Z</time></trkpt><trkpt lat="43.1291735" lon="11.5752951"><ele>257.4</ele><time>2026-04-20T14:06:59.37Z</time></trkpt><trkpt lat="43.1291914" lon="11.5751684"><ele>258.0</ele><time>2026-04-20T14:07:00.37Z</time></trkpt><trkpt lat="43.1292197" lon="11.5750555"><ele>258.3333333333333</ele><time>2026-04-20T14:07:01.37Z</time></trkpt><trkpt lat="43.1292679" lon="11.5749649"><ele>258.6666666666667</ele><time>2026-04-20T14:07:02.37Z</time></trkpt><trkpt lat="43.1293367" lon="11.5749053"><ele>259.0</ele><time>2026-04-20T14:07:03.37Z</time></trkpt><trkpt lat="43.1294191" lon="11.5748794"><ele>259.33333333333337</ele><time>2026-04-20T14:07:04.37Z</time></trkpt><trkpt lat="43.1294875" lon="11.5748668"><ele>259.6666666666667</ele><time>2026-04-20T14:07:05.371Z</time></trkpt><trkpt lat="43.1295549" lon="11.5748623"><ele>260.0</ele><time>2026-04-20T14:07:06.37Z</time></trkpt><trkpt lat="43.1296474" lon="11.5748592"><ele>260.0</ele><time>2026-04-20T14:07:07.37Z</time></trkpt><trkpt lat="43.1297628" lon="11.5748714"><ele>260.0</ele><time>2026-04-20T14:07:08.371Z</time></trkpt><trkpt lat="43.1298947" lon="11.5748956"><ele>260.0</ele><time>2026-04-20T14:07:09.37Z</time></trkpt><trkpt lat="43.1300421" lon="11.574937"><ele>260.0</ele><time>2026-04-20T14:07:10.37Z</time></trkpt><trkpt lat="43.1301972" lon="11.5749794"><ele>260.0</ele><time>2026-04-20T14:07:11.37Z</time></trkpt><trkpt lat="43.1303687" lon="11.5750291"><ele>260.0</ele><time>2026-04-20T14:07:12.37Z</time></trkpt><trkpt lat="43.1305538" lon="11.5750796"><ele>260.0</ele><time>2026-04-20T14:07:13.371Z</time></trkpt><trkpt lat="43.1307471" lon="11.5751321"><ele>260.33333333333337</ele><time>2026-04-20T14:07:14.37Z</time></trkpt><trkpt lat="43.1309442" lon="11.5751861"><ele>260.6666666666667</ele><time>2026-04-20T14:07:15.37Z</time></trkpt><trkpt lat="43.1311494" lon="11.575243"><ele>261.0</ele><time>2026-04-20T14:07:16.371Z</time></trkpt><trkpt lat="43.1313549" lon="11.575301"><ele>261.6666666666667</ele><time>2026-04-20T14:07:17.37Z</time></trkpt><trkpt lat="43.1315574" lon="11.5753593"><ele>262.33333333333337</ele><time>2026-04-20T14:07:18.37Z</time></trkpt><trkpt lat="43.1317547" lon="11.5754143"><ele>263.0</ele><time>2026-04-20T14:07:19.371Z</time></trkpt><trkpt lat="43.1319496" lon="11.5754677"><ele>263.0</ele><time>2026-04-20T14:07:20.37Z</time></trkpt><trkpt lat="43.1321437" lon="11.5755206"><ele>263.0</ele><time>2026-04-20T14:07:21.37Z</time></trkpt><trkpt lat="43.1323385" lon="11.5755808"><ele>263.0</ele><time>2026-04-20T14:07:22.37Z</time></trkpt><trkpt lat="43.1325316" lon="11.5756396"><ele>263.6666666666667</ele><time>2026-04-20T14:07:23.371Z</time></trkpt><trkpt lat="43.1327228" lon="11.5756982"><ele>264.3333333333333</ele><time>2026-04-20T14:07:24.37Z</time></trkpt><trkpt lat="43.1329178" lon="11.5757554"><ele>265.0</ele><time>2026-04-20T14:07:25.37Z</time></trkpt><trkpt lat="43.1331109" lon="11.5758197"><ele>265.0</ele><time>2026-04-20T14:07:26.37Z</time></trkpt><trkpt lat="43.1333008" lon="11.5758885"><ele>265.0</ele><time>2026-04-20T14:07:27.37Z</time></trkpt><trkpt lat="43.133491" lon="11.575955"><ele>265.0</ele><time>2026-04-20T14:07:28.37Z</time></trkpt><trkpt lat="43.1336774" lon="11.5760165"><ele>265.0</ele><time>2026-04-20T14:07:29.37Z</time></trkpt><trkpt lat="43.1338676" lon="11.5760726"><ele>265.0</ele><time>2026-04-20T14:07:30.37Z</time></trkpt><trkpt lat="43.1340586" lon="11.5761319"><ele>265.0</ele><time>2026-04-20T14:07:31.37Z</time></trkpt><trkpt lat="43.134248" lon="11.5761952"><ele>263.66666666666663</ele><time>2026-04-20T14:07:32.37Z</time></trkpt><trkpt lat="43.1344373" lon="11.5762597"><ele>262.3333333333333</ele><time>2026-04-20T14:07:33.37Z</time></trkpt><trkpt lat="43.1346249" lon="11.5763262"><ele>261.0</ele><time>2026-04-20T14:07:34.37Z</time></trkpt><trkpt lat="43.1348095" lon="11.5764003"><ele>261.6666666666667</ele><time>2026-04-20T14:07:35.371Z</time></trkpt><trkpt lat="43.1349904" lon="11.5764934"><ele>262.33333333333337</ele><time>2026-04-20T14:07:36.37Z</time></trkpt><trkpt lat="43.1351614" lon="11.5766174"><ele>263.0</ele><time>2026-04-20T14:07:37.37Z</time></trkpt><trkpt lat="43.1353236" lon="11.5767619"><ele>263.0</ele><time>2026-04-20T14:07:38.37Z</time></trkpt><trkpt lat="43.1354853" lon="11.5769103"><ele>263.0</ele><time>2026-04-20T14:07:39.371Z</time></trkpt><trkpt lat="43.1356489" lon="11.5770567"><ele>263.0</ele><time>2026-04-20T14:07:40.37Z</time></trkpt><trkpt lat="43.1358138" lon="11.5772086"><ele>262.6666666666667</ele><time>2026-04-20T14:07:41.37Z</time></trkpt><trkpt lat="43.1359803" lon="11.5773599"><ele>262.3333333333333</ele><time>2026-04-20T14:07:42.37Z</time></trkpt><trkpt lat="43.1361448" lon="11.5775105"><ele>262.0</ele><time>2026-04-20T14:07:43.372Z</time></trkpt><trkpt lat="43.1363066" lon="11.5776542"><ele>262.0</ele><time>2026-04-20T14:07:44.371Z</time></trkpt><trkpt lat="43.1364569" lon="11.5777868"><ele>262.0</ele><time>2026-04-20T14:07:45.371Z</time></trkpt><trkpt lat="43.1365983" lon="11.5779143"><ele>262.0</ele><time>2026-04-20T14:07:46.371Z</time></trkpt><trkpt lat="43.1367346" lon="11.5780392"><ele>262.5</ele><time>2026-04-20T14:07:47.371Z</time></trkpt><trkpt lat="43.1368625" lon="11.5781536"><ele>263.0</ele><time>2026-04-20T14:07:48.371Z</time></trkpt><trkpt lat="43.1369847" lon="11.5782642"><ele>263.5</ele><time>2026-04-20T14:07:49.371Z</time></trkpt><trkpt lat="43.1371015" lon="11.5783673"><ele>264.0</ele><time>2026-04-20T14:07:50.371Z</time></trkpt><trkpt lat="43.1372141" lon="11.5784623"><ele>264.0</ele><time>2026-04-20T14:07:51.372Z</time></trkpt><trkpt lat="43.1373146" lon="11.5785516"><ele>264.0</ele><time>2026-04-20T14:07:52.371Z</time></trkpt><trkpt lat="43.1374016" lon="11.578635"><ele>264.0</ele><time>2026-04-20T14:07:53.371Z</time></trkpt><trkpt lat="43.1374746" lon="11.5787076"><ele>264.0</ele><time>2026-04-20T14:07:54.371Z</time></trkpt><trkpt lat="43.1375363" lon="11.5787542"><ele>264.0</ele><time>2026-04-20T14:07:55.371Z</time></trkpt><trkpt lat="43.1376502" lon="11.5787093"><ele>264.6666666666667</ele><time>2026-04-20T14:07:57.372Z</time></trkpt><trkpt lat="43.1377076" lon="11.5786272"><ele>265.3333333333333</ele><time>2026-04-20T14:07:58.371Z</time></trkpt><trkpt lat="43.1377548" lon="11.5785313"><ele>266.0</ele><time>2026-04-20T14:07:59.371Z</time></trkpt><trkpt lat="43.1378023" lon="11.5784367"><ele>266.66666666666663</ele><time>2026-04-20T14:08:00.371Z</time></trkpt><trkpt lat="43.1378504" lon="11.5783489"><ele>267.3333333333333</ele><time>2026-04-20T14:08:01.372Z</time></trkpt><trkpt lat="43.1378973" lon="11.5782671"><ele>268.0</ele><time>2026-04-20T14:08:02.371Z</time></trkpt><trkpt lat="43.1379437" lon="11.5781789"><ele>268.0</ele><time>2026-04-20T14:08:03.372Z</time></trkpt><trkpt lat="43.1379897" lon="11.5780902"><ele>268.0</ele><time>2026-04-20T14:08:04.372Z</time></trkpt><trkpt lat="43.1380396" lon="11.5779995"><ele>268.0</ele><time>2026-04-20T14:08:05.371Z</time></trkpt><trkpt lat="43.1380948" lon="11.5779048"><ele>268.0</ele><time>2026-04-20T14:08:06.371Z</time></trkpt><trkpt lat="43.1381537" lon="11.5778084"><ele>268.0</ele><time>2026-04-20T14:08:07.371Z</time></trkpt><trkpt lat="43.1382093" lon="11.5777127"><ele>268.0</ele><time>2026-04-20T14:08:08.371Z</time></trkpt><trkpt lat="43.1382653" lon="11.5776152"><ele>269.16666666666663</ele><time>2026-04-20T14:08:09.372Z</time></trkpt><trkpt lat="43.1383193" lon="11.5775226"><ele>270.3333333333333</ele><time>2026-04-20T14:08:10.371Z</time></trkpt><trkpt lat="43.1383718" lon="11.5774327"><ele>271.5</ele><time>2026-04-20T14:08:11.371Z</time></trkpt><trkpt lat="43.1384271" lon="11.5773393"><ele>272.6666666666667</ele><time>2026-04-20T14:08:12.371Z</time></trkpt><trkpt lat="43.1384836" lon="11.5772447"><ele>273.83333333333337</ele><time>2026-04-20T14:08:13.372Z</time></trkpt><trkpt lat="43.1385406" lon="11.577149"><ele>275.0</ele><time>2026-04-20T14:08:14.371Z</time></trkpt><trkpt lat="43.1385986" lon="11.5770493"><ele>275.6</ele><time>2026-04-20T14:08:15.371Z</time></trkpt><trkpt lat="43.1386515" lon="11.5769479"><ele>276.2</ele><time>2026-04-20T14:08:16.371Z</time></trkpt><trkpt lat="43.1386976" lon="11.5768418"><ele>276.8</ele><time>2026-04-20T14:08:17.371Z</time></trkpt><trkpt lat="43.1387325" lon="11.57673"><ele>277.4</ele><time>2026-04-20T14:08:18.371Z</time></trkpt><trkpt lat="43.1387551" lon="11.5766123"><ele>278.0</ele><time>2026-04-20T14:08:19.371Z</time></trkpt><trkpt lat="43.1387701" lon="11.5764868"><ele>278.0</ele><time>2026-04-20T14:08:20.371Z</time></trkpt><trkpt lat="43.1387776" lon="11.5763633"><ele>278.0</ele><time>2026-04-20T14:08:21.371Z</time></trkpt><trkpt lat="43.1387801" lon="11.5762431"><ele>278.0</ele><time>2026-04-20T14:08:22.372Z</time></trkpt><trkpt lat="43.138782" lon="11.5761238"><ele>278.0</ele><time>2026-04-20T14:08:23.371Z</time></trkpt><trkpt lat="43.13878" lon="11.5760015"><ele>278.0</ele><time>2026-04-20T14:08:24.371Z</time></trkpt><trkpt lat="43.1387754" lon="11.5758776"><ele>278.0</ele><time>2026-04-20T14:08:25.371Z</time></trkpt><trkpt lat="43.1387679" lon="11.575756"><ele>279.1666666666667</ele><time>2026-04-20T14:08:26.371Z</time></trkpt><trkpt lat="43.1387554" lon="11.5756345"><ele>280.33333333333337</ele><time>2026-04-20T14:08:27.371Z</time></trkpt><trkpt lat="43.1387336" lon="11.5755179"><ele>281.5</ele><time>2026-04-20T14:08:28.371Z</time></trkpt><trkpt lat="43.1386965" lon="11.5754103"><ele>282.6666666666667</ele><time>2026-04-20T14:08:29.371Z</time></trkpt><trkpt lat="43.1386431" lon="11.5753092"><ele>283.8333333333333</ele><time>2026-04-20T14:08:30.371Z</time></trkpt><trkpt lat="43.1385768" lon="11.5752184"><ele>285.0</ele><time>2026-04-20T14:08:31.372Z</time></trkpt><trkpt lat="43.1385062" lon="11.5751343"><ele>287.1666666666667</ele><time>2026-04-20T14:08:32.371Z</time></trkpt><trkpt lat="43.1384343" lon="11.5750574"><ele>289.3333333333333</ele><time>2026-04-20T14:08:33.372Z</time></trkpt><trkpt lat="43.1383612" lon="11.5749857"><ele>291.5</ele><time>2026-04-20T14:08:34.373Z</time></trkpt><trkpt lat="43.1382892" lon="11.5749153"><ele>293.66666666666663</ele><time>2026-04-20T14:08:35.372Z</time></trkpt><trkpt lat="43.138218" lon="11.5748434"><ele>295.8333333333333</ele><time>2026-04-20T14:08:36.372Z</time></trkpt><trkpt lat="43.1381529" lon="11.5747678"><ele>298.0</ele><time>2026-04-20T14:08:37.373Z</time></trkpt><trkpt lat="43.1380952" lon="11.5746874"><ele>298.5</ele><time>2026-04-20T14:08:38.372Z</time></trkpt><trkpt lat="43.1380448" lon="11.5746001"><ele>299.0</ele><time>2026-04-20T14:08:39.372Z</time></trkpt><trkpt lat="43.1380056" lon="11.5745068"><ele>299.5</ele><time>2026-04-20T14:08:40.373Z</time></trkpt><trkpt lat="43.1379817" lon="11.5744031"><ele>300.0</ele><time>2026-04-20T14:08:41.372Z</time></trkpt><trkpt lat="43.137976" lon="11.5742875"><ele>300.5</ele><time>2026-04-20T14:08:42.372Z</time></trkpt><trkpt lat="43.1379777" lon="11.5741645"><ele>301.0</ele><time>2026-04-20T14:08:43.372Z</time></trkpt><trkpt lat="43.1379765" lon="11.5740354"><ele>301.0</ele><time>2026-04-20T14:08:44.373Z</time></trkpt><trkpt lat="43.1379739" lon="11.5739039"><ele>301.0</ele><time>2026-04-20T14:08:45.373Z</time></trkpt><trkpt lat="43.137975" lon="11.5737738"><ele>301.0</ele><time>2026-04-20T14:08:46.372Z</time></trkpt><trkpt lat="43.1379724" lon="11.5736438"><ele>301.0</ele><time>2026-04-20T14:08:47.372Z</time></trkpt><trkpt lat="43.1379685" lon="11.5735163"><ele>301.0</ele><time>2026-04-20T14:08:48.372Z</time></trkpt><trkpt lat="43.1379641" lon="11.5733955"><ele>300.40000000000003</ele><time>2026-04-20T14:08:49.372Z</time></trkpt><trkpt lat="43.1379602" lon="11.5732745"><ele>299.8</ele><time>2026-04-20T14:08:50.373Z</time></trkpt><trkpt lat="43.1379566" lon="11.5731512"><ele>299.20000000000005</ele><time>2026-04-20T14:08:51.372Z</time></trkpt><trkpt lat="43.1379513" lon="11.5730255"><ele>298.6</ele><time>2026-04-20T14:08:52.372Z</time></trkpt><trkpt lat="43.137946" lon="11.5728927"><ele>298.0</ele><time>2026-04-20T14:08:53.372Z</time></trkpt><trkpt lat="43.1379414" lon="11.5727541"><ele>297.3333333333333</ele><time>2026-04-20T14:08:54.373Z</time></trkpt><trkpt lat="43.1379368" lon="11.5726115"><ele>296.66666666666663</ele><time>2026-04-20T14:08:55.372Z</time></trkpt><trkpt lat="43.1379329" lon="11.5724793"><ele>296.0</ele><time>2026-04-20T14:08:56.372Z</time></trkpt><trkpt lat="43.1379329" lon="11.5723634"><ele>295.3333333333333</ele><time>2026-04-20T14:08:57.372Z</time></trkpt><trkpt lat="43.1379366" lon="11.5722629"><ele>294.6666666666667</ele><time>2026-04-20T14:08:58.372Z</time></trkpt><trkpt lat="43.1379522" lon="11.5721704"><ele>294.0</ele><time>2026-04-20T14:08:59.373Z</time></trkpt><trkpt lat="43.1379888" lon="11.5720774"><ele>292.6666666666667</ele><time>2026-04-20T14:09:00.372Z</time></trkpt><trkpt lat="43.1380398" lon="11.5719988"><ele>291.3333333333333</ele><time>2026-04-20T14:09:01.372Z</time></trkpt><trkpt lat="43.138107" lon="11.5719417"><ele>290.0</ele><time>2026-04-20T14:09:02.372Z</time></trkpt><trkpt lat="43.1381931" lon="11.5719021"><ele>288.66666666666663</ele><time>2026-04-20T14:09:03.372Z</time></trkpt><trkpt lat="43.1382915" lon="11.5718678"><ele>287.3333333333333</ele><time>2026-04-20T14:09:04.373Z</time></trkpt><trkpt lat="43.1383792" lon="11.5718285"><ele>286.0</ele><time>2026-04-20T14:09:05.372Z</time></trkpt><trkpt lat="43.1384607" lon="11.5717794"><ele>288.66666666666663</ele><time>2026-04-20T14:09:06.372Z</time></trkpt><trkpt lat="43.1385358" lon="11.5717115"><ele>291.3333333333333</ele><time>2026-04-20T14:09:07.372Z</time></trkpt><trkpt lat="43.1386021" lon="11.5716313"><ele>294.0</ele><time>2026-04-20T14:09:08.372Z</time></trkpt><trkpt lat="43.1386546" lon="11.5715413"><ele>296.6666666666667</ele><time>2026-04-20T14:09:09.372Z</time></trkpt><trkpt lat="43.1386952" lon="11.5714361"><ele>299.33333333333337</ele><time>2026-04-20T14:09:10.372Z</time></trkpt><trkpt lat="43.1387227" lon="11.5713211"><ele>302.0</ele><time>2026-04-20T14:09:11.372Z</time></trkpt><trkpt lat="43.1387368" lon="11.5712019"><ele>301.6</ele><time>2026-04-20T14:09:12.372Z</time></trkpt><trkpt lat="43.1387328" lon="11.5710816"><ele>301.2</ele><time>2026-04-20T14:09:13.372Z</time></trkpt><trkpt lat="43.1387104" lon="11.5709641"><ele>300.8</ele><time>2026-04-20T14:09:14.372Z</time></trkpt><trkpt lat="43.1386697" lon="11.5708524"><ele>300.4</ele><time>2026-04-20T14:09:15.372Z</time></trkpt><trkpt lat="43.1386143" lon="11.57075"><ele>300.0</ele><time>2026-04-20T14:09:16.372Z</time></trkpt><trkpt lat="43.1385533" lon="11.5706593"><ele>300.0</ele><time>2026-04-20T14:09:17.372Z</time></trkpt><trkpt lat="43.1385002" lon="11.570579"><ele>300.0</ele><time>2026-04-20T14:09:18.372Z</time></trkpt><trkpt lat="43.1384584" lon="11.5705026"><ele>300.0</ele><time>2026-04-20T14:09:19.372Z</time></trkpt><trkpt lat="43.1384338" lon="11.5704118"><ele>300.0</ele><time>2026-04-20T14:09:20.372Z</time></trkpt><trkpt lat="43.1384276" lon="11.570303"><ele>300.0</ele><time>2026-04-20T14:09:21.372Z</time></trkpt><trkpt lat="43.138435" lon="11.5701899"><ele>300.0</ele><time>2026-04-20T14:09:22.372Z</time></trkpt><trkpt lat="43.1384573" lon="11.570074"><ele>301.0</ele><time>2026-04-20T14:09:23.373Z</time></trkpt><trkpt lat="43.1384871" lon="11.5699562"><ele>302.0</ele><time>2026-04-20T14:09:24.373Z</time></trkpt><trkpt lat="43.138516" lon="11.5698331"><ele>303.0</ele><time>2026-04-20T14:09:25.374Z</time></trkpt><trkpt lat="43.1385345" lon="11.5697033"><ele>304.0</ele><time>2026-04-20T14:09:26.373Z</time></trkpt><trkpt lat="43.1385387" lon="11.5695683"><ele>305.0</ele><time>2026-04-20T14:09:27.374Z</time></trkpt><trkpt lat="43.1385344" lon="11.5694341"><ele>305.2</ele><time>2026-04-20T14:09:28.374Z</time></trkpt><trkpt lat="43.1385267" lon="11.5693"><ele>305.4</ele><time>2026-04-20T14:09:29.373Z</time></trkpt><trkpt lat="43.1385155" lon="11.5691665"><ele>305.6</ele><time>2026-04-20T14:09:30.373Z</time></trkpt><trkpt lat="43.1385002" lon="11.5690357"><ele>305.8</ele><time>2026-04-20T14:09:31.373Z</time></trkpt><trkpt lat="43.1384767" lon="11.5689089"><ele>306.0</ele><time>2026-04-20T14:09:32.373Z</time></trkpt><trkpt lat="43.1384464" lon="11.5687953"><ele>306.0</ele><time>2026-04-20T14:09:33.373Z</time></trkpt><trkpt lat="43.1384079" lon="11.568701"><ele>306.0</ele><time>2026-04-20T14:09:34.373Z</time></trkpt><trkpt lat="43.1383594" lon="11.5686189"><ele>306.0</ele><time>2026-04-20T14:09:35.373Z</time></trkpt><trkpt lat="43.1383021" lon="11.568541"><ele>306.0</ele><time>2026-04-20T14:09:36.373Z</time></trkpt><trkpt lat="43.1382353" lon="11.5684673"><ele>306.0</ele><time>2026-04-20T14:09:37.373Z</time></trkpt><trkpt lat="43.138165" lon="11.5683915"><ele>306.0</ele><time>2026-04-20T14:09:38.374Z</time></trkpt><trkpt lat="43.1380951" lon="11.5683076"><ele>303.1666666666667</ele><time>2026-04-20T14:09:39.374Z</time></trkpt><trkpt lat="43.1380297" lon="11.5682196"><ele>300.3333333333333</ele><time>2026-04-20T14:09:40.373Z</time></trkpt><trkpt lat="43.1379709" lon="11.5681336"><ele>297.5</ele><time>2026-04-20T14:09:41.373Z</time></trkpt><trkpt lat="43.1379199" lon="11.5680475"><ele>294.66666666666663</ele><time>2026-04-20T14:09:42.373Z</time></trkpt><trkpt lat="43.1378783" lon="11.5679584"><ele>291.8333333333333</ele><time>2026-04-20T14:09:43.374Z</time></trkpt><trkpt lat="43.1378492" lon="11.5678576"><ele>289.0</ele><time>2026-04-20T14:09:44.373Z</time></trkpt><trkpt lat="43.1378379" lon="11.5677391"><ele>289.0</ele><time>2026-04-20T14:09:45.373Z</time></trkpt><trkpt lat="43.1378447" lon="11.5676173"><ele>289.0</ele><time>2026-04-20T14:09:46.373Z</time></trkpt><trkpt lat="43.1378581" lon="11.5674975"><ele>289.0</ele><time>2026-04-20T14:09:47.373Z</time></trkpt><trkpt lat="43.1378779" lon="11.5673717"><ele>289.0</ele><time>2026-04-20T14:09:48.373Z</time></trkpt><trkpt lat="43.1379023" lon="11.5672471"><ele>289.0</ele><time>2026-04-20T14:09:49.373Z</time></trkpt><trkpt lat="43.1379232" lon="11.5671264"><ele>288.8333333333333</ele><time>2026-04-20T14:09:50.373Z</time></trkpt><trkpt lat="43.1379347" lon="11.5670126"><ele>288.66666666666663</ele><time>2026-04-20T14:09:51.373Z</time></trkpt><trkpt lat="43.137935" lon="11.5669006"><ele>288.5</ele><time>2026-04-20T14:09:52.373Z</time></trkpt><trkpt lat="43.1379246" lon="11.5667823"><ele>288.3333333333333</ele><time>2026-04-20T14:09:53.373Z</time></trkpt><trkpt lat="43.1379119" lon="11.5666602"><ele>288.1666666666667</ele><time>2026-04-20T14:09:54.373Z</time></trkpt><trkpt lat="43.137901" lon="11.5665414"><ele>288.0</ele><time>2026-04-20T14:09:55.374Z</time></trkpt><trkpt lat="43.1378915" lon="11.5664251"><ele>288.0</ele><time>2026-04-20T14:09:56.373Z</time></trkpt><trkpt lat="43.1378815" lon="11.5663108"><ele>288.0</ele><time>2026-04-20T14:09:57.373Z</time></trkpt><trkpt lat="43.1378718" lon="11.5661927"><ele>288.0</ele><time>2026-04-20T14:09:58.373Z</time></trkpt><trkpt lat="43.1378624" lon="11.5660724"><ele>288.0</ele><time>2026-04-20T14:09:59.373Z</time></trkpt><trkpt lat="43.1378557" lon="11.565951"><ele>288.0</ele><time>2026-04-20T14:10:00.373Z</time></trkpt><trkpt lat="43.1378517" lon="11.5658361"><ele>288.0</ele><time>2026-04-20T14:10:01.373Z</time></trkpt><trkpt lat="43.1378463" lon="11.5657302"><ele>288.0</ele><time>2026-04-20T14:10:02.373Z</time></trkpt><trkpt lat="43.1378412" lon="11.5656332"><ele>288.0</ele><time>2026-04-20T14:10:03.373Z</time></trkpt><trkpt lat="43.1378374" lon="11.5655417"><ele>288.0</ele><time>2026-04-20T14:10:04.373Z</time></trkpt><trkpt lat="43.1378292" lon="11.5653795"><ele>288.0</ele><time>2026-04-20T14:10:06.374Z</time></trkpt><trkpt lat="43.1378116" lon="11.5652098"><ele>288.0</ele><time>2026-04-20T14:10:08.373Z</time></trkpt><trkpt lat="43.1377879" lon="11.5651176"><ele>288.00000000000006</ele><time>2026-04-20T14:10:09.373Z</time></trkpt><trkpt lat="43.1377564" lon="11.5650321"><ele>288.0</ele><time>2026-04-20T14:10:10.373Z</time></trkpt><trkpt lat="43.1377188" lon="11.5649516"><ele>288.0</ele><time>2026-04-20T14:10:11.373Z</time></trkpt><trkpt lat="43.1376811" lon="11.5648735"><ele>288.0</ele><time>2026-04-20T14:10:12.375Z</time></trkpt><trkpt lat="43.1376428" lon="11.5647948"><ele>288.0</ele><time>2026-04-20T14:10:13.375Z</time></trkpt><trkpt lat="43.1376034" lon="11.564717"><ele>288.00000000000006</ele><time>2026-04-20T14:10:14.374Z</time></trkpt><trkpt lat="43.1375657" lon="11.5646462"><ele>288.0</ele><time>2026-04-20T14:10:15.374Z</time></trkpt><trkpt lat="43.1375018" lon="11.5645245"><ele>288.8</ele><time>2026-04-20T14:10:17.374Z</time></trkpt><trkpt lat="43.1374414" lon="11.5644102"><ele>289.6</ele><time>2026-04-20T14:10:19.374Z</time></trkpt><trkpt lat="43.137355" lon="11.5643256"><ele>290.4</ele><time>2026-04-20T14:10:21.374Z</time></trkpt><trkpt lat="43.1372326" lon="11.5643262"><ele>291.2</ele><time>2026-04-20T14:10:23.374Z</time></trkpt><trkpt lat="43.1371631" lon="11.5643619"><ele>292.0</ele><time>2026-04-20T14:10:24.374Z</time></trkpt><trkpt lat="43.1370965" lon="11.564412"><ele>288.7142857142857</ele><time>2026-04-20T14:10:25.374Z</time></trkpt><trkpt lat="43.1370345" lon="11.5644752"><ele>285.42857142857144</ele><time>2026-04-20T14:10:26.374Z</time></trkpt><trkpt lat="43.1369885" lon="11.5645489"><ele>282.14285714285717</ele><time>2026-04-20T14:10:27.374Z</time></trkpt><trkpt lat="43.1369541" lon="11.5646311"><ele>278.8571428571429</ele><time>2026-04-20T14:10:28.374Z</time></trkpt><trkpt lat="43.1369322" lon="11.5647198"><ele>275.5714285714286</ele><time>2026-04-20T14:10:29.374Z</time></trkpt><trkpt lat="43.1369243" lon="11.5648133"><ele>272.2857142857143</ele><time>2026-04-20T14:10:30.375Z</time></trkpt><trkpt lat="43.1369299" lon="11.5649046"><ele>269.0</ele><time>2026-04-20T14:10:31.374Z</time></trkpt><trkpt lat="43.1369499" lon="11.5649923"><ele>269.0</ele><time>2026-04-20T14:10:32.374Z</time></trkpt><trkpt lat="43.1369841" lon="11.5650721"><ele>269.0</ele><time>2026-04-20T14:10:33.374Z</time></trkpt><trkpt lat="43.1370265" lon="11.5651568"><ele>269.0</ele><time>2026-04-20T14:10:34.374Z</time></trkpt><trkpt lat="43.1370722" lon="11.5652414"><ele>269.0</ele><time>2026-04-20T14:10:35.374Z</time></trkpt><trkpt lat="43.1371143" lon="11.5653212"><ele>269.0</ele><time>2026-04-20T14:10:36.374Z</time></trkpt><trkpt lat="43.137151" lon="11.5653994"><ele>269.0</ele><time>2026-04-20T14:10:37.374Z</time></trkpt><trkpt lat="43.1371825" lon="11.5654747"><ele>269.0</ele><time>2026-04-20T14:10:38.374Z</time></trkpt><trkpt lat="43.1372135" lon="11.5655513"><ele>268.7142857142857</ele><time>2026-04-20T14:10:39.374Z</time></trkpt><trkpt lat="43.1372359" lon="11.5656324"><ele>268.42857142857144</ele><time>2026-04-20T14:10:40.374Z</time></trkpt><trkpt lat="43.1372444" lon="11.5657196"><ele>268.14285714285717</ele><time>2026-04-20T14:10:41.375Z</time></trkpt><trkpt lat="43.1372415" lon="11.5658128"><ele>267.8571428571429</ele><time>2026-04-20T14:10:42.374Z</time></trkpt><trkpt lat="43.137225" lon="11.565904"><ele>267.57142857142856</ele><time>2026-04-20T14:10:43.374Z</time></trkpt><trkpt lat="43.1372002" lon="11.5659905"><ele>267.28571428571433</ele><time>2026-04-20T14:10:44.374Z</time></trkpt><trkpt lat="43.137167" lon="11.5660694"><ele>267.0</ele><time>2026-04-20T14:10:45.374Z</time></trkpt><trkpt lat="43.1371269" lon="11.5661389"><ele>267.5714285714286</ele><time>2026-04-20T14:10:46.374Z</time></trkpt><trkpt lat="43.1370781" lon="11.5662012"><ele>268.14285714285717</ele><time>2026-04-20T14:10:47.374Z</time></trkpt><trkpt lat="43.1370169" lon="11.5662596"><ele>268.7142857142857</ele><time>2026-04-20T14:10:48.374Z</time></trkpt><trkpt lat="43.136949" lon="11.5663115"><ele>269.28571428571433</ele><time>2026-04-20T14:10:49.374Z</time></trkpt><trkpt lat="43.1368742" lon="11.5663518"><ele>269.8571428571429</ele><time>2026-04-20T14:10:50.374Z</time></trkpt><trkpt lat="43.1368035" lon="11.5663784"><ele>270.42857142857144</ele><time>2026-04-20T14:10:51.374Z</time></trkpt><trkpt lat="43.1367355" lon="11.5664099"><ele>271.0</ele><time>2026-04-20T14:10:52.375Z</time></trkpt><trkpt lat="43.1366673" lon="11.56644"><ele>271.0</ele><time>2026-04-20T14:10:53.374Z</time></trkpt><trkpt lat="43.1365978" lon="11.5664657"><ele>271.0</ele><time>2026-04-20T14:10:54.374Z</time></trkpt><trkpt lat="43.1365306" lon="11.5664912"><ele>271.0</ele><time>2026-04-20T14:10:55.374Z</time></trkpt><trkpt lat="43.1364661" lon="11.5665189"><ele>271.0</ele><time>2026-04-20T14:10:56.374Z</time></trkpt><trkpt lat="43.1364071" lon="11.5665502"><ele>271.0</ele><time>2026-04-20T14:10:57.374Z</time></trkpt><trkpt lat="43.1363008" lon="11.5666021"><ele>271.0</ele><time>2026-04-20T14:10:59.375Z</time></trkpt><trkpt lat="43.1361992" lon="11.5666194"><ele>267.16666666666663</ele><time>2026-04-20T14:11:01.375Z</time></trkpt><trkpt lat="43.1360995" lon="11.5665385"><ele>263.3333333333333</ele><time>2026-04-20T14:11:03.375Z</time></trkpt><trkpt lat="43.1360678" lon="11.5664521"><ele>259.5</ele><time>2026-04-20T14:11:04.375Z</time></trkpt><trkpt lat="43.136065" lon="11.5663504"><ele>255.66666666666669</ele><time>2026-04-20T14:11:05.375Z</time></trkpt><trkpt lat="43.1360796" lon="11.5662583"><ele>251.83333333333334</ele><time>2026-04-20T14:11:06.375Z</time></trkpt><trkpt lat="43.1361113" lon="11.5661743"><ele>248.0</ele><time>2026-04-20T14:11:07.375Z</time></trkpt><trkpt lat="43.1361601" lon="11.5660995"><ele>248.00000000000003</ele><time>2026-04-20T14:11:08.375Z</time></trkpt><trkpt lat="43.1362205" lon="11.5660291"><ele>248.0</ele><time>2026-04-20T14:11:09.375Z</time></trkpt><trkpt lat="43.1362832" lon="11.5659624"><ele>248.0</ele><time>2026-04-20T14:11:10.375Z</time></trkpt><trkpt lat="43.1363446" lon="11.5658884"><ele>248.0</ele><time>2026-04-20T14:11:11.376Z</time></trkpt><trkpt lat="43.1363788" lon="11.5658007"><ele>248.00000000000003</ele><time>2026-04-20T14:11:12.376Z</time></trkpt><trkpt lat="43.1363909" lon="11.5657082"><ele>248.0</ele><time>2026-04-20T14:11:13.375Z</time></trkpt><trkpt lat="43.1363844" lon="11.56561"><ele>248.00000000000003</ele><time>2026-04-20T14:11:14.375Z</time></trkpt><trkpt lat="43.1363662" lon="11.5655141"><ele>248.0</ele><time>2026-04-20T14:11:15.375Z</time></trkpt><trkpt lat="43.1363358" lon="11.5654315"><ele>248.0</ele><time>2026-04-20T14:11:16.375Z</time></trkpt><trkpt lat="43.1362903" lon="11.5653691"><ele>248.0</ele><time>2026-04-20T14:11:17.375Z</time></trkpt><trkpt lat="43.136238" lon="11.5653172"><ele>248.00000000000003</ele><time>2026-04-20T14:11:18.375Z</time></trkpt><trkpt lat="43.1361451" lon="11.565218"><ele>248.0</ele><time>2026-04-20T14:11:20.375Z</time></trkpt><trkpt lat="43.1360783" lon="11.5651244"><ele>247.50000000000003</ele><time>2026-04-20T14:11:22.375Z</time></trkpt><trkpt lat="43.1360347" lon="11.5650547"><ele>247.0</ele><time>2026-04-20T14:11:26.375Z</time></trkpt><trkpt lat="43.1359935" lon="11.5649705"><ele>246.5</ele><time>2026-04-20T14:13:57.378Z</time></trkpt><trkpt lat="43.1360243" lon="11.5648452"><ele>246.0</ele><time>2026-04-20T14:13:59.378Z</time></trkpt><trkpt lat="43.1360601" lon="11.5646961"><ele>245.50000000000003</ele><time>2026-04-20T14:14:01.378Z</time></trkpt><trkpt lat="43.1360838" lon="11.5646033"><ele>245.0</ele><time>2026-04-20T14:14:02.378Z</time></trkpt><trkpt lat="43.1361165" lon="11.5645091"><ele>244.16666666666669</ele><time>2026-04-20T14:14:03.378Z</time></trkpt><trkpt lat="43.136157" lon="11.5644221"><ele>243.33333333333334</ele><time>2026-04-20T14:14:04.378Z</time></trkpt><trkpt lat="43.1361982" lon="11.5643395"><ele>242.5</ele><time>2026-04-20T14:14:05.379Z</time></trkpt><trkpt lat="43.1362369" lon="11.5642633"><ele>241.66666666666669</ele><time>2026-04-20T14:14:06.378Z</time></trkpt><trkpt lat="43.1363022" lon="11.5641201"><ele>240.83333333333334</ele><time>2026-04-20T14:14:08.378Z</time></trkpt><trkpt lat="43.1363312" lon="11.5640417"><ele>240.0</ele><time>2026-04-20T14:14:09.378Z</time></trkpt><trkpt lat="43.1363644" lon="11.5638794"><ele>240.0</ele><time>2026-04-20T14:14:11.378Z</time></trkpt><trkpt lat="43.1363699" lon="11.5637303"><ele>240.0</ele><time>2026-04-20T14:14:13.378Z</time></trkpt><trkpt lat="43.1363583" lon="11.5635849"><ele>240.0</ele><time>2026-04-20T14:14:15.378Z</time></trkpt><trkpt lat="43.136326" lon="11.5634287"><ele>240.0</ele><time>2026-04-20T14:14:17.379Z</time></trkpt><trkpt lat="43.1362774" lon="11.5632959"><ele>240.0</ele><time>2026-04-20T14:14:19.378Z</time></trkpt><trkpt lat="43.1362016" lon="11.5631912"><ele>240.16666666666666</ele><time>2026-04-20T14:14:21.379Z</time></trkpt><trkpt lat="43.136121" lon="11.5630915"><ele>240.33333333333331</ele><time>2026-04-20T14:14:23.379Z</time></trkpt><trkpt lat="43.1360342" lon="11.5629928"><ele>240.5</ele><time>2026-04-20T14:14:25.379Z</time></trkpt><trkpt lat="43.1359856" lon="11.5629374"><ele>240.66666666666666</ele><time>2026-04-20T14:14:26.379Z</time></trkpt><trkpt lat="43.1359387" lon="11.5628775"><ele>240.83333333333331</ele><time>2026-04-20T14:14:27.379Z</time></trkpt><trkpt lat="43.1358933" lon="11.5628153"><ele>241.0</ele><time>2026-04-20T14:14:28.379Z</time></trkpt><trkpt lat="43.1357975" lon="11.5626973"><ele>242.33333333333331</ele><time>2026-04-20T14:14:30.38Z</time></trkpt><trkpt lat="43.1357436" lon="11.562629"><ele>243.66666666666666</ele><time>2026-04-20T14:14:31.379Z</time></trkpt><trkpt lat="43.1356869" lon="11.5625605"><ele>245.0</ele><time>2026-04-20T14:14:32.379Z</time></trkpt><trkpt lat="43.1356303" lon="11.5624928"><ele>246.33333333333331</ele><time>2026-04-20T14:14:33.38Z</time></trkpt><trkpt lat="43.1355701" lon="11.5624188"><ele>247.66666666666666</ele><time>2026-04-20T14:14:34.379Z</time></trkpt><trkpt lat="43.1355076" lon="11.5623367"><ele>249.0</ele><time>2026-04-20T14:14:35.379Z</time></trkpt><trkpt lat="43.1354488" lon="11.5622505"><ele>246.33333333333334</ele><time>2026-04-20T14:14:36.379Z</time></trkpt><trkpt lat="43.1353951" lon="11.5621616"><ele>243.66666666666669</ele><time>2026-04-20T14:14:37.379Z</time></trkpt><trkpt lat="43.1353449" lon="11.5620724"><ele>241.0</ele><time>2026-04-20T14:14:38.379Z</time></trkpt><trkpt lat="43.1352949" lon="11.5619835"><ele>238.33333333333334</ele><time>2026-04-20T14:14:39.379Z</time></trkpt><trkpt lat="43.1352469" lon="11.5618956"><ele>235.66666666666669</ele><time>2026-04-20T14:14:40.379Z</time></trkpt><trkpt lat="43.1352021" lon="11.5618086"><ele>233.0</ele><time>2026-04-20T14:14:41.379Z</time></trkpt><trkpt lat="43.1351579" lon="11.5617185"><ele>233.00000000000003</ele><time>2026-04-20T14:14:42.379Z</time></trkpt><trkpt lat="43.1351121" lon="11.561631"><ele>233.0</ele><time>2026-04-20T14:14:43.379Z</time></trkpt><trkpt lat="43.1350648" lon="11.5615437"><ele>233.0</ele><time>2026-04-20T14:14:44.379Z</time></trkpt><trkpt lat="43.1350178" lon="11.5614551"><ele>233.0</ele><time>2026-04-20T14:14:45.379Z</time></trkpt><trkpt lat="43.1349718" lon="11.5613668"><ele>233.00000000000003</ele><time>2026-04-20T14:14:46.379Z</time></trkpt><trkpt lat="43.134924" lon="11.5612791"><ele>233.0</ele><time>2026-04-20T14:14:47.379Z</time></trkpt><trkpt lat="43.134875" lon="11.5611908"><ele>229.50000000000003</ele><time>2026-04-20T14:14:48.379Z</time></trkpt><trkpt lat="43.1348272" lon="11.5610995"><ele>226.0</ele><time>2026-04-20T14:14:49.38Z</time></trkpt><trkpt lat="43.1347797" lon="11.5610047"><ele>222.5</ele><time>2026-04-20T14:14:50.379Z</time></trkpt><trkpt lat="43.134733" lon="11.5609139"><ele>219.0</ele><time>2026-04-20T14:14:51.379Z</time></trkpt><trkpt lat="43.1346872" lon="11.5608243"><ele>215.50000000000003</ele><time>2026-04-20T14:14:52.379Z</time></trkpt><trkpt lat="43.1346427" lon="11.5607377"><ele>212.0</ele><time>2026-04-20T14:14:53.379Z</time></trkpt><trkpt lat="43.134602" lon="11.5606514"><ele>212.0</ele><time>2026-04-20T14:14:54.38Z</time></trkpt><trkpt lat="43.1345623" lon="11.5605677"><ele>212.0</ele><time>2026-04-20T14:14:55.38Z</time></trkpt><trkpt lat="43.1345205" lon="11.5604887"><ele>212.0</ele><time>2026-04-20T14:14:56.379Z</time></trkpt><trkpt lat="43.134475" lon="11.5604094"><ele>212.0</ele><time>2026-04-20T14:14:57.379Z</time></trkpt><trkpt lat="43.134427" lon="11.5603284"><ele>212.0</ele><time>2026-04-20T14:14:58.379Z</time></trkpt><trkpt lat="43.1343817" lon="11.5602475"><ele>212.0</ele><time>2026-04-20T14:14:59.379Z</time></trkpt><trkpt lat="43.1343391" lon="11.5601706"><ele>212.0</ele><time>2026-04-20T14:15:00.38Z</time></trkpt><trkpt lat="43.1342977" lon="11.5600938"><ele>212.57142857142858</ele><time>2026-04-20T14:15:01.379Z</time></trkpt><trkpt lat="43.1342542" lon="11.560018"><ele>213.14285714285714</ele><time>2026-04-20T14:15:02.379Z</time></trkpt><trkpt lat="43.1342102" lon="11.5599425"><ele>213.71428571428572</ele><time>2026-04-20T14:15:03.379Z</time></trkpt><trkpt lat="43.1341667" lon="11.559866"><ele>214.28571428571428</ele><time>2026-04-20T14:15:04.381Z</time></trkpt><trkpt lat="43.1341244" lon="11.5597869"><ele>214.85714285714283</ele><time>2026-04-20T14:15:05.379Z</time></trkpt><trkpt lat="43.1340828" lon="11.5597024"><ele>215.42857142857142</ele><time>2026-04-20T14:15:06.379Z</time></trkpt><trkpt lat="43.1340462" lon="11.5596129"><ele>216.0</ele><time>2026-04-20T14:15:07.379Z</time></trkpt><trkpt lat="43.1340129" lon="11.5595136"><ele>213.33333333333334</ele><time>2026-04-20T14:15:08.379Z</time></trkpt><trkpt lat="43.1339875" lon="11.5594111"><ele>210.66666666666669</ele><time>2026-04-20T14:15:09.379Z</time></trkpt><trkpt lat="43.1339784" lon="11.5593045"><ele>208.0</ele><time>2026-04-20T14:15:10.38Z</time></trkpt><trkpt lat="43.1339787" lon="11.5591922"><ele>205.33333333333334</ele><time>2026-04-20T14:15:11.38Z</time></trkpt><trkpt lat="43.1339823" lon="11.5590719"><ele>202.66666666666669</ele><time>2026-04-20T14:15:12.381Z</time></trkpt><trkpt lat="43.1339839" lon="11.5589506"><ele>200.0</ele><time>2026-04-20T14:15:13.38Z</time></trkpt><trkpt lat="43.1339845" lon="11.5588307"><ele>200.00000000000003</ele><time>2026-04-20T14:15:14.38Z</time></trkpt><trkpt lat="43.1339866" lon="11.5587142"><ele>200.0</ele><time>2026-04-20T14:15:15.38Z</time></trkpt><trkpt lat="43.1339933" lon="11.5585983"><ele>200.0</ele><time>2026-04-20T14:15:16.38Z</time></trkpt><trkpt lat="43.134003" lon="11.558481"><ele>200.0</ele><time>2026-04-20T14:15:17.38Z</time></trkpt><trkpt lat="43.1340112" lon="11.5583658"><ele>200.00000000000003</ele><time>2026-04-20T14:15:18.38Z</time></trkpt><trkpt lat="43.1340158" lon="11.5582503"><ele>200.0</ele><time>2026-04-20T14:15:19.38Z</time></trkpt><trkpt lat="43.1340189" lon="11.5581327"><ele>200.0</ele><time>2026-04-20T14:15:20.38Z</time></trkpt><trkpt lat="43.1340157" lon="11.5580062"><ele>200.0</ele><time>2026-04-20T14:15:21.38Z</time></trkpt><trkpt lat="43.1340063" lon="11.5578689"><ele>200.0</ele><time>2026-04-20T14:15:22.38Z</time></trkpt><trkpt lat="43.1339913" lon="11.5577232"><ele>200.0</ele><time>2026-04-20T14:15:23.38Z</time></trkpt><trkpt lat="43.1339724" lon="11.5575734"><ele>200.0</ele><time>2026-04-20T14:15:24.38Z</time></trkpt><trkpt lat="43.1339519" lon="11.5574283"><ele>200.0</ele><time>2026-04-20T14:15:25.38Z</time></trkpt><trkpt lat="43.1339316" lon="11.5572842"><ele>200.0</ele><time>2026-04-20T14:15:26.38Z</time></trkpt><trkpt lat="43.1339117" lon="11.5571461"><ele>200.0</ele><time>2026-04-20T14:15:27.381Z</time></trkpt><trkpt lat="43.1338922" lon="11.5570126"><ele>200.0</ele><time>2026-04-20T14:15:28.38Z</time></trkpt><trkpt lat="43.1338704" lon="11.5568906"><ele>200.0</ele><time>2026-04-20T14:15:29.38Z</time></trkpt><trkpt lat="43.1338492" lon="11.556773"><ele>200.71428571428572</ele><time>2026-04-20T14:15:30.38Z</time></trkpt><trkpt lat="43.1338266" lon="11.5566594"><ele>201.42857142857144</ele><time>2026-04-20T14:15:31.38Z</time></trkpt><trkpt lat="43.1338044" lon="11.5565544"><ele>202.14285714285717</ele><time>2026-04-20T14:15:32.381Z</time></trkpt><trkpt lat="43.1337892" lon="11.5564608"><ele>202.85714285714286</ele><time>2026-04-20T14:15:33.381Z</time></trkpt><trkpt lat="43.1337722" lon="11.5563676"><ele>203.57142857142856</ele><time>2026-04-20T14:15:34.38Z</time></trkpt><trkpt lat="43.1337519" lon="11.5562737"><ele>204.2857142857143</ele><time>2026-04-20T14:15:35.38Z</time></trkpt><trkpt lat="43.1337271" lon="11.5561836"><ele>205.0</ele><time>2026-04-20T14:15:36.38Z</time></trkpt><trkpt lat="43.1336915" lon="11.5561005"><ele>206.66666666666666</ele><time>2026-04-20T14:15:37.38Z</time></trkpt><trkpt lat="43.1336417" lon="11.5560221"><ele>208.33333333333331</ele><time>2026-04-20T14:15:38.38Z</time></trkpt><trkpt lat="43.1335835" lon="11.5559545"><ele>210.0</ele><time>2026-04-20T14:15:39.38Z</time></trkpt><trkpt lat="43.133517" lon="11.5558976"><ele>211.66666666666669</ele><time>2026-04-20T14:15:40.38Z</time></trkpt><trkpt lat="43.1334468" lon="11.5558571"><ele>213.33333333333334</ele><time>2026-04-20T14:15:41.38Z</time></trkpt><trkpt lat="43.1333776" lon="11.5558397"><ele>215.0</ele><time>2026-04-20T14:15:42.38Z</time></trkpt><trkpt lat="43.1332999" lon="11.5558421"><ele>218.33333333333334</ele><time>2026-04-20T14:15:43.38Z</time></trkpt><trkpt lat="43.1332218" lon="11.5558577"><ele>221.66666666666669</ele><time>2026-04-20T14:15:44.38Z</time></trkpt><trkpt lat="43.1331471" lon="11.5558837"><ele>225.0</ele><time>2026-04-20T14:15:45.38Z</time></trkpt><trkpt lat="43.1330758" lon="11.55592"><ele>228.33333333333331</ele><time>2026-04-20T14:15:46.38Z</time></trkpt><trkpt lat="43.1330076" lon="11.5559657"><ele>231.66666666666666</ele><time>2026-04-20T14:15:47.38Z</time></trkpt><trkpt lat="43.1329453" lon="11.5560214"><ele>235.0</ele><time>2026-04-20T14:15:48.38Z</time></trkpt><trkpt lat="43.1328924" lon="11.5560844"><ele>235.0</ele><time>2026-04-20T14:15:49.381Z</time></trkpt><trkpt lat="43.1328403" lon="11.5561603"><ele>235.0</ele><time>2026-04-20T14:15:50.38Z</time></trkpt><trkpt lat="43.1327906" lon="11.5562398"><ele>235.0</ele><time>2026-04-20T14:15:51.38Z</time></trkpt><trkpt lat="43.1327343" lon="11.5563312"><ele>235.0</ele><time>2026-04-20T14:15:52.38Z</time></trkpt><trkpt lat="43.1326673" lon="11.5564413"><ele>235.0</ele><time>2026-04-20T14:15:53.38Z</time></trkpt><trkpt lat="43.1325926" lon="11.5565587"><ele>234.4</ele><time>2026-04-20T14:15:54.38Z</time></trkpt><trkpt lat="43.1325205" lon="11.5566622"><ele>233.8</ele><time>2026-04-20T14:15:55.38Z</time></trkpt><trkpt lat="43.1324498" lon="11.5567691"><ele>233.2</ele><time>2026-04-20T14:15:56.38Z</time></trkpt><trkpt lat="43.1323837" lon="11.556865"><ele>232.6</ele><time>2026-04-20T14:15:57.38Z</time></trkpt><trkpt lat="43.1323175" lon="11.5569482"><ele>232.0</ele><time>2026-04-20T14:15:58.38Z</time></trkpt><trkpt lat="43.1322483" lon="11.5570192"><ele>228.39999999999998</ele><time>2026-04-20T14:15:59.38Z</time></trkpt><trkpt lat="43.1321696" lon="11.5570714"><ele>224.79999999999998</ele><time>2026-04-20T14:16:00.38Z</time></trkpt><trkpt lat="43.1320806" lon="11.5571212"><ele>221.2</ele><time>2026-04-20T14:16:01.381Z</time></trkpt><trkpt lat="43.1319867" lon="11.5571644"><ele>217.6</ele><time>2026-04-20T14:16:02.382Z</time></trkpt><trkpt lat="43.1318916" lon="11.5572015"><ele>214.0</ele><time>2026-04-20T14:16:03.381Z</time></trkpt><trkpt lat="43.1317971" lon="11.5572413"><ele>214.0</ele><time>2026-04-20T14:16:04.381Z</time></trkpt><trkpt lat="43.1317019" lon="11.5572842"><ele>213.99999999999997</ele><time>2026-04-20T14:16:05.381Z</time></trkpt><trkpt lat="43.1316165" lon="11.5573258"><ele>213.99999999999997</ele><time>2026-04-20T14:16:06.381Z</time></trkpt><trkpt lat="43.131541" lon="11.5573614"><ele>214.0</ele><time>2026-04-20T14:16:07.381Z</time></trkpt><trkpt lat="43.1314724" lon="11.5573899"><ele>214.0</ele><time>2026-04-20T14:16:08.381Z</time></trkpt><trkpt lat="43.1313656" lon="11.5574054"><ele>213.66666666666666</ele><time>2026-04-20T14:16:10.381Z</time></trkpt><trkpt lat="43.1312475" lon="11.5573548"><ele>213.33333333333331</ele><time>2026-04-20T14:16:12.381Z</time></trkpt><trkpt lat="43.1311794" lon="11.5573012"><ele>213.0</ele><time>2026-04-20T14:16:13.381Z</time></trkpt><trkpt lat="43.1311286" lon="11.5572369"><ele>212.66666666666669</ele><time>2026-04-20T14:16:14.381Z</time></trkpt><trkpt lat="43.1310909" lon="11.5571571"><ele>212.33333333333334</ele><time>2026-04-20T14:16:15.381Z</time></trkpt><trkpt lat="43.131067" lon="11.557069"><ele>212.0</ele><time>2026-04-20T14:16:16.381Z</time></trkpt><trkpt lat="43.1310511" lon="11.5569786"><ele>214.57142857142858</ele><time>2026-04-20T14:16:17.382Z</time></trkpt><trkpt lat="43.1310492" lon="11.5568823"><ele>217.1428571428571</ele><time>2026-04-20T14:16:18.381Z</time></trkpt><trkpt lat="43.1310596" lon="11.5567849"><ele>219.7142857142857</ele><time>2026-04-20T14:16:19.381Z</time></trkpt><trkpt lat="43.1310898" lon="11.5566979"><ele>222.28571428571428</ele><time>2026-04-20T14:16:20.381Z</time></trkpt><trkpt lat="43.1311403" lon="11.556626"><ele>224.85714285714283</ele><time>2026-04-20T14:16:21.381Z</time></trkpt><trkpt lat="43.1312059" lon="11.5565705"><ele>227.4285714285714</ele><time>2026-04-20T14:16:22.381Z</time></trkpt><trkpt lat="43.1312779" lon="11.5565254"><ele>229.99999999999997</ele><time>2026-04-20T14:16:23.381Z</time></trkpt><trkpt lat="43.1313516" lon="11.5564816"><ele>230.0</ele><time>2026-04-20T14:16:24.381Z</time></trkpt><trkpt lat="43.1314281" lon="11.5564312"><ele>230.0</ele><time>2026-04-20T14:16:25.381Z</time></trkpt><trkpt lat="43.1315063" lon="11.5563781"><ele>230.0</ele><time>2026-04-20T14:16:26.381Z</time></trkpt><trkpt lat="43.1315888" lon="11.5563167"><ele>230.0</ele><time>2026-04-20T14:16:27.381Z</time></trkpt><trkpt lat="43.1316733" lon="11.5562515"><ele>230.0</ele><time>2026-04-20T14:16:28.381Z</time></trkpt><trkpt lat="43.1317593" lon="11.5561823"><ele>232.6</ele><time>2026-04-20T14:16:29.381Z</time></trkpt><trkpt lat="43.1318371" lon="11.5561153"><ele>235.2</ele><time>2026-04-20T14:16:30.381Z</time></trkpt><trkpt lat="43.1319174" lon="11.5560378"><ele>237.8</ele><time>2026-04-20T14:16:31.381Z</time></trkpt><trkpt lat="43.1319969" lon="11.5559589"><ele>240.4</ele><time>2026-04-20T14:16:32.381Z</time></trkpt><trkpt lat="43.132078" lon="11.5558779"><ele>243.0</ele><time>2026-04-20T14:16:33.381Z</time></trkpt><trkpt lat="43.1321551" lon="11.5558006"><ele>243.0</ele><time>2026-04-20T14:16:34.381Z</time></trkpt><trkpt lat="43.1322321" lon="11.5557188"><ele>243.0</ele><time>2026-04-20T14:16:35.381Z</time></trkpt><trkpt lat="43.1323093" lon="11.5556359"><ele>243.0</ele><time>2026-04-20T14:16:36.381Z</time></trkpt><trkpt lat="43.1323871" lon="11.5555544"><ele>243.0</ele><time>2026-04-20T14:16:37.381Z</time></trkpt><trkpt lat="43.1324653" lon="11.5554722"><ele>243.0</ele><time>2026-04-20T14:16:38.381Z</time></trkpt><trkpt lat="43.1325399" lon="11.5553981"><ele>243.5</ele><time>2026-04-20T14:16:39.381Z</time></trkpt><trkpt lat="43.1326122" lon="11.5553256"><ele>244.0</ele><time>2026-04-20T14:16:40.381Z</time></trkpt><trkpt lat="43.1326779" lon="11.5552545"><ele>244.5</ele><time>2026-04-20T14:16:41.381Z</time></trkpt><trkpt lat="43.1327374" lon="11.5551842"><ele>245.0</ele><time>2026-04-20T14:16:42.381Z</time></trkpt><trkpt lat="43.1327876" lon="11.5551148"><ele>245.5</ele><time>2026-04-20T14:16:43.381Z</time></trkpt><trkpt lat="43.1328279" lon="11.5550469"><ele>246.0</ele><time>2026-04-20T14:16:44.381Z</time></trkpt><trkpt lat="43.1328794" lon="11.5548973"><ele>246.0</ele><time>2026-04-20T14:16:46.381Z</time></trkpt><trkpt lat="43.1328914" lon="11.5548082"><ele>246.0</ele><time>2026-04-20T14:16:47.381Z</time></trkpt><trkpt lat="43.1328916" lon="11.554719"><ele>246.0</ele><time>2026-04-20T14:16:48.381Z</time></trkpt><trkpt lat="43.1328603" lon="11.5545732"><ele>246.0</ele><time>2026-04-20T14:16:50.381Z</time></trkpt><trkpt lat="43.1328011" lon="11.5544634"><ele>246.0</ele><time>2026-04-20T14:16:52.382Z</time></trkpt><trkpt lat="43.1327604" lon="11.5543966"><ele>246.0</ele><time>2026-04-20T14:16:53.382Z</time></trkpt><trkpt lat="43.1326756" lon="11.5542685"><ele>246.8</ele><time>2026-04-20T14:16:55.382Z</time></trkpt><trkpt lat="43.1325745" lon="11.554155"><ele>247.60000000000002</ele><time>2026-04-20T14:16:57.382Z</time></trkpt><trkpt lat="43.1325204" lon="11.5541079"><ele>248.4</ele><time>2026-04-20T14:16:58.382Z</time></trkpt><trkpt lat="43.1324077" lon="11.5540461"><ele>249.2</ele><time>2026-04-20T14:17:00.382Z</time></trkpt><trkpt lat="43.1322819" lon="11.5540581"><ele>250.0</ele><time>2026-04-20T14:17:02.382Z</time></trkpt><trkpt lat="43.1322181" lon="11.5540953"><ele>250.99999999999997</ele><time>2026-04-20T14:17:03.382Z</time></trkpt><trkpt lat="43.1321473" lon="11.5541465"><ele>252.0</ele><time>2026-04-20T14:17:04.382Z</time></trkpt><trkpt lat="43.1320827" lon="11.5542104"><ele>253.0</ele><time>2026-04-20T14:17:05.382Z</time></trkpt><trkpt lat="43.1320191" lon="11.5542854"><ele>254.0</ele><time>2026-04-20T14:17:06.382Z</time></trkpt><trkpt lat="43.1319579" lon="11.5543729"><ele>254.99999999999997</ele><time>2026-04-20T14:17:07.383Z</time></trkpt><trkpt lat="43.1318966" lon="11.5544661"><ele>256.0</ele><time>2026-04-20T14:17:08.382Z</time></trkpt><trkpt lat="43.1318369" lon="11.5545616"><ele>256.0</ele><time>2026-04-20T14:17:09.382Z</time></trkpt><trkpt lat="43.1317764" lon="11.5546563"><ele>256.0</ele><time>2026-04-20T14:17:10.382Z</time></trkpt><trkpt lat="43.1317149" lon="11.5547519"><ele>256.0</ele><time>2026-04-20T14:17:11.383Z</time></trkpt><trkpt lat="43.1316481" lon="11.5548458"><ele>256.0</ele><time>2026-04-20T14:17:12.382Z</time></trkpt><trkpt lat="43.1315788" lon="11.5549337"><ele>256.0</ele><time>2026-04-20T14:17:13.382Z</time></trkpt><trkpt lat="43.1315093" lon="11.5550109"><ele>257.0</ele><time>2026-04-20T14:17:14.382Z</time></trkpt><trkpt lat="43.1314365" lon="11.5550801"><ele>258.0</ele><time>2026-04-20T14:17:15.383Z</time></trkpt><trkpt lat="43.1313626" lon="11.5551351"><ele>259.0</ele><time>2026-04-20T14:17:16.382Z</time></trkpt><trkpt lat="43.1312851" lon="11.5551709"><ele>260.0</ele><time>2026-04-20T14:17:17.382Z</time></trkpt><trkpt lat="43.1311985" lon="11.5551894"><ele>261.0</ele><time>2026-04-20T14:17:18.382Z</time></trkpt><trkpt lat="43.1311131" lon="11.5551874"><ele>262.0</ele><time>2026-04-20T14:17:19.382Z</time></trkpt><trkpt lat="43.1310301" lon="11.5551665"><ele>262.0</ele><time>2026-04-20T14:17:20.382Z</time></trkpt><trkpt lat="43.1309535" lon="11.555123"><ele>262.0</ele><time>2026-04-20T14:17:21.382Z</time></trkpt><trkpt lat="43.1308825" lon="11.5550562"><ele>262.0</ele><time>2026-04-20T14:17:22.382Z</time></trkpt><trkpt lat="43.130821" lon="11.5549645"><ele>262.0</ele><time>2026-04-20T14:17:23.382Z</time></trkpt><trkpt lat="43.1307672" lon="11.554861"><ele>262.0</ele><time>2026-04-20T14:17:24.382Z</time></trkpt><trkpt lat="43.1307139" lon="11.5547537"><ele>262.0</ele><time>2026-04-20T14:17:25.382Z</time></trkpt><trkpt lat="43.1306619" lon="11.5546518"><ele>262.66666666666663</ele><time>2026-04-20T14:17:26.382Z</time></trkpt><trkpt lat="43.1306065" lon="11.5545711"><ele>263.3333333333333</ele><time>2026-04-20T14:17:27.382Z</time></trkpt><trkpt lat="43.1305388" lon="11.5545103"><ele>264.0</ele><time>2026-04-20T14:17:28.382Z</time></trkpt><trkpt lat="43.1304602" lon="11.5544519"><ele>264.6666666666667</ele><time>2026-04-20T14:17:29.383Z</time></trkpt><trkpt lat="43.1303771" lon="11.5543912"><ele>265.33333333333337</ele><time>2026-04-20T14:17:30.382Z</time></trkpt><trkpt lat="43.1302925" lon="11.5543202"><ele>266.0</ele><time>2026-04-20T14:17:31.382Z</time></trkpt><trkpt lat="43.1302153" lon="11.5542354"><ele>266.0</ele><time>2026-04-20T14:17:32.382Z</time></trkpt><trkpt lat="43.1301457" lon="11.5541367"><ele>266.0</ele><time>2026-04-20T14:17:33.382Z</time></trkpt><trkpt lat="43.130075" lon="11.5540421"><ele>266.0</ele><time>2026-04-20T14:17:34.382Z</time></trkpt><trkpt lat="43.1299991" lon="11.553957"><ele>266.0</ele><time>2026-04-20T14:17:35.383Z</time></trkpt><trkpt lat="43.1299201" lon="11.5538922"><ele>266.0</ele><time>2026-04-20T14:17:36.382Z</time></trkpt><trkpt lat="43.1298356" lon="11.5538491"><ele>266.1666666666667</ele><time>2026-04-20T14:17:37.382Z</time></trkpt><trkpt lat="43.1297469" lon="11.5538226"><ele>266.33333333333337</ele><time>2026-04-20T14:17:38.382Z</time></trkpt><trkpt lat="43.1296567" lon="11.553807"><ele>266.5</ele><time>2026-04-20T14:17:39.383Z</time></trkpt><trkpt lat="43.1295757" lon="11.5537998"><ele>266.6666666666667</ele><time>2026-04-20T14:17:40.382Z</time></trkpt><trkpt lat="43.129511" lon="11.5537978"><ele>266.8333333333333</ele><time>2026-04-20T14:17:41.383Z</time></trkpt><trkpt lat="43.1294467" lon="11.5537898"><ele>267.0</ele><time>2026-04-20T14:17:42.383Z</time></trkpt><trkpt lat="43.1293459" lon="11.5537003"><ele>268.5714285714286</ele><time>2026-04-20T14:17:44.384Z</time></trkpt><trkpt lat="43.1293121" lon="11.5536177"><ele>270.14285714285717</ele><time>2026-04-20T14:17:45.383Z</time></trkpt><trkpt lat="43.1292951" lon="11.553526"><ele>271.7142857142857</ele><time>2026-04-20T14:17:46.383Z</time></trkpt><trkpt lat="43.1293009" lon="11.5534301"><ele>273.28571428571433</ele><time>2026-04-20T14:17:47.383Z</time></trkpt><trkpt lat="43.1293244" lon="11.5533394"><ele>274.8571428571429</ele><time>2026-04-20T14:17:48.383Z</time></trkpt><trkpt lat="43.1293649" lon="11.5532624"><ele>276.42857142857144</ele><time>2026-04-20T14:17:49.383Z</time></trkpt><trkpt lat="43.1294198" lon="11.553198"><ele>278.0</ele><time>2026-04-20T14:17:50.383Z</time></trkpt><trkpt lat="43.1294867" lon="11.553155"><ele>278.0</ele><time>2026-04-20T14:17:51.384Z</time></trkpt><trkpt lat="43.1295645" lon="11.553136"><ele>278.0</ele><time>2026-04-20T14:17:52.383Z</time></trkpt><trkpt lat="43.1296467" lon="11.5531394"><ele>278.0</ele><time>2026-04-20T14:17:53.384Z</time></trkpt><trkpt lat="43.1297293" lon="11.5531535"><ele>278.0</ele><time>2026-04-20T14:17:54.383Z</time></trkpt><trkpt lat="43.1298195" lon="11.5531762"><ele>278.0</ele><time>2026-04-20T14:17:55.384Z</time></trkpt><trkpt lat="43.1299122" lon="11.5532074"><ele>278.0</ele><time>2026-04-20T14:17:56.383Z</time></trkpt><trkpt lat="43.1300011" lon="11.5532426"><ele>278.0</ele><time>2026-04-20T14:17:57.383Z</time></trkpt><trkpt lat="43.130087" lon="11.5532777"><ele>278.0</ele><time>2026-04-20T14:17:58.383Z</time></trkpt><trkpt lat="43.130175" lon="11.5533124"><ele>278.0</ele><time>2026-04-20T14:17:59.383Z</time></trkpt><trkpt lat="43.1302634" lon="11.5533448"><ele>278.0</ele><time>2026-04-20T14:18:00.384Z</time></trkpt><trkpt lat="43.1303498" lon="11.5533772"><ele>278.0</ele><time>2026-04-20T14:18:01.383Z</time></trkpt><trkpt lat="43.1304313" lon="11.5534084"><ele>278.0</ele><time>2026-04-20T14:18:02.383Z</time></trkpt><trkpt lat="43.1305095" lon="11.5534346"><ele>278.0</ele><time>2026-04-20T14:18:03.383Z</time></trkpt><trkpt lat="43.1305876" lon="11.5534499"><ele>278.0</ele><time>2026-04-20T14:18:04.383Z</time></trkpt><trkpt lat="43.130668" lon="11.5534537"><ele>278.0</ele><time>2026-04-20T14:18:05.383Z</time></trkpt><trkpt lat="43.1307501" lon="11.5534429"><ele>278.0</ele><time>2026-04-20T14:18:06.383Z</time></trkpt><trkpt lat="43.1308279" lon="11.5534107"><ele>278.0</ele><time>2026-04-20T14:18:07.383Z</time></trkpt><trkpt lat="43.1309014" lon="11.5533599"><ele>278.0</ele><time>2026-04-20T14:18:08.383Z</time></trkpt><trkpt lat="43.1309721" lon="11.5532885"><ele>278.83333333333337</ele><time>2026-04-20T14:18:09.383Z</time></trkpt><trkpt lat="43.1310359" lon="11.5532043"><ele>279.6666666666667</ele><time>2026-04-20T14:18:10.383Z</time></trkpt><trkpt lat="43.131087" lon="11.5531119"><ele>280.5</ele><time>2026-04-20T14:18:11.383Z</time></trkpt><trkpt lat="43.1311194" lon="11.5530211"><ele>281.3333333333333</ele><time>2026-04-20T14:18:12.384Z</time></trkpt><trkpt lat="43.1311367" lon="11.5529208"><ele>282.16666666666663</ele><time>2026-04-20T14:18:13.383Z</time></trkpt><trkpt lat="43.1311427" lon="11.5528113"><ele>283.0</ele><time>2026-04-20T14:18:14.383Z</time></trkpt><trkpt lat="43.1311342" lon="11.552696"><ele>284.5</ele><time>2026-04-20T14:18:15.383Z</time></trkpt><trkpt lat="43.1311178" lon="11.5525783"><ele>286.0</ele><time>2026-04-20T14:18:16.383Z</time></trkpt><trkpt lat="43.1311014" lon="11.5524662"><ele>287.5</ele><time>2026-04-20T14:18:17.383Z</time></trkpt><trkpt lat="43.1310876" lon="11.552355"><ele>289.0</ele><time>2026-04-20T14:18:18.384Z</time></trkpt><trkpt lat="43.1310791" lon="11.55224"><ele>290.5</ele><time>2026-04-20T14:18:19.383Z</time></trkpt><trkpt lat="43.1310785" lon="11.5521216"><ele>292.0</ele><time>2026-04-20T14:18:20.384Z</time></trkpt><trkpt lat="43.1310864" lon="11.5520028"><ele>293.8</ele><time>2026-04-20T14:18:21.384Z</time></trkpt><trkpt lat="43.1311063" lon="11.5518903"><ele>295.6</ele><time>2026-04-20T14:18:22.383Z</time></trkpt><trkpt lat="43.1311396" lon="11.5517787"><ele>297.40000000000003</ele><time>2026-04-20T14:18:23.383Z</time></trkpt><trkpt lat="43.1311845" lon="11.5516667"><ele>299.2</ele><time>2026-04-20T14:18:24.383Z</time></trkpt><trkpt lat="43.1312382" lon="11.551563"><ele>301.0</ele><time>2026-04-20T14:18:25.384Z</time></trkpt><trkpt lat="43.1313006" lon="11.5514642"><ele>301.0</ele><time>2026-04-20T14:18:26.383Z</time></trkpt><trkpt lat="43.1313659" lon="11.5513648"><ele>301.0</ele><time>2026-04-20T14:18:27.383Z</time></trkpt><trkpt lat="43.1314307" lon="11.5512611"><ele>301.0</ele><time>2026-04-20T14:18:28.383Z</time></trkpt><trkpt lat="43.1314932" lon="11.5511488"><ele>301.0</ele><time>2026-04-20T14:18:29.383Z</time></trkpt><trkpt lat="43.1315559" lon="11.5510323"><ele>301.0</ele><time>2026-04-20T14:18:30.383Z</time></trkpt><trkpt lat="43.1316219" lon="11.5509129"><ele>300.40000000000003</ele><time>2026-04-20T14:18:31.384Z</time></trkpt><trkpt lat="43.1316882" lon="11.5507963"><ele>299.8</ele><time>2026-04-20T14:18:32.384Z</time></trkpt><trkpt lat="43.1317559" lon="11.5506746"><ele>299.20000000000005</ele><time>2026-04-20T14:18:33.384Z</time></trkpt><trkpt lat="43.1318215" lon="11.5505533"><ele>298.6</ele><time>2026-04-20T14:18:34.384Z</time></trkpt><trkpt lat="43.1318852" lon="11.5504344"><ele>298.0</ele><time>2026-04-20T14:18:35.384Z</time></trkpt><trkpt lat="43.1319487" lon="11.5503157"><ele>299.8</ele><time>2026-04-20T14:18:36.385Z</time></trkpt><trkpt lat="43.1320098" lon="11.5501977"><ele>301.6</ele><time>2026-04-20T14:18:37.384Z</time></trkpt><trkpt lat="43.1320714" lon="11.5500826"><ele>303.4</ele><time>2026-04-20T14:18:38.384Z</time></trkpt><trkpt lat="43.1321315" lon="11.5499679"><ele>305.2</ele><time>2026-04-20T14:18:39.385Z</time></trkpt><trkpt lat="43.1321867" lon="11.5498598"><ele>307.0</ele><time>2026-04-20T14:18:40.384Z</time></trkpt><trkpt lat="43.1322362" lon="11.5497639"><ele>307.0</ele><time>2026-04-20T14:18:41.384Z</time></trkpt><trkpt lat="43.132279" lon="11.5496832"><ele>307.0</ele><time>2026-04-20T14:18:42.384Z</time></trkpt><trkpt lat="43.1323548" lon="11.5495478"><ele>307.0</ele><time>2026-04-20T14:18:44.384Z</time></trkpt><trkpt lat="43.1323947" lon="11.5494756"><ele>307.0</ele><time>2026-04-20T14:18:45.385Z</time></trkpt><trkpt lat="43.132445" lon="11.5493972"><ele>307.0</ele><time>2026-04-20T14:18:46.384Z</time></trkpt><trkpt lat="43.1325093" lon="11.5493215"><ele>307.0</ele><time>2026-04-20T14:18:47.384Z</time></trkpt><trkpt lat="43.1325863" lon="11.5492519"><ele>307.4</ele><time>2026-04-20T14:18:48.384Z</time></trkpt><trkpt lat="43.1326703" lon="11.5491865"><ele>307.79999999999995</ele><time>2026-04-20T14:18:49.385Z</time></trkpt><trkpt lat="43.1327597" lon="11.5491198"><ele>308.2</ele><time>2026-04-20T14:18:50.384Z</time></trkpt><trkpt lat="43.1328535" lon="11.5490528"><ele>308.59999999999997</ele><time>2026-04-20T14:18:51.384Z</time></trkpt><trkpt lat="43.1329496" lon="11.5489867"><ele>309.0</ele><time>2026-04-20T14:18:52.384Z</time></trkpt><trkpt lat="43.1330438" lon="11.5489237"><ele>309.0</ele><time>2026-04-20T14:18:53.384Z</time></trkpt><trkpt lat="43.1331334" lon="11.5488616"><ele>309.0</ele><time>2026-04-20T14:18:54.384Z</time></trkpt><trkpt lat="43.1332169" lon="11.5487946"><ele>309.0</ele><time>2026-04-20T14:18:55.384Z</time></trkpt><trkpt lat="43.1332899" lon="11.548722"><ele>309.0</ele><time>2026-04-20T14:18:56.385Z</time></trkpt><trkpt lat="43.1333527" lon="11.5486394"><ele>309.0</ele><time>2026-04-20T14:18:57.384Z</time></trkpt><trkpt lat="43.1334038" lon="11.5485463"><ele>309.3333333333333</ele><time>2026-04-20T14:18:58.384Z</time></trkpt><trkpt lat="43.1334466" lon="11.5484435"><ele>309.6666666666667</ele><time>2026-04-20T14:18:59.384Z</time></trkpt><trkpt lat="43.1334765" lon="11.5483358"><ele>310.0</ele><time>2026-04-20T14:19:00.384Z</time></trkpt><trkpt lat="43.1334929" lon="11.5482144"><ele>310.33333333333337</ele><time>2026-04-20T14:19:01.384Z</time></trkpt><trkpt lat="43.1334958" lon="11.5480882"><ele>310.6666666666667</ele><time>2026-04-20T14:19:02.384Z</time></trkpt><trkpt lat="43.1334873" lon="11.5479623"><ele>311.0</ele><time>2026-04-20T14:19:03.384Z</time></trkpt><trkpt lat="43.1334662" lon="11.5478374"><ele>311.0</ele><time>2026-04-20T14:19:04.384Z</time></trkpt><trkpt lat="43.1334369" lon="11.547719"><ele>311.0</ele><time>2026-04-20T14:19:05.384Z</time></trkpt><trkpt lat="43.1334031" lon="11.5475983"><ele>311.0</ele><time>2026-04-20T14:19:06.384Z</time></trkpt><trkpt lat="43.1333682" lon="11.5474722"><ele>311.0</ele><time>2026-04-20T14:19:07.384Z</time></trkpt><trkpt lat="43.1333327" lon="11.5473377"><ele>311.0</ele><time>2026-04-20T14:19:08.385Z</time></trkpt><trkpt lat="43.1332978" lon="11.5472029"><ele>311.0</ele><time>2026-04-20T14:19:09.384Z</time></trkpt><trkpt lat="43.1332639" lon="11.5470702"><ele>311.0</ele><time>2026-04-20T14:19:10.384Z</time></trkpt><trkpt lat="43.1332324" lon="11.5469408"><ele>311.0</ele><time>2026-04-20T14:19:11.384Z</time></trkpt><trkpt lat="43.1332012" lon="11.5468146"><ele>311.0</ele><time>2026-04-20T14:19:12.384Z</time></trkpt><trkpt lat="43.1331674" lon="11.5466847"><ele>311.0</ele><time>2026-04-20T14:19:13.384Z</time></trkpt><trkpt lat="43.1331327" lon="11.546546"><ele>307.8</ele><time>2026-04-20T14:19:14.384Z</time></trkpt><trkpt lat="43.1330993" lon="11.5464057"><ele>304.6</ele><time>2026-04-20T14:19:15.384Z</time></trkpt><trkpt lat="43.1330679" lon="11.5462671"><ele>301.4</ele><time>2026-04-20T14:19:16.384Z</time></trkpt><trkpt lat="43.1330408" lon="11.5461281"><ele>298.2</ele><time>2026-04-20T14:19:17.384Z</time></trkpt><trkpt lat="43.1330104" lon="11.5459853"><ele>295.0</ele><time>2026-04-20T14:19:18.384Z</time></trkpt><trkpt lat="43.1329758" lon="11.5458397"><ele>295.0</ele><time>2026-04-20T14:19:19.384Z</time></trkpt><trkpt lat="43.1329416" lon="11.5456941"><ele>295.0</ele><time>2026-04-20T14:19:20.384Z</time></trkpt><trkpt lat="43.1329094" lon="11.54555"><ele>295.0</ele><time>2026-04-20T14:19:21.385Z</time></trkpt><trkpt lat="43.1328781" lon="11.5454048"><ele>295.0</ele><time>2026-04-20T14:19:22.385Z</time></trkpt><trkpt lat="43.1328461" lon="11.5452631"><ele>295.0</ele><time>2026-04-20T14:19:23.385Z</time></trkpt><trkpt lat="43.1328153" lon="11.5451284"><ele>295.6</ele><time>2026-04-20T14:19:24.385Z</time></trkpt><trkpt lat="43.1327831" lon="11.5449948"><ele>296.2</ele><time>2026-04-20T14:19:25.385Z</time></trkpt><trkpt lat="43.132749" lon="11.5448557"><ele>296.8</ele><time>2026-04-20T14:19:26.385Z</time></trkpt><trkpt lat="43.132715" lon="11.5447132"><ele>297.4</ele><time>2026-04-20T14:19:27.386Z</time></trkpt><trkpt lat="43.1326806" lon="11.5445714"><ele>298.0</ele><time>2026-04-20T14:19:28.385Z</time></trkpt><trkpt lat="43.132646" lon="11.5444241"><ele>299.0</ele><time>2026-04-20T14:19:29.386Z</time></trkpt><trkpt lat="43.13261" lon="11.5442748"><ele>300.0</ele><time>2026-04-20T14:19:30.385Z</time></trkpt><trkpt lat="43.1325722" lon="11.5441284"><ele>301.0</ele><time>2026-04-20T14:19:31.385Z</time></trkpt><trkpt lat="43.1325302" lon="11.5439831"><ele>302.0</ele><time>2026-04-20T14:19:32.385Z</time></trkpt><trkpt lat="43.1324851" lon="11.54384"><ele>302.0</ele><time>2026-04-20T14:19:33.385Z</time></trkpt><trkpt lat="43.132436" lon="11.5436986"><ele>302.0</ele><time>2026-04-20T14:19:34.385Z</time></trkpt><trkpt lat="43.1323845" lon="11.5435637"><ele>302.0</ele><time>2026-04-20T14:19:35.385Z</time></trkpt><trkpt lat="43.1323345" lon="11.5434391"><ele>302.0</ele><time>2026-04-20T14:19:36.385Z</time></trkpt><trkpt lat="43.1322889" lon="11.5433257"><ele>302.0</ele><time>2026-04-20T14:19:37.385Z</time></trkpt><trkpt lat="43.132246" lon="11.5432222"><ele>302.0</ele><time>2026-04-20T14:19:38.385Z</time></trkpt><trkpt lat="43.1322051" lon="11.543125"><ele>302.0</ele><time>2026-04-20T14:19:39.385Z</time></trkpt><trkpt lat="43.1321672" lon="11.543032"><ele>302.0</ele><time>2026-04-20T14:19:40.385Z</time></trkpt><trkpt lat="43.1321318" lon="11.5429436"><ele>302.0</ele><time>2026-04-20T14:19:41.385Z</time></trkpt><trkpt lat="43.1320964" lon="11.5428558"><ele>302.0</ele><time>2026-04-20T14:19:42.385Z</time></trkpt><trkpt lat="43.1320604" lon="11.5427636"><ele>302.0</ele><time>2026-04-20T14:19:43.385Z</time></trkpt><trkpt lat="43.1320259" lon="11.5426739"><ele>302.4</ele><time>2026-04-20T14:19:44.385Z</time></trkpt><trkpt lat="43.1319931" lon="11.5425923"><ele>302.79999999999995</ele><time>2026-04-20T14:19:45.385Z</time></trkpt><trkpt lat="43.1319357" lon="11.5424534"><ele>303.2</ele><time>2026-04-20T14:19:47.386Z</time></trkpt><trkpt lat="43.1318743" lon="11.5423199"><ele>303.59999999999997</ele><time>2026-04-20T14:19:49.385Z</time></trkpt><trkpt lat="43.1318314" lon="11.5421958"><ele>304.0</ele><time>2026-04-20T14:19:51.385Z</time></trkpt><trkpt lat="43.1318097" lon="11.5420812"><ele>304.16666666666663</ele><time>2026-04-20T14:19:53.385Z</time></trkpt><trkpt lat="43.1318011" lon="11.5419744"><ele>304.3333333333333</ele><time>2026-04-20T14:19:55.385Z</time></trkpt><trkpt lat="43.1318069" lon="11.5418876"><ele>304.5</ele><time>2026-04-20T14:19:57.386Z</time></trkpt><trkpt lat="43.131826" lon="11.5417826"><ele>304.6666666666667</ele><time>2026-04-20T14:20:00.386Z</time></trkpt><trkpt lat="43.1318522" lon="11.5416596"><ele>304.83333333333337</ele><time>2026-04-20T14:20:03.385Z</time></trkpt><trkpt lat="43.1318855" lon="11.5415313"><ele>305.0</ele><time>2026-04-20T14:20:05.385Z</time></trkpt><trkpt lat="43.1319105" lon="11.5413661"><ele>305.0</ele><time>2026-04-20T14:20:07.385Z</time></trkpt><trkpt lat="43.131921" lon="11.5412627"><ele>305.0</ele><time>2026-04-20T14:20:08.386Z</time></trkpt><trkpt lat="43.131931" lon="11.5411565"><ele>305.0</ele><time>2026-04-20T14:20:09.387Z</time></trkpt><trkpt lat="43.1319421" lon="11.54105"><ele>305.0</ele><time>2026-04-20T14:20:10.386Z</time></trkpt><trkpt lat="43.1319532" lon="11.5409516"><ele>305.0</ele><time>2026-04-20T14:20:11.386Z</time></trkpt><trkpt lat="43.1319627" lon="11.5408553"><ele>305.0</ele><time>2026-04-20T14:20:12.386Z</time></trkpt><trkpt lat="43.1319725" lon="11.540762"><ele>305.0</ele><time>2026-04-20T14:20:13.386Z</time></trkpt><trkpt lat="43.1319878" lon="11.5406629"><ele>305.1666666666667</ele><time>2026-04-20T14:20:14.386Z</time></trkpt><trkpt lat="43.1320107" lon="11.5405637"><ele>305.33333333333337</ele><time>2026-04-20T14:20:15.386Z</time></trkpt><trkpt lat="43.1320406" lon="11.5404627"><ele>305.5</ele><time>2026-04-20T14:20:16.386Z</time></trkpt><trkpt lat="43.1320735" lon="11.5403522"><ele>305.6666666666667</ele><time>2026-04-20T14:20:17.386Z</time></trkpt><trkpt lat="43.1321039" lon="11.540241"><ele>305.8333333333333</ele><time>2026-04-20T14:20:18.386Z</time></trkpt><trkpt lat="43.1321352" lon="11.5401359"><ele>306.0</ele><time>2026-04-20T14:20:19.386Z</time></trkpt><trkpt lat="43.1321655" lon="11.5400361"><ele>306.0</ele><time>2026-04-20T14:20:20.386Z</time></trkpt><trkpt lat="43.1321856" lon="11.5399391"><ele>306.0</ele><time>2026-04-20T14:20:21.387Z</time></trkpt><trkpt lat="43.1321978" lon="11.5398438"><ele>306.0</ele><time>2026-04-20T14:20:22.386Z</time></trkpt><trkpt lat="43.1322048" lon="11.5397494"><ele>306.0</ele><time>2026-04-20T14:20:23.386Z</time></trkpt><trkpt lat="43.1322092" lon="11.5396467"><ele>306.0</ele><time>2026-04-20T14:20:24.386Z</time></trkpt><trkpt lat="43.1322085" lon="11.5395378"><ele>306.0</ele><time>2026-04-20T14:20:25.386Z</time></trkpt><trkpt lat="43.1322031" lon="11.5394225"><ele>305.1666666666667</ele><time>2026-04-20T14:20:26.386Z</time></trkpt><trkpt lat="43.1321951" lon="11.5393004"><ele>304.3333333333333</ele><time>2026-04-20T14:20:27.386Z</time></trkpt><trkpt lat="43.1321884" lon="11.5391787"><ele>303.5</ele><time>2026-04-20T14:20:28.386Z</time></trkpt><trkpt lat="43.1321889" lon="11.5390628"><ele>302.66666666666663</ele><time>2026-04-20T14:20:29.386Z</time></trkpt><trkpt lat="43.1321995" lon="11.538951"><ele>301.8333333333333</ele><time>2026-04-20T14:20:30.387Z</time></trkpt><trkpt lat="43.1322164" lon="11.5388401"><ele>301.0</ele><time>2026-04-20T14:20:31.386Z</time></trkpt><trkpt lat="43.1322335" lon="11.5387228"><ele>299.66666666666663</ele><time>2026-04-20T14:20:32.386Z</time></trkpt><trkpt lat="43.1322488" lon="11.5386071"><ele>298.3333333333333</ele><time>2026-04-20T14:20:33.386Z</time></trkpt><trkpt lat="43.1322632" lon="11.5384899"><ele>297.0</ele><time>2026-04-20T14:20:34.386Z</time></trkpt><trkpt lat="43.1322814" lon="11.5383788"><ele>295.6666666666667</ele><time>2026-04-20T14:20:35.386Z</time></trkpt><trkpt lat="43.1323054" lon="11.5382779"><ele>294.33333333333337</ele><time>2026-04-20T14:20:36.387Z</time></trkpt><trkpt lat="43.1323331" lon="11.5381866"><ele>293.0</ele><time>2026-04-20T14:20:37.386Z</time></trkpt><trkpt lat="43.1323627" lon="11.5380991"><ele>291.6666666666667</ele><time>2026-04-20T14:20:38.386Z</time></trkpt><trkpt lat="43.1323925" lon="11.538009"><ele>290.33333333333337</ele><time>2026-04-20T14:20:39.386Z</time></trkpt><trkpt lat="43.1324246" lon="11.5379059"><ele>289.0</ele><time>2026-04-20T14:20:40.386Z</time></trkpt><trkpt lat="43.1324586" lon="11.5377968"><ele>287.6666666666667</ele><time>2026-04-20T14:20:41.386Z</time></trkpt><trkpt lat="43.1324965" lon="11.537678"><ele>286.3333333333333</ele><time>2026-04-20T14:20:42.386Z</time></trkpt><trkpt lat="43.1325344" lon="11.5375585"><ele>285.0</ele><time>2026-04-20T14:20:43.386Z</time></trkpt><trkpt lat="43.1325718" lon="11.5374451"><ele>284.6</ele><time>2026-04-20T14:20:44.386Z</time></trkpt><trkpt lat="43.1326143" lon="11.5373352"><ele>284.2</ele><time>2026-04-20T14:20:45.386Z</time></trkpt><trkpt lat="43.132661" lon="11.5372294"><ele>283.8</ele><time>2026-04-20T14:20:46.386Z</time></trkpt><trkpt lat="43.1327092" lon="11.5371309"><ele>283.4</ele><time>2026-04-20T14:20:47.387Z</time></trkpt><trkpt lat="43.132763" lon="11.5370361"><ele>283.0</ele><time>2026-04-20T14:20:48.386Z</time></trkpt><trkpt lat="43.1328254" lon="11.536939"><ele>281.4</ele><time>2026-04-20T14:20:49.386Z</time></trkpt><trkpt lat="43.1328935" lon="11.5368427"><ele>279.8</ele><time>2026-04-20T14:20:50.386Z</time></trkpt><trkpt lat="43.1329637" lon="11.53675"><ele>278.2</ele><time>2026-04-20T14:20:51.386Z</time></trkpt><trkpt lat="43.1330346" lon="11.5366598"><ele>276.6</ele><time>2026-04-20T14:20:52.386Z</time></trkpt><trkpt lat="43.133101" lon="11.5365707"><ele>275.0</ele><time>2026-04-20T14:20:53.386Z</time></trkpt><trkpt lat="43.1331641" lon="11.5364816"><ele>275.2</ele><time>2026-04-20T14:20:54.386Z</time></trkpt><trkpt lat="43.1332308" lon="11.5363889"><ele>275.4</ele><time>2026-04-20T14:20:55.386Z</time></trkpt><trkpt lat="43.1332989" lon="11.5362955"><ele>275.6</ele><time>2026-04-20T14:20:56.386Z</time></trkpt><trkpt lat="43.1333649" lon="11.5362027"><ele>275.8</ele><time>2026-04-20T14:20:57.386Z</time></trkpt><trkpt lat="43.1334269" lon="11.5361054"><ele>276.0</ele><time>2026-04-20T14:20:58.386Z</time></trkpt><trkpt lat="43.133483" lon="11.5360015"><ele>275.40000000000003</ele><time>2026-04-20T14:20:59.387Z</time></trkpt><trkpt lat="43.1335355" lon="11.5358911"><ele>274.8</ele><time>2026-04-20T14:21:00.388Z</time></trkpt><trkpt lat="43.1335892" lon="11.5357719"><ele>274.20000000000005</ele><time>2026-04-20T14:21:01.387Z</time></trkpt><trkpt lat="43.1336448" lon="11.5356473"><ele>273.6</ele><time>2026-04-20T14:21:02.387Z</time></trkpt><trkpt lat="43.1337052" lon="11.5355119"><ele>273.0</ele><time>2026-04-20T14:21:03.387Z</time></trkpt><trkpt lat="43.133769" lon="11.5353664"><ele>270.75</ele><time>2026-04-20T14:21:04.387Z</time></trkpt><trkpt lat="43.1338328" lon="11.5352199"><ele>268.5</ele><time>2026-04-20T14:21:05.387Z</time></trkpt><trkpt lat="43.1338929" lon="11.535079"><ele>266.25</ele><time>2026-04-20T14:21:06.387Z</time></trkpt><trkpt lat="43.1339516" lon="11.53494"><ele>264.0</ele><time>2026-04-20T14:21:07.387Z</time></trkpt><trkpt lat="43.1340073" lon="11.5348076"><ele>265.0</ele><time>2026-04-20T14:21:08.388Z</time></trkpt><trkpt lat="43.1340622" lon="11.5346811"><ele>266.0</ele><time>2026-04-20T14:21:09.387Z</time></trkpt><trkpt lat="43.1341214" lon="11.5345505"><ele>267.0</ele><time>2026-04-20T14:21:10.387Z</time></trkpt><trkpt lat="43.1341859" lon="11.5344124"><ele>268.0</ele><time>2026-04-20T14:21:11.387Z</time></trkpt><trkpt lat="43.1342497" lon="11.5342703"><ele>268.0</ele><time>2026-04-20T14:21:12.387Z</time></trkpt><trkpt lat="43.1343099" lon="11.5341252"><ele>268.0</ele><time>2026-04-20T14:21:13.388Z</time></trkpt><trkpt lat="43.1343642" lon="11.5339777"><ele>268.0</ele><time>2026-04-20T14:21:14.387Z</time></trkpt><trkpt lat="43.1344139" lon="11.5338281"><ele>268.0</ele><time>2026-04-20T14:21:15.387Z</time></trkpt><trkpt lat="43.1344634" lon="11.5336786"><ele>267.0</ele><time>2026-04-20T14:21:16.388Z</time></trkpt><trkpt lat="43.1345126" lon="11.5335258"><ele>266.0</ele><time>2026-04-20T14:21:17.387Z</time></trkpt><trkpt lat="43.1345597" lon="11.5333724"><ele>265.0</ele><time>2026-04-20T14:21:18.387Z</time></trkpt><trkpt lat="43.1346038" lon="11.5332205"><ele>264.0</ele><time>2026-04-20T14:21:19.387Z</time></trkpt><trkpt lat="43.1346464" lon="11.5330747"><ele>264.0</ele><time>2026-04-20T14:21:20.387Z</time></trkpt><trkpt lat="43.1346879" lon="11.5329358"><ele>264.0</ele><time>2026-04-20T14:21:21.387Z</time></trkpt><trkpt lat="43.1347278" lon="11.5327963"><ele>264.0</ele><time>2026-04-20T14:21:22.387Z</time></trkpt><trkpt lat="43.134764" lon="11.5326538"><ele>264.0</ele><time>2026-04-20T14:21:23.387Z</time></trkpt><trkpt lat="43.1347968" lon="11.5325038"><ele>264.0</ele><time>2026-04-20T14:21:24.387Z</time></trkpt><trkpt lat="43.134827" lon="11.5323493"><ele>263.75</ele><time>2026-04-20T14:21:25.387Z</time></trkpt><trkpt lat="43.1348585" lon="11.5321958"><ele>263.5</ele><time>2026-04-20T14:21:26.387Z</time></trkpt><trkpt lat="43.1348905" lon="11.5320364"><ele>263.25</ele><time>2026-04-20T14:21:27.387Z</time></trkpt><trkpt lat="43.1349233" lon="11.5318728"><ele>263.0</ele><time>2026-04-20T14:21:28.387Z</time></trkpt><trkpt lat="43.1349543" lon="11.5317052"><ele>265.0</ele><time>2026-04-20T14:21:29.388Z</time></trkpt><trkpt lat="43.1349816" lon="11.531529"><ele>267.0</ele><time>2026-04-20T14:21:30.387Z</time></trkpt><trkpt lat="43.1350061" lon="11.5313406"><ele>269.0</ele><time>2026-04-20T14:21:31.387Z</time></trkpt><trkpt lat="43.1350268" lon="11.5311494"><ele>271.0</ele><time>2026-04-20T14:21:32.387Z</time></trkpt><trkpt lat="43.1350466" lon="11.5309695"><ele>272.0</ele><time>2026-04-20T14:21:33.388Z</time></trkpt><trkpt lat="43.1350591" lon="11.5308079"><ele>273.0</ele><time>2026-04-20T14:21:34.387Z</time></trkpt><trkpt lat="43.1350604" lon="11.5306525"><ele>274.0</ele><time>2026-04-20T14:21:35.387Z</time></trkpt><trkpt lat="43.1350413" lon="11.5305009"><ele>275.0</ele><time>2026-04-20T14:21:36.387Z</time></trkpt><trkpt lat="43.1349963" lon="11.5303449"><ele>275.0</ele><time>2026-04-20T14:21:37.387Z</time></trkpt><trkpt lat="43.1349331" lon="11.530181"><ele>275.0</ele><time>2026-04-20T14:21:38.387Z</time></trkpt><trkpt lat="43.1348709" lon="11.530024"><ele>275.0</ele><time>2026-04-20T14:21:39.387Z</time></trkpt><trkpt lat="43.1348137" lon="11.5298765"><ele>275.0</ele><time>2026-04-20T14:21:40.387Z</time></trkpt><trkpt lat="43.1347634" lon="11.529731"><ele>272.4</ele><time>2026-04-20T14:21:41.388Z</time></trkpt><trkpt lat="43.1347156" lon="11.5295906"><ele>269.8</ele><time>2026-04-20T14:21:42.388Z</time></trkpt><trkpt lat="43.1346674" lon="11.529455"><ele>267.2</ele><time>2026-04-20T14:21:43.387Z</time></trkpt><trkpt lat="43.1346182" lon="11.5293265"><ele>264.6</ele><time>2026-04-20T14:21:44.387Z</time></trkpt><trkpt lat="43.1345733" lon="11.5292069"><ele>262.0</ele><time>2026-04-20T14:21:45.387Z</time></trkpt><trkpt lat="43.1345301" lon="11.5290906"><ele>262.0</ele><time>2026-04-20T14:21:46.387Z</time></trkpt><trkpt lat="43.1344862" lon="11.5289749"><ele>262.0</ele><time>2026-04-20T14:21:47.387Z</time></trkpt><trkpt lat="43.1344411" lon="11.5288584"><ele>262.0</ele><time>2026-04-20T14:21:48.387Z</time></trkpt><trkpt lat="43.1343982" lon="11.5287316"><ele>262.0</ele><time>2026-04-20T14:21:49.387Z</time></trkpt><trkpt lat="43.1343649" lon="11.5286004"><ele>262.0</ele><time>2026-04-20T14:21:50.388Z</time></trkpt><trkpt lat="43.1343406" lon="11.5284568"><ele>262.25</ele><time>2026-04-20T14:21:51.388Z</time></trkpt><trkpt lat="43.1343295" lon="11.5283003"><ele>262.5</ele><time>2026-04-20T14:21:52.389Z</time></trkpt><trkpt lat="43.134341" lon="11.5281177"><ele>262.75</ele><time>2026-04-20T14:21:53.388Z</time></trkpt><trkpt lat="43.1343605" lon="11.5279167"><ele>263.0</ele><time>2026-04-20T14:21:54.388Z</time></trkpt><trkpt lat="43.1343824" lon="11.5277087"><ele>262.0</ele><time>2026-04-20T14:21:55.388Z</time></trkpt><trkpt lat="43.1344026" lon="11.5274886"><ele>261.0</ele><time>2026-04-20T14:21:56.388Z</time></trkpt><trkpt lat="43.1344218" lon="11.5272819"><ele>260.0</ele><time>2026-04-20T14:21:57.388Z</time></trkpt><trkpt lat="43.1344421" lon="11.5270869"><ele>258.5</ele><time>2026-04-20T14:21:58.388Z</time></trkpt><trkpt lat="43.1344631" lon="11.526891"><ele>257.0</ele><time>2026-04-20T14:21:59.388Z</time></trkpt><trkpt lat="43.1344832" lon="11.5266875"><ele>255.5</ele><time>2026-04-20T14:22:00.388Z</time></trkpt><trkpt lat="43.1345028" lon="11.5264857"><ele>254.0</ele><time>2026-04-20T14:22:01.388Z</time></trkpt><trkpt lat="43.1345196" lon="11.5262988"><ele>253.0</ele><time>2026-04-20T14:22:02.388Z</time></trkpt><trkpt lat="43.1345311" lon="11.5261249"><ele>252.0</ele><time>2026-04-20T14:22:03.388Z</time></trkpt><trkpt lat="43.1345502" lon="11.5259614"><ele>251.0</ele><time>2026-04-20T14:22:04.388Z</time></trkpt><trkpt lat="43.1345879" lon="11.5258047"><ele>250.0</ele><time>2026-04-20T14:22:05.388Z</time></trkpt><trkpt lat="43.1346504" lon="11.5256448"><ele>250.0</ele><time>2026-04-20T14:22:06.388Z</time></trkpt><trkpt lat="43.1347314" lon="11.5254794"><ele>250.0</ele><time>2026-04-20T14:22:07.389Z</time></trkpt><trkpt lat="43.1348125" lon="11.5253078"><ele>250.0</ele><time>2026-04-20T14:22:08.388Z</time></trkpt><trkpt lat="43.1348788" lon="11.5251238"><ele>250.0</ele><time>2026-04-20T14:22:09.389Z</time></trkpt><trkpt lat="43.1349356" lon="11.5249371"><ele>250.5</ele><time>2026-04-20T14:22:10.388Z</time></trkpt><trkpt lat="43.1349857" lon="11.5247585"><ele>251.0</ele><time>2026-04-20T14:22:11.388Z</time></trkpt><trkpt lat="43.1350272" lon="11.5245928"><ele>251.5</ele><time>2026-04-20T14:22:12.389Z</time></trkpt><trkpt lat="43.1350617" lon="11.5244294"><ele>252.0</ele><time>2026-04-20T14:22:13.388Z</time></trkpt><trkpt lat="43.1350812" lon="11.5242508"><ele>252.0</ele><time>2026-04-20T14:22:14.388Z</time></trkpt><trkpt lat="43.1350857" lon="11.5240549"><ele>252.0</ele><time>2026-04-20T14:22:15.388Z</time></trkpt><trkpt lat="43.1350709" lon="11.5238415"><ele>252.0</ele><time>2026-04-20T14:22:16.388Z</time></trkpt><trkpt lat="43.135052" lon="11.5236267"><ele>250.75</ele><time>2026-04-20T14:22:17.388Z</time></trkpt><trkpt lat="43.1350325" lon="11.5234174"><ele>249.5</ele><time>2026-04-20T14:22:18.388Z</time></trkpt><trkpt lat="43.1350142" lon="11.5232197"><ele>248.25</ele><time>2026-04-20T14:22:19.388Z</time></trkpt><trkpt lat="43.1349971" lon="11.5230226"><ele>247.0</ele><time>2026-04-20T14:22:20.388Z</time></trkpt><trkpt lat="43.1349849" lon="11.5228177"><ele>245.5</ele><time>2026-04-20T14:22:21.388Z</time></trkpt><trkpt lat="43.1349771" lon="11.5226102"><ele>244.0</ele><time>2026-04-20T14:22:22.388Z</time></trkpt><trkpt lat="43.1349717" lon="11.5224079"><ele>242.5</ele><time>2026-04-20T14:22:23.388Z</time></trkpt><trkpt lat="43.1349703" lon="11.5222196"><ele>241.0</ele><time>2026-04-20T14:22:24.388Z</time></trkpt><trkpt lat="43.1349755" lon="11.5220454"><ele>240.0</ele><time>2026-04-20T14:22:25.389Z</time></trkpt><trkpt lat="43.1349841" lon="11.5218811"><ele>239.0</ele><time>2026-04-20T14:22:26.388Z</time></trkpt><trkpt lat="43.1349923" lon="11.521725"><ele>238.0</ele><time>2026-04-20T14:22:27.389Z</time></trkpt><trkpt lat="43.1349989" lon="11.521577"><ele>237.0</ele><time>2026-04-20T14:22:28.388Z</time></trkpt><trkpt lat="43.135" lon="11.5214259"><ele>237.0</ele><time>2026-04-20T14:22:29.388Z</time></trkpt><trkpt lat="43.1349993" lon="11.521262"><ele>237.0</ele><time>2026-04-20T14:22:30.389Z</time></trkpt><trkpt lat="43.1350012" lon="11.5210979"><ele>237.0</ele><time>2026-04-20T14:22:31.388Z</time></trkpt><trkpt lat="43.1350006" lon="11.5209347"><ele>237.0</ele><time>2026-04-20T14:22:32.388Z</time></trkpt><trkpt lat="43.1349971" lon="11.5207701"><ele>236.75</ele><time>2026-04-20T14:22:33.388Z</time></trkpt><trkpt lat="43.1349863" lon="11.52061"><ele>236.5</ele><time>2026-04-20T14:22:34.388Z</time></trkpt><trkpt lat="43.1349652" lon="11.5204558"><ele>236.25</ele><time>2026-04-20T14:22:35.388Z</time></trkpt><trkpt lat="43.1349364" lon="11.5203002"><ele>236.0</ele><time>2026-04-20T14:22:36.39Z</time></trkpt><trkpt lat="43.1349055" lon="11.5201423"><ele>234.5</ele><time>2026-04-20T14:22:37.388Z</time></trkpt><trkpt lat="43.1348732" lon="11.5199823"><ele>233.0</ele><time>2026-04-20T14:22:38.388Z</time></trkpt><trkpt lat="43.1348372" lon="11.5198278"><ele>231.5</ele><time>2026-04-20T14:22:39.389Z</time></trkpt><trkpt lat="43.1347981" lon="11.5196835"><ele>230.0</ele><time>2026-04-20T14:22:40.389Z</time></trkpt><trkpt lat="43.134757" lon="11.5195494"><ele>230.0</ele><time>2026-04-20T14:22:41.389Z</time></trkpt><trkpt lat="43.134722" lon="11.5194294"><ele>230.0</ele><time>2026-04-20T14:22:42.389Z</time></trkpt><trkpt lat="43.1346916" lon="11.5193021"><ele>230.0</ele><time>2026-04-20T14:22:43.389Z</time></trkpt><trkpt lat="43.1346705" lon="11.5191626"><ele>230.0</ele><time>2026-04-20T14:22:44.389Z</time></trkpt><trkpt lat="43.1346561" lon="11.5190207"><ele>230.0</ele><time>2026-04-20T14:22:45.389Z</time></trkpt><trkpt lat="43.1346461" lon="11.5188806"><ele>230.0</ele><time>2026-04-20T14:22:46.389Z</time></trkpt><trkpt lat="43.1346393" lon="11.518745"><ele>230.0</ele><time>2026-04-20T14:22:47.389Z</time></trkpt><trkpt lat="43.134634" lon="11.5186111"><ele>230.0</ele><time>2026-04-20T14:22:48.389Z</time></trkpt><trkpt lat="43.1346327" lon="11.5184778"><ele>230.0</ele><time>2026-04-20T14:22:49.389Z</time></trkpt><trkpt lat="43.1346351" lon="11.5183401"><ele>230.0</ele><time>2026-04-20T14:22:50.389Z</time></trkpt><trkpt lat="43.1346432" lon="11.5181978"><ele>232.6</ele><time>2026-04-20T14:22:51.389Z</time></trkpt><trkpt lat="43.1346556" lon="11.5180589"><ele>235.2</ele><time>2026-04-20T14:22:52.39Z</time></trkpt><trkpt lat="43.1346734" lon="11.5179307"><ele>237.8</ele><time>2026-04-20T14:22:53.389Z</time></trkpt><trkpt lat="43.134703" lon="11.517814"><ele>240.4</ele><time>2026-04-20T14:22:54.389Z</time></trkpt><trkpt lat="43.1347574" lon="11.5177062"><ele>243.0</ele><time>2026-04-20T14:22:55.389Z</time></trkpt><trkpt lat="43.1348363" lon="11.5175996"><ele>241.4</ele><time>2026-04-20T14:22:56.389Z</time></trkpt><trkpt lat="43.1349215" lon="11.5174919"><ele>239.8</ele><time>2026-04-20T14:22:57.389Z</time></trkpt><trkpt lat="43.134994" lon="11.5173923"><ele>238.2</ele><time>2026-04-20T14:22:58.39Z</time></trkpt><trkpt lat="43.135054" lon="11.5173027"><ele>236.6</ele><time>2026-04-20T14:22:59.389Z</time></trkpt><trkpt lat="43.1350969" lon="11.51723"><ele>235.0</ele><time>2026-04-20T14:23:00.389Z</time></trkpt><trkpt lat="43.1351646" lon="11.5171128"><ele>236.0</ele><time>2026-04-20T14:23:02.389Z</time></trkpt><trkpt lat="43.1352192" lon="11.5170232"><ele>237.0</ele><time>2026-04-20T14:23:04.389Z</time></trkpt><trkpt lat="43.1352767" lon="11.5169239"><ele>238.0</ele><time>2026-04-20T14:23:06.389Z</time></trkpt><trkpt lat="43.1353397" lon="11.5168052"><ele>239.0</ele><time>2026-04-20T14:23:08.389Z</time></trkpt><trkpt lat="43.1353821" lon="11.5167208"><ele>240.0</ele><time>2026-04-20T14:23:11.389Z</time></trkpt><trkpt lat="43.1354329" lon="11.5166"><ele>240.0</ele><time>2026-04-20T14:23:13.389Z</time></trkpt><trkpt lat="43.1354724" lon="11.5165221"><ele>240.0</ele><time>2026-04-20T14:23:14.389Z</time></trkpt><trkpt lat="43.1355184" lon="11.5164463"><ele>240.0</ele><time>2026-04-20T14:23:15.389Z</time></trkpt><trkpt lat="43.1355731" lon="11.5163679"><ele>240.0</ele><time>2026-04-20T14:23:16.389Z</time></trkpt><trkpt lat="43.1356325" lon="11.5162794"><ele>240.0</ele><time>2026-04-20T14:23:17.389Z</time></trkpt><trkpt lat="43.1356973" lon="11.5161797"><ele>240.0</ele><time>2026-04-20T14:23:18.389Z</time></trkpt><trkpt lat="43.1357651" lon="11.5160841"><ele>237.8</ele><time>2026-04-20T14:23:19.389Z</time></trkpt><trkpt lat="43.1358418" lon="11.5160025"><ele>235.6</ele><time>2026-04-20T14:23:20.389Z</time></trkpt><trkpt lat="43.135926" lon="11.5159295"><ele>233.39999999999998</ele><time>2026-04-20T14:23:21.39Z</time></trkpt><trkpt lat="43.1360107" lon="11.5158605"><ele>231.2</ele><time>2026-04-20T14:23:22.389Z</time></trkpt><trkpt lat="43.1360881" lon="11.5157899"><ele>229.0</ele><time>2026-04-20T14:23:23.389Z</time></trkpt><trkpt lat="43.1361536" lon="11.5157162"><ele>228.99999999999997</ele><time>2026-04-20T14:23:24.389Z</time></trkpt><trkpt lat="43.1362112" lon="11.5156386"><ele>229.0</ele><time>2026-04-20T14:23:25.389Z</time></trkpt><trkpt lat="43.1362611" lon="11.5155478"><ele>229.0</ele><time>2026-04-20T14:23:26.39Z</time></trkpt><trkpt lat="43.1363011" lon="11.5154418"><ele>229.0</ele><time>2026-04-20T14:23:27.389Z</time></trkpt><trkpt lat="43.1363265" lon="11.5153212"><ele>228.99999999999997</ele><time>2026-04-20T14:23:28.39Z</time></trkpt><trkpt lat="43.1363369" lon="11.5151915"><ele>229.0</ele><time>2026-04-20T14:23:29.389Z</time></trkpt><trkpt lat="43.13634" lon="11.5150566"><ele>228.99999999999997</ele><time>2026-04-20T14:23:30.39Z</time></trkpt><trkpt lat="43.1363376" lon="11.5149295"><ele>229.0</ele><time>2026-04-20T14:23:31.39Z</time></trkpt><trkpt lat="43.1363308" lon="11.5148096"><ele>229.0</ele><time>2026-04-20T14:23:32.39Z</time></trkpt><trkpt lat="43.136316" lon="11.5146911"><ele>229.0</ele><time>2026-04-20T14:23:33.39Z</time></trkpt><trkpt lat="43.1362874" lon="11.5145781"><ele>228.99999999999997</ele><time>2026-04-20T14:23:34.39Z</time></trkpt><trkpt lat="43.136249" lon="11.5144614"><ele>229.0</ele><time>2026-04-20T14:23:35.39Z</time></trkpt><trkpt lat="43.1362024" lon="11.514346"><ele>229.0</ele><time>2026-04-20T14:23:36.39Z</time></trkpt><trkpt lat="43.1361469" lon="11.5142344"><ele>228.99999999999997</ele><time>2026-04-20T14:23:37.39Z</time></trkpt><trkpt lat="43.1360876" lon="11.5141315"><ele>228.99999999999997</ele><time>2026-04-20T14:23:38.39Z</time></trkpt><trkpt lat="43.1360239" lon="11.5140266"><ele>229.0</ele><time>2026-04-20T14:23:39.39Z</time></trkpt><trkpt lat="43.1359626" lon="11.5139192"><ele>229.0</ele><time>2026-04-20T14:23:40.39Z</time></trkpt><trkpt lat="43.135902" lon="11.5138039"><ele>227.25</ele><time>2026-04-20T14:23:41.39Z</time></trkpt><trkpt lat="43.1358377" lon="11.5136761"><ele>225.5</ele><time>2026-04-20T14:23:42.39Z</time></trkpt><trkpt lat="43.1357716" lon="11.5135367"><ele>223.75</ele><time>2026-04-20T14:23:43.391Z</time></trkpt><trkpt lat="43.1357074" lon="11.5133941"><ele>222.0</ele><time>2026-04-20T14:23:44.39Z</time></trkpt><trkpt lat="43.1356518" lon="11.5132605"><ele>222.0</ele><time>2026-04-20T14:23:45.39Z</time></trkpt><trkpt lat="43.135602" lon="11.5131362"><ele>222.0</ele><time>2026-04-20T14:23:46.391Z</time></trkpt><trkpt lat="43.1355583" lon="11.5130124"><ele>222.0</ele><time>2026-04-20T14:23:47.39Z</time></trkpt><trkpt lat="43.1355201" lon="11.5128841"><ele>222.0</ele><time>2026-04-20T14:23:48.39Z</time></trkpt><trkpt lat="43.1354823" lon="11.5127395"><ele>222.0</ele><time>2026-04-20T14:23:49.39Z</time></trkpt><trkpt lat="43.1354452" lon="11.5125885"><ele>223.25</ele><time>2026-04-20T14:23:50.39Z</time></trkpt><trkpt lat="43.1354035" lon="11.5124446"><ele>224.5</ele><time>2026-04-20T14:23:51.39Z</time></trkpt><trkpt lat="43.135352" lon="11.5123111"><ele>225.75</ele><time>2026-04-20T14:23:52.39Z</time></trkpt><trkpt lat="43.1352888" lon="11.5121805"><ele>227.0</ele><time>2026-04-20T14:23:53.39Z</time></trkpt><trkpt lat="43.1352171" lon="11.5120543"><ele>229.5</ele><time>2026-04-20T14:23:54.39Z</time></trkpt><trkpt lat="43.135139" lon="11.5119267"><ele>232.0</ele><time>2026-04-20T14:23:55.391Z</time></trkpt><trkpt lat="43.1350612" lon="11.5117986"><ele>234.5</ele><time>2026-04-20T14:23:56.39Z</time></trkpt><trkpt lat="43.1349869" lon="11.5116704"><ele>237.0</ele><time>2026-04-20T14:23:57.39Z</time></trkpt><trkpt lat="43.1349146" lon="11.5115404"><ele>237.39999999999998</ele><time>2026-04-20T14:23:58.39Z</time></trkpt><trkpt lat="43.1348439" lon="11.5114076"><ele>237.79999999999998</ele><time>2026-04-20T14:23:59.39Z</time></trkpt><trkpt lat="43.1347797" lon="11.5112753"><ele>238.2</ele><time>2026-04-20T14:24:00.39Z</time></trkpt><trkpt lat="43.1347278" lon="11.5111545"><ele>238.6</ele><time>2026-04-20T14:24:01.39Z</time></trkpt><trkpt lat="43.1346806" lon="11.5110428"><ele>239.0</ele><time>2026-04-20T14:24:02.39Z</time></trkpt><trkpt lat="43.1346309" lon="11.5109252"><ele>239.0</ele><time>2026-04-20T14:24:03.39Z</time></trkpt><trkpt lat="43.1345762" lon="11.5107954"><ele>239.0</ele><time>2026-04-20T14:24:04.39Z</time></trkpt><trkpt lat="43.1345145" lon="11.5106578"><ele>239.0</ele><time>2026-04-20T14:24:05.39Z</time></trkpt><trkpt lat="43.1344512" lon="11.5105163"><ele>239.0</ele><time>2026-04-20T14:24:06.391Z</time></trkpt><trkpt lat="43.1343882" lon="11.5103729"><ele>237.5</ele><time>2026-04-20T14:24:07.39Z</time></trkpt><trkpt lat="43.1343248" lon="11.5102365"><ele>236.0</ele><time>2026-04-20T14:24:08.39Z</time></trkpt><trkpt lat="43.1342617" lon="11.5101031"><ele>234.5</ele><time>2026-04-20T14:24:09.39Z</time></trkpt><trkpt lat="43.1342019" lon="11.5099712"><ele>233.0</ele><time>2026-04-20T14:24:10.39Z</time></trkpt><trkpt lat="43.1341399" lon="11.5098334"><ele>233.0</ele><time>2026-04-20T14:24:11.391Z</time></trkpt><trkpt lat="43.1340763" lon="11.5096986"><ele>233.0</ele><time>2026-04-20T14:24:12.39Z</time></trkpt><trkpt lat="43.1340137" lon="11.509565"><ele>233.0</ele><time>2026-04-20T14:24:13.39Z</time></trkpt><trkpt lat="43.1339503" lon="11.5094254"><ele>233.0</ele><time>2026-04-20T14:24:14.391Z</time></trkpt><trkpt lat="43.1338879" lon="11.5092776"><ele>231.25</ele><time>2026-04-20T14:24:15.391Z</time></trkpt><trkpt lat="43.1338297" lon="11.5091143"><ele>229.5</ele><time>2026-04-20T14:24:16.39Z</time></trkpt><trkpt lat="43.1337742" lon="11.508936"><ele>227.75</ele><time>2026-04-20T14:24:17.39Z</time></trkpt><trkpt lat="43.1337293" lon="11.5087572"><ele>226.0</ele><time>2026-04-20T14:24:18.39Z</time></trkpt><trkpt lat="43.1336864" lon="11.508574"><ele>224.5</ele><time>2026-04-20T14:24:19.391Z</time></trkpt><trkpt lat="43.1336444" lon="11.5083864"><ele>223.0</ele><time>2026-04-20T14:24:20.391Z</time></trkpt><trkpt lat="43.1336059" lon="11.5082068"><ele>221.5</ele><time>2026-04-20T14:24:21.391Z</time></trkpt><trkpt lat="43.1335668" lon="11.5080228"><ele>220.0</ele><time>2026-04-20T14:24:22.391Z</time></trkpt><trkpt lat="43.1335407" lon="11.5078239"><ele>218.0</ele><time>2026-04-20T14:24:23.391Z</time></trkpt><trkpt lat="43.133529" lon="11.507616"><ele>216.0</ele><time>2026-04-20T14:24:24.391Z</time></trkpt><trkpt lat="43.1335385" lon="11.5073984"><ele>214.0</ele><time>2026-04-20T14:24:25.391Z</time></trkpt><trkpt lat="43.1335627" lon="11.5071844"><ele>213.33333333333331</ele><time>2026-04-20T14:24:26.391Z</time></trkpt><trkpt lat="43.1335893" lon="11.5069777"><ele>212.66666666666669</ele><time>2026-04-20T14:24:27.391Z</time></trkpt><trkpt lat="43.1336163" lon="11.5067783"><ele>212.0</ele><time>2026-04-20T14:24:28.391Z</time></trkpt><trkpt lat="43.1336437" lon="11.5065757"><ele>212.0</ele><time>2026-04-20T14:24:29.391Z</time></trkpt><trkpt lat="43.1336766" lon="11.5063639"><ele>212.0</ele><time>2026-04-20T14:24:30.391Z</time></trkpt><trkpt lat="43.1337081" lon="11.5061539"><ele>212.0</ele><time>2026-04-20T14:24:31.391Z</time></trkpt><trkpt lat="43.1337379" lon="11.5059441"><ele>211.66666666666669</ele><time>2026-04-20T14:24:32.392Z</time></trkpt><trkpt lat="43.1337607" lon="11.5057394"><ele>211.33333333333331</ele><time>2026-04-20T14:24:33.391Z</time></trkpt><trkpt lat="43.1337827" lon="11.5055343"><ele>211.0</ele><time>2026-04-20T14:24:34.391Z</time></trkpt><trkpt lat="43.1338065" lon="11.505335"><ele>211.0</ele><time>2026-04-20T14:24:35.391Z</time></trkpt><trkpt lat="43.1338317" lon="11.5051414"><ele>211.0</ele><time>2026-04-20T14:24:36.391Z</time></trkpt><trkpt lat="43.1338548" lon="11.5049467"><ele>211.0</ele><time>2026-04-20T14:24:37.391Z</time></trkpt><trkpt lat="43.1338764" lon="11.5047549"><ele>211.0</ele><time>2026-04-20T14:24:38.392Z</time></trkpt><trkpt lat="43.1338995" lon="11.5045628"><ele>211.66666666666666</ele><time>2026-04-20T14:24:39.391Z</time></trkpt><trkpt lat="43.1339235" lon="11.5043638"><ele>212.33333333333331</ele><time>2026-04-20T14:24:40.392Z</time></trkpt><trkpt lat="43.1339507" lon="11.5041534"><ele>213.0</ele><time>2026-04-20T14:24:41.391Z</time></trkpt><trkpt lat="43.1339826" lon="11.5039409"><ele>212.0</ele><time>2026-04-20T14:24:42.391Z</time></trkpt><trkpt lat="43.1340175" lon="11.5037366"><ele>211.0</ele><time>2026-04-20T14:24:43.391Z</time></trkpt><trkpt lat="43.1340583" lon="11.5035416"><ele>210.0</ele><time>2026-04-20T14:24:44.391Z</time></trkpt><trkpt lat="43.1341006" lon="11.5033521"><ele>209.0</ele><time>2026-04-20T14:24:45.391Z</time></trkpt><trkpt lat="43.1341435" lon="11.5031619"><ele>209.0</ele><time>2026-04-20T14:24:46.392Z</time></trkpt><trkpt lat="43.134184" lon="11.502972"><ele>209.0</ele><time>2026-04-20T14:24:47.391Z</time></trkpt><trkpt lat="43.1342245" lon="11.5027789"><ele>209.0</ele><time>2026-04-20T14:24:48.391Z</time></trkpt><trkpt lat="43.1342648" lon="11.5025778"><ele>209.0</ele><time>2026-04-20T14:24:49.391Z</time></trkpt><trkpt lat="43.1343043" lon="11.5023736"><ele>206.66666666666669</ele><time>2026-04-20T14:24:50.391Z</time></trkpt><trkpt lat="43.1343437" lon="11.5021635"><ele>204.33333333333331</ele><time>2026-04-20T14:24:51.391Z</time></trkpt><trkpt lat="43.1343838" lon="11.5019557"><ele>202.0</ele><time>2026-04-20T14:24:52.391Z</time></trkpt><trkpt lat="43.1344246" lon="11.501753"><ele>199.33333333333331</ele><time>2026-04-20T14:24:53.391Z</time></trkpt><trkpt lat="43.1344654" lon="11.5015543"><ele>196.66666666666669</ele><time>2026-04-20T14:24:54.391Z</time></trkpt><trkpt lat="43.1345061" lon="11.5013504"><ele>194.0</ele><time>2026-04-20T14:24:55.392Z</time></trkpt><trkpt lat="43.1345457" lon="11.5011364"><ele>191.0</ele><time>2026-04-20T14:24:56.391Z</time></trkpt><trkpt lat="43.1345859" lon="11.5009186"><ele>188.0</ele><time>2026-04-20T14:24:57.392Z</time></trkpt><trkpt lat="43.1346249" lon="11.5007024"><ele>185.0</ele><time>2026-04-20T14:24:58.391Z</time></trkpt><trkpt lat="43.1346658" lon="11.5004927"><ele>182.0</ele><time>2026-04-20T14:24:59.391Z</time></trkpt><trkpt lat="43.1347054" lon="11.5002817"><ele>179.0</ele><time>2026-04-20T14:25:00.391Z</time></trkpt><trkpt lat="43.1347466" lon="11.5000746"><ele>176.0</ele><time>2026-04-20T14:25:01.391Z</time></trkpt><trkpt lat="43.1347912" lon="11.499872"><ele>176.0</ele><time>2026-04-20T14:25:02.392Z</time></trkpt><trkpt lat="43.1348402" lon="11.4996644"><ele>176.0</ele><time>2026-04-20T14:25:03.391Z</time></trkpt><trkpt lat="43.1348947" lon="11.4994617"><ele>176.0</ele><time>2026-04-20T14:25:04.391Z</time></trkpt><trkpt lat="43.1349557" lon="11.4992557"><ele>173.66666666666666</ele><time>2026-04-20T14:25:05.391Z</time></trkpt><trkpt lat="43.1350247" lon="11.4990335"><ele>171.33333333333334</ele><time>2026-04-20T14:25:06.391Z</time></trkpt><trkpt lat="43.135099" lon="11.4987987"><ele>169.0</ele><time>2026-04-20T14:25:07.392Z</time></trkpt><trkpt lat="43.135177" lon="11.4985523"><ele>166.66666666666669</ele><time>2026-04-20T14:25:08.391Z</time></trkpt><trkpt lat="43.1352527" lon="11.4983115"><ele>164.33333333333334</ele><time>2026-04-20T14:25:09.392Z</time></trkpt><trkpt lat="43.1353281" lon="11.498081"><ele>162.0</ele><time>2026-04-20T14:25:10.392Z</time></trkpt><trkpt lat="43.1354031" lon="11.4978564"><ele>161.66666666666666</ele><time>2026-04-20T14:25:11.392Z</time></trkpt><trkpt lat="43.1354769" lon="11.4976305"><ele>161.33333333333331</ele><time>2026-04-20T14:25:12.393Z</time></trkpt><trkpt lat="43.1355504" lon="11.4974085"><ele>161.0</ele><time>2026-04-20T14:25:13.392Z</time></trkpt><trkpt lat="43.1356356" lon="11.4971985"><ele>161.33333333333331</ele><time>2026-04-20T14:25:14.392Z</time></trkpt><trkpt lat="43.1357377" lon="11.4970066"><ele>161.66666666666666</ele><time>2026-04-20T14:25:15.392Z</time></trkpt><trkpt lat="43.1358444" lon="11.496852"><ele>162.0</ele><time>2026-04-20T14:25:16.392Z</time></trkpt><trkpt lat="43.1359519" lon="11.4966865"><ele>162.0</ele><time>2026-04-20T14:25:17.392Z</time></trkpt><trkpt lat="43.1360605" lon="11.4965113"><ele>162.0</ele><time>2026-04-20T14:25:18.392Z</time></trkpt><trkpt lat="43.1361656" lon="11.4963322"><ele>162.0</ele><time>2026-04-20T14:25:19.393Z</time></trkpt><trkpt lat="43.1362689" lon="11.4961507"><ele>162.33333333333334</ele><time>2026-04-20T14:25:20.393Z</time></trkpt><trkpt lat="43.1363738" lon="11.4959684"><ele>162.66666666666669</ele><time>2026-04-20T14:25:21.393Z</time></trkpt><trkpt lat="43.136478" lon="11.4957938"><ele>163.0</ele><time>2026-04-20T14:25:22.392Z</time></trkpt><trkpt lat="43.1365855" lon="11.4956127"><ele>162.33333333333334</ele><time>2026-04-20T14:25:23.393Z</time></trkpt><trkpt lat="43.1366891" lon="11.4954222"><ele>161.66666666666666</ele><time>2026-04-20T14:25:24.392Z</time></trkpt><trkpt lat="43.1367978" lon="11.4952296"><ele>161.0</ele><time>2026-04-20T14:25:25.392Z</time></trkpt><trkpt lat="43.1369097" lon="11.4950391"><ele>163.0</ele><time>2026-04-20T14:25:26.392Z</time></trkpt><trkpt lat="43.1370251" lon="11.4948477"><ele>165.0</ele><time>2026-04-20T14:25:27.393Z</time></trkpt><trkpt lat="43.1371383" lon="11.4946629"><ele>167.0</ele><time>2026-04-20T14:25:28.392Z</time></trkpt><trkpt lat="43.1372397" lon="11.4944908"><ele>166.33333333333331</ele><time>2026-04-20T14:25:29.392Z</time></trkpt><trkpt lat="43.1373269" lon="11.4943224"><ele>165.66666666666666</ele><time>2026-04-20T14:25:30.392Z</time></trkpt><trkpt lat="43.1373992" lon="11.4941343"><ele>165.0</ele><time>2026-04-20T14:25:31.392Z</time></trkpt><trkpt lat="43.13745" lon="11.4939211"><ele>166.33333333333334</ele><time>2026-04-20T14:25:32.393Z</time></trkpt><trkpt lat="43.1374826" lon="11.4936889"><ele>167.66666666666669</ele><time>2026-04-20T14:25:33.392Z</time></trkpt><trkpt lat="43.1375033" lon="11.4934519"><ele>169.0</ele><time>2026-04-20T14:25:34.393Z</time></trkpt><trkpt lat="43.1375191" lon="11.4932191"><ele>169.0</ele><time>2026-04-20T14:25:35.392Z</time></trkpt><trkpt lat="43.1375402" lon="11.4929774"><ele>169.0</ele><time>2026-04-20T14:25:36.392Z</time></trkpt><trkpt lat="43.1375661" lon="11.4927356"><ele>169.0</ele><time>2026-04-20T14:25:37.392Z</time></trkpt><trkpt lat="43.137598" lon="11.492493"><ele>169.66666666666669</ele><time>2026-04-20T14:25:38.392Z</time></trkpt><trkpt lat="43.137629" lon="11.4922461"><ele>170.33333333333334</ele><time>2026-04-20T14:25:39.392Z</time></trkpt><trkpt lat="43.1376591" lon="11.4919918"><ele>171.0</ele><time>2026-04-20T14:25:40.392Z</time></trkpt><trkpt lat="43.1376927" lon="11.491739"><ele>173.33333333333334</ele><time>2026-04-20T14:25:41.392Z</time></trkpt><trkpt lat="43.1377271" lon="11.491496"><ele>175.66666666666669</ele><time>2026-04-20T14:25:42.392Z</time></trkpt><trkpt lat="43.137759" lon="11.4912753"><ele>178.0</ele><time>2026-04-20T14:25:43.392Z</time></trkpt><trkpt lat="43.1377868" lon="11.4910765"><ele>179.0</ele><time>2026-04-20T14:25:44.393Z</time></trkpt><trkpt lat="43.1377972" lon="11.4909091"><ele>180.0</ele><time>2026-04-20T14:25:45.392Z</time></trkpt><trkpt lat="43.1378007" lon="11.4907572"><ele>181.0</ele><time>2026-04-20T14:25:46.393Z</time></trkpt><trkpt lat="43.1377974" lon="11.4906096"><ele>182.0</ele><time>2026-04-20T14:25:47.392Z</time></trkpt><trkpt lat="43.1377859" lon="11.4904607"><ele>180.75</ele><time>2026-04-20T14:25:48.392Z</time></trkpt><trkpt lat="43.1377724" lon="11.4903084"><ele>179.5</ele><time>2026-04-20T14:25:49.393Z</time></trkpt><trkpt lat="43.1377567" lon="11.4901368"><ele>178.25</ele><time>2026-04-20T14:25:50.392Z</time></trkpt><trkpt lat="43.1377449" lon="11.4899687"><ele>177.0</ele><time>2026-04-20T14:25:51.393Z</time></trkpt><trkpt lat="43.1377322" lon="11.4897951"><ele>177.0</ele><time>2026-04-20T14:25:52.392Z</time></trkpt><trkpt lat="43.1377237" lon="11.489612"><ele>177.0</ele><time>2026-04-20T14:25:53.393Z</time></trkpt><trkpt lat="43.137715" lon="11.4894239"><ele>177.0</ele><time>2026-04-20T14:25:54.392Z</time></trkpt><trkpt lat="43.1377063" lon="11.4892314"><ele>177.0</ele><time>2026-04-20T14:25:55.392Z</time></trkpt><trkpt lat="43.1376979" lon="11.4890431"><ele>174.0</ele><time>2026-04-20T14:25:56.392Z</time></trkpt><trkpt lat="43.1376918" lon="11.4888689"><ele>171.0</ele><time>2026-04-20T14:25:57.392Z</time></trkpt><trkpt lat="43.1376868" lon="11.4887056"><ele>168.0</ele><time>2026-04-20T14:25:58.392Z</time></trkpt><trkpt lat="43.1376849" lon="11.4885523"><ele>165.0</ele><time>2026-04-20T14:25:59.394Z</time></trkpt><trkpt lat="43.1376807" lon="11.4884026"><ele>163.0</ele><time>2026-04-20T14:26:00.393Z</time></trkpt><trkpt lat="43.1376819" lon="11.4882568"><ele>161.0</ele><time>2026-04-20T14:26:01.394Z</time></trkpt><trkpt lat="43.1376855" lon="11.4881129"><ele>159.0</ele><time>2026-04-20T14:26:02.394Z</time></trkpt><trkpt lat="43.1376858" lon="11.4879654"><ele>157.0</ele><time>2026-04-20T14:26:03.393Z</time></trkpt><trkpt lat="43.1376857" lon="11.487808"><ele>155.0</ele><time>2026-04-20T14:26:04.393Z</time></trkpt><trkpt lat="43.1376835" lon="11.4876539"><ele>154.2</ele><time>2026-04-20T14:26:05.393Z</time></trkpt><trkpt lat="43.1376822" lon="11.4875057"><ele>153.4</ele><time>2026-04-20T14:26:06.393Z</time></trkpt><trkpt lat="43.1376792" lon="11.4873676"><ele>152.6</ele><time>2026-04-20T14:26:07.393Z</time></trkpt><trkpt lat="43.1376796" lon="11.4872308"><ele>151.8</ele><time>2026-04-20T14:26:08.393Z</time></trkpt><trkpt lat="43.1376784" lon="11.4870983"><ele>151.0</ele><time>2026-04-20T14:26:09.393Z</time></trkpt><trkpt lat="43.1376839" lon="11.4869628"><ele>150.5</ele><time>2026-04-20T14:26:10.394Z</time></trkpt><trkpt lat="43.1376857" lon="11.4868328"><ele>150.0</ele><time>2026-04-20T14:26:11.393Z</time></trkpt><trkpt lat="43.1376867" lon="11.486724"><ele>149.5</ele><time>2026-04-20T14:26:12.393Z</time></trkpt><trkpt lat="43.1376834" lon="11.4866014"><ele>149.0</ele><time>2026-04-20T14:26:14.393Z</time></trkpt><trkpt lat="43.1376809" lon="11.4864852"><ele>148.5</ele><time>2026-04-20T14:26:17.393Z</time></trkpt><trkpt lat="43.1376243" lon="11.4865396"><ele>148.0</ele><time>2026-04-20T14:26:21.393Z</time></trkpt><trkpt lat="43.1376413" lon="11.4867045"><ele>148.0</ele><time>2026-04-20T14:26:23.394Z</time></trkpt><trkpt lat="43.1376553" lon="11.4868312"><ele>148.0</ele><time>2026-04-20T14:26:24.394Z</time></trkpt><trkpt lat="43.137662" lon="11.4869808"><ele>148.0</ele><time>2026-04-20T14:26:25.394Z</time></trkpt><trkpt lat="43.1376603" lon="11.4871517"><ele>148.0</ele><time>2026-04-20T14:26:26.393Z</time></trkpt><trkpt lat="43.1376533" lon="11.487337"><ele>148.75</ele><time>2026-04-20T14:26:27.393Z</time></trkpt><trkpt lat="43.1376497" lon="11.4875283"><ele>149.5</ele><time>2026-04-20T14:26:28.394Z</time></trkpt><trkpt lat="43.1376502" lon="11.4876909"><ele>150.25</ele><time>2026-04-20T14:26:29.393Z</time></trkpt><trkpt lat="43.1376523" lon="11.4878311"><ele>151.0</ele><time>2026-04-20T14:26:30.394Z</time></trkpt><trkpt lat="43.1376545" lon="11.487957"><ele>151.66666666666669</ele><time>2026-04-20T14:26:31.393Z</time></trkpt><trkpt lat="43.1376537" lon="11.4880783"><ele>152.33333333333334</ele><time>2026-04-20T14:26:32.393Z</time></trkpt><trkpt lat="43.1376521" lon="11.4882005"><ele>153.0</ele><time>2026-04-20T14:26:33.393Z</time></trkpt><trkpt lat="43.1376516" lon="11.4883074"><ele>153.66666666666666</ele><time>2026-04-20T14:26:34.393Z</time></trkpt><trkpt lat="43.1376674" lon="11.4884021"><ele>154.33333333333331</ele><time>2026-04-20T14:26:35.393Z</time></trkpt><trkpt lat="43.1377061" lon="11.4884737"><ele>155.0</ele><time>2026-04-20T14:26:36.393Z</time></trkpt><trkpt lat="43.137778" lon="11.4885117"><ele>155.0</ele><time>2026-04-20T14:26:37.394Z</time></trkpt><trkpt lat="43.1378732" lon="11.4885155"><ele>155.0</ele><time>2026-04-20T14:26:38.393Z</time></trkpt><trkpt lat="43.137989" lon="11.4885039"><ele>155.0</ele><time>2026-04-20T14:26:39.393Z</time></trkpt><trkpt lat="43.1381104" lon="11.488497"><ele>155.0</ele><time>2026-04-20T14:26:40.393Z</time></trkpt><trkpt lat="43.1382315" lon="11.4884925"><ele>154.5</ele><time>2026-04-20T14:26:41.393Z</time></trkpt><trkpt lat="43.1383559" lon="11.4884971"><ele>154.0</ele><time>2026-04-20T14:26:42.394Z</time></trkpt><trkpt lat="43.1384805" lon="11.4884985"><ele>153.5</ele><time>2026-04-20T14:26:43.393Z</time></trkpt><trkpt lat="43.1385957" lon="11.4884922"><ele>153.0</ele><time>2026-04-20T14:26:44.393Z</time></trkpt><trkpt lat="43.1387025" lon="11.4884807"><ele>153.0</ele><time>2026-04-20T14:26:45.393Z</time></trkpt><trkpt lat="43.1387951" lon="11.4884678"><ele>153.0</ele><time>2026-04-20T14:26:46.393Z</time></trkpt><trkpt lat="43.1388758" lon="11.4884528"><ele>153.0</ele><time>2026-04-20T14:26:47.393Z</time></trkpt><trkpt lat="43.1389403" lon="11.48845"><ele>153.0</ele><time>2026-04-20T14:26:48.393Z</time></trkpt><trkpt lat="43.1390197" lon="11.4884298"><ele>153.0</ele><time>2026-04-20T14:26:50.395Z</time></trkpt><trkpt lat="43.1390282" lon="11.4883127"><ele>153.0</ele><time>2026-04-20T14:26:52.394Z</time></trkpt><trkpt lat="43.1390042" lon="11.4882178"><ele>153.0</ele><time>2026-04-20T14:26:53.395Z</time></trkpt><trkpt lat="43.1389749" lon="11.4881016"><ele>153.0</ele><time>2026-04-20T14:26:54.394Z</time></trkpt><trkpt lat="43.1389545" lon="11.4879581"><ele>153.0</ele><time>2026-04-20T14:26:55.394Z</time></trkpt><trkpt lat="43.1389414" lon="11.4877952"><ele>153.0</ele><time>2026-04-20T14:26:56.394Z</time></trkpt><trkpt lat="43.1389294" lon="11.4876287"><ele>153.0</ele><time>2026-04-20T14:26:57.394Z</time></trkpt><trkpt lat="43.1389205" lon="11.4874878"><ele>152.6</ele><time>2026-04-20T14:26:58.394Z</time></trkpt><trkpt lat="43.138912" lon="11.4873692"><ele>152.20000000000002</ele><time>2026-04-20T14:26:59.394Z</time></trkpt><trkpt lat="43.1389108" lon="11.4872729"><ele>151.8</ele><time>2026-04-20T14:27:00.394Z</time></trkpt><trkpt lat="43.1389101" lon="11.4871552"><ele>151.4</ele><time>2026-04-20T14:27:01.395Z</time></trkpt><trkpt lat="43.1389046" lon="11.4870087"><ele>151.0</ele><time>2026-04-20T14:27:02.394Z</time></trkpt><trkpt lat="43.1388944" lon="11.4868374"><ele>150.25</ele><time>2026-04-20T14:27:03.394Z</time></trkpt><trkpt lat="43.1388966" lon="11.4866522"><ele>149.5</ele><time>2026-04-20T14:27:04.394Z</time></trkpt><trkpt lat="43.1389015" lon="11.4864868"><ele>148.75</ele><time>2026-04-20T14:27:05.394Z</time></trkpt><trkpt lat="43.1389087" lon="11.4863363"><ele>148.0</ele><time>2026-04-20T14:27:06.394Z</time></trkpt><trkpt lat="43.1389146" lon="11.4862045"><ele>147.6</ele><time>2026-04-20T14:27:07.394Z</time></trkpt><trkpt lat="43.1389178" lon="11.486073"><ele>147.20000000000002</ele><time>2026-04-20T14:27:08.394Z</time></trkpt><trkpt lat="43.138918" lon="11.4859343"><ele>146.8</ele><time>2026-04-20T14:27:09.395Z</time></trkpt><trkpt lat="43.1389154" lon="11.4857926"><ele>146.4</ele><time>2026-04-20T14:27:10.394Z</time></trkpt><trkpt lat="43.1389103" lon="11.4856607"><ele>146.0</ele><time>2026-04-20T14:27:11.394Z</time></trkpt><trkpt lat="43.1389001" lon="11.4855399"><ele>146.0</ele><time>2026-04-20T14:27:12.394Z</time></trkpt><trkpt lat="43.1388885" lon="11.4854388"><ele>146.0</ele><time>2026-04-20T14:27:13.394Z</time></trkpt><trkpt lat="43.1388944" lon="11.4853126"><ele>146.0</ele><time>2026-04-20T14:27:15.395Z</time></trkpt><trkpt lat="43.1389868" lon="11.485246"><ele>146.0</ele><time>2026-04-20T14:27:17.395Z</time></trkpt><trkpt lat="43.1390754" lon="11.4852307"><ele>146.0</ele><time>2026-04-20T14:27:18.395Z</time></trkpt><trkpt lat="43.1391813" lon="11.4852089"><ele>145.8</ele><time>2026-04-20T14:27:19.394Z</time></trkpt><trkpt lat="43.1392889" lon="11.4851786"><ele>145.6</ele><time>2026-04-20T14:27:20.394Z</time></trkpt><trkpt lat="43.1393848" lon="11.4851545"><ele>145.4</ele><time>2026-04-20T14:27:21.394Z</time></trkpt><trkpt lat="43.139468" lon="11.4851342"><ele>145.2</ele><time>2026-04-20T14:27:22.394Z</time></trkpt><trkpt lat="43.1395395" lon="11.4851128"><ele>145.0</ele><time>2026-04-20T14:27:23.395Z</time></trkpt><trkpt lat="43.1396263" lon="11.4850861"><ele>145.0</ele><time>2026-04-20T14:27:25.394Z</time></trkpt><trkpt lat="43.139703" lon="11.4850277"><ele>145.0</ele><time>2026-04-20T14:27:30.394Z</time></trkpt><trkpt lat="43.1396892" lon="11.4849137"><ele>145.0</ele><time>2026-04-20T14:27:32.394Z</time></trkpt><trkpt lat="43.1396538" lon="11.4847679"><ele>145.0</ele><time>2026-04-20T14:27:34.395Z</time></trkpt><trkpt lat="43.1396182" lon="11.4846182"><ele>145.0</ele><time>2026-04-20T14:27:36.394Z</time></trkpt><trkpt lat="43.1395908" lon="11.4844824"><ele>144.8</ele><time>2026-04-20T14:27:38.394Z</time></trkpt><trkpt lat="43.1395713" lon="11.4843718"><ele>144.6</ele><time>2026-04-20T14:27:40.395Z</time></trkpt><trkpt lat="43.1395626" lon="11.4842439"><ele>144.4</ele><time>2026-04-20T14:28:54.396Z</time></trkpt><trkpt lat="43.1395236" lon="11.4840818"><ele>144.2</ele><time>2026-04-20T14:28:56.397Z</time></trkpt><trkpt lat="43.1394885" lon="11.4839669"><ele>144.0</ele><time>2026-04-20T14:28:57.397Z</time></trkpt><trkpt lat="43.1394454" lon="11.4838359"><ele>144.2</ele><time>2026-04-20T14:28:58.396Z</time></trkpt><trkpt lat="43.1393991" lon="11.4836954"><ele>144.4</ele><time>2026-04-20T14:28:59.396Z</time></trkpt><trkpt lat="43.1393586" lon="11.4835495"><ele>144.6</ele><time>2026-04-20T14:29:00.397Z</time></trkpt><trkpt lat="43.1393259" lon="11.4834167"><ele>144.8</ele><time>2026-04-20T14:29:01.396Z</time></trkpt><trkpt lat="43.139296" lon="11.4833022"><ele>145.0</ele><time>2026-04-20T14:29:02.396Z</time></trkpt><trkpt lat="43.1392685" lon="11.4832081"><ele>145.0</ele><time>2026-04-20T14:29:03.396Z</time></trkpt><trkpt lat="43.1392373" lon="11.4830772"><ele>145.0</ele><time>2026-04-20T14:29:05.397Z</time></trkpt><trkpt lat="43.1392549" lon="11.4829892"><ele>145.0</ele><time>2026-04-20T14:29:07.396Z</time></trkpt><trkpt lat="43.1393639" lon="11.482881"><ele>145.0</ele><time>2026-04-20T14:29:09.396Z</time></trkpt><trkpt lat="43.1394521" lon="11.4828205"><ele>145.0</ele><time>2026-04-20T14:29:10.396Z</time></trkpt><trkpt lat="43.139561" lon="11.4827396"><ele>145.66666666666669</ele><time>2026-04-20T14:29:11.396Z</time></trkpt><trkpt lat="43.1396953" lon="11.4826455"><ele>146.33333333333334</ele><time>2026-04-20T14:29:12.396Z</time></trkpt><trkpt lat="43.139849" lon="11.4825473"><ele>147.0</ele><time>2026-04-20T14:29:13.396Z</time></trkpt><trkpt lat="43.1399856" lon="11.4824493"><ele>145.66666666666666</ele><time>2026-04-20T14:29:14.396Z</time></trkpt><trkpt lat="43.1401203" lon="11.482359"><ele>144.33333333333331</ele><time>2026-04-20T14:29:15.396Z</time></trkpt><trkpt lat="43.1402618" lon="11.4822703"><ele>143.0</ele><time>2026-04-20T14:29:16.396Z</time></trkpt><trkpt lat="43.1404059" lon="11.4821749"><ele>142.66666666666666</ele><time>2026-04-20T14:29:17.396Z</time></trkpt><trkpt lat="43.1405527" lon="11.4820751"><ele>142.33333333333334</ele><time>2026-04-20T14:29:18.397Z</time></trkpt><trkpt lat="43.1407074" lon="11.4819684"><ele>142.0</ele><time>2026-04-20T14:29:19.397Z</time></trkpt><trkpt lat="43.1408655" lon="11.4818605"><ele>141.66666666666669</ele><time>2026-04-20T14:29:20.397Z</time></trkpt><trkpt lat="43.141027" lon="11.4817475"><ele>141.33333333333334</ele><time>2026-04-20T14:29:21.397Z</time></trkpt><trkpt lat="43.1411844" lon="11.4816348"><ele>141.0</ele><time>2026-04-20T14:29:22.397Z</time></trkpt><trkpt lat="43.1413407" lon="11.4815216"><ele>141.0</ele><time>2026-04-20T14:29:23.397Z</time></trkpt><trkpt lat="43.141492" lon="11.4813998"><ele>141.0</ele><time>2026-04-20T14:29:24.397Z</time></trkpt><trkpt lat="43.1416352" lon="11.4812622"><ele>141.0</ele><time>2026-04-20T14:29:25.397Z</time></trkpt><trkpt lat="43.1417692" lon="11.4811038"><ele>141.33333333333334</ele><time>2026-04-20T14:29:26.398Z</time></trkpt><trkpt lat="43.1418948" lon="11.4809331"><ele>141.66666666666669</ele><time>2026-04-20T14:29:27.397Z</time></trkpt><trkpt lat="43.1420173" lon="11.4807617"><ele>142.0</ele><time>2026-04-20T14:29:28.398Z</time></trkpt><trkpt lat="43.1421381" lon="11.4806"><ele>142.0</ele><time>2026-04-20T14:29:29.397Z</time></trkpt><trkpt lat="43.1422494" lon="11.4804615"><ele>142.0</ele><time>2026-04-20T14:29:30.398Z</time></trkpt><trkpt lat="43.1423618" lon="11.4803314"><ele>142.0</ele><time>2026-04-20T14:29:31.398Z</time></trkpt><trkpt lat="43.1424633" lon="11.4802023"><ele>142.0</ele><time>2026-04-20T14:29:32.397Z</time></trkpt><trkpt lat="43.1425518" lon="11.480081"><ele>142.2</ele><time>2026-04-20T14:29:33.398Z</time></trkpt><trkpt lat="43.1426153" lon="11.4799647"><ele>142.39999999999998</ele><time>2026-04-20T14:29:34.397Z</time></trkpt><trkpt lat="43.1426635" lon="11.4798536"><ele>142.60000000000002</ele><time>2026-04-20T14:29:35.397Z</time></trkpt><trkpt lat="43.1426999" lon="11.4797268"><ele>142.8</ele><time>2026-04-20T14:29:36.397Z</time></trkpt><trkpt lat="43.1427464" lon="11.4795831"><ele>143.0</ele><time>2026-04-20T14:29:37.397Z</time></trkpt><trkpt lat="43.1427853" lon="11.4794201"><ele>143.0</ele><time>2026-04-20T14:29:38.397Z</time></trkpt><trkpt lat="43.1428059" lon="11.4792389"><ele>143.0</ele><time>2026-04-20T14:29:39.398Z</time></trkpt><trkpt lat="43.142838" lon="11.4790617"><ele>143.0</ele><time>2026-04-20T14:29:40.397Z</time></trkpt><trkpt lat="43.1428655" lon="11.478877"><ele>143.0</ele><time>2026-04-20T14:29:41.397Z</time></trkpt><trkpt lat="43.1428959" lon="11.4787049"><ele>143.0</ele><time>2026-04-20T14:29:42.398Z</time></trkpt><trkpt lat="43.142921" lon="11.4785416"><ele>143.0</ele><time>2026-04-20T14:29:43.397Z</time></trkpt><trkpt lat="43.1429468" lon="11.47839"><ele>143.0</ele><time>2026-04-20T14:29:44.397Z</time></trkpt><trkpt lat="43.1429661" lon="11.4782533"><ele>143.0</ele><time>2026-04-20T14:29:45.398Z</time></trkpt><trkpt lat="43.1429858" lon="11.4781284"><ele>143.0</ele><time>2026-04-20T14:29:46.397Z</time></trkpt><trkpt lat="43.1430084" lon="11.4780111"><ele>143.0</ele><time>2026-04-20T14:29:47.397Z</time></trkpt><trkpt lat="43.1430374" lon="11.4779029"><ele>143.0</ele><time>2026-04-20T14:29:48.398Z</time></trkpt><trkpt lat="43.1430663" lon="11.477806"><ele>143.0</ele><time>2026-04-20T14:29:49.397Z</time></trkpt><trkpt lat="43.1430942" lon="11.4777134"><ele>143.0</ele><time>2026-04-20T14:29:50.397Z</time></trkpt><trkpt lat="43.14313" lon="11.4776094"><ele>143.0</ele><time>2026-04-20T14:29:51.397Z</time></trkpt><trkpt lat="43.1431755" lon="11.4774993"><ele>143.0</ele><time>2026-04-20T14:29:52.398Z</time></trkpt><trkpt lat="43.1432414" lon="11.4773816"><ele>143.0</ele><time>2026-04-20T14:29:53.398Z</time></trkpt><trkpt lat="43.1433284" lon="11.4772545"><ele>143.0</ele><time>2026-04-20T14:29:54.397Z</time></trkpt><trkpt lat="43.1434209" lon="11.4771287"><ele>143.0</ele><time>2026-04-20T14:29:55.398Z</time></trkpt><trkpt lat="43.143513" lon="11.4770189"><ele>143.0</ele><time>2026-04-20T14:29:56.397Z</time></trkpt><trkpt lat="43.1436133" lon="11.4769108"><ele>143.0</ele><time>2026-04-20T14:29:57.397Z</time></trkpt><trkpt lat="43.1437168" lon="11.4768043"><ele>143.0</ele><time>2026-04-20T14:29:58.397Z</time></trkpt><trkpt lat="43.1438135" lon="11.4767055"><ele>143.0</ele><time>2026-04-20T14:29:59.397Z</time></trkpt><trkpt lat="43.1439071" lon="11.4766059"><ele>143.0</ele><time>2026-04-20T14:30:00.398Z</time></trkpt><trkpt lat="43.1440048" lon="11.4764985"><ele>142.75</ele><time>2026-04-20T14:30:01.398Z</time></trkpt><trkpt lat="43.1441092" lon="11.476389"><ele>142.5</ele><time>2026-04-20T14:30:02.397Z</time></trkpt><trkpt lat="43.1442241" lon="11.4762819"><ele>142.25</ele><time>2026-04-20T14:30:03.397Z</time></trkpt><trkpt lat="43.1443393" lon="11.4762046"><ele>142.0</ele><time>2026-04-20T14:30:04.398Z</time></trkpt><trkpt lat="43.1444501" lon="11.4761656"><ele>142.0</ele><time>2026-04-20T14:30:05.397Z</time></trkpt><trkpt lat="43.1445662" lon="11.4761659"><ele>142.0</ele><time>2026-04-20T14:30:06.397Z</time></trkpt><trkpt lat="43.1447031" lon="11.4762123"><ele>142.0</ele><time>2026-04-20T14:30:07.398Z</time></trkpt><trkpt lat="43.1448546" lon="11.4762612"><ele>142.0</ele><time>2026-04-20T14:30:08.398Z</time></trkpt><trkpt lat="43.1450096" lon="11.4762987"><ele>142.0</ele><time>2026-04-20T14:30:09.399Z</time></trkpt><trkpt lat="43.1451533" lon="11.4763036"><ele>142.0</ele><time>2026-04-20T14:30:10.398Z</time></trkpt><trkpt lat="43.1452855" lon="11.4762805"><ele>142.0</ele><time>2026-04-20T14:30:11.398Z</time></trkpt><trkpt lat="43.1454089" lon="11.476244"><ele>142.0</ele><time>2026-04-20T14:30:12.398Z</time></trkpt><trkpt lat="43.1455342" lon="11.4762033"><ele>142.0</ele><time>2026-04-20T14:30:13.398Z</time></trkpt><trkpt lat="43.1456713" lon="11.4761689"><ele>142.0</ele><time>2026-04-20T14:30:14.398Z</time></trkpt><trkpt lat="43.1458066" lon="11.4761318"><ele>142.0</ele><time>2026-04-20T14:30:15.398Z</time></trkpt><trkpt lat="43.1459432" lon="11.4760855"><ele>142.0</ele><time>2026-04-20T14:30:16.398Z</time></trkpt><trkpt lat="43.1460912" lon="11.4760276"><ele>143.0</ele><time>2026-04-20T14:30:17.399Z</time></trkpt><trkpt lat="43.1462561" lon="11.4759616"><ele>144.0</ele><time>2026-04-20T14:30:18.398Z</time></trkpt><trkpt lat="43.1464291" lon="11.4758961"><ele>145.0</ele><time>2026-04-20T14:30:19.398Z</time></trkpt><trkpt lat="43.1466098" lon="11.4758277"><ele>146.0</ele><time>2026-04-20T14:30:20.398Z</time></trkpt><trkpt lat="43.1467942" lon="11.4757607"><ele>147.0</ele><time>2026-04-20T14:30:21.399Z</time></trkpt><trkpt lat="43.146979" lon="11.4756929"><ele>148.0</ele><time>2026-04-20T14:30:22.398Z</time></trkpt><trkpt lat="43.1471738" lon="11.4756197"><ele>148.0</ele><time>2026-04-20T14:30:23.398Z</time></trkpt><trkpt lat="43.1473739" lon="11.4755449"><ele>148.0</ele><time>2026-04-20T14:30:24.399Z</time></trkpt><trkpt lat="43.1475637" lon="11.4754739"><ele>148.0</ele><time>2026-04-20T14:30:25.398Z</time></trkpt><trkpt lat="43.1477385" lon="11.4754077"><ele>147.33333333333334</ele><time>2026-04-20T14:30:26.398Z</time></trkpt><trkpt lat="43.1479083" lon="11.4753417"><ele>146.66666666666666</ele><time>2026-04-20T14:30:27.398Z</time></trkpt><trkpt lat="43.1480832" lon="11.4752743"><ele>146.0</ele><time>2026-04-20T14:30:28.398Z</time></trkpt><trkpt lat="43.1482676" lon="11.475208"><ele>146.0</ele><time>2026-04-20T14:30:29.398Z</time></trkpt><trkpt lat="43.148452" lon="11.4751448"><ele>146.0</ele><time>2026-04-20T14:30:30.398Z</time></trkpt><trkpt lat="43.1486347" lon="11.4750786"><ele>146.0</ele><time>2026-04-20T14:30:31.399Z</time></trkpt><trkpt lat="43.1488169" lon="11.4750129"><ele>146.0</ele><time>2026-04-20T14:30:32.399Z</time></trkpt><trkpt lat="43.1489991" lon="11.4749463"><ele>146.0</ele><time>2026-04-20T14:30:33.398Z</time></trkpt><trkpt lat="43.1491772" lon="11.4748679"><ele>146.0</ele><time>2026-04-20T14:30:34.398Z</time></trkpt><trkpt lat="43.1493471" lon="11.4747797"><ele>145.66666666666666</ele><time>2026-04-20T14:30:35.398Z</time></trkpt><trkpt lat="43.1495176" lon="11.4746768"><ele>145.33333333333334</ele><time>2026-04-20T14:30:36.398Z</time></trkpt><trkpt lat="43.1496884" lon="11.4745689"><ele>145.0</ele><time>2026-04-20T14:30:37.398Z</time></trkpt><trkpt lat="43.1498576" lon="11.4744592"><ele>145.66666666666669</ele><time>2026-04-20T14:30:38.398Z</time></trkpt><trkpt lat="43.1500227" lon="11.4743589"><ele>146.33333333333334</ele><time>2026-04-20T14:30:39.398Z</time></trkpt><trkpt lat="43.1501868" lon="11.4742589"><ele>147.0</ele><time>2026-04-20T14:30:40.399Z</time></trkpt><trkpt lat="43.1503507" lon="11.4741451"><ele>147.0</ele><time>2026-04-20T14:30:41.398Z</time></trkpt><trkpt lat="43.1505059" lon="11.4740248"><ele>147.0</ele><time>2026-04-20T14:30:42.398Z</time></trkpt><trkpt lat="43.1506506" lon="11.4738832"><ele>147.0</ele><time>2026-04-20T14:30:43.399Z</time></trkpt><trkpt lat="43.1507984" lon="11.4737305"><ele>147.33333333333334</ele><time>2026-04-20T14:30:44.398Z</time></trkpt><trkpt lat="43.1509528" lon="11.4735774"><ele>147.66666666666669</ele><time>2026-04-20T14:30:45.398Z</time></trkpt><trkpt lat="43.1511082" lon="11.4734227"><ele>148.0</ele><time>2026-04-20T14:30:46.398Z</time></trkpt><trkpt lat="43.1512658" lon="11.4732726"><ele>148.0</ele><time>2026-04-20T14:30:47.398Z</time></trkpt><trkpt lat="43.1514204" lon="11.4731338"><ele>148.0</ele><time>2026-04-20T14:30:48.398Z</time></trkpt><trkpt lat="43.1515789" lon="11.4729981"><ele>148.0</ele><time>2026-04-20T14:30:49.398Z</time></trkpt><trkpt lat="43.1517442" lon="11.4728731"><ele>146.33333333333334</ele><time>2026-04-20T14:30:50.398Z</time></trkpt><trkpt lat="43.1519168" lon="11.4727686"><ele>144.66666666666666</ele><time>2026-04-20T14:30:51.398Z</time></trkpt><trkpt lat="43.1520952" lon="11.4726801"><ele>143.0</ele><time>2026-04-20T14:30:52.398Z</time></trkpt><trkpt lat="43.1522754" lon="11.4725994"><ele>143.0</ele><time>2026-04-20T14:30:53.398Z</time></trkpt><trkpt lat="43.1524571" lon="11.4725343"><ele>143.0</ele><time>2026-04-20T14:30:54.398Z</time></trkpt><trkpt lat="43.1526422" lon="11.4724842"><ele>143.0</ele><time>2026-04-20T14:30:55.398Z</time></trkpt><trkpt lat="43.1528139" lon="11.4724342"><ele>143.0</ele><time>2026-04-20T14:30:56.399Z</time></trkpt><trkpt lat="43.1529487" lon="11.4724072"><ele>143.0</ele><time>2026-04-20T14:30:57.399Z</time></trkpt><trkpt lat="43.1530673" lon="11.4723939"><ele>143.0</ele><time>2026-04-20T14:30:58.399Z</time></trkpt><trkpt lat="43.1531772" lon="11.4723821"><ele>143.0</ele><time>2026-04-20T14:30:59.399Z</time></trkpt><trkpt lat="43.1532798" lon="11.4723643"><ele>143.0</ele><time>2026-04-20T14:31:00.399Z</time></trkpt><trkpt lat="43.1533826" lon="11.4723409"><ele>143.0</ele><time>2026-04-20T14:31:01.399Z</time></trkpt><trkpt lat="43.1534819" lon="11.4723165"><ele>143.0</ele><time>2026-04-20T14:31:02.399Z</time></trkpt><trkpt lat="43.1535896" lon="11.4722858"><ele>143.0</ele><time>2026-04-20T14:31:03.399Z</time></trkpt><trkpt lat="43.1537169" lon="11.4722525"><ele>143.0</ele><time>2026-04-20T14:31:04.399Z</time></trkpt><trkpt lat="43.1538595" lon="11.4722161"><ele>143.0</ele><time>2026-04-20T14:31:05.399Z</time></trkpt><trkpt lat="43.1540099" lon="11.4721798"><ele>143.0</ele><time>2026-04-20T14:31:06.399Z</time></trkpt><trkpt lat="43.1541781" lon="11.4721404"><ele>143.0</ele><time>2026-04-20T14:31:07.399Z</time></trkpt><trkpt lat="43.1543655" lon="11.4721011"><ele>143.33333333333331</ele><time>2026-04-20T14:31:08.4Z</time></trkpt><trkpt lat="43.1545576" lon="11.4720578"><ele>143.66666666666666</ele><time>2026-04-20T14:31:09.399Z</time></trkpt><trkpt lat="43.1547458" lon="11.472012"><ele>144.0</ele><time>2026-04-20T14:31:10.399Z</time></trkpt><trkpt lat="43.1549371" lon="11.4719719"><ele>144.33333333333334</ele><time>2026-04-20T14:31:11.399Z</time></trkpt><trkpt lat="43.1551287" lon="11.4719306"><ele>144.66666666666669</ele><time>2026-04-20T14:31:12.399Z</time></trkpt><trkpt lat="43.1553206" lon="11.4718849"><ele>145.0</ele><time>2026-04-20T14:31:13.4Z</time></trkpt><trkpt lat="43.1555148" lon="11.4718377"><ele>146.0</ele><time>2026-04-20T14:31:14.399Z</time></trkpt><trkpt lat="43.1557111" lon="11.4717896"><ele>147.0</ele><time>2026-04-20T14:31:15.399Z</time></trkpt><trkpt lat="43.1559082" lon="11.4717438"><ele>148.0</ele><time>2026-04-20T14:31:16.4Z</time></trkpt><trkpt lat="43.1561066" lon="11.4716971"><ele>148.0</ele><time>2026-04-20T14:31:17.399Z</time></trkpt><trkpt lat="43.1563071" lon="11.471654"><ele>148.0</ele><time>2026-04-20T14:31:18.4Z</time></trkpt><trkpt lat="43.156508" lon="11.4716067"><ele>148.0</ele><time>2026-04-20T14:31:19.399Z</time></trkpt><trkpt lat="43.1567035" lon="11.4715601"><ele>148.33333333333334</ele><time>2026-04-20T14:31:20.4Z</time></trkpt><trkpt lat="43.1569044" lon="11.4715143"><ele>148.66666666666666</ele><time>2026-04-20T14:31:21.399Z</time></trkpt><trkpt lat="43.157112" lon="11.4714723"><ele>149.0</ele><time>2026-04-20T14:31:22.399Z</time></trkpt><trkpt lat="43.1573202" lon="11.471425"><ele>149.0</ele><time>2026-04-20T14:31:23.4Z</time></trkpt><trkpt lat="43.1575284" lon="11.4713741"><ele>149.0</ele><time>2026-04-20T14:31:24.399Z</time></trkpt><trkpt lat="43.1577199" lon="11.4713163"><ele>149.0</ele><time>2026-04-20T14:31:25.399Z</time></trkpt><trkpt lat="43.157898" lon="11.4712435"><ele>148.33333333333331</ele><time>2026-04-20T14:31:26.399Z</time></trkpt><trkpt lat="43.1580683" lon="11.4711447"><ele>147.66666666666666</ele><time>2026-04-20T14:31:27.399Z</time></trkpt><trkpt lat="43.1582361" lon="11.4710213"><ele>147.0</ele><time>2026-04-20T14:31:28.4Z</time></trkpt><trkpt lat="43.1584073" lon="11.4708866"><ele>147.0</ele><time>2026-04-20T14:31:29.4Z</time></trkpt><trkpt lat="43.1585777" lon="11.4707498"><ele>147.0</ele><time>2026-04-20T14:31:30.399Z</time></trkpt><trkpt lat="43.1587459" lon="11.4706189"><ele>147.0</ele><time>2026-04-20T14:31:31.399Z</time></trkpt><trkpt lat="43.1589119" lon="11.4704878"><ele>147.0</ele><time>2026-04-20T14:31:32.399Z</time></trkpt><trkpt lat="43.1590733" lon="11.4703523"><ele>147.0</ele><time>2026-04-20T14:31:33.4Z</time></trkpt><trkpt lat="43.1592361" lon="11.4702067"><ele>147.0</ele><time>2026-04-20T14:31:34.4Z</time></trkpt><trkpt lat="43.1593973" lon="11.4700589"><ele>147.0</ele><time>2026-04-20T14:31:35.399Z</time></trkpt><trkpt lat="43.15956" lon="11.4699056"><ele>147.0</ele><time>2026-04-20T14:31:36.399Z</time></trkpt><trkpt lat="43.1597208" lon="11.469745"><ele>147.0</ele><time>2026-04-20T14:31:37.399Z</time></trkpt><trkpt lat="43.1598853" lon="11.4695856"><ele>146.66666666666666</ele><time>2026-04-20T14:31:38.399Z</time></trkpt><trkpt lat="43.1600504" lon="11.4694289"><ele>146.33333333333331</ele><time>2026-04-20T14:31:39.399Z</time></trkpt><trkpt lat="43.1602154" lon="11.4692726"><ele>146.0</ele><time>2026-04-20T14:31:40.399Z</time></trkpt><trkpt lat="43.1603803" lon="11.4691168"><ele>146.0</ele><time>2026-04-20T14:31:41.4Z</time></trkpt><trkpt lat="43.1605413" lon="11.4689716"><ele>146.0</ele><time>2026-04-20T14:31:42.399Z</time></trkpt><trkpt lat="43.160699" lon="11.4688497"><ele>146.0</ele><time>2026-04-20T14:31:43.4Z</time></trkpt><trkpt lat="43.1608585" lon="11.4687695"><ele>147.0</ele><time>2026-04-20T14:31:44.4Z</time></trkpt><trkpt lat="43.161025" lon="11.4687103"><ele>148.0</ele><time>2026-04-20T14:31:45.399Z</time></trkpt><trkpt lat="43.1612055" lon="11.4686658"><ele>149.0</ele><time>2026-04-20T14:31:46.399Z</time></trkpt><trkpt lat="43.1614008" lon="11.468632"><ele>149.66666666666666</ele><time>2026-04-20T14:31:47.399Z</time></trkpt><trkpt lat="43.1616055" lon="11.4685944"><ele>150.33333333333334</ele><time>2026-04-20T14:31:48.4Z</time></trkpt><trkpt lat="43.1618158" lon="11.4685529"><ele>151.0</ele><time>2026-04-20T14:31:49.401Z</time></trkpt><trkpt lat="43.162029" lon="11.4685172"><ele>151.0</ele><time>2026-04-20T14:31:50.401Z</time></trkpt><trkpt lat="43.1622425" lon="11.4684825"><ele>151.0</ele><time>2026-04-20T14:31:51.4Z</time></trkpt><trkpt lat="43.1624476" lon="11.4684451"><ele>151.0</ele><time>2026-04-20T14:31:52.4Z</time></trkpt><trkpt lat="43.1626395" lon="11.4684055"><ele>150.0</ele><time>2026-04-20T14:31:53.4Z</time></trkpt><trkpt lat="43.1628341" lon="11.4683512"><ele>149.0</ele><time>2026-04-20T14:31:54.4Z</time></trkpt><trkpt lat="43.1629937" lon="11.4682855"><ele>148.0</ele><time>2026-04-20T14:31:55.4Z</time></trkpt><trkpt lat="43.1631387" lon="11.468201"><ele>147.5</ele><time>2026-04-20T14:31:56.401Z</time></trkpt><trkpt lat="43.1632727" lon="11.4681052"><ele>147.0</ele><time>2026-04-20T14:31:57.4Z</time></trkpt><trkpt lat="43.1633952" lon="11.4680146"><ele>146.5</ele><time>2026-04-20T14:31:58.4Z</time></trkpt><trkpt lat="43.1635091" lon="11.4679364"><ele>146.0</ele><time>2026-04-20T14:31:59.4Z</time></trkpt><trkpt lat="43.1636115" lon="11.4678722"><ele>146.0</ele><time>2026-04-20T14:32:00.4Z</time></trkpt><trkpt lat="43.1636948" lon="11.4678344"><ele>146.0</ele><time>2026-04-20T14:32:01.4Z</time></trkpt><trkpt lat="43.163765" lon="11.4678249"><ele>146.0</ele><time>2026-04-20T14:32:02.4Z</time></trkpt><trkpt lat="43.1638287" lon="11.4678427"><ele>146.0</ele><time>2026-04-20T14:32:03.4Z</time></trkpt><trkpt lat="43.1638832" lon="11.4678936"><ele>146.0</ele><time>2026-04-20T14:32:04.4Z</time></trkpt><trkpt lat="43.1639259" lon="11.4679667"><ele>146.0</ele><time>2026-04-20T14:32:05.4Z</time></trkpt><trkpt lat="43.1639517" lon="11.4680552"><ele>146.0</ele><time>2026-04-20T14:32:06.4Z</time></trkpt><trkpt lat="43.1639756" lon="11.4681539"><ele>146.0</ele><time>2026-04-20T14:32:07.401Z</time></trkpt><trkpt lat="43.1640043" lon="11.4682509"><ele>146.0</ele><time>2026-04-20T14:32:08.4Z</time></trkpt><trkpt lat="43.1640368" lon="11.4683493"><ele>146.0</ele><time>2026-04-20T14:32:09.4Z</time></trkpt><trkpt lat="43.1640681" lon="11.4684472"><ele>146.0</ele><time>2026-04-20T14:32:10.4Z</time></trkpt><trkpt lat="43.1640958" lon="11.4685465"><ele>146.0</ele><time>2026-04-20T14:32:11.4Z</time></trkpt><trkpt lat="43.1641122" lon="11.4686398"><ele>146.0</ele><time>2026-04-20T14:32:12.4Z</time></trkpt><trkpt lat="43.1641159" lon="11.4687281"><ele>146.0</ele><time>2026-04-20T14:32:13.4Z</time></trkpt><trkpt lat="43.1640823" lon="11.4688746"><ele>147.4</ele><time>2026-04-20T14:32:15.401Z</time></trkpt><trkpt lat="43.1640059" lon="11.4689985"><ele>148.8</ele><time>2026-04-20T14:32:17.401Z</time></trkpt><trkpt lat="43.1638993" lon="11.4690587"><ele>150.20000000000002</ele><time>2026-04-20T14:32:19.4Z</time></trkpt><trkpt lat="43.1637906" lon="11.4690785"><ele>151.6</ele><time>2026-04-20T14:32:21.4Z</time></trkpt><trkpt lat="43.1637254" lon="11.4690962"><ele>153.0</ele><time>2026-04-20T14:32:22.4Z</time></trkpt><trkpt lat="43.1636525" lon="11.469113"><ele>153.0</ele><time>2026-04-20T14:32:23.4Z</time></trkpt><trkpt lat="43.1635695" lon="11.4691295"><ele>153.0</ele><time>2026-04-20T14:32:24.4Z</time></trkpt><trkpt lat="43.1634812" lon="11.469148"><ele>153.0</ele><time>2026-04-20T14:32:25.401Z</time></trkpt><trkpt lat="43.1633911" lon="11.469174"><ele>153.0</ele><time>2026-04-20T14:32:26.4Z</time></trkpt><trkpt lat="43.1632964" lon="11.4692085"><ele>153.0</ele><time>2026-04-20T14:32:27.4Z</time></trkpt><trkpt lat="43.1632097" lon="11.4692538"><ele>152.83333333333334</ele><time>2026-04-20T14:32:28.401Z</time></trkpt><trkpt lat="43.1631357" lon="11.4693"><ele>152.66666666666666</ele><time>2026-04-20T14:32:29.4Z</time></trkpt><trkpt lat="43.1630676" lon="11.4693564"><ele>152.5</ele><time>2026-04-20T14:32:30.4Z</time></trkpt><trkpt lat="43.1630021" lon="11.4694241"><ele>152.33333333333331</ele><time>2026-04-20T14:32:31.4Z</time></trkpt><trkpt lat="43.1629404" lon="11.4694993"><ele>152.16666666666666</ele><time>2026-04-20T14:32:32.401Z</time></trkpt><trkpt lat="43.1628798" lon="11.4695787"><ele>152.0</ele><time>2026-04-20T14:32:33.4Z</time></trkpt><trkpt lat="43.1628214" lon="11.4696616"><ele>152.83333333333331</ele><time>2026-04-20T14:32:34.4Z</time></trkpt><trkpt lat="43.1627674" lon="11.4697472"><ele>153.66666666666666</ele><time>2026-04-20T14:32:35.4Z</time></trkpt><trkpt lat="43.1627212" lon="11.4698361"><ele>154.5</ele><time>2026-04-20T14:32:36.401Z</time></trkpt><trkpt lat="43.1626874" lon="11.4699318"><ele>155.33333333333334</ele><time>2026-04-20T14:32:37.401Z</time></trkpt><trkpt lat="43.1626636" lon="11.4700396"><ele>156.16666666666669</ele><time>2026-04-20T14:32:38.401Z</time></trkpt><trkpt lat="43.1626513" lon="11.4701571"><ele>157.0</ele><time>2026-04-20T14:32:39.402Z</time></trkpt><trkpt lat="43.1626457" lon="11.4702843"><ele>157.0</ele><time>2026-04-20T14:32:40.401Z</time></trkpt><trkpt lat="43.1626414" lon="11.4704134"><ele>157.0</ele><time>2026-04-20T14:32:41.401Z</time></trkpt><trkpt lat="43.1626379" lon="11.4705417"><ele>157.0</ele><time>2026-04-20T14:32:42.402Z</time></trkpt><trkpt lat="43.1626331" lon="11.4706727"><ele>157.0</ele><time>2026-04-20T14:32:43.401Z</time></trkpt><trkpt lat="43.16263" lon="11.4708109"><ele>157.0</ele><time>2026-04-20T14:32:44.401Z</time></trkpt><trkpt lat="43.1626248" lon="11.4709483"><ele>158.0</ele><time>2026-04-20T14:32:45.401Z</time></trkpt><trkpt lat="43.1626153" lon="11.4710806"><ele>159.0</ele><time>2026-04-20T14:32:46.401Z</time></trkpt><trkpt lat="43.1626064" lon="11.4712112"><ele>160.0</ele><time>2026-04-20T14:32:47.401Z</time></trkpt><trkpt lat="43.1626002" lon="11.4713368"><ele>161.0</ele><time>2026-04-20T14:32:48.401Z</time></trkpt><trkpt lat="43.1625916" lon="11.471461"><ele>162.0</ele><time>2026-04-20T14:32:49.401Z</time></trkpt><trkpt lat="43.162576" lon="11.4715788"><ele>163.0</ele><time>2026-04-20T14:32:50.401Z</time></trkpt><trkpt lat="43.1625485" lon="11.4716896"><ele>164.0</ele><time>2026-04-20T14:32:51.402Z</time></trkpt><trkpt lat="43.1625084" lon="11.4717984"><ele>165.0</ele><time>2026-04-20T14:32:52.402Z</time></trkpt><trkpt lat="43.1624535" lon="11.471907"><ele>166.0</ele><time>2026-04-20T14:32:53.402Z</time></trkpt><trkpt lat="43.1623911" lon="11.4720158"><ele>167.0</ele><time>2026-04-20T14:32:54.401Z</time></trkpt><trkpt lat="43.1623283" lon="11.4721279"><ele>168.0</ele><time>2026-04-20T14:32:55.401Z</time></trkpt><trkpt lat="43.1622699" lon="11.4722415"><ele>169.0</ele><time>2026-04-20T14:32:56.401Z</time></trkpt><trkpt lat="43.162215" lon="11.4723536"><ele>170.0</ele><time>2026-04-20T14:32:57.402Z</time></trkpt><trkpt lat="43.1621614" lon="11.4724662"><ele>171.0</ele><time>2026-04-20T14:32:58.402Z</time></trkpt><trkpt lat="43.162107" lon="11.4725785"><ele>172.0</ele><time>2026-04-20T14:32:59.402Z</time></trkpt><trkpt lat="43.1620503" lon="11.4726878"><ele>172.0</ele><time>2026-04-20T14:33:00.401Z</time></trkpt><trkpt lat="43.1619899" lon="11.4728036"><ele>172.0</ele><time>2026-04-20T14:33:01.401Z</time></trkpt><trkpt lat="43.1619353" lon="11.4729118"><ele>172.0</ele><time>2026-04-20T14:33:02.402Z</time></trkpt><trkpt lat="43.1618873" lon="11.4730063"><ele>172.0</ele><time>2026-04-20T14:33:03.401Z</time></trkpt><trkpt lat="43.1618465" lon="11.4730973"><ele>172.0</ele><time>2026-04-20T14:33:04.401Z</time></trkpt><trkpt lat="43.1618125" lon="11.4731906"><ele>172.0</ele><time>2026-04-20T14:33:05.401Z</time></trkpt><trkpt lat="43.1617872" lon="11.47328"><ele>173.2</ele><time>2026-04-20T14:33:06.402Z</time></trkpt><trkpt lat="43.1617736" lon="11.4734319"><ele>174.39999999999998</ele><time>2026-04-20T14:33:08.401Z</time></trkpt><trkpt lat="43.1618055" lon="11.4736134"><ele>175.60000000000002</ele><time>2026-04-20T14:33:10.402Z</time></trkpt><trkpt lat="43.1618317" lon="11.4737105"><ele>176.8</ele><time>2026-04-20T14:33:11.401Z</time></trkpt><trkpt lat="43.1618579" lon="11.4738042"><ele>178.0</ele><time>2026-04-20T14:33:12.401Z</time></trkpt><trkpt lat="43.1618855" lon="11.4738991"><ele>178.83333333333334</ele><time>2026-04-20T14:33:13.401Z</time></trkpt><trkpt lat="43.1619151" lon="11.4739971"><ele>179.66666666666669</ele><time>2026-04-20T14:33:14.401Z</time></trkpt><trkpt lat="43.1619344" lon="11.4740922"><ele>180.5</ele><time>2026-04-20T14:33:15.401Z</time></trkpt><trkpt lat="43.1619392" lon="11.4741872"><ele>181.33333333333334</ele><time>2026-04-20T14:33:16.401Z</time></trkpt><trkpt lat="43.1619285" lon="11.4742965"><ele>182.16666666666666</ele><time>2026-04-20T14:33:17.402Z</time></trkpt><trkpt lat="43.1619165" lon="11.4744101"><ele>183.0</ele><time>2026-04-20T14:33:18.401Z</time></trkpt><trkpt lat="43.1619225" lon="11.4745327"><ele>182.5</ele><time>2026-04-20T14:33:19.401Z</time></trkpt><trkpt lat="43.1619467" lon="11.4746441"><ele>182.0</ele><time>2026-04-20T14:33:20.401Z</time></trkpt><trkpt lat="43.1619908" lon="11.4747442"><ele>181.5</ele><time>2026-04-20T14:33:21.402Z</time></trkpt><trkpt lat="43.1620466" lon="11.4748285"><ele>181.0</ele><time>2026-04-20T14:33:22.401Z</time></trkpt><trkpt lat="43.1621128" lon="11.4748999"><ele>180.5</ele><time>2026-04-20T14:33:23.401Z</time></trkpt><trkpt lat="43.1621896" lon="11.4749634"><ele>180.0</ele><time>2026-04-20T14:33:24.401Z</time></trkpt><trkpt lat="43.1622741" lon="11.4750059"><ele>182.0</ele><time>2026-04-20T14:33:25.401Z</time></trkpt><trkpt lat="43.1623677" lon="11.4750218"><ele>184.0</ele><time>2026-04-20T14:33:26.401Z</time></trkpt><trkpt lat="43.162463" lon="11.4750171"><ele>186.0</ele><time>2026-04-20T14:33:27.402Z</time></trkpt><trkpt lat="43.1625523" lon="11.4750149"><ele>188.0</ele><time>2026-04-20T14:33:28.402Z</time></trkpt><trkpt lat="43.1626391" lon="11.4750335"><ele>190.0</ele><time>2026-04-20T14:33:29.402Z</time></trkpt><trkpt lat="43.162721" lon="11.4750726"><ele>190.0</ele><time>2026-04-20T14:33:30.403Z</time></trkpt><trkpt lat="43.1627926" lon="11.4751252"><ele>190.0</ele><time>2026-04-20T14:33:31.402Z</time></trkpt><trkpt lat="43.1628593" lon="11.4751851"><ele>190.0</ele><time>2026-04-20T14:33:32.402Z</time></trkpt><trkpt lat="43.162929" lon="11.4752358"><ele>190.0</ele><time>2026-04-20T14:33:33.402Z</time></trkpt><trkpt lat="43.1630109" lon="11.4752846"><ele>190.0</ele><time>2026-04-20T14:33:34.402Z</time></trkpt><trkpt lat="43.1630973" lon="11.4753248"><ele>190.0</ele><time>2026-04-20T14:33:35.403Z</time></trkpt><trkpt lat="43.1631841" lon="11.4753651"><ele>190.2</ele><time>2026-04-20T14:33:36.402Z</time></trkpt><trkpt lat="43.1632667" lon="11.4754083"><ele>190.4</ele><time>2026-04-20T14:33:37.402Z</time></trkpt><trkpt lat="43.1633505" lon="11.4754543"><ele>190.60000000000002</ele><time>2026-04-20T14:33:38.402Z</time></trkpt><trkpt lat="43.1634335" lon="11.475497"><ele>190.8</ele><time>2026-04-20T14:33:39.402Z</time></trkpt><trkpt lat="43.1635219" lon="11.4755392"><ele>191.0</ele><time>2026-04-20T14:33:40.402Z</time></trkpt><trkpt lat="43.1636085" lon="11.4755786"><ele>190.33333333333331</ele><time>2026-04-20T14:33:41.402Z</time></trkpt><trkpt lat="43.1636928" lon="11.4756152"><ele>189.66666666666666</ele><time>2026-04-20T14:33:42.403Z</time></trkpt><trkpt lat="43.1637706" lon="11.4756515"><ele>189.0</ele><time>2026-04-20T14:33:43.402Z</time></trkpt><trkpt lat="43.1638483" lon="11.4756935"><ele>188.33333333333334</ele><time>2026-04-20T14:33:44.402Z</time></trkpt><trkpt lat="43.163929" lon="11.4757387"><ele>187.66666666666669</ele><time>2026-04-20T14:33:45.402Z</time></trkpt><trkpt lat="43.1640057" lon="11.4757797"><ele>187.0</ele><time>2026-04-20T14:33:46.403Z</time></trkpt><trkpt lat="43.1640865" lon="11.4758199"><ele>187.0</ele><time>2026-04-20T14:33:47.402Z</time></trkpt><trkpt lat="43.1641701" lon="11.4758624"><ele>187.0</ele><time>2026-04-20T14:33:48.402Z</time></trkpt><trkpt lat="43.1642556" lon="11.4759121"><ele>187.0</ele><time>2026-04-20T14:33:49.402Z</time></trkpt><trkpt lat="43.1643408" lon="11.4759643"><ele>187.0</ele><time>2026-04-20T14:33:50.402Z</time></trkpt><trkpt lat="43.1644291" lon="11.4760158"><ele>187.0</ele><time>2026-04-20T14:33:51.402Z</time></trkpt><trkpt lat="43.164518" lon="11.4760639"><ele>187.0</ele><time>2026-04-20T14:33:52.403Z</time></trkpt><trkpt lat="43.1646083" lon="11.4761044"><ele>187.0</ele><time>2026-04-20T14:33:53.402Z</time></trkpt><trkpt lat="43.1646969" lon="11.4761324"><ele>187.0</ele><time>2026-04-20T14:33:54.402Z</time></trkpt><trkpt lat="43.1647822" lon="11.4761535"><ele>187.0</ele><time>2026-04-20T14:33:55.402Z</time></trkpt><trkpt lat="43.1648646" lon="11.4761758"><ele>187.0</ele><time>2026-04-20T14:33:56.402Z</time></trkpt><trkpt lat="43.1649474" lon="11.4762009"><ele>187.0</ele><time>2026-04-20T14:33:57.402Z</time></trkpt><trkpt lat="43.1650337" lon="11.4762312"><ele>187.0</ele><time>2026-04-20T14:33:58.402Z</time></trkpt><trkpt lat="43.1651188" lon="11.4762638"><ele>187.0</ele><time>2026-04-20T14:33:59.402Z</time></trkpt><trkpt lat="43.1652025" lon="11.4762926"><ele>187.0</ele><time>2026-04-20T14:34:00.402Z</time></trkpt><trkpt lat="43.1652851" lon="11.4763194"><ele>187.0</ele><time>2026-04-20T14:34:01.402Z</time></trkpt><trkpt lat="43.1653706" lon="11.47635"><ele>187.0</ele><time>2026-04-20T14:34:02.402Z</time></trkpt><trkpt lat="43.165459" lon="11.4763924"><ele>187.0</ele><time>2026-04-20T14:34:03.402Z</time></trkpt><trkpt lat="43.1655442" lon="11.4764459"><ele>186.39999999999998</ele><time>2026-04-20T14:34:04.403Z</time></trkpt><trkpt lat="43.1656325" lon="11.4765076"><ele>185.79999999999998</ele><time>2026-04-20T14:34:05.402Z</time></trkpt><trkpt lat="43.165713" lon="11.4765693"><ele>185.2</ele><time>2026-04-20T14:34:06.402Z</time></trkpt><trkpt lat="43.1657942" lon="11.4766278"><ele>184.6</ele><time>2026-04-20T14:34:07.402Z</time></trkpt><trkpt lat="43.1658784" lon="11.4766832"><ele>184.0</ele><time>2026-04-20T14:34:08.402Z</time></trkpt><trkpt lat="43.1659641" lon="11.476734"><ele>185.39999999999998</ele><time>2026-04-20T14:34:09.403Z</time></trkpt><trkpt lat="43.166047" lon="11.4767847"><ele>186.8</ele><time>2026-04-20T14:34:10.402Z</time></trkpt><trkpt lat="43.1661341" lon="11.4768412"><ele>188.2</ele><time>2026-04-20T14:34:11.402Z</time></trkpt><trkpt lat="43.1662204" lon="11.4768979"><ele>189.60000000000002</ele><time>2026-04-20T14:34:12.402Z</time></trkpt><trkpt lat="43.1663057" lon="11.4769591"><ele>191.0</ele><time>2026-04-20T14:34:13.403Z</time></trkpt><trkpt lat="43.1663903" lon="11.4770184"><ele>191.0</ele><time>2026-04-20T14:34:14.403Z</time></trkpt><trkpt lat="43.1664668" lon="11.477076"><ele>191.0</ele><time>2026-04-20T14:34:15.404Z</time></trkpt><trkpt lat="43.1665326" lon="11.4771313"><ele>191.0</ele><time>2026-04-20T14:34:16.402Z</time></trkpt><trkpt lat="43.1665953" lon="11.477189"><ele>191.0</ele><time>2026-04-20T14:34:17.402Z</time></trkpt><trkpt lat="43.166658" lon="11.4772559"><ele>191.0</ele><time>2026-04-20T14:34:18.403Z</time></trkpt><trkpt lat="43.1667235" lon="11.4773337"><ele>191.0</ele><time>2026-04-20T14:34:19.404Z</time></trkpt><trkpt lat="43.1667885" lon="11.4774108"><ele>191.33333333333331</ele><time>2026-04-20T14:34:20.403Z</time></trkpt><trkpt lat="43.1668507" lon="11.4774807"><ele>191.66666666666666</ele><time>2026-04-20T14:34:21.404Z</time></trkpt><trkpt lat="43.166908" lon="11.4775427"><ele>192.0</ele><time>2026-04-20T14:34:22.403Z</time></trkpt><trkpt lat="43.1669633" lon="11.4776003"><ele>192.33333333333331</ele><time>2026-04-20T14:34:23.403Z</time></trkpt><trkpt lat="43.1670274" lon="11.4776611"><ele>192.66666666666666</ele><time>2026-04-20T14:34:24.403Z</time></trkpt><trkpt lat="43.1671006" lon="11.4777215"><ele>193.0</ele><time>2026-04-20T14:34:25.403Z</time></trkpt><trkpt lat="43.1671816" lon="11.4777747"><ele>192.99999999999997</ele><time>2026-04-20T14:34:26.403Z</time></trkpt><trkpt lat="43.1672627" lon="11.4778143"><ele>193.0</ele><time>2026-04-20T14:34:27.403Z</time></trkpt><trkpt lat="43.167348" lon="11.4778426"><ele>193.0</ele><time>2026-04-20T14:34:28.403Z</time></trkpt><trkpt lat="43.1674305" lon="11.4778518"><ele>193.0</ele><time>2026-04-20T14:34:29.404Z</time></trkpt><trkpt lat="43.1675179" lon="11.4778494"><ele>192.99999999999997</ele><time>2026-04-20T14:34:30.403Z</time></trkpt><trkpt lat="43.1675999" lon="11.4778437"><ele>193.0</ele><time>2026-04-20T14:34:31.403Z</time></trkpt><trkpt lat="43.167685" lon="11.4778391"><ele>193.16666666666666</ele><time>2026-04-20T14:34:32.403Z</time></trkpt><trkpt lat="43.167771" lon="11.4778375"><ele>193.33333333333331</ele><time>2026-04-20T14:34:33.403Z</time></trkpt><trkpt lat="43.1678603" lon="11.4778356"><ele>193.5</ele><time>2026-04-20T14:34:34.403Z</time></trkpt><trkpt lat="43.1679467" lon="11.4778316"><ele>193.66666666666669</ele><time>2026-04-20T14:34:35.403Z</time></trkpt><trkpt lat="43.1680334" lon="11.4778284"><ele>193.83333333333334</ele><time>2026-04-20T14:34:36.403Z</time></trkpt><trkpt lat="43.1681243" lon="11.4778284"><ele>194.0</ele><time>2026-04-20T14:34:37.403Z</time></trkpt><trkpt lat="43.1682197" lon="11.4778336"><ele>194.39999999999998</ele><time>2026-04-20T14:34:38.403Z</time></trkpt><trkpt lat="43.168315" lon="11.4778451"><ele>194.8</ele><time>2026-04-20T14:34:39.404Z</time></trkpt><trkpt lat="43.1684073" lon="11.4778641"><ele>195.2</ele><time>2026-04-20T14:34:40.403Z</time></trkpt><trkpt lat="43.168496" lon="11.4778914"><ele>195.60000000000002</ele><time>2026-04-20T14:34:41.403Z</time></trkpt><trkpt lat="43.1685894" lon="11.4779183"><ele>196.0</ele><time>2026-04-20T14:34:42.403Z</time></trkpt><trkpt lat="43.168686" lon="11.4779391"><ele>196.0</ele><time>2026-04-20T14:34:43.403Z</time></trkpt><trkpt lat="43.1687841" lon="11.4779597"><ele>196.0</ele><time>2026-04-20T14:34:44.404Z</time></trkpt><trkpt lat="43.1688779" lon="11.4779791"><ele>196.0</ele><time>2026-04-20T14:34:45.403Z</time></trkpt><trkpt lat="43.1689679" lon="11.4780006"><ele>196.0</ele><time>2026-04-20T14:34:46.403Z</time></trkpt><trkpt lat="43.1690532" lon="11.4780256"><ele>196.0</ele><time>2026-04-20T14:34:47.403Z</time></trkpt><trkpt lat="43.1691361" lon="11.4780614"><ele>195.99999999999997</ele><time>2026-04-20T14:34:48.404Z</time></trkpt><trkpt lat="43.1692116" lon="11.4781063"><ele>196.0</ele><time>2026-04-20T14:34:49.403Z</time></trkpt><trkpt lat="43.1692811" lon="11.4781603"><ele>196.0</ele><time>2026-04-20T14:34:50.404Z</time></trkpt><trkpt lat="43.1693472" lon="11.4782248"><ele>196.0</ele><time>2026-04-20T14:34:51.403Z</time></trkpt><trkpt lat="43.1694054" lon="11.478301"><ele>195.99999999999997</ele><time>2026-04-20T14:34:52.403Z</time></trkpt><trkpt lat="43.1694548" lon="11.4783919"><ele>196.0</ele><time>2026-04-20T14:34:53.404Z</time></trkpt><trkpt lat="43.1694973" lon="11.4784937"><ele>196.0</ele><time>2026-04-20T14:34:54.403Z</time></trkpt><trkpt lat="43.1695385" lon="11.4786024"><ele>196.0</ele><time>2026-04-20T14:34:55.403Z</time></trkpt><trkpt lat="43.1695822" lon="11.478713"><ele>196.0</ele><time>2026-04-20T14:34:56.403Z</time></trkpt><trkpt lat="43.1696323" lon="11.4788226"><ele>196.0</ele><time>2026-04-20T14:34:57.403Z</time></trkpt><trkpt lat="43.1696859" lon="11.4789253"><ele>196.0</ele><time>2026-04-20T14:34:58.403Z</time></trkpt><trkpt lat="43.1697419" lon="11.4790227"><ele>196.83333333333331</ele><time>2026-04-20T14:34:59.403Z</time></trkpt><trkpt lat="43.1697976" lon="11.4791213"><ele>197.66666666666666</ele><time>2026-04-20T14:35:00.403Z</time></trkpt><trkpt lat="43.1698523" lon="11.4792139"><ele>198.5</ele><time>2026-04-20T14:35:01.403Z</time></trkpt><trkpt lat="43.1699105" lon="11.4792927"><ele>199.33333333333331</ele><time>2026-04-20T14:35:02.403Z</time></trkpt><trkpt lat="43.1699749" lon="11.4793539"><ele>200.16666666666666</ele><time>2026-04-20T14:35:03.403Z</time></trkpt><trkpt lat="43.170051" lon="11.4793999"><ele>201.0</ele><time>2026-04-20T14:35:04.404Z</time></trkpt><trkpt lat="43.1701339" lon="11.479438"><ele>201.0</ele><time>2026-04-20T14:35:05.403Z</time></trkpt><trkpt lat="43.170217" lon="11.4794714"><ele>201.0</ele><time>2026-04-20T14:35:06.404Z</time></trkpt><trkpt lat="43.170302" lon="11.4795012"><ele>201.0</ele><time>2026-04-20T14:35:07.403Z</time></trkpt><trkpt lat="43.1703919" lon="11.4795334"><ele>201.0</ele><time>2026-04-20T14:35:08.404Z</time></trkpt><trkpt lat="43.1704813" lon="11.4795684"><ele>201.0</ele><time>2026-04-20T14:35:09.404Z</time></trkpt><trkpt lat="43.1705707" lon="11.4796063"><ele>201.5</ele><time>2026-04-20T14:35:10.404Z</time></trkpt><trkpt lat="43.1706555" lon="11.4796523"><ele>202.0</ele><time>2026-04-20T14:35:11.404Z</time></trkpt><trkpt lat="43.1707321" lon="11.4797145"><ele>202.5</ele><time>2026-04-20T14:35:12.404Z</time></trkpt><trkpt lat="43.1707962" lon="11.4797845"><ele>203.0</ele><time>2026-04-20T14:35:13.404Z</time></trkpt><trkpt lat="43.1708559" lon="11.4798631"><ele>203.5</ele><time>2026-04-20T14:35:14.404Z</time></trkpt><trkpt lat="43.1709103" lon="11.4799539"><ele>204.0</ele><time>2026-04-20T14:35:15.404Z</time></trkpt><trkpt lat="43.1709562" lon="11.4800636"><ele>204.0</ele><time>2026-04-20T14:35:16.404Z</time></trkpt><trkpt lat="43.1709929" lon="11.4801869"><ele>204.0</ele><time>2026-04-20T14:35:17.405Z</time></trkpt><trkpt lat="43.1710203" lon="11.4803096"><ele>204.0</ele><time>2026-04-20T14:35:18.404Z</time></trkpt><trkpt lat="43.1710461" lon="11.4804318"><ele>204.0</ele><time>2026-04-20T14:35:19.404Z</time></trkpt><trkpt lat="43.1710708" lon="11.4805516"><ele>204.0</ele><time>2026-04-20T14:35:20.404Z</time></trkpt><trkpt lat="43.1710919" lon="11.4806719"><ele>203.83333333333334</ele><time>2026-04-20T14:35:21.404Z</time></trkpt><trkpt lat="43.1711114" lon="11.4807909"><ele>203.66666666666669</ele><time>2026-04-20T14:35:22.404Z</time></trkpt><trkpt lat="43.1711319" lon="11.4809111"><ele>203.5</ele><time>2026-04-20T14:35:23.404Z</time></trkpt><trkpt lat="43.1711521" lon="11.4810295"><ele>203.33333333333334</ele><time>2026-04-20T14:35:24.404Z</time></trkpt><trkpt lat="43.1711742" lon="11.4811484"><ele>203.16666666666669</ele><time>2026-04-20T14:35:25.404Z</time></trkpt><trkpt lat="43.1711954" lon="11.4812668"><ele>203.0</ele><time>2026-04-20T14:35:26.404Z</time></trkpt><trkpt lat="43.1712128" lon="11.481384"><ele>203.00000000000003</ele><time>2026-04-20T14:35:27.404Z</time></trkpt><trkpt lat="43.1712313" lon="11.4815021"><ele>203.0</ele><time>2026-04-20T14:35:28.404Z</time></trkpt><trkpt lat="43.1712491" lon="11.4816136"><ele>203.0</ele><time>2026-04-20T14:35:29.404Z</time></trkpt><trkpt lat="43.1712679" lon="11.4817309"><ele>203.0</ele><time>2026-04-20T14:35:30.404Z</time></trkpt><trkpt lat="43.1712877" lon="11.481854"><ele>203.00000000000003</ele><time>2026-04-20T14:35:31.405Z</time></trkpt><trkpt lat="43.171307" lon="11.4819747"><ele>203.0</ele><time>2026-04-20T14:35:32.405Z</time></trkpt><trkpt lat="43.1713297" lon="11.482089"><ele>202.00000000000003</ele><time>2026-04-20T14:35:33.404Z</time></trkpt><trkpt lat="43.1713554" lon="11.482199"><ele>201.0</ele><time>2026-04-20T14:35:34.404Z</time></trkpt><trkpt lat="43.1713867" lon="11.4823026"><ele>200.0</ele><time>2026-04-20T14:35:35.404Z</time></trkpt><trkpt lat="43.1714277" lon="11.4824026"><ele>199.0</ele><time>2026-04-20T14:35:36.404Z</time></trkpt><trkpt lat="43.1714779" lon="11.4825081"><ele>198.00000000000003</ele><time>2026-04-20T14:35:37.404Z</time></trkpt><trkpt lat="43.1715378" lon="11.4826292"><ele>197.0</ele><time>2026-04-20T14:35:38.405Z</time></trkpt><trkpt lat="43.1715931" lon="11.4827453"><ele>199.8</ele><time>2026-04-20T14:35:39.404Z</time></trkpt><trkpt lat="43.1716449" lon="11.4828572"><ele>202.6</ele><time>2026-04-20T14:35:40.405Z</time></trkpt><trkpt lat="43.1716942" lon="11.4829635"><ele>205.4</ele><time>2026-04-20T14:35:41.404Z</time></trkpt><trkpt lat="43.1717433" lon="11.4830652"><ele>208.20000000000002</ele><time>2026-04-20T14:35:42.405Z</time></trkpt><trkpt lat="43.1717965" lon="11.4831589"><ele>211.0</ele><time>2026-04-20T14:35:43.404Z</time></trkpt><trkpt lat="43.1718585" lon="11.483242"><ele>211.0</ele><time>2026-04-20T14:35:44.405Z</time></trkpt><trkpt lat="43.171931" lon="11.4833152"><ele>211.0</ele><time>2026-04-20T14:35:45.405Z</time></trkpt><trkpt lat="43.1720051" lon="11.4833823"><ele>211.0</ele><time>2026-04-20T14:35:46.404Z</time></trkpt><trkpt lat="43.1720806" lon="11.4834511"><ele>211.0</ele><time>2026-04-20T14:35:47.404Z</time></trkpt><trkpt lat="43.1721547" lon="11.4835269"><ele>211.0</ele><time>2026-04-20T14:35:48.404Z</time></trkpt><trkpt lat="43.172233" lon="11.4836088"><ele>210.99999999999997</ele><time>2026-04-20T14:35:49.404Z</time></trkpt><trkpt lat="43.172309" lon="11.4836867"><ele>211.0</ele><time>2026-04-20T14:35:50.404Z</time></trkpt><trkpt lat="43.1723748" lon="11.4837492"><ele>211.0</ele><time>2026-04-20T14:35:51.404Z</time></trkpt><trkpt lat="43.1724392" lon="11.4837987"><ele>211.0</ele><time>2026-04-20T14:35:52.404Z</time></trkpt><trkpt lat="43.1725057" lon="11.483839"><ele>210.99999999999997</ele><time>2026-04-20T14:35:53.404Z</time></trkpt><trkpt lat="43.1725746" lon="11.4838692"><ele>211.0</ele><time>2026-04-20T14:35:54.404Z</time></trkpt><trkpt lat="43.172644" lon="11.4839"><ele>213.33333333333331</ele><time>2026-04-20T14:35:55.404Z</time></trkpt><trkpt lat="43.1727532" lon="11.4839454"><ele>215.66666666666666</ele><time>2026-04-20T14:35:57.405Z</time></trkpt><trkpt lat="43.1728695" lon="11.483977"><ele>218.0</ele><time>2026-04-20T14:35:59.405Z</time></trkpt><trkpt lat="43.1729365" lon="11.4839994"><ele>220.33333333333331</ele><time>2026-04-20T14:36:00.406Z</time></trkpt><trkpt lat="43.1730012" lon="11.4840259"><ele>222.66666666666666</ele><time>2026-04-20T14:36:01.406Z</time></trkpt><trkpt lat="43.1730661" lon="11.4840503"><ele>225.0</ele><time>2026-04-20T14:36:02.405Z</time></trkpt><trkpt lat="43.1731344" lon="11.4840797"><ele>225.5714285714286</ele><time>2026-04-20T14:36:03.405Z</time></trkpt><trkpt lat="43.1732004" lon="11.4841016"><ele>226.14285714285717</ele><time>2026-04-20T14:36:04.405Z</time></trkpt><trkpt lat="43.173272" lon="11.4841252"><ele>226.71428571428572</ele><time>2026-04-20T14:36:05.405Z</time></trkpt><trkpt lat="43.1733435" lon="11.484144"><ele>227.2857142857143</ele><time>2026-04-20T14:36:06.405Z</time></trkpt><trkpt lat="43.1734192" lon="11.4841609"><ele>227.8571428571429</ele><time>2026-04-20T14:36:07.405Z</time></trkpt><trkpt lat="43.1734901" lon="11.4841796"><ele>228.42857142857142</ele><time>2026-04-20T14:36:08.405Z</time></trkpt><trkpt lat="43.1735667" lon="11.4841981"><ele>229.0</ele><time>2026-04-20T14:36:09.405Z</time></trkpt><trkpt lat="43.1736498" lon="11.4842234"><ele>229.0</ele><time>2026-04-20T14:36:10.405Z</time></trkpt><trkpt lat="43.1737433" lon="11.4842521"><ele>228.99999999999997</ele><time>2026-04-20T14:36:11.405Z</time></trkpt><trkpt lat="43.1738332" lon="11.4842839"><ele>228.99999999999997</ele><time>2026-04-20T14:36:12.405Z</time></trkpt><trkpt lat="43.173924" lon="11.4843176"><ele>229.0</ele><time>2026-04-20T14:36:13.405Z</time></trkpt><trkpt lat="43.1740173" lon="11.4843464"><ele>229.0</ele><time>2026-04-20T14:36:14.405Z</time></trkpt><trkpt lat="43.1741115" lon="11.4843783"><ele>229.0</ele><time>2026-04-20T14:36:15.405Z</time></trkpt><trkpt lat="43.1742037" lon="11.4844089"><ele>228.99999999999997</ele><time>2026-04-20T14:36:16.405Z</time></trkpt><trkpt lat="43.1742899" lon="11.4844289"><ele>228.99999999999997</ele><time>2026-04-20T14:36:17.405Z</time></trkpt><trkpt lat="43.1743796" lon="11.4844557"><ele>229.0</ele><time>2026-04-20T14:36:18.405Z</time></trkpt><trkpt lat="43.1744669" lon="11.4844846"><ele>229.0</ele><time>2026-04-20T14:36:19.405Z</time></trkpt><trkpt lat="43.1745538" lon="11.4845213"><ele>229.0</ele><time>2026-04-20T14:36:20.406Z</time></trkpt><trkpt lat="43.1746367" lon="11.4845652"><ele>228.99999999999997</ele><time>2026-04-20T14:36:21.405Z</time></trkpt><trkpt lat="43.1747172" lon="11.484621"><ele>228.99999999999997</ele><time>2026-04-20T14:36:22.405Z</time></trkpt><trkpt lat="43.1747986" lon="11.4846805"><ele>229.0</ele><time>2026-04-20T14:36:23.405Z</time></trkpt><trkpt lat="43.1748806" lon="11.4847358"><ele>229.0</ele><time>2026-04-20T14:36:24.405Z</time></trkpt><trkpt lat="43.1749634" lon="11.4847859"><ele>229.0</ele><time>2026-04-20T14:36:25.406Z</time></trkpt><trkpt lat="43.175049" lon="11.4848353"><ele>228.99999999999997</ele><time>2026-04-20T14:36:26.405Z</time></trkpt><trkpt lat="43.175131" lon="11.4848841"><ele>228.99999999999997</ele><time>2026-04-20T14:36:27.405Z</time></trkpt><trkpt lat="43.1752093" lon="11.4849343"><ele>229.0</ele><time>2026-04-20T14:36:28.405Z</time></trkpt><trkpt lat="43.1752768" lon="11.4849801"><ele>229.0</ele><time>2026-04-20T14:36:29.406Z</time></trkpt><trkpt lat="43.175375" lon="11.485042"><ele>228.99999999999997</ele><time>2026-04-20T14:36:31.405Z</time></trkpt><trkpt lat="43.1754487" lon="11.4850374"><ele>229.0</ele><time>2026-04-20T14:36:33.405Z</time></trkpt><trkpt lat="43.1755157" lon="11.4849387"><ele>229.0</ele><time>2026-04-20T14:36:35.405Z</time></trkpt><trkpt lat="43.1755578" lon="11.4848322"><ele>229.0</ele><time>2026-04-20T14:36:37.405Z</time></trkpt><trkpt lat="43.17561" lon="11.4847248"><ele>228.99999999999997</ele><time>2026-04-20T14:36:40.406Z</time></trkpt><trkpt lat="43.1756482" lon="11.4846479"><ele>229.0</ele><time>2026-04-20T14:36:42.405Z</time></trkpt><trkpt lat="43.175687" lon="11.4845773"><ele>229.0</ele><time>2026-04-20T14:36:44.405Z</time></trkpt><trkpt lat="43.1757421" lon="11.4844641"><ele>228.99999999999997</ele><time>2026-04-20T14:36:46.405Z</time></trkpt><trkpt lat="43.1757955" lon="11.4843346"><ele>228.99999999999997</ele><time>2026-04-20T14:36:48.406Z</time></trkpt><trkpt lat="43.1758396" lon="11.4841642"><ele>229.0</ele><time>2026-04-20T14:36:50.406Z</time></trkpt><trkpt lat="43.1758484" lon="11.4840638"><ele>229.0</ele><time>2026-04-20T14:36:51.406Z</time></trkpt><trkpt lat="43.1758455" lon="11.4839667"><ele>228.99999999999997</ele><time>2026-04-20T14:36:52.406Z</time></trkpt><trkpt lat="43.1758368" lon="11.483876"><ele>229.0</ele><time>2026-04-20T14:36:53.407Z</time></trkpt><trkpt lat="43.1758274" lon="11.4837866"><ele>229.0</ele><time>2026-04-20T14:36:54.406Z</time></trkpt><trkpt lat="43.1758185" lon="11.4836984"><ele>229.0</ele><time>2026-04-20T14:36:55.406Z</time></trkpt><trkpt lat="43.1758121" lon="11.4836056"><ele>228.99999999999997</ele><time>2026-04-20T14:36:56.406Z</time></trkpt><trkpt lat="43.1758037" lon="11.4835135"><ele>229.0</ele><time>2026-04-20T14:36:57.407Z</time></trkpt><trkpt lat="43.1757891" lon="11.4833428"><ele>227.39999999999998</ele><time>2026-04-20T14:36:59.406Z</time></trkpt><trkpt lat="43.1757749" lon="11.4831791"><ele>225.79999999999998</ele><time>2026-04-20T14:37:01.406Z</time></trkpt><trkpt lat="43.1757666" lon="11.4830283"><ele>224.20000000000002</ele><time>2026-04-20T14:37:03.406Z</time></trkpt><trkpt lat="43.1757561" lon="11.4829082"><ele>222.60000000000002</ele><time>2026-04-20T14:37:05.406Z</time></trkpt><trkpt lat="43.1757382" lon="11.4828035"><ele>221.0</ele><time>2026-04-20T14:37:07.406Z</time></trkpt><trkpt lat="43.1756956" lon="11.4827123"><ele>218.33333333333334</ele><time>2026-04-20T14:37:09.406Z</time></trkpt><trkpt lat="43.1756371" lon="11.4825977"><ele>215.66666666666669</ele><time>2026-04-20T14:37:11.406Z</time></trkpt><trkpt lat="43.1756138" lon="11.482447"><ele>213.0</ele><time>2026-04-20T14:37:13.406Z</time></trkpt><trkpt lat="43.1756233" lon="11.4823604"><ele>210.33333333333331</ele><time>2026-04-20T14:37:14.406Z</time></trkpt><trkpt lat="43.1756385" lon="11.4822731"><ele>207.66666666666666</ele><time>2026-04-20T14:37:15.407Z</time></trkpt><trkpt lat="43.1756555" lon="11.4821818"><ele>205.0</ele><time>2026-04-20T14:37:16.407Z</time></trkpt><trkpt lat="43.1756759" lon="11.4820827"><ele>205.33333333333331</ele><time>2026-04-20T14:37:17.406Z</time></trkpt><trkpt lat="43.1756894" lon="11.4819858"><ele>205.66666666666666</ele><time>2026-04-20T14:37:18.406Z</time></trkpt><trkpt lat="43.1757021" lon="11.4818934"><ele>206.0</ele><time>2026-04-20T14:37:19.406Z</time></trkpt><trkpt lat="43.1757241" lon="11.4818083"><ele>206.33333333333331</ele><time>2026-04-20T14:37:20.407Z</time></trkpt><trkpt lat="43.1757602" lon="11.4817372"><ele>206.66666666666666</ele><time>2026-04-20T14:37:21.406Z</time></trkpt><trkpt lat="43.1758632" lon="11.481641"><ele>207.0</ele><time>2026-04-20T14:37:23.406Z</time></trkpt><trkpt lat="43.1759246" lon="11.4815937"><ele>207.00000000000003</ele><time>2026-04-20T14:37:24.406Z</time></trkpt><trkpt lat="43.1759782" lon="11.4815365"><ele>207.0</ele><time>2026-04-20T14:37:25.406Z</time></trkpt><trkpt lat="43.1760241" lon="11.4814656"><ele>207.0</ele><time>2026-04-20T14:37:26.406Z</time></trkpt><trkpt lat="43.1760591" lon="11.4813819"><ele>207.0</ele><time>2026-04-20T14:37:27.406Z</time></trkpt><trkpt lat="43.1760856" lon="11.4812876"><ele>207.0</ele><time>2026-04-20T14:37:28.407Z</time></trkpt><trkpt lat="43.1761049" lon="11.4811892"><ele>207.00000000000003</ele><time>2026-04-20T14:37:29.407Z</time></trkpt><trkpt lat="43.1761211" lon="11.4810851"><ele>207.0</ele><time>2026-04-20T14:37:30.406Z</time></trkpt><trkpt lat="43.1761367" lon="11.4809766"><ele>205.5</ele><time>2026-04-20T14:37:31.406Z</time></trkpt><trkpt lat="43.1761495" lon="11.4808664"><ele>204.0</ele><time>2026-04-20T14:37:32.406Z</time></trkpt><trkpt lat="43.1761608" lon="11.4807569"><ele>202.5</ele><time>2026-04-20T14:37:33.407Z</time></trkpt><trkpt lat="43.1761693" lon="11.4806522"><ele>201.0</ele><time>2026-04-20T14:37:34.406Z</time></trkpt><trkpt lat="43.1761789" lon="11.4805498"><ele>199.5</ele><time>2026-04-20T14:37:35.407Z</time></trkpt><trkpt lat="43.1761899" lon="11.4804504"><ele>198.0</ele><time>2026-04-20T14:37:36.406Z</time></trkpt><trkpt lat="43.1762027" lon="11.4803579"><ele>197.16666666666666</ele><time>2026-04-20T14:37:37.407Z</time></trkpt><trkpt lat="43.1762194" lon="11.4802699"><ele>196.33333333333331</ele><time>2026-04-20T14:37:38.407Z</time></trkpt><trkpt lat="43.1762476" lon="11.4801877"><ele>195.5</ele><time>2026-04-20T14:37:39.407Z</time></trkpt><trkpt lat="43.1762918" lon="11.4801099"><ele>194.66666666666666</ele><time>2026-04-20T14:37:40.407Z</time></trkpt><trkpt lat="43.1763485" lon="11.4800366"><ele>193.83333333333331</ele><time>2026-04-20T14:37:41.407Z</time></trkpt><trkpt lat="43.1764141" lon="11.4799637"><ele>193.0</ele><time>2026-04-20T14:37:42.407Z</time></trkpt><trkpt lat="43.17648" lon="11.4798879"><ele>193.2857142857143</ele><time>2026-04-20T14:37:43.407Z</time></trkpt><trkpt lat="43.1765402" lon="11.4798093"><ele>193.57142857142858</ele><time>2026-04-20T14:37:44.407Z</time></trkpt><trkpt lat="43.1765906" lon="11.4797332"><ele>193.85714285714286</ele><time>2026-04-20T14:37:45.407Z</time></trkpt><trkpt lat="43.176633" lon="11.4796552"><ele>194.14285714285717</ele><time>2026-04-20T14:37:46.407Z</time></trkpt><trkpt lat="43.176671" lon="11.4795713"><ele>194.42857142857142</ele><time>2026-04-20T14:37:47.407Z</time></trkpt><trkpt lat="43.1766991" lon="11.4794845"><ele>194.71428571428572</ele><time>2026-04-20T14:37:48.407Z</time></trkpt><trkpt lat="43.1767177" lon="11.4793914"><ele>195.0</ele><time>2026-04-20T14:37:49.407Z</time></trkpt><trkpt lat="43.1767264" lon="11.479299"><ele>193.85714285714286</ele><time>2026-04-20T14:37:50.407Z</time></trkpt><trkpt lat="43.176726" lon="11.4792091"><ele>192.71428571428572</ele><time>2026-04-20T14:37:51.407Z</time></trkpt><trkpt lat="43.1767218" lon="11.4791191"><ele>191.57142857142856</ele><time>2026-04-20T14:37:52.408Z</time></trkpt><trkpt lat="43.1767129" lon="11.4790303"><ele>190.42857142857144</ele><time>2026-04-20T14:37:53.407Z</time></trkpt><trkpt lat="43.1766998" lon="11.4789406"><ele>189.2857142857143</ele><time>2026-04-20T14:37:54.407Z</time></trkpt><trkpt lat="43.1766855" lon="11.4788525"><ele>188.14285714285714</ele><time>2026-04-20T14:37:55.407Z</time></trkpt><trkpt lat="43.1766736" lon="11.4787583"><ele>187.0</ele><time>2026-04-20T14:37:56.407Z</time></trkpt><trkpt lat="43.1766661" lon="11.4786602"><ele>185.66666666666669</ele><time>2026-04-20T14:37:57.407Z</time></trkpt><trkpt lat="43.1766621" lon="11.4785577"><ele>184.33333333333334</ele><time>2026-04-20T14:37:58.408Z</time></trkpt><trkpt lat="43.1766626" lon="11.478451"><ele>183.0</ele><time>2026-04-20T14:37:59.407Z</time></trkpt><trkpt lat="43.1766679" lon="11.4783443"><ele>181.66666666666666</ele><time>2026-04-20T14:38:00.407Z</time></trkpt><trkpt lat="43.176679" lon="11.4782371"><ele>180.33333333333331</ele><time>2026-04-20T14:38:01.407Z</time></trkpt><trkpt lat="43.1766926" lon="11.4781323"><ele>179.0</ele><time>2026-04-20T14:38:02.407Z</time></trkpt><trkpt lat="43.1767089" lon="11.4780276"><ele>177.57142857142858</ele><time>2026-04-20T14:38:03.407Z</time></trkpt><trkpt lat="43.1767264" lon="11.4779281"><ele>176.14285714285714</ele><time>2026-04-20T14:38:04.407Z</time></trkpt><trkpt lat="43.1767464" lon="11.4778375"><ele>174.71428571428572</ele><time>2026-04-20T14:38:05.407Z</time></trkpt><trkpt lat="43.1767713" lon="11.4777524"><ele>173.28571428571428</ele><time>2026-04-20T14:38:06.407Z</time></trkpt><trkpt lat="43.1768059" lon="11.477675"><ele>171.85714285714286</ele><time>2026-04-20T14:38:07.408Z</time></trkpt><trkpt lat="43.1768541" lon="11.4776074"><ele>170.42857142857144</ele><time>2026-04-20T14:38:08.407Z</time></trkpt><trkpt lat="43.1769252" lon="11.4775475"><ele>169.0</ele><time>2026-04-20T14:38:09.407Z</time></trkpt><trkpt lat="43.1770251" lon="11.4775034"><ele>169.0</ele><time>2026-04-20T14:38:10.407Z</time></trkpt><trkpt lat="43.1771438" lon="11.4774751"><ele>169.0</ele><time>2026-04-20T14:38:11.408Z</time></trkpt><trkpt lat="43.1772718" lon="11.4774601"><ele>169.0</ele><time>2026-04-20T14:38:12.407Z</time></trkpt><trkpt lat="43.1773948" lon="11.4774478"><ele>169.0</ele><time>2026-04-20T14:38:13.408Z</time></trkpt><trkpt lat="43.177519" lon="11.4774339"><ele>167.0</ele><time>2026-04-20T14:38:14.407Z</time></trkpt><trkpt lat="43.1776426" lon="11.4774183"><ele>165.0</ele><time>2026-04-20T14:38:15.407Z</time></trkpt><trkpt lat="43.1777644" lon="11.4774014"><ele>163.0</ele><time>2026-04-20T14:38:16.407Z</time></trkpt><trkpt lat="43.1778859" lon="11.4773858"><ele>161.0</ele><time>2026-04-20T14:38:17.407Z</time></trkpt><trkpt lat="43.1780083" lon="11.4773712"><ele>161.0</ele><time>2026-04-20T14:38:18.407Z</time></trkpt><trkpt lat="43.1781306" lon="11.4773538"><ele>161.0</ele><time>2026-04-20T14:38:19.407Z</time></trkpt><trkpt lat="43.1782536" lon="11.4773332"><ele>161.0</ele><time>2026-04-20T14:38:20.408Z</time></trkpt><trkpt lat="43.1783746" lon="11.4773079"><ele>161.0</ele><time>2026-04-20T14:38:21.408Z</time></trkpt><trkpt lat="43.1784983" lon="11.4772794"><ele>160.0</ele><time>2026-04-20T14:38:22.407Z</time></trkpt><trkpt lat="43.1786251" lon="11.4772487"><ele>159.0</ele><time>2026-04-20T14:38:23.407Z</time></trkpt><trkpt lat="43.1787469" lon="11.477215"><ele>158.0</ele><time>2026-04-20T14:38:24.407Z</time></trkpt><trkpt lat="43.1788712" lon="11.4771818"><ele>157.0</ele><time>2026-04-20T14:38:25.408Z</time></trkpt><trkpt lat="43.1789955" lon="11.4771447"><ele>156.5</ele><time>2026-04-20T14:38:26.409Z</time></trkpt><trkpt lat="43.1791178" lon="11.4771097"><ele>156.0</ele><time>2026-04-20T14:38:27.407Z</time></trkpt><trkpt lat="43.1792359" lon="11.477083"><ele>155.5</ele><time>2026-04-20T14:38:28.407Z</time></trkpt><trkpt lat="43.1793586" lon="11.4770717"><ele>155.0</ele><time>2026-04-20T14:38:29.408Z</time></trkpt><trkpt lat="43.179484" lon="11.4770828"><ele>155.0</ele><time>2026-04-20T14:38:30.409Z</time></trkpt><trkpt lat="43.1796091" lon="11.4771148"><ele>155.0</ele><time>2026-04-20T14:38:31.408Z</time></trkpt><trkpt lat="43.1797324" lon="11.4771546"><ele>155.0</ele><time>2026-04-20T14:38:32.408Z</time></trkpt><trkpt lat="43.179855" lon="11.4771973"><ele>155.0</ele><time>2026-04-20T14:38:33.408Z</time></trkpt><trkpt lat="43.1799735" lon="11.4772336"><ele>155.0</ele><time>2026-04-20T14:38:34.408Z</time></trkpt><trkpt lat="43.1800847" lon="11.4772604"><ele>155.0</ele><time>2026-04-20T14:38:35.409Z</time></trkpt><trkpt lat="43.1801935" lon="11.4772893"><ele>155.0</ele><time>2026-04-20T14:38:36.408Z</time></trkpt><trkpt lat="43.1803062" lon="11.4773216"><ele>155.0</ele><time>2026-04-20T14:38:37.408Z</time></trkpt><trkpt lat="43.1804187" lon="11.4773497"><ele>155.0</ele><time>2026-04-20T14:38:38.408Z</time></trkpt><trkpt lat="43.1805309" lon="11.4773746"><ele>155.0</ele><time>2026-04-20T14:38:39.409Z</time></trkpt><trkpt lat="43.1806484" lon="11.477396"><ele>155.0</ele><time>2026-04-20T14:38:40.408Z</time></trkpt><trkpt lat="43.1807727" lon="11.4774183"><ele>155.0</ele><time>2026-04-20T14:38:41.408Z</time></trkpt><trkpt lat="43.1808998" lon="11.4774475"><ele>155.25</ele><time>2026-04-20T14:38:42.408Z</time></trkpt><trkpt lat="43.1810235" lon="11.4774829"><ele>155.5</ele><time>2026-04-20T14:38:43.408Z</time></trkpt><trkpt lat="43.1811371" lon="11.4775165"><ele>155.75</ele><time>2026-04-20T14:38:44.408Z</time></trkpt><trkpt lat="43.1812432" lon="11.4775455"><ele>156.0</ele><time>2026-04-20T14:38:45.408Z</time></trkpt><trkpt lat="43.1813527" lon="11.4775751"><ele>156.0</ele><time>2026-04-20T14:38:46.408Z</time></trkpt><trkpt lat="43.1814632" lon="11.4776053"><ele>156.0</ele><time>2026-04-20T14:38:47.408Z</time></trkpt><trkpt lat="43.1815687" lon="11.4776334"><ele>156.0</ele><time>2026-04-20T14:38:48.408Z</time></trkpt><trkpt lat="43.1816748" lon="11.4776615"><ele>156.0</ele><time>2026-04-20T14:38:49.408Z</time></trkpt><trkpt lat="43.1817801" lon="11.4776899"><ele>156.0</ele><time>2026-04-20T14:38:50.409Z</time></trkpt><trkpt lat="43.1818821" lon="11.4777176"><ele>156.0</ele><time>2026-04-20T14:38:51.408Z</time></trkpt><trkpt lat="43.1819802" lon="11.477747"><ele>156.0</ele><time>2026-04-20T14:38:52.408Z</time></trkpt><trkpt lat="43.1820722" lon="11.4777815"><ele>156.0</ele><time>2026-04-20T14:38:53.408Z</time></trkpt><trkpt lat="43.1821566" lon="11.4778115"><ele>156.0</ele><time>2026-04-20T14:38:54.409Z</time></trkpt><trkpt lat="43.1822413" lon="11.4778379"><ele>156.0</ele><time>2026-04-20T14:38:55.408Z</time></trkpt><trkpt lat="43.1823205" lon="11.4778505"><ele>155.8</ele><time>2026-04-20T14:38:56.408Z</time></trkpt><trkpt lat="43.1823984" lon="11.477841"><ele>155.6</ele><time>2026-04-20T14:38:57.409Z</time></trkpt><trkpt lat="43.1824825" lon="11.4778038"><ele>155.4</ele><time>2026-04-20T14:38:58.408Z</time></trkpt><trkpt lat="43.182568" lon="11.4777413"><ele>155.2</ele><time>2026-04-20T14:38:59.408Z</time></trkpt><trkpt lat="43.1826499" lon="11.477662"><ele>155.0</ele><time>2026-04-20T14:39:00.408Z</time></trkpt><trkpt lat="43.1827343" lon="11.4775814"><ele>155.0</ele><time>2026-04-20T14:39:01.408Z</time></trkpt><trkpt lat="43.1828228" lon="11.4775004"><ele>155.0</ele><time>2026-04-20T14:39:02.408Z</time></trkpt><trkpt lat="43.182916" lon="11.4774182"><ele>155.0</ele><time>2026-04-20T14:39:03.408Z</time></trkpt><trkpt lat="43.1830121" lon="11.4773398"><ele>155.0</ele><time>2026-04-20T14:39:04.408Z</time></trkpt><trkpt lat="43.1831058" lon="11.4772676"><ele>155.0</ele><time>2026-04-20T14:39:05.408Z</time></trkpt><trkpt lat="43.1832016" lon="11.4771911"><ele>154.75</ele><time>2026-04-20T14:39:06.408Z</time></trkpt><trkpt lat="43.1832996" lon="11.4771086"><ele>154.5</ele><time>2026-04-20T14:39:07.408Z</time></trkpt><trkpt lat="43.1833958" lon="11.4770228"><ele>154.25</ele><time>2026-04-20T14:39:08.409Z</time></trkpt><trkpt lat="43.1834922" lon="11.4769415"><ele>154.0</ele><time>2026-04-20T14:39:09.408Z</time></trkpt><trkpt lat="43.1835902" lon="11.4768631"><ele>153.75</ele><time>2026-04-20T14:39:10.408Z</time></trkpt><trkpt lat="43.1836888" lon="11.4767864"><ele>153.5</ele><time>2026-04-20T14:39:11.408Z</time></trkpt><trkpt lat="43.1837881" lon="11.4767066"><ele>153.25</ele><time>2026-04-20T14:39:12.408Z</time></trkpt><trkpt lat="43.1838878" lon="11.4766247"><ele>153.0</ele><time>2026-04-20T14:39:13.408Z</time></trkpt><trkpt lat="43.1839859" lon="11.4765505"><ele>153.20000000000002</ele><time>2026-04-20T14:39:14.408Z</time></trkpt><trkpt lat="43.1840823" lon="11.4764769"><ele>153.4</ele><time>2026-04-20T14:39:15.41Z</time></trkpt><trkpt lat="43.184177" lon="11.4763985"><ele>153.60000000000002</ele><time>2026-04-20T14:39:16.41Z</time></trkpt><trkpt lat="43.1842695" lon="11.4763222"><ele>153.8</ele><time>2026-04-20T14:39:17.409Z</time></trkpt><trkpt lat="43.1843608" lon="11.4762486"><ele>154.0</ele><time>2026-04-20T14:39:18.409Z</time></trkpt><trkpt lat="43.1844539" lon="11.4761747"><ele>154.0</ele><time>2026-04-20T14:39:19.409Z</time></trkpt><trkpt lat="43.1845472" lon="11.4761014"><ele>154.0</ele><time>2026-04-20T14:39:20.409Z</time></trkpt><trkpt lat="43.1846411" lon="11.4760275"><ele>154.0</ele><time>2026-04-20T14:39:21.409Z</time></trkpt><trkpt lat="43.1847345" lon="11.4759476"><ele>154.0</ele><time>2026-04-20T14:39:22.41Z</time></trkpt><trkpt lat="43.1848252" lon="11.4758677"><ele>154.0</ele><time>2026-04-20T14:39:23.409Z</time></trkpt><trkpt lat="43.1849171" lon="11.4757912"><ele>154.0</ele><time>2026-04-20T14:39:24.409Z</time></trkpt><trkpt lat="43.1850109" lon="11.4757162"><ele>154.0</ele><time>2026-04-20T14:39:25.409Z</time></trkpt><trkpt lat="43.1851046" lon="11.4756405"><ele>154.0</ele><time>2026-04-20T14:39:26.41Z</time></trkpt><trkpt lat="43.1851977" lon="11.475562"><ele>154.0</ele><time>2026-04-20T14:39:27.409Z</time></trkpt><trkpt lat="43.1852895" lon="11.4754848"><ele>154.0</ele><time>2026-04-20T14:39:28.41Z</time></trkpt><trkpt lat="43.1853837" lon="11.4754086"><ele>154.0</ele><time>2026-04-20T14:39:29.409Z</time></trkpt><trkpt lat="43.1854809" lon="11.4753301"><ele>154.0</ele><time>2026-04-20T14:39:30.41Z</time></trkpt><trkpt lat="43.185579" lon="11.475247"><ele>154.0</ele><time>2026-04-20T14:39:31.409Z</time></trkpt><trkpt lat="43.1856779" lon="11.4751591"><ele>154.0</ele><time>2026-04-20T14:39:32.41Z</time></trkpt><trkpt lat="43.1857761" lon="11.4750752"><ele>154.0</ele><time>2026-04-20T14:39:33.409Z</time></trkpt><trkpt lat="43.1858746" lon="11.4749992"><ele>154.0</ele><time>2026-04-20T14:39:34.409Z</time></trkpt><trkpt lat="43.1859719" lon="11.4749344"><ele>154.0</ele><time>2026-04-20T14:39:35.409Z</time></trkpt><trkpt lat="43.1860676" lon="11.4748821"><ele>154.0</ele><time>2026-04-20T14:39:36.41Z</time></trkpt><trkpt lat="43.1861612" lon="11.474845"><ele>154.0</ele><time>2026-04-20T14:39:37.409Z</time></trkpt><trkpt lat="43.1862553" lon="11.474825"><ele>154.0</ele><time>2026-04-20T14:39:38.409Z</time></trkpt><trkpt lat="43.1863511" lon="11.4748226"><ele>154.0</ele><time>2026-04-20T14:39:39.409Z</time></trkpt><trkpt lat="43.1864559" lon="11.4748328"><ele>154.0</ele><time>2026-04-20T14:39:40.409Z</time></trkpt><trkpt lat="43.1865672" lon="11.4748398"><ele>154.0</ele><time>2026-04-20T14:39:41.409Z</time></trkpt><trkpt lat="43.186684" lon="11.4748374"><ele>154.0</ele><time>2026-04-20T14:39:42.409Z</time></trkpt><trkpt lat="43.1867963" lon="11.4748203"><ele>154.16666666666669</ele><time>2026-04-20T14:39:43.409Z</time></trkpt><trkpt lat="43.1868922" lon="11.4748006"><ele>154.33333333333334</ele><time>2026-04-20T14:39:44.409Z</time></trkpt><trkpt lat="43.1869754" lon="11.4747831"><ele>154.5</ele><time>2026-04-20T14:39:45.409Z</time></trkpt><trkpt lat="43.187054" lon="11.4747706"><ele>154.66666666666666</ele><time>2026-04-20T14:39:46.41Z</time></trkpt><trkpt lat="43.1871354" lon="11.4747659"><ele>154.83333333333331</ele><time>2026-04-20T14:39:47.41Z</time></trkpt><trkpt lat="43.1872113" lon="11.4747682"><ele>155.0</ele><time>2026-04-20T14:39:48.409Z</time></trkpt><trkpt lat="43.1872741" lon="11.474779"><ele>155.66666666666666</ele><time>2026-04-20T14:39:49.409Z</time></trkpt><trkpt lat="43.1873782" lon="11.4748269"><ele>156.33333333333331</ele><time>2026-04-20T14:39:51.409Z</time></trkpt><trkpt lat="43.1874388" lon="11.4748672"><ele>157.0</ele><time>2026-04-20T14:39:52.409Z</time></trkpt><trkpt lat="43.1875054" lon="11.4749131"><ele>157.66666666666666</ele><time>2026-04-20T14:39:53.409Z</time></trkpt><trkpt lat="43.1875732" lon="11.4749623"><ele>158.33333333333334</ele><time>2026-04-20T14:39:54.409Z</time></trkpt><trkpt lat="43.1876329" lon="11.4750011"><ele>159.0</ele><time>2026-04-20T14:39:55.409Z</time></trkpt><trkpt lat="43.1877355" lon="11.4750218"><ele>159.0</ele><time>2026-04-20T14:39:57.409Z</time></trkpt><trkpt lat="43.1878179" lon="11.4749879"><ele>159.0</ele><time>2026-04-20T14:39:59.409Z</time></trkpt><trkpt lat="43.1878903" lon="11.4748931"><ele>159.0</ele><time>2026-04-20T14:40:01.409Z</time></trkpt><trkpt lat="43.1879395" lon="11.4747477"><ele>159.0</ele><time>2026-04-20T14:40:03.41Z</time></trkpt><trkpt lat="43.1879556" lon="11.4746531"><ele>159.0</ele><time>2026-04-20T14:40:04.409Z</time></trkpt><trkpt lat="43.1879754" lon="11.4745588"><ele>159.0</ele><time>2026-04-20T14:40:05.409Z</time></trkpt><trkpt lat="43.1880072" lon="11.4744625"><ele>159.0</ele><time>2026-04-20T14:40:06.41Z</time></trkpt><trkpt lat="43.1880487" lon="11.4743774"><ele>159.0</ele><time>2026-04-20T14:40:07.41Z</time></trkpt><trkpt lat="43.1881056" lon="11.4743075"><ele>159.0</ele><time>2026-04-20T14:40:08.411Z</time></trkpt><trkpt lat="43.1881802" lon="11.4742537"><ele>159.0</ele><time>2026-04-20T14:40:09.41Z</time></trkpt><trkpt lat="43.1882635" lon="11.4742052"><ele>159.0</ele><time>2026-04-20T14:40:10.41Z</time></trkpt><trkpt lat="43.1883447" lon="11.4741465"><ele>159.0</ele><time>2026-04-20T14:40:11.41Z</time></trkpt><trkpt lat="43.1884145" lon="11.4740662"><ele>160.0</ele><time>2026-04-20T14:40:12.411Z</time></trkpt><trkpt lat="43.1884734" lon="11.4739738"><ele>161.0</ele><time>2026-04-20T14:40:13.41Z</time></trkpt><trkpt lat="43.1885162" lon="11.4738795"><ele>162.0</ele><time>2026-04-20T14:40:14.411Z</time></trkpt><trkpt lat="43.1885509" lon="11.4737763"><ele>163.0</ele><time>2026-04-20T14:40:15.41Z</time></trkpt><trkpt lat="43.1885844" lon="11.4736677"><ele>164.0</ele><time>2026-04-20T14:40:16.41Z</time></trkpt><trkpt lat="43.1886185" lon="11.4735551"><ele>165.0</ele><time>2026-04-20T14:40:17.41Z</time></trkpt><trkpt lat="43.1886543" lon="11.4734451"><ele>165.0</ele><time>2026-04-20T14:40:18.41Z</time></trkpt><trkpt lat="43.1886885" lon="11.473345"><ele>165.0</ele><time>2026-04-20T14:40:19.411Z</time></trkpt><trkpt lat="43.1887252" lon="11.4732471"><ele>165.0</ele><time>2026-04-20T14:40:20.411Z</time></trkpt><trkpt lat="43.1887681" lon="11.4731393"><ele>165.0</ele><time>2026-04-20T14:40:21.41Z</time></trkpt><trkpt lat="43.18882" lon="11.4730196"><ele>165.0</ele><time>2026-04-20T14:40:22.411Z</time></trkpt><trkpt lat="43.1888777" lon="11.4728933"><ele>164.2</ele><time>2026-04-20T14:40:23.41Z</time></trkpt><trkpt lat="43.1889341" lon="11.4727653"><ele>163.4</ele><time>2026-04-20T14:40:24.41Z</time></trkpt><trkpt lat="43.188981" lon="11.4726302"><ele>162.60000000000002</ele><time>2026-04-20T14:40:25.41Z</time></trkpt><trkpt lat="43.1890149" lon="11.4724841"><ele>161.8</ele><time>2026-04-20T14:40:26.41Z</time></trkpt><trkpt lat="43.189049" lon="11.4723398"><ele>161.0</ele><time>2026-04-20T14:40:27.41Z</time></trkpt><trkpt lat="43.1890825" lon="11.4722064"><ele>162.20000000000002</ele><time>2026-04-20T14:40:28.41Z</time></trkpt><trkpt lat="43.1891188" lon="11.47208"><ele>163.4</ele><time>2026-04-20T14:40:29.41Z</time></trkpt><trkpt lat="43.1891541" lon="11.4719579"><ele>164.6</ele><time>2026-04-20T14:40:30.41Z</time></trkpt><trkpt lat="43.189193" lon="11.4718417"><ele>165.8</ele><time>2026-04-20T14:40:31.41Z</time></trkpt><trkpt lat="43.1892431" lon="11.4717277"><ele>167.0</ele><time>2026-04-20T14:40:32.41Z</time></trkpt><trkpt lat="43.1893071" lon="11.4716154"><ele>167.0</ele><time>2026-04-20T14:40:33.41Z</time></trkpt><trkpt lat="43.189383" lon="11.4715111"><ele>167.0</ele><time>2026-04-20T14:40:34.41Z</time></trkpt><trkpt lat="43.1894617" lon="11.4714212"><ele>167.0</ele><time>2026-04-20T14:40:35.41Z</time></trkpt><trkpt lat="43.1895474" lon="11.4713464"><ele>167.0</ele><time>2026-04-20T14:40:36.41Z</time></trkpt><trkpt lat="43.1896409" lon="11.4712766"><ele>167.0</ele><time>2026-04-20T14:40:37.41Z</time></trkpt><trkpt lat="43.1897374" lon="11.4712188"><ele>166.6</ele><time>2026-04-20T14:40:38.41Z</time></trkpt><trkpt lat="43.1898338" lon="11.4711659"><ele>166.2</ele><time>2026-04-20T14:40:39.41Z</time></trkpt><trkpt lat="43.1899266" lon="11.4711188"><ele>165.8</ele><time>2026-04-20T14:40:40.411Z</time></trkpt><trkpt lat="43.1900131" lon="11.471071"><ele>165.4</ele><time>2026-04-20T14:40:41.41Z</time></trkpt><trkpt lat="43.1900989" lon="11.4710205"><ele>165.0</ele><time>2026-04-20T14:40:42.411Z</time></trkpt><trkpt lat="43.190183" lon="11.4709546"><ele>165.0</ele><time>2026-04-20T14:40:43.41Z</time></trkpt><trkpt lat="43.1902638" lon="11.4708686"><ele>165.0</ele><time>2026-04-20T14:40:44.411Z</time></trkpt><trkpt lat="43.1903435" lon="11.4707705"><ele>165.0</ele><time>2026-04-20T14:40:45.41Z</time></trkpt><trkpt lat="43.1904225" lon="11.4706755"><ele>165.0</ele><time>2026-04-20T14:40:46.41Z</time></trkpt><trkpt lat="43.1904958" lon="11.4705848"><ele>165.0</ele><time>2026-04-20T14:40:47.41Z</time></trkpt><trkpt lat="43.1905627" lon="11.4705026"><ele>164.5</ele><time>2026-04-20T14:40:48.411Z</time></trkpt><trkpt lat="43.1906228" lon="11.4704285"><ele>164.0</ele><time>2026-04-20T14:40:49.41Z</time></trkpt><trkpt lat="43.190683" lon="11.4703528"><ele>163.5</ele><time>2026-04-20T14:40:50.41Z</time></trkpt><trkpt lat="43.1907454" lon="11.4702664"><ele>163.0</ele><time>2026-04-20T14:40:51.41Z</time></trkpt><trkpt lat="43.1908085" lon="11.4701663"><ele>162.5</ele><time>2026-04-20T14:40:52.41Z</time></trkpt><trkpt lat="43.1908659" lon="11.4700627"><ele>162.0</ele><time>2026-04-20T14:40:53.41Z</time></trkpt><trkpt lat="43.1909159" lon="11.4699585"><ele>162.0</ele><time>2026-04-20T14:40:54.41Z</time></trkpt><trkpt lat="43.1909631" lon="11.4698487"><ele>162.0</ele><time>2026-04-20T14:40:55.411Z</time></trkpt><trkpt lat="43.191006" lon="11.4697368"><ele>162.0</ele><time>2026-04-20T14:40:56.411Z</time></trkpt><trkpt lat="43.1910485" lon="11.4696308"><ele>162.0</ele><time>2026-04-20T14:40:57.41Z</time></trkpt><trkpt lat="43.19109" lon="11.4695227"><ele>162.0</ele><time>2026-04-20T14:40:58.41Z</time></trkpt><trkpt lat="43.1911331" lon="11.4694077"><ele>161.0</ele><time>2026-04-20T14:40:59.411Z</time></trkpt><trkpt lat="43.191176" lon="11.4692929"><ele>160.0</ele><time>2026-04-20T14:41:00.411Z</time></trkpt><trkpt lat="43.1912215" lon="11.4691861"><ele>159.0</ele><time>2026-04-20T14:41:01.411Z</time></trkpt><trkpt lat="43.1912749" lon="11.4690901"><ele>158.0</ele><time>2026-04-20T14:41:02.411Z</time></trkpt><trkpt lat="43.1913401" lon="11.4690089"><ele>157.0</ele><time>2026-04-20T14:41:03.412Z</time></trkpt><trkpt lat="43.1914159" lon="11.4689328"><ele>157.0</ele><time>2026-04-20T14:41:04.411Z</time></trkpt><trkpt lat="43.1914997" lon="11.4688513"><ele>157.0</ele><time>2026-04-20T14:41:05.411Z</time></trkpt><trkpt lat="43.1915826" lon="11.468775"><ele>157.0</ele><time>2026-04-20T14:41:06.411Z</time></trkpt><trkpt lat="43.1916593" lon="11.4687064"><ele>157.0</ele><time>2026-04-20T14:41:07.412Z</time></trkpt><trkpt lat="43.1917324" lon="11.4686382"><ele>157.0</ele><time>2026-04-20T14:41:08.411Z</time></trkpt><trkpt lat="43.191806" lon="11.4685727"><ele>157.4</ele><time>2026-04-20T14:41:09.411Z</time></trkpt><trkpt lat="43.1918833" lon="11.4685062"><ele>157.79999999999998</ele><time>2026-04-20T14:41:10.411Z</time></trkpt><trkpt lat="43.1919602" lon="11.468436"><ele>158.2</ele><time>2026-04-20T14:41:11.411Z</time></trkpt><trkpt lat="43.1920366" lon="11.4683648"><ele>158.6</ele><time>2026-04-20T14:41:12.411Z</time></trkpt><trkpt lat="43.1921168" lon="11.4682885"><ele>159.0</ele><time>2026-04-20T14:41:13.412Z</time></trkpt><trkpt lat="43.1921985" lon="11.4682086"><ele>159.0</ele><time>2026-04-20T14:41:14.412Z</time></trkpt><trkpt lat="43.1922846" lon="11.4681222"><ele>159.0</ele><time>2026-04-20T14:41:15.411Z</time></trkpt><trkpt lat="43.1923698" lon="11.4680368"><ele>159.0</ele><time>2026-04-20T14:41:16.411Z</time></trkpt><trkpt lat="43.19246" lon="11.4679463"><ele>159.0</ele><time>2026-04-20T14:41:17.411Z</time></trkpt><trkpt lat="43.1925488" lon="11.4678605"><ele>159.0</ele><time>2026-04-20T14:41:18.411Z</time></trkpt><trkpt lat="43.1926355" lon="11.4677745"><ele>158.4</ele><time>2026-04-20T14:41:19.411Z</time></trkpt><trkpt lat="43.1927213" lon="11.4676873"><ele>157.8</ele><time>2026-04-20T14:41:20.411Z</time></trkpt><trkpt lat="43.1928081" lon="11.4675993"><ele>157.2</ele><time>2026-04-20T14:41:21.411Z</time></trkpt><trkpt lat="43.1928982" lon="11.467509"><ele>156.6</ele><time>2026-04-20T14:41:22.412Z</time></trkpt><trkpt lat="43.1929871" lon="11.4674268"><ele>156.0</ele><time>2026-04-20T14:41:23.411Z</time></trkpt><trkpt lat="43.1930764" lon="11.4673461"><ele>156.0</ele><time>2026-04-20T14:41:24.411Z</time></trkpt><trkpt lat="43.1931657" lon="11.467262"><ele>156.0</ele><time>2026-04-20T14:41:25.411Z</time></trkpt><trkpt lat="43.1932503" lon="11.4671805"><ele>156.0</ele><time>2026-04-20T14:41:26.411Z</time></trkpt><trkpt lat="43.1933305" lon="11.4671016"><ele>156.0</ele><time>2026-04-20T14:41:27.411Z</time></trkpt><trkpt lat="43.1934095" lon="11.4670265"><ele>156.0</ele><time>2026-04-20T14:41:28.411Z</time></trkpt><trkpt lat="43.1934929" lon="11.4669461"><ele>156.0</ele><time>2026-04-20T14:41:29.411Z</time></trkpt><trkpt lat="43.193578" lon="11.4668657"><ele>156.0</ele><time>2026-04-20T14:41:30.411Z</time></trkpt><trkpt lat="43.1936648" lon="11.4667874"><ele>156.0</ele><time>2026-04-20T14:41:31.411Z</time></trkpt><trkpt lat="43.1937506" lon="11.4667101"><ele>156.0</ele><time>2026-04-20T14:41:32.411Z</time></trkpt><trkpt lat="43.193836" lon="11.4666346"><ele>156.0</ele><time>2026-04-20T14:41:33.411Z</time></trkpt><trkpt lat="43.193924" lon="11.4665583"><ele>156.2</ele><time>2026-04-20T14:41:34.411Z</time></trkpt><trkpt lat="43.1940145" lon="11.466477"><ele>156.39999999999998</ele><time>2026-04-20T14:41:35.411Z</time></trkpt><trkpt lat="43.1941082" lon="11.4663909"><ele>156.6</ele><time>2026-04-20T14:41:36.411Z</time></trkpt><trkpt lat="43.1942019" lon="11.4663058"><ele>156.79999999999998</ele><time>2026-04-20T14:41:37.411Z</time></trkpt><trkpt lat="43.1942949" lon="11.4662115"><ele>157.0</ele><time>2026-04-20T14:41:38.411Z</time></trkpt><trkpt lat="43.1943838" lon="11.4661183"><ele>156.66666666666669</ele><time>2026-04-20T14:41:39.411Z</time></trkpt><trkpt lat="43.1944655" lon="11.4660356"><ele>156.33333333333334</ele><time>2026-04-20T14:41:40.411Z</time></trkpt><trkpt lat="43.1945338" lon="11.4659694"><ele>156.0</ele><time>2026-04-20T14:41:41.411Z</time></trkpt><trkpt lat="43.1945937" lon="11.4659133"><ele>155.66666666666666</ele><time>2026-04-20T14:41:42.412Z</time></trkpt><trkpt lat="43.1946493" lon="11.4658617"><ele>155.33333333333331</ele><time>2026-04-20T14:41:43.411Z</time></trkpt><trkpt lat="43.194705" lon="11.4658089"><ele>155.0</ele><time>2026-04-20T14:41:44.411Z</time></trkpt><trkpt lat="43.1947956" lon="11.4657251"><ele>155.0</ele><time>2026-04-20T14:41:46.412Z</time></trkpt><trkpt lat="43.1948736" lon="11.4657015"><ele>155.0</ele><time>2026-04-20T14:41:48.412Z</time></trkpt><trkpt lat="43.194949" lon="11.4657633"><ele>155.0</ele><time>2026-04-20T14:41:50.413Z</time></trkpt><trkpt lat="43.1950028" lon="11.4658834"><ele>155.0</ele><time>2026-04-20T14:41:52.412Z</time></trkpt><trkpt lat="43.1950707" lon="11.46601"><ele>155.0</ele><time>2026-04-20T14:41:54.412Z</time></trkpt><trkpt lat="43.1951235" lon="11.4660802"><ele>155.0</ele><time>2026-04-20T14:41:55.412Z</time></trkpt><trkpt lat="43.195179" lon="11.4661477"><ele>155.0</ele><time>2026-04-20T14:41:56.412Z</time></trkpt><trkpt lat="43.1952357" lon="11.4662199"><ele>155.0</ele><time>2026-04-20T14:41:57.412Z</time></trkpt><trkpt lat="43.1952902" lon="11.4662995"><ele>155.0</ele><time>2026-04-20T14:41:58.412Z</time></trkpt><trkpt lat="43.1953403" lon="11.4663873"><ele>155.0</ele><time>2026-04-20T14:41:59.412Z</time></trkpt><trkpt lat="43.1953827" lon="11.4664834"><ele>155.0</ele><time>2026-04-20T14:42:00.412Z</time></trkpt><trkpt lat="43.1954139" lon="11.4665934"><ele>155.5</ele><time>2026-04-20T14:42:01.412Z</time></trkpt><trkpt lat="43.1954319" lon="11.4667149"><ele>156.0</ele><time>2026-04-20T14:42:02.412Z</time></trkpt><trkpt lat="43.1954433" lon="11.466839"><ele>156.5</ele><time>2026-04-20T14:42:03.412Z</time></trkpt><trkpt lat="43.195455" lon="11.4669602"><ele>157.0</ele><time>2026-04-20T14:42:04.412Z</time></trkpt><trkpt lat="43.1954674" lon="11.4670808"><ele>157.5</ele><time>2026-04-20T14:42:05.412Z</time></trkpt><trkpt lat="43.1954827" lon="11.4672008"><ele>158.0</ele><time>2026-04-20T14:42:06.412Z</time></trkpt><trkpt lat="43.1954992" lon="11.4673142"><ele>158.33333333333331</ele><time>2026-04-20T14:42:07.412Z</time></trkpt><trkpt lat="43.1955199" lon="11.4674124"><ele>158.66666666666666</ele><time>2026-04-20T14:42:08.412Z</time></trkpt><trkpt lat="43.1955757" lon="11.4675529"><ele>159.0</ele><time>2026-04-20T14:42:10.412Z</time></trkpt><trkpt lat="43.1956739" lon="11.4676387"><ele>159.33333333333334</ele><time>2026-04-20T14:42:12.412Z</time></trkpt><trkpt lat="43.1957399" lon="11.4676659"><ele>159.66666666666669</ele><time>2026-04-20T14:42:13.412Z</time></trkpt><trkpt lat="43.19581" lon="11.467686"><ele>160.0</ele><time>2026-04-20T14:42:14.412Z</time></trkpt><trkpt lat="43.1958775" lon="11.4677017"><ele>160.71428571428572</ele><time>2026-04-20T14:42:15.412Z</time></trkpt><trkpt lat="43.1959455" lon="11.4677225"><ele>161.42857142857144</ele><time>2026-04-20T14:42:16.412Z</time></trkpt><trkpt lat="43.1960137" lon="11.4677524"><ele>162.14285714285717</ele><time>2026-04-20T14:42:17.412Z</time></trkpt><trkpt lat="43.1960802" lon="11.4677948"><ele>162.85714285714286</ele><time>2026-04-20T14:42:18.412Z</time></trkpt><trkpt lat="43.1961447" lon="11.4678463"><ele>163.57142857142858</ele><time>2026-04-20T14:42:19.413Z</time></trkpt><trkpt lat="43.1962073" lon="11.4679057"><ele>164.2857142857143</ele><time>2026-04-20T14:42:20.412Z</time></trkpt><trkpt lat="43.1962665" lon="11.4679708"><ele>165.0</ele><time>2026-04-20T14:42:21.412Z</time></trkpt><trkpt lat="43.1963208" lon="11.4680454"><ele>165.33333333333334</ele><time>2026-04-20T14:42:22.412Z</time></trkpt><trkpt lat="43.1963731" lon="11.4681321"><ele>165.66666666666666</ele><time>2026-04-20T14:42:23.412Z</time></trkpt><trkpt lat="43.1964239" lon="11.4682224"><ele>166.0</ele><time>2026-04-20T14:42:24.412Z</time></trkpt><trkpt lat="43.1964737" lon="11.4683113"><ele>166.33333333333331</ele><time>2026-04-20T14:42:25.414Z</time></trkpt><trkpt lat="43.1965215" lon="11.4683994"><ele>166.66666666666666</ele><time>2026-04-20T14:42:26.412Z</time></trkpt><trkpt lat="43.1965646" lon="11.4684922"><ele>167.0</ele><time>2026-04-20T14:42:27.412Z</time></trkpt><trkpt lat="43.1965942" lon="11.4685947"><ele>168.33333333333331</ele><time>2026-04-20T14:42:28.412Z</time></trkpt><trkpt lat="43.1966082" lon="11.4687108"><ele>169.66666666666666</ele><time>2026-04-20T14:42:29.412Z</time></trkpt><trkpt lat="43.1966152" lon="11.4688233"><ele>171.0</ele><time>2026-04-20T14:42:30.412Z</time></trkpt><trkpt lat="43.1966275" lon="11.4689219"><ele>172.33333333333334</ele><time>2026-04-20T14:42:31.413Z</time></trkpt><trkpt lat="43.1966545" lon="11.469009"><ele>173.66666666666669</ele><time>2026-04-20T14:42:32.413Z</time></trkpt><trkpt lat="43.1966983" lon="11.469085"><ele>175.0</ele><time>2026-04-20T14:42:33.412Z</time></trkpt><trkpt lat="43.1967523" lon="11.4691605"><ele>176.2</ele><time>2026-04-20T14:42:34.412Z</time></trkpt><trkpt lat="43.1968124" lon="11.4692386"><ele>177.4</ele><time>2026-04-20T14:42:35.413Z</time></trkpt><trkpt lat="43.1968723" lon="11.469325"><ele>178.60000000000002</ele><time>2026-04-20T14:42:36.412Z</time></trkpt><trkpt lat="43.1969316" lon="11.46942"><ele>179.8</ele><time>2026-04-20T14:42:37.412Z</time></trkpt><trkpt lat="43.1969857" lon="11.4695271"><ele>181.0</ele><time>2026-04-20T14:42:38.412Z</time></trkpt><trkpt lat="43.1970352" lon="11.469637"><ele>181.16666666666669</ele><time>2026-04-20T14:42:39.412Z</time></trkpt><trkpt lat="43.1970789" lon="11.4697497"><ele>181.33333333333334</ele><time>2026-04-20T14:42:40.413Z</time></trkpt><trkpt lat="43.1971186" lon="11.4698598"><ele>181.5</ele><time>2026-04-20T14:42:41.413Z</time></trkpt><trkpt lat="43.1971573" lon="11.4699648"><ele>181.66666666666666</ele><time>2026-04-20T14:42:42.413Z</time></trkpt><trkpt lat="43.1971949" lon="11.4700693"><ele>181.83333333333331</ele><time>2026-04-20T14:42:43.413Z</time></trkpt><trkpt lat="43.1972278" lon="11.470167"><ele>182.0</ele><time>2026-04-20T14:42:44.413Z</time></trkpt><trkpt lat="43.1972667" lon="11.470299"><ele>182.0</ele><time>2026-04-20T14:42:46.413Z</time></trkpt><trkpt lat="43.1973122" lon="11.470403"><ele>182.0</ele><time>2026-04-20T14:42:48.413Z</time></trkpt><trkpt lat="43.1973903" lon="11.4704958"><ele>182.0</ele><time>2026-04-20T14:42:50.413Z</time></trkpt><trkpt lat="43.1974867" lon="11.4705669"><ele>182.0</ele><time>2026-04-20T14:42:52.413Z</time></trkpt><trkpt lat="43.1975924" lon="11.4706043"><ele>182.0</ele><time>2026-04-20T14:42:54.413Z</time></trkpt><trkpt lat="43.1976599" lon="11.4706173"><ele>185.6</ele><time>2026-04-20T14:42:55.413Z</time></trkpt><trkpt lat="43.1977249" lon="11.4706206"><ele>189.2</ele><time>2026-04-20T14:42:56.413Z</time></trkpt><trkpt lat="43.1978464" lon="11.4706271"><ele>192.8</ele><time>2026-04-20T14:42:58.413Z</time></trkpt><trkpt lat="43.1979663" lon="11.4706796"><ele>196.4</ele><time>2026-04-20T14:43:00.413Z</time></trkpt><trkpt lat="43.1980271" lon="11.4707264"><ele>200.0</ele><time>2026-04-20T14:43:01.413Z</time></trkpt><trkpt lat="43.1980879" lon="11.4707833"><ele>200.00000000000003</ele><time>2026-04-20T14:43:02.413Z</time></trkpt><trkpt lat="43.1981452" lon="11.4708426"><ele>200.0</ele><time>2026-04-20T14:43:03.413Z</time></trkpt><trkpt lat="43.1982039" lon="11.4709089"><ele>200.0</ele><time>2026-04-20T14:43:04.413Z</time></trkpt><trkpt lat="43.1982636" lon="11.4709882"><ele>200.0</ele><time>2026-04-20T14:43:05.413Z</time></trkpt><trkpt lat="43.1983186" lon="11.4710794"><ele>200.00000000000003</ele><time>2026-04-20T14:43:06.413Z</time></trkpt><trkpt lat="43.1983685" lon="11.4711811"><ele>200.0</ele><time>2026-04-20T14:43:07.414Z</time></trkpt><trkpt lat="43.1984135" lon="11.4712895"><ele>201.66666666666669</ele><time>2026-04-20T14:43:08.414Z</time></trkpt><trkpt lat="43.1984485" lon="11.4713982"><ele>203.33333333333334</ele><time>2026-04-20T14:43:09.413Z</time></trkpt><trkpt lat="43.1984784" lon="11.471508"><ele>205.0</ele><time>2026-04-20T14:43:10.413Z</time></trkpt><trkpt lat="43.198498" lon="11.4715971"><ele>206.66666666666669</ele><time>2026-04-20T14:43:11.414Z</time></trkpt><trkpt lat="43.1985183" lon="11.4716863"><ele>208.33333333333334</ele><time>2026-04-20T14:43:12.413Z</time></trkpt><trkpt lat="43.1985319" lon="11.4717768"><ele>210.0</ele><time>2026-04-20T14:43:13.414Z</time></trkpt><trkpt lat="43.1985404" lon="11.4718877"><ele>210.0</ele><time>2026-04-20T14:43:14.413Z</time></trkpt><trkpt lat="43.1985387" lon="11.4720018"><ele>210.0</ele><time>2026-04-20T14:43:15.413Z</time></trkpt><trkpt lat="43.1985284" lon="11.4721292"><ele>210.0</ele><time>2026-04-20T14:43:16.414Z</time></trkpt><trkpt lat="43.1985122" lon="11.4722568"><ele>210.0</ele><time>2026-04-20T14:43:17.413Z</time></trkpt><trkpt lat="43.1984955" lon="11.4723882"><ele>210.0</ele><time>2026-04-20T14:43:18.414Z</time></trkpt><trkpt lat="43.1984818" lon="11.4725065"><ele>210.5</ele><time>2026-04-20T14:43:19.414Z</time></trkpt><trkpt lat="43.1984714" lon="11.4726142"><ele>211.0</ele><time>2026-04-20T14:43:20.413Z</time></trkpt><trkpt lat="43.1984687" lon="11.4727241"><ele>211.5</ele><time>2026-04-20T14:43:21.413Z</time></trkpt><trkpt lat="43.1984766" lon="11.4728336"><ele>212.0</ele><time>2026-04-20T14:43:22.413Z</time></trkpt><trkpt lat="43.1984986" lon="11.4729372"><ele>212.5</ele><time>2026-04-20T14:43:23.413Z</time></trkpt><trkpt lat="43.1985396" lon="11.4730431"><ele>213.0</ele><time>2026-04-20T14:43:24.414Z</time></trkpt><trkpt lat="43.1985959" lon="11.4731475"><ele>213.16666666666666</ele><time>2026-04-20T14:43:25.413Z</time></trkpt><trkpt lat="43.1986508" lon="11.4732432"><ele>213.33333333333331</ele><time>2026-04-20T14:43:26.413Z</time></trkpt><trkpt lat="43.1986956" lon="11.4733272"><ele>213.5</ele><time>2026-04-20T14:43:27.414Z</time></trkpt><trkpt lat="43.1987364" lon="11.4734007"><ele>213.66666666666666</ele><time>2026-04-20T14:43:28.413Z</time></trkpt><trkpt lat="43.1987734" lon="11.4734707"><ele>213.83333333333331</ele><time>2026-04-20T14:43:29.413Z</time></trkpt><trkpt lat="43.1988379" lon="11.4736204"><ele>214.0</ele><time>2026-04-20T14:43:31.414Z</time></trkpt><trkpt lat="43.1988616" lon="11.4737151"><ele>212.49999999999997</ele><time>2026-04-20T14:43:32.414Z</time></trkpt><trkpt lat="43.198869" lon="11.4738259"><ele>211.0</ele><time>2026-04-20T14:43:33.414Z</time></trkpt><trkpt lat="43.1988659" lon="11.4739413"><ele>209.5</ele><time>2026-04-20T14:43:34.414Z</time></trkpt><trkpt lat="43.19886" lon="11.474053"><ele>208.0</ele><time>2026-04-20T14:43:35.414Z</time></trkpt><trkpt lat="43.198856" lon="11.4741622"><ele>206.49999999999997</ele><time>2026-04-20T14:43:36.414Z</time></trkpt><trkpt lat="43.1988609" lon="11.4742725"><ele>205.0</ele><time>2026-04-20T14:43:37.414Z</time></trkpt><trkpt lat="43.1988791" lon="11.4743831"><ele>204.99999999999997</ele><time>2026-04-20T14:43:38.414Z</time></trkpt><trkpt lat="43.1989109" lon="11.4744912"><ele>205.0</ele><time>2026-04-20T14:43:39.414Z</time></trkpt><trkpt lat="43.1989549" lon="11.4745956"><ele>205.0</ele><time>2026-04-20T14:43:40.415Z</time></trkpt><trkpt lat="43.1990078" lon="11.4746962"><ele>205.0</ele><time>2026-04-20T14:43:41.415Z</time></trkpt><trkpt lat="43.1990636" lon="11.4747932"><ele>204.99999999999997</ele><time>2026-04-20T14:43:42.414Z</time></trkpt><trkpt lat="43.1991186" lon="11.4748863"><ele>205.0</ele><time>2026-04-20T14:43:43.414Z</time></trkpt><trkpt lat="43.1991747" lon="11.4749822"><ele>203.8</ele><time>2026-04-20T14:43:44.414Z</time></trkpt><trkpt lat="43.1992287" lon="11.4750781"><ele>202.6</ele><time>2026-04-20T14:43:45.414Z</time></trkpt><trkpt lat="43.1992817" lon="11.4751799"><ele>201.39999999999998</ele><time>2026-04-20T14:43:46.414Z</time></trkpt><trkpt lat="43.1993343" lon="11.4752818"><ele>200.2</ele><time>2026-04-20T14:43:47.414Z</time></trkpt><trkpt lat="43.1993929" lon="11.4753798"><ele>199.0</ele><time>2026-04-20T14:43:48.414Z</time></trkpt><trkpt lat="43.1994535" lon="11.4754679"><ele>200.16666666666666</ele><time>2026-04-20T14:43:49.415Z</time></trkpt><trkpt lat="43.1995183" lon="11.47555"><ele>201.33333333333331</ele><time>2026-04-20T14:43:50.414Z</time></trkpt><trkpt lat="43.1995861" lon="11.4756248"><ele>202.5</ele><time>2026-04-20T14:43:51.414Z</time></trkpt><trkpt lat="43.1996555" lon="11.4756942"><ele>203.66666666666669</ele><time>2026-04-20T14:43:52.415Z</time></trkpt><trkpt lat="43.1997243" lon="11.4757542"><ele>204.83333333333334</ele><time>2026-04-20T14:43:53.414Z</time></trkpt><trkpt lat="43.1997971" lon="11.4757996"><ele>206.0</ele><time>2026-04-20T14:43:54.414Z</time></trkpt><trkpt lat="43.199873" lon="11.4758401"><ele>206.00000000000003</ele><time>2026-04-20T14:43:55.415Z</time></trkpt><trkpt lat="43.1999517" lon="11.4758852"><ele>206.0</ele><time>2026-04-20T14:43:56.414Z</time></trkpt><trkpt lat="43.2000258" lon="11.4759489"><ele>206.0</ele><time>2026-04-20T14:43:57.414Z</time></trkpt><trkpt lat="43.2000928" lon="11.4760315"><ele>206.0</ele><time>2026-04-20T14:43:58.414Z</time></trkpt><trkpt lat="43.2001558" lon="11.4761188"><ele>206.00000000000003</ele><time>2026-04-20T14:43:59.414Z</time></trkpt><trkpt lat="43.2002203" lon="11.4761987"><ele>206.0</ele><time>2026-04-20T14:44:00.414Z</time></trkpt><trkpt lat="43.2002916" lon="11.4762729"><ele>204.20000000000002</ele><time>2026-04-20T14:44:01.414Z</time></trkpt><trkpt lat="43.2003707" lon="11.4763459"><ele>202.4</ele><time>2026-04-20T14:44:02.414Z</time></trkpt><trkpt lat="43.2004496" lon="11.4764195"><ele>200.6</ele><time>2026-04-20T14:44:03.414Z</time></trkpt><trkpt lat="43.2005191" lon="11.4764917"><ele>198.8</ele><time>2026-04-20T14:44:04.414Z</time></trkpt><trkpt lat="43.2005844" lon="11.4765668"><ele>197.0</ele><time>2026-04-20T14:44:05.414Z</time></trkpt><trkpt lat="43.2006508" lon="11.4766521"><ele>198.50000000000003</ele><time>2026-04-20T14:44:06.414Z</time></trkpt><trkpt lat="43.2007123" lon="11.4767429"><ele>200.0</ele><time>2026-04-20T14:44:07.414Z</time></trkpt><trkpt lat="43.2007652" lon="11.4768442"><ele>201.5</ele><time>2026-04-20T14:44:08.414Z</time></trkpt><trkpt lat="43.2008124" lon="11.4769472"><ele>203.0</ele><time>2026-04-20T14:44:09.414Z</time></trkpt><trkpt lat="43.2008559" lon="11.4770451"><ele>204.50000000000003</ele><time>2026-04-20T14:44:10.414Z</time></trkpt><trkpt lat="43.2009026" lon="11.4771471"><ele>206.0</ele><time>2026-04-20T14:44:11.414Z</time></trkpt><trkpt lat="43.2009511" lon="11.4772533"><ele>206.0</ele><time>2026-04-20T14:44:12.414Z</time></trkpt><trkpt lat="43.2009981" lon="11.4773666"><ele>206.0</ele><time>2026-04-20T14:44:13.414Z</time></trkpt><trkpt lat="43.2010424" lon="11.4774864"><ele>206.0</ele><time>2026-04-20T14:44:14.414Z</time></trkpt><trkpt lat="43.201085" lon="11.4776083"><ele>206.0</ele><time>2026-04-20T14:44:15.414Z</time></trkpt><trkpt lat="43.2011253" lon="11.4777278"><ele>206.0</ele><time>2026-04-20T14:44:16.414Z</time></trkpt><trkpt lat="43.2011664" lon="11.4778488"><ele>205.0</ele><time>2026-04-20T14:44:17.414Z</time></trkpt><trkpt lat="43.2012102" lon="11.4779676"><ele>204.0</ele><time>2026-04-20T14:44:18.415Z</time></trkpt><trkpt lat="43.2012558" lon="11.4780812"><ele>203.0</ele><time>2026-04-20T14:44:19.416Z</time></trkpt><trkpt lat="43.2013012" lon="11.4781891"><ele>202.0</ele><time>2026-04-20T14:44:20.415Z</time></trkpt><trkpt lat="43.2013456" lon="11.4782946"><ele>201.0</ele><time>2026-04-20T14:44:21.415Z</time></trkpt><trkpt lat="43.2013908" lon="11.4783988"><ele>201.0</ele><time>2026-04-20T14:44:22.415Z</time></trkpt><trkpt lat="43.2014373" lon="11.4785072"><ele>201.0</ele><time>2026-04-20T14:44:23.415Z</time></trkpt><trkpt lat="43.2014834" lon="11.4786218"><ele>201.0</ele><time>2026-04-20T14:44:24.416Z</time></trkpt><trkpt lat="43.2015301" lon="11.4787404"><ele>201.0</ele><time>2026-04-20T14:44:25.415Z</time></trkpt><trkpt lat="43.2015715" lon="11.4788571"><ele>201.0</ele><time>2026-04-20T14:44:26.415Z</time></trkpt><trkpt lat="43.2016111" lon="11.4789769"><ele>203.4</ele><time>2026-04-20T14:44:27.415Z</time></trkpt><trkpt lat="43.2016502" lon="11.479097"><ele>205.8</ele><time>2026-04-20T14:44:28.415Z</time></trkpt><trkpt lat="43.2016862" lon="11.4792142"><ele>208.20000000000002</ele><time>2026-04-20T14:44:29.415Z</time></trkpt><trkpt lat="43.2017233" lon="11.4793388"><ele>210.60000000000002</ele><time>2026-04-20T14:44:30.415Z</time></trkpt><trkpt lat="43.2017548" lon="11.4794628"><ele>213.0</ele><time>2026-04-20T14:44:31.415Z</time></trkpt><trkpt lat="43.2017827" lon="11.4795863"><ele>212.83333333333334</ele><time>2026-04-20T14:44:32.415Z</time></trkpt><trkpt lat="43.2018099" lon="11.4797004"><ele>212.66666666666669</ele><time>2026-04-20T14:44:33.416Z</time></trkpt><trkpt lat="43.2018393" lon="11.4798087"><ele>212.5</ele><time>2026-04-20T14:44:34.415Z</time></trkpt><trkpt lat="43.2018676" lon="11.479904"><ele>212.33333333333334</ele><time>2026-04-20T14:44:35.415Z</time></trkpt><trkpt lat="43.2019104" lon="11.4800461"><ele>212.16666666666669</ele><time>2026-04-20T14:44:37.415Z</time></trkpt><trkpt lat="43.2019353" lon="11.4801275"><ele>212.0</ele><time>2026-04-20T14:44:40.415Z</time></trkpt><trkpt lat="43.2018394" lon="11.480122"><ele>212.0</ele><time>2026-04-20T14:45:15.416Z</time></trkpt><trkpt lat="43.2017717" lon="11.4801153"><ele>212.0</ele><time>2026-04-20T14:45:19.416Z</time></trkpt><trkpt lat="43.2018981" lon="11.4801164"><ele>212.0</ele><time>2026-04-20T14:45:38.416Z</time></trkpt><trkpt lat="43.2019702" lon="11.4802048"><ele>212.0</ele><time>2026-04-20T14:47:44.419Z</time></trkpt><trkpt lat="43.20202" lon="11.4803125"><ele>212.0</ele><time>2026-04-20T14:47:46.419Z</time></trkpt><trkpt lat="43.2020812" lon="11.4804589"><ele>211.50000000000003</ele><time>2026-04-20T14:47:48.419Z</time></trkpt><trkpt lat="43.2021162" lon="11.4805524"><ele>211.0</ele><time>2026-04-20T14:47:49.419Z</time></trkpt><trkpt lat="43.2021476" lon="11.4806473"><ele>210.5</ele><time>2026-04-20T14:47:50.419Z</time></trkpt><trkpt lat="43.2021731" lon="11.4807445"><ele>210.0</ele><time>2026-04-20T14:47:51.419Z</time></trkpt><trkpt lat="43.2021943" lon="11.4808461"><ele>209.50000000000003</ele><time>2026-04-20T14:47:52.419Z</time></trkpt><trkpt lat="43.2022121" lon="11.4809497"><ele>209.0</ele><time>2026-04-20T14:47:53.419Z</time></trkpt><trkpt lat="43.2022284" lon="11.4810551"><ele>209.00000000000003</ele><time>2026-04-20T14:47:54.419Z</time></trkpt><trkpt lat="43.2022436" lon="11.4811609"><ele>209.0</ele><time>2026-04-20T14:47:55.419Z</time></trkpt><trkpt lat="43.2022577" lon="11.4812672"><ele>209.0</ele><time>2026-04-20T14:47:56.42Z</time></trkpt><trkpt lat="43.2022714" lon="11.4813738"><ele>209.0</ele><time>2026-04-20T14:47:57.419Z</time></trkpt><trkpt lat="43.2022857" lon="11.4814801"><ele>209.00000000000003</ele><time>2026-04-20T14:47:58.419Z</time></trkpt><trkpt lat="43.2022986" lon="11.4815861"><ele>209.0</ele><time>2026-04-20T14:47:59.419Z</time></trkpt><trkpt lat="43.2023072" lon="11.4816914"><ele>209.83333333333334</ele><time>2026-04-20T14:48:00.419Z</time></trkpt><trkpt lat="43.2023092" lon="11.4817956"><ele>210.66666666666669</ele><time>2026-04-20T14:48:01.42Z</time></trkpt><trkpt lat="43.202303" lon="11.4819005"><ele>211.5</ele><time>2026-04-20T14:48:02.419Z</time></trkpt><trkpt lat="43.2022906" lon="11.4820054"><ele>212.33333333333331</ele><time>2026-04-20T14:48:03.419Z</time></trkpt><trkpt lat="43.2022752" lon="11.4821092"><ele>213.16666666666666</ele><time>2026-04-20T14:48:04.419Z</time></trkpt><trkpt lat="43.2022589" lon="11.4822104"><ele>214.0</ele><time>2026-04-20T14:48:05.419Z</time></trkpt><trkpt lat="43.2022409" lon="11.4823102"><ele>215.49999999999997</ele><time>2026-04-20T14:48:06.419Z</time></trkpt><trkpt lat="43.2022232" lon="11.4824099"><ele>217.0</ele><time>2026-04-20T14:48:07.419Z</time></trkpt><trkpt lat="43.2022098" lon="11.4825109"><ele>218.5</ele><time>2026-04-20T14:48:08.42Z</time></trkpt><trkpt lat="43.202201" lon="11.4826144"><ele>220.0</ele><time>2026-04-20T14:48:09.419Z</time></trkpt><trkpt lat="43.2021994" lon="11.4827208"><ele>221.49999999999997</ele><time>2026-04-20T14:48:10.419Z</time></trkpt><trkpt lat="43.2022019" lon="11.48283"><ele>223.0</ele><time>2026-04-20T14:48:11.419Z</time></trkpt><trkpt lat="43.2022035" lon="11.4829386"><ele>225.33333333333331</ele><time>2026-04-20T14:48:12.419Z</time></trkpt><trkpt lat="43.2022009" lon="11.4830434"><ele>227.66666666666666</ele><time>2026-04-20T14:48:13.419Z</time></trkpt><trkpt lat="43.202191" lon="11.4831296"><ele>230.0</ele><time>2026-04-20T14:48:14.419Z</time></trkpt><trkpt lat="43.202147" lon="11.4832875"><ele>232.33333333333331</ele><time>2026-04-20T14:48:16.419Z</time></trkpt><trkpt lat="43.2021087" lon="11.4833644"><ele>234.66666666666666</ele><time>2026-04-20T14:48:17.419Z</time></trkpt><trkpt lat="43.2020696" lon="11.4834382"><ele>237.0</ele><time>2026-04-20T14:48:18.419Z</time></trkpt><trkpt lat="43.2020277" lon="11.4835128"><ele>237.0</ele><time>2026-04-20T14:48:19.419Z</time></trkpt><trkpt lat="43.2019846" lon="11.4835864"><ele>237.0</ele><time>2026-04-20T14:48:20.419Z</time></trkpt><trkpt lat="43.2019447" lon="11.4836535"><ele>237.0</ele><time>2026-04-20T14:48:21.419Z</time></trkpt><trkpt lat="43.2019009" lon="11.4837244"><ele>237.0</ele><time>2026-04-20T14:48:22.419Z</time></trkpt><trkpt lat="43.2018584" lon="11.4837935"><ele>237.0</ele><time>2026-04-20T14:48:23.419Z</time></trkpt><trkpt lat="43.2017832" lon="11.4839319"><ele>237.0</ele><time>2026-04-20T14:48:25.419Z</time></trkpt><trkpt lat="43.2017501" lon="11.4840815"><ele>240.2</ele><time>2026-04-20T14:48:27.42Z</time></trkpt><trkpt lat="43.20177" lon="11.4842314"><ele>243.39999999999998</ele><time>2026-04-20T14:48:29.419Z</time></trkpt><trkpt lat="43.2018357" lon="11.4843692"><ele>246.60000000000002</ele><time>2026-04-20T14:48:31.42Z</time></trkpt><trkpt lat="43.2019177" lon="11.4844943"><ele>249.8</ele><time>2026-04-20T14:48:33.42Z</time></trkpt><trkpt lat="43.201957" lon="11.4845676"><ele>253.0</ele><time>2026-04-20T14:48:34.42Z</time></trkpt><trkpt lat="43.2019947" lon="11.4846532"><ele>254.49999999999997</ele><time>2026-04-20T14:48:35.42Z</time></trkpt><trkpt lat="43.2020246" lon="11.4847523"><ele>256.0</ele><time>2026-04-20T14:48:36.42Z</time></trkpt><trkpt lat="43.2020565" lon="11.4848575"><ele>257.5</ele><time>2026-04-20T14:48:37.42Z</time></trkpt><trkpt lat="43.202083" lon="11.4849687"><ele>259.0</ele><time>2026-04-20T14:48:38.421Z</time></trkpt><trkpt lat="43.2021033" lon="11.4850759"><ele>260.5</ele><time>2026-04-20T14:48:39.42Z</time></trkpt><trkpt lat="43.2021221" lon="11.4851794"><ele>262.0</ele><time>2026-04-20T14:48:40.42Z</time></trkpt><trkpt lat="43.2021401" lon="11.4852821"><ele>262.0</ele><time>2026-04-20T14:48:41.42Z</time></trkpt><trkpt lat="43.2021588" lon="11.4853836"><ele>262.0</ele><time>2026-04-20T14:48:42.421Z</time></trkpt><trkpt lat="43.2021783" lon="11.4854796"><ele>262.0</ele><time>2026-04-20T14:48:43.42Z</time></trkpt><trkpt lat="43.2021999" lon="11.4855651"><ele>262.0</ele><time>2026-04-20T14:48:44.42Z</time></trkpt><trkpt lat="43.2022241" lon="11.4856602"><ele>262.0</ele><time>2026-04-20T14:48:45.421Z</time></trkpt><trkpt lat="43.2022506" lon="11.4857692"><ele>262.0</ele><time>2026-04-20T14:48:46.42Z</time></trkpt><trkpt lat="43.2022765" lon="11.4858726"><ele>260.8</ele><time>2026-04-20T14:48:47.42Z</time></trkpt><trkpt lat="43.2023039" lon="11.4859657"><ele>259.6</ele><time>2026-04-20T14:48:48.42Z</time></trkpt><trkpt lat="43.2023344" lon="11.4860431"><ele>258.40000000000003</ele><time>2026-04-20T14:48:49.421Z</time></trkpt><trkpt lat="43.2024044" lon="11.486173"><ele>257.2</ele><time>2026-04-20T14:48:51.42Z</time></trkpt><trkpt lat="43.2024865" lon="11.4863057"><ele>256.0</ele><time>2026-04-20T14:48:53.42Z</time></trkpt><trkpt lat="43.2025333" lon="11.4863787"><ele>254.4</ele><time>2026-04-20T14:48:54.42Z</time></trkpt><trkpt lat="43.202581" lon="11.4864482"><ele>252.8</ele><time>2026-04-20T14:48:55.42Z</time></trkpt><trkpt lat="43.2026639" lon="11.4865437"><ele>251.20000000000002</ele><time>2026-04-20T14:48:57.42Z</time></trkpt><trkpt lat="43.2027166" lon="11.4866102"><ele>249.60000000000002</ele><time>2026-04-20T14:48:59.42Z</time></trkpt><trkpt lat="43.2027967" lon="11.4867016"><ele>248.0</ele><time>2026-04-20T14:49:29.422Z</time></trkpt><trkpt lat="43.2028929" lon="11.4868229"><ele>248.0</ele><time>2026-04-20T14:49:31.421Z</time></trkpt><trkpt lat="43.202957" lon="11.4869048"><ele>248.0</ele><time>2026-04-20T14:49:32.421Z</time></trkpt><trkpt lat="43.2030236" lon="11.4869888"><ele>248.0</ele><time>2026-04-20T14:49:33.421Z</time></trkpt><trkpt lat="43.2030943" lon="11.4870791"><ele>248.0</ele><time>2026-04-20T14:49:34.421Z</time></trkpt><trkpt lat="43.203161" lon="11.4871669"><ele>248.0</ele><time>2026-04-20T14:49:35.421Z</time></trkpt><trkpt lat="43.2032253" lon="11.4872515"><ele>248.16666666666669</ele><time>2026-04-20T14:49:36.421Z</time></trkpt><trkpt lat="43.203292" lon="11.4873375"><ele>248.33333333333334</ele><time>2026-04-20T14:49:37.421Z</time></trkpt><trkpt lat="43.2033544" lon="11.4874149"><ele>248.5</ele><time>2026-04-20T14:49:38.421Z</time></trkpt><trkpt lat="43.2034165" lon="11.48749"><ele>248.66666666666669</ele><time>2026-04-20T14:49:39.421Z</time></trkpt><trkpt lat="43.2034808" lon="11.4875688"><ele>248.83333333333334</ele><time>2026-04-20T14:49:40.421Z</time></trkpt><trkpt lat="43.2035445" lon="11.4876471"><ele>249.0</ele><time>2026-04-20T14:49:41.421Z</time></trkpt><trkpt lat="43.2036089" lon="11.4877276"><ele>249.0</ele><time>2026-04-20T14:49:42.421Z</time></trkpt><trkpt lat="43.2036702" lon="11.487816"><ele>249.0</ele><time>2026-04-20T14:49:43.421Z</time></trkpt><trkpt lat="43.2037229" lon="11.4879119"><ele>249.0</ele><time>2026-04-20T14:49:44.421Z</time></trkpt><trkpt lat="43.2037702" lon="11.4880054"><ele>249.0</ele><time>2026-04-20T14:49:45.421Z</time></trkpt><trkpt lat="43.2038197" lon="11.4881046"><ele>249.0</ele><time>2026-04-20T14:49:46.422Z</time></trkpt><trkpt lat="43.2038707" lon="11.4882069"><ele>249.0</ele><time>2026-04-20T14:49:47.421Z</time></trkpt><trkpt lat="43.2039242" lon="11.4883129"><ele>248.79999999999998</ele><time>2026-04-20T14:49:48.421Z</time></trkpt><trkpt lat="43.2039768" lon="11.4884134"><ele>248.59999999999997</ele><time>2026-04-20T14:49:49.421Z</time></trkpt><trkpt lat="43.204033" lon="11.4885116"><ele>248.4</ele><time>2026-04-20T14:49:50.421Z</time></trkpt><trkpt lat="43.2040937" lon="11.4886079"><ele>248.2</ele><time>2026-04-20T14:49:51.422Z</time></trkpt><trkpt lat="43.2041562" lon="11.4887017"><ele>248.0</ele><time>2026-04-20T14:49:52.421Z</time></trkpt><trkpt lat="43.2042211" lon="11.4887982"><ele>248.0</ele><time>2026-04-20T14:49:53.422Z</time></trkpt><trkpt lat="43.2042891" lon="11.4888955"><ele>248.0</ele><time>2026-04-20T14:49:54.421Z</time></trkpt><trkpt lat="43.2043563" lon="11.4889856"><ele>248.0</ele><time>2026-04-20T14:49:55.421Z</time></trkpt><trkpt lat="43.2044185" lon="11.4890765"><ele>248.0</ele><time>2026-04-20T14:49:56.421Z</time></trkpt><trkpt lat="43.2044718" lon="11.4891755"><ele>248.0</ele><time>2026-04-20T14:49:57.421Z</time></trkpt><trkpt lat="43.2045185" lon="11.4892867"><ele>248.0</ele><time>2026-04-20T14:49:58.422Z</time></trkpt><trkpt lat="43.2045617" lon="11.4894094"><ele>248.0</ele><time>2026-04-20T14:49:59.422Z</time></trkpt><trkpt lat="43.2045996" lon="11.4895367"><ele>248.0</ele><time>2026-04-20T14:50:00.421Z</time></trkpt><trkpt lat="43.2046358" lon="11.4896635"><ele>248.0</ele><time>2026-04-20T14:50:01.421Z</time></trkpt><trkpt lat="43.2046741" lon="11.4897922"><ele>248.0</ele><time>2026-04-20T14:50:02.422Z</time></trkpt><trkpt lat="43.2047101" lon="11.4899187"><ele>247.50000000000003</ele><time>2026-04-20T14:50:03.422Z</time></trkpt><trkpt lat="43.2047448" lon="11.4900361"><ele>247.0</ele><time>2026-04-20T14:50:04.421Z</time></trkpt><trkpt lat="43.2047801" lon="11.4901432"><ele>246.5</ele><time>2026-04-20T14:50:05.422Z</time></trkpt><trkpt lat="43.2048226" lon="11.4902462"><ele>246.0</ele><time>2026-04-20T14:50:06.421Z</time></trkpt><trkpt lat="43.2048727" lon="11.4903462"><ele>245.50000000000003</ele><time>2026-04-20T14:50:07.421Z</time></trkpt><trkpt lat="43.2049277" lon="11.4904369"><ele>245.0</ele><time>2026-04-20T14:50:08.421Z</time></trkpt><trkpt lat="43.2049878" lon="11.490516"><ele>245.00000000000003</ele><time>2026-04-20T14:50:09.421Z</time></trkpt><trkpt lat="43.2050542" lon="11.4905924"><ele>245.0</ele><time>2026-04-20T14:50:10.421Z</time></trkpt><trkpt lat="43.2051241" lon="11.4906744"><ele>245.0</ele><time>2026-04-20T14:50:11.421Z</time></trkpt><trkpt lat="43.2051931" lon="11.4907568"><ele>245.0</ele><time>2026-04-20T14:50:12.422Z</time></trkpt><trkpt lat="43.2052644" lon="11.4908258"><ele>245.00000000000003</ele><time>2026-04-20T14:50:13.422Z</time></trkpt><trkpt lat="43.205333" lon="11.4908711"><ele>245.0</ele><time>2026-04-20T14:50:14.422Z</time></trkpt><trkpt lat="43.2053948" lon="11.4908928"><ele>245.0</ele><time>2026-04-20T14:50:15.422Z</time></trkpt><trkpt lat="43.2055108" lon="11.4909085"><ele>245.0</ele><time>2026-04-20T14:50:17.422Z</time></trkpt><trkpt lat="43.2055752" lon="11.4909168"><ele>245.0</ele><time>2026-04-20T14:50:18.422Z</time></trkpt><trkpt lat="43.2056396" lon="11.490923"><ele>245.0</ele><time>2026-04-20T14:50:19.422Z</time></trkpt><trkpt lat="43.2057047" lon="11.4909258"><ele>245.0</ele><time>2026-04-20T14:50:20.423Z</time></trkpt><trkpt lat="43.2057716" lon="11.4909218"><ele>245.0</ele><time>2026-04-20T14:50:21.422Z</time></trkpt><trkpt lat="43.2058378" lon="11.4909102"><ele>245.0</ele><time>2026-04-20T14:50:22.422Z</time></trkpt><trkpt lat="43.205906" lon="11.490901"><ele>247.16666666666669</ele><time>2026-04-20T14:50:23.423Z</time></trkpt><trkpt lat="43.2059717" lon="11.4908893"><ele>249.33333333333334</ele><time>2026-04-20T14:50:24.422Z</time></trkpt><trkpt lat="43.2060386" lon="11.490877"><ele>251.5</ele><time>2026-04-20T14:50:25.423Z</time></trkpt><trkpt lat="43.2061651" lon="11.4908884"><ele>253.66666666666669</ele><time>2026-04-20T14:50:27.422Z</time></trkpt><trkpt lat="43.2062338" lon="11.4909022"><ele>255.83333333333334</ele><time>2026-04-20T14:50:28.423Z</time></trkpt><trkpt lat="43.2063056" lon="11.4909197"><ele>258.0</ele><time>2026-04-20T14:50:29.422Z</time></trkpt><trkpt lat="43.2063734" lon="11.4909446"><ele>258.0</ele><time>2026-04-20T14:50:30.422Z</time></trkpt><trkpt lat="43.2064405" lon="11.4909816"><ele>258.0</ele><time>2026-04-20T14:50:31.422Z</time></trkpt><trkpt lat="43.2065115" lon="11.4910268"><ele>258.0</ele><time>2026-04-20T14:50:32.422Z</time></trkpt><trkpt lat="43.2065811" lon="11.4910852"><ele>258.0</ele><time>2026-04-20T14:50:33.422Z</time></trkpt><trkpt lat="43.2066449" lon="11.4911621"><ele>258.0</ele><time>2026-04-20T14:50:34.422Z</time></trkpt><trkpt lat="43.2066973" lon="11.4912582"><ele>258.0</ele><time>2026-04-20T14:50:35.422Z</time></trkpt><trkpt lat="43.2067381" lon="11.4913577"><ele>257.1666666666667</ele><time>2026-04-20T14:50:36.422Z</time></trkpt><trkpt lat="43.2067773" lon="11.4914612"><ele>256.3333333333333</ele><time>2026-04-20T14:50:37.422Z</time></trkpt><trkpt lat="43.2068179" lon="11.4915634"><ele>255.5</ele><time>2026-04-20T14:50:38.422Z</time></trkpt><trkpt lat="43.2068559" lon="11.4916546"><ele>254.66666666666666</ele><time>2026-04-20T14:50:39.422Z</time></trkpt><trkpt lat="43.2068909" lon="11.4917349"><ele>253.83333333333331</ele><time>2026-04-20T14:50:40.422Z</time></trkpt><trkpt lat="43.2069267" lon="11.4918111"><ele>253.0</ele><time>2026-04-20T14:50:41.422Z</time></trkpt><trkpt lat="43.2069667" lon="11.491891"><ele>252.99999999999997</ele><time>2026-04-20T14:50:42.422Z</time></trkpt><trkpt lat="43.2070169" lon="11.491974"><ele>253.0</ele><time>2026-04-20T14:50:43.423Z</time></trkpt><trkpt lat="43.2070804" lon="11.4920561"><ele>253.0</ele><time>2026-04-20T14:50:44.422Z</time></trkpt><trkpt lat="43.2071524" lon="11.4921325"><ele>253.0</ele><time>2026-04-20T14:50:45.422Z</time></trkpt><trkpt lat="43.207229" lon="11.4922045"><ele>252.99999999999997</ele><time>2026-04-20T14:50:46.422Z</time></trkpt><trkpt lat="43.2073019" lon="11.4922715"><ele>253.0</ele><time>2026-04-20T14:50:47.422Z</time></trkpt><trkpt lat="43.2073785" lon="11.4923453"><ele>252.0</ele><time>2026-04-20T14:50:48.422Z</time></trkpt><trkpt lat="43.2074586" lon="11.4924263"><ele>251.0</ele><time>2026-04-20T14:50:49.422Z</time></trkpt><trkpt lat="43.2075373" lon="11.4925049"><ele>250.0</ele><time>2026-04-20T14:50:50.422Z</time></trkpt><trkpt lat="43.2076142" lon="11.4925824"><ele>249.0</ele><time>2026-04-20T14:50:51.422Z</time></trkpt><trkpt lat="43.2076862" lon="11.4926553"><ele>248.0</ele><time>2026-04-20T14:50:52.422Z</time></trkpt><trkpt lat="43.2077589" lon="11.4927298"><ele>248.0</ele><time>2026-04-20T14:50:53.422Z</time></trkpt><trkpt lat="43.2078318" lon="11.4928087"><ele>248.0</ele><time>2026-04-20T14:50:54.422Z</time></trkpt><trkpt lat="43.2079056" lon="11.4928887"><ele>248.0</ele><time>2026-04-20T14:50:55.422Z</time></trkpt><trkpt lat="43.2079827" lon="11.4929701"><ele>248.0</ele><time>2026-04-20T14:50:56.422Z</time></trkpt><trkpt lat="43.208062" lon="11.4930511"><ele>248.0</ele><time>2026-04-20T14:50:57.422Z</time></trkpt><trkpt lat="43.2081458" lon="11.4931366"><ele>248.4</ele><time>2026-04-20T14:50:58.423Z</time></trkpt><trkpt lat="43.2082272" lon="11.4932203"><ele>248.8</ele><time>2026-04-20T14:50:59.423Z</time></trkpt><trkpt lat="43.2083107" lon="11.493299"><ele>249.2</ele><time>2026-04-20T14:51:00.423Z</time></trkpt><trkpt lat="43.2083927" lon="11.49337"><ele>249.6</ele><time>2026-04-20T14:51:01.423Z</time></trkpt><trkpt lat="43.2084733" lon="11.4934355"><ele>250.0</ele><time>2026-04-20T14:51:02.423Z</time></trkpt><trkpt lat="43.2085531" lon="11.4934959"><ele>249.99999999999997</ele><time>2026-04-20T14:51:03.423Z</time></trkpt><trkpt lat="43.2086309" lon="11.4935538"><ele>250.0</ele><time>2026-04-20T14:51:04.423Z</time></trkpt><trkpt lat="43.2087088" lon="11.4936182"><ele>250.0</ele><time>2026-04-20T14:51:05.423Z</time></trkpt><trkpt lat="43.2087791" lon="11.4936941"><ele>250.0</ele><time>2026-04-20T14:51:06.423Z</time></trkpt><trkpt lat="43.2088356" lon="11.4937866"><ele>249.99999999999997</ele><time>2026-04-20T14:51:07.423Z</time></trkpt><trkpt lat="43.2088857" lon="11.4938882"><ele>250.0</ele><time>2026-04-20T14:51:08.423Z</time></trkpt><trkpt lat="43.2089339" lon="11.4939984"><ele>251.8</ele><time>2026-04-20T14:51:09.423Z</time></trkpt><trkpt lat="43.2089795" lon="11.4941114"><ele>253.6</ele><time>2026-04-20T14:51:10.423Z</time></trkpt><trkpt lat="43.2090207" lon="11.4942286"><ele>255.39999999999998</ele><time>2026-04-20T14:51:11.423Z</time></trkpt><trkpt lat="43.2090574" lon="11.4943452"><ele>257.2</ele><time>2026-04-20T14:51:12.424Z</time></trkpt><trkpt lat="43.209092" lon="11.4944623"><ele>259.0</ele><time>2026-04-20T14:51:13.423Z</time></trkpt><trkpt lat="43.209123" lon="11.4945812"><ele>259.4</ele><time>2026-04-20T14:51:14.423Z</time></trkpt><trkpt lat="43.209149" lon="11.494702"><ele>259.79999999999995</ele><time>2026-04-20T14:51:15.423Z</time></trkpt><trkpt lat="43.209171" lon="11.4948249"><ele>260.20000000000005</ele><time>2026-04-20T14:51:16.423Z</time></trkpt><trkpt lat="43.2091909" lon="11.494948"><ele>260.6</ele><time>2026-04-20T14:51:17.423Z</time></trkpt><trkpt lat="43.209206" lon="11.4950686"><ele>261.0</ele><time>2026-04-20T14:51:18.423Z</time></trkpt><trkpt lat="43.2092169" lon="11.4951896"><ele>261.0</ele><time>2026-04-20T14:51:19.423Z</time></trkpt><trkpt lat="43.2092271" lon="11.4952924"><ele>261.0</ele><time>2026-04-20T14:51:20.423Z</time></trkpt><trkpt lat="43.2092507" lon="11.4954416"><ele>261.0</ele><time>2026-04-20T14:51:22.423Z</time></trkpt><trkpt lat="43.2093006" lon="11.4955849"><ele>261.0</ele><time>2026-04-20T14:51:24.423Z</time></trkpt><trkpt lat="43.2093358" lon="11.495657"><ele>261.0</ele><time>2026-04-20T14:51:25.423Z</time></trkpt><trkpt lat="43.2093702" lon="11.4957325"><ele>261.0</ele><time>2026-04-20T14:51:26.424Z</time></trkpt><trkpt lat="43.2094039" lon="11.4958162"><ele>261.3333333333333</ele><time>2026-04-20T14:51:27.423Z</time></trkpt><trkpt lat="43.2094355" lon="11.4959054"><ele>261.6666666666667</ele><time>2026-04-20T14:51:28.423Z</time></trkpt><trkpt lat="43.209465" lon="11.4960099"><ele>262.0</ele><time>2026-04-20T14:51:29.423Z</time></trkpt><trkpt lat="43.2094958" lon="11.4961189"><ele>262.33333333333337</ele><time>2026-04-20T14:51:30.423Z</time></trkpt><trkpt lat="43.2095274" lon="11.4962174"><ele>262.6666666666667</ele><time>2026-04-20T14:51:31.423Z</time></trkpt><trkpt lat="43.2095566" lon="11.4963044"><ele>263.0</ele><time>2026-04-20T14:51:32.423Z</time></trkpt><trkpt lat="43.2095899" lon="11.4963904"><ele>263.33333333333337</ele><time>2026-04-20T14:51:33.423Z</time></trkpt><trkpt lat="43.209629" lon="11.496475"><ele>263.6666666666667</ele><time>2026-04-20T14:51:34.423Z</time></trkpt><trkpt lat="43.2096736" lon="11.4965567"><ele>264.0</ele><time>2026-04-20T14:51:35.424Z</time></trkpt><trkpt lat="43.2097222" lon="11.4966307"><ele>264.3333333333333</ele><time>2026-04-20T14:51:36.423Z</time></trkpt><trkpt lat="43.2097764" lon="11.4966998"><ele>264.66666666666663</ele><time>2026-04-20T14:51:37.423Z</time></trkpt><trkpt lat="43.209841" lon="11.4967683"><ele>265.0</ele><time>2026-04-20T14:51:38.423Z</time></trkpt><trkpt lat="43.2099126" lon="11.4968319"><ele>264.99999999999994</ele><time>2026-04-20T14:51:39.423Z</time></trkpt><trkpt lat="43.2099847" lon="11.4968866"><ele>265.0</ele><time>2026-04-20T14:51:40.424Z</time></trkpt><trkpt lat="43.210052" lon="11.4969333"><ele>265.0</ele><time>2026-04-20T14:51:41.423Z</time></trkpt><trkpt lat="43.2101122" lon="11.4969753"><ele>265.0</ele><time>2026-04-20T14:51:42.423Z</time></trkpt><trkpt lat="43.2101693" lon="11.4970155"><ele>265.0</ele><time>2026-04-20T14:51:43.424Z</time></trkpt><trkpt lat="43.210228" lon="11.4970585"><ele>264.99999999999994</ele><time>2026-04-20T14:51:44.424Z</time></trkpt><trkpt lat="43.2102856" lon="11.4971017"><ele>265.0</ele><time>2026-04-20T14:51:45.424Z</time></trkpt><trkpt lat="43.2103427" lon="11.497148"><ele>264.85714285714283</ele><time>2026-04-20T14:51:46.423Z</time></trkpt><trkpt lat="43.2104001" lon="11.4971921"><ele>264.7142857142857</ele><time>2026-04-20T14:51:47.423Z</time></trkpt><trkpt lat="43.2104585" lon="11.4972342"><ele>264.57142857142856</ele><time>2026-04-20T14:51:48.423Z</time></trkpt><trkpt lat="43.2105151" lon="11.4972758"><ele>264.42857142857144</ele><time>2026-04-20T14:51:49.424Z</time></trkpt><trkpt lat="43.2105721" lon="11.4973195"><ele>264.2857142857143</ele><time>2026-04-20T14:51:50.423Z</time></trkpt><trkpt lat="43.2106267" lon="11.4973635"><ele>264.1428571428571</ele><time>2026-04-20T14:51:51.424Z</time></trkpt><trkpt lat="43.2106795" lon="11.4974129"><ele>264.0</ele><time>2026-04-20T14:51:52.424Z</time></trkpt><trkpt lat="43.2107282" lon="11.4974692"><ele>264.0</ele><time>2026-04-20T14:51:53.424Z</time></trkpt><trkpt lat="43.210801" lon="11.4976013"><ele>264.0</ele><time>2026-04-20T14:51:55.424Z</time></trkpt><trkpt lat="43.2108498" lon="11.4977662"><ele>264.0</ele><time>2026-04-20T14:51:57.425Z</time></trkpt><trkpt lat="43.2108654" lon="11.4978526"><ele>264.0</ele><time>2026-04-20T14:51:58.424Z</time></trkpt><trkpt lat="43.2108787" lon="11.4979435"><ele>264.0</ele><time>2026-04-20T14:51:59.425Z</time></trkpt><trkpt lat="43.2108936" lon="11.4980365"><ele>263.1666666666667</ele><time>2026-04-20T14:52:00.424Z</time></trkpt><trkpt lat="43.2109071" lon="11.4981256"><ele>262.3333333333333</ele><time>2026-04-20T14:52:01.424Z</time></trkpt><trkpt lat="43.2109192" lon="11.4982125"><ele>261.5</ele><time>2026-04-20T14:52:02.424Z</time></trkpt><trkpt lat="43.2109328" lon="11.4982988"><ele>260.66666666666663</ele><time>2026-04-20T14:52:03.424Z</time></trkpt><trkpt lat="43.2109516" lon="11.4983828"><ele>259.8333333333333</ele><time>2026-04-20T14:52:04.425Z</time></trkpt><trkpt lat="43.2109815" lon="11.498459"><ele>259.0</ele><time>2026-04-20T14:52:05.424Z</time></trkpt><trkpt lat="43.2110729" lon="11.4985819"><ele>259.0</ele><time>2026-04-20T14:52:07.424Z</time></trkpt><trkpt lat="43.2111286" lon="11.4986265"><ele>259.0</ele><time>2026-04-20T14:52:08.424Z</time></trkpt><trkpt lat="43.2112454" lon="11.4986843"><ele>259.0</ele><time>2026-04-20T14:52:10.425Z</time></trkpt><trkpt lat="43.2113082" lon="11.4987011"><ele>259.0</ele><time>2026-04-20T14:52:11.424Z</time></trkpt><trkpt lat="43.2113722" lon="11.4987072"><ele>259.0</ele><time>2026-04-20T14:52:12.424Z</time></trkpt><trkpt lat="43.2114938" lon="11.498691"><ele>259.0</ele><time>2026-04-20T14:52:14.424Z</time></trkpt><trkpt lat="43.2116113" lon="11.4986614"><ele>256.75</ele><time>2026-04-20T14:52:16.424Z</time></trkpt><trkpt lat="43.2117311" lon="11.4986282"><ele>254.5</ele><time>2026-04-20T14:52:18.425Z</time></trkpt><trkpt lat="43.2118389" lon="11.4985959"><ele>252.25</ele><time>2026-04-20T14:52:20.424Z</time></trkpt><trkpt lat="43.2119432" lon="11.4985974"><ele>250.0</ele><time>2026-04-20T14:52:22.425Z</time></trkpt><trkpt lat="43.2120463" lon="11.4986917"><ele>248.8</ele><time>2026-04-20T14:52:24.424Z</time></trkpt><trkpt lat="43.2120939" lon="11.4987658"><ele>247.6</ele><time>2026-04-20T14:52:25.424Z</time></trkpt><trkpt lat="43.2121352" lon="11.4988443"><ele>246.39999999999998</ele><time>2026-04-20T14:52:26.424Z</time></trkpt><trkpt lat="43.2121681" lon="11.4989246"><ele>245.2</ele><time>2026-04-20T14:52:27.425Z</time></trkpt><trkpt lat="43.2122038" lon="11.4990863"><ele>244.0</ele><time>2026-04-20T14:52:29.425Z</time></trkpt><trkpt lat="43.212207" lon="11.4992508"><ele>244.0</ele><time>2026-04-20T14:52:31.425Z</time></trkpt><trkpt lat="43.212178" lon="11.4994114"><ele>243.99999999999997</ele><time>2026-04-20T14:52:33.424Z</time></trkpt><trkpt lat="43.2121127" lon="11.4995335"><ele>243.99999999999997</ele><time>2026-04-20T14:52:35.424Z</time></trkpt><trkpt lat="43.2120057" lon="11.4996069"><ele>244.0</ele><time>2026-04-20T14:52:37.424Z</time></trkpt><trkpt lat="43.2119429" lon="11.4996268"><ele>244.0</ele><time>2026-04-20T14:52:38.425Z</time></trkpt><trkpt lat="43.2118192" lon="11.4996615"><ele>242.1428571428571</ele><time>2026-04-20T14:52:40.424Z</time></trkpt><trkpt lat="43.2117531" lon="11.4996862"><ele>240.28571428571428</ele><time>2026-04-20T14:52:41.424Z</time></trkpt><trkpt lat="43.2116892" lon="11.4997213"><ele>238.42857142857142</ele><time>2026-04-20T14:52:42.425Z</time></trkpt><trkpt lat="43.2116316" lon="11.4997822"><ele>236.57142857142856</ele><time>2026-04-20T14:52:43.425Z</time></trkpt><trkpt lat="43.211584" lon="11.4998569"><ele>234.71428571428572</ele><time>2026-04-20T14:52:44.425Z</time></trkpt><trkpt lat="43.2115498" lon="11.4999505"><ele>232.85714285714286</ele><time>2026-04-20T14:52:45.425Z</time></trkpt><trkpt lat="43.2115265" lon="11.5000549"><ele>231.0</ele><time>2026-04-20T14:52:46.425Z</time></trkpt><trkpt lat="43.2115095" lon="11.5001702"><ele>231.0</ele><time>2026-04-20T14:52:47.425Z</time></trkpt><trkpt lat="43.2114919" lon="11.500295"><ele>231.0</ele><time>2026-04-20T14:52:48.425Z</time></trkpt><trkpt lat="43.2114692" lon="11.5004211"><ele>231.0</ele><time>2026-04-20T14:52:49.425Z</time></trkpt><trkpt lat="43.2114474" lon="11.5005384"><ele>231.0</ele><time>2026-04-20T14:52:50.425Z</time></trkpt><trkpt lat="43.2114263" lon="11.5006468"><ele>231.0</ele><time>2026-04-20T14:52:51.425Z</time></trkpt><trkpt lat="43.2114058" lon="11.5007491"><ele>231.0</ele><time>2026-04-20T14:52:52.425Z</time></trkpt><trkpt lat="43.21138" lon="11.5008403"><ele>229.0</ele><time>2026-04-20T14:52:53.425Z</time></trkpt><trkpt lat="43.2113431" lon="11.5009286"><ele>227.0</ele><time>2026-04-20T14:52:54.425Z</time></trkpt><trkpt lat="43.2112975" lon="11.5009998"><ele>225.0</ele><time>2026-04-20T14:52:55.425Z</time></trkpt><trkpt lat="43.2111896" lon="11.5010874"><ele>223.0</ele><time>2026-04-20T14:52:57.426Z</time></trkpt><trkpt lat="43.2111107" lon="11.50112"><ele>221.0</ele><time>2026-04-20T14:52:58.426Z</time></trkpt><trkpt lat="43.2110182" lon="11.5011555"><ele>219.0</ele><time>2026-04-20T14:52:59.425Z</time></trkpt><trkpt lat="43.210925" lon="11.5012055"><ele>219.2</ele><time>2026-04-20T14:53:00.426Z</time></trkpt><trkpt lat="43.2108432" lon="11.5012644"><ele>219.39999999999998</ele><time>2026-04-20T14:53:01.425Z</time></trkpt><trkpt lat="43.2107691" lon="11.5013305"><ele>219.6</ele><time>2026-04-20T14:53:02.425Z</time></trkpt><trkpt lat="43.2107019" lon="11.5014079"><ele>219.8</ele><time>2026-04-20T14:53:03.425Z</time></trkpt><trkpt lat="43.2106392" lon="11.5014948"><ele>220.0</ele><time>2026-04-20T14:53:04.425Z</time></trkpt><trkpt lat="43.2105827" lon="11.5015943"><ele>220.0</ele><time>2026-04-20T14:53:05.425Z</time></trkpt><trkpt lat="43.2105343" lon="11.501709"><ele>220.0</ele><time>2026-04-20T14:53:06.425Z</time></trkpt><trkpt lat="43.2104992" lon="11.501828"><ele>220.0</ele><time>2026-04-20T14:53:07.425Z</time></trkpt><trkpt lat="43.2104694" lon="11.5019469"><ele>220.0</ele><time>2026-04-20T14:53:08.425Z</time></trkpt><trkpt lat="43.210437" lon="11.5020614"><ele>220.0</ele><time>2026-04-20T14:53:09.425Z</time></trkpt><trkpt lat="43.2104033" lon="11.5021689"><ele>221.42857142857142</ele><time>2026-04-20T14:53:10.425Z</time></trkpt><trkpt lat="43.2103669" lon="11.5022631"><ele>222.85714285714283</ele><time>2026-04-20T14:53:11.425Z</time></trkpt><trkpt lat="43.2103237" lon="11.5023384"><ele>224.28571428571428</ele><time>2026-04-20T14:53:12.426Z</time></trkpt><trkpt lat="43.2102735" lon="11.5023971"><ele>225.7142857142857</ele><time>2026-04-20T14:53:13.425Z</time></trkpt><trkpt lat="43.2102153" lon="11.5024494"><ele>227.14285714285714</ele><time>2026-04-20T14:53:14.426Z</time></trkpt><trkpt lat="43.2101553" lon="11.5025038"><ele>228.57142857142853</ele><time>2026-04-20T14:53:15.425Z</time></trkpt><trkpt lat="43.2100914" lon="11.5025669"><ele>229.99999999999997</ele><time>2026-04-20T14:53:16.425Z</time></trkpt><trkpt lat="43.2100261" lon="11.5026352"><ele>230.00000000000003</ele><time>2026-04-20T14:53:17.425Z</time></trkpt><trkpt lat="43.2099599" lon="11.5027021"><ele>230.0</ele><time>2026-04-20T14:53:18.425Z</time></trkpt><trkpt lat="43.209891" lon="11.5027711"><ele>230.0</ele><time>2026-04-20T14:53:19.426Z</time></trkpt><trkpt lat="43.2098224" lon="11.5028372"><ele>230.0</ele><time>2026-04-20T14:53:20.425Z</time></trkpt><trkpt lat="43.2097546" lon="11.5029033"><ele>230.00000000000003</ele><time>2026-04-20T14:53:21.425Z</time></trkpt><trkpt lat="43.2096911" lon="11.5029653"><ele>230.0</ele><time>2026-04-20T14:53:22.425Z</time></trkpt><trkpt lat="43.2096317" lon="11.5030263"><ele>228.4285714285714</ele><time>2026-04-20T14:53:23.425Z</time></trkpt><trkpt lat="43.2095763" lon="11.5030857"><ele>226.85714285714283</ele><time>2026-04-20T14:53:24.425Z</time></trkpt><trkpt lat="43.2095244" lon="11.5031425"><ele>225.28571428571428</ele><time>2026-04-20T14:53:25.425Z</time></trkpt><trkpt lat="43.2094732" lon="11.5032023"><ele>223.7142857142857</ele><time>2026-04-20T14:53:26.425Z</time></trkpt><trkpt lat="43.2094225" lon="11.5032613"><ele>222.1428571428571</ele><time>2026-04-20T14:53:27.426Z</time></trkpt><trkpt lat="43.2093701" lon="11.5033221"><ele>220.57142857142858</ele><time>2026-04-20T14:53:28.426Z</time></trkpt><trkpt lat="43.2093187" lon="11.5033883"><ele>219.0</ele><time>2026-04-20T14:53:29.425Z</time></trkpt><trkpt lat="43.209271" lon="11.5034564"><ele>219.0</ele><time>2026-04-20T14:53:30.425Z</time></trkpt><trkpt lat="43.2092264" lon="11.5035329"><ele>219.0</ele><time>2026-04-20T14:53:31.425Z</time></trkpt><trkpt lat="43.2091819" lon="11.5036174"><ele>219.0</ele><time>2026-04-20T14:53:32.427Z</time></trkpt><trkpt lat="43.2091372" lon="11.5037005"><ele>219.0</ele><time>2026-04-20T14:53:33.426Z</time></trkpt><trkpt lat="43.2090933" lon="11.5037794"><ele>219.0</ele><time>2026-04-20T14:53:34.426Z</time></trkpt><trkpt lat="43.2090493" lon="11.5038601"><ele>219.0</ele><time>2026-04-20T14:53:35.426Z</time></trkpt><trkpt lat="43.2090099" lon="11.5039373"><ele>219.0</ele><time>2026-04-20T14:53:36.426Z</time></trkpt><trkpt lat="43.2089705" lon="11.5040143"><ele>217.42857142857144</ele><time>2026-04-20T14:53:37.426Z</time></trkpt><trkpt lat="43.2089287" lon="11.5040889"><ele>215.85714285714283</ele><time>2026-04-20T14:53:38.426Z</time></trkpt><trkpt lat="43.2088866" lon="11.5041576"><ele>214.28571428571428</ele><time>2026-04-20T14:53:39.426Z</time></trkpt><trkpt lat="43.2088405" lon="11.5042312"><ele>212.71428571428572</ele><time>2026-04-20T14:53:40.426Z</time></trkpt><trkpt lat="43.2087933" lon="11.5043069"><ele>211.14285714285717</ele><time>2026-04-20T14:53:41.426Z</time></trkpt><trkpt lat="43.2087448" lon="11.5043798"><ele>209.57142857142856</ele><time>2026-04-20T14:53:42.426Z</time></trkpt><trkpt lat="43.2086946" lon="11.5044453"><ele>208.0</ele><time>2026-04-20T14:53:43.426Z</time></trkpt><trkpt lat="43.2086364" lon="11.5045023"><ele>208.0</ele><time>2026-04-20T14:53:44.426Z</time></trkpt><trkpt lat="43.208572" lon="11.5045407"><ele>208.0</ele><time>2026-04-20T14:53:45.426Z</time></trkpt><trkpt lat="43.2085001" lon="11.504565"><ele>208.0</ele><time>2026-04-20T14:53:46.426Z</time></trkpt><trkpt lat="43.2084265" lon="11.5045804"><ele>208.0</ele><time>2026-04-20T14:53:47.426Z</time></trkpt><trkpt lat="43.2083583" lon="11.5045891"><ele>208.0</ele><time>2026-04-20T14:53:48.426Z</time></trkpt><trkpt lat="43.2082899" lon="11.5045957"><ele>208.0</ele><time>2026-04-20T14:53:49.426Z</time></trkpt><trkpt lat="43.2082262" lon="11.5045999"><ele>208.0</ele><time>2026-04-20T14:53:50.426Z</time></trkpt><trkpt lat="43.2080974" lon="11.5046074"><ele>205.33333333333331</ele><time>2026-04-20T14:53:52.426Z</time></trkpt><trkpt lat="43.2080311" lon="11.5046009"><ele>202.66666666666666</ele><time>2026-04-20T14:53:53.426Z</time></trkpt><trkpt lat="43.207966" lon="11.5045876"><ele>200.0</ele><time>2026-04-20T14:53:54.426Z</time></trkpt><trkpt lat="43.2078514" lon="11.504543"><ele>197.33333333333331</ele><time>2026-04-20T14:53:56.426Z</time></trkpt><trkpt lat="43.2077653" lon="11.5045452"><ele>194.66666666666666</ele><time>2026-04-20T14:53:58.427Z</time></trkpt><trkpt lat="43.2077256" lon="11.5046328"><ele>192.0</ele><time>2026-04-20T14:54:00.426Z</time></trkpt><trkpt lat="43.2077559" lon="11.5047295"><ele>192.0</ele><time>2026-04-20T14:54:02.427Z</time></trkpt><trkpt lat="43.2078339" lon="11.5047938"><ele>192.0</ele><time>2026-04-20T14:54:04.426Z</time></trkpt><trkpt lat="43.207943" lon="11.5048303"><ele>192.0</ele><time>2026-04-20T14:54:06.426Z</time></trkpt><trkpt lat="43.2080062" lon="11.5048515"><ele>192.0</ele><time>2026-04-20T14:54:07.427Z</time></trkpt><trkpt lat="43.2081477" lon="11.5049168"><ele>192.0</ele><time>2026-04-20T14:54:09.426Z</time></trkpt><trkpt lat="43.2082298" lon="11.5049664"><ele>192.0</ele><time>2026-04-20T14:54:10.427Z</time></trkpt><trkpt lat="43.2083062" lon="11.5050152"><ele>192.0</ele><time>2026-04-20T14:54:11.426Z</time></trkpt><trkpt lat="43.2083751" lon="11.5050579"><ele>192.0</ele><time>2026-04-20T14:54:12.426Z</time></trkpt><trkpt lat="43.2084377" lon="11.5050853"><ele>192.0</ele><time>2026-04-20T14:54:13.426Z</time></trkpt><trkpt lat="43.2085015" lon="11.5051043"><ele>192.0</ele><time>2026-04-20T14:54:14.427Z</time></trkpt><trkpt lat="43.2086059" lon="11.5051177"><ele>192.0</ele><time>2026-04-20T14:54:16.427Z</time></trkpt><trkpt lat="43.208702" lon="11.5051294"><ele>192.0</ele><time>2026-04-20T14:54:18.426Z</time></trkpt><trkpt lat="43.2087908" lon="11.5051424"><ele>192.0</ele><time>2026-04-20T14:54:20.426Z</time></trkpt><trkpt lat="43.208867" lon="11.5051554"><ele>192.0</ele><time>2026-04-20T14:54:23.427Z</time></trkpt><trkpt lat="43.2089556" lon="11.505167"><ele>192.0</ele><time>2026-04-20T14:54:26.427Z</time></trkpt><trkpt lat="43.2090323" lon="11.5051629"><ele>192.0</ele><time>2026-04-20T14:54:29.428Z</time></trkpt><trkpt lat="43.2090956" lon="11.5051359"><ele>192.0</ele><time>2026-04-20T14:54:31.427Z</time></trkpt><trkpt lat="43.2091747" lon="11.5050979"><ele>190.6</ele><time>2026-04-20T14:54:33.427Z</time></trkpt><trkpt lat="43.2092525" lon="11.505046"><ele>189.2</ele><time>2026-04-20T14:54:35.428Z</time></trkpt><trkpt lat="43.2093308" lon="11.5049763"><ele>187.8</ele><time>2026-04-20T14:54:37.427Z</time></trkpt><trkpt lat="43.209421" lon="11.5049193"><ele>186.4</ele><time>2026-04-20T14:54:39.428Z</time></trkpt><trkpt lat="43.2095299" lon="11.5048961"><ele>185.0</ele><time>2026-04-20T14:54:41.428Z</time></trkpt><trkpt lat="43.2096559" lon="11.5049148"><ele>184.99999999999997</ele><time>2026-04-20T14:54:43.427Z</time></trkpt><trkpt lat="43.2097203" lon="11.5049406"><ele>185.0</ele><time>2026-04-20T14:54:44.427Z</time></trkpt><trkpt lat="43.2097837" lon="11.5049822"><ele>185.0</ele><time>2026-04-20T14:54:45.428Z</time></trkpt><trkpt lat="43.2098464" lon="11.5050408"><ele>185.0</ele><time>2026-04-20T14:54:46.428Z</time></trkpt><trkpt lat="43.2099059" lon="11.5051046"><ele>185.0</ele><time>2026-04-20T14:54:47.427Z</time></trkpt><trkpt lat="43.2099675" lon="11.5051681"><ele>184.99999999999997</ele><time>2026-04-20T14:54:48.427Z</time></trkpt><trkpt lat="43.2100261" lon="11.5052301"><ele>185.0</ele><time>2026-04-20T14:54:49.427Z</time></trkpt><trkpt lat="43.2100807" lon="11.5052864"><ele>183.85714285714283</ele><time>2026-04-20T14:54:50.427Z</time></trkpt><trkpt lat="43.2101376" lon="11.5053396"><ele>182.71428571428572</ele><time>2026-04-20T14:54:51.427Z</time></trkpt><trkpt lat="43.210196" lon="11.5053816"><ele>181.57142857142856</ele><time>2026-04-20T14:54:52.427Z</time></trkpt><trkpt lat="43.2102593" lon="11.5054105"><ele>180.42857142857142</ele><time>2026-04-20T14:54:53.427Z</time></trkpt><trkpt lat="43.2103242" lon="11.505425"><ele>179.28571428571428</ele><time>2026-04-20T14:54:54.427Z</time></trkpt><trkpt lat="43.2103891" lon="11.5054355"><ele>178.14285714285714</ele><time>2026-04-20T14:54:55.428Z</time></trkpt><trkpt lat="43.2104542" lon="11.5054491"><ele>177.0</ele><time>2026-04-20T14:54:56.427Z</time></trkpt><trkpt lat="43.2105166" lon="11.5054658"><ele>176.5</ele><time>2026-04-20T14:54:57.427Z</time></trkpt><trkpt lat="43.2105796" lon="11.5054798"><ele>176.0</ele><time>2026-04-20T14:54:58.428Z</time></trkpt><trkpt lat="43.2107046" lon="11.5054705"><ele>175.5</ele><time>2026-04-20T14:55:00.427Z</time></trkpt><trkpt lat="43.2107678" lon="11.5054511"><ele>175.0</ele><time>2026-04-20T14:55:01.427Z</time></trkpt><trkpt lat="43.2108308" lon="11.5054307"><ele>174.5</ele><time>2026-04-20T14:55:02.427Z</time></trkpt><trkpt lat="43.2109496" lon="11.5053918"><ele>174.0</ele><time>2026-04-20T14:55:04.428Z</time></trkpt><trkpt lat="43.211066" lon="11.5053515"><ele>174.0</ele><time>2026-04-20T14:55:06.427Z</time></trkpt><trkpt lat="43.2111879" lon="11.5053604"><ele>174.0</ele><time>2026-04-20T14:55:08.427Z</time></trkpt><trkpt lat="43.21125" lon="11.5053952"><ele>174.0</ele><time>2026-04-20T14:55:09.427Z</time></trkpt><trkpt lat="43.2113087" lon="11.5054509"><ele>174.0</ele><time>2026-04-20T14:55:10.427Z</time></trkpt><trkpt lat="43.2113617" lon="11.5055308"><ele>174.0</ele><time>2026-04-20T14:55:11.428Z</time></trkpt><trkpt lat="43.2114016" lon="11.5056327"><ele>174.0</ele><time>2026-04-20T14:55:12.429Z</time></trkpt><trkpt lat="43.2114297" lon="11.5057405"><ele>172.5</ele><time>2026-04-20T14:55:13.428Z</time></trkpt><trkpt lat="43.2114563" lon="11.5058457"><ele>171.0</ele><time>2026-04-20T14:55:14.428Z</time></trkpt><trkpt lat="43.2114848" lon="11.5059536"><ele>169.5</ele><time>2026-04-20T14:55:15.428Z</time></trkpt><trkpt lat="43.2115176" lon="11.5060666"><ele>168.0</ele><time>2026-04-20T14:55:16.428Z</time></trkpt><trkpt lat="43.2115482" lon="11.506179"><ele>166.5</ele><time>2026-04-20T14:55:17.428Z</time></trkpt><trkpt lat="43.2115785" lon="11.5062931"><ele>165.0</ele><time>2026-04-20T14:55:18.428Z</time></trkpt><trkpt lat="43.2116094" lon="11.5064063"><ele>165.0</ele><time>2026-04-20T14:55:19.428Z</time></trkpt><trkpt lat="43.2116426" lon="11.5065196"><ele>165.0</ele><time>2026-04-20T14:55:20.428Z</time></trkpt><trkpt lat="43.211675" lon="11.5066322"><ele>165.0</ele><time>2026-04-20T14:55:21.429Z</time></trkpt><trkpt lat="43.2117066" lon="11.5067477"><ele>165.0</ele><time>2026-04-20T14:55:22.428Z</time></trkpt><trkpt lat="43.2117368" lon="11.5068653"><ele>165.0</ele><time>2026-04-20T14:55:23.428Z</time></trkpt><trkpt lat="43.2117675" lon="11.5069839"><ele>164.83333333333334</ele><time>2026-04-20T14:55:24.429Z</time></trkpt><trkpt lat="43.2118016" lon="11.5071053"><ele>164.66666666666666</ele><time>2026-04-20T14:55:25.428Z</time></trkpt><trkpt lat="43.2118354" lon="11.5072206"><ele>164.5</ele><time>2026-04-20T14:55:26.428Z</time></trkpt><trkpt lat="43.2118689" lon="11.5073252"><ele>164.33333333333331</ele><time>2026-04-20T14:55:27.428Z</time></trkpt><trkpt lat="43.2118997" lon="11.5074203"><ele>164.16666666666666</ele><time>2026-04-20T14:55:28.428Z</time></trkpt><trkpt lat="43.2119283" lon="11.5075049"><ele>164.0</ele><time>2026-04-20T14:55:29.429Z</time></trkpt><trkpt lat="43.2119618" lon="11.5075835"><ele>164.0</ele><time>2026-04-20T14:55:30.428Z</time></trkpt><trkpt lat="43.2120432" lon="11.5077019"><ele>164.0</ele><time>2026-04-20T14:55:32.429Z</time></trkpt><trkpt lat="43.2121588" lon="11.5077921"><ele>164.0</ele><time>2026-04-20T14:55:34.429Z</time></trkpt><trkpt lat="43.2122304" lon="11.5078298"><ele>164.0</ele><time>2026-04-20T14:55:35.428Z</time></trkpt><trkpt lat="43.2123061" lon="11.5078629"><ele>164.0</ele><time>2026-04-20T14:55:36.428Z</time></trkpt><trkpt lat="43.2123728" lon="11.5078929"><ele>163.7142857142857</ele><time>2026-04-20T14:55:37.429Z</time></trkpt><trkpt lat="43.2124343" lon="11.5079311"><ele>163.42857142857142</ele><time>2026-04-20T14:55:38.428Z</time></trkpt><trkpt lat="43.2124874" lon="11.5079784"><ele>163.14285714285714</ele><time>2026-04-20T14:55:39.428Z</time></trkpt><trkpt lat="43.2125355" lon="11.5080429"><ele>162.85714285714283</ele><time>2026-04-20T14:55:40.429Z</time></trkpt><trkpt lat="43.2125834" lon="11.5081217"><ele>162.57142857142856</ele><time>2026-04-20T14:55:41.428Z</time></trkpt><trkpt lat="43.2126287" lon="11.5082137"><ele>162.28571428571428</ele><time>2026-04-20T14:55:42.428Z</time></trkpt><trkpt lat="43.2126664" lon="11.5083263"><ele>162.0</ele><time>2026-04-20T14:55:43.428Z</time></trkpt><trkpt lat="43.2127112" lon="11.5084474"><ele>162.0</ele><time>2026-04-20T14:55:44.428Z</time></trkpt><trkpt lat="43.212759" lon="11.5085532"><ele>162.0</ele><time>2026-04-20T14:55:45.428Z</time></trkpt><trkpt lat="43.2128065" lon="11.5086507"><ele>162.0</ele><time>2026-04-20T14:55:46.428Z</time></trkpt><trkpt lat="43.2128538" lon="11.5087465"><ele>162.0</ele><time>2026-04-20T14:55:47.428Z</time></trkpt><trkpt lat="43.2129033" lon="11.508844"><ele>162.0</ele><time>2026-04-20T14:55:48.429Z</time></trkpt><trkpt lat="43.2129509" lon="11.5089442"><ele>162.0</ele><time>2026-04-20T14:55:49.428Z</time></trkpt><trkpt lat="43.2130028" lon="11.5090486"><ele>161.83333333333334</ele><time>2026-04-20T14:55:50.428Z</time></trkpt><trkpt lat="43.2130546" lon="11.5091543"><ele>161.66666666666666</ele><time>2026-04-20T14:55:51.429Z</time></trkpt><trkpt lat="43.2131055" lon="11.5092591"><ele>161.5</ele><time>2026-04-20T14:55:52.428Z</time></trkpt><trkpt lat="43.213154" lon="11.5093571"><ele>161.33333333333331</ele><time>2026-04-20T14:55:53.428Z</time></trkpt><trkpt lat="43.2132009" lon="11.5094496"><ele>161.16666666666666</ele><time>2026-04-20T14:55:54.429Z</time></trkpt><trkpt lat="43.2132507" lon="11.5095327"><ele>161.0</ele><time>2026-04-20T14:55:55.428Z</time></trkpt><trkpt lat="43.2133119" lon="11.5096156"><ele>161.4</ele><time>2026-04-20T14:55:56.428Z</time></trkpt><trkpt lat="43.2133787" lon="11.5096941"><ele>161.8</ele><time>2026-04-20T14:55:57.428Z</time></trkpt><trkpt lat="43.2134508" lon="11.5097765"><ele>162.20000000000002</ele><time>2026-04-20T14:55:58.428Z</time></trkpt><trkpt lat="43.213527" lon="11.5098623"><ele>162.60000000000002</ele><time>2026-04-20T14:55:59.428Z</time></trkpt><trkpt lat="43.2135973" lon="11.5099423"><ele>163.0</ele><time>2026-04-20T14:56:00.429Z</time></trkpt><trkpt lat="43.2136618" lon="11.5100205"><ele>163.0</ele><time>2026-04-20T14:56:01.428Z</time></trkpt><trkpt lat="43.2137288" lon="11.5101046"><ele>163.0</ele><time>2026-04-20T14:56:02.429Z</time></trkpt><trkpt lat="43.2137925" lon="11.5101919"><ele>163.0</ele><time>2026-04-20T14:56:03.429Z</time></trkpt><trkpt lat="43.2138482" lon="11.5102757"><ele>163.0</ele><time>2026-04-20T14:56:04.43Z</time></trkpt><trkpt lat="43.2138968" lon="11.5103587"><ele>163.0</ele><time>2026-04-20T14:56:05.429Z</time></trkpt><trkpt lat="43.2139457" lon="11.5104466"><ele>163.0</ele><time>2026-04-20T14:56:06.429Z</time></trkpt><trkpt lat="43.2139956" lon="11.5105378"><ele>163.16666666666669</ele><time>2026-04-20T14:56:07.429Z</time></trkpt><trkpt lat="43.2140452" lon="11.5106316"><ele>163.33333333333334</ele><time>2026-04-20T14:56:08.429Z</time></trkpt><trkpt lat="43.2140957" lon="11.5107273"><ele>163.5</ele><time>2026-04-20T14:56:09.429Z</time></trkpt><trkpt lat="43.2141427" lon="11.5108153"><ele>163.66666666666666</ele><time>2026-04-20T14:56:10.429Z</time></trkpt><trkpt lat="43.2141836" lon="11.510896"><ele>163.83333333333331</ele><time>2026-04-20T14:56:11.429Z</time></trkpt><trkpt lat="43.2142168" lon="11.5109762"><ele>164.0</ele><time>2026-04-20T14:56:12.429Z</time></trkpt><trkpt lat="43.2142426" lon="11.5110676"><ele>164.0</ele><time>2026-04-20T14:56:13.429Z</time></trkpt><trkpt lat="43.2142594" lon="11.5111661"><ele>164.0</ele><time>2026-04-20T14:56:14.429Z</time></trkpt><trkpt lat="43.2142656" lon="11.5112691"><ele>164.0</ele><time>2026-04-20T14:56:15.429Z</time></trkpt><trkpt lat="43.2142569" lon="11.5113758"><ele>164.0</ele><time>2026-04-20T14:56:16.43Z</time></trkpt><trkpt lat="43.2142339" lon="11.5114875"><ele>164.0</ele><time>2026-04-20T14:56:17.429Z</time></trkpt><trkpt lat="43.2142053" lon="11.5115989"><ele>164.0</ele><time>2026-04-20T14:56:18.429Z</time></trkpt><trkpt lat="43.2141829" lon="11.5117055"><ele>164.28571428571428</ele><time>2026-04-20T14:56:19.429Z</time></trkpt><trkpt lat="43.2141764" lon="11.5118093"><ele>164.57142857142856</ele><time>2026-04-20T14:56:20.429Z</time></trkpt><trkpt lat="43.2141839" lon="11.5119052"><ele>164.85714285714283</ele><time>2026-04-20T14:56:21.429Z</time></trkpt><trkpt lat="43.2142045" lon="11.5119915"><ele>165.14285714285714</ele><time>2026-04-20T14:56:22.429Z</time></trkpt><trkpt lat="43.2142369" lon="11.5120802"><ele>165.42857142857144</ele><time>2026-04-20T14:56:23.429Z</time></trkpt><trkpt lat="43.2142747" lon="11.5121651"><ele>165.7142857142857</ele><time>2026-04-20T14:56:24.429Z</time></trkpt><trkpt lat="43.2143186" lon="11.5122478"><ele>166.0</ele><time>2026-04-20T14:56:25.43Z</time></trkpt><trkpt lat="43.2143677" lon="11.5123183"><ele>166.33333333333334</ele><time>2026-04-20T14:56:26.429Z</time></trkpt><trkpt lat="43.2144255" lon="11.5123763"><ele>166.66666666666669</ele><time>2026-04-20T14:56:27.429Z</time></trkpt><trkpt lat="43.2144885" lon="11.5124285"><ele>167.0</ele><time>2026-04-20T14:56:28.429Z</time></trkpt><trkpt lat="43.2145529" lon="11.5124796"><ele>167.33333333333334</ele><time>2026-04-20T14:56:29.429Z</time></trkpt><trkpt lat="43.2146182" lon="11.5125364"><ele>167.66666666666666</ele><time>2026-04-20T14:56:30.429Z</time></trkpt><trkpt lat="43.2146848" lon="11.5125965"><ele>168.0</ele><time>2026-04-20T14:56:31.429Z</time></trkpt><trkpt lat="43.2147503" lon="11.512656"><ele>168.0</ele><time>2026-04-20T14:56:32.429Z</time></trkpt><trkpt lat="43.2148166" lon="11.512721"><ele>168.0</ele><time>2026-04-20T14:56:33.429Z</time></trkpt><trkpt lat="43.2148817" lon="11.5127919"><ele>168.0</ele><time>2026-04-20T14:56:34.429Z</time></trkpt><trkpt lat="43.214946" lon="11.512861"><ele>168.0</ele><time>2026-04-20T14:56:35.429Z</time></trkpt><trkpt lat="43.21501" lon="11.5129272"><ele>168.0</ele><time>2026-04-20T14:56:36.429Z</time></trkpt><trkpt lat="43.2150765" lon="11.5129909"><ele>168.0</ele><time>2026-04-20T14:56:37.429Z</time></trkpt><trkpt lat="43.2151448" lon="11.5130589"><ele>170.0</ele><time>2026-04-20T14:56:38.429Z</time></trkpt><trkpt lat="43.2152134" lon="11.5131373"><ele>172.0</ele><time>2026-04-20T14:56:39.43Z</time></trkpt><trkpt lat="43.2152792" lon="11.5132264"><ele>174.0</ele><time>2026-04-20T14:56:40.43Z</time></trkpt><trkpt lat="43.2153403" lon="11.5133238"><ele>176.0</ele><time>2026-04-20T14:56:41.429Z</time></trkpt><trkpt lat="43.2153931" lon="11.5134221"><ele>178.0</ele><time>2026-04-20T14:56:42.429Z</time></trkpt><trkpt lat="43.2154318" lon="11.5135161"><ele>180.0</ele><time>2026-04-20T14:56:43.429Z</time></trkpt><trkpt lat="43.21546" lon="11.5136137"><ele>180.0</ele><time>2026-04-20T14:56:44.43Z</time></trkpt><trkpt lat="43.2154805" lon="11.5137169"><ele>180.0</ele><time>2026-04-20T14:56:45.429Z</time></trkpt><trkpt lat="43.2154935" lon="11.513815"><ele>180.0</ele><time>2026-04-20T14:56:46.429Z</time></trkpt><trkpt lat="43.2155108" lon="11.5139853"><ele>180.0</ele><time>2026-04-20T14:56:48.43Z</time></trkpt><trkpt lat="43.2155261" lon="11.5140841"><ele>180.0</ele><time>2026-04-20T14:56:49.429Z</time></trkpt><trkpt lat="43.2155498" lon="11.5141837"><ele>180.0</ele><time>2026-04-20T14:56:50.43Z</time></trkpt><trkpt lat="43.215581" lon="11.5142824"><ele>180.4</ele><time>2026-04-20T14:56:51.43Z</time></trkpt><trkpt lat="43.2156166" lon="11.514381"><ele>180.8</ele><time>2026-04-20T14:56:52.43Z</time></trkpt><trkpt lat="43.215654" lon="11.5144881"><ele>181.2</ele><time>2026-04-20T14:56:53.431Z</time></trkpt><trkpt lat="43.2156942" lon="11.5146011"><ele>181.6</ele><time>2026-04-20T14:56:54.43Z</time></trkpt><trkpt lat="43.2157365" lon="11.5147177"><ele>182.0</ele><time>2026-04-20T14:56:55.43Z</time></trkpt><trkpt lat="43.2157808" lon="11.514836"><ele>180.39999999999998</ele><time>2026-04-20T14:56:56.431Z</time></trkpt><trkpt lat="43.2158238" lon="11.5149551"><ele>178.79999999999998</ele><time>2026-04-20T14:56:57.43Z</time></trkpt><trkpt lat="43.2158658" lon="11.5150729"><ele>177.2</ele><time>2026-04-20T14:56:58.43Z</time></trkpt><trkpt lat="43.2159037" lon="11.5151895"><ele>175.6</ele><time>2026-04-20T14:56:59.43Z</time></trkpt><trkpt lat="43.2159385" lon="11.5153061"><ele>174.0</ele><time>2026-04-20T14:57:00.43Z</time></trkpt><trkpt lat="43.2159762" lon="11.5154205"><ele>172.79999999999998</ele><time>2026-04-20T14:57:01.43Z</time></trkpt><trkpt lat="43.2160209" lon="11.515536"><ele>171.6</ele><time>2026-04-20T14:57:02.43Z</time></trkpt><trkpt lat="43.2160689" lon="11.5156471"><ele>170.4</ele><time>2026-04-20T14:57:03.431Z</time></trkpt><trkpt lat="43.2161203" lon="11.5157637"><ele>169.2</ele><time>2026-04-20T14:57:04.43Z</time></trkpt><trkpt lat="43.2161769" lon="11.5158879"><ele>168.0</ele><time>2026-04-20T14:57:05.43Z</time></trkpt><trkpt lat="43.2162402" lon="11.5160194"><ele>168.0</ele><time>2026-04-20T14:57:06.43Z</time></trkpt><trkpt lat="43.2163078" lon="11.5161554"><ele>168.0</ele><time>2026-04-20T14:57:07.43Z</time></trkpt><trkpt lat="43.2163723" lon="11.5162852"><ele>168.0</ele><time>2026-04-20T14:57:08.43Z</time></trkpt><trkpt lat="43.2164382" lon="11.5164092"><ele>168.0</ele><time>2026-04-20T14:57:09.43Z</time></trkpt><trkpt lat="43.2165032" lon="11.5165272"><ele>168.2</ele><time>2026-04-20T14:57:10.43Z</time></trkpt><trkpt lat="43.2165711" lon="11.5166497"><ele>168.4</ele><time>2026-04-20T14:57:11.43Z</time></trkpt><trkpt lat="43.2166343" lon="11.5167721"><ele>168.6</ele><time>2026-04-20T14:57:12.43Z</time></trkpt><trkpt lat="43.2166948" lon="11.5169"><ele>168.79999999999998</ele><time>2026-04-20T14:57:13.43Z</time></trkpt><trkpt lat="43.2167533" lon="11.5170271"><ele>169.0</ele><time>2026-04-20T14:57:14.43Z</time></trkpt><trkpt lat="43.2168118" lon="11.5171571"><ele>169.2</ele><time>2026-04-20T14:57:15.43Z</time></trkpt><trkpt lat="43.2168672" lon="11.5172907"><ele>169.39999999999998</ele><time>2026-04-20T14:57:16.43Z</time></trkpt><trkpt lat="43.2169193" lon="11.5174228"><ele>169.6</ele><time>2026-04-20T14:57:17.43Z</time></trkpt><trkpt lat="43.216973" lon="11.5175579"><ele>169.8</ele><time>2026-04-20T14:57:18.431Z</time></trkpt><trkpt lat="43.2170291" lon="11.5176959"><ele>170.0</ele><time>2026-04-20T14:57:19.431Z</time></trkpt><trkpt lat="43.2170847" lon="11.517837"><ele>169.8</ele><time>2026-04-20T14:57:20.43Z</time></trkpt><trkpt lat="43.2171398" lon="11.5179773"><ele>169.6</ele><time>2026-04-20T14:57:21.43Z</time></trkpt><trkpt lat="43.2171935" lon="11.5181158"><ele>169.39999999999998</ele><time>2026-04-20T14:57:22.431Z</time></trkpt><trkpt lat="43.2172444" lon="11.5182484"><ele>169.2</ele><time>2026-04-20T14:57:23.43Z</time></trkpt><trkpt lat="43.2172901" lon="11.5183713"><ele>169.0</ele><time>2026-04-20T14:57:24.43Z</time></trkpt><trkpt lat="43.2173315" lon="11.5184882"><ele>169.83333333333334</ele><time>2026-04-20T14:57:25.43Z</time></trkpt><trkpt lat="43.2173682" lon="11.5186016"><ele>170.66666666666669</ele><time>2026-04-20T14:57:26.43Z</time></trkpt><trkpt lat="43.2174022" lon="11.5187129"><ele>171.5</ele><time>2026-04-20T14:57:27.43Z</time></trkpt><trkpt lat="43.2174284" lon="11.5188209"><ele>172.33333333333334</ele><time>2026-04-20T14:57:28.43Z</time></trkpt><trkpt lat="43.2174493" lon="11.5189397"><ele>173.16666666666666</ele><time>2026-04-20T14:57:29.43Z</time></trkpt><trkpt lat="43.2174682" lon="11.5190692"><ele>174.0</ele><time>2026-04-20T14:57:30.43Z</time></trkpt><trkpt lat="43.2174779" lon="11.5192035"><ele>174.0</ele><time>2026-04-20T14:57:31.43Z</time></trkpt><trkpt lat="43.2174761" lon="11.5193407"><ele>174.0</ele><time>2026-04-20T14:57:32.431Z</time></trkpt><trkpt lat="43.2174637" lon="11.5194743"><ele>174.0</ele><time>2026-04-20T14:57:33.43Z</time></trkpt><trkpt lat="43.2174474" lon="11.5196046"><ele>174.0</ele><time>2026-04-20T14:57:34.43Z</time></trkpt><trkpt lat="43.2174349" lon="11.5197304"><ele>174.0</ele><time>2026-04-20T14:57:35.43Z</time></trkpt><trkpt lat="43.217426" lon="11.5198523"><ele>175.0</ele><time>2026-04-20T14:57:36.43Z</time></trkpt><trkpt lat="43.2174212" lon="11.5199733"><ele>176.0</ele><time>2026-04-20T14:57:37.43Z</time></trkpt><trkpt lat="43.2174159" lon="11.5200948"><ele>177.0</ele><time>2026-04-20T14:57:38.43Z</time></trkpt><trkpt lat="43.2174092" lon="11.5202149"><ele>178.0</ele><time>2026-04-20T14:57:39.431Z</time></trkpt><trkpt lat="43.2174008" lon="11.5203361"><ele>179.0</ele><time>2026-04-20T14:57:40.431Z</time></trkpt><trkpt lat="43.2173951" lon="11.5204574"><ele>180.0</ele><time>2026-04-20T14:57:41.43Z</time></trkpt><trkpt lat="43.2173897" lon="11.5205686"><ele>179.83333333333334</ele><time>2026-04-20T14:57:42.431Z</time></trkpt><trkpt lat="43.2173874" lon="11.5206553"><ele>179.66666666666666</ele><time>2026-04-20T14:57:43.431Z</time></trkpt><trkpt lat="43.2173933" lon="11.5208038"><ele>179.5</ele><time>2026-04-20T14:57:45.431Z</time></trkpt><trkpt lat="43.2174347" lon="11.5209632"><ele>179.33333333333331</ele><time>2026-04-20T14:57:47.431Z</time></trkpt><trkpt lat="43.2174622" lon="11.5210502"><ele>179.16666666666666</ele><time>2026-04-20T14:57:48.431Z</time></trkpt><trkpt lat="43.2174959" lon="11.5211314"><ele>179.0</ele><time>2026-04-20T14:57:49.431Z</time></trkpt><trkpt lat="43.2175731" lon="11.5212507"><ele>179.0</ele><time>2026-04-20T14:57:51.431Z</time></trkpt><trkpt lat="43.217663" lon="11.5213628"><ele>179.0</ele><time>2026-04-20T14:57:53.431Z</time></trkpt><trkpt lat="43.2177234" lon="11.5214205"><ele>179.0</ele><time>2026-04-20T14:57:54.431Z</time></trkpt><trkpt lat="43.2177982" lon="11.5214698"><ele>179.0</ele><time>2026-04-20T14:57:55.432Z</time></trkpt><trkpt lat="43.2178817" lon="11.5215135"><ele>179.0</ele><time>2026-04-20T14:57:56.431Z</time></trkpt><trkpt lat="43.2179608" lon="11.5215541"><ele>179.0</ele><time>2026-04-20T14:57:57.431Z</time></trkpt><trkpt lat="43.2180296" lon="11.521594"><ele>179.0</ele><time>2026-04-20T14:57:58.431Z</time></trkpt><trkpt lat="43.2180855" lon="11.5216391"><ele>179.0</ele><time>2026-04-20T14:57:59.431Z</time></trkpt><trkpt lat="43.2181312" lon="11.521707"><ele>179.0</ele><time>2026-04-20T14:58:00.432Z</time></trkpt><trkpt lat="43.2181613" lon="11.5218065"><ele>179.0</ele><time>2026-04-20T14:58:01.431Z</time></trkpt><trkpt lat="43.2181749" lon="11.521932"><ele>179.0</ele><time>2026-04-20T14:58:02.431Z</time></trkpt><trkpt lat="43.2181766" lon="11.5220584"><ele>179.16666666666666</ele><time>2026-04-20T14:58:03.431Z</time></trkpt><trkpt lat="43.2181829" lon="11.5221687"><ele>179.33333333333331</ele><time>2026-04-20T14:58:04.431Z</time></trkpt><trkpt lat="43.2181988" lon="11.5222802"><ele>179.5</ele><time>2026-04-20T14:58:05.431Z</time></trkpt><trkpt lat="43.2182257" lon="11.5223962"><ele>179.66666666666666</ele><time>2026-04-20T14:58:06.431Z</time></trkpt><trkpt lat="43.2182578" lon="11.52251"><ele>179.83333333333334</ele><time>2026-04-20T14:58:07.432Z</time></trkpt><trkpt lat="43.2182912" lon="11.5226184"><ele>180.0</ele><time>2026-04-20T14:58:08.431Z</time></trkpt><trkpt lat="43.2183233" lon="11.5227208"><ele>180.0</ele><time>2026-04-20T14:58:09.431Z</time></trkpt><trkpt lat="43.2183531" lon="11.5228213"><ele>180.0</ele><time>2026-04-20T14:58:10.432Z</time></trkpt><trkpt lat="43.2183823" lon="11.5229212"><ele>180.0</ele><time>2026-04-20T14:58:11.431Z</time></trkpt><trkpt lat="43.2184148" lon="11.5230201"><ele>180.0</ele><time>2026-04-20T14:58:12.431Z</time></trkpt><trkpt lat="43.2184538" lon="11.5231187"><ele>180.0</ele><time>2026-04-20T14:58:13.431Z</time></trkpt><trkpt lat="43.2184972" lon="11.5232162"><ele>180.0</ele><time>2026-04-20T14:58:14.431Z</time></trkpt><trkpt lat="43.218544" lon="11.5233138"><ele>178.66666666666666</ele><time>2026-04-20T14:58:15.431Z</time></trkpt><trkpt lat="43.2185925" lon="11.523409"><ele>177.33333333333334</ele><time>2026-04-20T14:58:16.431Z</time></trkpt><trkpt lat="43.2186402" lon="11.5235019"><ele>176.0</ele><time>2026-04-20T14:58:17.431Z</time></trkpt><trkpt lat="43.2186908" lon="11.5235936"><ele>174.66666666666669</ele><time>2026-04-20T14:58:18.431Z</time></trkpt><trkpt lat="43.2187402" lon="11.5236784"><ele>173.33333333333334</ele><time>2026-04-20T14:58:19.431Z</time></trkpt><trkpt lat="43.2187901" lon="11.5237614"><ele>172.0</ele><time>2026-04-20T14:58:20.431Z</time></trkpt><trkpt lat="43.218837" lon="11.5238408"><ele>172.0</ele><time>2026-04-20T14:58:21.431Z</time></trkpt><trkpt lat="43.2188807" lon="11.523919"><ele>172.0</ele><time>2026-04-20T14:58:22.431Z</time></trkpt><trkpt lat="43.2189284" lon="11.5240025"><ele>172.0</ele><time>2026-04-20T14:58:23.431Z</time></trkpt><trkpt lat="43.2189861" lon="11.5240958"><ele>172.0</ele><time>2026-04-20T14:58:24.431Z</time></trkpt><trkpt lat="43.2190432" lon="11.5241886"><ele>172.0</ele><time>2026-04-20T14:58:25.431Z</time></trkpt><trkpt lat="43.2191009" lon="11.5242831"><ele>172.0</ele><time>2026-04-20T14:58:26.431Z</time></trkpt><trkpt lat="43.2191551" lon="11.5243775"><ele>172.0</ele><time>2026-04-20T14:58:27.432Z</time></trkpt><trkpt lat="43.2192086" lon="11.5244722"><ele>172.0</ele><time>2026-04-20T14:58:28.431Z</time></trkpt><trkpt lat="43.2192628" lon="11.5245656"><ele>172.0</ele><time>2026-04-20T14:58:29.431Z</time></trkpt><trkpt lat="43.2193175" lon="11.5246562"><ele>172.0</ele><time>2026-04-20T14:58:30.431Z</time></trkpt><trkpt lat="43.2193771" lon="11.5247492"><ele>172.0</ele><time>2026-04-20T14:58:31.431Z</time></trkpt><trkpt lat="43.2194423" lon="11.524841"><ele>172.0</ele><time>2026-04-20T14:58:32.433Z</time></trkpt><trkpt lat="43.2195132" lon="11.5249243"><ele>172.16666666666669</ele><time>2026-04-20T14:58:33.432Z</time></trkpt><trkpt lat="43.2195883" lon="11.5249872"><ele>172.33333333333334</ele><time>2026-04-20T14:58:34.432Z</time></trkpt><trkpt lat="43.2196692" lon="11.5250303"><ele>172.5</ele><time>2026-04-20T14:58:35.432Z</time></trkpt><trkpt lat="43.2197515" lon="11.525051"><ele>172.66666666666666</ele><time>2026-04-20T14:58:36.432Z</time></trkpt><trkpt lat="43.2198314" lon="11.5250496"><ele>172.83333333333331</ele><time>2026-04-20T14:58:37.432Z</time></trkpt><trkpt lat="43.2199118" lon="11.5250282"><ele>173.0</ele><time>2026-04-20T14:58:38.432Z</time></trkpt><trkpt lat="43.2199949" lon="11.524994"><ele>173.0</ele><time>2026-04-20T14:58:39.432Z</time></trkpt><trkpt lat="43.2200822" lon="11.5249535"><ele>173.0</ele><time>2026-04-20T14:58:40.432Z</time></trkpt><trkpt lat="43.2201734" lon="11.5249126"><ele>173.0</ele><time>2026-04-20T14:58:41.432Z</time></trkpt><trkpt lat="43.220263" lon="11.5248733"><ele>173.0</ele><time>2026-04-20T14:58:42.432Z</time></trkpt><trkpt lat="43.2203508" lon="11.5248457"><ele>173.0</ele><time>2026-04-20T14:58:43.432Z</time></trkpt><trkpt lat="43.2204433" lon="11.5248418"><ele>173.0</ele><time>2026-04-20T14:58:44.432Z</time></trkpt><trkpt lat="43.2205395" lon="11.524875"><ele>173.0</ele><time>2026-04-20T14:58:45.432Z</time></trkpt><trkpt lat="43.2206307" lon="11.5249436"><ele>173.0</ele><time>2026-04-20T14:58:46.432Z</time></trkpt><trkpt lat="43.220709" lon="11.5250204"><ele>173.0</ele><time>2026-04-20T14:58:47.432Z</time></trkpt><trkpt lat="43.2207814" lon="11.5250929"><ele>173.0</ele><time>2026-04-20T14:58:48.432Z</time></trkpt><trkpt lat="43.2208547" lon="11.5251569"><ele>174.0</ele><time>2026-04-20T14:58:49.433Z</time></trkpt><trkpt lat="43.2209306" lon="11.5252086"><ele>175.0</ele><time>2026-04-20T14:58:50.432Z</time></trkpt><trkpt lat="43.2210142" lon="11.5252443"><ele>176.0</ele><time>2026-04-20T14:58:51.432Z</time></trkpt><trkpt lat="43.2211031" lon="11.5252722"><ele>177.0</ele><time>2026-04-20T14:58:52.433Z</time></trkpt><trkpt lat="43.221197" lon="11.5252922"><ele>178.0</ele><time>2026-04-20T14:58:53.432Z</time></trkpt><trkpt lat="43.2212871" lon="11.5253104"><ele>178.0</ele><time>2026-04-20T14:58:54.432Z</time></trkpt><trkpt lat="43.2213714" lon="11.5253236"><ele>178.0</ele><time>2026-04-20T14:58:55.432Z</time></trkpt><trkpt lat="43.2214495" lon="11.5253368"><ele>178.0</ele><time>2026-04-20T14:58:56.433Z</time></trkpt><trkpt lat="43.2215207" lon="11.5253497"><ele>178.0</ele><time>2026-04-20T14:58:57.432Z</time></trkpt><trkpt lat="43.2216448" lon="11.525377"><ele>178.0</ele><time>2026-04-20T14:58:59.433Z</time></trkpt><trkpt lat="43.2217176" lon="11.5253873"><ele>178.0</ele><time>2026-04-20T14:59:00.433Z</time></trkpt><trkpt lat="43.2218007" lon="11.5253967"><ele>176.83333333333334</ele><time>2026-04-20T14:59:01.432Z</time></trkpt><trkpt lat="43.2218941" lon="11.5254071"><ele>175.66666666666669</ele><time>2026-04-20T14:59:02.432Z</time></trkpt><trkpt lat="43.2219847" lon="11.5254208"><ele>174.5</ele><time>2026-04-20T14:59:03.432Z</time></trkpt><trkpt lat="43.222068" lon="11.5254339"><ele>173.33333333333334</ele><time>2026-04-20T14:59:04.432Z</time></trkpt><trkpt lat="43.2221513" lon="11.5254478"><ele>172.16666666666666</ele><time>2026-04-20T14:59:05.432Z</time></trkpt><trkpt lat="43.2222325" lon="11.5254635"><ele>171.0</ele><time>2026-04-20T14:59:06.433Z</time></trkpt><trkpt lat="43.2223043" lon="11.5254756"><ele>170.7142857142857</ele><time>2026-04-20T14:59:07.432Z</time></trkpt><trkpt lat="43.222373" lon="11.5254844"><ele>170.42857142857142</ele><time>2026-04-20T14:59:08.432Z</time></trkpt><trkpt lat="43.2224432" lon="11.5254888"><ele>170.14285714285714</ele><time>2026-04-20T14:59:09.432Z</time></trkpt><trkpt lat="43.2225219" lon="11.5254912"><ele>169.85714285714283</ele><time>2026-04-20T14:59:10.432Z</time></trkpt><trkpt lat="43.2226001" lon="11.5254938"><ele>169.57142857142856</ele><time>2026-04-20T14:59:11.432Z</time></trkpt><trkpt lat="43.2226726" lon="11.5255057"><ele>169.28571428571428</ele><time>2026-04-20T14:59:12.432Z</time></trkpt><trkpt lat="43.2227413" lon="11.5255361"><ele>169.0</ele><time>2026-04-20T14:59:13.432Z</time></trkpt><trkpt lat="43.2228091" lon="11.5255869"><ele>169.0</ele><time>2026-04-20T14:59:14.433Z</time></trkpt><trkpt lat="43.2228923" lon="11.5256698"><ele>169.0</ele><time>2026-04-20T14:59:15.432Z</time></trkpt><trkpt lat="43.2229676" lon="11.5257637"><ele>169.0</ele><time>2026-04-20T14:59:16.432Z</time></trkpt><trkpt lat="43.2230407" lon="11.525849"><ele>169.0</ele><time>2026-04-20T14:59:17.433Z</time></trkpt><trkpt lat="43.2231067" lon="11.5259091"><ele>169.0</ele><time>2026-04-20T14:59:18.432Z</time></trkpt><trkpt lat="43.2231787" lon="11.5259541"><ele>170.16666666666669</ele><time>2026-04-20T14:59:19.433Z</time></trkpt><trkpt lat="43.2232534" lon="11.5259839"><ele>171.33333333333334</ele><time>2026-04-20T14:59:20.432Z</time></trkpt><trkpt lat="43.2233318" lon="11.5260013"><ele>172.5</ele><time>2026-04-20T14:59:21.433Z</time></trkpt><trkpt lat="43.2234078" lon="11.5260045"><ele>173.66666666666666</ele><time>2026-04-20T14:59:22.433Z</time></trkpt><trkpt lat="43.2234876" lon="11.5259982"><ele>174.83333333333331</ele><time>2026-04-20T14:59:23.433Z</time></trkpt><trkpt lat="43.2235737" lon="11.5259897"><ele>176.0</ele><time>2026-04-20T14:59:24.434Z</time></trkpt><trkpt lat="43.2236647" lon="11.5259854"><ele>176.0</ele><time>2026-04-20T14:59:25.434Z</time></trkpt><trkpt lat="43.2237583" lon="11.5259858"><ele>176.0</ele><time>2026-04-20T14:59:26.434Z</time></trkpt><trkpt lat="43.2238503" lon="11.5259853"><ele>176.0</ele><time>2026-04-20T14:59:27.434Z</time></trkpt><trkpt lat="43.2239404" lon="11.5259793"><ele>176.0</ele><time>2026-04-20T14:59:28.433Z</time></trkpt><trkpt lat="43.2240257" lon="11.5259663"><ele>176.0</ele><time>2026-04-20T14:59:29.433Z</time></trkpt><trkpt lat="43.2241072" lon="11.5259468"><ele>176.0</ele><time>2026-04-20T14:59:30.434Z</time></trkpt><trkpt lat="43.2241893" lon="11.5259302"><ele>176.16666666666666</ele><time>2026-04-20T14:59:31.433Z</time></trkpt><trkpt lat="43.2242711" lon="11.5259243"><ele>176.33333333333331</ele><time>2026-04-20T14:59:32.433Z</time></trkpt><trkpt lat="43.2243555" lon="11.5259288"><ele>176.5</ele><time>2026-04-20T14:59:33.433Z</time></trkpt><trkpt lat="43.2244438" lon="11.5259399"><ele>176.66666666666666</ele><time>2026-04-20T14:59:34.433Z</time></trkpt><trkpt lat="43.2245351" lon="11.5259599"><ele>176.83333333333334</ele><time>2026-04-20T14:59:35.434Z</time></trkpt><trkpt lat="43.224625" lon="11.5259836"><ele>177.0</ele><time>2026-04-20T14:59:36.433Z</time></trkpt><trkpt lat="43.2247078" lon="11.5260072"><ele>177.0</ele><time>2026-04-20T14:59:37.433Z</time></trkpt><trkpt lat="43.2247893" lon="11.526031"><ele>177.0</ele><time>2026-04-20T14:59:38.433Z</time></trkpt><trkpt lat="43.2248725" lon="11.5260562"><ele>177.0</ele><time>2026-04-20T14:59:39.433Z</time></trkpt><trkpt lat="43.2249579" lon="11.5260825"><ele>177.0</ele><time>2026-04-20T14:59:40.433Z</time></trkpt><trkpt lat="43.2250489" lon="11.5261104"><ele>177.0</ele><time>2026-04-20T14:59:41.434Z</time></trkpt><trkpt lat="43.2251442" lon="11.5261365"><ele>177.0</ele><time>2026-04-20T14:59:42.433Z</time></trkpt><trkpt lat="43.2252423" lon="11.526163"><ele>176.6</ele><time>2026-04-20T14:59:43.433Z</time></trkpt><trkpt lat="43.2253382" lon="11.526191"><ele>176.2</ele><time>2026-04-20T14:59:44.434Z</time></trkpt><trkpt lat="43.2254299" lon="11.5262195"><ele>175.8</ele><time>2026-04-20T14:59:45.433Z</time></trkpt><trkpt lat="43.2255208" lon="11.5262476"><ele>175.4</ele><time>2026-04-20T14:59:46.433Z</time></trkpt><trkpt lat="43.2256148" lon="11.5262757"><ele>175.0</ele><time>2026-04-20T14:59:47.433Z</time></trkpt><trkpt lat="43.2257104" lon="11.5263054"><ele>175.0</ele><time>2026-04-20T14:59:48.433Z</time></trkpt><trkpt lat="43.2257989" lon="11.5263363"><ele>175.0</ele><time>2026-04-20T14:59:49.433Z</time></trkpt><trkpt lat="43.225877" lon="11.5263696"><ele>175.0</ele><time>2026-04-20T14:59:50.433Z</time></trkpt><trkpt lat="43.2259476" lon="11.5264003"><ele>175.0</ele><time>2026-04-20T14:59:51.433Z</time></trkpt><trkpt lat="43.2260166" lon="11.5264162"><ele>175.0</ele><time>2026-04-20T14:59:52.433Z</time></trkpt><trkpt lat="43.2260929" lon="11.526414"><ele>175.0</ele><time>2026-04-20T14:59:53.433Z</time></trkpt><trkpt lat="43.226182" lon="11.526408"><ele>175.0</ele><time>2026-04-20T14:59:54.434Z</time></trkpt><trkpt lat="43.2262763" lon="11.5264002"><ele>175.0</ele><time>2026-04-20T14:59:55.433Z</time></trkpt><trkpt lat="43.2263685" lon="11.5263969"><ele>175.0</ele><time>2026-04-20T14:59:56.433Z</time></trkpt><trkpt lat="43.2264606" lon="11.5263951"><ele>175.0</ele><time>2026-04-20T14:59:57.434Z</time></trkpt><trkpt lat="43.2265427" lon="11.5263894"><ele>175.0</ele><time>2026-04-20T14:59:58.433Z</time></trkpt><trkpt lat="43.2266242" lon="11.5263878"><ele>175.0</ele><time>2026-04-20T14:59:59.433Z</time></trkpt><trkpt lat="43.226708" lon="11.5263854"><ele>175.33333333333334</ele><time>2026-04-20T15:00:00.434Z</time></trkpt><trkpt lat="43.2267931" lon="11.5263806"><ele>175.66666666666669</ele><time>2026-04-20T15:00:01.433Z</time></trkpt><trkpt lat="43.2268764" lon="11.5263759"><ele>176.0</ele><time>2026-04-20T15:00:02.433Z</time></trkpt><trkpt lat="43.2269514" lon="11.5263722"><ele>176.33333333333334</ele><time>2026-04-20T15:00:03.433Z</time></trkpt><trkpt lat="43.227023" lon="11.5263718"><ele>176.66666666666666</ele><time>2026-04-20T15:00:04.433Z</time></trkpt><trkpt lat="43.2270933" lon="11.5263824"><ele>177.0</ele><time>2026-04-20T15:00:05.434Z</time></trkpt><trkpt lat="43.227162" lon="11.5264033"><ele>177.0</ele><time>2026-04-20T15:00:06.433Z</time></trkpt><trkpt lat="43.2272258" lon="11.5264295"><ele>177.0</ele><time>2026-04-20T15:00:07.433Z</time></trkpt><trkpt lat="43.227287" lon="11.5264682"><ele>177.0</ele><time>2026-04-20T15:00:08.434Z</time></trkpt><trkpt lat="43.2273481" lon="11.526525"><ele>177.0</ele><time>2026-04-20T15:00:09.433Z</time></trkpt><trkpt lat="43.2274151" lon="11.5265984"><ele>177.0</ele><time>2026-04-20T15:00:10.435Z</time></trkpt><trkpt lat="43.2274847" lon="11.5266797"><ele>177.0</ele><time>2026-04-20T15:00:11.433Z</time></trkpt><trkpt lat="43.227552" lon="11.5267564"><ele>176.33333333333334</ele><time>2026-04-20T15:00:12.434Z</time></trkpt><trkpt lat="43.2276181" lon="11.5268247"><ele>175.66666666666666</ele><time>2026-04-20T15:00:13.434Z</time></trkpt><trkpt lat="43.2276796" lon="11.5268831"><ele>175.0</ele><time>2026-04-20T15:00:14.434Z</time></trkpt><trkpt lat="43.2277384" lon="11.5269447"><ele>174.33333333333331</ele><time>2026-04-20T15:00:15.434Z</time></trkpt><trkpt lat="43.227797" lon="11.5270062"><ele>173.66666666666666</ele><time>2026-04-20T15:00:16.434Z</time></trkpt><trkpt lat="43.2278914" lon="11.5271028"><ele>173.0</ele><time>2026-04-20T15:00:18.435Z</time></trkpt><trkpt lat="43.2279658" lon="11.5271762"><ele>172.85714285714286</ele><time>2026-04-20T15:00:20.434Z</time></trkpt><trkpt lat="43.2280216" lon="11.527223"><ele>172.71428571428572</ele><time>2026-04-20T15:00:23.434Z</time></trkpt><trkpt lat="43.2281289" lon="11.5272434"><ele>172.57142857142858</ele><time>2026-04-20T15:02:21.436Z</time></trkpt><trkpt lat="43.2281978" lon="11.5272792"><ele>172.42857142857144</ele><time>2026-04-20T15:02:22.436Z</time></trkpt><trkpt lat="43.2282613" lon="11.5273138"><ele>172.28571428571428</ele><time>2026-04-20T15:02:23.437Z</time></trkpt><trkpt lat="43.2283228" lon="11.5273433"><ele>172.14285714285717</ele><time>2026-04-20T15:02:24.436Z</time></trkpt><trkpt lat="43.2283881" lon="11.5273714"><ele>172.0</ele><time>2026-04-20T15:02:25.437Z</time></trkpt><trkpt lat="43.2284567" lon="11.5274002"><ele>171.33333333333334</ele><time>2026-04-20T15:02:26.436Z</time></trkpt><trkpt lat="43.2285207" lon="11.52743"><ele>170.66666666666669</ele><time>2026-04-20T15:02:27.436Z</time></trkpt><trkpt lat="43.2285817" lon="11.5274598"><ele>170.0</ele><time>2026-04-20T15:02:28.437Z</time></trkpt><trkpt lat="43.2286928" lon="11.5275317"><ele>169.33333333333334</ele><time>2026-04-20T15:02:30.436Z</time></trkpt><trkpt lat="43.2287492" lon="11.5275842"><ele>168.66666666666666</ele><time>2026-04-20T15:02:31.436Z</time></trkpt><trkpt lat="43.2288169" lon="11.5276556"><ele>168.0</ele><time>2026-04-20T15:02:32.436Z</time></trkpt><trkpt lat="43.2288834" lon="11.5277363"><ele>168.0</ele><time>2026-04-20T15:02:33.436Z</time></trkpt><trkpt lat="43.2289544" lon="11.5278261"><ele>168.0</ele><time>2026-04-20T15:02:34.436Z</time></trkpt><trkpt lat="43.229027" lon="11.527921"><ele>168.0</ele><time>2026-04-20T15:02:35.436Z</time></trkpt><trkpt lat="43.2291031" lon="11.5280132"><ele>168.0</ele><time>2026-04-20T15:02:36.436Z</time></trkpt><trkpt lat="43.2291802" lon="11.5281062"><ele>168.0</ele><time>2026-04-20T15:02:37.436Z</time></trkpt><trkpt lat="43.2292551" lon="11.528196"><ele>169.2</ele><time>2026-04-20T15:02:38.436Z</time></trkpt><trkpt lat="43.2293278" lon="11.5282849"><ele>170.4</ele><time>2026-04-20T15:02:39.436Z</time></trkpt><trkpt lat="43.2293998" lon="11.5283734"><ele>171.6</ele><time>2026-04-20T15:02:40.437Z</time></trkpt><trkpt lat="43.2294703" lon="11.5284561"><ele>172.79999999999998</ele><time>2026-04-20T15:02:41.437Z</time></trkpt><trkpt lat="43.2295421" lon="11.5285378"><ele>174.0</ele><time>2026-04-20T15:02:42.437Z</time></trkpt><trkpt lat="43.2296149" lon="11.5286146"><ele>174.0</ele><time>2026-04-20T15:02:43.437Z</time></trkpt><trkpt lat="43.2296832" lon="11.5286801"><ele>174.0</ele><time>2026-04-20T15:02:44.437Z</time></trkpt><trkpt lat="43.2297384" lon="11.5287281"><ele>174.0</ele><time>2026-04-20T15:02:45.438Z</time></trkpt><trkpt lat="43.2298034" lon="11.5287707"><ele>174.0</ele><time>2026-04-20T15:02:47.437Z</time></trkpt><trkpt lat="43.2298848" lon="11.5287974"><ele>174.0</ele><time>2026-04-20T15:02:50.437Z</time></trkpt><trkpt lat="43.2299423" lon="11.5288515"><ele>174.0</ele><time>2026-04-20T15:02:51.438Z</time></trkpt><trkpt lat="43.2300113" lon="11.5289458"><ele>174.5</ele><time>2026-04-20T15:02:52.437Z</time></trkpt><trkpt lat="43.2300843" lon="11.5290597"><ele>175.0</ele><time>2026-04-20T15:02:53.438Z</time></trkpt><trkpt lat="43.230174" lon="11.5291936"><ele>175.5</ele><time>2026-04-20T15:02:54.438Z</time></trkpt><trkpt lat="43.2302784" lon="11.5293358"><ele>176.0</ele><time>2026-04-20T15:02:55.437Z</time></trkpt><trkpt lat="43.230393" lon="11.5294836"><ele>174.66666666666666</ele><time>2026-04-20T15:02:56.438Z</time></trkpt><trkpt lat="43.2305147" lon="11.5296392"><ele>173.33333333333334</ele><time>2026-04-20T15:02:57.438Z</time></trkpt><trkpt lat="43.2306282" lon="11.5297946"><ele>172.0</ele><time>2026-04-20T15:02:58.437Z</time></trkpt><trkpt lat="43.2307373" lon="11.5299476"><ele>172.0</ele><time>2026-04-20T15:02:59.437Z</time></trkpt><trkpt lat="43.2308449" lon="11.5300934"><ele>172.0</ele><time>2026-04-20T15:03:00.438Z</time></trkpt><trkpt lat="43.230951" lon="11.5302362"><ele>172.0</ele><time>2026-04-20T15:03:01.437Z</time></trkpt><trkpt lat="43.2310522" lon="11.5303751"><ele>172.0</ele><time>2026-04-20T15:03:02.437Z</time></trkpt><trkpt lat="43.2311497" lon="11.5305154"><ele>171.25</ele><time>2026-04-20T15:03:03.437Z</time></trkpt><trkpt lat="43.2312428" lon="11.5306646"><ele>170.5</ele><time>2026-04-20T15:03:04.438Z</time></trkpt><trkpt lat="43.2313277" lon="11.5308302"><ele>169.75</ele><time>2026-04-20T15:03:05.437Z</time></trkpt><trkpt lat="43.2314" lon="11.5310187"><ele>169.0</ele><time>2026-04-20T15:03:06.438Z</time></trkpt><trkpt lat="43.2314578" lon="11.5312268"><ele>169.33333333333334</ele><time>2026-04-20T15:03:07.438Z</time></trkpt><trkpt lat="43.2314973" lon="11.5314514"><ele>169.66666666666666</ele><time>2026-04-20T15:03:08.437Z</time></trkpt><trkpt lat="43.2315354" lon="11.5316789"><ele>170.0</ele><time>2026-04-20T15:03:09.437Z</time></trkpt><trkpt lat="43.2315787" lon="11.5319077"><ele>170.0</ele><time>2026-04-20T15:03:10.437Z</time></trkpt><trkpt lat="43.2316262" lon="11.5321379"><ele>170.0</ele><time>2026-04-20T15:03:11.437Z</time></trkpt><trkpt lat="43.2316738" lon="11.5323659"><ele>170.0</ele><time>2026-04-20T15:03:12.438Z</time></trkpt><trkpt lat="43.2317179" lon="11.5325965"><ele>170.0</ele><time>2026-04-20T15:03:13.437Z</time></trkpt><trkpt lat="43.2317635" lon="11.5328269"><ele>170.0</ele><time>2026-04-20T15:03:14.438Z</time></trkpt><trkpt lat="43.231811" lon="11.5330505"><ele>170.0</ele><time>2026-04-20T15:03:15.437Z</time></trkpt><trkpt lat="43.2318569" lon="11.5332741"><ele>170.0</ele><time>2026-04-20T15:03:16.437Z</time></trkpt><trkpt lat="43.2318972" lon="11.5334958"><ele>170.0</ele><time>2026-04-20T15:03:17.437Z</time></trkpt><trkpt lat="43.2319358" lon="11.5337077"><ele>170.0</ele><time>2026-04-20T15:03:18.437Z</time></trkpt><trkpt lat="43.2319827" lon="11.5339057"><ele>169.33333333333331</ele><time>2026-04-20T15:03:19.438Z</time></trkpt><trkpt lat="43.2320507" lon="11.5340934"><ele>168.66666666666666</ele><time>2026-04-20T15:03:20.437Z</time></trkpt><trkpt lat="43.2321492" lon="11.5342634"><ele>168.0</ele><time>2026-04-20T15:03:21.438Z</time></trkpt><trkpt lat="43.2322745" lon="11.5344142"><ele>168.66666666666666</ele><time>2026-04-20T15:03:22.437Z</time></trkpt><trkpt lat="43.2324239" lon="11.5345411"><ele>169.33333333333331</ele><time>2026-04-20T15:03:23.438Z</time></trkpt><trkpt lat="43.2325867" lon="11.53465"><ele>170.0</ele><time>2026-04-20T15:03:24.438Z</time></trkpt><trkpt lat="43.2327487" lon="11.5347553"><ele>170.0</ele><time>2026-04-20T15:03:25.438Z</time></trkpt><trkpt lat="43.2329101" lon="11.5348675"><ele>170.0</ele><time>2026-04-20T15:03:26.437Z</time></trkpt><trkpt lat="43.2330683" lon="11.5349839"><ele>170.0</ele><time>2026-04-20T15:03:27.438Z</time></trkpt><trkpt lat="43.2332236" lon="11.5351038"><ele>169.66666666666666</ele><time>2026-04-20T15:03:28.437Z</time></trkpt><trkpt lat="43.2333794" lon="11.5352296"><ele>169.33333333333334</ele><time>2026-04-20T15:03:29.437Z</time></trkpt><trkpt lat="43.2335264" lon="11.5353655"><ele>169.0</ele><time>2026-04-20T15:03:30.438Z</time></trkpt><trkpt lat="43.2336602" lon="11.5355253"><ele>169.0</ele><time>2026-04-20T15:03:31.437Z</time></trkpt><trkpt lat="43.2337767" lon="11.5357145"><ele>169.0</ele><time>2026-04-20T15:03:32.438Z</time></trkpt><trkpt lat="43.233872" lon="11.5359139"><ele>169.0</ele><time>2026-04-20T15:03:33.439Z</time></trkpt><trkpt lat="43.2339602" lon="11.5361173"><ele>170.0</ele><time>2026-04-20T15:03:34.438Z</time></trkpt><trkpt lat="43.2340638" lon="11.536313"><ele>171.0</ele><time>2026-04-20T15:03:35.439Z</time></trkpt><trkpt lat="43.2341707" lon="11.536509"><ele>172.0</ele><time>2026-04-20T15:03:36.438Z</time></trkpt><trkpt lat="43.2342775" lon="11.5367066"><ele>172.0</ele><time>2026-04-20T15:03:37.438Z</time></trkpt><trkpt lat="43.2343857" lon="11.536911"><ele>172.0</ele><time>2026-04-20T15:03:38.438Z</time></trkpt><trkpt lat="43.234493" lon="11.5371165"><ele>172.0</ele><time>2026-04-20T15:03:39.438Z</time></trkpt><trkpt lat="43.2346017" lon="11.5373225"><ele>172.0</ele><time>2026-04-20T15:03:40.438Z</time></trkpt><trkpt lat="43.2347096" lon="11.5375268"><ele>172.0</ele><time>2026-04-20T15:03:41.438Z</time></trkpt><trkpt lat="43.2348205" lon="11.5377336"><ele>172.0</ele><time>2026-04-20T15:03:42.438Z</time></trkpt><trkpt lat="43.2349308" lon="11.5379381"><ele>172.66666666666669</ele><time>2026-04-20T15:03:43.438Z</time></trkpt><trkpt lat="43.2350422" lon="11.5381433"><ele>173.33333333333334</ele><time>2026-04-20T15:03:44.438Z</time></trkpt><trkpt lat="43.2351544" lon="11.5383506"><ele>174.0</ele><time>2026-04-20T15:03:45.438Z</time></trkpt><trkpt lat="43.2352677" lon="11.5385587"><ele>173.66666666666666</ele><time>2026-04-20T15:03:46.438Z</time></trkpt><trkpt lat="43.2353801" lon="11.5387648"><ele>173.33333333333331</ele><time>2026-04-20T15:03:47.438Z</time></trkpt><trkpt lat="43.2354881" lon="11.538964"><ele>173.0</ele><time>2026-04-20T15:03:48.439Z</time></trkpt><trkpt lat="43.23559" lon="11.5391516"><ele>173.66666666666666</ele><time>2026-04-20T15:03:49.438Z</time></trkpt><trkpt lat="43.2356831" lon="11.5393271"><ele>174.33333333333334</ele><time>2026-04-20T15:03:50.438Z</time></trkpt><trkpt lat="43.2357706" lon="11.5394991"><ele>175.0</ele><time>2026-04-20T15:03:51.439Z</time></trkpt><trkpt lat="43.2358431" lon="11.5396688"><ele>175.0</ele><time>2026-04-20T15:03:52.438Z</time></trkpt><trkpt lat="43.2358829" lon="11.5398495"><ele>175.0</ele><time>2026-04-20T15:03:53.438Z</time></trkpt><trkpt lat="43.2358978" lon="11.5400392"><ele>175.0</ele><time>2026-04-20T15:03:54.438Z</time></trkpt><trkpt lat="43.2358888" lon="11.540243"><ele>175.0</ele><time>2026-04-20T15:03:55.438Z</time></trkpt><trkpt lat="43.2358694" lon="11.5404599"><ele>175.0</ele><time>2026-04-20T15:03:56.438Z</time></trkpt><trkpt lat="43.2358488" lon="11.5406861"><ele>175.0</ele><time>2026-04-20T15:03:57.438Z</time></trkpt><trkpt lat="43.2358381" lon="11.5409174"><ele>175.0</ele><time>2026-04-20T15:03:58.438Z</time></trkpt><trkpt lat="43.2358279" lon="11.5411592"><ele>176.33333333333334</ele><time>2026-04-20T15:03:59.438Z</time></trkpt><trkpt lat="43.2358198" lon="11.5414127"><ele>177.66666666666666</ele><time>2026-04-20T15:04:00.438Z</time></trkpt><trkpt lat="43.2358109" lon="11.5416709"><ele>179.0</ele><time>2026-04-20T15:04:01.439Z</time></trkpt><trkpt lat="43.2357984" lon="11.5419261"><ele>179.0</ele><time>2026-04-20T15:04:02.438Z</time></trkpt><trkpt lat="43.2357826" lon="11.5421787"><ele>179.0</ele><time>2026-04-20T15:04:03.439Z</time></trkpt><trkpt lat="43.2357698" lon="11.5424346"><ele>179.0</ele><time>2026-04-20T15:04:04.439Z</time></trkpt><trkpt lat="43.2357586" lon="11.542689"><ele>178.66666666666666</ele><time>2026-04-20T15:04:05.438Z</time></trkpt><trkpt lat="43.2357488" lon="11.5429414"><ele>178.33333333333334</ele><time>2026-04-20T15:04:06.438Z</time></trkpt><trkpt lat="43.2357408" lon="11.5431918"><ele>178.0</ele><time>2026-04-20T15:04:07.438Z</time></trkpt><trkpt lat="43.2357328" lon="11.5434439"><ele>178.0</ele><time>2026-04-20T15:04:08.438Z</time></trkpt><trkpt lat="43.2357315" lon="11.5436985"><ele>178.0</ele><time>2026-04-20T15:04:09.438Z</time></trkpt><trkpt lat="43.2357242" lon="11.5439557"><ele>178.0</ele><time>2026-04-20T15:04:10.439Z</time></trkpt><trkpt lat="43.2357125" lon="11.5442141"><ele>177.66666666666669</ele><time>2026-04-20T15:04:11.438Z</time></trkpt><trkpt lat="43.2357005" lon="11.5444734"><ele>177.33333333333334</ele><time>2026-04-20T15:04:12.438Z</time></trkpt><trkpt lat="43.2356917" lon="11.544726"><ele>177.0</ele><time>2026-04-20T15:04:13.438Z</time></trkpt><trkpt lat="43.2357008" lon="11.5449672"><ele>176.66666666666666</ele><time>2026-04-20T15:04:14.438Z</time></trkpt><trkpt lat="43.2357367" lon="11.5452104"><ele>176.33333333333331</ele><time>2026-04-20T15:04:15.438Z</time></trkpt><trkpt lat="43.2357938" lon="11.545451"><ele>176.0</ele><time>2026-04-20T15:04:16.438Z</time></trkpt><trkpt lat="43.2358718" lon="11.5456877"><ele>176.0</ele><time>2026-04-20T15:04:17.438Z</time></trkpt><trkpt lat="43.2359594" lon="11.5459154"><ele>176.0</ele><time>2026-04-20T15:04:18.438Z</time></trkpt><trkpt lat="43.2360516" lon="11.5461306"><ele>176.0</ele><time>2026-04-20T15:04:19.438Z</time></trkpt><trkpt lat="43.2361584" lon="11.5463331"><ele>176.66666666666666</ele><time>2026-04-20T15:04:20.439Z</time></trkpt><trkpt lat="43.2362765" lon="11.5465262"><ele>177.33333333333334</ele><time>2026-04-20T15:04:21.438Z</time></trkpt><trkpt lat="43.2364024" lon="11.5467176"><ele>178.0</ele><time>2026-04-20T15:04:22.44Z</time></trkpt><trkpt lat="43.236534" lon="11.5469112"><ele>176.66666666666669</ele><time>2026-04-20T15:04:23.439Z</time></trkpt><trkpt lat="43.2366654" lon="11.5471004"><ele>175.33333333333334</ele><time>2026-04-20T15:04:24.439Z</time></trkpt><trkpt lat="43.2368036" lon="11.5472818"><ele>174.0</ele><time>2026-04-20T15:04:25.439Z</time></trkpt><trkpt lat="43.2369513" lon="11.547456"><ele>174.0</ele><time>2026-04-20T15:04:26.44Z</time></trkpt><trkpt lat="43.2371015" lon="11.5476232"><ele>174.0</ele><time>2026-04-20T15:04:27.439Z</time></trkpt><trkpt lat="43.2372507" lon="11.5477861"><ele>174.0</ele><time>2026-04-20T15:04:28.439Z</time></trkpt><trkpt lat="43.2373957" lon="11.5479442"><ele>174.66666666666666</ele><time>2026-04-20T15:04:29.439Z</time></trkpt><trkpt lat="43.2375375" lon="11.5480983"><ele>175.33333333333331</ele><time>2026-04-20T15:04:30.439Z</time></trkpt><trkpt lat="43.237681" lon="11.548252"><ele>176.0</ele><time>2026-04-20T15:04:31.439Z</time></trkpt><trkpt lat="43.2378237" lon="11.5484052"><ele>176.0</ele><time>2026-04-20T15:04:32.439Z</time></trkpt><trkpt lat="43.2379713" lon="11.5485591"><ele>176.0</ele><time>2026-04-20T15:04:33.439Z</time></trkpt><trkpt lat="43.2381194" lon="11.5487056"><ele>176.0</ele><time>2026-04-20T15:04:34.439Z</time></trkpt><trkpt lat="43.2382723" lon="11.5488464"><ele>176.0</ele><time>2026-04-20T15:04:35.44Z</time></trkpt><trkpt lat="43.23843" lon="11.5489826"><ele>176.0</ele><time>2026-04-20T15:04:36.439Z</time></trkpt><trkpt lat="43.2385896" lon="11.5491105"><ele>176.0</ele><time>2026-04-20T15:04:37.439Z</time></trkpt><trkpt lat="43.2387509" lon="11.5492312"><ele>176.0</ele><time>2026-04-20T15:04:38.439Z</time></trkpt><trkpt lat="43.2389158" lon="11.549349"><ele>176.0</ele><time>2026-04-20T15:04:39.439Z</time></trkpt><trkpt lat="43.2390777" lon="11.5494696"><ele>176.0</ele><time>2026-04-20T15:04:40.439Z</time></trkpt><trkpt lat="43.2392344" lon="11.5496031"><ele>175.66666666666666</ele><time>2026-04-20T15:04:41.439Z</time></trkpt><trkpt lat="43.2393816" lon="11.5497593"><ele>175.33333333333334</ele><time>2026-04-20T15:04:42.439Z</time></trkpt><trkpt lat="43.2395212" lon="11.5499295"><ele>175.0</ele><time>2026-04-20T15:04:43.439Z</time></trkpt><trkpt lat="43.2396554" lon="11.5501085"><ele>175.0</ele><time>2026-04-20T15:04:44.439Z</time></trkpt><trkpt lat="43.239786" lon="11.5502922"><ele>175.0</ele><time>2026-04-20T15:04:45.439Z</time></trkpt><trkpt lat="43.2399093" lon="11.55047"><ele>175.0</ele><time>2026-04-20T15:04:46.439Z</time></trkpt><trkpt lat="43.2400269" lon="11.5506386"><ele>174.33333333333334</ele><time>2026-04-20T15:04:47.439Z</time></trkpt><trkpt lat="43.2401426" lon="11.5508011"><ele>173.66666666666666</ele><time>2026-04-20T15:04:48.44Z</time></trkpt><trkpt lat="43.2402514" lon="11.5509522"><ele>173.0</ele><time>2026-04-20T15:04:49.439Z</time></trkpt><trkpt lat="43.2403536" lon="11.5510922"><ele>172.5</ele><time>2026-04-20T15:04:50.439Z</time></trkpt><trkpt lat="43.2404504" lon="11.5512276"><ele>172.0</ele><time>2026-04-20T15:04:51.439Z</time></trkpt><trkpt lat="43.240543" lon="11.5513536"><ele>171.5</ele><time>2026-04-20T15:04:52.439Z</time></trkpt><trkpt lat="43.2406319" lon="11.5514746"><ele>171.0</ele><time>2026-04-20T15:04:53.44Z</time></trkpt><trkpt lat="43.2407141" lon="11.5515898"><ele>172.33333333333334</ele><time>2026-04-20T15:04:54.439Z</time></trkpt><trkpt lat="43.2407829" lon="11.5516957"><ele>173.66666666666666</ele><time>2026-04-20T15:04:55.439Z</time></trkpt><trkpt lat="43.2408262" lon="11.551795"><ele>175.0</ele><time>2026-04-20T15:04:56.439Z</time></trkpt><trkpt lat="43.2408388" lon="11.5518939"><ele>176.33333333333331</ele><time>2026-04-20T15:04:57.439Z</time></trkpt><trkpt lat="43.2408206" lon="11.5519914"><ele>177.66666666666666</ele><time>2026-04-20T15:04:58.439Z</time></trkpt><trkpt lat="43.2407832" lon="11.5520709"><ele>179.0</ele><time>2026-04-20T15:04:59.439Z</time></trkpt><trkpt lat="43.2407126" lon="11.5521947"><ele>179.2</ele><time>2026-04-20T15:05:01.439Z</time></trkpt><trkpt lat="43.2406503" lon="11.5523073"><ele>179.39999999999998</ele><time>2026-04-20T15:05:03.439Z</time></trkpt><trkpt lat="43.2406091" lon="11.552407"><ele>179.6</ele><time>2026-04-20T15:05:05.439Z</time></trkpt><trkpt lat="43.2406172" lon="11.5525015"><ele>179.8</ele><time>2026-04-20T15:05:09.439Z</time></trkpt><trkpt lat="43.240694" lon="11.5524275"><ele>180.0</ele><time>2026-04-20T15:05:12.44Z</time></trkpt><trkpt lat="43.2407692" lon="11.552285"><ele>180.0</ele><time>2026-04-20T15:05:14.44Z</time></trkpt><trkpt lat="43.2408096" lon="11.5521937"><ele>180.0</ele><time>2026-04-20T15:05:15.44Z</time></trkpt><trkpt lat="43.2408511" lon="11.552093"><ele>180.0</ele><time>2026-04-20T15:05:16.44Z</time></trkpt><trkpt lat="43.2408816" lon="11.5520077"><ele>180.0</ele><time>2026-04-20T15:05:17.44Z</time></trkpt><trkpt lat="43.2409432" lon="11.5518455"><ele>180.0</ele><time>2026-04-20T15:05:19.44Z</time></trkpt><trkpt lat="43.2409757" lon="11.5517577"><ele>180.0</ele><time>2026-04-20T15:05:20.44Z</time></trkpt><trkpt lat="43.2410106" lon="11.5516761"><ele>179.85714285714286</ele><time>2026-04-20T15:05:21.441Z</time></trkpt><trkpt lat="43.2410562" lon="11.5516036"><ele>179.71428571428572</ele><time>2026-04-20T15:05:22.44Z</time></trkpt><trkpt lat="43.2411141" lon="11.5515434"><ele>179.57142857142858</ele><time>2026-04-20T15:05:23.44Z</time></trkpt><trkpt lat="43.2411795" lon="11.5515045"><ele>179.42857142857144</ele><time>2026-04-20T15:05:24.44Z</time></trkpt><trkpt lat="43.2412483" lon="11.5514706"><ele>179.28571428571428</ele><time>2026-04-20T15:05:25.44Z</time></trkpt><trkpt lat="43.2413182" lon="11.5514413"><ele>179.14285714285717</ele><time>2026-04-20T15:05:26.44Z</time></trkpt><trkpt lat="43.2413896" lon="11.5514102"><ele>179.0</ele><time>2026-04-20T15:05:27.44Z</time></trkpt><trkpt lat="43.2414694" lon="11.5513833"><ele>180.0</ele><time>2026-04-20T15:05:28.441Z</time></trkpt><trkpt lat="43.241551" lon="11.551353"><ele>181.0</ele><time>2026-04-20T15:05:29.441Z</time></trkpt><trkpt lat="43.2416369" lon="11.5513139"><ele>182.0</ele><time>2026-04-20T15:05:30.44Z</time></trkpt><trkpt lat="43.2417347" lon="11.5512693"><ele>183.0</ele><time>2026-04-20T15:05:31.44Z</time></trkpt><trkpt lat="43.2418388" lon="11.5512244"><ele>184.0</ele><time>2026-04-20T15:05:32.44Z</time></trkpt><trkpt lat="43.2419458" lon="11.5511781"><ele>184.0</ele><time>2026-04-20T15:05:33.44Z</time></trkpt><trkpt lat="43.2420542" lon="11.5511311"><ele>184.0</ele><time>2026-04-20T15:05:34.44Z</time></trkpt><trkpt lat="43.2421591" lon="11.5510865"><ele>184.0</ele><time>2026-04-20T15:05:35.441Z</time></trkpt><trkpt lat="43.2422613" lon="11.5510368"><ele>184.0</ele><time>2026-04-20T15:05:36.441Z</time></trkpt><trkpt lat="43.2423509" lon="11.5509712"><ele>184.0</ele><time>2026-04-20T15:05:37.44Z</time></trkpt><trkpt lat="43.242429" lon="11.5508911"><ele>184.39999999999998</ele><time>2026-04-20T15:05:38.44Z</time></trkpt><trkpt lat="43.2424978" lon="11.5507888"><ele>184.8</ele><time>2026-04-20T15:05:39.44Z</time></trkpt><trkpt lat="43.2425629" lon="11.5506591"><ele>185.2</ele><time>2026-04-20T15:05:40.44Z</time></trkpt><trkpt lat="43.2426252" lon="11.5505295"><ele>185.60000000000002</ele><time>2026-04-20T15:05:41.441Z</time></trkpt><trkpt lat="43.2426931" lon="11.5504043"><ele>186.0</ele><time>2026-04-20T15:05:42.44Z</time></trkpt><trkpt lat="43.2427663" lon="11.5502878"><ele>186.0</ele><time>2026-04-20T15:05:43.44Z</time></trkpt><trkpt lat="43.2428488" lon="11.5501962"><ele>186.0</ele><time>2026-04-20T15:05:44.44Z</time></trkpt><trkpt lat="43.2429387" lon="11.5501285"><ele>186.0</ele><time>2026-04-20T15:05:45.44Z</time></trkpt><trkpt lat="43.2430393" lon="11.5500934"><ele>186.0</ele><time>2026-04-20T15:05:46.44Z</time></trkpt><trkpt lat="43.2431478" lon="11.5500926"><ele>186.0</ele><time>2026-04-20T15:05:47.44Z</time></trkpt><trkpt lat="43.2432664" lon="11.5501144"><ele>190.5</ele><time>2026-04-20T15:05:48.44Z</time></trkpt><trkpt lat="43.2433877" lon="11.5501303"><ele>195.0</ele><time>2026-04-20T15:05:49.441Z</time></trkpt><trkpt lat="43.2435001" lon="11.5501179"><ele>199.5</ele><time>2026-04-20T15:05:50.44Z</time></trkpt><trkpt lat="43.2436034" lon="11.5500713"><ele>204.0</ele><time>2026-04-20T15:05:51.44Z</time></trkpt><trkpt lat="43.2437029" lon="11.549977"><ele>204.0</ele><time>2026-04-20T15:05:52.44Z</time></trkpt><trkpt lat="43.2437927" lon="11.5498668"><ele>204.0</ele><time>2026-04-20T15:05:53.441Z</time></trkpt><trkpt lat="43.2438773" lon="11.549756"><ele>204.0</ele><time>2026-04-20T15:05:54.44Z</time></trkpt><trkpt lat="43.2439567" lon="11.5496381"><ele>204.0</ele><time>2026-04-20T15:05:55.44Z</time></trkpt><trkpt lat="43.2440383" lon="11.5495192"><ele>205.25</ele><time>2026-04-20T15:05:56.441Z</time></trkpt><trkpt lat="43.2441184" lon="11.5494048"><ele>206.5</ele><time>2026-04-20T15:05:57.44Z</time></trkpt><trkpt lat="43.2442003" lon="11.5492955"><ele>207.75</ele><time>2026-04-20T15:05:58.44Z</time></trkpt><trkpt lat="43.2442839" lon="11.5491892"><ele>209.0</ele><time>2026-04-20T15:05:59.44Z</time></trkpt><trkpt lat="43.2443699" lon="11.5490899"><ele>209.0</ele><time>2026-04-20T15:06:00.441Z</time></trkpt><trkpt lat="43.2444628" lon="11.5490003"><ele>209.0</ele><time>2026-04-20T15:06:01.441Z</time></trkpt><trkpt lat="43.2445639" lon="11.5489204"><ele>209.0</ele><time>2026-04-20T15:06:02.441Z</time></trkpt><trkpt lat="43.2446672" lon="11.5488443"><ele>209.0</ele><time>2026-04-20T15:06:03.441Z</time></trkpt><trkpt lat="43.2447695" lon="11.5487679"><ele>210.79999999999998</ele><time>2026-04-20T15:06:04.441Z</time></trkpt><trkpt lat="43.2448741" lon="11.5486952"><ele>212.6</ele><time>2026-04-20T15:06:05.441Z</time></trkpt><trkpt lat="43.2449673" lon="11.5486206"><ele>214.4</ele><time>2026-04-20T15:06:06.441Z</time></trkpt><trkpt lat="43.2450477" lon="11.5485577"><ele>216.2</ele><time>2026-04-20T15:06:07.441Z</time></trkpt><trkpt lat="43.2451094" lon="11.5485101"><ele>218.0</ele><time>2026-04-20T15:06:08.441Z</time></trkpt><trkpt lat="43.2451832" lon="11.548464"><ele>218.0</ele><time>2026-04-20T15:06:10.441Z</time></trkpt><trkpt lat="43.2452512" lon="11.5484573"><ele>218.0</ele><time>2026-04-20T15:06:14.441Z</time></trkpt><trkpt lat="43.2452022" lon="11.5483818"><ele>218.0</ele><time>2026-04-20T15:06:25.441Z</time></trkpt><trkpt lat="43.2450989" lon="11.5484647"><ele>218.0</ele><time>2026-04-20T15:06:27.441Z</time></trkpt><trkpt lat="43.2450161" lon="11.5485414"><ele>218.0</ele><time>2026-04-20T15:06:28.441Z</time></trkpt><trkpt lat="43.244919" lon="11.5486192"><ele>218.0</ele><time>2026-04-20T15:06:29.441Z</time></trkpt><trkpt lat="43.2448207" lon="11.5486998"><ele>218.0</ele><time>2026-04-20T15:06:30.441Z</time></trkpt><trkpt lat="43.2447062" lon="11.5487835"><ele>218.0</ele><time>2026-04-20T15:06:31.441Z</time></trkpt><trkpt lat="43.2445861" lon="11.54887"><ele>218.0</ele><time>2026-04-20T15:06:32.441Z</time></trkpt><trkpt lat="43.2444678" lon="11.5489615"><ele>215.75</ele><time>2026-04-20T15:06:33.441Z</time></trkpt><trkpt lat="43.2443643" lon="11.5490536"><ele>213.5</ele><time>2026-04-20T15:06:34.441Z</time></trkpt><trkpt lat="43.2442667" lon="11.5491578"><ele>211.25</ele><time>2026-04-20T15:06:35.441Z</time></trkpt><trkpt lat="43.2441686" lon="11.5492748"><ele>209.0</ele><time>2026-04-20T15:06:36.441Z</time></trkpt><trkpt lat="43.244067" lon="11.5494043"><ele>209.0</ele><time>2026-04-20T15:06:37.441Z</time></trkpt><trkpt lat="43.2439653" lon="11.5495366"><ele>209.0</ele><time>2026-04-20T15:06:38.441Z</time></trkpt><trkpt lat="43.2438681" lon="11.5496686"><ele>209.0</ele><time>2026-04-20T15:06:39.441Z</time></trkpt><trkpt lat="43.2437729" lon="11.5497972"><ele>209.0</ele><time>2026-04-20T15:06:40.441Z</time></trkpt><trkpt lat="43.24368" lon="11.549918"><ele>207.75</ele><time>2026-04-20T15:06:41.441Z</time></trkpt><trkpt lat="43.2435859" lon="11.5500265"><ele>206.5</ele><time>2026-04-20T15:06:42.441Z</time></trkpt><trkpt lat="43.2434862" lon="11.5501149"><ele>205.25</ele><time>2026-04-20T15:06:43.441Z</time></trkpt><trkpt lat="43.2433835" lon="11.550171"><ele>204.0</ele><time>2026-04-20T15:06:44.442Z</time></trkpt><trkpt lat="43.2432739" lon="11.5501907"><ele>204.0</ele><time>2026-04-20T15:06:45.441Z</time></trkpt><trkpt lat="43.2431528" lon="11.5501687"><ele>204.0</ele><time>2026-04-20T15:06:46.441Z</time></trkpt><trkpt lat="43.2430298" lon="11.5501425"><ele>204.0</ele><time>2026-04-20T15:06:47.442Z</time></trkpt><trkpt lat="43.2429138" lon="11.5501385"><ele>204.0</ele><time>2026-04-20T15:06:48.441Z</time></trkpt><trkpt lat="43.242813" lon="11.5501792"><ele>202.75</ele><time>2026-04-20T15:06:49.442Z</time></trkpt><trkpt lat="43.242712" lon="11.5502805"><ele>201.5</ele><time>2026-04-20T15:06:50.442Z</time></trkpt><trkpt lat="43.2426198" lon="11.5504111"><ele>200.25</ele><time>2026-04-20T15:06:51.441Z</time></trkpt><trkpt lat="43.2425371" lon="11.5505655"><ele>199.0</ele><time>2026-04-20T15:06:52.442Z</time></trkpt><trkpt lat="43.2424562" lon="11.5507276"><ele>199.0</ele><time>2026-04-20T15:06:53.442Z</time></trkpt><trkpt lat="43.242387" lon="11.5508663"><ele>199.0</ele><time>2026-04-20T15:06:54.442Z</time></trkpt><trkpt lat="43.2423071" lon="11.5509918"><ele>199.0</ele><time>2026-04-20T15:06:55.442Z</time></trkpt><trkpt lat="43.2422056" lon="11.5510893"><ele>199.0</ele><time>2026-04-20T15:06:56.442Z</time></trkpt><trkpt lat="43.242086" lon="11.5511597"><ele>199.5</ele><time>2026-04-20T15:06:57.442Z</time></trkpt><trkpt lat="43.241958" lon="11.5512118"><ele>200.0</ele><time>2026-04-20T15:06:58.442Z</time></trkpt><trkpt lat="43.2418317" lon="11.5512589"><ele>200.5</ele><time>2026-04-20T15:06:59.442Z</time></trkpt><trkpt lat="43.2417083" lon="11.5512979"><ele>201.0</ele><time>2026-04-20T15:07:00.442Z</time></trkpt><trkpt lat="43.2415861" lon="11.5513344"><ele>201.0</ele><time>2026-04-20T15:07:01.442Z</time></trkpt><trkpt lat="43.2414688" lon="11.5513672"><ele>201.0</ele><time>2026-04-20T15:07:02.443Z</time></trkpt><trkpt lat="43.241349" lon="11.5514026"><ele>201.0</ele><time>2026-04-20T15:07:03.443Z</time></trkpt><trkpt lat="43.2412338" lon="11.5514492"><ele>201.0</ele><time>2026-04-20T15:07:04.443Z</time></trkpt><trkpt lat="43.2411242" lon="11.5515043"><ele>195.5</ele><time>2026-04-20T15:07:05.442Z</time></trkpt><trkpt lat="43.241026" lon="11.5515832"><ele>190.0</ele><time>2026-04-20T15:07:06.442Z</time></trkpt><trkpt lat="43.2409406" lon="11.5516876"><ele>184.5</ele><time>2026-04-20T15:07:07.442Z</time></trkpt><trkpt lat="43.2408779" lon="11.5518239"><ele>179.0</ele><time>2026-04-20T15:07:08.442Z</time></trkpt><trkpt lat="43.2408263" lon="11.5519788"><ele>179.25</ele><time>2026-04-20T15:07:09.442Z</time></trkpt><trkpt lat="43.2407818" lon="11.5521529"><ele>179.5</ele><time>2026-04-20T15:07:10.442Z</time></trkpt><trkpt lat="43.2407271" lon="11.5523192"><ele>179.75</ele><time>2026-04-20T15:07:11.443Z</time></trkpt><trkpt lat="43.2406597" lon="11.552465"><ele>180.0</ele><time>2026-04-20T15:07:12.442Z</time></trkpt><trkpt lat="43.2405828" lon="11.5525829"><ele>178.6</ele><time>2026-04-20T15:07:13.442Z</time></trkpt><trkpt lat="43.2405096" lon="11.5526902"><ele>177.2</ele><time>2026-04-20T15:07:14.443Z</time></trkpt><trkpt lat="43.2404448" lon="11.5527862"><ele>175.8</ele><time>2026-04-20T15:07:15.442Z</time></trkpt><trkpt lat="43.2403895" lon="11.5528768"><ele>174.4</ele><time>2026-04-20T15:07:16.442Z</time></trkpt><trkpt lat="43.2403406" lon="11.5529552"><ele>173.0</ele><time>2026-04-20T15:07:17.443Z</time></trkpt><trkpt lat="43.2403077" lon="11.5530708"><ele>173.0</ele><time>2026-04-20T15:07:19.442Z</time></trkpt><trkpt lat="43.2403903" lon="11.5531681"><ele>173.0</ele><time>2026-04-20T15:07:21.443Z</time></trkpt><trkpt lat="43.2404552" lon="11.5532011"><ele>173.0</ele><time>2026-04-20T15:07:22.443Z</time></trkpt><trkpt lat="43.2405323" lon="11.5532298"><ele>173.0</ele><time>2026-04-20T15:07:23.442Z</time></trkpt><trkpt lat="43.2406114" lon="11.553269"><ele>173.0</ele><time>2026-04-20T15:07:24.443Z</time></trkpt><trkpt lat="43.2406923" lon="11.5533247"><ele>173.0</ele><time>2026-04-20T15:07:25.442Z</time></trkpt><trkpt lat="43.2407807" lon="11.5533887"><ele>173.4</ele><time>2026-04-20T15:07:26.442Z</time></trkpt><trkpt lat="43.2408744" lon="11.5534521"><ele>173.8</ele><time>2026-04-20T15:07:27.443Z</time></trkpt><trkpt lat="43.2409656" lon="11.5535205"><ele>174.2</ele><time>2026-04-20T15:07:28.442Z</time></trkpt><trkpt lat="43.2410478" lon="11.5535856"><ele>174.6</ele><time>2026-04-20T15:07:29.442Z</time></trkpt><trkpt lat="43.2411232" lon="11.5536456"><ele>175.0</ele><time>2026-04-20T15:07:30.443Z</time></trkpt><trkpt lat="43.2411955" lon="11.5537011"><ele>174.66666666666669</ele><time>2026-04-20T15:07:31.442Z</time></trkpt><trkpt lat="43.241272" lon="11.5537514"><ele>174.33333333333334</ele><time>2026-04-20T15:07:32.442Z</time></trkpt><trkpt lat="43.2413514" lon="11.5537978"><ele>174.0</ele><time>2026-04-20T15:07:33.442Z</time></trkpt><trkpt lat="43.2414391" lon="11.5538313"><ele>173.66666666666666</ele><time>2026-04-20T15:07:34.442Z</time></trkpt><trkpt lat="43.241529" lon="11.5538433"><ele>173.33333333333331</ele><time>2026-04-20T15:07:35.442Z</time></trkpt><trkpt lat="43.2416235" lon="11.5538399"><ele>173.0</ele><time>2026-04-20T15:07:36.442Z</time></trkpt><trkpt lat="43.2417173" lon="11.5538277"><ele>173.83333333333331</ele><time>2026-04-20T15:07:37.442Z</time></trkpt><trkpt lat="43.2418091" lon="11.553821"><ele>174.66666666666666</ele><time>2026-04-20T15:07:38.442Z</time></trkpt><trkpt lat="43.2418921" lon="11.5538349"><ele>175.5</ele><time>2026-04-20T15:07:39.442Z</time></trkpt><trkpt lat="43.2419732" lon="11.5538693"><ele>176.33333333333334</ele><time>2026-04-20T15:07:40.442Z</time></trkpt><trkpt lat="43.2420505" lon="11.5539162"><ele>177.16666666666669</ele><time>2026-04-20T15:07:41.443Z</time></trkpt><trkpt lat="43.2421278" lon="11.55397"><ele>178.0</ele><time>2026-04-20T15:07:42.443Z</time></trkpt><trkpt lat="43.2422067" lon="11.5540319"><ele>178.0</ele><time>2026-04-20T15:07:43.443Z</time></trkpt><trkpt lat="43.2422826" lon="11.5540988"><ele>178.0</ele><time>2026-04-20T15:07:44.443Z</time></trkpt><trkpt lat="43.2423679" lon="11.5541635"><ele>178.0</ele><time>2026-04-20T15:07:45.443Z</time></trkpt><trkpt lat="43.2424524" lon="11.55423"><ele>178.0</ele><time>2026-04-20T15:07:46.443Z</time></trkpt><trkpt lat="43.2425378" lon="11.5542987"><ele>178.0</ele><time>2026-04-20T15:07:47.443Z</time></trkpt><trkpt lat="43.2426222" lon="11.5543676"><ele>178.8</ele><time>2026-04-20T15:07:48.443Z</time></trkpt><trkpt lat="43.2427108" lon="11.5544315"><ele>179.60000000000002</ele><time>2026-04-20T15:07:49.443Z</time></trkpt><trkpt lat="43.2428013" lon="11.5544859"><ele>180.39999999999998</ele><time>2026-04-20T15:07:50.443Z</time></trkpt><trkpt lat="43.242893" lon="11.5545224"><ele>181.2</ele><time>2026-04-20T15:07:51.443Z</time></trkpt><trkpt lat="43.2429867" lon="11.5545414"><ele>182.0</ele><time>2026-04-20T15:07:52.443Z</time></trkpt><trkpt lat="43.2430793" lon="11.5545486"><ele>183.2</ele><time>2026-04-20T15:07:53.443Z</time></trkpt><trkpt lat="43.2431702" lon="11.5545489"><ele>184.39999999999998</ele><time>2026-04-20T15:07:54.443Z</time></trkpt><trkpt lat="43.2432583" lon="11.5545455"><ele>185.60000000000002</ele><time>2026-04-20T15:07:55.444Z</time></trkpt><trkpt lat="43.2433452" lon="11.5545337"><ele>186.8</ele><time>2026-04-20T15:07:56.443Z</time></trkpt><trkpt lat="43.2434348" lon="11.554518"><ele>188.0</ele><time>2026-04-20T15:07:57.443Z</time></trkpt><trkpt lat="43.2435308" lon="11.5545004"><ele>188.4</ele><time>2026-04-20T15:07:58.443Z</time></trkpt><trkpt lat="43.2436311" lon="11.5544834"><ele>188.8</ele><time>2026-04-20T15:07:59.443Z</time></trkpt><trkpt lat="43.2437303" lon="11.5544682"><ele>189.2</ele><time>2026-04-20T15:08:00.443Z</time></trkpt><trkpt lat="43.2438295" lon="11.5544549"><ele>189.6</ele><time>2026-04-20T15:08:01.444Z</time></trkpt><trkpt lat="43.2439334" lon="11.5544423"><ele>190.0</ele><time>2026-04-20T15:08:02.443Z</time></trkpt><trkpt lat="43.2440396" lon="11.5544285"><ele>190.0</ele><time>2026-04-20T15:08:03.443Z</time></trkpt><trkpt lat="43.2441438" lon="11.554414"><ele>190.0</ele><time>2026-04-20T15:08:04.443Z</time></trkpt><trkpt lat="43.244245" lon="11.5544"><ele>190.0</ele><time>2026-04-20T15:08:05.443Z</time></trkpt><trkpt lat="43.244345" lon="11.5543889"><ele>190.0</ele><time>2026-04-20T15:08:06.443Z</time></trkpt><trkpt lat="43.2444442" lon="11.5543778"><ele>190.0</ele><time>2026-04-20T15:08:07.444Z</time></trkpt><trkpt lat="43.2445453" lon="11.5543652"><ele>190.0</ele><time>2026-04-20T15:08:08.443Z</time></trkpt><trkpt lat="43.2446551" lon="11.5543537"><ele>190.0</ele><time>2026-04-20T15:08:09.444Z</time></trkpt><trkpt lat="43.2447639" lon="11.5543438"><ele>190.0</ele><time>2026-04-20T15:08:10.444Z</time></trkpt><trkpt lat="43.2448729" lon="11.5543331"><ele>190.0</ele><time>2026-04-20T15:08:11.443Z</time></trkpt><trkpt lat="43.2449859" lon="11.5543199"><ele>190.0</ele><time>2026-04-20T15:08:12.444Z</time></trkpt><trkpt lat="43.2451013" lon="11.5543064"><ele>189.0</ele><time>2026-04-20T15:08:13.444Z</time></trkpt><trkpt lat="43.2452201" lon="11.5542879"><ele>188.0</ele><time>2026-04-20T15:08:14.443Z</time></trkpt><trkpt lat="43.2453402" lon="11.5542672"><ele>187.0</ele><time>2026-04-20T15:08:15.443Z</time></trkpt><trkpt lat="43.2454602" lon="11.5542478"><ele>186.0</ele><time>2026-04-20T15:08:16.444Z</time></trkpt><trkpt lat="43.2455816" lon="11.5542309"><ele>183.75</ele><time>2026-04-20T15:08:17.443Z</time></trkpt><trkpt lat="43.2457017" lon="11.554214"><ele>181.5</ele><time>2026-04-20T15:08:18.443Z</time></trkpt><trkpt lat="43.2458225" lon="11.5541961"><ele>179.25</ele><time>2026-04-20T15:08:19.443Z</time></trkpt><trkpt lat="43.2459454" lon="11.5541755"><ele>177.0</ele><time>2026-04-20T15:08:20.444Z</time></trkpt><trkpt lat="43.2460715" lon="11.5541547"><ele>177.0</ele><time>2026-04-20T15:08:21.443Z</time></trkpt><trkpt lat="43.2461969" lon="11.5541374"><ele>177.0</ele><time>2026-04-20T15:08:22.443Z</time></trkpt><trkpt lat="43.2463252" lon="11.5541276"><ele>177.0</ele><time>2026-04-20T15:08:23.443Z</time></trkpt><trkpt lat="43.2464511" lon="11.5541246"><ele>177.0</ele><time>2026-04-20T15:08:24.443Z</time></trkpt><trkpt lat="43.2465686" lon="11.5541301"><ele>175.75</ele><time>2026-04-20T15:08:25.443Z</time></trkpt><trkpt lat="43.2466823" lon="11.5541529"><ele>174.5</ele><time>2026-04-20T15:08:26.443Z</time></trkpt><trkpt lat="43.246792" lon="11.5541985"><ele>173.25</ele><time>2026-04-20T15:08:27.443Z</time></trkpt><trkpt lat="43.246902" lon="11.554268"><ele>172.0</ele><time>2026-04-20T15:08:28.443Z</time></trkpt><trkpt lat="43.2470172" lon="11.5543552"><ele>172.0</ele><time>2026-04-20T15:08:29.444Z</time></trkpt><trkpt lat="43.2471337" lon="11.5544503"><ele>172.0</ele><time>2026-04-20T15:08:30.444Z</time></trkpt><trkpt lat="43.2472485" lon="11.5545429"><ele>172.0</ele><time>2026-04-20T15:08:31.444Z</time></trkpt><trkpt lat="43.2473609" lon="11.5546302"><ele>172.0</ele><time>2026-04-20T15:08:32.444Z</time></trkpt><trkpt lat="43.2474773" lon="11.5547144"><ele>173.39999999999998</ele><time>2026-04-20T15:08:33.444Z</time></trkpt><trkpt lat="43.2475929" lon="11.5547979"><ele>174.79999999999998</ele><time>2026-04-20T15:08:34.445Z</time></trkpt><trkpt lat="43.2476937" lon="11.554872"><ele>176.2</ele><time>2026-04-20T15:08:35.444Z</time></trkpt><trkpt lat="43.2477735" lon="11.5549362"><ele>177.6</ele><time>2026-04-20T15:08:36.444Z</time></trkpt><trkpt lat="43.2478378" lon="11.5550011"><ele>179.0</ele><time>2026-04-20T15:08:37.444Z</time></trkpt><trkpt lat="43.2478934" lon="11.5550919"><ele>179.0</ele><time>2026-04-20T15:08:38.444Z</time></trkpt><trkpt lat="43.2479444" lon="11.5552078"><ele>179.0</ele><time>2026-04-20T15:08:39.444Z</time></trkpt><trkpt lat="43.247995" lon="11.5553276"><ele>179.0</ele><time>2026-04-20T15:08:40.445Z</time></trkpt><trkpt lat="43.2480506" lon="11.55543"><ele>179.0</ele><time>2026-04-20T15:08:41.444Z</time></trkpt><trkpt lat="43.248116" lon="11.5555164"><ele>179.0</ele><time>2026-04-20T15:08:42.444Z</time></trkpt><trkpt lat="43.2481943" lon="11.5555985"><ele>180.6</ele><time>2026-04-20T15:08:43.444Z</time></trkpt><trkpt lat="43.2482797" lon="11.5556783"><ele>182.2</ele><time>2026-04-20T15:08:44.444Z</time></trkpt><trkpt lat="43.2483708" lon="11.5557525"><ele>183.79999999999998</ele><time>2026-04-20T15:08:45.444Z</time></trkpt><trkpt lat="43.2484632" lon="11.5558244"><ele>185.39999999999998</ele><time>2026-04-20T15:08:46.444Z</time></trkpt><trkpt lat="43.2485485" lon="11.5558903"><ele>187.0</ele><time>2026-04-20T15:08:47.444Z</time></trkpt><trkpt lat="43.2486277" lon="11.5559522"><ele>187.0</ele><time>2026-04-20T15:08:48.444Z</time></trkpt><trkpt lat="43.2487047" lon="11.5560141"><ele>187.0</ele><time>2026-04-20T15:08:49.444Z</time></trkpt><trkpt lat="43.2487797" lon="11.5560659"><ele>187.0</ele><time>2026-04-20T15:08:50.444Z</time></trkpt><trkpt lat="43.2488625" lon="11.5561054"><ele>187.0</ele><time>2026-04-20T15:08:51.444Z</time></trkpt><trkpt lat="43.2489526" lon="11.5561207"><ele>187.0</ele><time>2026-04-20T15:08:52.444Z</time></trkpt><trkpt lat="43.2490559" lon="11.5561117"><ele>188.8</ele><time>2026-04-20T15:08:53.444Z</time></trkpt><trkpt lat="43.2491634" lon="11.5560892"><ele>190.6</ele><time>2026-04-20T15:08:54.444Z</time></trkpt><trkpt lat="43.2492683" lon="11.5560639"><ele>192.4</ele><time>2026-04-20T15:08:55.444Z</time></trkpt><trkpt lat="43.2493708" lon="11.556039"><ele>194.20000000000002</ele><time>2026-04-20T15:08:56.444Z</time></trkpt><trkpt lat="43.249469" lon="11.5560161"><ele>196.0</ele><time>2026-04-20T15:08:57.444Z</time></trkpt><trkpt lat="43.2495604" lon="11.5559979"><ele>195.99999999999997</ele><time>2026-04-20T15:08:58.444Z</time></trkpt><trkpt lat="43.2496497" lon="11.5559854"><ele>196.0</ele><time>2026-04-20T15:08:59.445Z</time></trkpt><trkpt lat="43.2497387" lon="11.5559823"><ele>196.0</ele><time>2026-04-20T15:09:00.444Z</time></trkpt><trkpt lat="43.2498247" lon="11.5559792"><ele>196.0</ele><time>2026-04-20T15:09:01.444Z</time></trkpt><trkpt lat="43.2499153" lon="11.5559714"><ele>195.99999999999997</ele><time>2026-04-20T15:09:02.444Z</time></trkpt><trkpt lat="43.2500076" lon="11.5559498"><ele>196.0</ele><time>2026-04-20T15:09:03.444Z</time></trkpt><trkpt lat="43.2500988" lon="11.5559061"><ele>196.60000000000002</ele><time>2026-04-20T15:09:04.445Z</time></trkpt><trkpt lat="43.2501865" lon="11.5558409"><ele>197.2</ele><time>2026-04-20T15:09:05.444Z</time></trkpt><trkpt lat="43.2502684" lon="11.5557631"><ele>197.8</ele><time>2026-04-20T15:09:06.444Z</time></trkpt><trkpt lat="43.2503473" lon="11.5556846"><ele>198.39999999999998</ele><time>2026-04-20T15:09:07.444Z</time></trkpt><trkpt lat="43.2504268" lon="11.5556093"><ele>199.0</ele><time>2026-04-20T15:09:08.444Z</time></trkpt><trkpt lat="43.2505037" lon="11.5555303"><ele>198.99999999999997</ele><time>2026-04-20T15:09:09.444Z</time></trkpt><trkpt lat="43.2505767" lon="11.555453"><ele>199.0</ele><time>2026-04-20T15:09:10.444Z</time></trkpt><trkpt lat="43.250647" lon="11.5553774"><ele>199.0</ele><time>2026-04-20T15:09:11.444Z</time></trkpt><trkpt lat="43.2507138" lon="11.5553027"><ele>199.0</ele><time>2026-04-20T15:09:12.444Z</time></trkpt><trkpt lat="43.2507806" lon="11.5552223"><ele>198.99999999999997</ele><time>2026-04-20T15:09:13.444Z</time></trkpt><trkpt lat="43.2508491" lon="11.5551359"><ele>199.0</ele><time>2026-04-20T15:09:14.444Z</time></trkpt><trkpt lat="43.2509243" lon="11.5550605"><ele>202.2</ele><time>2026-04-20T15:09:15.445Z</time></trkpt><trkpt lat="43.2510127" lon="11.5549963"><ele>205.39999999999998</ele><time>2026-04-20T15:09:16.444Z</time></trkpt><trkpt lat="43.2511012" lon="11.5549388"><ele>208.6</ele><time>2026-04-20T15:09:17.444Z</time></trkpt><trkpt lat="43.2511923" lon="11.5548874"><ele>211.8</ele><time>2026-04-20T15:09:18.444Z</time></trkpt><trkpt lat="43.2512928" lon="11.554847"><ele>215.0</ele><time>2026-04-20T15:09:19.444Z</time></trkpt><trkpt lat="43.2513959" lon="11.5548142"><ele>214.6</ele><time>2026-04-20T15:09:20.445Z</time></trkpt><trkpt lat="43.2514992" lon="11.554782"><ele>214.2</ele><time>2026-04-20T15:09:21.445Z</time></trkpt><trkpt lat="43.2515998" lon="11.5547489"><ele>213.8</ele><time>2026-04-20T15:09:22.446Z</time></trkpt><trkpt lat="43.2516945" lon="11.5547177"><ele>213.4</ele><time>2026-04-20T15:09:23.445Z</time></trkpt><trkpt lat="43.2517882" lon="11.5546879"><ele>213.0</ele><time>2026-04-20T15:09:24.445Z</time></trkpt><trkpt lat="43.2518777" lon="11.5546562"><ele>213.0</ele><time>2026-04-20T15:09:25.445Z</time></trkpt><trkpt lat="43.2519655" lon="11.5546321"><ele>213.0</ele><time>2026-04-20T15:09:26.445Z</time></trkpt><trkpt lat="43.2520469" lon="11.5546186"><ele>213.0</ele><time>2026-04-20T15:09:27.445Z</time></trkpt><trkpt lat="43.2521234" lon="11.5546134"><ele>213.0</ele><time>2026-04-20T15:09:28.446Z</time></trkpt><trkpt lat="43.2522076" lon="11.5546186"><ele>213.0</ele><time>2026-04-20T15:09:29.445Z</time></trkpt><trkpt lat="43.2522956" lon="11.5546392"><ele>213.0</ele><time>2026-04-20T15:09:30.445Z</time></trkpt><trkpt lat="43.2523884" lon="11.554672"><ele>213.2</ele><time>2026-04-20T15:09:31.445Z</time></trkpt><trkpt lat="43.2524818" lon="11.5547096"><ele>213.4</ele><time>2026-04-20T15:09:32.445Z</time></trkpt><trkpt lat="43.2525787" lon="11.5547357"><ele>213.59999999999997</ele><time>2026-04-20T15:09:33.445Z</time></trkpt><trkpt lat="43.2526747" lon="11.5547483"><ele>213.79999999999998</ele><time>2026-04-20T15:09:34.445Z</time></trkpt><trkpt lat="43.2527691" lon="11.554746"><ele>214.0</ele><time>2026-04-20T15:09:35.446Z</time></trkpt><trkpt lat="43.2528616" lon="11.5547268"><ele>214.0</ele><time>2026-04-20T15:09:36.445Z</time></trkpt><trkpt lat="43.2529564" lon="11.554698"><ele>213.99999999999997</ele><time>2026-04-20T15:09:37.445Z</time></trkpt><trkpt lat="43.2530515" lon="11.5546681"><ele>213.99999999999997</ele><time>2026-04-20T15:09:38.445Z</time></trkpt><trkpt lat="43.253147" lon="11.5546353"><ele>214.0</ele><time>2026-04-20T15:09:39.445Z</time></trkpt><trkpt lat="43.2532427" lon="11.5545977"><ele>214.0</ele><time>2026-04-20T15:09:40.446Z</time></trkpt><trkpt lat="43.2533372" lon="11.5545503"><ele>217.6</ele><time>2026-04-20T15:09:41.445Z</time></trkpt><trkpt lat="43.2534236" lon="11.5544925"><ele>221.2</ele><time>2026-04-20T15:09:42.446Z</time></trkpt><trkpt lat="43.2535021" lon="11.5544289"><ele>224.79999999999998</ele><time>2026-04-20T15:09:43.445Z</time></trkpt><trkpt lat="43.2535787" lon="11.5543648"><ele>228.39999999999998</ele><time>2026-04-20T15:09:44.445Z</time></trkpt><trkpt lat="43.2536562" lon="11.5543017"><ele>232.0</ele><time>2026-04-20T15:09:45.445Z</time></trkpt><trkpt lat="43.2537349" lon="11.5542425"><ele>232.0</ele><time>2026-04-20T15:09:46.445Z</time></trkpt><trkpt lat="43.253812" lon="11.5541811"><ele>232.0</ele><time>2026-04-20T15:09:47.445Z</time></trkpt><trkpt lat="43.2538824" lon="11.5541073"><ele>232.0</ele><time>2026-04-20T15:09:48.445Z</time></trkpt><trkpt lat="43.2539426" lon="11.5540169"><ele>232.0</ele><time>2026-04-20T15:09:49.446Z</time></trkpt><trkpt lat="43.2539937" lon="11.5539087"><ele>232.0</ele><time>2026-04-20T15:09:50.445Z</time></trkpt><trkpt lat="43.2540327" lon="11.5537856"><ele>234.6</ele><time>2026-04-20T15:09:51.445Z</time></trkpt><trkpt lat="43.2540544" lon="11.5536549"><ele>237.2</ele><time>2026-04-20T15:09:52.445Z</time></trkpt><trkpt lat="43.2540628" lon="11.5535214"><ele>239.8</ele><time>2026-04-20T15:09:53.445Z</time></trkpt><trkpt lat="43.2540661" lon="11.5533945"><ele>242.4</ele><time>2026-04-20T15:09:54.445Z</time></trkpt><trkpt lat="43.2540769" lon="11.553274"><ele>245.0</ele><time>2026-04-20T15:09:55.445Z</time></trkpt><trkpt lat="43.2541058" lon="11.5531651"><ele>245.00000000000003</ele><time>2026-04-20T15:09:56.445Z</time></trkpt><trkpt lat="43.2541558" lon="11.5530694"><ele>245.0</ele><time>2026-04-20T15:09:57.445Z</time></trkpt><trkpt lat="43.2542229" lon="11.5529928"><ele>245.0</ele><time>2026-04-20T15:09:58.446Z</time></trkpt><trkpt lat="43.2542974" lon="11.5529444"><ele>245.0</ele><time>2026-04-20T15:09:59.445Z</time></trkpt><trkpt lat="43.2543767" lon="11.552922"><ele>245.00000000000003</ele><time>2026-04-20T15:10:00.445Z</time></trkpt><trkpt lat="43.2544589" lon="11.5529245"><ele>245.0</ele><time>2026-04-20T15:10:01.445Z</time></trkpt><trkpt lat="43.2545423" lon="11.5529344"><ele>245.00000000000003</ele><time>2026-04-20T15:10:02.445Z</time></trkpt><trkpt lat="43.2546258" lon="11.552941"><ele>245.0</ele><time>2026-04-20T15:10:03.446Z</time></trkpt><trkpt lat="43.2547139" lon="11.552942"><ele>245.0</ele><time>2026-04-20T15:10:04.445Z</time></trkpt><trkpt lat="43.2548071" lon="11.5529373"><ele>245.0</ele><time>2026-04-20T15:10:05.445Z</time></trkpt><trkpt lat="43.2549011" lon="11.5529286"><ele>245.00000000000003</ele><time>2026-04-20T15:10:06.445Z</time></trkpt><trkpt lat="43.2549905" lon="11.5529207"><ele>245.0</ele><time>2026-04-20T15:10:07.445Z</time></trkpt><trkpt lat="43.2550824" lon="11.5529198"><ele>245.6</ele><time>2026-04-20T15:10:08.445Z</time></trkpt><trkpt lat="43.2551771" lon="11.5529193"><ele>246.2</ele><time>2026-04-20T15:10:09.446Z</time></trkpt><trkpt lat="43.2552756" lon="11.5529152"><ele>246.8</ele><time>2026-04-20T15:10:10.446Z</time></trkpt><trkpt lat="43.2553687" lon="11.5529129"><ele>247.4</ele><time>2026-04-20T15:10:11.446Z</time></trkpt><trkpt lat="43.2554633" lon="11.5529174"><ele>248.0</ele><time>2026-04-20T15:10:12.446Z</time></trkpt><trkpt lat="43.255558" lon="11.5529378"><ele>248.8</ele><time>2026-04-20T15:10:13.446Z</time></trkpt><trkpt lat="43.255657" lon="11.5529781"><ele>249.60000000000002</ele><time>2026-04-20T15:10:14.446Z</time></trkpt><trkpt lat="43.255757" lon="11.5530355"><ele>250.39999999999998</ele><time>2026-04-20T15:10:15.446Z</time></trkpt><trkpt lat="43.2558562" lon="11.5530994"><ele>251.2</ele><time>2026-04-20T15:10:16.446Z</time></trkpt><trkpt lat="43.2559579" lon="11.5531673"><ele>252.0</ele><time>2026-04-20T15:10:17.446Z</time></trkpt><trkpt lat="43.256062" lon="11.5532344"><ele>252.0</ele><time>2026-04-20T15:10:18.446Z</time></trkpt><trkpt lat="43.256165" lon="11.5532984"><ele>252.0</ele><time>2026-04-20T15:10:19.447Z</time></trkpt><trkpt lat="43.2562721" lon="11.5533669"><ele>252.0</ele><time>2026-04-20T15:10:20.446Z</time></trkpt><trkpt lat="43.2563797" lon="11.5534373"><ele>252.0</ele><time>2026-04-20T15:10:21.446Z</time></trkpt><trkpt lat="43.2564794" lon="11.5535049"><ele>251.8</ele><time>2026-04-20T15:10:22.446Z</time></trkpt><trkpt lat="43.2565705" lon="11.5535701"><ele>251.6</ele><time>2026-04-20T15:10:23.446Z</time></trkpt><trkpt lat="43.2566578" lon="11.553632"><ele>251.40000000000003</ele><time>2026-04-20T15:10:24.446Z</time></trkpt><trkpt lat="43.256748" lon="11.5536904"><ele>251.20000000000002</ele><time>2026-04-20T15:10:25.446Z</time></trkpt><trkpt lat="43.2568372" lon="11.553731"><ele>251.0</ele><time>2026-04-20T15:10:26.446Z</time></trkpt><trkpt lat="43.2569292" lon="11.55375"><ele>251.0</ele><time>2026-04-20T15:10:27.446Z</time></trkpt><trkpt lat="43.257026" lon="11.5537483"><ele>251.00000000000003</ele><time>2026-04-20T15:10:28.446Z</time></trkpt><trkpt lat="43.257126" lon="11.5537283"><ele>251.00000000000003</ele><time>2026-04-20T15:10:29.447Z</time></trkpt><trkpt lat="43.2572278" lon="11.5536995"><ele>251.0</ele><time>2026-04-20T15:10:30.446Z</time></trkpt><trkpt lat="43.2573264" lon="11.5536668"><ele>251.0</ele><time>2026-04-20T15:10:31.446Z</time></trkpt><trkpt lat="43.2574233" lon="11.553633"><ele>251.20000000000002</ele><time>2026-04-20T15:10:32.447Z</time></trkpt><trkpt lat="43.2575212" lon="11.5535979"><ele>251.40000000000003</ele><time>2026-04-20T15:10:33.447Z</time></trkpt><trkpt lat="43.2576194" lon="11.5535553"><ele>251.6</ele><time>2026-04-20T15:10:34.446Z</time></trkpt><trkpt lat="43.2577192" lon="11.5535044"><ele>251.8</ele><time>2026-04-20T15:10:35.446Z</time></trkpt><trkpt lat="43.2578171" lon="11.5534509"><ele>252.0</ele><time>2026-04-20T15:10:36.446Z</time></trkpt><trkpt lat="43.2579132" lon="11.5533997"><ele>252.0</ele><time>2026-04-20T15:10:37.446Z</time></trkpt><trkpt lat="43.2580068" lon="11.553351"><ele>252.0</ele><time>2026-04-20T15:10:38.447Z</time></trkpt><trkpt lat="43.2581031" lon="11.5533072"><ele>252.0</ele><time>2026-04-20T15:10:39.447Z</time></trkpt><trkpt lat="43.258205" lon="11.5532743"><ele>252.0</ele><time>2026-04-20T15:10:40.446Z</time></trkpt><trkpt lat="43.2583057" lon="11.5532513"><ele>252.0</ele><time>2026-04-20T15:10:41.446Z</time></trkpt><trkpt lat="43.2584027" lon="11.5532321"><ele>252.0</ele><time>2026-04-20T15:10:42.446Z</time></trkpt><trkpt lat="43.2585014" lon="11.5532105"><ele>252.0</ele><time>2026-04-20T15:10:43.446Z</time></trkpt><trkpt lat="43.2586014" lon="11.5531902"><ele>252.0</ele><time>2026-04-20T15:10:44.447Z</time></trkpt><trkpt lat="43.2587005" lon="11.5531693"><ele>252.0</ele><time>2026-04-20T15:10:45.446Z</time></trkpt><trkpt lat="43.2588004" lon="11.5531414"><ele>252.0</ele><time>2026-04-20T15:10:46.446Z</time></trkpt><trkpt lat="43.2588965" lon="11.5531023"><ele>250.8</ele><time>2026-04-20T15:10:47.446Z</time></trkpt><trkpt lat="43.2589904" lon="11.553046"><ele>249.6</ele><time>2026-04-20T15:10:48.446Z</time></trkpt><trkpt lat="43.2590833" lon="11.5529674"><ele>248.40000000000003</ele><time>2026-04-20T15:10:49.447Z</time></trkpt><trkpt lat="43.2591669" lon="11.5528779"><ele>247.20000000000002</ele><time>2026-04-20T15:10:50.446Z</time></trkpt><trkpt lat="43.2592381" lon="11.5527881"><ele>246.0</ele><time>2026-04-20T15:10:51.447Z</time></trkpt><trkpt lat="43.2593041" lon="11.5526969"><ele>246.0</ele><time>2026-04-20T15:10:52.446Z</time></trkpt><trkpt lat="43.2593707" lon="11.5526003"><ele>246.00000000000003</ele><time>2026-04-20T15:10:53.446Z</time></trkpt><trkpt lat="43.2594354" lon="11.5524951"><ele>246.00000000000003</ele><time>2026-04-20T15:10:54.446Z</time></trkpt><trkpt lat="43.2594908" lon="11.5523768"><ele>246.0</ele><time>2026-04-20T15:10:55.446Z</time></trkpt><trkpt lat="43.2595329" lon="11.5522493"><ele>246.0</ele><time>2026-04-20T15:10:56.446Z</time></trkpt><trkpt lat="43.2595628" lon="11.5521149"><ele>246.0</ele><time>2026-04-20T15:10:57.448Z</time></trkpt><trkpt lat="43.2595882" lon="11.5519817"><ele>246.00000000000003</ele><time>2026-04-20T15:10:58.447Z</time></trkpt><trkpt lat="43.2596136" lon="11.5518473"><ele>246.00000000000003</ele><time>2026-04-20T15:10:59.447Z</time></trkpt><trkpt lat="43.2596412" lon="11.5517173"><ele>246.0</ele><time>2026-04-20T15:11:00.447Z</time></trkpt><trkpt lat="43.2596724" lon="11.5516022"><ele>246.0</ele><time>2026-04-20T15:11:01.447Z</time></trkpt><trkpt lat="43.2597015" lon="11.5515104"><ele>246.0</ele><time>2026-04-20T15:11:02.447Z</time></trkpt><trkpt lat="43.259738" lon="11.5513701"><ele>246.0</ele><time>2026-04-20T15:11:04.447Z</time></trkpt><trkpt lat="43.2597632" lon="11.55122"><ele>246.0</ele><time>2026-04-20T15:11:06.447Z</time></trkpt><trkpt lat="43.2597861" lon="11.5511297"><ele>246.0</ele><time>2026-04-20T15:11:07.448Z</time></trkpt><trkpt lat="43.2598187" lon="11.5510425"><ele>246.0</ele><time>2026-04-20T15:11:08.447Z</time></trkpt><trkpt lat="43.2598585" lon="11.5509613"><ele>246.0</ele><time>2026-04-20T15:11:09.447Z</time></trkpt><trkpt lat="43.2599024" lon="11.550881"><ele>246.33333333333334</ele><time>2026-04-20T15:11:10.447Z</time></trkpt><trkpt lat="43.2599481" lon="11.5508002"><ele>246.66666666666669</ele><time>2026-04-20T15:11:11.447Z</time></trkpt><trkpt lat="43.2599955" lon="11.5507174"><ele>247.0</ele><time>2026-04-20T15:11:12.447Z</time></trkpt><trkpt lat="43.2600441" lon="11.5506332"><ele>247.33333333333334</ele><time>2026-04-20T15:11:13.447Z</time></trkpt><trkpt lat="43.2600956" lon="11.5505463"><ele>247.66666666666669</ele><time>2026-04-20T15:11:14.447Z</time></trkpt><trkpt lat="43.2601492" lon="11.5504569"><ele>248.0</ele><time>2026-04-20T15:11:15.448Z</time></trkpt><trkpt lat="43.260204" lon="11.550369"><ele>246.60000000000002</ele><time>2026-04-20T15:11:16.447Z</time></trkpt><trkpt lat="43.260261" lon="11.5502882"><ele>245.20000000000002</ele><time>2026-04-20T15:11:17.447Z</time></trkpt><trkpt lat="43.2603247" lon="11.5502123"><ele>243.8</ele><time>2026-04-20T15:11:18.447Z</time></trkpt><trkpt lat="43.2604003" lon="11.5501379"><ele>242.4</ele><time>2026-04-20T15:11:19.447Z</time></trkpt><trkpt lat="43.2604908" lon="11.5500673"><ele>241.0</ele><time>2026-04-20T15:11:20.447Z</time></trkpt><trkpt lat="43.2605886" lon="11.5500116"><ele>239.0</ele><time>2026-04-20T15:11:21.447Z</time></trkpt><trkpt lat="43.2606957" lon="11.5499688"><ele>237.0</ele><time>2026-04-20T15:11:22.447Z</time></trkpt><trkpt lat="43.2608087" lon="11.54994"><ele>235.0</ele><time>2026-04-20T15:11:23.447Z</time></trkpt><trkpt lat="43.260921" lon="11.549924"><ele>233.0</ele><time>2026-04-20T15:11:24.447Z</time></trkpt><trkpt lat="43.2610346" lon="11.5499277"><ele>233.0</ele><time>2026-04-20T15:11:25.447Z</time></trkpt><trkpt lat="43.2611459" lon="11.5499484"><ele>233.0</ele><time>2026-04-20T15:11:26.447Z</time></trkpt><trkpt lat="43.261255" lon="11.5499735"><ele>233.0</ele><time>2026-04-20T15:11:27.448Z</time></trkpt><trkpt lat="43.2613638" lon="11.5499841"><ele>233.0</ele><time>2026-04-20T15:11:28.447Z</time></trkpt><trkpt lat="43.2614729" lon="11.5499744"><ele>233.0</ele><time>2026-04-20T15:11:29.447Z</time></trkpt><trkpt lat="43.2615806" lon="11.5499477"><ele>233.4</ele><time>2026-04-20T15:11:30.448Z</time></trkpt><trkpt lat="43.2616871" lon="11.5499035"><ele>233.8</ele><time>2026-04-20T15:11:31.447Z</time></trkpt><trkpt lat="43.2617926" lon="11.5498452"><ele>234.2</ele><time>2026-04-20T15:11:32.447Z</time></trkpt><trkpt lat="43.2618939" lon="11.5497764"><ele>234.6</ele><time>2026-04-20T15:11:33.447Z</time></trkpt><trkpt lat="43.2619885" lon="11.5496955"><ele>235.0</ele><time>2026-04-20T15:11:34.447Z</time></trkpt><trkpt lat="43.2620789" lon="11.5496028"><ele>235.5</ele><time>2026-04-20T15:11:35.447Z</time></trkpt><trkpt lat="43.2621676" lon="11.5495025"><ele>236.0</ele><time>2026-04-20T15:11:36.447Z</time></trkpt><trkpt lat="43.2622534" lon="11.5493974"><ele>236.5</ele><time>2026-04-20T15:11:37.447Z</time></trkpt><trkpt lat="43.2623352" lon="11.5492916"><ele>237.0</ele><time>2026-04-20T15:11:38.447Z</time></trkpt><trkpt lat="43.2624152" lon="11.5491866"><ele>238.8</ele><time>2026-04-20T15:11:39.447Z</time></trkpt><trkpt lat="43.262494" lon="11.5490795"><ele>240.6</ele><time>2026-04-20T15:11:40.447Z</time></trkpt><trkpt lat="43.2625689" lon="11.5489632"><ele>242.40000000000003</ele><time>2026-04-20T15:11:41.447Z</time></trkpt><trkpt lat="43.2626332" lon="11.5488482"><ele>244.20000000000002</ele><time>2026-04-20T15:11:42.447Z</time></trkpt><trkpt lat="43.262687" lon="11.5487418"><ele>246.0</ele><time>2026-04-20T15:11:43.447Z</time></trkpt><trkpt lat="43.262735" lon="11.5486407"><ele>247.33333333333334</ele><time>2026-04-20T15:11:44.447Z</time></trkpt><trkpt lat="43.262784" lon="11.5485384"><ele>248.66666666666669</ele><time>2026-04-20T15:11:45.447Z</time></trkpt><trkpt lat="43.262834" lon="11.54844"><ele>250.0</ele><time>2026-04-20T15:11:46.447Z</time></trkpt><trkpt lat="43.2628859" lon="11.5483465"><ele>251.33333333333334</ele><time>2026-04-20T15:11:47.448Z</time></trkpt><trkpt lat="43.2629425" lon="11.5482524"><ele>252.66666666666669</ele><time>2026-04-20T15:11:48.448Z</time></trkpt><trkpt lat="43.2629995" lon="11.5481535"><ele>254.0</ele><time>2026-04-20T15:11:49.448Z</time></trkpt><trkpt lat="43.2630489" lon="11.548043"><ele>254.0</ele><time>2026-04-20T15:11:50.448Z</time></trkpt><trkpt lat="43.2630905" lon="11.547923"><ele>253.99999999999997</ele><time>2026-04-20T15:11:51.448Z</time></trkpt><trkpt lat="43.2631279" lon="11.5478081"><ele>253.99999999999997</ele><time>2026-04-20T15:11:52.449Z</time></trkpt><trkpt lat="43.2631663" lon="11.5476957"><ele>254.0</ele><time>2026-04-20T15:11:53.448Z</time></trkpt><trkpt lat="43.2632097" lon="11.5475853"><ele>254.0</ele><time>2026-04-20T15:11:54.448Z</time></trkpt><trkpt lat="43.26326" lon="11.5474848"><ele>256.0</ele><time>2026-04-20T15:11:55.449Z</time></trkpt><trkpt lat="43.2633173" lon="11.5473928"><ele>258.0</ele><time>2026-04-20T15:11:56.448Z</time></trkpt><trkpt lat="43.2633837" lon="11.5473088"><ele>260.0</ele><time>2026-04-20T15:11:57.448Z</time></trkpt><trkpt lat="43.2634564" lon="11.5472326"><ele>262.0</ele><time>2026-04-20T15:11:58.448Z</time></trkpt><trkpt lat="43.2635296" lon="11.5471578"><ele>264.0</ele><time>2026-04-20T15:11:59.449Z</time></trkpt><trkpt lat="43.2636076" lon="11.5470818"><ele>264.0</ele><time>2026-04-20T15:12:00.449Z</time></trkpt><trkpt lat="43.2636901" lon="11.5470031"><ele>264.0</ele><time>2026-04-20T15:12:01.448Z</time></trkpt><trkpt lat="43.2637716" lon="11.5469288"><ele>264.0</ele><time>2026-04-20T15:12:02.448Z</time></trkpt><trkpt lat="43.2638528" lon="11.5468577"><ele>264.0</ele><time>2026-04-20T15:12:03.448Z</time></trkpt><trkpt lat="43.2639353" lon="11.5467825"><ele>264.0</ele><time>2026-04-20T15:12:04.448Z</time></trkpt><trkpt lat="43.2640191" lon="11.5467046"><ele>264.0</ele><time>2026-04-20T15:12:05.449Z</time></trkpt><trkpt lat="43.2641007" lon="11.5466266"><ele>264.0</ele><time>2026-04-20T15:12:06.448Z</time></trkpt><trkpt lat="43.2641791" lon="11.5465426"><ele>264.0</ele><time>2026-04-20T15:12:07.448Z</time></trkpt><trkpt lat="43.2642518" lon="11.5464534"><ele>264.0</ele><time>2026-04-20T15:12:08.448Z</time></trkpt><trkpt lat="43.264316" lon="11.5463604"><ele>264.0</ele><time>2026-04-20T15:12:09.448Z</time></trkpt><trkpt lat="43.2643743" lon="11.5462537"><ele>266.4</ele><time>2026-04-20T15:12:10.448Z</time></trkpt><trkpt lat="43.2644254" lon="11.5461308"><ele>268.79999999999995</ele><time>2026-04-20T15:12:11.448Z</time></trkpt><trkpt lat="43.2644704" lon="11.545999"><ele>271.20000000000005</ele><time>2026-04-20T15:12:12.448Z</time></trkpt><trkpt lat="43.2645047" lon="11.5458653"><ele>273.6</ele><time>2026-04-20T15:12:13.448Z</time></trkpt><trkpt lat="43.2645327" lon="11.5457301"><ele>276.0</ele><time>2026-04-20T15:12:14.448Z</time></trkpt><trkpt lat="43.2645549" lon="11.5455919"><ele>276.0</ele><time>2026-04-20T15:12:15.448Z</time></trkpt><trkpt lat="43.2645734" lon="11.5454533"><ele>276.0</ele><time>2026-04-20T15:12:16.448Z</time></trkpt><trkpt lat="43.2645904" lon="11.5453206"><ele>276.0</ele><time>2026-04-20T15:12:17.448Z</time></trkpt><trkpt lat="43.2646056" lon="11.5452021"><ele>276.0</ele><time>2026-04-20T15:12:18.448Z</time></trkpt><trkpt lat="43.2646211" lon="11.545098"><ele>276.0</ele><time>2026-04-20T15:12:19.448Z</time></trkpt><trkpt lat="43.2646363" lon="11.5450064"><ele>276.0</ele><time>2026-04-20T15:12:20.448Z</time></trkpt><trkpt lat="43.2646483" lon="11.5449159"><ele>276.14285714285717</ele><time>2026-04-20T15:12:21.448Z</time></trkpt><trkpt lat="43.2646602" lon="11.5448234"><ele>276.28571428571433</ele><time>2026-04-20T15:12:22.449Z</time></trkpt><trkpt lat="43.2646759" lon="11.54473"><ele>276.42857142857144</ele><time>2026-04-20T15:12:23.449Z</time></trkpt><trkpt lat="43.2647001" lon="11.5446367"><ele>276.57142857142856</ele><time>2026-04-20T15:12:24.448Z</time></trkpt><trkpt lat="43.2647337" lon="11.5445449"><ele>276.71428571428567</ele><time>2026-04-20T15:12:25.448Z</time></trkpt><trkpt lat="43.2647716" lon="11.544462"><ele>276.85714285714283</ele><time>2026-04-20T15:12:26.448Z</time></trkpt><trkpt lat="43.264818" lon="11.5443779"><ele>277.0</ele><time>2026-04-20T15:12:27.448Z</time></trkpt><trkpt lat="43.2648696" lon="11.5442988"><ele>273.0</ele><time>2026-04-20T15:12:28.449Z</time></trkpt><trkpt lat="43.2649228" lon="11.5442213"><ele>269.0</ele><time>2026-04-20T15:12:29.448Z</time></trkpt><trkpt lat="43.2649711" lon="11.5441395"><ele>265.0</ele><time>2026-04-20T15:12:30.449Z</time></trkpt><trkpt lat="43.2650113" lon="11.54405"><ele>261.0</ele><time>2026-04-20T15:12:31.45Z</time></trkpt><trkpt lat="43.2650468" lon="11.5439542"><ele>257.0</ele><time>2026-04-20T15:12:32.448Z</time></trkpt><trkpt lat="43.2650812" lon="11.5438561"><ele>253.0</ele><time>2026-04-20T15:12:33.448Z</time></trkpt><trkpt lat="43.2651139" lon="11.5437593"><ele>251.49999999999997</ele><time>2026-04-20T15:12:34.448Z</time></trkpt><trkpt lat="43.2651466" lon="11.5436637"><ele>250.0</ele><time>2026-04-20T15:12:35.449Z</time></trkpt><trkpt lat="43.2651785" lon="11.5435695"><ele>248.5</ele><time>2026-04-20T15:12:36.448Z</time></trkpt><trkpt lat="43.2652047" lon="11.5434742"><ele>247.0</ele><time>2026-04-20T15:12:37.449Z</time></trkpt><trkpt lat="43.2652237" lon="11.5433691"><ele>245.49999999999997</ele><time>2026-04-20T15:12:38.449Z</time></trkpt><trkpt lat="43.2652355" lon="11.543247"><ele>244.0</ele><time>2026-04-20T15:12:39.449Z</time></trkpt><trkpt lat="43.2652359" lon="11.5431097"><ele>244.0</ele><time>2026-04-20T15:12:40.449Z</time></trkpt><trkpt lat="43.2652246" lon="11.5429708"><ele>243.99999999999997</ele><time>2026-04-20T15:12:41.449Z</time></trkpt><trkpt lat="43.2652078" lon="11.5428351"><ele>243.99999999999997</ele><time>2026-04-20T15:12:42.45Z</time></trkpt><trkpt lat="43.2651937" lon="11.5427012"><ele>244.0</ele><time>2026-04-20T15:12:43.45Z</time></trkpt><trkpt lat="43.2651902" lon="11.5425667"><ele>244.0</ele><time>2026-04-20T15:12:44.449Z</time></trkpt><trkpt lat="43.2652045" lon="11.5424286"><ele>242.6</ele><time>2026-04-20T15:12:45.449Z</time></trkpt><trkpt lat="43.2652412" lon="11.5422997"><ele>241.2</ele><time>2026-04-20T15:12:46.449Z</time></trkpt><trkpt lat="43.2652918" lon="11.5421794"><ele>239.79999999999998</ele><time>2026-04-20T15:12:47.449Z</time></trkpt><trkpt lat="43.2653442" lon="11.542069"><ele>238.39999999999998</ele><time>2026-04-20T15:12:48.449Z</time></trkpt><trkpt lat="43.265391" lon="11.5419565"><ele>237.0</ele><time>2026-04-20T15:12:49.449Z</time></trkpt><trkpt lat="43.265427" lon="11.541833"><ele>237.2</ele><time>2026-04-20T15:12:50.449Z</time></trkpt><trkpt lat="43.265453" lon="11.5416991"><ele>237.39999999999998</ele><time>2026-04-20T15:12:51.449Z</time></trkpt><trkpt lat="43.2654752" lon="11.5415634"><ele>237.60000000000002</ele><time>2026-04-20T15:12:52.449Z</time></trkpt><trkpt lat="43.2654947" lon="11.5414267"><ele>237.8</ele><time>2026-04-20T15:12:53.449Z</time></trkpt><trkpt lat="43.2655091" lon="11.5412915"><ele>238.0</ele><time>2026-04-20T15:12:54.449Z</time></trkpt><trkpt lat="43.2655217" lon="11.5411561"><ele>238.0</ele><time>2026-04-20T15:12:55.449Z</time></trkpt><trkpt lat="43.2655351" lon="11.5410151"><ele>238.0</ele><time>2026-04-20T15:12:56.449Z</time></trkpt><trkpt lat="43.2655454" lon="11.540881"><ele>238.0</ele><time>2026-04-20T15:12:57.45Z</time></trkpt><trkpt lat="43.2655531" lon="11.5407652"><ele>238.0</ele><time>2026-04-20T15:12:58.449Z</time></trkpt><trkpt lat="43.2655646" lon="11.5406738"><ele>238.0</ele><time>2026-04-20T15:12:59.45Z</time></trkpt><trkpt lat="43.2656182" lon="11.5405254"><ele>238.83333333333331</ele><time>2026-04-20T15:13:01.449Z</time></trkpt><trkpt lat="43.2656633" lon="11.5404504"><ele>239.66666666666666</ele><time>2026-04-20T15:13:02.449Z</time></trkpt><trkpt lat="43.2657154" lon="11.5403809"><ele>240.5</ele><time>2026-04-20T15:13:03.449Z</time></trkpt><trkpt lat="43.2657726" lon="11.5403127"><ele>241.33333333333331</ele><time>2026-04-20T15:13:04.449Z</time></trkpt><trkpt lat="43.2658304" lon="11.5402389"><ele>242.16666666666666</ele><time>2026-04-20T15:13:05.449Z</time></trkpt><trkpt lat="43.2658844" lon="11.540159"><ele>243.0</ele><time>2026-04-20T15:13:06.449Z</time></trkpt><trkpt lat="43.2659357" lon="11.5400725"><ele>243.66666666666666</ele><time>2026-04-20T15:13:07.449Z</time></trkpt><trkpt lat="43.2659888" lon="11.5399847"><ele>244.33333333333331</ele><time>2026-04-20T15:13:08.449Z</time></trkpt><trkpt lat="43.266046" lon="11.5399014"><ele>245.0</ele><time>2026-04-20T15:13:09.449Z</time></trkpt><trkpt lat="43.2661065" lon="11.5398191"><ele>245.66666666666666</ele><time>2026-04-20T15:13:10.45Z</time></trkpt><trkpt lat="43.2661675" lon="11.5397353"><ele>246.33333333333331</ele><time>2026-04-20T15:13:11.449Z</time></trkpt><trkpt lat="43.2662246" lon="11.5396536"><ele>247.0</ele><time>2026-04-20T15:13:12.449Z</time></trkpt><trkpt lat="43.2662771" lon="11.539565"><ele>247.83333333333331</ele><time>2026-04-20T15:13:13.449Z</time></trkpt><trkpt lat="43.2663274" lon="11.539465"><ele>248.66666666666666</ele><time>2026-04-20T15:13:14.449Z</time></trkpt><trkpt lat="43.266379" lon="11.5393582"><ele>249.5</ele><time>2026-04-20T15:13:15.449Z</time></trkpt><trkpt lat="43.2664322" lon="11.5392517"><ele>250.33333333333331</ele><time>2026-04-20T15:13:16.45Z</time></trkpt><trkpt lat="43.2664876" lon="11.5391577"><ele>251.16666666666666</ele><time>2026-04-20T15:13:17.449Z</time></trkpt><trkpt lat="43.2665495" lon="11.539088"><ele>252.0</ele><time>2026-04-20T15:13:18.45Z</time></trkpt><trkpt lat="43.2666226" lon="11.5390379"><ele>249.2</ele><time>2026-04-20T15:13:19.45Z</time></trkpt><trkpt lat="43.266712" lon="11.5389952"><ele>246.39999999999998</ele><time>2026-04-20T15:13:20.449Z</time></trkpt><trkpt lat="43.2668047" lon="11.5389528"><ele>243.60000000000002</ele><time>2026-04-20T15:13:21.449Z</time></trkpt><trkpt lat="43.2668923" lon="11.5389077"><ele>240.8</ele><time>2026-04-20T15:13:22.449Z</time></trkpt><trkpt lat="43.2669724" lon="11.538863"><ele>238.0</ele><time>2026-04-20T15:13:23.449Z</time></trkpt><trkpt lat="43.2670515" lon="11.5388155"><ele>237.99999999999997</ele><time>2026-04-20T15:13:24.449Z</time></trkpt><trkpt lat="43.2671349" lon="11.5387637"><ele>238.0</ele><time>2026-04-20T15:13:25.449Z</time></trkpt><trkpt lat="43.2672151" lon="11.5387107"><ele>238.0</ele><time>2026-04-20T15:13:26.45Z</time></trkpt><trkpt lat="43.2672922" lon="11.5386545"><ele>238.0</ele><time>2026-04-20T15:13:27.45Z</time></trkpt><trkpt lat="43.2673662" lon="11.5386025"><ele>237.99999999999997</ele><time>2026-04-20T15:13:28.45Z</time></trkpt><trkpt lat="43.267437" lon="11.5385543"><ele>238.0</ele><time>2026-04-20T15:13:29.451Z</time></trkpt><trkpt lat="43.2675057" lon="11.5385072"><ele>237.0</ele><time>2026-04-20T15:13:30.45Z</time></trkpt><trkpt lat="43.2675659" lon="11.5384628"><ele>236.0</ele><time>2026-04-20T15:13:31.451Z</time></trkpt><trkpt lat="43.2676221" lon="11.5384213"><ele>235.0</ele><time>2026-04-20T15:13:32.451Z</time></trkpt><trkpt lat="43.2677201" lon="11.5383529"><ele>234.0</ele><time>2026-04-20T15:13:34.45Z</time></trkpt><trkpt lat="43.2678183" lon="11.5382793"><ele>233.0</ele><time>2026-04-20T15:13:36.45Z</time></trkpt><trkpt lat="43.2679219" lon="11.5381996"><ele>233.0</ele><time>2026-04-20T15:13:38.45Z</time></trkpt><trkpt lat="43.2679826" lon="11.5381569"><ele>233.0</ele><time>2026-04-20T15:13:39.45Z</time></trkpt><trkpt lat="43.2680458" lon="11.5381132"><ele>233.0</ele><time>2026-04-20T15:13:40.45Z</time></trkpt><trkpt lat="43.26811" lon="11.5380706"><ele>233.0</ele><time>2026-04-20T15:13:41.45Z</time></trkpt><trkpt lat="43.2681764" lon="11.5380273"><ele>233.0</ele><time>2026-04-20T15:13:42.451Z</time></trkpt><trkpt lat="43.2682434" lon="11.5379819"><ele>233.0</ele><time>2026-04-20T15:13:43.45Z</time></trkpt><trkpt lat="43.268307" lon="11.5379362"><ele>233.0</ele><time>2026-04-20T15:13:44.45Z</time></trkpt><trkpt lat="43.2683679" lon="11.5378897"><ele>230.71428571428572</ele><time>2026-04-20T15:13:45.45Z</time></trkpt><trkpt lat="43.2684298" lon="11.537844"><ele>228.42857142857142</ele><time>2026-04-20T15:13:46.451Z</time></trkpt><trkpt lat="43.2684929" lon="11.537799"><ele>226.14285714285714</ele><time>2026-04-20T15:13:47.45Z</time></trkpt><trkpt lat="43.2685569" lon="11.537758"><ele>223.85714285714286</ele><time>2026-04-20T15:13:48.45Z</time></trkpt><trkpt lat="43.2686249" lon="11.5377226"><ele>221.57142857142856</ele><time>2026-04-20T15:13:49.45Z</time></trkpt><trkpt lat="43.2687006" lon="11.5376995"><ele>219.28571428571428</ele><time>2026-04-20T15:13:50.45Z</time></trkpt><trkpt lat="43.2687808" lon="11.5376968"><ele>217.0</ele><time>2026-04-20T15:13:51.45Z</time></trkpt><trkpt lat="43.2688589" lon="11.5377118"><ele>217.0</ele><time>2026-04-20T15:13:52.45Z</time></trkpt><trkpt lat="43.268931" lon="11.5377364"><ele>217.0</ele><time>2026-04-20T15:13:53.45Z</time></trkpt><trkpt lat="43.2689979" lon="11.5377683"><ele>217.0</ele><time>2026-04-20T15:13:54.45Z</time></trkpt><trkpt lat="43.269063" lon="11.5378029"><ele>217.0</ele><time>2026-04-20T15:13:55.45Z</time></trkpt><trkpt lat="43.2691289" lon="11.5378292"><ele>217.0</ele><time>2026-04-20T15:13:56.451Z</time></trkpt><trkpt lat="43.2691996" lon="11.5378452"><ele>217.0</ele><time>2026-04-20T15:13:57.45Z</time></trkpt><trkpt lat="43.2692733" lon="11.5378509"><ele>217.0</ele><time>2026-04-20T15:13:58.451Z</time></trkpt><trkpt lat="43.2693464" lon="11.5378465"><ele>215.0</ele><time>2026-04-20T15:13:59.451Z</time></trkpt><trkpt lat="43.2694212" lon="11.5378351"><ele>213.0</ele><time>2026-04-20T15:14:00.45Z</time></trkpt><trkpt lat="43.2694934" lon="11.5378159"><ele>211.0</ele><time>2026-04-20T15:14:01.45Z</time></trkpt><trkpt lat="43.2695651" lon="11.5377904"><ele>209.0</ele><time>2026-04-20T15:14:02.45Z</time></trkpt><trkpt lat="43.2696366" lon="11.5377578"><ele>207.0</ele><time>2026-04-20T15:14:03.45Z</time></trkpt><trkpt lat="43.2697049" lon="11.5377201"><ele>205.0</ele><time>2026-04-20T15:14:04.451Z</time></trkpt><trkpt lat="43.2697737" lon="11.5376792"><ele>203.0</ele><time>2026-04-20T15:14:05.45Z</time></trkpt><trkpt lat="43.2698424" lon="11.5376378"><ele>200.83333333333334</ele><time>2026-04-20T15:14:06.45Z</time></trkpt><trkpt lat="43.2699153" lon="11.5375996"><ele>198.66666666666669</ele><time>2026-04-20T15:14:07.45Z</time></trkpt><trkpt lat="43.2699946" lon="11.5375696"><ele>196.5</ele><time>2026-04-20T15:14:08.45Z</time></trkpt><trkpt lat="43.2700732" lon="11.5375579"><ele>194.33333333333334</ele><time>2026-04-20T15:14:09.451Z</time></trkpt><trkpt lat="43.2701535" lon="11.5375683"><ele>192.16666666666669</ele><time>2026-04-20T15:14:10.45Z</time></trkpt><trkpt lat="43.2702353" lon="11.5375987"><ele>190.0</ele><time>2026-04-20T15:14:11.451Z</time></trkpt><trkpt lat="43.2703122" lon="11.5376427"><ele>190.0</ele><time>2026-04-20T15:14:12.45Z</time></trkpt><trkpt lat="43.2703879" lon="11.5376818"><ele>190.0</ele><time>2026-04-20T15:14:13.45Z</time></trkpt><trkpt lat="43.2704664" lon="11.537709"><ele>190.0</ele><time>2026-04-20T15:14:14.45Z</time></trkpt><trkpt lat="43.2705437" lon="11.5377195"><ele>190.0</ele><time>2026-04-20T15:14:15.451Z</time></trkpt><trkpt lat="43.2706159" lon="11.5377249"><ele>190.0</ele><time>2026-04-20T15:14:16.451Z</time></trkpt><trkpt lat="43.2706852" lon="11.5377406"><ele>190.0</ele><time>2026-04-20T15:14:17.452Z</time></trkpt><trkpt lat="43.2707604" lon="11.5377806"><ele>189.0</ele><time>2026-04-20T15:14:18.451Z</time></trkpt><trkpt lat="43.2708424" lon="11.5378443"><ele>188.0</ele><time>2026-04-20T15:14:19.451Z</time></trkpt><trkpt lat="43.270921" lon="11.5379171"><ele>187.0</ele><time>2026-04-20T15:14:20.451Z</time></trkpt><trkpt lat="43.2710002" lon="11.5379885"><ele>186.0</ele><time>2026-04-20T15:14:21.452Z</time></trkpt><trkpt lat="43.2710692" lon="11.5380572"><ele>185.0</ele><time>2026-04-20T15:14:22.451Z</time></trkpt><trkpt lat="43.2711298" lon="11.5381403"><ele>184.6</ele><time>2026-04-20T15:14:23.452Z</time></trkpt><trkpt lat="43.2711865" lon="11.5382455"><ele>184.2</ele><time>2026-04-20T15:14:24.451Z</time></trkpt><trkpt lat="43.2712432" lon="11.5383683"><ele>183.8</ele><time>2026-04-20T15:14:25.451Z</time></trkpt><trkpt lat="43.2712944" lon="11.5384933"><ele>183.4</ele><time>2026-04-20T15:14:26.451Z</time></trkpt><trkpt lat="43.2713448" lon="11.5386153"><ele>183.0</ele><time>2026-04-20T15:14:27.451Z</time></trkpt><trkpt lat="43.271395" lon="11.5387357"><ele>183.8</ele><time>2026-04-20T15:14:28.451Z</time></trkpt><trkpt lat="43.2714479" lon="11.5388572"><ele>184.60000000000002</ele><time>2026-04-20T15:14:29.451Z</time></trkpt><trkpt lat="43.2715014" lon="11.538979"><ele>185.39999999999998</ele><time>2026-04-20T15:14:30.451Z</time></trkpt><trkpt lat="43.2715586" lon="11.5391039"><ele>186.2</ele><time>2026-04-20T15:14:31.451Z</time></trkpt><trkpt lat="43.2716152" lon="11.5392303"><ele>187.0</ele><time>2026-04-20T15:14:32.452Z</time></trkpt><trkpt lat="43.2716658" lon="11.5393579"><ele>187.0</ele><time>2026-04-20T15:14:33.451Z</time></trkpt><trkpt lat="43.2717168" lon="11.5394948"><ele>187.0</ele><time>2026-04-20T15:14:34.451Z</time></trkpt><trkpt lat="43.2717684" lon="11.5396321"><ele>187.0</ele><time>2026-04-20T15:14:35.451Z</time></trkpt><trkpt lat="43.2718236" lon="11.5397743"><ele>187.0</ele><time>2026-04-20T15:14:36.452Z</time></trkpt><trkpt lat="43.271883" lon="11.539925"><ele>187.5</ele><time>2026-04-20T15:14:37.451Z</time></trkpt><trkpt lat="43.2719494" lon="11.5400868"><ele>188.0</ele><time>2026-04-20T15:14:38.451Z</time></trkpt><trkpt lat="43.2720196" lon="11.5402617"><ele>188.5</ele><time>2026-04-20T15:14:39.451Z</time></trkpt><trkpt lat="43.2720888" lon="11.5404389"><ele>189.0</ele><time>2026-04-20T15:14:40.452Z</time></trkpt><trkpt lat="43.2721566" lon="11.5406105"><ele>189.5</ele><time>2026-04-20T15:14:41.451Z</time></trkpt><trkpt lat="43.2722185" lon="11.5407639"><ele>190.0</ele><time>2026-04-20T15:14:42.451Z</time></trkpt><trkpt lat="43.2722741" lon="11.5408993"><ele>190.5</ele><time>2026-04-20T15:14:43.452Z</time></trkpt><trkpt lat="43.2723238" lon="11.5410359"><ele>191.0</ele><time>2026-04-20T15:14:44.452Z</time></trkpt><trkpt lat="43.2723681" lon="11.541176"><ele>193.4</ele><time>2026-04-20T15:14:45.452Z</time></trkpt><trkpt lat="43.2724082" lon="11.541324"><ele>195.8</ele><time>2026-04-20T15:14:46.451Z</time></trkpt><trkpt lat="43.2724359" lon="11.5414651"><ele>198.20000000000002</ele><time>2026-04-20T15:14:47.452Z</time></trkpt><trkpt lat="43.2724573" lon="11.541603"><ele>200.60000000000002</ele><time>2026-04-20T15:14:48.451Z</time></trkpt><trkpt lat="43.2724755" lon="11.5417367"><ele>203.0</ele><time>2026-04-20T15:14:49.451Z</time></trkpt><trkpt lat="43.2724902" lon="11.5418691"><ele>203.0</ele><time>2026-04-20T15:14:50.451Z</time></trkpt><trkpt lat="43.2725037" lon="11.5420077"><ele>203.0</ele><time>2026-04-20T15:14:51.451Z</time></trkpt><trkpt lat="43.2725127" lon="11.5421489"><ele>203.0</ele><time>2026-04-20T15:14:52.452Z</time></trkpt><trkpt lat="43.2725213" lon="11.5422884"><ele>203.0</ele><time>2026-04-20T15:14:53.451Z</time></trkpt><trkpt lat="43.2725353" lon="11.5424226"><ele>203.0</ele><time>2026-04-20T15:14:54.452Z</time></trkpt><trkpt lat="43.2725565" lon="11.5425494"><ele>204.60000000000002</ele><time>2026-04-20T15:14:55.452Z</time></trkpt><trkpt lat="43.2725821" lon="11.5426651"><ele>206.20000000000002</ele><time>2026-04-20T15:14:56.451Z</time></trkpt><trkpt lat="43.2726062" lon="11.5427543"><ele>207.8</ele><time>2026-04-20T15:14:57.451Z</time></trkpt><trkpt lat="43.272654" lon="11.5428827"><ele>209.4</ele><time>2026-04-20T15:14:59.451Z</time></trkpt><trkpt lat="43.2727484" lon="11.5429822"><ele>211.0</ele><time>2026-04-20T15:15:01.452Z</time></trkpt><trkpt lat="43.2728749" lon="11.5429751"><ele>212.49999999999997</ele><time>2026-04-20T15:15:03.452Z</time></trkpt><trkpt lat="43.2729462" lon="11.5429349"><ele>214.0</ele><time>2026-04-20T15:15:04.452Z</time></trkpt><trkpt lat="43.2730183" lon="11.5428993"><ele>215.5</ele><time>2026-04-20T15:15:05.452Z</time></trkpt><trkpt lat="43.2730933" lon="11.5428905"><ele>217.0</ele><time>2026-04-20T15:15:06.452Z</time></trkpt><trkpt lat="43.2731688" lon="11.5429136"><ele>218.49999999999997</ele><time>2026-04-20T15:15:07.452Z</time></trkpt><trkpt lat="43.2732338" lon="11.5429572"><ele>220.0</ele><time>2026-04-20T15:15:08.452Z</time></trkpt><trkpt lat="43.2732969" lon="11.5430097"><ele>221.7142857142857</ele><time>2026-04-20T15:15:09.453Z</time></trkpt><trkpt lat="43.2733557" lon="11.5430608"><ele>223.42857142857144</ele><time>2026-04-20T15:15:10.452Z</time></trkpt><trkpt lat="43.2734124" lon="11.5431122"><ele>225.14285714285717</ele><time>2026-04-20T15:15:11.452Z</time></trkpt><trkpt lat="43.2734656" lon="11.5431687"><ele>226.85714285714286</ele><time>2026-04-20T15:15:12.453Z</time></trkpt><trkpt lat="43.2735172" lon="11.5432314"><ele>228.57142857142858</ele><time>2026-04-20T15:15:13.452Z</time></trkpt><trkpt lat="43.2735706" lon="11.5432998"><ele>230.2857142857143</ele><time>2026-04-20T15:15:14.452Z</time></trkpt><trkpt lat="43.2736148" lon="11.5433719"><ele>232.00000000000003</ele><time>2026-04-20T15:15:15.453Z</time></trkpt><trkpt lat="43.2736419" lon="11.5434593"><ele>232.00000000000003</ele><time>2026-04-20T15:15:16.452Z</time></trkpt><trkpt lat="43.2736478" lon="11.5435603"><ele>232.0</ele><time>2026-04-20T15:15:17.452Z</time></trkpt><trkpt lat="43.2736346" lon="11.5436627"><ele>232.00000000000003</ele><time>2026-04-20T15:15:18.452Z</time></trkpt><trkpt lat="43.2736046" lon="11.5437552"><ele>232.00000000000003</ele><time>2026-04-20T15:15:19.453Z</time></trkpt><trkpt lat="43.273568" lon="11.543834"><ele>232.0</ele><time>2026-04-20T15:15:20.452Z</time></trkpt><trkpt lat="43.273525" lon="11.5439066"><ele>232.00000000000003</ele><time>2026-04-20T15:15:21.452Z</time></trkpt><trkpt lat="43.2734739" lon="11.5439806"><ele>232.00000000000003</ele><time>2026-04-20T15:15:22.452Z</time></trkpt><trkpt lat="43.2734156" lon="11.5440553"><ele>233.33333333333331</ele><time>2026-04-20T15:15:23.452Z</time></trkpt><trkpt lat="43.2733542" lon="11.5441332"><ele>234.66666666666666</ele><time>2026-04-20T15:15:24.453Z</time></trkpt><trkpt lat="43.2732964" lon="11.5442166"><ele>236.0</ele><time>2026-04-20T15:15:25.452Z</time></trkpt><trkpt lat="43.273245" lon="11.5443021"><ele>237.33333333333331</ele><time>2026-04-20T15:15:26.452Z</time></trkpt><trkpt lat="43.2732032" lon="11.5443929"><ele>238.66666666666666</ele><time>2026-04-20T15:15:27.452Z</time></trkpt><trkpt lat="43.2731739" lon="11.5444865"><ele>240.0</ele><time>2026-04-20T15:15:28.452Z</time></trkpt><trkpt lat="43.2731594" lon="11.5445871"><ele>240.83333333333334</ele><time>2026-04-20T15:15:29.452Z</time></trkpt><trkpt lat="43.273155" lon="11.5446959"><ele>241.66666666666669</ele><time>2026-04-20T15:15:30.452Z</time></trkpt><trkpt lat="43.273157" lon="11.5448085"><ele>242.5</ele><time>2026-04-20T15:15:31.452Z</time></trkpt><trkpt lat="43.2731573" lon="11.5449256"><ele>243.33333333333334</ele><time>2026-04-20T15:15:32.453Z</time></trkpt><trkpt lat="43.2731541" lon="11.5450413"><ele>244.16666666666669</ele><time>2026-04-20T15:15:33.453Z</time></trkpt><trkpt lat="43.2731484" lon="11.5451609"><ele>245.0</ele><time>2026-04-20T15:15:34.452Z</time></trkpt><trkpt lat="43.27314" lon="11.5452772"><ele>246.16666666666669</ele><time>2026-04-20T15:15:35.452Z</time></trkpt><trkpt lat="43.273132" lon="11.5453887"><ele>247.33333333333334</ele><time>2026-04-20T15:15:36.452Z</time></trkpt><trkpt lat="43.2731284" lon="11.5455019"><ele>248.5</ele><time>2026-04-20T15:15:37.453Z</time></trkpt><trkpt lat="43.2731307" lon="11.5456156"><ele>249.66666666666669</ele><time>2026-04-20T15:15:38.452Z</time></trkpt><trkpt lat="43.2731348" lon="11.545714"><ele>250.83333333333334</ele><time>2026-04-20T15:15:39.452Z</time></trkpt><trkpt lat="43.2731418" lon="11.5458064"><ele>252.0</ele><time>2026-04-20T15:15:40.453Z</time></trkpt><trkpt lat="43.2731546" lon="11.5459094"><ele>252.0</ele><time>2026-04-20T15:15:41.453Z</time></trkpt><trkpt lat="43.2731752" lon="11.5460189"><ele>252.0</ele><time>2026-04-20T15:15:42.452Z</time></trkpt><trkpt lat="43.2731985" lon="11.5461283"><ele>252.0</ele><time>2026-04-20T15:15:43.453Z</time></trkpt><trkpt lat="43.2732211" lon="11.5462336"><ele>252.0</ele><time>2026-04-20T15:15:44.452Z</time></trkpt><trkpt lat="43.2732465" lon="11.5463369"><ele>252.0</ele><time>2026-04-20T15:15:45.453Z</time></trkpt><trkpt lat="43.2732794" lon="11.5464412"><ele>252.0</ele><time>2026-04-20T15:15:46.452Z</time></trkpt><trkpt lat="43.2733195" lon="11.546548"><ele>253.8</ele><time>2026-04-20T15:15:47.452Z</time></trkpt><trkpt lat="43.2733641" lon="11.5466551"><ele>255.6</ele><time>2026-04-20T15:15:48.452Z</time></trkpt><trkpt lat="43.2734154" lon="11.5467634"><ele>257.40000000000003</ele><time>2026-04-20T15:15:49.452Z</time></trkpt><trkpt lat="43.2734714" lon="11.5468698"><ele>259.2</ele><time>2026-04-20T15:15:50.452Z</time></trkpt><trkpt lat="43.2735322" lon="11.5469649"><ele>261.0</ele><time>2026-04-20T15:15:51.452Z</time></trkpt><trkpt lat="43.2736019" lon="11.5470384"><ele>262.40000000000003</ele><time>2026-04-20T15:15:52.453Z</time></trkpt><trkpt lat="43.2736854" lon="11.5470934"><ele>263.8</ele><time>2026-04-20T15:15:53.452Z</time></trkpt><trkpt lat="43.2737758" lon="11.5471286"><ele>265.20000000000005</ele><time>2026-04-20T15:15:54.453Z</time></trkpt><trkpt lat="43.2738707" lon="11.5471438"><ele>266.6</ele><time>2026-04-20T15:15:55.453Z</time></trkpt><trkpt lat="43.2739678" lon="11.5471419"><ele>268.0</ele><time>2026-04-20T15:15:56.454Z</time></trkpt><trkpt lat="43.2740653" lon="11.5471369"><ele>270.2</ele><time>2026-04-20T15:15:57.454Z</time></trkpt><trkpt lat="43.274162" lon="11.5471321"><ele>272.4</ele><time>2026-04-20T15:15:58.454Z</time></trkpt><trkpt lat="43.274256" lon="11.5471275"><ele>274.59999999999997</ele><time>2026-04-20T15:15:59.454Z</time></trkpt><trkpt lat="43.2743505" lon="11.5471201"><ele>276.8</ele><time>2026-04-20T15:16:00.453Z</time></trkpt><trkpt lat="43.2744437" lon="11.5471011"><ele>279.0</ele><time>2026-04-20T15:16:01.453Z</time></trkpt><trkpt lat="43.2745316" lon="11.5470873"><ele>279.0</ele><time>2026-04-20T15:16:02.453Z</time></trkpt><trkpt lat="43.2746128" lon="11.5470977"><ele>279.0</ele><time>2026-04-20T15:16:03.453Z</time></trkpt><trkpt lat="43.2746923" lon="11.5471366"><ele>279.0</ele><time>2026-04-20T15:16:04.454Z</time></trkpt><trkpt lat="43.2747709" lon="11.5471973"><ele>279.0</ele><time>2026-04-20T15:16:05.454Z</time></trkpt><trkpt lat="43.2748467" lon="11.5472706"><ele>279.0</ele><time>2026-04-20T15:16:06.453Z</time></trkpt><trkpt lat="43.2749211" lon="11.5473348"><ele>279.0</ele><time>2026-04-20T15:16:07.453Z</time></trkpt><trkpt lat="43.274994" lon="11.5473938"><ele>280.1666666666667</ele><time>2026-04-20T15:16:08.453Z</time></trkpt><trkpt lat="43.2750601" lon="11.5474457"><ele>281.3333333333333</ele><time>2026-04-20T15:16:09.453Z</time></trkpt><trkpt lat="43.2751238" lon="11.5475005"><ele>282.5</ele><time>2026-04-20T15:16:10.454Z</time></trkpt><trkpt lat="43.2751915" lon="11.5475565"><ele>283.66666666666663</ele><time>2026-04-20T15:16:11.454Z</time></trkpt><trkpt lat="43.2752621" lon="11.5476159"><ele>284.8333333333333</ele><time>2026-04-20T15:16:12.453Z</time></trkpt><trkpt lat="43.2753356" lon="11.5476791"><ele>286.0</ele><time>2026-04-20T15:16:13.453Z</time></trkpt><trkpt lat="43.2754109" lon="11.547746"><ele>286.0</ele><time>2026-04-20T15:16:14.453Z</time></trkpt><trkpt lat="43.275489" lon="11.5478184"><ele>286.0</ele><time>2026-04-20T15:16:15.453Z</time></trkpt><trkpt lat="43.2755696" lon="11.5478919"><ele>286.0</ele><time>2026-04-20T15:16:16.453Z</time></trkpt><trkpt lat="43.2756512" lon="11.5479593"><ele>286.0</ele><time>2026-04-20T15:16:17.453Z</time></trkpt><trkpt lat="43.27574" lon="11.5480126"><ele>286.0</ele><time>2026-04-20T15:16:18.453Z</time></trkpt><trkpt lat="43.275836" lon="11.5480574"><ele>289.0</ele><time>2026-04-20T15:16:19.453Z</time></trkpt><trkpt lat="43.2759351" lon="11.5480969"><ele>292.0</ele><time>2026-04-20T15:16:20.454Z</time></trkpt><trkpt lat="43.2760334" lon="11.5481331"><ele>295.0</ele><time>2026-04-20T15:16:21.453Z</time></trkpt><trkpt lat="43.2761235" lon="11.5481643"><ele>298.0</ele><time>2026-04-20T15:16:22.453Z</time></trkpt><trkpt lat="43.2762101" lon="11.5481934"><ele>301.0</ele><time>2026-04-20T15:16:23.453Z</time></trkpt><trkpt lat="43.2762976" lon="11.5482219"><ele>301.0</ele><time>2026-04-20T15:16:24.453Z</time></trkpt><trkpt lat="43.2763841" lon="11.5482525"><ele>301.0</ele><time>2026-04-20T15:16:25.453Z</time></trkpt><trkpt lat="43.2764663" lon="11.5482853"><ele>301.0</ele><time>2026-04-20T15:16:26.453Z</time></trkpt><trkpt lat="43.2765458" lon="11.5483267"><ele>301.0</ele><time>2026-04-20T15:16:27.453Z</time></trkpt><trkpt lat="43.2766296" lon="11.5483764"><ele>301.0</ele><time>2026-04-20T15:16:28.454Z</time></trkpt><trkpt lat="43.276714" lon="11.5484375"><ele>301.0</ele><time>2026-04-20T15:16:29.454Z</time></trkpt><trkpt lat="43.2767913" lon="11.5485076"><ele>301.3333333333333</ele><time>2026-04-20T15:16:30.453Z</time></trkpt><trkpt lat="43.2768633" lon="11.5485785"><ele>301.66666666666663</ele><time>2026-04-20T15:16:31.453Z</time></trkpt><trkpt lat="43.2769293" lon="11.5486438"><ele>302.0</ele><time>2026-04-20T15:16:32.453Z</time></trkpt><trkpt lat="43.2769888" lon="11.5487041"><ele>302.3333333333333</ele><time>2026-04-20T15:16:33.454Z</time></trkpt><trkpt lat="43.2770452" lon="11.5487657"><ele>302.6666666666667</ele><time>2026-04-20T15:16:34.453Z</time></trkpt><trkpt lat="43.2771024" lon="11.5488257"><ele>303.0</ele><time>2026-04-20T15:16:35.454Z</time></trkpt><trkpt lat="43.2771626" lon="11.5488814"><ele>303.0</ele><time>2026-04-20T15:16:36.453Z</time></trkpt><trkpt lat="43.2772284" lon="11.5489344"><ele>303.0</ele><time>2026-04-20T15:16:37.453Z</time></trkpt><trkpt lat="43.2772962" lon="11.5489903"><ele>303.0</ele><time>2026-04-20T15:16:38.453Z</time></trkpt><trkpt lat="43.2773612" lon="11.549042"><ele>303.0</ele><time>2026-04-20T15:16:39.454Z</time></trkpt><trkpt lat="43.277423" lon="11.5490911"><ele>303.0</ele><time>2026-04-20T15:16:40.453Z</time></trkpt><trkpt lat="43.2774811" lon="11.5491409"><ele>303.0</ele><time>2026-04-20T15:16:41.453Z</time></trkpt><trkpt lat="43.2775393" lon="11.5491938"><ele>303.0</ele><time>2026-04-20T15:16:42.453Z</time></trkpt><trkpt lat="43.2775997" lon="11.5492473"><ele>300.6666666666667</ele><time>2026-04-20T15:16:43.454Z</time></trkpt><trkpt lat="43.2776609" lon="11.5492997"><ele>298.3333333333333</ele><time>2026-04-20T15:16:44.455Z</time></trkpt><trkpt lat="43.2777265" lon="11.5493516"><ele>296.0</ele><time>2026-04-20T15:16:45.455Z</time></trkpt><trkpt lat="43.2777972" lon="11.5493979"><ele>293.66666666666663</ele><time>2026-04-20T15:16:46.454Z</time></trkpt><trkpt lat="43.2778782" lon="11.5494318"><ele>291.3333333333333</ele><time>2026-04-20T15:16:47.454Z</time></trkpt><trkpt lat="43.2779707" lon="11.5494468"><ele>289.0</ele><time>2026-04-20T15:16:48.454Z</time></trkpt><trkpt lat="43.2780698" lon="11.5494463"><ele>286.0</ele><time>2026-04-20T15:16:49.454Z</time></trkpt><trkpt lat="43.2781723" lon="11.5494418"><ele>283.0</ele><time>2026-04-20T15:16:50.454Z</time></trkpt><trkpt lat="43.2782714" lon="11.5494389"><ele>280.0</ele><time>2026-04-20T15:16:51.454Z</time></trkpt><trkpt lat="43.2783675" lon="11.5494375"><ele>277.0</ele><time>2026-04-20T15:16:52.454Z</time></trkpt><trkpt lat="43.2784621" lon="11.5494394"><ele>274.0</ele><time>2026-04-20T15:16:53.454Z</time></trkpt><trkpt lat="43.2785552" lon="11.5494466"><ele>274.0</ele><time>2026-04-20T15:16:54.454Z</time></trkpt><trkpt lat="43.2786469" lon="11.5494532"><ele>274.0</ele><time>2026-04-20T15:16:55.454Z</time></trkpt><trkpt lat="43.2787448" lon="11.5494637"><ele>274.0</ele><time>2026-04-20T15:16:56.454Z</time></trkpt><trkpt lat="43.2788447" lon="11.5494818"><ele>274.0</ele><time>2026-04-20T15:16:57.454Z</time></trkpt><trkpt lat="43.2789336" lon="11.5495136"><ele>274.0</ele><time>2026-04-20T15:16:58.454Z</time></trkpt><trkpt lat="43.2790178" lon="11.5495672"><ele>273.59999999999997</ele><time>2026-04-20T15:16:59.454Z</time></trkpt><trkpt lat="43.2791036" lon="11.5496359"><ele>273.2</ele><time>2026-04-20T15:17:00.454Z</time></trkpt><trkpt lat="43.2791896" lon="11.5497046"><ele>272.79999999999995</ele><time>2026-04-20T15:17:01.454Z</time></trkpt><trkpt lat="43.279274" lon="11.5497646"><ele>272.4</ele><time>2026-04-20T15:17:02.454Z</time></trkpt><trkpt lat="43.2793586" lon="11.5498179"><ele>272.0</ele><time>2026-04-20T15:17:03.455Z</time></trkpt><trkpt lat="43.2794435" lon="11.5498667"><ele>272.0</ele><time>2026-04-20T15:17:04.454Z</time></trkpt><trkpt lat="43.2795335" lon="11.549908"><ele>272.0</ele><time>2026-04-20T15:17:05.454Z</time></trkpt><trkpt lat="43.2796306" lon="11.5499343"><ele>272.0</ele><time>2026-04-20T15:17:06.454Z</time></trkpt><trkpt lat="43.2797343" lon="11.5499458"><ele>272.0</ele><time>2026-04-20T15:17:07.454Z</time></trkpt><trkpt lat="43.2798378" lon="11.5499379"><ele>272.0</ele><time>2026-04-20T15:17:08.455Z</time></trkpt><trkpt lat="43.2799414" lon="11.5499187"><ele>271.4</ele><time>2026-04-20T15:17:09.454Z</time></trkpt><trkpt lat="43.2800442" lon="11.5498885"><ele>270.79999999999995</ele><time>2026-04-20T15:17:10.454Z</time></trkpt><trkpt lat="43.2801447" lon="11.5498437"><ele>270.2</ele><time>2026-04-20T15:17:11.454Z</time></trkpt><trkpt lat="43.2802384" lon="11.5497901"><ele>269.59999999999997</ele><time>2026-04-20T15:17:12.454Z</time></trkpt><trkpt lat="43.2803299" lon="11.549728"><ele>269.0</ele><time>2026-04-20T15:17:13.454Z</time></trkpt><trkpt lat="43.2804193" lon="11.5496652"><ele>269.0</ele><time>2026-04-20T15:17:14.454Z</time></trkpt><trkpt lat="43.2805039" lon="11.5496024"><ele>269.0</ele><time>2026-04-20T15:17:15.454Z</time></trkpt><trkpt lat="43.2805852" lon="11.5495377"><ele>269.0</ele><time>2026-04-20T15:17:16.454Z</time></trkpt><trkpt lat="43.2806645" lon="11.5494646"><ele>269.0</ele><time>2026-04-20T15:17:17.454Z</time></trkpt><trkpt lat="43.2807382" lon="11.5493736"><ele>269.0</ele><time>2026-04-20T15:17:18.454Z</time></trkpt><trkpt lat="43.2808034" lon="11.5492657"><ele>271.4</ele><time>2026-04-20T15:17:19.455Z</time></trkpt><trkpt lat="43.2808574" lon="11.5491484"><ele>273.79999999999995</ele><time>2026-04-20T15:17:20.454Z</time></trkpt><trkpt lat="43.2809083" lon="11.5490353"><ele>276.20000000000005</ele><time>2026-04-20T15:17:21.454Z</time></trkpt><trkpt lat="43.2809658" lon="11.5489328"><ele>278.6</ele><time>2026-04-20T15:17:22.454Z</time></trkpt><trkpt lat="43.2810298" lon="11.5488399"><ele>281.0</ele><time>2026-04-20T15:17:23.454Z</time></trkpt><trkpt lat="43.2811" lon="11.5487519"><ele>280.8</ele><time>2026-04-20T15:17:24.455Z</time></trkpt><trkpt lat="43.2811731" lon="11.5486654"><ele>280.6</ele><time>2026-04-20T15:17:25.455Z</time></trkpt><trkpt lat="43.2812516" lon="11.5485867"><ele>280.4</ele><time>2026-04-20T15:17:26.454Z</time></trkpt><trkpt lat="43.281335" lon="11.5485096"><ele>280.2</ele><time>2026-04-20T15:17:27.454Z</time></trkpt><trkpt lat="43.2814177" lon="11.5484291"><ele>280.0</ele><time>2026-04-20T15:17:28.454Z</time></trkpt><trkpt lat="43.2814967" lon="11.5483452"><ele>283.5</ele><time>2026-04-20T15:17:29.454Z</time></trkpt><trkpt lat="43.2815742" lon="11.5482639"><ele>287.0</ele><time>2026-04-20T15:17:30.454Z</time></trkpt><trkpt lat="43.2816516" lon="11.5481917"><ele>290.5</ele><time>2026-04-20T15:17:31.454Z</time></trkpt><trkpt lat="43.2817283" lon="11.5481429"><ele>294.0</ele><time>2026-04-20T15:17:32.455Z</time></trkpt><trkpt lat="43.2818064" lon="11.5481077"><ele>297.5</ele><time>2026-04-20T15:17:33.455Z</time></trkpt><trkpt lat="43.2818851" lon="11.5480932"><ele>301.0</ele><time>2026-04-20T15:17:34.455Z</time></trkpt><trkpt lat="43.2819656" lon="11.5480968"><ele>301.0</ele><time>2026-04-20T15:17:35.455Z</time></trkpt><trkpt lat="43.2820402" lon="11.5481115"><ele>301.0</ele><time>2026-04-20T15:17:36.456Z</time></trkpt><trkpt lat="43.2821526" lon="11.5481338"><ele>301.0</ele><time>2026-04-20T15:17:38.455Z</time></trkpt><trkpt lat="43.2822577" lon="11.5481268"><ele>301.0</ele><time>2026-04-20T15:17:40.455Z</time></trkpt><trkpt lat="43.2823234" lon="11.548129"><ele>301.0</ele><time>2026-04-20T15:17:41.455Z</time></trkpt><trkpt lat="43.2823965" lon="11.5481396"><ele>301.0</ele><time>2026-04-20T15:17:42.455Z</time></trkpt><trkpt lat="43.2824731" lon="11.5481531"><ele>302.16666666666663</ele><time>2026-04-20T15:17:43.455Z</time></trkpt><trkpt lat="43.2825518" lon="11.5481647"><ele>303.3333333333333</ele><time>2026-04-20T15:17:44.456Z</time></trkpt><trkpt lat="43.2826276" lon="11.548182"><ele>304.5</ele><time>2026-04-20T15:17:45.455Z</time></trkpt><trkpt lat="43.2827046" lon="11.5482021"><ele>305.6666666666667</ele><time>2026-04-20T15:17:46.455Z</time></trkpt><trkpt lat="43.2827815" lon="11.5482244"><ele>306.83333333333337</ele><time>2026-04-20T15:17:47.455Z</time></trkpt><trkpt lat="43.2828612" lon="11.5482551"><ele>308.0</ele><time>2026-04-20T15:17:48.456Z</time></trkpt><trkpt lat="43.282946" lon="11.5483022"><ele>308.0</ele><time>2026-04-20T15:17:49.455Z</time></trkpt><trkpt lat="43.2830332" lon="11.5483641"><ele>308.0</ele><time>2026-04-20T15:17:50.455Z</time></trkpt><trkpt lat="43.28312" lon="11.5484374"><ele>308.0</ele><time>2026-04-20T15:17:51.456Z</time></trkpt><trkpt lat="43.2832116" lon="11.5485254"><ele>308.0</ele><time>2026-04-20T15:17:52.456Z</time></trkpt><trkpt lat="43.2833006" lon="11.54861"><ele>308.0</ele><time>2026-04-20T15:17:53.455Z</time></trkpt><trkpt lat="43.2833901" lon="11.5486837"><ele>309.6</ele><time>2026-04-20T15:17:54.455Z</time></trkpt><trkpt lat="43.2834784" lon="11.5487372"><ele>311.20000000000005</ele><time>2026-04-20T15:17:55.455Z</time></trkpt><trkpt lat="43.2835675" lon="11.5487784"><ele>312.8</ele><time>2026-04-20T15:17:56.455Z</time></trkpt><trkpt lat="43.2836559" lon="11.5488053"><ele>314.40000000000003</ele><time>2026-04-20T15:17:57.455Z</time></trkpt><trkpt lat="43.2837475" lon="11.5488264"><ele>316.0</ele><time>2026-04-20T15:17:58.455Z</time></trkpt><trkpt lat="43.2838362" lon="11.548843"><ele>316.0</ele><time>2026-04-20T15:17:59.455Z</time></trkpt><trkpt lat="43.2839243" lon="11.5488568"><ele>316.0</ele><time>2026-04-20T15:18:00.456Z</time></trkpt><trkpt lat="43.2840062" lon="11.5488569"><ele>316.0</ele><time>2026-04-20T15:18:01.455Z</time></trkpt><trkpt lat="43.2840939" lon="11.5488376"><ele>316.0</ele><time>2026-04-20T15:18:02.455Z</time></trkpt><trkpt lat="43.2841817" lon="11.5487982"><ele>316.0</ele><time>2026-04-20T15:18:03.456Z</time></trkpt><trkpt lat="43.2842617" lon="11.5487337"><ele>316.0</ele><time>2026-04-20T15:18:04.455Z</time></trkpt><trkpt lat="43.2843318" lon="11.5486477"><ele>311.8</ele><time>2026-04-20T15:18:05.455Z</time></trkpt><trkpt lat="43.2843917" lon="11.5485436"><ele>307.6</ele><time>2026-04-20T15:18:06.456Z</time></trkpt><trkpt lat="43.2844395" lon="11.548422"><ele>303.4</ele><time>2026-04-20T15:18:07.456Z</time></trkpt><trkpt lat="43.2844834" lon="11.5482993"><ele>299.2</ele><time>2026-04-20T15:18:08.455Z</time></trkpt><trkpt lat="43.2845278" lon="11.5481797"><ele>295.0</ele><time>2026-04-20T15:18:09.455Z</time></trkpt><trkpt lat="43.2845743" lon="11.5480568"><ele>295.0</ele><time>2026-04-20T15:18:10.456Z</time></trkpt><trkpt lat="43.2846178" lon="11.5479296"><ele>295.0</ele><time>2026-04-20T15:18:11.455Z</time></trkpt><trkpt lat="43.2846568" lon="11.5478082"><ele>295.0</ele><time>2026-04-20T15:18:12.455Z</time></trkpt><trkpt lat="43.2846952" lon="11.5476846"><ele>295.0</ele><time>2026-04-20T15:18:13.455Z</time></trkpt><trkpt lat="43.284724" lon="11.5475524"><ele>295.0</ele><time>2026-04-20T15:18:14.455Z</time></trkpt><trkpt lat="43.2847404" lon="11.5474174"><ele>293.0</ele><time>2026-04-20T15:18:15.455Z</time></trkpt><trkpt lat="43.2847452" lon="11.5472725"><ele>291.0</ele><time>2026-04-20T15:18:16.455Z</time></trkpt><trkpt lat="43.2847535" lon="11.5471338"><ele>289.0</ele><time>2026-04-20T15:18:17.455Z</time></trkpt><trkpt lat="43.2847719" lon="11.5470064"><ele>287.0</ele><time>2026-04-20T15:18:18.455Z</time></trkpt><trkpt lat="43.2848045" lon="11.546891"><ele>285.0</ele><time>2026-04-20T15:18:19.455Z</time></trkpt><trkpt lat="43.2848647" lon="11.5467898"><ele>290.0</ele><time>2026-04-20T15:18:20.455Z</time></trkpt><trkpt lat="43.2849434" lon="11.5467078"><ele>295.0</ele><time>2026-04-20T15:18:21.455Z</time></trkpt><trkpt lat="43.2850286" lon="11.5466384"><ele>300.0</ele><time>2026-04-20T15:18:22.455Z</time></trkpt><trkpt lat="43.2851178" lon="11.5465781"><ele>305.0</ele><time>2026-04-20T15:18:23.456Z</time></trkpt><trkpt lat="43.2852084" lon="11.5465266"><ele>310.0</ele><time>2026-04-20T15:18:24.456Z</time></trkpt><trkpt lat="43.2852989" lon="11.5464789"><ele>310.0</ele><time>2026-04-20T15:18:25.456Z</time></trkpt><trkpt lat="43.2853937" lon="11.5464364"><ele>310.0</ele><time>2026-04-20T15:18:26.457Z</time></trkpt><trkpt lat="43.285482" lon="11.546401"><ele>310.0</ele><time>2026-04-20T15:18:27.456Z</time></trkpt><trkpt lat="43.2855687" lon="11.546367"><ele>310.0</ele><time>2026-04-20T15:18:28.456Z</time></trkpt><trkpt lat="43.2856603" lon="11.5463277"><ele>310.0</ele><time>2026-04-20T15:18:29.457Z</time></trkpt><trkpt lat="43.2857561" lon="11.5462631"><ele>310.8</ele><time>2026-04-20T15:18:30.456Z</time></trkpt><trkpt lat="43.2858439" lon="11.5461881"><ele>311.6</ele><time>2026-04-20T15:18:31.456Z</time></trkpt><trkpt lat="43.2859218" lon="11.5461119"><ele>312.4</ele><time>2026-04-20T15:18:32.456Z</time></trkpt><trkpt lat="43.2859935" lon="11.5460387"><ele>313.2</ele><time>2026-04-20T15:18:33.457Z</time></trkpt><trkpt lat="43.2860654" lon="11.545974"><ele>314.0</ele><time>2026-04-20T15:18:34.456Z</time></trkpt><trkpt lat="43.2861391" lon="11.5459248"><ele>314.0</ele><time>2026-04-20T15:18:35.456Z</time></trkpt><trkpt lat="43.2862117" lon="11.5458917"><ele>314.0</ele><time>2026-04-20T15:18:36.456Z</time></trkpt><trkpt lat="43.2862805" lon="11.5458745"><ele>314.0</ele><time>2026-04-20T15:18:37.457Z</time></trkpt><trkpt lat="43.2863479" lon="11.5458705"><ele>314.0</ele><time>2026-04-20T15:18:38.457Z</time></trkpt><trkpt lat="43.2864189" lon="11.5458798"><ele>314.0</ele><time>2026-04-20T15:18:39.456Z</time></trkpt><trkpt lat="43.2864979" lon="11.5459184"><ele>314.0</ele><time>2026-04-20T15:18:40.457Z</time></trkpt><trkpt lat="43.2865718" lon="11.5459783"><ele>313.6666666666667</ele><time>2026-04-20T15:18:41.457Z</time></trkpt><trkpt lat="43.2866318" lon="11.5460413"><ele>313.33333333333337</ele><time>2026-04-20T15:18:42.456Z</time></trkpt><trkpt lat="43.2867025" lon="11.5461122"><ele>313.0</ele><time>2026-04-20T15:18:43.456Z</time></trkpt><trkpt lat="43.2867761" lon="11.5461674"><ele>312.6666666666667</ele><time>2026-04-20T15:18:44.456Z</time></trkpt><trkpt lat="43.2868565" lon="11.546199"><ele>312.3333333333333</ele><time>2026-04-20T15:18:45.457Z</time></trkpt><trkpt lat="43.2869414" lon="11.5462035"><ele>312.0</ele><time>2026-04-20T15:18:46.456Z</time></trkpt><trkpt lat="43.2870335" lon="11.5461649"><ele>312.0</ele><time>2026-04-20T15:18:47.456Z</time></trkpt><trkpt lat="43.2871125" lon="11.5461145"><ele>312.0</ele><time>2026-04-20T15:18:48.456Z</time></trkpt><trkpt lat="43.2871748" lon="11.5460603"><ele>312.0</ele><time>2026-04-20T15:18:49.457Z</time></trkpt><trkpt lat="43.2872238" lon="11.545985"><ele>312.0</ele><time>2026-04-20T15:18:50.456Z</time></trkpt><trkpt lat="43.2872573" lon="11.5458907"><ele>312.0</ele><time>2026-04-20T15:18:51.456Z</time></trkpt><trkpt lat="43.2872778" lon="11.5457665"><ele>312.0</ele><time>2026-04-20T15:18:52.456Z</time></trkpt><trkpt lat="43.2872983" lon="11.5456185"><ele>309.8</ele><time>2026-04-20T15:18:53.456Z</time></trkpt><trkpt lat="43.2873198" lon="11.5454602"><ele>307.6</ele><time>2026-04-20T15:18:54.456Z</time></trkpt><trkpt lat="43.2873403" lon="11.5453091"><ele>305.40000000000003</ele><time>2026-04-20T15:18:55.456Z</time></trkpt><trkpt lat="43.2873582" lon="11.5451691"><ele>303.2</ele><time>2026-04-20T15:18:56.456Z</time></trkpt><trkpt lat="43.2873725" lon="11.5450334"><ele>301.0</ele><time>2026-04-20T15:18:57.456Z</time></trkpt><trkpt lat="43.2873797" lon="11.5448956"><ele>301.0</ele><time>2026-04-20T15:18:58.456Z</time></trkpt><trkpt lat="43.2873883" lon="11.5447527"><ele>301.0</ele><time>2026-04-20T15:18:59.456Z</time></trkpt><trkpt lat="43.2874074" lon="11.544612"><ele>301.0</ele><time>2026-04-20T15:19:00.457Z</time></trkpt><trkpt lat="43.2874365" lon="11.5444725"><ele>301.0</ele><time>2026-04-20T15:19:01.456Z</time></trkpt><trkpt lat="43.2874731" lon="11.5443411"><ele>301.0</ele><time>2026-04-20T15:19:02.456Z</time></trkpt><trkpt lat="43.287516" lon="11.5442225"><ele>300.6</ele><time>2026-04-20T15:19:03.456Z</time></trkpt><trkpt lat="43.2875626" lon="11.5441104"><ele>300.20000000000005</ele><time>2026-04-20T15:19:04.456Z</time></trkpt><trkpt lat="43.2876015" lon="11.5440022"><ele>299.79999999999995</ele><time>2026-04-20T15:19:05.456Z</time></trkpt><trkpt lat="43.2876305" lon="11.5438808"><ele>299.4</ele><time>2026-04-20T15:19:06.456Z</time></trkpt><trkpt lat="43.287641" lon="11.5437459"><ele>299.0</ele><time>2026-04-20T15:19:07.456Z</time></trkpt><trkpt lat="43.2876359" lon="11.5435963"><ele>298.0</ele><time>2026-04-20T15:19:08.456Z</time></trkpt><trkpt lat="43.2876229" lon="11.5434368"><ele>297.0</ele><time>2026-04-20T15:19:09.457Z</time></trkpt><trkpt lat="43.2876204" lon="11.5432966"><ele>296.0</ele><time>2026-04-20T15:19:10.457Z</time></trkpt><trkpt lat="43.2876371" lon="11.5431658"><ele>295.0</ele><time>2026-04-20T15:19:11.457Z</time></trkpt><trkpt lat="43.2876751" lon="11.5430282"><ele>294.0</ele><time>2026-04-20T15:19:12.458Z</time></trkpt><trkpt lat="43.2877157" lon="11.5428897"><ele>291.59999999999997</ele><time>2026-04-20T15:19:13.457Z</time></trkpt><trkpt lat="43.2877554" lon="11.5427521"><ele>289.2</ele><time>2026-04-20T15:19:14.457Z</time></trkpt><trkpt lat="43.2877973" lon="11.5426211"><ele>286.79999999999995</ele><time>2026-04-20T15:19:15.458Z</time></trkpt><trkpt lat="43.2878494" lon="11.542496"><ele>284.4</ele><time>2026-04-20T15:19:16.457Z</time></trkpt><trkpt lat="43.2879142" lon="11.5423805"><ele>282.0</ele><time>2026-04-20T15:19:17.457Z</time></trkpt><trkpt lat="43.2879858" lon="11.5422699"><ele>282.0</ele><time>2026-04-20T15:19:18.458Z</time></trkpt><trkpt lat="43.2880567" lon="11.5421554"><ele>282.0</ele><time>2026-04-20T15:19:19.458Z</time></trkpt><trkpt lat="43.2881239" lon="11.5420339"><ele>282.0</ele><time>2026-04-20T15:19:20.457Z</time></trkpt><trkpt lat="43.2881813" lon="11.5419063"><ele>282.0</ele><time>2026-04-20T15:19:21.457Z</time></trkpt><trkpt lat="43.2882308" lon="11.5417727"><ele>282.0</ele><time>2026-04-20T15:19:22.457Z</time></trkpt><trkpt lat="43.288273" lon="11.5416428"><ele>286.0</ele><time>2026-04-20T15:19:23.457Z</time></trkpt><trkpt lat="43.2883142" lon="11.5415293"><ele>290.0</ele><time>2026-04-20T15:19:24.457Z</time></trkpt><trkpt lat="43.2883654" lon="11.5414352"><ele>294.0</ele><time>2026-04-20T15:19:25.457Z</time></trkpt><trkpt lat="43.2884336" lon="11.5413644"><ele>298.0</ele><time>2026-04-20T15:19:26.457Z</time></trkpt><trkpt lat="43.2885207" lon="11.5413074"><ele>302.0</ele><time>2026-04-20T15:19:27.457Z</time></trkpt><trkpt lat="43.2886131" lon="11.5412653"><ele>302.0</ele><time>2026-04-20T15:19:28.457Z</time></trkpt><trkpt lat="43.2887128" lon="11.5412312"><ele>302.0</ele><time>2026-04-20T15:19:29.457Z</time></trkpt><trkpt lat="43.2888103" lon="11.541207"><ele>302.0</ele><time>2026-04-20T15:19:30.457Z</time></trkpt><trkpt lat="43.2889148" lon="11.5411836"><ele>302.0</ele><time>2026-04-20T15:19:31.457Z</time></trkpt><trkpt lat="43.2890137" lon="11.5411576"><ele>302.0</ele><time>2026-04-20T15:19:32.457Z</time></trkpt><trkpt lat="43.2891124" lon="11.5411247"><ele>302.0</ele><time>2026-04-20T15:19:33.457Z</time></trkpt><trkpt lat="43.2892115" lon="11.5410956"><ele>302.0</ele><time>2026-04-20T15:19:34.457Z</time></trkpt><trkpt lat="43.289305" lon="11.5410809"><ele>302.0</ele><time>2026-04-20T15:19:35.457Z</time></trkpt><trkpt lat="43.289403" lon="11.5410955"><ele>302.0</ele><time>2026-04-20T15:19:36.457Z</time></trkpt><trkpt lat="43.2894986" lon="11.5411297"><ele>302.0</ele><time>2026-04-20T15:19:37.457Z</time></trkpt><trkpt lat="43.2895929" lon="11.5411699"><ele>302.0</ele><time>2026-04-20T15:19:38.458Z</time></trkpt><trkpt lat="43.2896905" lon="11.5412055"><ele>302.0</ele><time>2026-04-20T15:19:39.457Z</time></trkpt><trkpt lat="43.2897932" lon="11.5412283"><ele>302.0</ele><time>2026-04-20T15:19:40.457Z</time></trkpt><trkpt lat="43.289898" lon="11.5412306"><ele>302.0</ele><time>2026-04-20T15:19:41.458Z</time></trkpt><trkpt lat="43.2899991" lon="11.5412188"><ele>302.0</ele><time>2026-04-20T15:19:42.458Z</time></trkpt><trkpt lat="43.2900978" lon="11.5412043"><ele>302.0</ele><time>2026-04-20T15:19:43.457Z</time></trkpt><trkpt lat="43.2901967" lon="11.5411978"><ele>302.0</ele><time>2026-04-20T15:19:44.457Z</time></trkpt><trkpt lat="43.2902926" lon="11.541203"><ele>302.0</ele><time>2026-04-20T15:19:45.457Z</time></trkpt><trkpt lat="43.2903877" lon="11.5412253"><ele>302.0</ele><time>2026-04-20T15:19:46.458Z</time></trkpt><trkpt lat="43.2904891" lon="11.5412621"><ele>302.0</ele><time>2026-04-20T15:19:47.458Z</time></trkpt><trkpt lat="43.2905879" lon="11.5413085"><ele>303.33333333333337</ele><time>2026-04-20T15:19:48.458Z</time></trkpt><trkpt lat="43.2906776" lon="11.5413526"><ele>304.6666666666667</ele><time>2026-04-20T15:19:49.457Z</time></trkpt><trkpt lat="43.2907671" lon="11.5413897"><ele>306.0</ele><time>2026-04-20T15:19:50.457Z</time></trkpt><trkpt lat="43.2908525" lon="11.5414124"><ele>307.3333333333333</ele><time>2026-04-20T15:19:51.457Z</time></trkpt><trkpt lat="43.290938" lon="11.5414115"><ele>308.66666666666663</ele><time>2026-04-20T15:19:52.457Z</time></trkpt><trkpt lat="43.2910195" lon="11.5413834"><ele>310.0</ele><time>2026-04-20T15:19:53.457Z</time></trkpt><trkpt lat="43.2910925" lon="11.5413362"><ele>310.0</ele><time>2026-04-20T15:19:54.458Z</time></trkpt><trkpt lat="43.2911599" lon="11.5412757"><ele>310.0</ele><time>2026-04-20T15:19:55.457Z</time></trkpt><trkpt lat="43.2912237" lon="11.5411947"><ele>310.0</ele><time>2026-04-20T15:19:56.457Z</time></trkpt><trkpt lat="43.291281" lon="11.5411008"><ele>310.0</ele><time>2026-04-20T15:19:57.457Z</time></trkpt><trkpt lat="43.2913261" lon="11.5409988"><ele>310.0</ele><time>2026-04-20T15:19:58.457Z</time></trkpt><trkpt lat="43.2913523" lon="11.5408883"><ele>310.0</ele><time>2026-04-20T15:19:59.457Z</time></trkpt><trkpt lat="43.2913543" lon="11.540762"><ele>308.8</ele><time>2026-04-20T15:20:00.458Z</time></trkpt><trkpt lat="43.291343" lon="11.5406286"><ele>307.6</ele><time>2026-04-20T15:20:01.458Z</time></trkpt><trkpt lat="43.2913233" lon="11.540488"><ele>306.4</ele><time>2026-04-20T15:20:02.458Z</time></trkpt><trkpt lat="43.2913064" lon="11.5403523"><ele>305.2</ele><time>2026-04-20T15:20:03.458Z</time></trkpt><trkpt lat="43.2913018" lon="11.5402194"><ele>304.0</ele><time>2026-04-20T15:20:04.458Z</time></trkpt><trkpt lat="43.2913169" lon="11.5400893"><ele>303.59999999999997</ele><time>2026-04-20T15:20:05.459Z</time></trkpt><trkpt lat="43.29135" lon="11.5399584"><ele>303.2</ele><time>2026-04-20T15:20:06.458Z</time></trkpt><trkpt lat="43.2913941" lon="11.5398323"><ele>302.79999999999995</ele><time>2026-04-20T15:20:07.458Z</time></trkpt><trkpt lat="43.2914428" lon="11.5397112"><ele>302.4</ele><time>2026-04-20T15:20:08.458Z</time></trkpt><trkpt lat="43.2914929" lon="11.5395904"><ele>302.0</ele><time>2026-04-20T15:20:09.458Z</time></trkpt><trkpt lat="43.2915398" lon="11.5394637"><ele>305.0</ele><time>2026-04-20T15:20:10.459Z</time></trkpt><trkpt lat="43.2915876" lon="11.5393353"><ele>308.0</ele><time>2026-04-20T15:20:11.459Z</time></trkpt><trkpt lat="43.2916366" lon="11.5392084"><ele>311.0</ele><time>2026-04-20T15:20:12.458Z</time></trkpt><trkpt lat="43.2916863" lon="11.539085"><ele>314.0</ele><time>2026-04-20T15:20:13.458Z</time></trkpt><trkpt lat="43.291738" lon="11.538969"><ele>317.0</ele><time>2026-04-20T15:20:14.458Z</time></trkpt><trkpt lat="43.291789" lon="11.5388774"><ele>317.0</ele><time>2026-04-20T15:20:15.458Z</time></trkpt><trkpt lat="43.291846" lon="11.5388157"><ele>317.0</ele><time>2026-04-20T15:20:16.459Z</time></trkpt><trkpt lat="43.291916" lon="11.5387858"><ele>317.0</ele><time>2026-04-20T15:20:17.458Z</time></trkpt><trkpt lat="43.2919961" lon="11.5387805"><ele>317.0</ele><time>2026-04-20T15:20:18.459Z</time></trkpt><trkpt lat="43.2920754" lon="11.5387909"><ele>317.0</ele><time>2026-04-20T15:20:19.458Z</time></trkpt><trkpt lat="43.2921571" lon="11.5388187"><ele>317.0</ele><time>2026-04-20T15:20:20.459Z</time></trkpt><trkpt lat="43.2922489" lon="11.5388592"><ele>317.0</ele><time>2026-04-20T15:20:21.458Z</time></trkpt><trkpt lat="43.29234" lon="11.5389047"><ele>317.0</ele><time>2026-04-20T15:20:22.458Z</time></trkpt><trkpt lat="43.2924283" lon="11.538934"><ele>317.0</ele><time>2026-04-20T15:20:23.458Z</time></trkpt><trkpt lat="43.2925129" lon="11.5389421"><ele>317.0</ele><time>2026-04-20T15:20:24.459Z</time></trkpt><trkpt lat="43.2925967" lon="11.5389363"><ele>317.0</ele><time>2026-04-20T15:20:25.458Z</time></trkpt><trkpt lat="43.2926828" lon="11.5389199"><ele>317.0</ele><time>2026-04-20T15:20:26.458Z</time></trkpt><trkpt lat="43.2927654" lon="11.5388759"><ele>317.0</ele><time>2026-04-20T15:20:27.459Z</time></trkpt><trkpt lat="43.2928431" lon="11.5388033"><ele>317.0</ele><time>2026-04-20T15:20:28.458Z</time></trkpt><trkpt lat="43.2929198" lon="11.538717"><ele>317.0</ele><time>2026-04-20T15:20:29.459Z</time></trkpt><trkpt lat="43.2929953" lon="11.5386382"><ele>317.0</ele><time>2026-04-20T15:20:30.458Z</time></trkpt><trkpt lat="43.2930697" lon="11.5385668"><ele>317.0</ele><time>2026-04-20T15:20:31.458Z</time></trkpt><trkpt lat="43.2931451" lon="11.5384978"><ele>316.0</ele><time>2026-04-20T15:20:32.459Z</time></trkpt><trkpt lat="43.2932244" lon="11.5384253"><ele>315.0</ele><time>2026-04-20T15:20:33.458Z</time></trkpt><trkpt lat="43.29331" lon="11.5383428"><ele>314.0</ele><time>2026-04-20T15:20:34.458Z</time></trkpt><trkpt lat="43.2934015" lon="11.5382573"><ele>313.0</ele><time>2026-04-20T15:20:35.458Z</time></trkpt><trkpt lat="43.2934947" lon="11.5381739"><ele>312.0</ele><time>2026-04-20T15:20:36.458Z</time></trkpt><trkpt lat="43.2935897" lon="11.5380905"><ele>312.0</ele><time>2026-04-20T15:20:37.458Z</time></trkpt><trkpt lat="43.2936874" lon="11.5380008"><ele>312.0</ele><time>2026-04-20T15:20:38.458Z</time></trkpt><trkpt lat="43.293787" lon="11.5379065"><ele>312.0</ele><time>2026-04-20T15:20:39.458Z</time></trkpt><trkpt lat="43.2938903" lon="11.5378088"><ele>312.0</ele><time>2026-04-20T15:20:40.459Z</time></trkpt><trkpt lat="43.2939925" lon="11.5377113"><ele>312.25</ele><time>2026-04-20T15:20:41.458Z</time></trkpt><trkpt lat="43.2940948" lon="11.5376088"><ele>312.5</ele><time>2026-04-20T15:20:42.458Z</time></trkpt><trkpt lat="43.2941922" lon="11.5374985"><ele>312.75</ele><time>2026-04-20T15:20:43.458Z</time></trkpt><trkpt lat="43.2942819" lon="11.5373846"><ele>313.0</ele><time>2026-04-20T15:20:44.458Z</time></trkpt><trkpt lat="43.2943681" lon="11.5372717"><ele>313.0</ele><time>2026-04-20T15:20:45.458Z</time></trkpt><trkpt lat="43.29445" lon="11.5371681"><ele>313.0</ele><time>2026-04-20T15:20:46.458Z</time></trkpt><trkpt lat="43.2945246" lon="11.5370832"><ele>313.0</ele><time>2026-04-20T15:20:47.458Z</time></trkpt><trkpt lat="43.2945932" lon="11.5370203"><ele>313.0</ele><time>2026-04-20T15:20:48.458Z</time></trkpt><trkpt lat="43.2946682" lon="11.5369751"><ele>313.0</ele><time>2026-04-20T15:20:49.458Z</time></trkpt><trkpt lat="43.2947486" lon="11.5369322"><ele>312.0</ele><time>2026-04-20T15:20:50.458Z</time></trkpt><trkpt lat="43.2948297" lon="11.5368911"><ele>311.0</ele><time>2026-04-20T15:20:51.459Z</time></trkpt><trkpt lat="43.294909" lon="11.5368482"><ele>310.0</ele><time>2026-04-20T15:20:52.459Z</time></trkpt><trkpt lat="43.294985" lon="11.5368068"><ele>309.0</ele><time>2026-04-20T15:20:53.459Z</time></trkpt><trkpt lat="43.2950626" lon="11.5367778"><ele>308.0</ele><time>2026-04-20T15:20:54.459Z</time></trkpt><trkpt lat="43.2951429" lon="11.5367744"><ele>307.0</ele><time>2026-04-20T15:20:55.459Z</time></trkpt><trkpt lat="43.2952334" lon="11.5367746"><ele>307.0</ele><time>2026-04-20T15:20:56.459Z</time></trkpt><trkpt lat="43.2953194" lon="11.5367548"><ele>307.0</ele><time>2026-04-20T15:20:57.459Z</time></trkpt><trkpt lat="43.2953955" lon="11.5367056"><ele>307.0</ele><time>2026-04-20T15:20:58.459Z</time></trkpt><trkpt lat="43.2954603" lon="11.5366309"><ele>307.0</ele><time>2026-04-20T15:20:59.459Z</time></trkpt><trkpt lat="43.2955177" lon="11.5365395"><ele>307.0</ele><time>2026-04-20T15:21:00.459Z</time></trkpt><trkpt lat="43.2955665" lon="11.5364345"><ele>307.0</ele><time>2026-04-20T15:21:01.459Z</time></trkpt><trkpt lat="43.2956088" lon="11.5363186"><ele>310.2</ele><time>2026-04-20T15:21:02.459Z</time></trkpt><trkpt lat="43.295645" lon="11.5362006"><ele>313.4</ele><time>2026-04-20T15:21:03.459Z</time></trkpt><trkpt lat="43.2956813" lon="11.5360815"><ele>316.59999999999997</ele><time>2026-04-20T15:21:04.459Z</time></trkpt><trkpt lat="43.29572" lon="11.5359654"><ele>319.79999999999995</ele><time>2026-04-20T15:21:05.459Z</time></trkpt><trkpt lat="43.2957607" lon="11.5358442"><ele>323.0</ele><time>2026-04-20T15:21:06.459Z</time></trkpt><trkpt lat="43.2957982" lon="11.5357188"><ele>323.0</ele><time>2026-04-20T15:21:07.459Z</time></trkpt><trkpt lat="43.2958201" lon="11.535586"><ele>323.0</ele><time>2026-04-20T15:21:08.46Z</time></trkpt><trkpt lat="43.2958246" lon="11.5354459"><ele>323.0</ele><time>2026-04-20T15:21:09.459Z</time></trkpt><trkpt lat="43.2958304" lon="11.5353085"><ele>323.0</ele><time>2026-04-20T15:21:10.459Z</time></trkpt><trkpt lat="43.29584" lon="11.5351676"><ele>323.0</ele><time>2026-04-20T15:21:11.459Z</time></trkpt><trkpt lat="43.2958492" lon="11.5350328"><ele>323.6666666666667</ele><time>2026-04-20T15:21:12.459Z</time></trkpt><trkpt lat="43.2958546" lon="11.534919"><ele>324.33333333333337</ele><time>2026-04-20T15:21:13.459Z</time></trkpt><trkpt lat="43.2958481" lon="11.5348208"><ele>325.0</ele><time>2026-04-20T15:21:14.459Z</time></trkpt><trkpt lat="43.2958235" lon="11.5347266"><ele>325.6666666666667</ele><time>2026-04-20T15:21:15.459Z</time></trkpt><trkpt lat="43.2957753" lon="11.5346481"><ele>326.3333333333333</ele><time>2026-04-20T15:21:16.459Z</time></trkpt><trkpt lat="43.29571" lon="11.5345809"><ele>327.0</ele><time>2026-04-20T15:21:17.459Z</time></trkpt><trkpt lat="43.2956249" lon="11.5345221"><ele>327.6</ele><time>2026-04-20T15:21:18.459Z</time></trkpt><trkpt lat="43.2955287" lon="11.534461"><ele>328.20000000000005</ele><time>2026-04-20T15:21:19.459Z</time></trkpt><trkpt lat="43.2954301" lon="11.5343983"><ele>328.8</ele><time>2026-04-20T15:21:20.46Z</time></trkpt><trkpt lat="43.2953343" lon="11.5343283"><ele>329.4</ele><time>2026-04-20T15:21:21.459Z</time></trkpt><trkpt lat="43.2952527" lon="11.5342505"><ele>330.0</ele><time>2026-04-20T15:21:22.459Z</time></trkpt><trkpt lat="43.2951904" lon="11.5341651"><ele>330.0</ele><time>2026-04-20T15:21:23.459Z</time></trkpt><trkpt lat="43.2951409" lon="11.5340773"><ele>330.0</ele><time>2026-04-20T15:21:24.459Z</time></trkpt><trkpt lat="43.2950855" lon="11.5339861"><ele>330.0</ele><time>2026-04-20T15:21:25.459Z</time></trkpt><trkpt lat="43.2950178" lon="11.5339034"><ele>330.0</ele><time>2026-04-20T15:21:26.459Z</time></trkpt><trkpt lat="43.2949328" lon="11.5338399"><ele>330.0</ele><time>2026-04-20T15:21:27.46Z</time></trkpt><trkpt lat="43.2948389" lon="11.5337982"><ele>328.6</ele><time>2026-04-20T15:21:28.46Z</time></trkpt><trkpt lat="43.2947376" lon="11.5337629"><ele>327.2</ele><time>2026-04-20T15:21:29.46Z</time></trkpt><trkpt lat="43.2946442" lon="11.5337224"><ele>325.79999999999995</ele><time>2026-04-20T15:21:30.459Z</time></trkpt><trkpt lat="43.294565" lon="11.5336705"><ele>324.4</ele><time>2026-04-20T15:21:31.46Z</time></trkpt><trkpt lat="43.2945018" lon="11.5335958"><ele>323.0</ele><time>2026-04-20T15:21:32.459Z</time></trkpt><trkpt lat="43.2944576" lon="11.5335017"><ele>323.0</ele><time>2026-04-20T15:21:33.459Z</time></trkpt><trkpt lat="43.2944317" lon="11.5333921"><ele>323.0</ele><time>2026-04-20T15:21:34.459Z</time></trkpt><trkpt lat="43.2944269" lon="11.5332629"><ele>323.0</ele><time>2026-04-20T15:21:35.459Z</time></trkpt><trkpt lat="43.2944383" lon="11.5331208"><ele>323.0</ele><time>2026-04-20T15:21:36.46Z</time></trkpt><trkpt lat="43.2944512" lon="11.5329802"><ele>323.0</ele><time>2026-04-20T15:21:37.459Z</time></trkpt><trkpt lat="43.2944548" lon="11.5328457"><ele>323.4</ele><time>2026-04-20T15:21:38.46Z</time></trkpt><trkpt lat="43.2944569" lon="11.5327086"><ele>323.79999999999995</ele><time>2026-04-20T15:21:39.46Z</time></trkpt><trkpt lat="43.2944639" lon="11.5325753"><ele>324.2</ele><time>2026-04-20T15:21:40.46Z</time></trkpt><trkpt lat="43.2944823" lon="11.5324431"><ele>324.6</ele><time>2026-04-20T15:21:41.46Z</time></trkpt><trkpt lat="43.2945143" lon="11.5323125"><ele>325.0</ele><time>2026-04-20T15:21:42.46Z</time></trkpt><trkpt lat="43.2945557" lon="11.5321844"><ele>325.4</ele><time>2026-04-20T15:21:43.46Z</time></trkpt><trkpt lat="43.294604" lon="11.5320543"><ele>325.8</ele><time>2026-04-20T15:21:44.46Z</time></trkpt><trkpt lat="43.2946486" lon="11.5319292"><ele>326.20000000000005</ele><time>2026-04-20T15:21:45.46Z</time></trkpt><trkpt lat="43.294693" lon="11.5318123"><ele>326.6</ele><time>2026-04-20T15:21:46.46Z</time></trkpt><trkpt lat="43.2947422" lon="11.5317042"><ele>327.0</ele><time>2026-04-20T15:21:47.461Z</time></trkpt><trkpt lat="43.2947947" lon="11.5316033"><ele>325.8333333333333</ele><time>2026-04-20T15:21:48.46Z</time></trkpt><trkpt lat="43.2948485" lon="11.5315058"><ele>324.6666666666667</ele><time>2026-04-20T15:21:49.461Z</time></trkpt><trkpt lat="43.2948998" lon="11.5314125"><ele>323.5</ele><time>2026-04-20T15:21:50.461Z</time></trkpt><trkpt lat="43.294951" lon="11.5313182"><ele>322.33333333333337</ele><time>2026-04-20T15:21:51.46Z</time></trkpt><trkpt lat="43.2950021" lon="11.5312239"><ele>321.1666666666667</ele><time>2026-04-20T15:21:52.46Z</time></trkpt><trkpt lat="43.2950591" lon="11.5311312"><ele>320.0</ele><time>2026-04-20T15:21:53.46Z</time></trkpt><trkpt lat="43.295126" lon="11.5310405"><ele>320.0</ele><time>2026-04-20T15:21:54.46Z</time></trkpt><trkpt lat="43.295198" lon="11.5309639"><ele>320.0</ele><time>2026-04-20T15:21:55.46Z</time></trkpt><trkpt lat="43.2952736" lon="11.5308996"><ele>320.0</ele><time>2026-04-20T15:21:56.46Z</time></trkpt><trkpt lat="43.2953481" lon="11.5308388"><ele>320.0</ele><time>2026-04-20T15:21:57.46Z</time></trkpt><trkpt lat="43.295424" lon="11.5307831"><ele>320.0</ele><time>2026-04-20T15:21:58.461Z</time></trkpt><trkpt lat="43.2955102" lon="11.5307215"><ele>317.0</ele><time>2026-04-20T15:21:59.46Z</time></trkpt><trkpt lat="43.2955965" lon="11.5306631"><ele>314.0</ele><time>2026-04-20T15:22:00.46Z</time></trkpt><trkpt lat="43.2956818" lon="11.530614"><ele>311.0</ele><time>2026-04-20T15:22:01.46Z</time></trkpt><trkpt lat="43.2957675" lon="11.5305745"><ele>308.0</ele><time>2026-04-20T15:22:02.46Z</time></trkpt><trkpt lat="43.2958502" lon="11.5305403"><ele>305.0</ele><time>2026-04-20T15:22:03.46Z</time></trkpt><trkpt lat="43.2959321" lon="11.5305083"><ele>305.0</ele><time>2026-04-20T15:22:04.46Z</time></trkpt><trkpt lat="43.296015" lon="11.5304766"><ele>305.0</ele><time>2026-04-20T15:22:05.46Z</time></trkpt><trkpt lat="43.2960995" lon="11.530444"><ele>305.0</ele><time>2026-04-20T15:22:06.46Z</time></trkpt><trkpt lat="43.296179" lon="11.5304121"><ele>305.0</ele><time>2026-04-20T15:22:07.46Z</time></trkpt><trkpt lat="43.2962509" lon="11.5303823"><ele>305.0</ele><time>2026-04-20T15:22:08.46Z</time></trkpt><trkpt lat="43.2963222" lon="11.5303519"><ele>305.0</ele><time>2026-04-20T15:22:09.46Z</time></trkpt><trkpt lat="43.2963888" lon="11.5303252"><ele>303.5</ele><time>2026-04-20T15:22:10.46Z</time></trkpt><trkpt lat="43.2964526" lon="11.5302956"><ele>302.0</ele><time>2026-04-20T15:22:11.46Z</time></trkpt><trkpt lat="43.2965147" lon="11.5302609"><ele>300.5</ele><time>2026-04-20T15:22:12.46Z</time></trkpt><trkpt lat="43.2966165" lon="11.53017"><ele>299.0</ele><time>2026-04-20T15:22:14.461Z</time></trkpt><trkpt lat="43.2966601" lon="11.5300294"><ele>297.5</ele><time>2026-04-20T15:22:16.46Z</time></trkpt><trkpt lat="43.2966515" lon="11.529941"><ele>296.0</ele><time>2026-04-20T15:22:17.46Z</time></trkpt><trkpt lat="43.2966203" lon="11.5298587"><ele>296.0</ele><time>2026-04-20T15:22:18.461Z</time></trkpt><trkpt lat="43.2965672" lon="11.529793"><ele>296.0</ele><time>2026-04-20T15:22:19.46Z</time></trkpt><trkpt lat="43.2964944" lon="11.5297463"><ele>296.0</ele><time>2026-04-20T15:22:20.46Z</time></trkpt><trkpt lat="43.2964105" lon="11.5297057"><ele>296.0</ele><time>2026-04-20T15:22:21.46Z</time></trkpt><trkpt lat="43.2963191" lon="11.5296679"><ele>296.0</ele><time>2026-04-20T15:22:22.46Z</time></trkpt><trkpt lat="43.2962237" lon="11.5296332"><ele>296.0</ele><time>2026-04-20T15:22:23.46Z</time></trkpt><trkpt lat="43.2961309" lon="11.5296064"><ele>295.6</ele><time>2026-04-20T15:22:24.46Z</time></trkpt><trkpt lat="43.2960386" lon="11.529589"><ele>295.20000000000005</ele><time>2026-04-20T15:22:25.46Z</time></trkpt><trkpt lat="43.29595" lon="11.5295777"><ele>294.79999999999995</ele><time>2026-04-20T15:22:26.46Z</time></trkpt><trkpt lat="43.2958602" lon="11.5295471"><ele>294.4</ele><time>2026-04-20T15:22:27.461Z</time></trkpt><trkpt lat="43.2957696" lon="11.5294834"><ele>294.0</ele><time>2026-04-20T15:22:28.46Z</time></trkpt><trkpt lat="43.2956877" lon="11.5294054"><ele>294.0</ele><time>2026-04-20T15:22:29.461Z</time></trkpt><trkpt lat="43.2956097" lon="11.5293396"><ele>294.0</ele><time>2026-04-20T15:22:30.461Z</time></trkpt><trkpt lat="43.2955359" lon="11.5292991"><ele>294.0</ele><time>2026-04-20T15:22:31.462Z</time></trkpt><trkpt lat="43.2954644" lon="11.5292776"><ele>294.0</ele><time>2026-04-20T15:22:32.461Z</time></trkpt><trkpt lat="43.2954022" lon="11.5292565"><ele>294.0</ele><time>2026-04-20T15:22:33.461Z</time></trkpt><trkpt lat="43.295314" lon="11.5291775"><ele>294.0</ele><time>2026-04-20T15:22:35.462Z</time></trkpt><trkpt lat="43.2952887" lon="11.5290452"><ele>294.0</ele><time>2026-04-20T15:22:37.461Z</time></trkpt><trkpt lat="43.2953565" lon="11.5289075"><ele>294.0</ele><time>2026-04-20T15:22:39.461Z</time></trkpt><trkpt lat="43.2954134" lon="11.5288519"><ele>294.0</ele><time>2026-04-20T15:22:40.462Z</time></trkpt><trkpt lat="43.2954762" lon="11.528811"><ele>294.0</ele><time>2026-04-20T15:22:41.462Z</time></trkpt><trkpt lat="43.295541" lon="11.5287764"><ele>294.0</ele><time>2026-04-20T15:22:42.461Z</time></trkpt><trkpt lat="43.2956074" lon="11.5287388"><ele>294.0</ele><time>2026-04-20T15:22:43.461Z</time></trkpt><trkpt lat="43.2956756" lon="11.528692"><ele>293.6666666666667</ele><time>2026-04-20T15:22:44.461Z</time></trkpt><trkpt lat="43.2957407" lon="11.5286345"><ele>293.3333333333333</ele><time>2026-04-20T15:22:45.461Z</time></trkpt><trkpt lat="43.2957987" lon="11.5285703"><ele>293.0</ele><time>2026-04-20T15:22:46.461Z</time></trkpt><trkpt lat="43.2958452" lon="11.5284984"><ele>292.66666666666663</ele><time>2026-04-20T15:22:47.461Z</time></trkpt><trkpt lat="43.2958821" lon="11.5284125"><ele>292.3333333333333</ele><time>2026-04-20T15:22:48.461Z</time></trkpt><trkpt lat="43.2959112" lon="11.528306"><ele>292.0</ele><time>2026-04-20T15:22:49.462Z</time></trkpt><trkpt lat="43.2959291" lon="11.5281794"><ele>292.0</ele><time>2026-04-20T15:22:50.461Z</time></trkpt><trkpt lat="43.2959374" lon="11.5280372"><ele>292.0</ele><time>2026-04-20T15:22:51.461Z</time></trkpt><trkpt lat="43.2959444" lon="11.5278903"><ele>292.0</ele><time>2026-04-20T15:22:52.461Z</time></trkpt><trkpt lat="43.2959568" lon="11.5277444"><ele>292.0</ele><time>2026-04-20T15:22:53.461Z</time></trkpt><trkpt lat="43.2959745" lon="11.5276036"><ele>292.0</ele><time>2026-04-20T15:22:54.462Z</time></trkpt><trkpt lat="43.2959939" lon="11.5274701"><ele>292.0</ele><time>2026-04-20T15:22:55.461Z</time></trkpt><trkpt lat="43.2960117" lon="11.5273467"><ele>292.0</ele><time>2026-04-20T15:22:56.461Z</time></trkpt><trkpt lat="43.2960354" lon="11.5272267"><ele>292.0</ele><time>2026-04-20T15:22:57.461Z</time></trkpt><trkpt lat="43.2960701" lon="11.527103"><ele>292.0</ele><time>2026-04-20T15:22:58.461Z</time></trkpt><trkpt lat="43.2961216" lon="11.5269769"><ele>292.0</ele><time>2026-04-20T15:22:59.461Z</time></trkpt><trkpt lat="43.2961847" lon="11.5268586"><ele>291.4</ele><time>2026-04-20T15:23:00.461Z</time></trkpt><trkpt lat="43.2962517" lon="11.5267486"><ele>290.79999999999995</ele><time>2026-04-20T15:23:01.462Z</time></trkpt><trkpt lat="43.2963201" lon="11.526642"><ele>290.2</ele><time>2026-04-20T15:23:02.461Z</time></trkpt><trkpt lat="43.2963894" lon="11.5265386"><ele>289.59999999999997</ele><time>2026-04-20T15:23:03.461Z</time></trkpt><trkpt lat="43.2964571" lon="11.5264331"><ele>289.0</ele><time>2026-04-20T15:23:04.461Z</time></trkpt><trkpt lat="43.2965225" lon="11.5263309"><ele>289.0</ele><time>2026-04-20T15:23:05.462Z</time></trkpt><trkpt lat="43.296589" lon="11.5262406"><ele>289.0</ele><time>2026-04-20T15:23:06.461Z</time></trkpt><trkpt lat="43.2966556" lon="11.5261708"><ele>289.0</ele><time>2026-04-20T15:23:07.461Z</time></trkpt><trkpt lat="43.2967152" lon="11.5261148"><ele>289.0</ele><time>2026-04-20T15:23:08.461Z</time></trkpt><trkpt lat="43.2967616" lon="11.5260492"><ele>289.0</ele><time>2026-04-20T15:23:09.462Z</time></trkpt><trkpt lat="43.2967899" lon="11.5259608"><ele>289.0</ele><time>2026-04-20T15:23:10.461Z</time></trkpt><trkpt lat="43.2967967" lon="11.5258512"><ele>289.0</ele><time>2026-04-20T15:23:11.461Z</time></trkpt><trkpt lat="43.2967823" lon="11.5257316"><ele>289.0</ele><time>2026-04-20T15:23:12.461Z</time></trkpt><trkpt lat="43.2967615" lon="11.5256227"><ele>289.0</ele><time>2026-04-20T15:23:13.462Z</time></trkpt><trkpt lat="43.2967454" lon="11.5255234"><ele>289.0</ele><time>2026-04-20T15:23:14.461Z</time></trkpt><trkpt lat="43.2967383" lon="11.5254243"><ele>289.0</ele><time>2026-04-20T15:23:15.463Z</time></trkpt><trkpt lat="43.2967401" lon="11.5253234"><ele>289.0</ele><time>2026-04-20T15:23:16.462Z</time></trkpt><trkpt lat="43.296752" lon="11.5252167"><ele>289.5</ele><time>2026-04-20T15:23:17.462Z</time></trkpt><trkpt lat="43.296766" lon="11.5251153"><ele>290.0</ele><time>2026-04-20T15:23:18.462Z</time></trkpt><trkpt lat="43.2967708" lon="11.5250097"><ele>290.5</ele><time>2026-04-20T15:23:19.462Z</time></trkpt><trkpt lat="43.2967523" lon="11.5249008"><ele>291.0</ele><time>2026-04-20T15:23:20.462Z</time></trkpt><trkpt lat="43.2967126" lon="11.5247925"><ele>291.5</ele><time>2026-04-20T15:23:21.463Z</time></trkpt><trkpt lat="43.2966645" lon="11.5246904"><ele>292.0</ele><time>2026-04-20T15:23:22.462Z</time></trkpt><trkpt lat="43.2966209" lon="11.5245939"><ele>294.0</ele><time>2026-04-20T15:23:23.462Z</time></trkpt><trkpt lat="43.2965867" lon="11.524492"><ele>296.0</ele><time>2026-04-20T15:23:24.463Z</time></trkpt><trkpt lat="43.2965614" lon="11.5243744"><ele>298.0</ele><time>2026-04-20T15:23:25.462Z</time></trkpt><trkpt lat="43.2965464" lon="11.5242398"><ele>300.0</ele><time>2026-04-20T15:23:26.462Z</time></trkpt><trkpt lat="43.2965343" lon="11.5240983"><ele>302.0</ele><time>2026-04-20T15:23:27.462Z</time></trkpt><trkpt lat="43.2965194" lon="11.5239588"><ele>302.0</ele><time>2026-04-20T15:23:28.462Z</time></trkpt><trkpt lat="43.2965008" lon="11.5238169"><ele>302.0</ele><time>2026-04-20T15:23:29.462Z</time></trkpt><trkpt lat="43.2964809" lon="11.5236831"><ele>302.0</ele><time>2026-04-20T15:23:30.462Z</time></trkpt><trkpt lat="43.2964611" lon="11.523567"><ele>302.0</ele><time>2026-04-20T15:23:31.462Z</time></trkpt><trkpt lat="43.296445" lon="11.5234666"><ele>302.0</ele><time>2026-04-20T15:23:32.463Z</time></trkpt><trkpt lat="43.2964353" lon="11.5233785"><ele>302.0</ele><time>2026-04-20T15:23:33.462Z</time></trkpt><trkpt lat="43.2964233" lon="11.523218"><ele>302.6666666666667</ele><time>2026-04-20T15:23:35.462Z</time></trkpt><trkpt lat="43.2964195" lon="11.5231301"><ele>303.33333333333337</ele><time>2026-04-20T15:23:36.462Z</time></trkpt><trkpt lat="43.2964143" lon="11.522984"><ele>304.0</ele><time>2026-04-20T15:23:38.462Z</time></trkpt><trkpt lat="43.2964114" lon="11.5228793"><ele>304.6666666666667</ele><time>2026-04-20T15:23:40.462Z</time></trkpt><trkpt lat="43.2963999" lon="11.5227897"><ele>305.3333333333333</ele><time>2026-04-20T15:23:42.462Z</time></trkpt><trkpt lat="43.2964182" lon="11.5226716"><ele>306.0</ele><time>2026-04-20T15:25:33.464Z</time></trkpt><trkpt lat="43.2964786" lon="11.5225392"><ele>306.0</ele><time>2026-04-20T15:25:35.464Z</time></trkpt><trkpt lat="43.2965192" lon="11.5224637"><ele>306.0</ele><time>2026-04-20T15:25:36.464Z</time></trkpt><trkpt lat="43.2965702" lon="11.5223865"><ele>306.0</ele><time>2026-04-20T15:25:37.464Z</time></trkpt><trkpt lat="43.2966257" lon="11.5223035"><ele>306.0</ele><time>2026-04-20T15:25:38.464Z</time></trkpt><trkpt lat="43.2966702" lon="11.5222114"><ele>306.0</ele><time>2026-04-20T15:25:39.465Z</time></trkpt><trkpt lat="43.2966954" lon="11.5221181"><ele>306.0</ele><time>2026-04-20T15:25:40.464Z</time></trkpt><trkpt lat="43.2967082" lon="11.5220247"><ele>306.0</ele><time>2026-04-20T15:25:41.464Z</time></trkpt><trkpt lat="43.2967148" lon="11.5219333"><ele>304.3333333333333</ele><time>2026-04-20T15:25:42.464Z</time></trkpt><trkpt lat="43.2967212" lon="11.5218468"><ele>302.6666666666667</ele><time>2026-04-20T15:25:43.464Z</time></trkpt><trkpt lat="43.2967542" lon="11.521694"><ele>301.0</ele><time>2026-04-20T15:25:45.464Z</time></trkpt><trkpt lat="43.2968299" lon="11.5215696"><ele>299.33333333333337</ele><time>2026-04-20T15:25:47.465Z</time></trkpt><trkpt lat="43.2968903" lon="11.5215211"><ele>297.6666666666667</ele><time>2026-04-20T15:25:48.465Z</time></trkpt><trkpt lat="43.2969584" lon="11.5214776"><ele>296.0</ele><time>2026-04-20T15:25:49.466Z</time></trkpt><trkpt lat="43.2970327" lon="11.5214361"><ele>296.0</ele><time>2026-04-20T15:25:50.465Z</time></trkpt><trkpt lat="43.2971133" lon="11.5213988"><ele>296.0</ele><time>2026-04-20T15:25:51.465Z</time></trkpt><trkpt lat="43.2971936" lon="11.5213689"><ele>296.0</ele><time>2026-04-20T15:25:52.466Z</time></trkpt><trkpt lat="43.2972744" lon="11.5213482"><ele>296.0</ele><time>2026-04-20T15:25:53.465Z</time></trkpt><trkpt lat="43.2973573" lon="11.5213405"><ele>296.0</ele><time>2026-04-20T15:25:54.465Z</time></trkpt><trkpt lat="43.297439" lon="11.5213465"><ele>296.0</ele><time>2026-04-20T15:25:55.465Z</time></trkpt><trkpt lat="43.2975135" lon="11.5213656"><ele>297.33333333333337</ele><time>2026-04-20T15:25:56.465Z</time></trkpt><trkpt lat="43.2975792" lon="11.5213988"><ele>298.6666666666667</ele><time>2026-04-20T15:25:57.465Z</time></trkpt><trkpt lat="43.2976398" lon="11.5214489"><ele>300.0</ele><time>2026-04-20T15:25:58.465Z</time></trkpt><trkpt lat="43.297703" lon="11.5215101"><ele>301.3333333333333</ele><time>2026-04-20T15:25:59.465Z</time></trkpt><trkpt lat="43.2977708" lon="11.5215735"><ele>302.66666666666663</ele><time>2026-04-20T15:26:00.466Z</time></trkpt><trkpt lat="43.297839" lon="11.5216429"><ele>304.0</ele><time>2026-04-20T15:26:01.465Z</time></trkpt><trkpt lat="43.2979076" lon="11.5217224"><ele>304.0</ele><time>2026-04-20T15:26:02.465Z</time></trkpt><trkpt lat="43.2979691" lon="11.52181"><ele>304.0</ele><time>2026-04-20T15:26:03.465Z</time></trkpt><trkpt lat="43.2980243" lon="11.5219092"><ele>304.0</ele><time>2026-04-20T15:26:04.465Z</time></trkpt><trkpt lat="43.2980715" lon="11.5220161"><ele>304.0</ele><time>2026-04-20T15:26:05.466Z</time></trkpt><trkpt lat="43.2981115" lon="11.52212"><ele>304.0</ele><time>2026-04-20T15:26:06.466Z</time></trkpt><trkpt lat="43.2981512" lon="11.5222114"><ele>304.0</ele><time>2026-04-20T15:26:07.465Z</time></trkpt><trkpt lat="43.2981976" lon="11.5222773"><ele>304.16666666666663</ele><time>2026-04-20T15:26:08.465Z</time></trkpt><trkpt lat="43.2982592" lon="11.5223208"><ele>304.3333333333333</ele><time>2026-04-20T15:26:09.465Z</time></trkpt><trkpt lat="43.298335" lon="11.5223425"><ele>304.5</ele><time>2026-04-20T15:26:10.466Z</time></trkpt><trkpt lat="43.2984182" lon="11.5223384"><ele>304.6666666666667</ele><time>2026-04-20T15:26:11.465Z</time></trkpt><trkpt lat="43.2984998" lon="11.5223062"><ele>304.83333333333337</ele><time>2026-04-20T15:26:12.466Z</time></trkpt><trkpt lat="43.2985701" lon="11.5222728"><ele>305.0</ele><time>2026-04-20T15:26:13.465Z</time></trkpt><trkpt lat="43.298641" lon="11.522263"><ele>305.0</ele><time>2026-04-20T15:26:14.466Z</time></trkpt><trkpt lat="43.2987146" lon="11.5222896"><ele>305.0</ele><time>2026-04-20T15:26:15.465Z</time></trkpt><trkpt lat="43.2987915" lon="11.5223513"><ele>305.0</ele><time>2026-04-20T15:26:16.465Z</time></trkpt><trkpt lat="43.2988604" lon="11.5224331"><ele>305.0</ele><time>2026-04-20T15:26:17.466Z</time></trkpt><trkpt lat="43.2989204" lon="11.5225023"><ele>305.0</ele><time>2026-04-20T15:26:18.465Z</time></trkpt><trkpt lat="43.2989863" lon="11.5225437"><ele>305.0</ele><time>2026-04-20T15:26:19.465Z</time></trkpt><trkpt lat="43.2990638" lon="11.5225539"><ele>303.83333333333337</ele><time>2026-04-20T15:26:20.465Z</time></trkpt><trkpt lat="43.29915" lon="11.5225466"><ele>302.6666666666667</ele><time>2026-04-20T15:26:21.466Z</time></trkpt><trkpt lat="43.2992378" lon="11.5225341"><ele>301.5</ele><time>2026-04-20T15:26:22.465Z</time></trkpt><trkpt lat="43.2993185" lon="11.5225177"><ele>300.3333333333333</ele><time>2026-04-20T15:26:23.467Z</time></trkpt><trkpt lat="43.2993953" lon="11.522496"><ele>299.16666666666663</ele><time>2026-04-20T15:26:24.465Z</time></trkpt><trkpt lat="43.2994678" lon="11.5224636"><ele>298.0</ele><time>2026-04-20T15:26:25.465Z</time></trkpt><trkpt lat="43.2995368" lon="11.5224178"><ele>298.0</ele><time>2026-04-20T15:26:26.465Z</time></trkpt><trkpt lat="43.2995953" lon="11.5223689"><ele>298.0</ele><time>2026-04-20T15:26:27.465Z</time></trkpt><trkpt lat="43.2996493" lon="11.5223199"><ele>298.0</ele><time>2026-04-20T15:26:28.465Z</time></trkpt><trkpt lat="43.2997074" lon="11.5222722"><ele>298.0</ele><time>2026-04-20T15:26:29.465Z</time></trkpt><trkpt lat="43.2997793" lon="11.5222309"><ele>298.0</ele><time>2026-04-20T15:26:30.465Z</time></trkpt><trkpt lat="43.2998655" lon="11.5222128"><ele>298.0</ele><time>2026-04-20T15:26:31.465Z</time></trkpt><trkpt lat="43.2999661" lon="11.5222161"><ele>298.16666666666663</ele><time>2026-04-20T15:26:32.465Z</time></trkpt><trkpt lat="43.3000587" lon="11.5222256"><ele>298.3333333333333</ele><time>2026-04-20T15:26:33.465Z</time></trkpt><trkpt lat="43.3001386" lon="11.5222394"><ele>298.5</ele><time>2026-04-20T15:26:34.465Z</time></trkpt><trkpt lat="43.3002114" lon="11.522254"><ele>298.6666666666667</ele><time>2026-04-20T15:26:35.466Z</time></trkpt><trkpt lat="43.3002861" lon="11.5222785"><ele>298.83333333333337</ele><time>2026-04-20T15:26:36.467Z</time></trkpt><trkpt lat="43.3003623" lon="11.522318"><ele>299.0</ele><time>2026-04-20T15:26:37.467Z</time></trkpt><trkpt lat="43.3004378" lon="11.5223659"><ele>299.0</ele><time>2026-04-20T15:26:38.466Z</time></trkpt><trkpt lat="43.3005185" lon="11.5224167"><ele>299.0</ele><time>2026-04-20T15:26:39.466Z</time></trkpt><trkpt lat="43.3006056" lon="11.5224625"><ele>299.0</ele><time>2026-04-20T15:26:40.466Z</time></trkpt><trkpt lat="43.3006979" lon="11.5225016"><ele>299.0</ele><time>2026-04-20T15:26:41.466Z</time></trkpt><trkpt lat="43.3007879" lon="11.522532"><ele>299.0</ele><time>2026-04-20T15:26:42.466Z</time></trkpt><trkpt lat="43.3008773" lon="11.5225524"><ele>298.1666666666667</ele><time>2026-04-20T15:26:43.466Z</time></trkpt><trkpt lat="43.3009676" lon="11.5225721"><ele>297.33333333333337</ele><time>2026-04-20T15:26:44.466Z</time></trkpt><trkpt lat="43.3010539" lon="11.5225972"><ele>296.5</ele><time>2026-04-20T15:26:45.466Z</time></trkpt><trkpt lat="43.3011402" lon="11.5226347"><ele>295.6666666666667</ele><time>2026-04-20T15:26:46.466Z</time></trkpt><trkpt lat="43.3012203" lon="11.5226791"><ele>294.8333333333333</ele><time>2026-04-20T15:26:47.466Z</time></trkpt><trkpt lat="43.3012904" lon="11.5227265"><ele>294.0</ele><time>2026-04-20T15:26:48.466Z</time></trkpt><trkpt lat="43.3013531" lon="11.5227743"><ele>293.3333333333333</ele><time>2026-04-20T15:26:49.466Z</time></trkpt><trkpt lat="43.301418" lon="11.5228211"><ele>292.6666666666667</ele><time>2026-04-20T15:26:50.467Z</time></trkpt><trkpt lat="43.3014944" lon="11.5228636"><ele>292.0</ele><time>2026-04-20T15:26:51.466Z</time></trkpt><trkpt lat="43.3015778" lon="11.5228886"><ele>291.33333333333337</ele><time>2026-04-20T15:26:52.466Z</time></trkpt><trkpt lat="43.3016682" lon="11.5229033"><ele>290.6666666666667</ele><time>2026-04-20T15:26:53.466Z</time></trkpt><trkpt lat="43.3017626" lon="11.5229153"><ele>290.0</ele><time>2026-04-20T15:26:54.466Z</time></trkpt><trkpt lat="43.3018579" lon="11.5229268"><ele>290.33333333333337</ele><time>2026-04-20T15:26:55.466Z</time></trkpt><trkpt lat="43.3019549" lon="11.5229391"><ele>290.6666666666667</ele><time>2026-04-20T15:26:56.466Z</time></trkpt><trkpt lat="43.3020438" lon="11.522949"><ele>291.0</ele><time>2026-04-20T15:26:57.466Z</time></trkpt><trkpt lat="43.3021272" lon="11.5229516"><ele>291.3333333333333</ele><time>2026-04-20T15:26:58.466Z</time></trkpt><trkpt lat="43.3022089" lon="11.5229402"><ele>291.66666666666663</ele><time>2026-04-20T15:26:59.466Z</time></trkpt><trkpt lat="43.3022918" lon="11.5229129"><ele>292.0</ele><time>2026-04-20T15:27:00.466Z</time></trkpt><trkpt lat="43.3023748" lon="11.5228688"><ele>292.0</ele><time>2026-04-20T15:27:01.466Z</time></trkpt><trkpt lat="43.3024612" lon="11.5228163"><ele>292.0</ele><time>2026-04-20T15:27:02.466Z</time></trkpt><trkpt lat="43.3025511" lon="11.5227656"><ele>292.0</ele><time>2026-04-20T15:27:03.466Z</time></trkpt><trkpt lat="43.3026502" lon="11.5227264"><ele>292.0</ele><time>2026-04-20T15:27:04.466Z</time></trkpt><trkpt lat="43.3027506" lon="11.5227026"><ele>292.0</ele><time>2026-04-20T15:27:05.466Z</time></trkpt><trkpt lat="43.3028479" lon="11.5226903"><ele>292.0</ele><time>2026-04-20T15:27:06.466Z</time></trkpt><trkpt lat="43.3029431" lon="11.5226807"><ele>292.0</ele><time>2026-04-20T15:27:07.466Z</time></trkpt><trkpt lat="43.3030361" lon="11.5226771"><ele>292.0</ele><time>2026-04-20T15:27:08.466Z</time></trkpt><trkpt lat="43.3031245" lon="11.5226834"><ele>292.0</ele><time>2026-04-20T15:27:09.466Z</time></trkpt><trkpt lat="43.303204" lon="11.5226977"><ele>292.0</ele><time>2026-04-20T15:27:10.466Z</time></trkpt><trkpt lat="43.3032752" lon="11.5227246"><ele>292.0</ele><time>2026-04-20T15:27:11.466Z</time></trkpt><trkpt lat="43.3033459" lon="11.5227736"><ele>291.5</ele><time>2026-04-20T15:27:12.466Z</time></trkpt><trkpt lat="43.3034139" lon="11.522844"><ele>291.0</ele><time>2026-04-20T15:27:13.466Z</time></trkpt><trkpt lat="43.3034716" lon="11.5229299"><ele>290.5</ele><time>2026-04-20T15:27:14.466Z</time></trkpt><trkpt lat="43.3035228" lon="11.523021"><ele>290.0</ele><time>2026-04-20T15:27:15.466Z</time></trkpt><trkpt lat="43.3035726" lon="11.5231172"><ele>289.5</ele><time>2026-04-20T15:27:16.466Z</time></trkpt><trkpt lat="43.3036231" lon="11.5232169"><ele>289.0</ele><time>2026-04-20T15:27:17.466Z</time></trkpt><trkpt lat="43.3036734" lon="11.5233159"><ele>289.8333333333333</ele><time>2026-04-20T15:27:18.467Z</time></trkpt><trkpt lat="43.3037247" lon="11.5234151"><ele>290.66666666666663</ele><time>2026-04-20T15:27:19.466Z</time></trkpt><trkpt lat="43.3037787" lon="11.523513"><ele>291.5</ele><time>2026-04-20T15:27:20.466Z</time></trkpt><trkpt lat="43.3038333" lon="11.523609"><ele>292.3333333333333</ele><time>2026-04-20T15:27:21.467Z</time></trkpt><trkpt lat="43.3038896" lon="11.5237035"><ele>293.1666666666667</ele><time>2026-04-20T15:27:22.466Z</time></trkpt><trkpt lat="43.3039512" lon="11.5237901"><ele>294.0</ele><time>2026-04-20T15:27:23.466Z</time></trkpt><trkpt lat="43.3040162" lon="11.5238589"><ele>294.0</ele><time>2026-04-20T15:27:24.466Z</time></trkpt><trkpt lat="43.3040863" lon="11.5239034"><ele>294.0</ele><time>2026-04-20T15:27:25.467Z</time></trkpt><trkpt lat="43.3041687" lon="11.5239119"><ele>294.0</ele><time>2026-04-20T15:27:26.467Z</time></trkpt><trkpt lat="43.3042604" lon="11.5238902"><ele>294.0</ele><time>2026-04-20T15:27:27.467Z</time></trkpt><trkpt lat="43.3043511" lon="11.5238359"><ele>294.0</ele><time>2026-04-20T15:27:28.467Z</time></trkpt><trkpt lat="43.3044298" lon="11.523754"><ele>294.0</ele><time>2026-04-20T15:27:29.467Z</time></trkpt><trkpt lat="43.3044965" lon="11.5236546"><ele>294.0</ele><time>2026-04-20T15:27:30.467Z</time></trkpt><trkpt lat="43.3045517" lon="11.523545"><ele>294.0</ele><time>2026-04-20T15:27:31.468Z</time></trkpt><trkpt lat="43.3046002" lon="11.5234422"><ele>294.0</ele><time>2026-04-20T15:27:32.467Z</time></trkpt><trkpt lat="43.3046496" lon="11.5233492"><ele>294.0</ele><time>2026-04-20T15:27:33.467Z</time></trkpt><trkpt lat="43.3047003" lon="11.5232744"><ele>294.0</ele><time>2026-04-20T15:27:34.467Z</time></trkpt><trkpt lat="43.3047628" lon="11.5232072"><ele>296.0</ele><time>2026-04-20T15:27:35.468Z</time></trkpt><trkpt lat="43.3048361" lon="11.5231477"><ele>298.0</ele><time>2026-04-20T15:27:36.467Z</time></trkpt><trkpt lat="43.3049098" lon="11.5230937"><ele>300.0</ele><time>2026-04-20T15:27:37.467Z</time></trkpt><trkpt lat="43.3049836" lon="11.523039"><ele>302.0</ele><time>2026-04-20T15:27:38.468Z</time></trkpt><trkpt lat="43.305059" lon="11.5229875"><ele>304.0</ele><time>2026-04-20T15:27:39.467Z</time></trkpt><trkpt lat="43.3051443" lon="11.5229523"><ele>306.0</ele><time>2026-04-20T15:27:40.467Z</time></trkpt><trkpt lat="43.3052306" lon="11.5229208"><ele>305.3333333333333</ele><time>2026-04-20T15:27:41.467Z</time></trkpt><trkpt lat="43.3053189" lon="11.5228903"><ele>304.6666666666667</ele><time>2026-04-20T15:27:42.468Z</time></trkpt><trkpt lat="43.3054061" lon="11.5228547"><ele>304.0</ele><time>2026-04-20T15:27:43.467Z</time></trkpt><trkpt lat="43.3054904" lon="11.5228185"><ele>303.33333333333337</ele><time>2026-04-20T15:27:44.467Z</time></trkpt><trkpt lat="43.3055727" lon="11.5227824"><ele>302.6666666666667</ele><time>2026-04-20T15:27:45.467Z</time></trkpt><trkpt lat="43.3056498" lon="11.5227607"><ele>302.0</ele><time>2026-04-20T15:27:46.467Z</time></trkpt><trkpt lat="43.3057275" lon="11.5227647"><ele>304.0</ele><time>2026-04-20T15:27:47.467Z</time></trkpt><trkpt lat="43.3058095" lon="11.5227845"><ele>306.0</ele><time>2026-04-20T15:27:48.468Z</time></trkpt><trkpt lat="43.3058932" lon="11.5228148"><ele>308.0</ele><time>2026-04-20T15:27:49.467Z</time></trkpt><trkpt lat="43.3059767" lon="11.5228592"><ele>310.0</ele><time>2026-04-20T15:27:50.467Z</time></trkpt><trkpt lat="43.3060563" lon="11.5229031"><ele>312.0</ele><time>2026-04-20T15:27:51.467Z</time></trkpt><trkpt lat="43.3061371" lon="11.5229468"><ele>314.0</ele><time>2026-04-20T15:27:52.467Z</time></trkpt><trkpt lat="43.3062212" lon="11.5229824"><ele>314.8</ele><time>2026-04-20T15:27:53.467Z</time></trkpt><trkpt lat="43.3063066" lon="11.5229979"><ele>315.59999999999997</ele><time>2026-04-20T15:27:54.468Z</time></trkpt><trkpt lat="43.3063994" lon="11.5230109"><ele>316.4</ele><time>2026-04-20T15:27:55.467Z</time></trkpt><trkpt lat="43.3064902" lon="11.5230211"><ele>317.2</ele><time>2026-04-20T15:27:56.468Z</time></trkpt><trkpt lat="43.3065774" lon="11.5230303"><ele>318.0</ele><time>2026-04-20T15:27:57.467Z</time></trkpt><trkpt lat="43.3066721" lon="11.5230476"><ele>319.4</ele><time>2026-04-20T15:27:58.467Z</time></trkpt><trkpt lat="43.3067656" lon="11.5230618"><ele>320.8</ele><time>2026-04-20T15:27:59.467Z</time></trkpt><trkpt lat="43.3068606" lon="11.5230662"><ele>322.2</ele><time>2026-04-20T15:28:00.467Z</time></trkpt><trkpt lat="43.306958" lon="11.5230713"><ele>323.6</ele><time>2026-04-20T15:28:01.467Z</time></trkpt><trkpt lat="43.3070494" lon="11.5230697"><ele>325.0</ele><time>2026-04-20T15:28:02.467Z</time></trkpt><trkpt lat="43.3071426" lon="11.5230677"><ele>325.0</ele><time>2026-04-20T15:28:03.467Z</time></trkpt><trkpt lat="43.307234" lon="11.5230661"><ele>325.0</ele><time>2026-04-20T15:28:04.468Z</time></trkpt><trkpt lat="43.3074008" lon="11.523117"><ele>325.0</ele><time>2026-04-20T15:28:06.467Z</time></trkpt><trkpt lat="43.3074673" lon="11.5231552"><ele>325.0</ele><time>2026-04-20T15:28:07.467Z</time></trkpt><trkpt lat="43.307526" lon="11.5232005"><ele>325.0</ele><time>2026-04-20T15:28:08.467Z</time></trkpt><trkpt lat="43.3075811" lon="11.5232669"><ele>325.16666666666663</ele><time>2026-04-20T15:28:09.468Z</time></trkpt><trkpt lat="43.3076426" lon="11.5233412"><ele>325.3333333333333</ele><time>2026-04-20T15:28:10.467Z</time></trkpt><trkpt lat="43.3077081" lon="11.5234074"><ele>325.5</ele><time>2026-04-20T15:28:11.467Z</time></trkpt><trkpt lat="43.3077837" lon="11.5234723"><ele>325.6666666666667</ele><time>2026-04-20T15:28:12.467Z</time></trkpt><trkpt lat="43.3078613" lon="11.5235383"><ele>325.83333333333337</ele><time>2026-04-20T15:28:13.469Z</time></trkpt><trkpt lat="43.3079413" lon="11.5236041"><ele>326.0</ele><time>2026-04-20T15:28:14.468Z</time></trkpt><trkpt lat="43.3080202" lon="11.5236683"><ele>326.0</ele><time>2026-04-20T15:28:15.468Z</time></trkpt><trkpt lat="43.3080979" lon="11.5237309"><ele>326.0</ele><time>2026-04-20T15:28:16.468Z</time></trkpt><trkpt lat="43.3081734" lon="11.5237881"><ele>326.0</ele><time>2026-04-20T15:28:17.468Z</time></trkpt><trkpt lat="43.3082429" lon="11.523839"><ele>326.0</ele><time>2026-04-20T15:28:18.468Z</time></trkpt><trkpt lat="43.3083048" lon="11.5238862"><ele>326.0</ele><time>2026-04-20T15:28:19.468Z</time></trkpt><trkpt lat="43.3083623" lon="11.5239329"><ele>326.0</ele><time>2026-04-20T15:28:20.468Z</time></trkpt><trkpt lat="43.3084582" lon="11.5240258"><ele>326.0</ele><time>2026-04-20T15:28:22.469Z</time></trkpt><trkpt lat="43.3085513" lon="11.5241495"><ele>326.0</ele><time>2026-04-20T15:28:24.468Z</time></trkpt><trkpt lat="43.3085974" lon="11.5242205"><ele>326.0</ele><time>2026-04-20T15:28:25.469Z</time></trkpt><trkpt lat="43.3086358" lon="11.5242892"><ele>326.0</ele><time>2026-04-20T15:28:26.468Z</time></trkpt><trkpt lat="43.3087534" lon="11.5244297"><ele>326.0</ele><time>2026-04-20T15:28:29.468Z</time></trkpt><trkpt lat="43.3088217" lon="11.5243384"><ele>326.0</ele><time>2026-04-20T15:28:31.468Z</time></trkpt><trkpt lat="43.3088672" lon="11.524176"><ele>326.0</ele><time>2026-04-20T15:28:33.468Z</time></trkpt><trkpt lat="43.3088901" lon="11.5240731"><ele>326.0</ele><time>2026-04-20T15:28:34.468Z</time></trkpt><trkpt lat="43.3089055" lon="11.5239483"><ele>326.0</ele><time>2026-04-20T15:28:35.468Z</time></trkpt><trkpt lat="43.3089059" lon="11.5238172"><ele>326.0</ele><time>2026-04-20T15:28:36.468Z</time></trkpt><trkpt lat="43.3088922" lon="11.5236894"><ele>326.1666666666667</ele><time>2026-04-20T15:28:37.468Z</time></trkpt><trkpt lat="43.3088736" lon="11.5235664"><ele>326.33333333333337</ele><time>2026-04-20T15:28:38.468Z</time></trkpt><trkpt lat="43.3088571" lon="11.5234498"><ele>326.5</ele><time>2026-04-20T15:28:39.468Z</time></trkpt><trkpt lat="43.3088482" lon="11.5233348"><ele>326.6666666666667</ele><time>2026-04-20T15:28:40.468Z</time></trkpt><trkpt lat="43.3088617" lon="11.5232296"><ele>326.8333333333333</ele><time>2026-04-20T15:28:41.468Z</time></trkpt><trkpt lat="43.3089128" lon="11.5231136"><ele>327.0</ele><time>2026-04-20T15:28:42.468Z</time></trkpt><trkpt lat="43.3089972" lon="11.5230029"><ele>324.25</ele><time>2026-04-20T15:28:43.469Z</time></trkpt><trkpt lat="43.3090934" lon="11.522902"><ele>321.5</ele><time>2026-04-20T15:28:44.468Z</time></trkpt><trkpt lat="43.3091925" lon="11.522818"><ele>318.75</ele><time>2026-04-20T15:28:45.468Z</time></trkpt><trkpt lat="43.3093001" lon="11.522743"><ele>316.0</ele><time>2026-04-20T15:28:46.469Z</time></trkpt><trkpt lat="43.3094122" lon="11.5226698"><ele>314.5</ele><time>2026-04-20T15:28:47.468Z</time></trkpt><trkpt lat="43.3095258" lon="11.5225929"><ele>313.0</ele><time>2026-04-20T15:28:48.469Z</time></trkpt><trkpt lat="43.3096293" lon="11.5224993"><ele>311.5</ele><time>2026-04-20T15:28:49.468Z</time></trkpt><trkpt lat="43.3097164" lon="11.52239"><ele>310.0</ele><time>2026-04-20T15:28:50.468Z</time></trkpt><trkpt lat="43.3097864" lon="11.5222625"><ele>309.25</ele><time>2026-04-20T15:28:51.468Z</time></trkpt><trkpt lat="43.3098338" lon="11.5221159"><ele>308.5</ele><time>2026-04-20T15:28:52.468Z</time></trkpt><trkpt lat="43.3098543" lon="11.5219577"><ele>307.75</ele><time>2026-04-20T15:28:53.468Z</time></trkpt><trkpt lat="43.3098473" lon="11.5217933"><ele>307.0</ele><time>2026-04-20T15:28:54.468Z</time></trkpt><trkpt lat="43.3098151" lon="11.5216283"><ele>306.5</ele><time>2026-04-20T15:28:55.468Z</time></trkpt><trkpt lat="43.3097761" lon="11.5214648"><ele>306.0</ele><time>2026-04-20T15:28:56.468Z</time></trkpt><trkpt lat="43.3097302" lon="11.5213025"><ele>305.5</ele><time>2026-04-20T15:28:57.468Z</time></trkpt><trkpt lat="43.309694" lon="11.5211422"><ele>305.0</ele><time>2026-04-20T15:28:58.468Z</time></trkpt><trkpt lat="43.3096787" lon="11.5209758"><ele>302.75</ele><time>2026-04-20T15:28:59.468Z</time></trkpt><trkpt lat="43.3096735" lon="11.5208064"><ele>300.5</ele><time>2026-04-20T15:29:00.469Z</time></trkpt><trkpt lat="43.3096692" lon="11.5206328"><ele>298.25</ele><time>2026-04-20T15:29:01.468Z</time></trkpt><trkpt lat="43.3096616" lon="11.5204674"><ele>296.0</ele><time>2026-04-20T15:29:02.469Z</time></trkpt><trkpt lat="43.3096535" lon="11.5203072"><ele>296.0</ele><time>2026-04-20T15:29:03.469Z</time></trkpt><trkpt lat="43.3096431" lon="11.520151"><ele>296.0</ele><time>2026-04-20T15:29:04.469Z</time></trkpt><trkpt lat="43.309632" lon="11.5199992"><ele>296.0</ele><time>2026-04-20T15:29:05.469Z</time></trkpt><trkpt lat="43.3096308" lon="11.5198591"><ele>296.0</ele><time>2026-04-20T15:29:06.469Z</time></trkpt><trkpt lat="43.3096489" lon="11.5197169"><ele>296.0</ele><time>2026-04-20T15:29:07.469Z</time></trkpt><trkpt lat="43.3096949" lon="11.5195647"><ele>296.0</ele><time>2026-04-20T15:29:08.469Z</time></trkpt><trkpt lat="43.3097605" lon="11.5194091"><ele>296.0</ele><time>2026-04-20T15:29:09.469Z</time></trkpt><trkpt lat="43.3098238" lon="11.5192588"><ele>296.0</ele><time>2026-04-20T15:29:10.469Z</time></trkpt><trkpt lat="43.3098803" lon="11.5191072"><ele>296.0</ele><time>2026-04-20T15:29:11.469Z</time></trkpt><trkpt lat="43.3099241" lon="11.5189538"><ele>296.0</ele><time>2026-04-20T15:29:12.469Z</time></trkpt><trkpt lat="43.3099473" lon="11.5187945"><ele>296.0</ele><time>2026-04-20T15:29:13.47Z</time></trkpt><trkpt lat="43.3099499" lon="11.5186268"><ele>296.0</ele><time>2026-04-20T15:29:14.469Z</time></trkpt><trkpt lat="43.3099302" lon="11.5184567"><ele>296.0</ele><time>2026-04-20T15:29:15.469Z</time></trkpt><trkpt lat="43.3098879" lon="11.5182887"><ele>295.75</ele><time>2026-04-20T15:29:16.47Z</time></trkpt><trkpt lat="43.3098328" lon="11.5181244"><ele>295.5</ele><time>2026-04-20T15:29:17.469Z</time></trkpt><trkpt lat="43.3097692" lon="11.5179646"><ele>295.25</ele><time>2026-04-20T15:29:18.469Z</time></trkpt><trkpt lat="43.309695" lon="11.517812"><ele>295.0</ele><time>2026-04-20T15:29:19.469Z</time></trkpt><trkpt lat="43.3096053" lon="11.5176687"><ele>293.75</ele><time>2026-04-20T15:29:20.469Z</time></trkpt><trkpt lat="43.3095039" lon="11.5175391"><ele>292.5</ele><time>2026-04-20T15:29:21.469Z</time></trkpt><trkpt lat="43.3093996" lon="11.5174188"><ele>291.25</ele><time>2026-04-20T15:29:22.469Z</time></trkpt><trkpt lat="43.3093006" lon="11.5173063"><ele>290.0</ele><time>2026-04-20T15:29:23.47Z</time></trkpt><trkpt lat="43.309214" lon="11.5171888"><ele>290.8</ele><time>2026-04-20T15:29:24.469Z</time></trkpt><trkpt lat="43.3091543" lon="11.517048"><ele>291.6</ele><time>2026-04-20T15:29:25.469Z</time></trkpt><trkpt lat="43.3091271" lon="11.5168948"><ele>292.4</ele><time>2026-04-20T15:29:26.469Z</time></trkpt><trkpt lat="43.309133" lon="11.5167415"><ele>293.2</ele><time>2026-04-20T15:29:27.469Z</time></trkpt><trkpt lat="43.3091701" lon="11.5166078"><ele>294.0</ele><time>2026-04-20T15:29:28.469Z</time></trkpt><trkpt lat="43.3092339" lon="11.5164938"><ele>294.0</ele><time>2026-04-20T15:29:29.469Z</time></trkpt><trkpt lat="43.309331" lon="11.5163931"><ele>294.0</ele><time>2026-04-20T15:29:30.469Z</time></trkpt><trkpt lat="43.3094353" lon="11.5162884"><ele>294.0</ele><time>2026-04-20T15:29:31.469Z</time></trkpt><trkpt lat="43.3095481" lon="11.5161594"><ele>294.0</ele><time>2026-04-20T15:29:32.469Z</time></trkpt><trkpt lat="43.3096663" lon="11.516019"><ele>292.75</ele><time>2026-04-20T15:29:33.469Z</time></trkpt><trkpt lat="43.3097795" lon="11.5158818"><ele>291.5</ele><time>2026-04-20T15:29:34.469Z</time></trkpt><trkpt lat="43.3098912" lon="11.5157479"><ele>290.25</ele><time>2026-04-20T15:29:35.469Z</time></trkpt><trkpt lat="43.3100025" lon="11.5156155"><ele>289.0</ele><time>2026-04-20T15:29:36.469Z</time></trkpt><trkpt lat="43.310123" lon="11.5154918"><ele>286.66666666666663</ele><time>2026-04-20T15:29:37.469Z</time></trkpt><trkpt lat="43.3102557" lon="11.5153907"><ele>284.3333333333333</ele><time>2026-04-20T15:29:38.47Z</time></trkpt><trkpt lat="43.3104031" lon="11.5153176"><ele>282.0</ele><time>2026-04-20T15:29:39.469Z</time></trkpt><trkpt lat="43.3105657" lon="11.5152646"><ele>282.3333333333333</ele><time>2026-04-20T15:29:40.47Z</time></trkpt><trkpt lat="43.3107397" lon="11.5152169"><ele>282.66666666666663</ele><time>2026-04-20T15:29:41.469Z</time></trkpt><trkpt lat="43.3109233" lon="11.5151718"><ele>283.0</ele><time>2026-04-20T15:29:42.469Z</time></trkpt><trkpt lat="43.3111124" lon="11.5151372"><ele>283.0</ele><time>2026-04-20T15:29:43.469Z</time></trkpt><trkpt lat="43.3113023" lon="11.5151212"><ele>283.0</ele><time>2026-04-20T15:29:44.469Z</time></trkpt><trkpt lat="43.311483" lon="11.5151293"><ele>283.0</ele><time>2026-04-20T15:29:45.469Z</time></trkpt><trkpt lat="43.3116462" lon="11.5151428"><ele>285.0</ele><time>2026-04-20T15:29:46.469Z</time></trkpt><trkpt lat="43.3117795" lon="11.5151477"><ele>287.0</ele><time>2026-04-20T15:29:47.47Z</time></trkpt><trkpt lat="43.3118932" lon="11.5151354"><ele>289.0</ele><time>2026-04-20T15:29:48.469Z</time></trkpt><trkpt lat="43.311994" lon="11.5150885"><ele>291.0</ele><time>2026-04-20T15:29:49.469Z</time></trkpt><trkpt lat="43.312083" lon="11.5150009"><ele>291.0</ele><time>2026-04-20T15:29:50.471Z</time></trkpt><trkpt lat="43.3121629" lon="11.5148622"><ele>291.0</ele><time>2026-04-20T15:29:51.47Z</time></trkpt><trkpt lat="43.3122336" lon="11.5146965"><ele>291.0</ele><time>2026-04-20T15:29:52.47Z</time></trkpt><trkpt lat="43.3122983" lon="11.5145257"><ele>291.0</ele><time>2026-04-20T15:29:53.47Z</time></trkpt><trkpt lat="43.3123645" lon="11.5143771"><ele>292.5</ele><time>2026-04-20T15:29:54.47Z</time></trkpt><trkpt lat="43.3124351" lon="11.5142492"><ele>294.0</ele><time>2026-04-20T15:29:55.471Z</time></trkpt><trkpt lat="43.31252" lon="11.5141374"><ele>295.5</ele><time>2026-04-20T15:29:56.47Z</time></trkpt><trkpt lat="43.3126238" lon="11.5140404"><ele>297.0</ele><time>2026-04-20T15:29:57.47Z</time></trkpt><trkpt lat="43.3127449" lon="11.5139539"><ele>297.0</ele><time>2026-04-20T15:29:58.471Z</time></trkpt><trkpt lat="43.3128728" lon="11.5138818"><ele>297.0</ele><time>2026-04-20T15:29:59.47Z</time></trkpt><trkpt lat="43.313001" lon="11.513823"><ele>297.0</ele><time>2026-04-20T15:30:00.47Z</time></trkpt><trkpt lat="43.3131269" lon="11.5137852"><ele>297.0</ele><time>2026-04-20T15:30:01.47Z</time></trkpt><trkpt lat="43.3132526" lon="11.5137917"><ele>297.5</ele><time>2026-04-20T15:30:02.47Z</time></trkpt><trkpt lat="43.3133815" lon="11.5138283"><ele>298.0</ele><time>2026-04-20T15:30:03.47Z</time></trkpt><trkpt lat="43.3135092" lon="11.5138998"><ele>298.5</ele><time>2026-04-20T15:30:04.471Z</time></trkpt><trkpt lat="43.3136263" lon="11.5139876"><ele>299.0</ele><time>2026-04-20T15:30:05.471Z</time></trkpt><trkpt lat="43.3137338" lon="11.5140854"><ele>299.0</ele><time>2026-04-20T15:30:06.47Z</time></trkpt><trkpt lat="43.3138315" lon="11.5141972"><ele>299.0</ele><time>2026-04-20T15:30:07.471Z</time></trkpt><trkpt lat="43.3139237" lon="11.5143189"><ele>299.0</ele><time>2026-04-20T15:30:08.47Z</time></trkpt><trkpt lat="43.3140105" lon="11.5144424"><ele>299.0</ele><time>2026-04-20T15:30:09.47Z</time></trkpt><trkpt lat="43.3140892" lon="11.5145594"><ele>299.0</ele><time>2026-04-20T15:30:10.47Z</time></trkpt><trkpt lat="43.3141667" lon="11.5146561"><ele>299.0</ele><time>2026-04-20T15:30:11.47Z</time></trkpt><trkpt lat="43.31425" lon="11.5147077"><ele>299.0</ele><time>2026-04-20T15:30:12.47Z</time></trkpt><trkpt lat="43.3143427" lon="11.5146997"><ele>299.0</ele><time>2026-04-20T15:30:13.47Z</time></trkpt><trkpt lat="43.314441" lon="11.5146353"><ele>299.0</ele><time>2026-04-20T15:30:14.47Z</time></trkpt><trkpt lat="43.3145314" lon="11.5145293"><ele>299.2</ele><time>2026-04-20T15:30:15.47Z</time></trkpt><trkpt lat="43.3146101" lon="11.5144044"><ele>299.4</ele><time>2026-04-20T15:30:16.47Z</time></trkpt><trkpt lat="43.3146626" lon="11.5142844"><ele>299.6</ele><time>2026-04-20T15:30:17.47Z</time></trkpt><trkpt lat="43.3147074" lon="11.5141589"><ele>299.8</ele><time>2026-04-20T15:30:18.47Z</time></trkpt><trkpt lat="43.3147538" lon="11.5140435"><ele>300.0</ele><time>2026-04-20T15:30:19.471Z</time></trkpt><trkpt lat="43.3148202" lon="11.5139456"><ele>300.8</ele><time>2026-04-20T15:30:20.47Z</time></trkpt><trkpt lat="43.3149154" lon="11.513878"><ele>301.6</ele><time>2026-04-20T15:30:21.47Z</time></trkpt><trkpt lat="43.3150239" lon="11.513852"><ele>302.4</ele><time>2026-04-20T15:30:22.47Z</time></trkpt><trkpt lat="43.3151281" lon="11.5138458"><ele>303.2</ele><time>2026-04-20T15:30:23.47Z</time></trkpt><trkpt lat="43.3152235" lon="11.5138548"><ele>304.0</ele><time>2026-04-20T15:30:24.47Z</time></trkpt><trkpt lat="43.3153161" lon="11.513864"><ele>304.0</ele><time>2026-04-20T15:30:25.47Z</time></trkpt><trkpt lat="43.3154074" lon="11.5138791"><ele>304.0</ele><time>2026-04-20T15:30:26.47Z</time></trkpt><trkpt lat="43.3154936" lon="11.5139162"><ele>304.0</ele><time>2026-04-20T15:30:27.47Z</time></trkpt><trkpt lat="43.3155662" lon="11.5139924"><ele>304.0</ele><time>2026-04-20T15:30:28.47Z</time></trkpt><trkpt lat="43.3156078" lon="11.5141012"><ele>304.0</ele><time>2026-04-20T15:30:29.47Z</time></trkpt><trkpt lat="43.3156216" lon="11.5142487"><ele>302.75</ele><time>2026-04-20T15:30:30.47Z</time></trkpt><trkpt lat="43.3156216" lon="11.5144319"><ele>301.5</ele><time>2026-04-20T15:30:31.471Z</time></trkpt><trkpt lat="43.3156216" lon="11.5146282"><ele>300.25</ele><time>2026-04-20T15:30:32.47Z</time></trkpt><trkpt lat="43.3156444" lon="11.5148257"><ele>299.0</ele><time>2026-04-20T15:30:33.47Z</time></trkpt><trkpt lat="43.3157019" lon="11.515004"><ele>299.0</ele><time>2026-04-20T15:30:34.47Z</time></trkpt><trkpt lat="43.3157862" lon="11.5151554"><ele>299.0</ele><time>2026-04-20T15:30:35.47Z</time></trkpt><trkpt lat="43.3158842" lon="11.5152661"><ele>299.0</ele><time>2026-04-20T15:30:36.471Z</time></trkpt><trkpt lat="43.3159926" lon="11.5153301"><ele>299.0</ele><time>2026-04-20T15:30:37.47Z</time></trkpt><trkpt lat="43.3161158" lon="11.5153482"><ele>299.0</ele><time>2026-04-20T15:30:38.471Z</time></trkpt><trkpt lat="43.3162524" lon="11.5153228"><ele>299.0</ele><time>2026-04-20T15:30:39.471Z</time></trkpt><trkpt lat="43.3164009" lon="11.5152675"><ele>299.0</ele><time>2026-04-20T15:30:40.471Z</time></trkpt><trkpt lat="43.3165536" lon="11.5152079"><ele>299.33333333333337</ele><time>2026-04-20T15:30:41.471Z</time></trkpt><trkpt lat="43.3167121" lon="11.5151391"><ele>299.6666666666667</ele><time>2026-04-20T15:30:42.471Z</time></trkpt><trkpt lat="43.3168712" lon="11.5150586"><ele>300.0</ele><time>2026-04-20T15:30:43.471Z</time></trkpt><trkpt lat="43.3170215" lon="11.5149819"><ele>300.0</ele><time>2026-04-20T15:30:44.471Z</time></trkpt><trkpt lat="43.317159" lon="11.5149173"><ele>300.0</ele><time>2026-04-20T15:30:45.471Z</time></trkpt><trkpt lat="43.3172863" lon="11.5148584"><ele>300.0</ele><time>2026-04-20T15:30:46.471Z</time></trkpt><trkpt lat="43.3173992" lon="11.5147928"><ele>300.0</ele><time>2026-04-20T15:30:47.471Z</time></trkpt><trkpt lat="43.3175006" lon="11.5146967"><ele>300.25</ele><time>2026-04-20T15:30:48.471Z</time></trkpt><trkpt lat="43.3175906" lon="11.5145596"><ele>300.5</ele><time>2026-04-20T15:30:49.471Z</time></trkpt><trkpt lat="43.3176552" lon="11.514382"><ele>300.75</ele><time>2026-04-20T15:30:50.471Z</time></trkpt><trkpt lat="43.3177051" lon="11.5141914"><ele>301.0</ele><time>2026-04-20T15:30:51.471Z</time></trkpt><trkpt lat="43.3177456" lon="11.5139852"><ele>301.0</ele><time>2026-04-20T15:30:52.471Z</time></trkpt><trkpt lat="43.317779" lon="11.5137737"><ele>301.0</ele><time>2026-04-20T15:30:53.471Z</time></trkpt><trkpt lat="43.3178238" lon="11.5135854"><ele>301.0</ele><time>2026-04-20T15:30:54.472Z</time></trkpt><trkpt lat="43.317895" lon="11.5134565"><ele>301.0</ele><time>2026-04-20T15:30:55.471Z</time></trkpt><trkpt lat="43.3179959" lon="11.5133838"><ele>300.25</ele><time>2026-04-20T15:30:56.471Z</time></trkpt><trkpt lat="43.3181206" lon="11.5133303"><ele>299.5</ele><time>2026-04-20T15:30:57.471Z</time></trkpt><trkpt lat="43.3182689" lon="11.5133212"><ele>298.75</ele><time>2026-04-20T15:30:58.471Z</time></trkpt><trkpt lat="43.3184118" lon="11.5133476"><ele>298.0</ele><time>2026-04-20T15:30:59.471Z</time></trkpt><trkpt lat="43.3185409" lon="11.5133986"><ele>298.0</ele><time>2026-04-20T15:31:00.471Z</time></trkpt><trkpt lat="43.3186528" lon="11.5134775"><ele>298.0</ele><time>2026-04-20T15:31:01.471Z</time></trkpt><trkpt lat="43.3187392" lon="11.5135787"><ele>298.0</ele><time>2026-04-20T15:31:02.472Z</time></trkpt><trkpt lat="43.3187909" lon="11.5136966"><ele>298.0</ele><time>2026-04-20T15:31:03.472Z</time></trkpt><trkpt lat="43.3188121" lon="11.5138363"><ele>298.0</ele><time>2026-04-20T15:31:04.471Z</time></trkpt><trkpt lat="43.3187975" lon="11.5139913"><ele>298.5</ele><time>2026-04-20T15:31:05.471Z</time></trkpt><trkpt lat="43.318759" lon="11.5141458"><ele>299.0</ele><time>2026-04-20T15:31:06.471Z</time></trkpt><trkpt lat="43.3187001" lon="11.5142997"><ele>299.5</ele><time>2026-04-20T15:31:07.471Z</time></trkpt><trkpt lat="43.3186162" lon="11.5144402"><ele>300.0</ele><time>2026-04-20T15:31:08.471Z</time></trkpt><trkpt lat="43.3185081" lon="11.5145655"><ele>299.6</ele><time>2026-04-20T15:31:09.471Z</time></trkpt><trkpt lat="43.3183935" lon="11.5146759"><ele>299.2</ele><time>2026-04-20T15:31:10.471Z</time></trkpt><trkpt lat="43.3183131" lon="11.5147668"><ele>298.8</ele><time>2026-04-20T15:31:11.471Z</time></trkpt><trkpt lat="43.3182766" lon="11.514874"><ele>298.4</ele><time>2026-04-20T15:31:12.472Z</time></trkpt><trkpt lat="43.3182693" lon="11.5149861"><ele>298.0</ele><time>2026-04-20T15:31:13.471Z</time></trkpt><trkpt lat="43.3182996" lon="11.5150693"><ele>298.0</ele><time>2026-04-20T15:31:14.472Z</time></trkpt><trkpt lat="43.3183598" lon="11.5151169"><ele>298.0</ele><time>2026-04-20T15:31:15.471Z</time></trkpt><trkpt lat="43.3184866" lon="11.5150488"><ele>298.0</ele><time>2026-04-20T15:31:17.471Z</time></trkpt><trkpt lat="43.3185524" lon="11.5149596"><ele>298.0</ele><time>2026-04-20T15:31:18.471Z</time></trkpt><trkpt lat="43.3186114" lon="11.5148347"><ele>298.0</ele><time>2026-04-20T15:31:19.471Z</time></trkpt><trkpt lat="43.3186822" lon="11.5146858"><ele>298.5</ele><time>2026-04-20T15:31:20.471Z</time></trkpt><trkpt lat="43.3187707" lon="11.5145443"><ele>299.0</ele><time>2026-04-20T15:31:21.471Z</time></trkpt><trkpt lat="43.3188772" lon="11.5144019"><ele>299.5</ele><time>2026-04-20T15:31:22.471Z</time></trkpt><trkpt lat="43.3189571" lon="11.5142571"><ele>300.0</ele><time>2026-04-20T15:31:23.472Z</time></trkpt><trkpt lat="43.3190038" lon="11.5141077"><ele>298.25</ele><time>2026-04-20T15:31:24.471Z</time></trkpt><trkpt lat="43.3190188" lon="11.5139467"><ele>296.5</ele><time>2026-04-20T15:31:25.472Z</time></trkpt><trkpt lat="43.3190111" lon="11.5137709"><ele>294.75</ele><time>2026-04-20T15:31:26.472Z</time></trkpt><trkpt lat="43.318999" lon="11.5135928"><ele>293.0</ele><time>2026-04-20T15:31:27.472Z</time></trkpt><trkpt lat="43.318997" lon="11.513426"><ele>292.25</ele><time>2026-04-20T15:31:28.472Z</time></trkpt><trkpt lat="43.3190121" lon="11.5132686"><ele>291.5</ele><time>2026-04-20T15:31:29.473Z</time></trkpt><trkpt lat="43.3190519" lon="11.5131213"><ele>290.75</ele><time>2026-04-20T15:31:30.472Z</time></trkpt><trkpt lat="43.3191243" lon="11.5129769"><ele>290.0</ele><time>2026-04-20T15:31:31.472Z</time></trkpt><trkpt lat="43.3191932" lon="11.5128272"><ele>287.0</ele><time>2026-04-20T15:31:32.472Z</time></trkpt><trkpt lat="43.3192465" lon="11.5126669"><ele>284.0</ele><time>2026-04-20T15:31:33.473Z</time></trkpt><trkpt lat="43.3192556" lon="11.5122738"><ele>281.0</ele><time>2026-04-20T15:31:35.472Z</time></trkpt><trkpt lat="43.3192384" lon="11.5120528"><ele>279.0</ele><time>2026-04-20T15:31:36.473Z</time></trkpt><trkpt lat="43.3192127" lon="11.5118451"><ele>277.0</ele><time>2026-04-20T15:31:37.472Z</time></trkpt><trkpt lat="43.3191838" lon="11.5116466"><ele>275.0</ele><time>2026-04-20T15:31:38.473Z</time></trkpt><trkpt lat="43.3191534" lon="11.5114558"><ele>273.0</ele><time>2026-04-20T15:31:39.473Z</time></trkpt><trkpt lat="43.3191283" lon="11.5112676"><ele>270.75</ele><time>2026-04-20T15:31:40.472Z</time></trkpt><trkpt lat="43.3191079" lon="11.5110803"><ele>268.5</ele><time>2026-04-20T15:31:41.473Z</time></trkpt><trkpt lat="43.3190984" lon="11.5108985"><ele>266.25</ele><time>2026-04-20T15:31:42.472Z</time></trkpt><trkpt lat="43.3191134" lon="11.5107185"><ele>264.0</ele><time>2026-04-20T15:31:43.472Z</time></trkpt><trkpt lat="43.3191558" lon="11.5105449"><ele>260.6666666666667</ele><time>2026-04-20T15:31:44.472Z</time></trkpt><trkpt lat="43.3192282" lon="11.5103841"><ele>257.33333333333337</ele><time>2026-04-20T15:31:45.473Z</time></trkpt><trkpt lat="43.3193277" lon="11.5102263"><ele>254.0</ele><time>2026-04-20T15:31:46.473Z</time></trkpt><trkpt lat="43.3194463" lon="11.5100683"><ele>254.0</ele><time>2026-04-20T15:31:47.472Z</time></trkpt><trkpt lat="43.3195564" lon="11.5099142"><ele>254.0</ele><time>2026-04-20T15:31:48.472Z</time></trkpt><trkpt lat="43.3196538" lon="11.509757"><ele>254.0</ele><time>2026-04-20T15:31:49.472Z</time></trkpt><trkpt lat="43.3197327" lon="11.5095893"><ele>252.25</ele><time>2026-04-20T15:31:50.472Z</time></trkpt><trkpt lat="43.31979" lon="11.509409"><ele>250.5</ele><time>2026-04-20T15:31:51.472Z</time></trkpt><trkpt lat="43.3198285" lon="11.5092233"><ele>248.75</ele><time>2026-04-20T15:31:52.472Z</time></trkpt><trkpt lat="43.3198547" lon="11.50903"><ele>247.0</ele><time>2026-04-20T15:31:53.473Z</time></trkpt><trkpt lat="43.31987" lon="11.5088244"><ele>247.0</ele><time>2026-04-20T15:31:54.472Z</time></trkpt><trkpt lat="43.3198724" lon="11.5086033"><ele>247.0</ele><time>2026-04-20T15:31:55.472Z</time></trkpt><trkpt lat="43.3198633" lon="11.5083763"><ele>247.0</ele><time>2026-04-20T15:31:56.472Z</time></trkpt><trkpt lat="43.3198428" lon="11.5081391"><ele>246.33333333333331</ele><time>2026-04-20T15:31:57.473Z</time></trkpt><trkpt lat="43.3198115" lon="11.5078913"><ele>245.66666666666669</ele><time>2026-04-20T15:31:58.472Z</time></trkpt><trkpt lat="43.3197778" lon="11.5076379"><ele>245.0</ele><time>2026-04-20T15:31:59.472Z</time></trkpt><trkpt lat="43.3197497" lon="11.5073831"><ele>249.66666666666669</ele><time>2026-04-20T15:32:00.473Z</time></trkpt><trkpt lat="43.319725" lon="11.5071305"><ele>254.33333333333331</ele><time>2026-04-20T15:32:01.472Z</time></trkpt><trkpt lat="43.3197026" lon="11.5068878"><ele>259.0</ele><time>2026-04-20T15:32:02.472Z</time></trkpt><trkpt lat="43.3196818" lon="11.5066691"><ele>259.0</ele><time>2026-04-20T15:32:03.472Z</time></trkpt><trkpt lat="43.3196677" lon="11.5064895"><ele>259.0</ele><time>2026-04-20T15:32:04.472Z</time></trkpt><trkpt lat="43.3196668" lon="11.5063439"><ele>259.0</ele><time>2026-04-20T15:32:05.472Z</time></trkpt><trkpt lat="43.3196958" lon="11.5062285"><ele>259.0</ele><time>2026-04-20T15:32:06.472Z</time></trkpt><trkpt lat="43.3197533" lon="11.5061284"><ele>259.0</ele><time>2026-04-20T15:32:07.472Z</time></trkpt><trkpt lat="43.3198431" lon="11.5060533"><ele>255.25</ele><time>2026-04-20T15:32:08.472Z</time></trkpt><trkpt lat="43.3199509" lon="11.5060019"><ele>251.5</ele><time>2026-04-20T15:32:09.473Z</time></trkpt><trkpt lat="43.3200777" lon="11.5059661"><ele>247.75</ele><time>2026-04-20T15:32:10.472Z</time></trkpt><trkpt lat="43.320209" lon="11.5059303"><ele>244.0</ele><time>2026-04-20T15:32:11.472Z</time></trkpt><trkpt lat="43.3203454" lon="11.5058879"><ele>244.0</ele><time>2026-04-20T15:32:12.472Z</time></trkpt><trkpt lat="43.3204869" lon="11.5058355"><ele>244.0</ele><time>2026-04-20T15:32:13.473Z</time></trkpt><trkpt lat="43.3206249" lon="11.5057801"><ele>244.0</ele><time>2026-04-20T15:32:14.473Z</time></trkpt><trkpt lat="43.3207572" lon="11.5057288"><ele>244.0</ele><time>2026-04-20T15:32:15.473Z</time></trkpt><trkpt lat="43.320891" lon="11.5056835"><ele>244.75</ele><time>2026-04-20T15:32:16.473Z</time></trkpt><trkpt lat="43.3210289" lon="11.5056596"><ele>245.5</ele><time>2026-04-20T15:32:17.473Z</time></trkpt><trkpt lat="43.3211701" lon="11.5056705"><ele>246.25</ele><time>2026-04-20T15:32:18.473Z</time></trkpt><trkpt lat="43.321307" lon="11.505717"><ele>247.0</ele><time>2026-04-20T15:32:19.473Z</time></trkpt><trkpt lat="43.3214397" lon="11.5057964"><ele>250.0</ele><time>2026-04-20T15:32:20.473Z</time></trkpt><trkpt lat="43.3215578" lon="11.5059213"><ele>253.0</ele><time>2026-04-20T15:32:21.473Z</time></trkpt><trkpt lat="43.3216648" lon="11.50607"><ele>256.0</ele><time>2026-04-20T15:32:22.473Z</time></trkpt><trkpt lat="43.3217638" lon="11.5062291"><ele>255.66666666666666</ele><time>2026-04-20T15:32:23.473Z</time></trkpt><trkpt lat="43.3218583" lon="11.5063959"><ele>255.33333333333331</ele><time>2026-04-20T15:32:24.474Z</time></trkpt><trkpt lat="43.3219544" lon="11.5065578"><ele>255.0</ele><time>2026-04-20T15:32:25.473Z</time></trkpt><trkpt lat="43.3220557" lon="11.5067192"><ele>255.0</ele><time>2026-04-20T15:32:26.473Z</time></trkpt><trkpt lat="43.3221597" lon="11.5068777"><ele>255.0</ele><time>2026-04-20T15:32:27.473Z</time></trkpt><trkpt lat="43.3222657" lon="11.5070417"><ele>255.0</ele><time>2026-04-20T15:32:28.473Z</time></trkpt><trkpt lat="43.3223648" lon="11.5071953"><ele>258.5</ele><time>2026-04-20T15:32:29.474Z</time></trkpt><trkpt lat="43.3224668" lon="11.5073488"><ele>262.0</ele><time>2026-04-20T15:32:30.473Z</time></trkpt><trkpt lat="43.3225612" lon="11.5074829"><ele>265.5</ele><time>2026-04-20T15:32:31.473Z</time></trkpt><trkpt lat="43.3226511" lon="11.5075875"><ele>269.0</ele><time>2026-04-20T15:32:32.473Z</time></trkpt><trkpt lat="43.3227548" lon="11.5076602"><ele>269.0</ele><time>2026-04-20T15:32:33.473Z</time></trkpt><trkpt lat="43.3228872" lon="11.5077064"><ele>269.0</ele><time>2026-04-20T15:32:34.473Z</time></trkpt><trkpt lat="43.323041" lon="11.5077161"><ele>269.0</ele><time>2026-04-20T15:32:35.473Z</time></trkpt><trkpt lat="43.3232011" lon="11.5077038"><ele>271.0</ele><time>2026-04-20T15:32:36.473Z</time></trkpt><trkpt lat="43.3233606" lon="11.5076876"><ele>273.0</ele><time>2026-04-20T15:32:37.473Z</time></trkpt><trkpt lat="43.3235286" lon="11.507679"><ele>275.0</ele><time>2026-04-20T15:32:38.473Z</time></trkpt><trkpt lat="43.3236961" lon="11.5076957"><ele>275.0</ele><time>2026-04-20T15:32:39.473Z</time></trkpt><trkpt lat="43.3238532" lon="11.5077489"><ele>275.0</ele><time>2026-04-20T15:32:40.473Z</time></trkpt><trkpt lat="43.323984" lon="11.5078417"><ele>275.0</ele><time>2026-04-20T15:32:41.474Z</time></trkpt><trkpt lat="43.3240871" lon="11.5079694"><ele>275.0</ele><time>2026-04-20T15:32:42.473Z</time></trkpt><trkpt lat="43.3241784" lon="11.5081395"><ele>278.0</ele><time>2026-04-20T15:32:43.473Z</time></trkpt><trkpt lat="43.3242581" lon="11.5083488"><ele>281.0</ele><time>2026-04-20T15:32:44.473Z</time></trkpt><trkpt lat="43.3243372" lon="11.5085598"><ele>284.0</ele><time>2026-04-20T15:32:45.473Z</time></trkpt><trkpt lat="43.3244097" lon="11.5087789"><ele>286.6666666666667</ele><time>2026-04-20T15:32:46.473Z</time></trkpt><trkpt lat="43.3244763" lon="11.5089812"><ele>289.3333333333333</ele><time>2026-04-20T15:32:47.474Z</time></trkpt><trkpt lat="43.3245426" lon="11.5091668"><ele>292.0</ele><time>2026-04-20T15:32:48.473Z</time></trkpt><trkpt lat="43.3246126" lon="11.5093356"><ele>292.0</ele><time>2026-04-20T15:32:49.474Z</time></trkpt><trkpt lat="43.3246945" lon="11.5094524"><ele>292.0</ele><time>2026-04-20T15:32:50.473Z</time></trkpt><trkpt lat="43.3247983" lon="11.5095328"><ele>292.0</ele><time>2026-04-20T15:32:51.473Z</time></trkpt><trkpt lat="43.3249166" lon="11.5095764"><ele>292.0</ele><time>2026-04-20T15:32:52.473Z</time></trkpt><trkpt lat="43.325039" lon="11.509578"><ele>291.5</ele><time>2026-04-20T15:32:53.473Z</time></trkpt><trkpt lat="43.3251714" lon="11.5095455"><ele>291.0</ele><time>2026-04-20T15:32:54.473Z</time></trkpt><trkpt lat="43.325317" lon="11.5094889"><ele>290.5</ele><time>2026-04-20T15:32:55.473Z</time></trkpt><trkpt lat="43.3254661" lon="11.5094138"><ele>290.0</ele><time>2026-04-20T15:32:56.473Z</time></trkpt><trkpt lat="43.3256214" lon="11.5093344"><ele>290.0</ele><time>2026-04-20T15:32:57.473Z</time></trkpt><trkpt lat="43.325782" lon="11.5092545"><ele>290.0</ele><time>2026-04-20T15:32:58.473Z</time></trkpt><trkpt lat="43.3259477" lon="11.5091783"><ele>290.0</ele><time>2026-04-20T15:32:59.474Z</time></trkpt><trkpt lat="43.3261186" lon="11.5091004"><ele>290.0</ele><time>2026-04-20T15:33:00.474Z</time></trkpt><trkpt lat="43.3262921" lon="11.5090202"><ele>290.0</ele><time>2026-04-20T15:33:01.474Z</time></trkpt><trkpt lat="43.3264668" lon="11.5089341"><ele>290.0</ele><time>2026-04-20T15:33:02.474Z</time></trkpt><trkpt lat="43.3266399" lon="11.5088409"><ele>291.6666666666667</ele><time>2026-04-20T15:33:03.474Z</time></trkpt><trkpt lat="43.3268118" lon="11.5087396"><ele>293.3333333333333</ele><time>2026-04-20T15:33:04.474Z</time></trkpt><trkpt lat="43.3269822" lon="11.5086348"><ele>295.0</ele><time>2026-04-20T15:33:05.474Z</time></trkpt><trkpt lat="43.3271532" lon="11.5085266"><ele>296.3333333333333</ele><time>2026-04-20T15:33:06.475Z</time></trkpt><trkpt lat="43.327323" lon="11.5084168"><ele>297.6666666666667</ele><time>2026-04-20T15:33:07.475Z</time></trkpt><trkpt lat="43.3274905" lon="11.5083089"><ele>299.0</ele><time>2026-04-20T15:33:08.474Z</time></trkpt><trkpt lat="43.3276527" lon="11.5081976"><ele>299.0</ele><time>2026-04-20T15:33:09.474Z</time></trkpt><trkpt lat="43.3278151" lon="11.5080856"><ele>299.0</ele><time>2026-04-20T15:33:10.474Z</time></trkpt><trkpt lat="43.3279785" lon="11.5079817"><ele>299.0</ele><time>2026-04-20T15:33:11.474Z</time></trkpt><trkpt lat="43.3281388" lon="11.5078787"><ele>300.33333333333337</ele><time>2026-04-20T15:33:12.474Z</time></trkpt><trkpt lat="43.3283006" lon="11.5077701"><ele>301.6666666666667</ele><time>2026-04-20T15:33:13.474Z</time></trkpt><trkpt lat="43.3284623" lon="11.5076617"><ele>303.0</ele><time>2026-04-20T15:33:14.474Z</time></trkpt><trkpt lat="43.3286213" lon="11.5075643"><ele>303.0</ele><time>2026-04-20T15:33:15.474Z</time></trkpt><trkpt lat="43.3287809" lon="11.5074656"><ele>303.0</ele><time>2026-04-20T15:33:16.474Z</time></trkpt><trkpt lat="43.3289404" lon="11.5073702"><ele>303.0</ele><time>2026-04-20T15:33:17.474Z</time></trkpt><trkpt lat="43.3291063" lon="11.507282"><ele>304.3333333333333</ele><time>2026-04-20T15:33:18.474Z</time></trkpt><trkpt lat="43.3292825" lon="11.5072046"><ele>305.66666666666663</ele><time>2026-04-20T15:33:19.474Z</time></trkpt><trkpt lat="43.3294638" lon="11.5071489"><ele>307.0</ele><time>2026-04-20T15:33:20.475Z</time></trkpt><trkpt lat="43.3296503" lon="11.5071122"><ele>307.0</ele><time>2026-04-20T15:33:21.474Z</time></trkpt><trkpt lat="43.3298345" lon="11.5070806"><ele>307.0</ele><time>2026-04-20T15:33:22.474Z</time></trkpt><trkpt lat="43.3300191" lon="11.5070524"><ele>307.0</ele><time>2026-04-20T15:33:23.475Z</time></trkpt><trkpt lat="43.3302025" lon="11.5070242"><ele>307.0</ele><time>2026-04-20T15:33:24.474Z</time></trkpt><trkpt lat="43.3303843" lon="11.5069914"><ele>307.0</ele><time>2026-04-20T15:33:25.474Z</time></trkpt><trkpt lat="43.3305644" lon="11.506959"><ele>307.0</ele><time>2026-04-20T15:33:26.474Z</time></trkpt><trkpt lat="43.3307441" lon="11.5069285"><ele>308.3333333333333</ele><time>2026-04-20T15:33:27.475Z</time></trkpt><trkpt lat="43.330925" lon="11.506894"><ele>309.6666666666667</ele><time>2026-04-20T15:33:28.474Z</time></trkpt><trkpt lat="43.3311022" lon="11.5068588"><ele>311.0</ele><time>2026-04-20T15:33:29.474Z</time></trkpt><trkpt lat="43.3312784" lon="11.5068025"><ele>312.0</ele><time>2026-04-20T15:33:30.474Z</time></trkpt><trkpt lat="43.3314518" lon="11.506719"><ele>313.0</ele><time>2026-04-20T15:33:31.475Z</time></trkpt><trkpt lat="43.3316242" lon="11.5066095"><ele>314.0</ele><time>2026-04-20T15:33:32.474Z</time></trkpt><trkpt lat="43.331796" lon="11.5064952"><ele>314.0</ele><time>2026-04-20T15:33:33.474Z</time></trkpt><trkpt lat="43.3319686" lon="11.5063749"><ele>314.0</ele><time>2026-04-20T15:33:34.475Z</time></trkpt><trkpt lat="43.3321412" lon="11.5062565"><ele>314.0</ele><time>2026-04-20T15:33:35.474Z</time></trkpt><trkpt lat="43.3323119" lon="11.5061382"><ele>314.6666666666667</ele><time>2026-04-20T15:33:36.474Z</time></trkpt><trkpt lat="43.3324797" lon="11.5060252"><ele>315.3333333333333</ele><time>2026-04-20T15:33:37.475Z</time></trkpt><trkpt lat="43.3326537" lon="11.5059393"><ele>316.0</ele><time>2026-04-20T15:33:38.474Z</time></trkpt><trkpt lat="43.3328308" lon="11.5058754"><ele>316.0</ele><time>2026-04-20T15:33:39.474Z</time></trkpt><trkpt lat="43.3330117" lon="11.5058318"><ele>316.0</ele><time>2026-04-20T15:33:40.475Z</time></trkpt><trkpt lat="43.3331971" lon="11.5057948"><ele>316.0</ele><time>2026-04-20T15:33:41.474Z</time></trkpt><trkpt lat="43.3333812" lon="11.505755"><ele>316.0</ele><time>2026-04-20T15:33:42.474Z</time></trkpt><trkpt lat="43.3335665" lon="11.5057112"><ele>316.0</ele><time>2026-04-20T15:33:43.474Z</time></trkpt><trkpt lat="43.3337517" lon="11.5056691"><ele>316.0</ele><time>2026-04-20T15:33:44.474Z</time></trkpt><trkpt lat="43.3339371" lon="11.5056287"><ele>315.66666666666663</ele><time>2026-04-20T15:33:45.474Z</time></trkpt><trkpt lat="43.3341218" lon="11.5055936"><ele>315.3333333333333</ele><time>2026-04-20T15:33:46.474Z</time></trkpt><trkpt lat="43.3343087" lon="11.505564"><ele>315.0</ele><time>2026-04-20T15:33:47.474Z</time></trkpt><trkpt lat="43.3344944" lon="11.5055284"><ele>315.0</ele><time>2026-04-20T15:33:48.474Z</time></trkpt><trkpt lat="43.3346794" lon="11.5054924"><ele>315.0</ele><time>2026-04-20T15:33:49.475Z</time></trkpt><trkpt lat="43.3348626" lon="11.5054479"><ele>315.0</ele><time>2026-04-20T15:33:50.475Z</time></trkpt><trkpt lat="43.3350468" lon="11.5054091"><ele>316.0</ele><time>2026-04-20T15:33:51.475Z</time></trkpt><trkpt lat="43.3352324" lon="11.5053697"><ele>317.0</ele><time>2026-04-20T15:33:52.475Z</time></trkpt><trkpt lat="43.3354226" lon="11.5053362"><ele>318.0</ele><time>2026-04-20T15:33:53.475Z</time></trkpt><trkpt lat="43.3356139" lon="11.5053007"><ele>318.0</ele><time>2026-04-20T15:33:54.475Z</time></trkpt><trkpt lat="43.3358046" lon="11.5052676"><ele>318.0</ele><time>2026-04-20T15:33:55.475Z</time></trkpt><trkpt lat="43.3359901" lon="11.5052301"><ele>318.0</ele><time>2026-04-20T15:33:56.475Z</time></trkpt><trkpt lat="43.3361742" lon="11.5051912"><ele>318.0</ele><time>2026-04-20T15:33:57.475Z</time></trkpt><trkpt lat="43.3363591" lon="11.5051527"><ele>318.0</ele><time>2026-04-20T15:33:58.475Z</time></trkpt><trkpt lat="43.3365374" lon="11.5051152"><ele>318.0</ele><time>2026-04-20T15:33:59.476Z</time></trkpt><trkpt lat="43.33671" lon="11.5050926"><ele>320.0</ele><time>2026-04-20T15:34:00.475Z</time></trkpt><trkpt lat="43.3368805" lon="11.5050868"><ele>322.0</ele><time>2026-04-20T15:34:01.476Z</time></trkpt><trkpt lat="43.337058" lon="11.5051106"><ele>324.0</ele><time>2026-04-20T15:34:02.476Z</time></trkpt><trkpt lat="43.3372406" lon="11.5051622"><ele>324.3333333333333</ele><time>2026-04-20T15:34:03.476Z</time></trkpt><trkpt lat="43.3374214" lon="11.5052416"><ele>324.66666666666663</ele><time>2026-04-20T15:34:04.475Z</time></trkpt><trkpt lat="43.3376011" lon="11.5053535"><ele>325.0</ele><time>2026-04-20T15:34:05.475Z</time></trkpt><trkpt lat="43.337777" lon="11.5054795"><ele>326.3333333333333</ele><time>2026-04-20T15:34:06.475Z</time></trkpt><trkpt lat="43.3379524" lon="11.5056"><ele>327.6666666666667</ele><time>2026-04-20T15:34:07.475Z</time></trkpt><trkpt lat="43.3381269" lon="11.505713"><ele>329.0</ele><time>2026-04-20T15:34:08.476Z</time></trkpt><trkpt lat="43.3383021" lon="11.5058124"><ele>330.0</ele><time>2026-04-20T15:34:09.475Z</time></trkpt><trkpt lat="43.338484" lon="11.5058855"><ele>331.0</ele><time>2026-04-20T15:34:10.475Z</time></trkpt><trkpt lat="43.3386746" lon="11.5059224"><ele>332.0</ele><time>2026-04-20T15:34:11.475Z</time></trkpt><trkpt lat="43.3388715" lon="11.5059199"><ele>333.6666666666667</ele><time>2026-04-20T15:34:12.475Z</time></trkpt><trkpt lat="43.3390647" lon="11.5058897"><ele>335.3333333333333</ele><time>2026-04-20T15:34:13.475Z</time></trkpt><trkpt lat="43.3392441" lon="11.505842"><ele>337.0</ele><time>2026-04-20T15:34:14.475Z</time></trkpt><trkpt lat="43.3394033" lon="11.5057791"><ele>337.0</ele><time>2026-04-20T15:34:15.475Z</time></trkpt><trkpt lat="43.3395462" lon="11.5057104"><ele>337.0</ele><time>2026-04-20T15:34:16.476Z</time></trkpt><trkpt lat="43.3396816" lon="11.5056487"><ele>337.0</ele><time>2026-04-20T15:34:17.475Z</time></trkpt><trkpt lat="43.3398141" lon="11.5056044"><ele>337.0</ele><time>2026-04-20T15:34:18.475Z</time></trkpt><trkpt lat="43.3399375" lon="11.5055617"><ele>336.8</ele><time>2026-04-20T15:34:19.475Z</time></trkpt><trkpt lat="43.3400525" lon="11.5055203"><ele>336.6</ele><time>2026-04-20T15:34:20.475Z</time></trkpt><trkpt lat="43.3401636" lon="11.5054802"><ele>336.40000000000003</ele><time>2026-04-20T15:34:21.475Z</time></trkpt><trkpt lat="43.3402698" lon="11.5054398"><ele>336.20000000000005</ele><time>2026-04-20T15:34:22.475Z</time></trkpt><trkpt lat="43.3403704" lon="11.5054029"><ele>336.0</ele><time>2026-04-20T15:34:23.476Z</time></trkpt><trkpt lat="43.340466" lon="11.5053773"><ele>335.8333333333333</ele><time>2026-04-20T15:34:24.475Z</time></trkpt><trkpt lat="43.3405555" lon="11.5053655"><ele>335.6666666666667</ele><time>2026-04-20T15:34:25.475Z</time></trkpt><trkpt lat="43.3406352" lon="11.5053844"><ele>335.5</ele><time>2026-04-20T15:34:26.476Z</time></trkpt><trkpt lat="43.3407115" lon="11.5054216"><ele>335.33333333333337</ele><time>2026-04-20T15:34:27.476Z</time></trkpt><trkpt lat="43.3407849" lon="11.5054157"><ele>335.1666666666667</ele><time>2026-04-20T15:34:28.475Z</time></trkpt><trkpt lat="43.3408513" lon="11.5053556"><ele>335.0</ele><time>2026-04-20T15:34:29.475Z</time></trkpt><trkpt lat="43.3409236" lon="11.5052718"><ele>335.0</ele><time>2026-04-20T15:34:30.475Z</time></trkpt><trkpt lat="43.3410165" lon="11.505208"><ele>335.0</ele><time>2026-04-20T15:34:31.475Z</time></trkpt><trkpt lat="43.3411256" lon="11.5051621"><ele>335.0</ele><time>2026-04-20T15:34:32.475Z</time></trkpt><trkpt lat="43.3412429" lon="11.505121"><ele>335.0</ele><time>2026-04-20T15:34:33.475Z</time></trkpt><trkpt lat="43.3413524" lon="11.5050813"><ele>335.0</ele><time>2026-04-20T15:34:34.475Z</time></trkpt><trkpt lat="43.3414576" lon="11.5050551"><ele>335.0</ele><time>2026-04-20T15:34:35.476Z</time></trkpt><trkpt lat="43.3415537" lon="11.5050381"><ele>335.0</ele><time>2026-04-20T15:34:36.477Z</time></trkpt><trkpt lat="43.3416432" lon="11.5050305"><ele>335.0</ele><time>2026-04-20T15:34:37.476Z</time></trkpt><trkpt lat="43.3417368" lon="11.5050117"><ele>335.0</ele><time>2026-04-20T15:34:38.476Z</time></trkpt><trkpt lat="43.3418418" lon="11.5049957"><ele>335.0</ele><time>2026-04-20T15:34:39.476Z</time></trkpt><trkpt lat="43.3419499" lon="11.5049608"><ele>335.0</ele><time>2026-04-20T15:34:40.476Z</time></trkpt><trkpt lat="43.3420565" lon="11.5049301"><ele>335.0</ele><time>2026-04-20T15:34:41.477Z</time></trkpt><trkpt lat="43.3421656" lon="11.504906"><ele>335.0</ele><time>2026-04-20T15:34:42.476Z</time></trkpt><trkpt lat="43.3422758" lon="11.5048814"><ele>335.0</ele><time>2026-04-20T15:34:43.476Z</time></trkpt><trkpt lat="43.3423839" lon="11.5048567"><ele>335.6</ele><time>2026-04-20T15:34:44.476Z</time></trkpt><trkpt lat="43.3424811" lon="11.5048363"><ele>336.2</ele><time>2026-04-20T15:34:45.476Z</time></trkpt><trkpt lat="43.3425725" lon="11.5048306"><ele>336.79999999999995</ele><time>2026-04-20T15:34:46.476Z</time></trkpt><trkpt lat="43.3426661" lon="11.5048142"><ele>337.4</ele><time>2026-04-20T15:34:47.477Z</time></trkpt><trkpt lat="43.3427577" lon="11.5047954"><ele>338.0</ele><time>2026-04-20T15:34:48.476Z</time></trkpt><trkpt lat="43.3428434" lon="11.5047752"><ele>338.0</ele><time>2026-04-20T15:34:49.476Z</time></trkpt><trkpt lat="43.3429235" lon="11.5047594"><ele>338.0</ele><time>2026-04-20T15:34:50.476Z</time></trkpt><trkpt lat="43.3429989" lon="11.5047452"><ele>338.0</ele><time>2026-04-20T15:34:51.476Z</time></trkpt><trkpt lat="43.3430726" lon="11.5047344"><ele>338.0</ele><time>2026-04-20T15:34:52.476Z</time></trkpt><trkpt lat="43.3431507" lon="11.5047171"><ele>338.0</ele><time>2026-04-20T15:34:53.477Z</time></trkpt><trkpt lat="43.3432333" lon="11.5047005"><ele>338.0</ele><time>2026-04-20T15:34:54.476Z</time></trkpt><trkpt lat="43.34332" lon="11.5046817"><ele>338.0</ele><time>2026-04-20T15:34:55.476Z</time></trkpt><trkpt lat="43.3434105" lon="11.5046659"><ele>338.0</ele><time>2026-04-20T15:34:56.476Z</time></trkpt><trkpt lat="43.3435016" lon="11.5046491"><ele>338.0</ele><time>2026-04-20T15:34:57.476Z</time></trkpt><trkpt lat="43.3435941" lon="11.5046321"><ele>338.0</ele><time>2026-04-20T15:34:58.476Z</time></trkpt><trkpt lat="43.343687" lon="11.5046191"><ele>338.0</ele><time>2026-04-20T15:34:59.476Z</time></trkpt><trkpt lat="43.3437832" lon="11.5046028"><ele>338.0</ele><time>2026-04-20T15:35:00.476Z</time></trkpt><trkpt lat="43.3438838" lon="11.5045848"><ele>338.0</ele><time>2026-04-20T15:35:01.477Z</time></trkpt><trkpt lat="43.3439844" lon="11.504562"><ele>338.0</ele><time>2026-04-20T15:35:02.476Z</time></trkpt><trkpt lat="43.3440842" lon="11.5045388"><ele>338.0</ele><time>2026-04-20T15:35:03.476Z</time></trkpt><trkpt lat="43.3441787" lon="11.504518"><ele>338.0</ele><time>2026-04-20T15:35:04.476Z</time></trkpt><trkpt lat="43.3442664" lon="11.5045013"><ele>337.59999999999997</ele><time>2026-04-20T15:35:05.476Z</time></trkpt><trkpt lat="43.3443513" lon="11.5044863"><ele>337.2</ele><time>2026-04-20T15:35:06.476Z</time></trkpt><trkpt lat="43.3444282" lon="11.5044735"><ele>336.8</ele><time>2026-04-20T15:35:07.477Z</time></trkpt><trkpt lat="43.3445204" lon="11.5044622"><ele>336.4</ele><time>2026-04-20T15:35:09.476Z</time></trkpt><trkpt lat="43.3446036" lon="11.5044597"><ele>336.0</ele><time>2026-04-20T15:35:18.476Z</time></trkpt><trkpt lat="43.3447321" lon="11.5043953"><ele>337.1666666666667</ele><time>2026-04-20T15:35:20.476Z</time></trkpt><trkpt lat="43.3447972" lon="11.5042946"><ele>338.3333333333333</ele><time>2026-04-20T15:35:21.476Z</time></trkpt><trkpt lat="43.3448387" lon="11.5041672"><ele>339.5</ele><time>2026-04-20T15:35:22.476Z</time></trkpt><trkpt lat="43.3448798" lon="11.5040519"><ele>340.66666666666663</ele><time>2026-04-20T15:35:23.477Z</time></trkpt><trkpt lat="43.34492" lon="11.5039563"><ele>341.8333333333333</ele><time>2026-04-20T15:35:24.477Z</time></trkpt><trkpt lat="43.3449568" lon="11.5038739"><ele>343.0</ele><time>2026-04-20T15:35:25.476Z</time></trkpt><trkpt lat="43.3449913" lon="11.5037854"><ele>343.0</ele><time>2026-04-20T15:35:26.477Z</time></trkpt><trkpt lat="43.3450189" lon="11.5036821"><ele>343.0</ele><time>2026-04-20T15:35:27.477Z</time></trkpt><trkpt lat="43.3450265" lon="11.5035814"><ele>343.0</ele><time>2026-04-20T15:35:28.477Z</time></trkpt><trkpt lat="43.345018" lon="11.5034755"><ele>343.0</ele><time>2026-04-20T15:35:29.478Z</time></trkpt><trkpt lat="43.3449813" lon="11.5033779"><ele>343.0</ele><time>2026-04-20T15:35:30.477Z</time></trkpt><trkpt lat="43.3449414" lon="11.5032891"><ele>343.0</ele><time>2026-04-20T15:35:31.478Z</time></trkpt><trkpt lat="43.344903" lon="11.5032099"><ele>343.0</ele><time>2026-04-20T15:35:32.478Z</time></trkpt><trkpt lat="43.3448759" lon="11.5031198"><ele>343.0</ele><time>2026-04-20T15:35:33.477Z</time></trkpt><trkpt lat="43.3448663" lon="11.5030137"><ele>343.0</ele><time>2026-04-20T15:35:34.477Z</time></trkpt><trkpt lat="43.3448716" lon="11.5028917"><ele>343.0</ele><time>2026-04-20T15:35:35.478Z</time></trkpt><trkpt lat="43.3448839" lon="11.5027718"><ele>343.0</ele><time>2026-04-20T15:35:36.477Z</time></trkpt><trkpt lat="43.3449062" lon="11.5026551"><ele>343.0</ele><time>2026-04-20T15:35:37.477Z</time></trkpt><trkpt lat="43.3449417" lon="11.50254"><ele>343.2</ele><time>2026-04-20T15:35:38.478Z</time></trkpt><trkpt lat="43.3449826" lon="11.5024235"><ele>343.4</ele><time>2026-04-20T15:35:39.477Z</time></trkpt><trkpt lat="43.3450271" lon="11.5023105"><ele>343.59999999999997</ele><time>2026-04-20T15:35:40.477Z</time></trkpt><trkpt lat="43.345071" lon="11.5021973"><ele>343.79999999999995</ele><time>2026-04-20T15:35:41.477Z</time></trkpt><trkpt lat="43.3451134" lon="11.5020899"><ele>344.0</ele><time>2026-04-20T15:35:42.477Z</time></trkpt><trkpt lat="43.3451537" lon="11.5019826"><ele>342.4</ele><time>2026-04-20T15:35:43.477Z</time></trkpt><trkpt lat="43.3451848" lon="11.5018794"><ele>340.79999999999995</ele><time>2026-04-20T15:35:44.477Z</time></trkpt><trkpt lat="43.345211" lon="11.5017883"><ele>339.20000000000005</ele><time>2026-04-20T15:35:45.477Z</time></trkpt><trkpt lat="43.3452073" lon="11.5015738"><ele>337.6</ele><time>2026-04-20T15:35:48.477Z</time></trkpt><trkpt lat="43.3451737" lon="11.5014348"><ele>336.0</ele><time>2026-04-20T15:35:50.477Z</time></trkpt><trkpt lat="43.3451491" lon="11.5013495"><ele>336.0</ele><time>2026-04-20T15:35:51.477Z</time></trkpt><trkpt lat="43.3451139" lon="11.5012543"><ele>336.0</ele><time>2026-04-20T15:35:52.477Z</time></trkpt><trkpt lat="43.3450704" lon="11.5011546"><ele>336.0</ele><time>2026-04-20T15:35:53.478Z</time></trkpt><trkpt lat="43.3450215" lon="11.5010454"><ele>336.0</ele><time>2026-04-20T15:35:54.477Z</time></trkpt><trkpt lat="43.3449713" lon="11.5009374"><ele>336.0</ele><time>2026-04-20T15:35:55.477Z</time></trkpt><trkpt lat="43.3449305" lon="11.5008442"><ele>336.0</ele><time>2026-04-20T15:35:56.477Z</time></trkpt><trkpt lat="43.3449256" lon="11.5007575"><ele>335.8</ele><time>2026-04-20T15:35:57.477Z</time></trkpt><trkpt lat="43.3449798" lon="11.5006393"><ele>335.6</ele><time>2026-04-20T15:35:59.477Z</time></trkpt><trkpt lat="43.3450319" lon="11.5005739"><ele>335.4</ele><time>2026-04-20T15:36:02.478Z</time></trkpt><trkpt lat="43.3450277" lon="11.5004497"><ele>335.2</ele><time>2026-04-20T15:36:05.477Z</time></trkpt><trkpt lat="43.3449678" lon="11.5002935"><ele>335.0</ele><time>2026-04-20T15:36:07.477Z</time></trkpt><trkpt lat="43.3449278" lon="11.5001917"><ele>335.0</ele><time>2026-04-20T15:36:08.477Z</time></trkpt><trkpt lat="43.3448866" lon="11.5000594"><ele>335.0</ele><time>2026-04-20T15:36:09.477Z</time></trkpt><trkpt lat="43.3448358" lon="11.4999176"><ele>335.0</ele><time>2026-04-20T15:36:10.477Z</time></trkpt><trkpt lat="43.3447796" lon="11.4997732"><ele>335.0</ele><time>2026-04-20T15:36:11.477Z</time></trkpt><trkpt lat="43.3447262" lon="11.4996328"><ele>335.2</ele><time>2026-04-20T15:36:12.477Z</time></trkpt><trkpt lat="43.3446749" lon="11.4994933"><ele>335.4</ele><time>2026-04-20T15:36:13.479Z</time></trkpt><trkpt lat="43.3446254" lon="11.4993549"><ele>335.6</ele><time>2026-04-20T15:36:14.478Z</time></trkpt><trkpt lat="43.344576" lon="11.4992195"><ele>335.8</ele><time>2026-04-20T15:36:15.478Z</time></trkpt><trkpt lat="43.3445299" lon="11.4990914"><ele>336.0</ele><time>2026-04-20T15:36:16.478Z</time></trkpt><trkpt lat="43.3444861" lon="11.4989637"><ele>336.0</ele><time>2026-04-20T15:36:17.479Z</time></trkpt><trkpt lat="43.3444428" lon="11.4988351"><ele>336.0</ele><time>2026-04-20T15:36:18.478Z</time></trkpt><trkpt lat="43.3443977" lon="11.4987031"><ele>336.0</ele><time>2026-04-20T15:36:19.479Z</time></trkpt><trkpt lat="43.3443509" lon="11.498569"><ele>336.0</ele><time>2026-04-20T15:36:20.478Z</time></trkpt><trkpt lat="43.3443037" lon="11.4984303"><ele>336.0</ele><time>2026-04-20T15:36:21.478Z</time></trkpt><trkpt lat="43.3442545" lon="11.4982877"><ele>336.25</ele><time>2026-04-20T15:36:22.478Z</time></trkpt><trkpt lat="43.3442031" lon="11.4981428"><ele>336.5</ele><time>2026-04-20T15:36:23.478Z</time></trkpt><trkpt lat="43.3441513" lon="11.4979997"><ele>336.75</ele><time>2026-04-20T15:36:24.478Z</time></trkpt><trkpt lat="43.3441003" lon="11.4978598"><ele>337.0</ele><time>2026-04-20T15:36:25.478Z</time></trkpt><trkpt lat="43.34405" lon="11.497724"><ele>337.0</ele><time>2026-04-20T15:36:26.478Z</time></trkpt><trkpt lat="43.3439995" lon="11.4975925"><ele>337.0</ele><time>2026-04-20T15:36:27.479Z</time></trkpt><trkpt lat="43.3439506" lon="11.4974696"><ele>337.0</ele><time>2026-04-20T15:36:28.478Z</time></trkpt><trkpt lat="43.343905" lon="11.4973577"><ele>337.0</ele><time>2026-04-20T15:36:29.478Z</time></trkpt><trkpt lat="43.3438644" lon="11.4972545"><ele>337.0</ele><time>2026-04-20T15:36:30.478Z</time></trkpt><trkpt lat="43.3438238" lon="11.4971613"><ele>336.40000000000003</ele><time>2026-04-20T15:36:31.479Z</time></trkpt><trkpt lat="43.3437762" lon="11.4970685"><ele>335.8</ele><time>2026-04-20T15:36:32.478Z</time></trkpt><trkpt lat="43.343716" lon="11.496975"><ele>335.2</ele><time>2026-04-20T15:36:33.478Z</time></trkpt><trkpt lat="43.3436488" lon="11.4968833"><ele>334.6</ele><time>2026-04-20T15:36:34.478Z</time></trkpt><trkpt lat="43.3435788" lon="11.4967874"><ele>334.0</ele><time>2026-04-20T15:36:35.478Z</time></trkpt><trkpt lat="43.3435049" lon="11.4966899"><ele>334.0</ele><time>2026-04-20T15:36:36.478Z</time></trkpt><trkpt lat="43.3434301" lon="11.4965916"><ele>334.0</ele><time>2026-04-20T15:36:37.478Z</time></trkpt><trkpt lat="43.3433601" lon="11.4965007"><ele>334.0</ele><time>2026-04-20T15:36:38.478Z</time></trkpt><trkpt lat="43.34329" lon="11.4964107"><ele>334.0</ele><time>2026-04-20T15:36:39.479Z</time></trkpt><trkpt lat="43.3432206" lon="11.496334"><ele>334.0</ele><time>2026-04-20T15:36:40.478Z</time></trkpt><trkpt lat="43.3431628" lon="11.4962634"><ele>333.4</ele><time>2026-04-20T15:36:41.479Z</time></trkpt><trkpt lat="43.3431013" lon="11.4961715"><ele>332.79999999999995</ele><time>2026-04-20T15:36:43.478Z</time></trkpt><trkpt lat="43.3430585" lon="11.4960956"><ele>332.20000000000005</ele><time>2026-04-20T15:37:19.48Z</time></trkpt><trkpt lat="43.3429841" lon="11.496028"><ele>331.6</ele><time>2026-04-20T15:37:20.479Z</time></trkpt><trkpt lat="43.3428945" lon="11.4959473"><ele>331.0</ele><time>2026-04-20T15:37:21.479Z</time></trkpt><trkpt lat="43.3428166" lon="11.4958543"><ele>331.0</ele><time>2026-04-20T15:37:22.479Z</time></trkpt><trkpt lat="43.3427255" lon="11.4957321"><ele>331.0</ele><time>2026-04-20T15:37:23.479Z</time></trkpt><trkpt lat="43.3426256" lon="11.4956054"><ele>331.0</ele><time>2026-04-20T15:37:24.479Z</time></trkpt><trkpt lat="43.3425187" lon="11.4954776"><ele>331.0</ele><time>2026-04-20T15:37:25.479Z</time></trkpt><trkpt lat="43.3424119" lon="11.4953573"><ele>329.0</ele><time>2026-04-20T15:37:26.48Z</time></trkpt><trkpt lat="43.3423098" lon="11.4952467"><ele>327.0</ele><time>2026-04-20T15:37:27.479Z</time></trkpt><trkpt lat="43.3422105" lon="11.4951433"><ele>325.0</ele><time>2026-04-20T15:37:28.48Z</time></trkpt><trkpt lat="43.3421214" lon="11.4950405"><ele>323.0</ele><time>2026-04-20T15:37:29.48Z</time></trkpt><trkpt lat="43.3420351" lon="11.4949363"><ele>321.25</ele><time>2026-04-20T15:37:30.479Z</time></trkpt><trkpt lat="43.3419486" lon="11.4948363"><ele>319.5</ele><time>2026-04-20T15:37:31.479Z</time></trkpt><trkpt lat="43.3418598" lon="11.4947314"><ele>317.75</ele><time>2026-04-20T15:37:32.479Z</time></trkpt><trkpt lat="43.3417643" lon="11.4946175"><ele>316.0</ele><time>2026-04-20T15:37:33.479Z</time></trkpt><trkpt lat="43.341663" lon="11.4944948"><ele>315.25</ele><time>2026-04-20T15:37:34.479Z</time></trkpt><trkpt lat="43.3415661" lon="11.4943799"><ele>314.5</ele><time>2026-04-20T15:37:35.48Z</time></trkpt><trkpt lat="43.3414746" lon="11.4942698"><ele>313.75</ele><time>2026-04-20T15:37:36.479Z</time></trkpt><trkpt lat="43.3413765" lon="11.4941484"><ele>313.0</ele><time>2026-04-20T15:37:37.479Z</time></trkpt><trkpt lat="43.3412624" lon="11.4940112"><ele>312.0</ele><time>2026-04-20T15:37:38.479Z</time></trkpt><trkpt lat="43.3411384" lon="11.4938647"><ele>311.0</ele><time>2026-04-20T15:37:39.48Z</time></trkpt><trkpt lat="43.3410114" lon="11.4937133"><ele>310.0</ele><time>2026-04-20T15:37:40.479Z</time></trkpt><trkpt lat="43.3408784" lon="11.4935583"><ele>310.0</ele><time>2026-04-20T15:37:41.479Z</time></trkpt><trkpt lat="43.3407413" lon="11.4934001"><ele>310.0</ele><time>2026-04-20T15:37:42.479Z</time></trkpt><trkpt lat="43.340602" lon="11.4932386"><ele>310.0</ele><time>2026-04-20T15:37:43.479Z</time></trkpt><trkpt lat="43.3404621" lon="11.4930695"><ele>310.3333333333333</ele><time>2026-04-20T15:37:44.479Z</time></trkpt><trkpt lat="43.340321" lon="11.4928896"><ele>310.6666666666667</ele><time>2026-04-20T15:37:45.479Z</time></trkpt><trkpt lat="43.3401827" lon="11.4927084"><ele>311.0</ele><time>2026-04-20T15:37:46.479Z</time></trkpt><trkpt lat="43.3400528" lon="11.4925277"><ele>311.0</ele><time>2026-04-20T15:37:47.479Z</time></trkpt><trkpt lat="43.3399259" lon="11.4923445"><ele>311.0</ele><time>2026-04-20T15:37:48.479Z</time></trkpt><trkpt lat="43.339802" lon="11.4921569"><ele>311.0</ele><time>2026-04-20T15:37:49.479Z</time></trkpt><trkpt lat="43.3396759" lon="11.4919633"><ele>309.6666666666667</ele><time>2026-04-20T15:37:50.479Z</time></trkpt><trkpt lat="43.3395493" lon="11.4917618"><ele>308.3333333333333</ele><time>2026-04-20T15:37:51.48Z</time></trkpt><trkpt lat="43.3394214" lon="11.4915605"><ele>307.0</ele><time>2026-04-20T15:37:52.48Z</time></trkpt><trkpt lat="43.3392938" lon="11.4913607"><ele>306.66666666666663</ele><time>2026-04-20T15:37:53.481Z</time></trkpt><trkpt lat="43.3391604" lon="11.4911622"><ele>306.3333333333333</ele><time>2026-04-20T15:37:54.481Z</time></trkpt><trkpt lat="43.3390194" lon="11.4909688"><ele>306.0</ele><time>2026-04-20T15:37:55.48Z</time></trkpt><trkpt lat="43.3388639" lon="11.4907921"><ele>305.0</ele><time>2026-04-20T15:37:56.48Z</time></trkpt><trkpt lat="43.338705" lon="11.4906357"><ele>304.0</ele><time>2026-04-20T15:37:57.48Z</time></trkpt><trkpt lat="43.3385511" lon="11.4904786"><ele>303.0</ele><time>2026-04-20T15:37:58.481Z</time></trkpt><trkpt lat="43.3383947" lon="11.4903205"><ele>303.0</ele><time>2026-04-20T15:37:59.48Z</time></trkpt><trkpt lat="43.3382398" lon="11.4901611"><ele>303.0</ele><time>2026-04-20T15:38:00.48Z</time></trkpt><trkpt lat="43.3380887" lon="11.4900025"><ele>303.0</ele><time>2026-04-20T15:38:01.48Z</time></trkpt><trkpt lat="43.3379367" lon="11.4898437"><ele>301.3333333333333</ele><time>2026-04-20T15:38:02.48Z</time></trkpt><trkpt lat="43.3377865" lon="11.4896823"><ele>299.66666666666663</ele><time>2026-04-20T15:38:03.48Z</time></trkpt><trkpt lat="43.3376331" lon="11.4895216"><ele>298.0</ele><time>2026-04-20T15:38:04.481Z</time></trkpt><trkpt lat="43.3374753" lon="11.4893611"><ele>297.66666666666663</ele><time>2026-04-20T15:38:05.48Z</time></trkpt><trkpt lat="43.3373217" lon="11.4892029"><ele>297.3333333333333</ele><time>2026-04-20T15:38:06.481Z</time></trkpt><trkpt lat="43.3371629" lon="11.4890484"><ele>297.0</ele><time>2026-04-20T15:38:07.48Z</time></trkpt><trkpt lat="43.3369979" lon="11.4889123"><ele>297.6666666666667</ele><time>2026-04-20T15:38:08.48Z</time></trkpt><trkpt lat="43.3368322" lon="11.4888064"><ele>298.33333333333337</ele><time>2026-04-20T15:38:09.48Z</time></trkpt><trkpt lat="43.3366741" lon="11.4887148"><ele>299.0</ele><time>2026-04-20T15:38:10.481Z</time></trkpt><trkpt lat="43.3365259" lon="11.4886158"><ele>299.0</ele><time>2026-04-20T15:38:11.48Z</time></trkpt><trkpt lat="43.3363854" lon="11.4884757"><ele>299.0</ele><time>2026-04-20T15:38:12.48Z</time></trkpt><trkpt lat="43.3362736" lon="11.4882894"><ele>299.0</ele><time>2026-04-20T15:38:13.48Z</time></trkpt><trkpt lat="43.3361708" lon="11.488084"><ele>296.33333333333337</ele><time>2026-04-20T15:38:14.48Z</time></trkpt><trkpt lat="43.3360364" lon="11.4878949"><ele>293.6666666666667</ele><time>2026-04-20T15:38:15.48Z</time></trkpt><trkpt lat="43.3358964" lon="11.4877371"><ele>291.0</ele><time>2026-04-20T15:38:16.481Z</time></trkpt><trkpt lat="43.3357578" lon="11.4875898"><ele>291.0</ele><time>2026-04-20T15:38:17.481Z</time></trkpt><trkpt lat="43.3356286" lon="11.4874313"><ele>291.0</ele><time>2026-04-20T15:38:18.48Z</time></trkpt><trkpt lat="43.3355146" lon="11.487234"><ele>291.0</ele><time>2026-04-20T15:38:19.48Z</time></trkpt><trkpt lat="43.3354115" lon="11.4870037"><ele>292.0</ele><time>2026-04-20T15:38:20.48Z</time></trkpt><trkpt lat="43.3353189" lon="11.4867559"><ele>293.0</ele><time>2026-04-20T15:38:21.48Z</time></trkpt><trkpt lat="43.3352278" lon="11.4865132"><ele>294.0</ele><time>2026-04-20T15:38:22.48Z</time></trkpt><trkpt lat="43.335139" lon="11.4862907"><ele>291.0</ele><time>2026-04-20T15:38:23.48Z</time></trkpt><trkpt lat="43.3350511" lon="11.4860581"><ele>288.0</ele><time>2026-04-20T15:38:24.48Z</time></trkpt><trkpt lat="43.334969" lon="11.4858087"><ele>285.0</ele><time>2026-04-20T15:38:25.48Z</time></trkpt><trkpt lat="43.3349055" lon="11.485537"><ele>283.0</ele><time>2026-04-20T15:38:26.48Z</time></trkpt><trkpt lat="43.3348654" lon="11.4852457"><ele>281.0</ele><time>2026-04-20T15:38:27.48Z</time></trkpt><trkpt lat="43.3348325" lon="11.4849425"><ele>279.0</ele><time>2026-04-20T15:38:28.481Z</time></trkpt><trkpt lat="43.334798" lon="11.4846386"><ele>277.6666666666667</ele><time>2026-04-20T15:38:29.48Z</time></trkpt><trkpt lat="43.3347636" lon="11.484345"><ele>276.33333333333337</ele><time>2026-04-20T15:38:30.48Z</time></trkpt><trkpt lat="43.3347353" lon="11.4840772"><ele>275.0</ele><time>2026-04-20T15:38:31.48Z</time></trkpt><trkpt lat="43.3347149" lon="11.4838174"><ele>278.0</ele><time>2026-04-20T15:38:32.48Z</time></trkpt><trkpt lat="43.3346955" lon="11.483549"><ele>281.0</ele><time>2026-04-20T15:38:33.48Z</time></trkpt><trkpt lat="43.3346784" lon="11.4832816"><ele>284.0</ele><time>2026-04-20T15:38:34.48Z</time></trkpt><trkpt lat="43.3346508" lon="11.4830365"><ele>283.0</ele><time>2026-04-20T15:38:35.481Z</time></trkpt><trkpt lat="43.3346229" lon="11.4827987"><ele>282.0</ele><time>2026-04-20T15:38:36.48Z</time></trkpt><trkpt lat="43.3345936" lon="11.4825901"><ele>281.0</ele><time>2026-04-20T15:38:37.48Z</time></trkpt><trkpt lat="43.3345681" lon="11.4823994"><ele>281.0</ele><time>2026-04-20T15:38:38.48Z</time></trkpt><trkpt lat="43.3345625" lon="11.4822132"><ele>281.0</ele><time>2026-04-20T15:38:39.481Z</time></trkpt><trkpt lat="43.3345865" lon="11.4820365"><ele>281.0</ele><time>2026-04-20T15:38:40.482Z</time></trkpt><trkpt lat="43.3346419" lon="11.4818573"><ele>281.0</ele><time>2026-04-20T15:38:41.481Z</time></trkpt><trkpt lat="43.3347255" lon="11.4816879"><ele>280.33333333333337</ele><time>2026-04-20T15:38:42.481Z</time></trkpt><trkpt lat="43.3348289" lon="11.4815172"><ele>279.6666666666667</ele><time>2026-04-20T15:38:43.481Z</time></trkpt><trkpt lat="43.3349363" lon="11.4813411"><ele>279.0</ele><time>2026-04-20T15:38:44.481Z</time></trkpt><trkpt lat="43.3350367" lon="11.4811759"><ele>279.0</ele><time>2026-04-20T15:38:45.481Z</time></trkpt><trkpt lat="43.3351293" lon="11.4810157"><ele>279.0</ele><time>2026-04-20T15:38:46.481Z</time></trkpt><trkpt lat="43.3352174" lon="11.480875"><ele>279.0</ele><time>2026-04-20T15:38:47.481Z</time></trkpt><trkpt lat="43.3352912" lon="11.4807499"><ele>279.0</ele><time>2026-04-20T15:38:48.482Z</time></trkpt><trkpt lat="43.3353545" lon="11.4806445"><ele>279.0</ele><time>2026-04-20T15:38:49.481Z</time></trkpt><trkpt lat="43.3353987" lon="11.4805442"><ele>279.0</ele><time>2026-04-20T15:38:50.482Z</time></trkpt><trkpt lat="43.3354221" lon="11.4804054"><ele>279.0</ele><time>2026-04-20T15:38:51.481Z</time></trkpt><trkpt lat="43.3354474" lon="11.4802298"><ele>279.0</ele><time>2026-04-20T15:38:52.481Z</time></trkpt><trkpt lat="43.3354747" lon="11.4800636"><ele>279.0</ele><time>2026-04-20T15:38:53.481Z</time></trkpt><trkpt lat="43.3355057" lon="11.4798913"><ele>278.75</ele><time>2026-04-20T15:38:54.481Z</time></trkpt><trkpt lat="43.3355507" lon="11.4797314"><ele>278.5</ele><time>2026-04-20T15:38:55.481Z</time></trkpt><trkpt lat="43.3356086" lon="11.4795697"><ele>278.25</ele><time>2026-04-20T15:38:56.482Z</time></trkpt><trkpt lat="43.3356679" lon="11.4794071"><ele>278.0</ele><time>2026-04-20T15:38:57.481Z</time></trkpt><trkpt lat="43.335731" lon="11.4792364"><ele>278.0</ele><time>2026-04-20T15:38:58.481Z</time></trkpt><trkpt lat="43.3357933" lon="11.4790413"><ele>278.0</ele><time>2026-04-20T15:38:59.482Z</time></trkpt><trkpt lat="43.3358577" lon="11.4788475"><ele>278.0</ele><time>2026-04-20T15:39:00.481Z</time></trkpt><trkpt lat="43.3359096" lon="11.4786525"><ele>277.0</ele><time>2026-04-20T15:39:01.481Z</time></trkpt><trkpt lat="43.335958" lon="11.4784751"><ele>276.0</ele><time>2026-04-20T15:39:02.481Z</time></trkpt><trkpt lat="43.3360014" lon="11.4783031"><ele>275.0</ele><time>2026-04-20T15:39:03.481Z</time></trkpt><trkpt lat="43.3360303" lon="11.4781348"><ele>274.0</ele><time>2026-04-20T15:39:04.481Z</time></trkpt><trkpt lat="43.336034" lon="11.4779627"><ele>274.0</ele><time>2026-04-20T15:39:05.482Z</time></trkpt><trkpt lat="43.336006" lon="11.4777854"><ele>274.0</ele><time>2026-04-20T15:39:06.481Z</time></trkpt><trkpt lat="43.3359628" lon="11.4776051"><ele>274.0</ele><time>2026-04-20T15:39:07.481Z</time></trkpt><trkpt lat="43.3359098" lon="11.4774239"><ele>274.0</ele><time>2026-04-20T15:39:08.481Z</time></trkpt><trkpt lat="43.3358559" lon="11.4772438"><ele>275.0</ele><time>2026-04-20T15:39:09.481Z</time></trkpt><trkpt lat="43.3357981" lon="11.477063"><ele>276.0</ele><time>2026-04-20T15:39:10.482Z</time></trkpt><trkpt lat="43.3357305" lon="11.4768687"><ele>277.0</ele><time>2026-04-20T15:39:11.481Z</time></trkpt><trkpt lat="43.3356623" lon="11.4766695"><ele>277.0</ele><time>2026-04-20T15:39:12.481Z</time></trkpt><trkpt lat="43.3355941" lon="11.4764866"><ele>277.0</ele><time>2026-04-20T15:39:13.481Z</time></trkpt><trkpt lat="43.3355273" lon="11.4763274"><ele>277.0</ele><time>2026-04-20T15:39:14.481Z</time></trkpt><trkpt lat="43.3354573" lon="11.4761643"><ele>277.0</ele><time>2026-04-20T15:39:15.482Z</time></trkpt><trkpt lat="43.3353738" lon="11.4759812"><ele>276.3333333333333</ele><time>2026-04-20T15:39:16.481Z</time></trkpt><trkpt lat="43.3352929" lon="11.4757899"><ele>275.6666666666667</ele><time>2026-04-20T15:39:17.481Z</time></trkpt><trkpt lat="43.3352142" lon="11.4755963"><ele>275.0</ele><time>2026-04-20T15:39:18.482Z</time></trkpt><trkpt lat="43.3351375" lon="11.4754008"><ele>274.33333333333337</ele><time>2026-04-20T15:39:19.482Z</time></trkpt><trkpt lat="43.3350674" lon="11.4752061"><ele>273.6666666666667</ele><time>2026-04-20T15:39:20.482Z</time></trkpt><trkpt lat="43.335006" lon="11.4750076"><ele>273.0</ele><time>2026-04-20T15:39:21.481Z</time></trkpt><trkpt lat="43.3349595" lon="11.4748026"><ele>272.6666666666667</ele><time>2026-04-20T15:39:22.482Z</time></trkpt><trkpt lat="43.3349297" lon="11.4745885"><ele>272.33333333333337</ele><time>2026-04-20T15:39:23.481Z</time></trkpt><trkpt lat="43.3349106" lon="11.474366"><ele>272.0</ele><time>2026-04-20T15:39:24.481Z</time></trkpt><trkpt lat="43.3348906" lon="11.4741431"><ele>272.0</ele><time>2026-04-20T15:39:25.481Z</time></trkpt><trkpt lat="43.3348714" lon="11.4739148"><ele>272.0</ele><time>2026-04-20T15:39:26.481Z</time></trkpt><trkpt lat="43.334852" lon="11.4736863"><ele>272.0</ele><time>2026-04-20T15:39:27.481Z</time></trkpt><trkpt lat="43.3348353" lon="11.4734684"><ele>271.75</ele><time>2026-04-20T15:39:28.483Z</time></trkpt><trkpt lat="43.3348218" lon="11.473273"><ele>271.5</ele><time>2026-04-20T15:39:29.482Z</time></trkpt><trkpt lat="43.3348166" lon="11.4730904"><ele>271.25</ele><time>2026-04-20T15:39:30.482Z</time></trkpt><trkpt lat="43.3348329" lon="11.4728961"><ele>271.0</ele><time>2026-04-20T15:39:31.483Z</time></trkpt><trkpt lat="43.3348837" lon="11.4726818"><ele>271.0</ele><time>2026-04-20T15:39:32.482Z</time></trkpt><trkpt lat="43.3349421" lon="11.4724842"><ele>271.0</ele><time>2026-04-20T15:39:33.482Z</time></trkpt><trkpt lat="43.334997" lon="11.4723"><ele>271.0</ele><time>2026-04-20T15:39:34.482Z</time></trkpt><trkpt lat="43.3350588" lon="11.4721118"><ele>269.66666666666663</ele><time>2026-04-20T15:39:35.482Z</time></trkpt><trkpt lat="43.3351236" lon="11.4719268"><ele>268.3333333333333</ele><time>2026-04-20T15:39:36.482Z</time></trkpt><trkpt lat="43.3351931" lon="11.4717418"><ele>267.0</ele><time>2026-04-20T15:39:37.483Z</time></trkpt><trkpt lat="43.3352682" lon="11.4715517"><ele>267.0</ele><time>2026-04-20T15:39:38.482Z</time></trkpt><trkpt lat="43.3353504" lon="11.4713636"><ele>267.0</ele><time>2026-04-20T15:39:39.482Z</time></trkpt><trkpt lat="43.3354354" lon="11.4711826"><ele>267.0</ele><time>2026-04-20T15:39:40.482Z</time></trkpt><trkpt lat="43.3355215" lon="11.4710004"><ele>265.3333333333333</ele><time>2026-04-20T15:39:41.482Z</time></trkpt><trkpt lat="43.3356052" lon="11.470806"><ele>263.66666666666663</ele><time>2026-04-20T15:39:42.482Z</time></trkpt><trkpt lat="43.3356794" lon="11.4706188"><ele>262.0</ele><time>2026-04-20T15:39:43.483Z</time></trkpt><trkpt lat="43.3357393" lon="11.4704357"><ele>261.0</ele><time>2026-04-20T15:39:44.482Z</time></trkpt><trkpt lat="43.3357776" lon="11.4702573"><ele>260.0</ele><time>2026-04-20T15:39:45.482Z</time></trkpt><trkpt lat="43.3357885" lon="11.4700882"><ele>259.0</ele><time>2026-04-20T15:39:46.482Z</time></trkpt><trkpt lat="43.3357739" lon="11.4699156"><ele>258.0</ele><time>2026-04-20T15:39:47.483Z</time></trkpt><trkpt lat="43.3357406" lon="11.4697425"><ele>258.0</ele><time>2026-04-20T15:39:48.483Z</time></trkpt><trkpt lat="43.3357011" lon="11.4695613"><ele>258.0</ele><time>2026-04-20T15:39:49.483Z</time></trkpt><trkpt lat="43.3356505" lon="11.4693799"><ele>258.0</ele><time>2026-04-20T15:39:50.482Z</time></trkpt><trkpt lat="43.3355884" lon="11.4692118"><ele>258.0</ele><time>2026-04-20T15:39:51.482Z</time></trkpt><trkpt lat="43.3355219" lon="11.4690546"><ele>257.5</ele><time>2026-04-20T15:39:52.482Z</time></trkpt><trkpt lat="43.3354475" lon="11.4689051"><ele>257.0</ele><time>2026-04-20T15:39:53.483Z</time></trkpt><trkpt lat="43.3353539" lon="11.4687601"><ele>256.5</ele><time>2026-04-20T15:39:54.483Z</time></trkpt><trkpt lat="43.3352496" lon="11.468623"><ele>256.0</ele><time>2026-04-20T15:39:55.482Z</time></trkpt><trkpt lat="43.3351506" lon="11.4684993"><ele>256.0</ele><time>2026-04-20T15:39:56.482Z</time></trkpt><trkpt lat="43.3350639" lon="11.4683738"><ele>256.0</ele><time>2026-04-20T15:39:57.482Z</time></trkpt><trkpt lat="43.3349852" lon="11.4682427"><ele>256.0</ele><time>2026-04-20T15:39:58.482Z</time></trkpt><trkpt lat="43.3349147" lon="11.4681007"><ele>256.0</ele><time>2026-04-20T15:39:59.483Z</time></trkpt><trkpt lat="43.3348591" lon="11.4679574"><ele>256.2</ele><time>2026-04-20T15:40:00.483Z</time></trkpt><trkpt lat="43.3348146" lon="11.4678193"><ele>256.40000000000003</ele><time>2026-04-20T15:40:01.482Z</time></trkpt><trkpt lat="43.3347822" lon="11.4676862"><ele>256.6</ele><time>2026-04-20T15:40:02.482Z</time></trkpt><trkpt lat="43.3347604" lon="11.4675466"><ele>256.8</ele><time>2026-04-20T15:40:03.483Z</time></trkpt><trkpt lat="43.3347478" lon="11.4674055"><ele>257.0</ele><time>2026-04-20T15:40:04.482Z</time></trkpt><trkpt lat="43.3347361" lon="11.4672668"><ele>257.0</ele><time>2026-04-20T15:40:05.482Z</time></trkpt><trkpt lat="43.3347246" lon="11.4671319"><ele>257.0</ele><time>2026-04-20T15:40:06.482Z</time></trkpt><trkpt lat="43.3347112" lon="11.4669893"><ele>257.0</ele><time>2026-04-20T15:40:07.482Z</time></trkpt><trkpt lat="43.3346987" lon="11.4668429"><ele>257.0</ele><time>2026-04-20T15:40:08.482Z</time></trkpt><trkpt lat="43.3346909" lon="11.4666988"><ele>257.0</ele><time>2026-04-20T15:40:09.482Z</time></trkpt><trkpt lat="43.3346932" lon="11.4665564"><ele>254.75</ele><time>2026-04-20T15:40:10.482Z</time></trkpt><trkpt lat="43.3347046" lon="11.4664143"><ele>252.5</ele><time>2026-04-20T15:40:11.483Z</time></trkpt><trkpt lat="43.3347249" lon="11.4662698"><ele>250.25</ele><time>2026-04-20T15:40:12.482Z</time></trkpt><trkpt lat="43.3347574" lon="11.4661188"><ele>248.0</ele><time>2026-04-20T15:40:13.482Z</time></trkpt><trkpt lat="43.3348027" lon="11.4659558"><ele>247.5</ele><time>2026-04-20T15:40:14.483Z</time></trkpt><trkpt lat="43.3348559" lon="11.4657881"><ele>247.0</ele><time>2026-04-20T15:40:15.483Z</time></trkpt><trkpt lat="43.3349099" lon="11.4656137"><ele>246.5</ele><time>2026-04-20T15:40:16.483Z</time></trkpt><trkpt lat="43.3349569" lon="11.4654401"><ele>246.0</ele><time>2026-04-20T15:40:17.484Z</time></trkpt><trkpt lat="43.3349992" lon="11.4652685"><ele>245.75</ele><time>2026-04-20T15:40:18.483Z</time></trkpt><trkpt lat="43.3350403" lon="11.465101"><ele>245.5</ele><time>2026-04-20T15:40:19.484Z</time></trkpt><trkpt lat="43.3350837" lon="11.4649287"><ele>245.25</ele><time>2026-04-20T15:40:20.484Z</time></trkpt><trkpt lat="43.3351294" lon="11.4647518"><ele>245.0</ele><time>2026-04-20T15:40:21.483Z</time></trkpt><trkpt lat="43.3351762" lon="11.4645704"><ele>243.75</ele><time>2026-04-20T15:40:22.483Z</time></trkpt><trkpt lat="43.3352223" lon="11.4643886"><ele>242.5</ele><time>2026-04-20T15:40:23.483Z</time></trkpt><trkpt lat="43.3352688" lon="11.464208"><ele>241.25</ele><time>2026-04-20T15:40:24.483Z</time></trkpt><trkpt lat="43.3353198" lon="11.4640232"><ele>240.0</ele><time>2026-04-20T15:40:25.484Z</time></trkpt><trkpt lat="43.3353756" lon="11.4638276"><ele>240.33333333333331</ele><time>2026-04-20T15:40:26.483Z</time></trkpt><trkpt lat="43.3354381" lon="11.4636214"><ele>240.66666666666666</ele><time>2026-04-20T15:40:27.483Z</time></trkpt><trkpt lat="43.3355122" lon="11.463406"><ele>241.0</ele><time>2026-04-20T15:40:28.483Z</time></trkpt><trkpt lat="43.3355986" lon="11.4631933"><ele>239.33333333333331</ele><time>2026-04-20T15:40:29.483Z</time></trkpt><trkpt lat="43.335689" lon="11.4629889"><ele>237.66666666666669</ele><time>2026-04-20T15:40:30.483Z</time></trkpt><trkpt lat="43.3357723" lon="11.4627932"><ele>236.0</ele><time>2026-04-20T15:40:31.483Z</time></trkpt><trkpt lat="43.3358381" lon="11.4625938"><ele>238.75</ele><time>2026-04-20T15:40:32.484Z</time></trkpt><trkpt lat="43.3358854" lon="11.4623925"><ele>241.5</ele><time>2026-04-20T15:40:33.483Z</time></trkpt><trkpt lat="43.3359087" lon="11.4622141"><ele>244.25</ele><time>2026-04-20T15:40:34.484Z</time></trkpt><trkpt lat="43.3359233" lon="11.4620416"><ele>247.0</ele><time>2026-04-20T15:40:35.483Z</time></trkpt><trkpt lat="43.3359391" lon="11.46185"><ele>247.66666666666666</ele><time>2026-04-20T15:40:36.483Z</time></trkpt><trkpt lat="43.3359525" lon="11.4616229"><ele>248.33333333333331</ele><time>2026-04-20T15:40:37.483Z</time></trkpt><trkpt lat="43.3359556" lon="11.4613898"><ele>249.0</ele><time>2026-04-20T15:40:38.483Z</time></trkpt><trkpt lat="43.3359613" lon="11.4611674"><ele>247.66666666666669</ele><time>2026-04-20T15:40:39.484Z</time></trkpt><trkpt lat="43.3359723" lon="11.4609558"><ele>246.33333333333334</ele><time>2026-04-20T15:40:40.483Z</time></trkpt><trkpt lat="43.3359832" lon="11.4607438"><ele>245.0</ele><time>2026-04-20T15:40:41.484Z</time></trkpt><trkpt lat="43.336002" lon="11.4605319"><ele>244.0</ele><time>2026-04-20T15:40:42.483Z</time></trkpt><trkpt lat="43.3360291" lon="11.460316"><ele>243.0</ele><time>2026-04-20T15:40:43.484Z</time></trkpt><trkpt lat="43.3360605" lon="11.4601008"><ele>242.0</ele><time>2026-04-20T15:40:44.483Z</time></trkpt><trkpt lat="43.3360814" lon="11.4598958"><ele>242.0</ele><time>2026-04-20T15:40:45.483Z</time></trkpt><trkpt lat="43.3360903" lon="11.4596942"><ele>242.0</ele><time>2026-04-20T15:40:46.484Z</time></trkpt><trkpt lat="43.3360883" lon="11.4594979"><ele>242.0</ele><time>2026-04-20T15:40:47.483Z</time></trkpt><trkpt lat="43.3360732" lon="11.4593142"><ele>242.0</ele><time>2026-04-20T15:40:48.483Z</time></trkpt><trkpt lat="43.3360385" lon="11.4591463"><ele>242.0</ele><time>2026-04-20T15:40:49.483Z</time></trkpt><trkpt lat="43.336" lon="11.4589832"><ele>242.0</ele><time>2026-04-20T15:40:50.484Z</time></trkpt><trkpt lat="43.3359811" lon="11.4588282"><ele>242.0</ele><time>2026-04-20T15:40:51.484Z</time></trkpt><trkpt lat="43.3360003" lon="11.458667"><ele>242.0</ele><time>2026-04-20T15:40:52.483Z</time></trkpt><trkpt lat="43.3360601" lon="11.4584987"><ele>242.0</ele><time>2026-04-20T15:40:53.483Z</time></trkpt><trkpt lat="43.3361506" lon="11.4583235"><ele>242.0</ele><time>2026-04-20T15:40:54.483Z</time></trkpt><trkpt lat="43.3362022" lon="11.4581545"><ele>242.0</ele><time>2026-04-20T15:40:55.484Z</time></trkpt><trkpt lat="43.3362254" lon="11.4579719"><ele>242.0</ele><time>2026-04-20T15:40:56.483Z</time></trkpt><trkpt lat="43.3362494" lon="11.457777"><ele>242.0</ele><time>2026-04-20T15:40:57.484Z</time></trkpt><trkpt lat="43.3362848" lon="11.4575836"><ele>242.0</ele><time>2026-04-20T15:40:58.483Z</time></trkpt><trkpt lat="43.3363287" lon="11.4573973"><ele>242.0</ele><time>2026-04-20T15:40:59.483Z</time></trkpt><trkpt lat="43.3363653" lon="11.457219"><ele>242.0</ele><time>2026-04-20T15:41:00.484Z</time></trkpt><trkpt lat="43.3363808" lon="11.4570292"><ele>240.5</ele><time>2026-04-20T15:41:01.483Z</time></trkpt><trkpt lat="43.3363683" lon="11.4568374"><ele>239.0</ele><time>2026-04-20T15:41:02.483Z</time></trkpt><trkpt lat="43.3363406" lon="11.4566549"><ele>237.5</ele><time>2026-04-20T15:41:03.483Z</time></trkpt><trkpt lat="43.3363157" lon="11.4564835"><ele>236.0</ele><time>2026-04-20T15:41:04.484Z</time></trkpt><trkpt lat="43.336301" lon="11.4563298"><ele>235.75</ele><time>2026-04-20T15:41:05.484Z</time></trkpt><trkpt lat="43.3363094" lon="11.4561816"><ele>235.5</ele><time>2026-04-20T15:41:06.484Z</time></trkpt><trkpt lat="43.336344" lon="11.4560211"><ele>235.25</ele><time>2026-04-20T15:41:07.484Z</time></trkpt><trkpt lat="43.3363967" lon="11.4558479"><ele>235.0</ele><time>2026-04-20T15:41:08.484Z</time></trkpt><trkpt lat="43.3364653" lon="11.4556668"><ele>234.5</ele><time>2026-04-20T15:41:09.484Z</time></trkpt><trkpt lat="43.3365325" lon="11.4554784"><ele>234.0</ele><time>2026-04-20T15:41:10.484Z</time></trkpt><trkpt lat="43.336593" lon="11.4553002"><ele>233.5</ele><time>2026-04-20T15:41:11.484Z</time></trkpt><trkpt lat="43.3366518" lon="11.455128"><ele>233.0</ele><time>2026-04-20T15:41:12.484Z</time></trkpt><trkpt lat="43.3367143" lon="11.4549551"><ele>232.5</ele><time>2026-04-20T15:41:13.484Z</time></trkpt><trkpt lat="43.3367719" lon="11.4547837"><ele>232.0</ele><time>2026-04-20T15:41:14.484Z</time></trkpt><trkpt lat="43.3368108" lon="11.4546104"><ele>231.5</ele><time>2026-04-20T15:41:15.484Z</time></trkpt><trkpt lat="43.3368232" lon="11.4544091"><ele>231.0</ele><time>2026-04-20T15:41:16.484Z</time></trkpt><trkpt lat="43.3368176" lon="11.4542014"><ele>231.0</ele><time>2026-04-20T15:41:17.485Z</time></trkpt><trkpt lat="43.3368217" lon="11.453998"><ele>231.0</ele><time>2026-04-20T15:41:18.484Z</time></trkpt><trkpt lat="43.3368386" lon="11.4538053"><ele>231.0</ele><time>2026-04-20T15:41:19.485Z</time></trkpt><trkpt lat="43.3368532" lon="11.4536261"><ele>231.0</ele><time>2026-04-20T15:41:20.484Z</time></trkpt><trkpt lat="43.3368508" lon="11.4534556"><ele>231.0</ele><time>2026-04-20T15:41:21.484Z</time></trkpt><trkpt lat="43.3368138" lon="11.4532867"><ele>231.0</ele><time>2026-04-20T15:41:22.484Z</time></trkpt><trkpt lat="43.3367467" lon="11.4530991"><ele>231.0</ele><time>2026-04-20T15:41:23.484Z</time></trkpt><trkpt lat="43.3366701" lon="11.4529057"><ele>231.0</ele><time>2026-04-20T15:41:24.484Z</time></trkpt><trkpt lat="43.3365947" lon="11.4527136"><ele>230.33333333333331</ele><time>2026-04-20T15:41:25.484Z</time></trkpt><trkpt lat="43.3365194" lon="11.4525267"><ele>229.66666666666666</ele><time>2026-04-20T15:41:26.485Z</time></trkpt><trkpt lat="43.3364477" lon="11.4523496"><ele>229.0</ele><time>2026-04-20T15:41:27.484Z</time></trkpt><trkpt lat="43.336375" lon="11.452173"><ele>227.0</ele><time>2026-04-20T15:41:28.484Z</time></trkpt><trkpt lat="43.3363029" lon="11.4519911"><ele>225.0</ele><time>2026-04-20T15:41:29.484Z</time></trkpt><trkpt lat="43.3362317" lon="11.4518106"><ele>223.0</ele><time>2026-04-20T15:41:30.485Z</time></trkpt><trkpt lat="43.3361635" lon="11.4516401"><ele>221.0</ele><time>2026-04-20T15:41:31.484Z</time></trkpt><trkpt lat="43.3360986" lon="11.4514809"><ele>221.0</ele><time>2026-04-20T15:41:32.484Z</time></trkpt><trkpt lat="43.3360317" lon="11.4513335"><ele>221.0</ele><time>2026-04-20T15:41:33.484Z</time></trkpt><trkpt lat="43.3359469" lon="11.4512009"><ele>221.0</ele><time>2026-04-20T15:41:34.484Z</time></trkpt><trkpt lat="43.3358368" lon="11.4510885"><ele>221.0</ele><time>2026-04-20T15:41:35.484Z</time></trkpt><trkpt lat="43.33571" lon="11.4510159"><ele>220.8</ele><time>2026-04-20T15:41:36.485Z</time></trkpt><trkpt lat="43.3355902" lon="11.4509649"><ele>220.60000000000002</ele><time>2026-04-20T15:41:37.485Z</time></trkpt><trkpt lat="43.3354922" lon="11.4509148"><ele>220.4</ele><time>2026-04-20T15:41:38.484Z</time></trkpt><trkpt lat="43.3354145" lon="11.4508447"><ele>220.2</ele><time>2026-04-20T15:41:39.484Z</time></trkpt><trkpt lat="43.33537" lon="11.4507404"><ele>220.0</ele><time>2026-04-20T15:41:40.484Z</time></trkpt><trkpt lat="43.3353501" lon="11.450615"><ele>218.4</ele><time>2026-04-20T15:41:41.484Z</time></trkpt><trkpt lat="43.3353808" lon="11.4505054"><ele>216.8</ele><time>2026-04-20T15:41:42.484Z</time></trkpt><trkpt lat="43.3354423" lon="11.4504009"><ele>215.2</ele><time>2026-04-20T15:41:43.484Z</time></trkpt><trkpt lat="43.3355281" lon="11.4502828"><ele>213.6</ele><time>2026-04-20T15:41:44.485Z</time></trkpt><trkpt lat="43.3356248" lon="11.4501573"><ele>212.0</ele><time>2026-04-20T15:41:45.484Z</time></trkpt><trkpt lat="43.3357272" lon="11.4500313"><ele>212.0</ele><time>2026-04-20T15:41:46.484Z</time></trkpt><trkpt lat="43.335838" lon="11.449929"><ele>212.0</ele><time>2026-04-20T15:41:47.484Z</time></trkpt><trkpt lat="43.3359622" lon="11.4498718"><ele>212.0</ele><time>2026-04-20T15:41:48.484Z</time></trkpt><trkpt lat="43.3360921" lon="11.4498476"><ele>212.0</ele><time>2026-04-20T15:41:49.484Z</time></trkpt><trkpt lat="43.3362224" lon="11.4498749"><ele>212.0</ele><time>2026-04-20T15:41:50.484Z</time></trkpt><trkpt lat="43.3363142" lon="11.4498889"><ele>212.0</ele><time>2026-04-20T15:41:51.484Z</time></trkpt><trkpt lat="43.3363731" lon="11.4498334"><ele>212.0</ele><time>2026-04-20T15:41:52.486Z</time></trkpt><trkpt lat="43.3364197" lon="11.4497183"><ele>212.0</ele><time>2026-04-20T15:41:53.485Z</time></trkpt><trkpt lat="43.3364443" lon="11.4495511"><ele>212.0</ele><time>2026-04-20T15:41:54.486Z</time></trkpt><trkpt lat="43.3364527" lon="11.4493895"><ele>211.5</ele><time>2026-04-20T15:41:55.485Z</time></trkpt><trkpt lat="43.3364583" lon="11.449238"><ele>211.0</ele><time>2026-04-20T15:41:56.485Z</time></trkpt><trkpt lat="43.3364732" lon="11.4490824"><ele>210.5</ele><time>2026-04-20T15:41:57.485Z</time></trkpt><trkpt lat="43.3364779" lon="11.448916"><ele>210.0</ele><time>2026-04-20T15:41:58.485Z</time></trkpt><trkpt lat="43.3364483" lon="11.4487506"><ele>209.25</ele><time>2026-04-20T15:41:59.486Z</time></trkpt><trkpt lat="43.3363887" lon="11.4485797"><ele>208.5</ele><time>2026-04-20T15:42:00.485Z</time></trkpt><trkpt lat="43.3363141" lon="11.4484274"><ele>207.75</ele><time>2026-04-20T15:42:01.485Z</time></trkpt><trkpt lat="43.3362379" lon="11.4482975"><ele>207.0</ele><time>2026-04-20T15:42:02.485Z</time></trkpt><trkpt lat="43.3361759" lon="11.4481834"><ele>207.0</ele><time>2026-04-20T15:42:03.485Z</time></trkpt><trkpt lat="43.3361263" lon="11.4480794"><ele>207.0</ele><time>2026-04-20T15:42:04.485Z</time></trkpt><trkpt lat="43.3360969" lon="11.4479816"><ele>207.0</ele><time>2026-04-20T15:42:05.485Z</time></trkpt><trkpt lat="43.3360935" lon="11.4478767"><ele>207.0</ele><time>2026-04-20T15:42:06.485Z</time></trkpt><trkpt lat="43.3361121" lon="11.4477567"><ele>207.0</ele><time>2026-04-20T15:42:07.486Z</time></trkpt><trkpt lat="43.3361594" lon="11.447635"><ele>207.0</ele><time>2026-04-20T15:42:08.485Z</time></trkpt><trkpt lat="43.3362388" lon="11.4474805"><ele>207.0</ele><time>2026-04-20T15:42:09.485Z</time></trkpt><trkpt lat="43.3363208" lon="11.4473078"><ele>207.0</ele><time>2026-04-20T15:42:10.485Z</time></trkpt><trkpt lat="43.3364496" lon="11.4469146"><ele>207.25</ele><time>2026-04-20T15:42:12.485Z</time></trkpt><trkpt lat="43.3364373" lon="11.4467209"><ele>207.5</ele><time>2026-04-20T15:42:13.486Z</time></trkpt><trkpt lat="43.3364042" lon="11.4465392"><ele>207.75</ele><time>2026-04-20T15:42:14.485Z</time></trkpt><trkpt lat="43.3363617" lon="11.4463611"><ele>208.0</ele><time>2026-04-20T15:42:15.486Z</time></trkpt><trkpt lat="43.3363141" lon="11.4461786"><ele>210.0</ele><time>2026-04-20T15:42:16.485Z</time></trkpt><trkpt lat="43.33627" lon="11.4459868"><ele>212.0</ele><time>2026-04-20T15:42:17.485Z</time></trkpt><trkpt lat="43.3362252" lon="11.4457809"><ele>214.0</ele><time>2026-04-20T15:42:18.485Z</time></trkpt><trkpt lat="43.3361664" lon="11.4455768"><ele>216.33333333333331</ele><time>2026-04-20T15:42:19.485Z</time></trkpt><trkpt lat="43.336098" lon="11.4453798"><ele>218.66666666666669</ele><time>2026-04-20T15:42:20.485Z</time></trkpt><trkpt lat="43.3360163" lon="11.4451942"><ele>221.0</ele><time>2026-04-20T15:42:21.486Z</time></trkpt><trkpt lat="43.3359282" lon="11.4450106"><ele>221.0</ele><time>2026-04-20T15:42:22.485Z</time></trkpt><trkpt lat="43.3358408" lon="11.4448305"><ele>221.0</ele><time>2026-04-20T15:42:23.485Z</time></trkpt><trkpt lat="43.3357552" lon="11.4446512"><ele>221.0</ele><time>2026-04-20T15:42:24.485Z</time></trkpt><trkpt lat="43.3356684" lon="11.4444727"><ele>221.33333333333334</ele><time>2026-04-20T15:42:25.485Z</time></trkpt><trkpt lat="43.3355793" lon="11.4442975"><ele>221.66666666666669</ele><time>2026-04-20T15:42:26.485Z</time></trkpt><trkpt lat="43.3354855" lon="11.4441278"><ele>222.0</ele><time>2026-04-20T15:42:27.485Z</time></trkpt><trkpt lat="43.3353901" lon="11.4439592"><ele>222.0</ele><time>2026-04-20T15:42:28.485Z</time></trkpt><trkpt lat="43.3352993" lon="11.4437974"><ele>222.0</ele><time>2026-04-20T15:42:29.485Z</time></trkpt><trkpt lat="43.3352238" lon="11.4436599"><ele>222.0</ele><time>2026-04-20T15:42:30.485Z</time></trkpt><trkpt lat="43.335171" lon="11.4435567"><ele>222.0</ele><time>2026-04-20T15:42:31.485Z</time></trkpt><trkpt lat="43.3351311" lon="11.4434589"><ele>222.0</ele><time>2026-04-20T15:42:32.485Z</time></trkpt><trkpt lat="43.3351012" lon="11.4433319"><ele>221.75</ele><time>2026-04-20T15:42:33.485Z</time></trkpt><trkpt lat="43.3350777" lon="11.4431779"><ele>221.5</ele><time>2026-04-20T15:42:34.485Z</time></trkpt><trkpt lat="43.3350722" lon="11.4430113"><ele>221.25</ele><time>2026-04-20T15:42:35.485Z</time></trkpt><trkpt lat="43.3350931" lon="11.4428419"><ele>221.0</ele><time>2026-04-20T15:42:36.486Z</time></trkpt><trkpt lat="43.3351392" lon="11.4426719"><ele>218.75</ele><time>2026-04-20T15:42:37.485Z</time></trkpt><trkpt lat="43.3351928" lon="11.4425001"><ele>216.5</ele><time>2026-04-20T15:42:38.485Z</time></trkpt><trkpt lat="43.3352385" lon="11.4423287"><ele>214.25</ele><time>2026-04-20T15:42:39.485Z</time></trkpt><trkpt lat="43.3352745" lon="11.4421509"><ele>212.0</ele><time>2026-04-20T15:42:40.485Z</time></trkpt><trkpt lat="43.3352931" lon="11.4419706"><ele>212.0</ele><time>2026-04-20T15:42:41.486Z</time></trkpt><trkpt lat="43.3352769" lon="11.4417974"><ele>212.0</ele><time>2026-04-20T15:42:42.487Z</time></trkpt><trkpt lat="43.3352286" lon="11.4416285"><ele>212.0</ele><time>2026-04-20T15:42:43.486Z</time></trkpt><trkpt lat="43.3351577" lon="11.441465"><ele>212.0</ele><time>2026-04-20T15:42:44.487Z</time></trkpt><trkpt lat="43.335094" lon="11.4412942"><ele>213.75</ele><time>2026-04-20T15:42:45.487Z</time></trkpt><trkpt lat="43.3350652" lon="11.4411133"><ele>215.5</ele><time>2026-04-20T15:42:46.486Z</time></trkpt><trkpt lat="43.3350734" lon="11.4409208"><ele>217.25</ele><time>2026-04-20T15:42:47.486Z</time></trkpt><trkpt lat="43.3351081" lon="11.4407095"><ele>219.0</ele><time>2026-04-20T15:42:48.486Z</time></trkpt><trkpt lat="43.3351097" lon="11.4404967"><ele>221.0</ele><time>2026-04-20T15:42:49.486Z</time></trkpt><trkpt lat="43.3350802" lon="11.4402747"><ele>223.0</ele><time>2026-04-20T15:42:50.486Z</time></trkpt><trkpt lat="43.3350295" lon="11.4400595"><ele>225.0</ele><time>2026-04-20T15:42:51.486Z</time></trkpt><trkpt lat="43.3349609" lon="11.4398561"><ele>225.0</ele><time>2026-04-20T15:42:52.487Z</time></trkpt><trkpt lat="43.3348899" lon="11.4396723"><ele>225.0</ele><time>2026-04-20T15:42:53.487Z</time></trkpt><trkpt lat="43.33481" lon="11.4395011"><ele>225.0</ele><time>2026-04-20T15:42:54.486Z</time></trkpt><trkpt lat="43.3347307" lon="11.439339"><ele>225.0</ele><time>2026-04-20T15:42:55.486Z</time></trkpt><trkpt lat="43.3346503" lon="11.4391778"><ele>226.75</ele><time>2026-04-20T15:42:56.486Z</time></trkpt><trkpt lat="43.334565" lon="11.439018"><ele>228.5</ele><time>2026-04-20T15:42:57.486Z</time></trkpt><trkpt lat="43.3344877" lon="11.4388808"><ele>230.25</ele><time>2026-04-20T15:42:58.487Z</time></trkpt><trkpt lat="43.3344153" lon="11.4387734"><ele>232.0</ele><time>2026-04-20T15:42:59.486Z</time></trkpt><trkpt lat="43.3343387" lon="11.4386956"><ele>232.0</ele><time>2026-04-20T15:43:00.486Z</time></trkpt><trkpt lat="43.3342335" lon="11.4386401"><ele>232.0</ele><time>2026-04-20T15:43:01.486Z</time></trkpt><trkpt lat="43.3341003" lon="11.4386008"><ele>232.0</ele><time>2026-04-20T15:43:02.486Z</time></trkpt><trkpt lat="43.3339684" lon="11.4385543"><ele>232.0</ele><time>2026-04-20T15:43:03.486Z</time></trkpt><trkpt lat="43.3338545" lon="11.4384841"><ele>233.0</ele><time>2026-04-20T15:43:04.486Z</time></trkpt><trkpt lat="43.3337659" lon="11.4383753"><ele>234.0</ele><time>2026-04-20T15:43:05.487Z</time></trkpt><trkpt lat="43.333696" lon="11.4382425"><ele>235.0</ele><time>2026-04-20T15:43:06.487Z</time></trkpt><trkpt lat="43.3336504" lon="11.4380777"><ele>236.0</ele><time>2026-04-20T15:43:07.486Z</time></trkpt><trkpt lat="43.3336268" lon="11.4378859"><ele>236.8</ele><time>2026-04-20T15:43:08.486Z</time></trkpt><trkpt lat="43.3336248" lon="11.4376884"><ele>237.60000000000002</ele><time>2026-04-20T15:43:09.486Z</time></trkpt><trkpt lat="43.3336319" lon="11.4375293"><ele>238.4</ele><time>2026-04-20T15:43:10.486Z</time></trkpt><trkpt lat="43.333641" lon="11.4373954"><ele>239.2</ele><time>2026-04-20T15:43:11.487Z</time></trkpt><trkpt lat="43.3336457" lon="11.4372893"><ele>240.0</ele><time>2026-04-20T15:43:12.486Z</time></trkpt><trkpt lat="43.3336422" lon="11.4371798"><ele>240.6</ele><time>2026-04-20T15:43:13.486Z</time></trkpt><trkpt lat="43.3336288" lon="11.4370624"><ele>241.2</ele><time>2026-04-20T15:43:14.486Z</time></trkpt><trkpt lat="43.3336074" lon="11.4369387"><ele>241.8</ele><time>2026-04-20T15:43:15.487Z</time></trkpt><trkpt lat="43.333583" lon="11.4368079"><ele>242.4</ele><time>2026-04-20T15:43:16.486Z</time></trkpt><trkpt lat="43.3335606" lon="11.4366734"><ele>243.0</ele><time>2026-04-20T15:43:17.486Z</time></trkpt><trkpt lat="43.3335423" lon="11.4365458"><ele>243.0</ele><time>2026-04-20T15:43:18.487Z</time></trkpt><trkpt lat="43.3335284" lon="11.4364149"><ele>243.0</ele><time>2026-04-20T15:43:19.486Z</time></trkpt><trkpt lat="43.3335203" lon="11.4362779"><ele>243.0</ele><time>2026-04-20T15:43:20.486Z</time></trkpt><trkpt lat="43.3335128" lon="11.4361383"><ele>243.0</ele><time>2026-04-20T15:43:21.486Z</time></trkpt><trkpt lat="43.3335044" lon="11.4359996"><ele>243.0</ele><time>2026-04-20T15:43:22.486Z</time></trkpt><trkpt lat="43.3334946" lon="11.4358618"><ele>242.8</ele><time>2026-04-20T15:43:23.486Z</time></trkpt><trkpt lat="43.3334889" lon="11.4357263"><ele>242.60000000000002</ele><time>2026-04-20T15:43:24.486Z</time></trkpt><trkpt lat="43.3334955" lon="11.4355979"><ele>242.39999999999998</ele><time>2026-04-20T15:43:25.486Z</time></trkpt><trkpt lat="43.3335202" lon="11.4354719"><ele>242.2</ele><time>2026-04-20T15:43:26.486Z</time></trkpt><trkpt lat="43.3335637" lon="11.4353424"><ele>242.0</ele><time>2026-04-20T15:43:27.487Z</time></trkpt><trkpt lat="43.3336197" lon="11.4352195"><ele>242.2</ele><time>2026-04-20T15:43:28.486Z</time></trkpt><trkpt lat="43.3336783" lon="11.4350994"><ele>242.39999999999998</ele><time>2026-04-20T15:43:29.487Z</time></trkpt><trkpt lat="43.3337261" lon="11.4349763"><ele>242.60000000000002</ele><time>2026-04-20T15:43:30.487Z</time></trkpt><trkpt lat="43.3337615" lon="11.4348476"><ele>242.8</ele><time>2026-04-20T15:43:31.487Z</time></trkpt><trkpt lat="43.3337915" lon="11.4347179"><ele>243.0</ele><time>2026-04-20T15:43:32.487Z</time></trkpt><trkpt lat="43.3338225" lon="11.4345893"><ele>243.0</ele><time>2026-04-20T15:43:33.487Z</time></trkpt><trkpt lat="43.3338518" lon="11.4344619"><ele>243.0</ele><time>2026-04-20T15:43:34.487Z</time></trkpt><trkpt lat="43.3338742" lon="11.4343396"><ele>243.0</ele><time>2026-04-20T15:43:35.487Z</time></trkpt><trkpt lat="43.3338842" lon="11.4342126"><ele>243.0</ele><time>2026-04-20T15:43:36.487Z</time></trkpt><trkpt lat="43.3338727" lon="11.4340884"><ele>243.0</ele><time>2026-04-20T15:43:37.487Z</time></trkpt><trkpt lat="43.3338406" lon="11.4339636"><ele>243.0</ele><time>2026-04-20T15:43:38.487Z</time></trkpt><trkpt lat="43.3337931" lon="11.4338469"><ele>243.0</ele><time>2026-04-20T15:43:39.488Z</time></trkpt><trkpt lat="43.3337378" lon="11.4337368"><ele>243.0</ele><time>2026-04-20T15:43:40.487Z</time></trkpt><trkpt lat="43.3336789" lon="11.4336308"><ele>243.0</ele><time>2026-04-20T15:43:41.487Z</time></trkpt><trkpt lat="43.3336237" lon="11.4335338"><ele>243.0</ele><time>2026-04-20T15:43:42.487Z</time></trkpt><trkpt lat="43.3335835" lon="11.4334572"><ele>244.4</ele><time>2026-04-20T15:43:43.488Z</time></trkpt><trkpt lat="43.3335378" lon="11.4333559"><ele>245.8</ele><time>2026-04-20T15:43:45.487Z</time></trkpt><trkpt lat="43.3335708" lon="11.4332264"><ele>247.2</ele><time>2026-04-20T15:43:48.487Z</time></trkpt><trkpt lat="43.3336329" lon="11.4331817"><ele>248.6</ele><time>2026-04-20T15:43:49.487Z</time></trkpt><trkpt lat="43.3337309" lon="11.433141"><ele>250.0</ele><time>2026-04-20T15:43:50.487Z</time></trkpt><trkpt lat="43.3338364" lon="11.433098"><ele>250.0</ele><time>2026-04-20T15:43:51.487Z</time></trkpt><trkpt lat="43.3339482" lon="11.4330439"><ele>250.0</ele><time>2026-04-20T15:43:52.487Z</time></trkpt><trkpt lat="43.334073" lon="11.4329746"><ele>250.0</ele><time>2026-04-20T15:43:53.488Z</time></trkpt><trkpt lat="43.3342087" lon="11.4329044"><ele>250.0</ele><time>2026-04-20T15:43:54.487Z</time></trkpt><trkpt lat="43.3343553" lon="11.432827"><ele>250.33333333333331</ele><time>2026-04-20T15:43:55.488Z</time></trkpt><trkpt lat="43.3345083" lon="11.4327411"><ele>250.66666666666669</ele><time>2026-04-20T15:43:56.487Z</time></trkpt><trkpt lat="43.3346684" lon="11.4326499"><ele>251.0</ele><time>2026-04-20T15:43:57.487Z</time></trkpt><trkpt lat="43.3348347" lon="11.4325593"><ele>251.33333333333334</ele><time>2026-04-20T15:43:58.488Z</time></trkpt><trkpt lat="43.3350012" lon="11.4324704"><ele>251.66666666666669</ele><time>2026-04-20T15:43:59.487Z</time></trkpt><trkpt lat="43.3351656" lon="11.4323794"><ele>252.0</ele><time>2026-04-20T15:44:00.487Z</time></trkpt><trkpt lat="43.3353294" lon="11.4322865"><ele>252.0</ele><time>2026-04-20T15:44:01.487Z</time></trkpt><trkpt lat="43.3354918" lon="11.4321938"><ele>252.0</ele><time>2026-04-20T15:44:02.487Z</time></trkpt><trkpt lat="43.3356521" lon="11.432102"><ele>252.0</ele><time>2026-04-20T15:44:03.487Z</time></trkpt><trkpt lat="43.3358119" lon="11.4320115"><ele>253.33333333333331</ele><time>2026-04-20T15:44:04.487Z</time></trkpt><trkpt lat="43.3359728" lon="11.4319214"><ele>254.66666666666666</ele><time>2026-04-20T15:44:05.487Z</time></trkpt><trkpt lat="43.3361364" lon="11.4318291"><ele>256.0</ele><time>2026-04-20T15:44:06.487Z</time></trkpt><trkpt lat="43.3362973" lon="11.4317383"><ele>254.66666666666666</ele><time>2026-04-20T15:44:07.488Z</time></trkpt><trkpt lat="43.3364519" lon="11.4316545"><ele>253.33333333333331</ele><time>2026-04-20T15:44:08.487Z</time></trkpt><trkpt lat="43.3365998" lon="11.4315786"><ele>252.0</ele><time>2026-04-20T15:44:09.487Z</time></trkpt><trkpt lat="43.3367418" lon="11.4315116"><ele>252.0</ele><time>2026-04-20T15:44:10.488Z</time></trkpt><trkpt lat="43.3368909" lon="11.4314457"><ele>252.0</ele><time>2026-04-20T15:44:11.487Z</time></trkpt><trkpt lat="43.3370561" lon="11.4313965"><ele>252.0</ele><time>2026-04-20T15:44:12.487Z</time></trkpt><trkpt lat="43.3372304" lon="11.4313761"><ele>250.66666666666669</ele><time>2026-04-20T15:44:13.487Z</time></trkpt><trkpt lat="43.3374094" lon="11.4313784"><ele>249.33333333333334</ele><time>2026-04-20T15:44:14.488Z</time></trkpt><trkpt lat="43.3375898" lon="11.4313888"><ele>248.0</ele><time>2026-04-20T15:44:15.487Z</time></trkpt><trkpt lat="43.3377685" lon="11.4313947"><ele>248.0</ele><time>2026-04-20T15:44:16.487Z</time></trkpt><trkpt lat="43.337943" lon="11.4314027"><ele>248.0</ele><time>2026-04-20T15:44:17.487Z</time></trkpt><trkpt lat="43.3381103" lon="11.4314175"><ele>248.0</ele><time>2026-04-20T15:44:18.488Z</time></trkpt><trkpt lat="43.3382663" lon="11.4314506"><ele>248.66666666666669</ele><time>2026-04-20T15:44:19.488Z</time></trkpt><trkpt lat="43.3384125" lon="11.4315216"><ele>249.33333333333331</ele><time>2026-04-20T15:44:20.489Z</time></trkpt><trkpt lat="43.3385487" lon="11.4316336"><ele>250.0</ele><time>2026-04-20T15:44:21.488Z</time></trkpt><trkpt lat="43.3386811" lon="11.4317787"><ele>250.0</ele><time>2026-04-20T15:44:22.488Z</time></trkpt><trkpt lat="43.3387989" lon="11.4319234"><ele>250.0</ele><time>2026-04-20T15:44:23.489Z</time></trkpt><trkpt lat="43.3389094" lon="11.4320549"><ele>250.0</ele><time>2026-04-20T15:44:24.488Z</time></trkpt><trkpt lat="43.3390149" lon="11.4321808"><ele>250.0</ele><time>2026-04-20T15:44:25.489Z</time></trkpt><trkpt lat="43.3391171" lon="11.432304"><ele>250.0</ele><time>2026-04-20T15:44:26.489Z</time></trkpt><trkpt lat="43.3392166" lon="11.4324323"><ele>250.0</ele><time>2026-04-20T15:44:27.488Z</time></trkpt><trkpt lat="43.3393169" lon="11.4325754"><ele>250.0</ele><time>2026-04-20T15:44:28.489Z</time></trkpt><trkpt lat="43.3394108" lon="11.4327382"><ele>250.0</ele><time>2026-04-20T15:44:29.488Z</time></trkpt><trkpt lat="43.3394916" lon="11.4329055"><ele>249.75</ele><time>2026-04-20T15:44:30.488Z</time></trkpt><trkpt lat="43.3395593" lon="11.4330621"><ele>249.5</ele><time>2026-04-20T15:44:31.488Z</time></trkpt><trkpt lat="43.3396184" lon="11.4332101"><ele>249.25</ele><time>2026-04-20T15:44:32.489Z</time></trkpt><trkpt lat="43.3396761" lon="11.4333559"><ele>249.0</ele><time>2026-04-20T15:44:33.488Z</time></trkpt><trkpt lat="43.3397348" lon="11.4335097"><ele>249.0</ele><time>2026-04-20T15:44:34.488Z</time></trkpt><trkpt lat="43.3397926" lon="11.4336562"><ele>249.0</ele><time>2026-04-20T15:44:35.488Z</time></trkpt><trkpt lat="43.3398533" lon="11.4338024"><ele>249.0</ele><time>2026-04-20T15:44:36.488Z</time></trkpt><trkpt lat="43.3399171" lon="11.433952"><ele>249.0</ele><time>2026-04-20T15:44:37.488Z</time></trkpt><trkpt lat="43.3399812" lon="11.4341008"><ele>249.0</ele><time>2026-04-20T15:44:38.488Z</time></trkpt><trkpt lat="43.3400457" lon="11.4342396"><ele>249.0</ele><time>2026-04-20T15:44:39.488Z</time></trkpt><trkpt lat="43.3401152" lon="11.4343731"><ele>249.0</ele><time>2026-04-20T15:44:40.489Z</time></trkpt><trkpt lat="43.3401976" lon="11.434485"><ele>249.0</ele><time>2026-04-20T15:44:41.489Z</time></trkpt><trkpt lat="43.3402988" lon="11.4345791"><ele>249.0</ele><time>2026-04-20T15:44:42.488Z</time></trkpt><trkpt lat="43.3404119" lon="11.4346378"><ele>249.0</ele><time>2026-04-20T15:44:43.488Z</time></trkpt><trkpt lat="43.3405292" lon="11.4346601"><ele>249.0</ele><time>2026-04-20T15:44:44.488Z</time></trkpt><trkpt lat="43.3406519" lon="11.434646"><ele>249.0</ele><time>2026-04-20T15:44:45.489Z</time></trkpt><trkpt lat="43.3407839" lon="11.4346126"><ele>248.0</ele><time>2026-04-20T15:44:46.488Z</time></trkpt><trkpt lat="43.3409095" lon="11.4345649"><ele>247.0</ele><time>2026-04-20T15:44:47.488Z</time></trkpt><trkpt lat="43.3410392" lon="11.4345106"><ele>246.0</ele><time>2026-04-20T15:44:48.488Z</time></trkpt><trkpt lat="43.3411632" lon="11.4344627"><ele>245.0</ele><time>2026-04-20T15:44:49.488Z</time></trkpt><trkpt lat="43.3412918" lon="11.4344163"><ele>245.25</ele><time>2026-04-20T15:44:50.489Z</time></trkpt><trkpt lat="43.3414259" lon="11.4343711"><ele>245.5</ele><time>2026-04-20T15:44:51.488Z</time></trkpt><trkpt lat="43.3415655" lon="11.4343164"><ele>245.75</ele><time>2026-04-20T15:44:52.488Z</time></trkpt><trkpt lat="43.3417203" lon="11.4342508"><ele>246.0</ele><time>2026-04-20T15:44:53.488Z</time></trkpt><trkpt lat="43.3418935" lon="11.4341883"><ele>246.0</ele><time>2026-04-20T15:44:54.488Z</time></trkpt><trkpt lat="43.3420904" lon="11.4341302"><ele>246.0</ele><time>2026-04-20T15:44:55.488Z</time></trkpt><trkpt lat="43.3422938" lon="11.4340656"><ele>246.0</ele><time>2026-04-20T15:44:56.488Z</time></trkpt><trkpt lat="43.3425095" lon="11.4340032"><ele>246.33333333333331</ele><time>2026-04-20T15:44:57.488Z</time></trkpt><trkpt lat="43.3427146" lon="11.4339398"><ele>246.66666666666666</ele><time>2026-04-20T15:44:58.488Z</time></trkpt><trkpt lat="43.3428956" lon="11.4338904"><ele>247.0</ele><time>2026-04-20T15:44:59.488Z</time></trkpt><trkpt lat="43.3430528" lon="11.4338655"><ele>248.25</ele><time>2026-04-20T15:45:00.488Z</time></trkpt><trkpt lat="43.343194" lon="11.4338891"><ele>249.5</ele><time>2026-04-20T15:45:01.488Z</time></trkpt><trkpt lat="43.3433223" lon="11.4339494"><ele>250.75</ele><time>2026-04-20T15:45:02.488Z</time></trkpt><trkpt lat="43.3434401" lon="11.4340623"><ele>252.0</ele><time>2026-04-20T15:45:03.488Z</time></trkpt><trkpt lat="43.3435504" lon="11.4342136"><ele>252.0</ele><time>2026-04-20T15:45:04.489Z</time></trkpt><trkpt lat="43.3436565" lon="11.4343871"><ele>252.0</ele><time>2026-04-20T15:45:05.488Z</time></trkpt><trkpt lat="43.3437669" lon="11.4345704"><ele>252.0</ele><time>2026-04-20T15:45:06.489Z</time></trkpt><trkpt lat="43.3438814" lon="11.4347501"><ele>254.0</ele><time>2026-04-20T15:45:07.489Z</time></trkpt><trkpt lat="43.3440047" lon="11.4349305"><ele>256.0</ele><time>2026-04-20T15:45:08.489Z</time></trkpt><trkpt lat="43.3441374" lon="11.4351045"><ele>258.0</ele><time>2026-04-20T15:45:09.49Z</time></trkpt><trkpt lat="43.3442756" lon="11.4352644"><ele>258.0</ele><time>2026-04-20T15:45:10.49Z</time></trkpt><trkpt lat="43.3444143" lon="11.4354053"><ele>258.0</ele><time>2026-04-20T15:45:11.489Z</time></trkpt><trkpt lat="43.3445565" lon="11.4355228"><ele>258.0</ele><time>2026-04-20T15:45:12.489Z</time></trkpt><trkpt lat="43.3446962" lon="11.4356041"><ele>258.75</ele><time>2026-04-20T15:45:13.489Z</time></trkpt><trkpt lat="43.3448413" lon="11.4356447"><ele>259.5</ele><time>2026-04-20T15:45:14.489Z</time></trkpt><trkpt lat="43.3449913" lon="11.4356544"><ele>260.25</ele><time>2026-04-20T15:45:15.489Z</time></trkpt><trkpt lat="43.3451409" lon="11.435647"><ele>261.0</ele><time>2026-04-20T15:45:16.489Z</time></trkpt><trkpt lat="43.345285" lon="11.4356325"><ele>261.0</ele><time>2026-04-20T15:45:17.489Z</time></trkpt><trkpt lat="43.3454356" lon="11.4356301"><ele>261.0</ele><time>2026-04-20T15:45:18.49Z</time></trkpt><trkpt lat="43.3455756" lon="11.4356322"><ele>261.0</ele><time>2026-04-20T15:45:19.489Z</time></trkpt><trkpt lat="43.3457132" lon="11.4356499"><ele>261.0</ele><time>2026-04-20T15:45:20.489Z</time></trkpt><trkpt lat="43.3458334" lon="11.4356931"><ele>262.25</ele><time>2026-04-20T15:45:21.489Z</time></trkpt><trkpt lat="43.34594" lon="11.4357779"><ele>263.5</ele><time>2026-04-20T15:45:22.489Z</time></trkpt><trkpt lat="43.3460464" lon="11.4358841"><ele>264.75</ele><time>2026-04-20T15:45:23.489Z</time></trkpt><trkpt lat="43.3461722" lon="11.4360087"><ele>266.0</ele><time>2026-04-20T15:45:24.489Z</time></trkpt><trkpt lat="43.3463059" lon="11.4361232"><ele>265.33333333333337</ele><time>2026-04-20T15:45:25.489Z</time></trkpt><trkpt lat="43.3464432" lon="11.4362381"><ele>264.6666666666667</ele><time>2026-04-20T15:45:26.489Z</time></trkpt><trkpt lat="43.346569" lon="11.4363562"><ele>264.0</ele><time>2026-04-20T15:45:27.49Z</time></trkpt><trkpt lat="43.3466871" lon="11.4364987"><ele>264.0</ele><time>2026-04-20T15:45:28.489Z</time></trkpt><trkpt lat="43.3467927" lon="11.436676"><ele>264.0</ele><time>2026-04-20T15:45:29.489Z</time></trkpt><trkpt lat="43.3468952" lon="11.4368628"><ele>264.0</ele><time>2026-04-20T15:45:30.489Z</time></trkpt><trkpt lat="43.3470011" lon="11.4370451"><ele>263.3333333333333</ele><time>2026-04-20T15:45:31.489Z</time></trkpt><trkpt lat="43.3471111" lon="11.437238"><ele>262.66666666666663</ele><time>2026-04-20T15:45:32.489Z</time></trkpt><trkpt lat="43.3472283" lon="11.4374309"><ele>262.0</ele><time>2026-04-20T15:45:33.489Z</time></trkpt><trkpt lat="43.347341" lon="11.4376273"><ele>261.25</ele><time>2026-04-20T15:45:34.489Z</time></trkpt><trkpt lat="43.3474402" lon="11.4378051"><ele>260.5</ele><time>2026-04-20T15:45:35.49Z</time></trkpt><trkpt lat="43.347528" lon="11.4379709"><ele>259.75</ele><time>2026-04-20T15:45:36.489Z</time></trkpt><trkpt lat="43.3476107" lon="11.4381147"><ele>259.0</ele><time>2026-04-20T15:45:37.489Z</time></trkpt><trkpt lat="43.3476976" lon="11.4382468"><ele>259.0</ele><time>2026-04-20T15:45:38.489Z</time></trkpt><trkpt lat="43.3478105" lon="11.438358"><ele>259.0</ele><time>2026-04-20T15:45:39.489Z</time></trkpt><trkpt lat="43.3479601" lon="11.4384348"><ele>259.0</ele><time>2026-04-20T15:45:40.489Z</time></trkpt><trkpt lat="43.3481189" lon="11.4384829"><ele>257.66666666666663</ele><time>2026-04-20T15:45:41.489Z</time></trkpt><trkpt lat="43.3482858" lon="11.4385141"><ele>256.3333333333333</ele><time>2026-04-20T15:45:42.489Z</time></trkpt><trkpt lat="43.3484627" lon="11.4385286"><ele>255.0</ele><time>2026-04-20T15:45:43.489Z</time></trkpt><trkpt lat="43.3486381" lon="11.4385469"><ele>255.0</ele><time>2026-04-20T15:45:44.489Z</time></trkpt><trkpt lat="43.3488024" lon="11.438569"><ele>255.0</ele><time>2026-04-20T15:45:45.489Z</time></trkpt><trkpt lat="43.3489598" lon="11.4385965"><ele>255.0</ele><time>2026-04-20T15:45:46.489Z</time></trkpt><trkpt lat="43.3491052" lon="11.4386285"><ele>255.0</ele><time>2026-04-20T15:45:47.489Z</time></trkpt><trkpt lat="43.3492388" lon="11.4386749"><ele>255.0</ele><time>2026-04-20T15:45:48.49Z</time></trkpt><trkpt lat="43.3493668" lon="11.4387425"><ele>255.0</ele><time>2026-04-20T15:45:49.489Z</time></trkpt><trkpt lat="43.3494824" lon="11.4388552"><ele>255.0</ele><time>2026-04-20T15:45:50.489Z</time></trkpt><trkpt lat="43.3495871" lon="11.4390192"><ele>253.66666666666669</ele><time>2026-04-20T15:45:51.49Z</time></trkpt><trkpt lat="43.3496805" lon="11.4392082"><ele>252.33333333333334</ele><time>2026-04-20T15:45:52.489Z</time></trkpt><trkpt lat="43.3497655" lon="11.4393935"><ele>251.0</ele><time>2026-04-20T15:45:53.489Z</time></trkpt><trkpt lat="43.3498561" lon="11.4395673"><ele>250.0</ele><time>2026-04-20T15:45:54.489Z</time></trkpt><trkpt lat="43.3499555" lon="11.4397204"><ele>249.0</ele><time>2026-04-20T15:45:55.49Z</time></trkpt><trkpt lat="43.3500679" lon="11.4398498"><ele>248.0</ele><time>2026-04-20T15:45:56.49Z</time></trkpt><trkpt lat="43.3501875" lon="11.439956"><ele>247.0</ele><time>2026-04-20T15:45:57.49Z</time></trkpt><trkpt lat="43.3503112" lon="11.4400419"><ele>247.0</ele><time>2026-04-20T15:45:58.49Z</time></trkpt><trkpt lat="43.3504328" lon="11.4401034"><ele>247.0</ele><time>2026-04-20T15:45:59.49Z</time></trkpt><trkpt lat="43.3505647" lon="11.4401377"><ele>247.0</ele><time>2026-04-20T15:46:00.49Z</time></trkpt><trkpt lat="43.3507029" lon="11.4401478"><ele>247.0</ele><time>2026-04-20T15:46:01.49Z</time></trkpt><trkpt lat="43.3508463" lon="11.4401322"><ele>247.33333333333331</ele><time>2026-04-20T15:46:02.49Z</time></trkpt><trkpt lat="43.3509902" lon="11.4400895"><ele>247.66666666666669</ele><time>2026-04-20T15:46:03.49Z</time></trkpt><trkpt lat="43.3511335" lon="11.4400204"><ele>248.0</ele><time>2026-04-20T15:46:04.49Z</time></trkpt><trkpt lat="43.35127" lon="11.4399237"><ele>249.0</ele><time>2026-04-20T15:46:05.49Z</time></trkpt><trkpt lat="43.3514009" lon="11.4398067"><ele>250.0</ele><time>2026-04-20T15:46:06.49Z</time></trkpt><trkpt lat="43.3515314" lon="11.4396828"><ele>251.0</ele><time>2026-04-20T15:46:07.49Z</time></trkpt><trkpt lat="43.3516705" lon="11.4395639"><ele>251.0</ele><time>2026-04-20T15:46:08.49Z</time></trkpt><trkpt lat="43.3518227" lon="11.4394548"><ele>251.0</ele><time>2026-04-20T15:46:09.49Z</time></trkpt><trkpt lat="43.351989" lon="11.4393865"><ele>251.0</ele><time>2026-04-20T15:46:10.49Z</time></trkpt><trkpt lat="43.3521533" lon="11.4393543"><ele>252.75</ele><time>2026-04-20T15:46:11.49Z</time></trkpt><trkpt lat="43.3522959" lon="11.4393268"><ele>254.5</ele><time>2026-04-20T15:46:12.49Z</time></trkpt><trkpt lat="43.3524077" lon="11.4392514"><ele>256.25</ele><time>2026-04-20T15:46:13.49Z</time></trkpt><trkpt lat="43.3525105" lon="11.4391162"><ele>258.0</ele><time>2026-04-20T15:46:14.49Z</time></trkpt><trkpt lat="43.3526163" lon="11.438968"><ele>258.0</ele><time>2026-04-20T15:46:15.491Z</time></trkpt><trkpt lat="43.3527429" lon="11.4388106"><ele>258.0</ele><time>2026-04-20T15:46:16.491Z</time></trkpt><trkpt lat="43.3528756" lon="11.4386767"><ele>258.0</ele><time>2026-04-20T15:46:17.49Z</time></trkpt><trkpt lat="43.3530067" lon="11.4385738"><ele>259.75</ele><time>2026-04-20T15:46:18.49Z</time></trkpt><trkpt lat="43.3531377" lon="11.438491"><ele>261.5</ele><time>2026-04-20T15:46:19.49Z</time></trkpt><trkpt lat="43.3532731" lon="11.4384181"><ele>263.25</ele><time>2026-04-20T15:46:20.491Z</time></trkpt><trkpt lat="43.353419" lon="11.4383586"><ele>265.0</ele><time>2026-04-20T15:46:21.491Z</time></trkpt><trkpt lat="43.3535806" lon="11.4383145"><ele>265.0</ele><time>2026-04-20T15:46:22.49Z</time></trkpt><trkpt lat="43.3537551" lon="11.438277"><ele>265.0</ele><time>2026-04-20T15:46:23.49Z</time></trkpt><trkpt lat="43.3539206" lon="11.4382402"><ele>265.0</ele><time>2026-04-20T15:46:24.491Z</time></trkpt><trkpt lat="43.3540683" lon="11.4382"><ele>265.25</ele><time>2026-04-20T15:46:25.491Z</time></trkpt><trkpt lat="43.3542017" lon="11.438166"><ele>265.5</ele><time>2026-04-20T15:46:26.49Z</time></trkpt><trkpt lat="43.3543306" lon="11.4381367"><ele>265.75</ele><time>2026-04-20T15:46:27.49Z</time></trkpt><trkpt lat="43.3544625" lon="11.4381151"><ele>266.0</ele><time>2026-04-20T15:46:28.49Z</time></trkpt><trkpt lat="43.3545987" lon="11.4381201"><ele>266.6666666666667</ele><time>2026-04-20T15:46:29.49Z</time></trkpt><trkpt lat="43.3547437" lon="11.4381288"><ele>267.3333333333333</ele><time>2026-04-20T15:46:30.49Z</time></trkpt><trkpt lat="43.3548963" lon="11.4381536"><ele>268.0</ele><time>2026-04-20T15:46:31.49Z</time></trkpt><trkpt lat="43.3550603" lon="11.4381959"><ele>268.0</ele><time>2026-04-20T15:46:32.49Z</time></trkpt><trkpt lat="43.3552284" lon="11.4382376"><ele>268.0</ele><time>2026-04-20T15:46:33.49Z</time></trkpt><trkpt lat="43.3553923" lon="11.4382677"><ele>268.0</ele><time>2026-04-20T15:46:34.49Z</time></trkpt><trkpt lat="43.3555474" lon="11.4383023"><ele>267.5</ele><time>2026-04-20T15:46:35.49Z</time></trkpt><trkpt lat="43.3556808" lon="11.4383351"><ele>267.0</ele><time>2026-04-20T15:46:36.49Z</time></trkpt><trkpt lat="43.3557976" lon="11.438368"><ele>266.5</ele><time>2026-04-20T15:46:37.49Z</time></trkpt><trkpt lat="43.3559018" lon="11.4384012"><ele>266.0</ele><time>2026-04-20T15:46:38.49Z</time></trkpt><trkpt lat="43.3560128" lon="11.4384367"><ele>266.0</ele><time>2026-04-20T15:46:39.49Z</time></trkpt><trkpt lat="43.3561358" lon="11.4384573"><ele>266.0</ele><time>2026-04-20T15:46:40.49Z</time></trkpt><trkpt lat="43.356278" lon="11.4384776"><ele>266.0</ele><time>2026-04-20T15:46:41.49Z</time></trkpt><trkpt lat="43.3564288" lon="11.4385029"><ele>266.0</ele><time>2026-04-20T15:46:42.491Z</time></trkpt><trkpt lat="43.3565725" lon="11.4385364"><ele>265.75</ele><time>2026-04-20T15:46:43.491Z</time></trkpt><trkpt lat="43.3567154" lon="11.4385644"><ele>265.5</ele><time>2026-04-20T15:46:44.491Z</time></trkpt><trkpt lat="43.3568589" lon="11.4385948"><ele>265.25</ele><time>2026-04-20T15:46:45.491Z</time></trkpt><trkpt lat="43.3570118" lon="11.4386124"><ele>265.0</ele><time>2026-04-20T15:46:46.491Z</time></trkpt><trkpt lat="43.3571772" lon="11.4386098"><ele>265.0</ele><time>2026-04-20T15:46:47.492Z</time></trkpt><trkpt lat="43.3573439" lon="11.438575"><ele>265.0</ele><time>2026-04-20T15:46:48.491Z</time></trkpt><trkpt lat="43.3575174" lon="11.4385144"><ele>265.0</ele><time>2026-04-20T15:46:49.491Z</time></trkpt><trkpt lat="43.3576902" lon="11.4384455"><ele>265.0</ele><time>2026-04-20T15:46:50.491Z</time></trkpt><trkpt lat="43.3578512" lon="11.4383878"><ele>265.0</ele><time>2026-04-20T15:46:51.491Z</time></trkpt><trkpt lat="43.357995" lon="11.4383367"><ele>265.0</ele><time>2026-04-20T15:46:52.491Z</time></trkpt><trkpt lat="43.3581213" lon="11.4382682"><ele>265.5</ele><time>2026-04-20T15:46:53.491Z</time></trkpt><trkpt lat="43.3582203" lon="11.4381594"><ele>266.0</ele><time>2026-04-20T15:46:54.491Z</time></trkpt><trkpt lat="43.3583022" lon="11.4380111"><ele>266.5</ele><time>2026-04-20T15:46:55.491Z</time></trkpt><trkpt lat="43.3583665" lon="11.4378388"><ele>267.0</ele><time>2026-04-20T15:46:56.491Z</time></trkpt><trkpt lat="43.3584131" lon="11.4376475"><ele>267.5</ele><time>2026-04-20T15:46:57.491Z</time></trkpt><trkpt lat="43.3584175" lon="11.4374643"><ele>268.0</ele><time>2026-04-20T15:46:58.491Z</time></trkpt><trkpt lat="43.3583971" lon="11.4372717"><ele>268.5</ele><time>2026-04-20T15:46:59.491Z</time></trkpt><trkpt lat="43.3583719" lon="11.4370843"><ele>269.0</ele><time>2026-04-20T15:47:00.492Z</time></trkpt><trkpt lat="43.3583504" lon="11.4368935"><ele>269.0</ele><time>2026-04-20T15:47:01.491Z</time></trkpt><trkpt lat="43.3583425" lon="11.4367115"><ele>269.0</ele><time>2026-04-20T15:47:02.491Z</time></trkpt><trkpt lat="43.3583623" lon="11.4365269"><ele>269.0</ele><time>2026-04-20T15:47:03.491Z</time></trkpt><trkpt lat="43.3583996" lon="11.4363195"><ele>269.0</ele><time>2026-04-20T15:47:04.491Z</time></trkpt><trkpt lat="43.3584379" lon="11.4361133"><ele>269.0</ele><time>2026-04-20T15:47:05.492Z</time></trkpt><trkpt lat="43.3584738" lon="11.4358968"><ele>269.0</ele><time>2026-04-20T15:47:06.491Z</time></trkpt><trkpt lat="43.3585157" lon="11.435679"><ele>269.0</ele><time>2026-04-20T15:47:07.491Z</time></trkpt><trkpt lat="43.3585767" lon="11.435467"><ele>269.6666666666667</ele><time>2026-04-20T15:47:08.491Z</time></trkpt><trkpt lat="43.358658" lon="11.4352616"><ele>270.3333333333333</ele><time>2026-04-20T15:47:09.491Z</time></trkpt><trkpt lat="43.358746" lon="11.4350533"><ele>271.0</ele><time>2026-04-20T15:47:10.491Z</time></trkpt><trkpt lat="43.3588315" lon="11.434845"><ele>268.3333333333333</ele><time>2026-04-20T15:47:11.491Z</time></trkpt><trkpt lat="43.3589047" lon="11.4346269"><ele>265.6666666666667</ele><time>2026-04-20T15:47:12.491Z</time></trkpt><trkpt lat="43.3589527" lon="11.4343953"><ele>263.0</ele><time>2026-04-20T15:47:13.491Z</time></trkpt><trkpt lat="43.3589679" lon="11.4341518"><ele>263.0</ele><time>2026-04-20T15:47:14.491Z</time></trkpt><trkpt lat="43.3589647" lon="11.4339018"><ele>263.0</ele><time>2026-04-20T15:47:15.491Z</time></trkpt><trkpt lat="43.3589408" lon="11.4336473"><ele>263.0</ele><time>2026-04-20T15:47:16.491Z</time></trkpt><trkpt lat="43.3589038" lon="11.4333948"><ele>263.0</ele><time>2026-04-20T15:47:17.491Z</time></trkpt><trkpt lat="43.35886" lon="11.4331372"><ele>263.0</ele><time>2026-04-20T15:47:18.491Z</time></trkpt><trkpt lat="43.3588292" lon="11.4328836"><ele>263.0</ele><time>2026-04-20T15:47:19.491Z</time></trkpt><trkpt lat="43.3588208" lon="11.4326408"><ele>263.0</ele><time>2026-04-20T15:47:20.491Z</time></trkpt><trkpt lat="43.3588303" lon="11.4324057"><ele>263.0</ele><time>2026-04-20T15:47:21.491Z</time></trkpt><trkpt lat="43.3588624" lon="11.4321685"><ele>263.0</ele><time>2026-04-20T15:47:22.491Z</time></trkpt><trkpt lat="43.3589052" lon="11.4319279"><ele>263.33333333333337</ele><time>2026-04-20T15:47:23.491Z</time></trkpt><trkpt lat="43.3589634" lon="11.4316943"><ele>263.6666666666667</ele><time>2026-04-20T15:47:24.492Z</time></trkpt><trkpt lat="43.3590219" lon="11.4314637"><ele>264.0</ele><time>2026-04-20T15:47:25.491Z</time></trkpt><trkpt lat="43.3590731" lon="11.4312337"><ele>264.0</ele><time>2026-04-20T15:47:26.491Z</time></trkpt><trkpt lat="43.3591024" lon="11.4310107"><ele>264.0</ele><time>2026-04-20T15:47:27.491Z</time></trkpt><trkpt lat="43.3591461" lon="11.4307856"><ele>264.0</ele><time>2026-04-20T15:47:28.491Z</time></trkpt><trkpt lat="43.3591837" lon="11.4305461"><ele>264.3333333333333</ele><time>2026-04-20T15:47:29.491Z</time></trkpt><trkpt lat="43.3592018" lon="11.4303037"><ele>264.66666666666663</ele><time>2026-04-20T15:47:30.491Z</time></trkpt><trkpt lat="43.3592014" lon="11.4300582"><ele>265.0</ele><time>2026-04-20T15:47:31.492Z</time></trkpt><trkpt lat="43.359178" lon="11.4298202"><ele>263.0</ele><time>2026-04-20T15:47:32.492Z</time></trkpt><trkpt lat="43.3591561" lon="11.4295842"><ele>261.0</ele><time>2026-04-20T15:47:33.492Z</time></trkpt><trkpt lat="43.3591203" lon="11.4293621"><ele>259.0</ele><time>2026-04-20T15:47:34.492Z</time></trkpt><trkpt lat="43.3590552" lon="11.4291451"><ele>259.0</ele><time>2026-04-20T15:47:35.492Z</time></trkpt><trkpt lat="43.3589837" lon="11.428936"><ele>259.0</ele><time>2026-04-20T15:47:36.492Z</time></trkpt><trkpt lat="43.3588945" lon="11.4287313"><ele>259.0</ele><time>2026-04-20T15:47:37.492Z</time></trkpt><trkpt lat="43.3587757" lon="11.4285533"><ele>261.66666666666663</ele><time>2026-04-20T15:47:38.493Z</time></trkpt><trkpt lat="43.3586417" lon="11.4283788"><ele>264.3333333333333</ele><time>2026-04-20T15:47:39.492Z</time></trkpt><trkpt lat="43.3585101" lon="11.4282084"><ele>267.0</ele><time>2026-04-20T15:47:40.492Z</time></trkpt><trkpt lat="43.3583859" lon="11.4280294"><ele>263.3333333333333</ele><time>2026-04-20T15:47:41.493Z</time></trkpt><trkpt lat="43.3582729" lon="11.4278381"><ele>259.66666666666663</ele><time>2026-04-20T15:47:42.492Z</time></trkpt><trkpt lat="43.3581641" lon="11.4276503"><ele>256.0</ele><time>2026-04-20T15:47:43.493Z</time></trkpt><trkpt lat="43.3580626" lon="11.4274648"><ele>255.0</ele><time>2026-04-20T15:47:44.492Z</time></trkpt><trkpt lat="43.3579591" lon="11.4272985"><ele>254.0</ele><time>2026-04-20T15:47:45.492Z</time></trkpt><trkpt lat="43.357834" lon="11.4271518"><ele>253.0</ele><time>2026-04-20T15:47:46.492Z</time></trkpt><trkpt lat="43.3576844" lon="11.4270397"><ele>253.0</ele><time>2026-04-20T15:47:47.492Z</time></trkpt><trkpt lat="43.3575164" lon="11.4269518"><ele>253.0</ele><time>2026-04-20T15:47:48.492Z</time></trkpt><trkpt lat="43.357346" lon="11.4268583"><ele>253.0</ele><time>2026-04-20T15:47:49.492Z</time></trkpt><trkpt lat="43.3571881" lon="11.426747"><ele>254.0</ele><time>2026-04-20T15:47:50.492Z</time></trkpt><trkpt lat="43.3570339" lon="11.4266452"><ele>255.0</ele><time>2026-04-20T15:47:51.493Z</time></trkpt><trkpt lat="43.3568859" lon="11.4265439"><ele>256.0</ele><time>2026-04-20T15:47:52.492Z</time></trkpt><trkpt lat="43.3567422" lon="11.4264348"><ele>252.66666666666666</ele><time>2026-04-20T15:47:53.492Z</time></trkpt><trkpt lat="43.3565857" lon="11.4263072"><ele>249.33333333333331</ele><time>2026-04-20T15:47:54.492Z</time></trkpt><trkpt lat="43.3564308" lon="11.4261607"><ele>246.0</ele><time>2026-04-20T15:47:55.493Z</time></trkpt><trkpt lat="43.3562845" lon="11.4259906"><ele>246.0</ele><time>2026-04-20T15:47:56.492Z</time></trkpt><trkpt lat="43.3561462" lon="11.4257972"><ele>246.0</ele><time>2026-04-20T15:47:57.492Z</time></trkpt><trkpt lat="43.3560169" lon="11.4255968"><ele>246.0</ele><time>2026-04-20T15:47:58.492Z</time></trkpt><trkpt lat="43.3558863" lon="11.4254125"><ele>244.0</ele><time>2026-04-20T15:47:59.492Z</time></trkpt><trkpt lat="43.3557555" lon="11.4252482"><ele>242.0</ele><time>2026-04-20T15:48:00.492Z</time></trkpt><trkpt lat="43.3556332" lon="11.4250929"><ele>240.0</ele><time>2026-04-20T15:48:01.492Z</time></trkpt><trkpt lat="43.3555082" lon="11.4249382"><ele>240.0</ele><time>2026-04-20T15:48:02.492Z</time></trkpt><trkpt lat="43.3553883" lon="11.424783"><ele>240.0</ele><time>2026-04-20T15:48:03.492Z</time></trkpt><trkpt lat="43.3552759" lon="11.4246318"><ele>240.0</ele><time>2026-04-20T15:48:04.492Z</time></trkpt><trkpt lat="43.3551703" lon="11.4244897"><ele>239.0</ele><time>2026-04-20T15:48:05.492Z</time></trkpt><trkpt lat="43.3550742" lon="11.4243535"><ele>238.0</ele><time>2026-04-20T15:48:06.492Z</time></trkpt><trkpt lat="43.3549912" lon="11.4242217"><ele>237.0</ele><time>2026-04-20T15:48:07.493Z</time></trkpt><trkpt lat="43.3549363" lon="11.4240809"><ele>236.0</ele><time>2026-04-20T15:48:08.493Z</time></trkpt><trkpt lat="43.3549258" lon="11.423923"><ele>235.0</ele><time>2026-04-20T15:48:09.493Z</time></trkpt><trkpt lat="43.3549572" lon="11.423755"><ele>234.0</ele><time>2026-04-20T15:48:10.492Z</time></trkpt><trkpt lat="43.3550022" lon="11.4236045"><ele>233.0</ele><time>2026-04-20T15:48:11.492Z</time></trkpt><trkpt lat="43.3550484" lon="11.4234359"><ele>232.0</ele><time>2026-04-20T15:48:12.492Z</time></trkpt><trkpt lat="43.3551059" lon="11.4232462"><ele>232.0</ele><time>2026-04-20T15:48:13.492Z</time></trkpt><trkpt lat="43.355151" lon="11.4230493"><ele>232.0</ele><time>2026-04-20T15:48:14.492Z</time></trkpt><trkpt lat="43.355192" lon="11.4228403"><ele>232.0</ele><time>2026-04-20T15:48:15.492Z</time></trkpt><trkpt lat="43.3552263" lon="11.422621"><ele>229.66666666666666</ele><time>2026-04-20T15:48:16.492Z</time></trkpt><trkpt lat="43.355259" lon="11.4223916"><ele>227.33333333333331</ele><time>2026-04-20T15:48:17.492Z</time></trkpt><trkpt lat="43.3552903" lon="11.4221574"><ele>225.0</ele><time>2026-04-20T15:48:18.493Z</time></trkpt><trkpt lat="43.3553144" lon="11.4219229"><ele>222.66666666666669</ele><time>2026-04-20T15:48:19.493Z</time></trkpt><trkpt lat="43.3553381" lon="11.4216918"><ele>220.33333333333334</ele><time>2026-04-20T15:48:20.493Z</time></trkpt><trkpt lat="43.355358" lon="11.4214661"><ele>218.0</ele><time>2026-04-20T15:48:21.493Z</time></trkpt><trkpt lat="43.3553806" lon="11.4212527"><ele>217.0</ele><time>2026-04-20T15:48:22.493Z</time></trkpt><trkpt lat="43.3554041" lon="11.4210542"><ele>216.0</ele><time>2026-04-20T15:48:23.493Z</time></trkpt><trkpt lat="43.3554357" lon="11.4208546"><ele>215.0</ele><time>2026-04-20T15:48:24.494Z</time></trkpt><trkpt lat="43.3554722" lon="11.4206457"><ele>215.33333333333334</ele><time>2026-04-20T15:48:25.494Z</time></trkpt><trkpt lat="43.3555122" lon="11.4204312"><ele>215.66666666666669</ele><time>2026-04-20T15:48:26.494Z</time></trkpt><trkpt lat="43.355558" lon="11.4202224"><ele>216.0</ele><time>2026-04-20T15:48:27.493Z</time></trkpt><trkpt lat="43.3555989" lon="11.4200215"><ele>216.0</ele><time>2026-04-20T15:48:28.493Z</time></trkpt><trkpt lat="43.3556458" lon="11.4198251"><ele>216.0</ele><time>2026-04-20T15:48:29.494Z</time></trkpt><trkpt lat="43.3557047" lon="11.4196339"><ele>216.0</ele><time>2026-04-20T15:48:30.493Z</time></trkpt><trkpt lat="43.3557756" lon="11.4194408"><ele>216.0</ele><time>2026-04-20T15:48:31.493Z</time></trkpt><trkpt lat="43.355857" lon="11.4192513"><ele>216.0</ele><time>2026-04-20T15:48:32.493Z</time></trkpt><trkpt lat="43.3559454" lon="11.4190684"><ele>216.0</ele><time>2026-04-20T15:48:33.494Z</time></trkpt><trkpt lat="43.3560362" lon="11.4188877"><ele>216.66666666666669</ele><time>2026-04-20T15:48:34.493Z</time></trkpt><trkpt lat="43.3561297" lon="11.4187013"><ele>217.33333333333334</ele><time>2026-04-20T15:48:35.493Z</time></trkpt><trkpt lat="43.3562196" lon="11.4185068"><ele>218.0</ele><time>2026-04-20T15:48:36.493Z</time></trkpt><trkpt lat="43.3563123" lon="11.4183111"><ele>217.66666666666669</ele><time>2026-04-20T15:48:37.493Z</time></trkpt><trkpt lat="43.3564065" lon="11.4181132"><ele>217.33333333333331</ele><time>2026-04-20T15:48:38.493Z</time></trkpt><trkpt lat="43.3564946" lon="11.4179273"><ele>217.0</ele><time>2026-04-20T15:48:39.493Z</time></trkpt><trkpt lat="43.3565729" lon="11.417763"><ele>217.5</ele><time>2026-04-20T15:48:40.494Z</time></trkpt><trkpt lat="43.3566489" lon="11.4176105"><ele>218.0</ele><time>2026-04-20T15:48:41.493Z</time></trkpt><trkpt lat="43.3567146" lon="11.4174683"><ele>218.5</ele><time>2026-04-20T15:48:42.493Z</time></trkpt><trkpt lat="43.35677" lon="11.4173358"><ele>219.0</ele><time>2026-04-20T15:48:43.493Z</time></trkpt><trkpt lat="43.3568148" lon="11.4172092"><ele>219.0</ele><time>2026-04-20T15:48:44.493Z</time></trkpt><trkpt lat="43.3568448" lon="11.4170878"><ele>218.99999999999997</ele><time>2026-04-20T15:48:45.493Z</time></trkpt><trkpt lat="43.3568569" lon="11.4169899"><ele>218.99999999999997</ele><time>2026-04-20T15:48:46.494Z</time></trkpt><trkpt lat="43.3568731" lon="11.4168571"><ele>219.0</ele><time>2026-04-20T15:48:48.493Z</time></trkpt><trkpt lat="43.3568923" lon="11.416742"><ele>219.0</ele><time>2026-04-20T15:48:52.493Z</time></trkpt><trkpt lat="43.3568218" lon="11.4165742"><ele>219.0</ele><time>2026-04-20T15:48:54.493Z</time></trkpt><trkpt lat="43.356759" lon="11.4164774"><ele>218.99999999999997</ele><time>2026-04-20T15:48:55.493Z</time></trkpt><trkpt lat="43.3566876" lon="11.4163677"><ele>218.99999999999997</ele><time>2026-04-20T15:48:56.494Z</time></trkpt><trkpt lat="43.356612" lon="11.4162438"><ele>219.0</ele><time>2026-04-20T15:48:57.494Z</time></trkpt><trkpt lat="43.3565396" lon="11.4161207"><ele>219.0</ele><time>2026-04-20T15:48:58.493Z</time></trkpt><trkpt lat="43.3564721" lon="11.4160064"><ele>219.39999999999998</ele><time>2026-04-20T15:48:59.493Z</time></trkpt><trkpt lat="43.3564105" lon="11.4159107"><ele>219.79999999999998</ele><time>2026-04-20T15:49:00.493Z</time></trkpt><trkpt lat="43.3563553" lon="11.4158207"><ele>220.20000000000002</ele><time>2026-04-20T15:49:01.493Z</time></trkpt><trkpt lat="43.3563309" lon="11.4157105"><ele>220.60000000000002</ele><time>2026-04-20T15:49:02.493Z</time></trkpt><trkpt lat="43.3563366" lon="11.4155724"><ele>221.0</ele><time>2026-04-20T15:49:03.493Z</time></trkpt><trkpt lat="43.3563714" lon="11.4154143"><ele>222.5</ele><time>2026-04-20T15:49:04.493Z</time></trkpt><trkpt lat="43.35641" lon="11.415251"><ele>224.0</ele><time>2026-04-20T15:49:05.493Z</time></trkpt><trkpt lat="43.3564432" lon="11.4150918"><ele>225.5</ele><time>2026-04-20T15:49:06.493Z</time></trkpt><trkpt lat="43.3564759" lon="11.4149305"><ele>227.0</ele><time>2026-04-20T15:49:07.494Z</time></trkpt><trkpt lat="43.3565089" lon="11.4147858"><ele>227.0</ele><time>2026-04-20T15:49:08.494Z</time></trkpt><trkpt lat="43.3565377" lon="11.4146586"><ele>227.0</ele><time>2026-04-20T15:49:09.494Z</time></trkpt><trkpt lat="43.3565635" lon="11.4145438"><ele>227.0</ele><time>2026-04-20T15:49:10.494Z</time></trkpt><trkpt lat="43.3565914" lon="11.4144252"><ele>227.0</ele><time>2026-04-20T15:49:11.494Z</time></trkpt><trkpt lat="43.3566199" lon="11.4143009"><ele>227.0</ele><time>2026-04-20T15:49:12.494Z</time></trkpt><trkpt lat="43.3566502" lon="11.41417"><ele>227.8</ele><time>2026-04-20T15:49:13.494Z</time></trkpt><trkpt lat="43.356683" lon="11.4140365"><ele>228.6</ele><time>2026-04-20T15:49:14.494Z</time></trkpt><trkpt lat="43.3567206" lon="11.4138962"><ele>229.40000000000003</ele><time>2026-04-20T15:49:15.495Z</time></trkpt><trkpt lat="43.3567551" lon="11.4137603"><ele>230.20000000000002</ele><time>2026-04-20T15:49:16.494Z</time></trkpt><trkpt lat="43.3567907" lon="11.4136208"><ele>231.0</ele><time>2026-04-20T15:49:17.494Z</time></trkpt><trkpt lat="43.3568313" lon="11.4134752"><ele>231.75</ele><time>2026-04-20T15:49:18.495Z</time></trkpt><trkpt lat="43.3568735" lon="11.4133304"><ele>232.5</ele><time>2026-04-20T15:49:19.494Z</time></trkpt><trkpt lat="43.3569176" lon="11.4131851"><ele>233.25</ele><time>2026-04-20T15:49:20.494Z</time></trkpt><trkpt lat="43.3569646" lon="11.4130415"><ele>234.0</ele><time>2026-04-20T15:49:21.494Z</time></trkpt><trkpt lat="43.3570135" lon="11.4129015"><ele>234.6</ele><time>2026-04-20T15:49:22.495Z</time></trkpt><trkpt lat="43.3570651" lon="11.4127676"><ele>235.2</ele><time>2026-04-20T15:49:23.494Z</time></trkpt><trkpt lat="43.3571227" lon="11.4126334"><ele>235.79999999999998</ele><time>2026-04-20T15:49:24.495Z</time></trkpt><trkpt lat="43.3571856" lon="11.4125116"><ele>236.39999999999998</ele><time>2026-04-20T15:49:25.494Z</time></trkpt><trkpt lat="43.3572557" lon="11.412412"><ele>237.0</ele><time>2026-04-20T15:49:26.494Z</time></trkpt><trkpt lat="43.3573335" lon="11.4123389"><ele>237.83333333333334</ele><time>2026-04-20T15:49:27.494Z</time></trkpt><trkpt lat="43.3574127" lon="11.4122861"><ele>238.66666666666669</ele><time>2026-04-20T15:49:28.494Z</time></trkpt><trkpt lat="43.3574898" lon="11.4122524"><ele>239.5</ele><time>2026-04-20T15:49:29.494Z</time></trkpt><trkpt lat="43.3575676" lon="11.4122429"><ele>240.33333333333334</ele><time>2026-04-20T15:49:30.494Z</time></trkpt><trkpt lat="43.3576543" lon="11.4122466"><ele>241.16666666666669</ele><time>2026-04-20T15:49:31.494Z</time></trkpt><trkpt lat="43.3577469" lon="11.412272"><ele>242.0</ele><time>2026-04-20T15:49:32.494Z</time></trkpt><trkpt lat="43.3578371" lon="11.4123125"><ele>242.0</ele><time>2026-04-20T15:49:33.494Z</time></trkpt><trkpt lat="43.3579244" lon="11.4123521"><ele>242.0</ele><time>2026-04-20T15:49:34.494Z</time></trkpt><trkpt lat="43.3580108" lon="11.4123894"><ele>242.0</ele><time>2026-04-20T15:49:35.494Z</time></trkpt><trkpt lat="43.3580998" lon="11.4124203"><ele>242.0</ele><time>2026-04-20T15:49:36.494Z</time></trkpt><trkpt lat="43.3581939" lon="11.4124477"><ele>242.0</ele><time>2026-04-20T15:49:37.494Z</time></trkpt><trkpt lat="43.358291" lon="11.4124546"><ele>243.0</ele><time>2026-04-20T15:49:38.494Z</time></trkpt><trkpt lat="43.3583873" lon="11.4124529"><ele>244.0</ele><time>2026-04-20T15:49:39.494Z</time></trkpt><trkpt lat="43.3584853" lon="11.4124444"><ele>245.0</ele><time>2026-04-20T15:49:40.494Z</time></trkpt><trkpt lat="43.3585809" lon="11.4124342"><ele>246.0</ele><time>2026-04-20T15:49:41.494Z</time></trkpt><trkpt lat="43.3586669" lon="11.4124169"><ele>247.0</ele><time>2026-04-20T15:49:42.494Z</time></trkpt><trkpt lat="43.3587451" lon="11.4123895"><ele>246.99999999999997</ele><time>2026-04-20T15:49:43.494Z</time></trkpt><trkpt lat="43.3588186" lon="11.4123476"><ele>247.0</ele><time>2026-04-20T15:49:44.494Z</time></trkpt><trkpt lat="43.3588849" lon="11.4122905"><ele>247.0</ele><time>2026-04-20T15:49:45.494Z</time></trkpt><trkpt lat="43.3589389" lon="11.4122198"><ele>247.0</ele><time>2026-04-20T15:49:46.494Z</time></trkpt><trkpt lat="43.3589812" lon="11.4121357"><ele>246.99999999999997</ele><time>2026-04-20T15:49:47.494Z</time></trkpt><trkpt lat="43.3590092" lon="11.4120477"><ele>247.0</ele><time>2026-04-20T15:49:48.495Z</time></trkpt><trkpt lat="43.3590203" lon="11.4119373"><ele>248.83333333333331</ele><time>2026-04-20T15:49:49.494Z</time></trkpt><trkpt lat="43.3590167" lon="11.4118215"><ele>250.66666666666666</ele><time>2026-04-20T15:49:50.494Z</time></trkpt><trkpt lat="43.3590114" lon="11.4116972"><ele>252.5</ele><time>2026-04-20T15:49:51.494Z</time></trkpt><trkpt lat="43.3590066" lon="11.4115753"><ele>254.33333333333331</ele><time>2026-04-20T15:49:52.494Z</time></trkpt><trkpt lat="43.3590041" lon="11.4114611"><ele>256.1666666666667</ele><time>2026-04-20T15:49:53.494Z</time></trkpt><trkpt lat="43.3590092" lon="11.4113446"><ele>258.0</ele><time>2026-04-20T15:49:54.494Z</time></trkpt><trkpt lat="43.359026" lon="11.4112258"><ele>259.0</ele><time>2026-04-20T15:49:55.495Z</time></trkpt><trkpt lat="43.3590598" lon="11.411115"><ele>260.0</ele><time>2026-04-20T15:49:56.496Z</time></trkpt><trkpt lat="43.3591021" lon="11.4110216"><ele>261.0</ele><time>2026-04-20T15:49:57.495Z</time></trkpt><trkpt lat="43.359148" lon="11.4109594"><ele>262.0</ele><time>2026-04-20T15:49:58.495Z</time></trkpt><trkpt lat="43.3592688" lon="11.4109106"><ele>263.0</ele><time>2026-04-20T15:50:00.495Z</time></trkpt><trkpt lat="43.3593384" lon="11.4109207"><ele>264.0</ele><time>2026-04-20T15:50:01.495Z</time></trkpt><trkpt lat="43.3593999" lon="11.4109554"><ele>264.0</ele><time>2026-04-20T15:50:02.495Z</time></trkpt><trkpt lat="43.359448" lon="11.411016"><ele>264.0</ele><time>2026-04-20T15:50:03.496Z</time></trkpt><trkpt lat="43.3594837" lon="11.4110878"><ele>264.0</ele><time>2026-04-20T15:50:04.495Z</time></trkpt><trkpt lat="43.3595279" lon="11.411241"><ele>264.0</ele><time>2026-04-20T15:50:06.495Z</time></trkpt><trkpt lat="43.3595519" lon="11.4113375"><ele>264.0</ele><time>2026-04-20T15:50:07.495Z</time></trkpt><trkpt lat="43.3595759" lon="11.4114424"><ele>264.0</ele><time>2026-04-20T15:50:08.495Z</time></trkpt><trkpt lat="43.3595944" lon="11.411549"><ele>263.0</ele><time>2026-04-20T15:50:09.495Z</time></trkpt><trkpt lat="43.3596056" lon="11.4116585"><ele>262.0</ele><time>2026-04-20T15:50:10.495Z</time></trkpt><trkpt lat="43.3596146" lon="11.4117653"><ele>261.0</ele><time>2026-04-20T15:50:11.495Z</time></trkpt><trkpt lat="43.3596375" lon="11.4118674"><ele>260.0</ele><time>2026-04-20T15:50:12.495Z</time></trkpt><trkpt lat="43.3596694" lon="11.411947"><ele>259.0</ele><time>2026-04-20T15:50:13.495Z</time></trkpt><trkpt lat="43.3597563" lon="11.4120592"><ele>258.0</ele><time>2026-04-20T15:50:15.495Z</time></trkpt><trkpt lat="43.3598734" lon="11.4120894"><ele>260.4</ele><time>2026-04-20T15:50:17.495Z</time></trkpt><trkpt lat="43.3599614" lon="11.412016"><ele>262.8</ele><time>2026-04-20T15:50:19.495Z</time></trkpt><trkpt lat="43.3599866" lon="11.4118546"><ele>265.2</ele><time>2026-04-20T15:50:21.495Z</time></trkpt><trkpt lat="43.3599701" lon="11.4117595"><ele>267.6</ele><time>2026-04-20T15:50:22.495Z</time></trkpt><trkpt lat="43.3599444" lon="11.4116752"><ele>270.0</ele><time>2026-04-20T15:50:23.495Z</time></trkpt><trkpt lat="43.359907" lon="11.4115171"><ele>270.0</ele><time>2026-04-20T15:50:25.495Z</time></trkpt><trkpt lat="43.359906" lon="11.4114286"><ele>270.0</ele><time>2026-04-20T15:50:26.495Z</time></trkpt><trkpt lat="43.3599242" lon="11.411341"><ele>270.0</ele><time>2026-04-20T15:50:27.495Z</time></trkpt><trkpt lat="43.3599528" lon="11.4112569"><ele>270.0</ele><time>2026-04-20T15:50:28.495Z</time></trkpt><trkpt lat="43.3600254" lon="11.4111263"><ele>270.0</ele><time>2026-04-20T15:50:30.495Z</time></trkpt><trkpt lat="43.3601074" lon="11.4110387"><ele>270.0</ele><time>2026-04-20T15:50:32.495Z</time></trkpt><trkpt lat="43.360206" lon="11.4109793"><ele>270.0</ele><time>2026-04-20T15:50:34.495Z</time></trkpt><trkpt lat="43.3603115" lon="11.4109274"><ele>270.0</ele><time>2026-04-20T15:50:36.496Z</time></trkpt><trkpt lat="43.3603741" lon="11.4108962"><ele>270.0</ele><time>2026-04-20T15:50:37.495Z</time></trkpt><trkpt lat="43.360438" lon="11.4108647"><ele>270.0</ele><time>2026-04-20T15:50:38.495Z</time></trkpt><trkpt lat="43.3605066" lon="11.4108333"><ele>270.0</ele><time>2026-04-20T15:50:39.495Z</time></trkpt><trkpt lat="43.3605793" lon="11.4108031"><ele>270.0</ele><time>2026-04-20T15:50:40.495Z</time></trkpt><trkpt lat="43.3606514" lon="11.4107722"><ele>271.1428571428571</ele><time>2026-04-20T15:50:41.496Z</time></trkpt><trkpt lat="43.3607174" lon="11.4107289"><ele>272.2857142857143</ele><time>2026-04-20T15:50:42.495Z</time></trkpt><trkpt lat="43.360776" lon="11.4106772"><ele>273.42857142857144</ele><time>2026-04-20T15:50:43.496Z</time></trkpt><trkpt lat="43.3608254" lon="11.4106123"><ele>274.57142857142856</ele><time>2026-04-20T15:50:44.496Z</time></trkpt><trkpt lat="43.3608631" lon="11.4105288"><ele>275.7142857142857</ele><time>2026-04-20T15:50:45.497Z</time></trkpt><trkpt lat="43.3608892" lon="11.4104357"><ele>276.85714285714283</ele><time>2026-04-20T15:50:46.496Z</time></trkpt><trkpt lat="43.3609036" lon="11.4103322"><ele>278.0</ele><time>2026-04-20T15:50:47.496Z</time></trkpt><trkpt lat="43.3609007" lon="11.4102127"><ele>278.5</ele><time>2026-04-20T15:50:48.496Z</time></trkpt><trkpt lat="43.360886" lon="11.4100988"><ele>279.0</ele><time>2026-04-20T15:50:49.496Z</time></trkpt><trkpt lat="43.3608558" lon="11.4099886"><ele>279.5</ele><time>2026-04-20T15:50:50.496Z</time></trkpt><trkpt lat="43.3608165" lon="11.4098846"><ele>280.0</ele><time>2026-04-20T15:50:51.496Z</time></trkpt><trkpt lat="43.3607733" lon="11.4097858"><ele>280.5</ele><time>2026-04-20T15:50:52.496Z</time></trkpt><trkpt lat="43.3607301" lon="11.4096832"><ele>281.0</ele><time>2026-04-20T15:50:53.496Z</time></trkpt><trkpt lat="43.3606886" lon="11.4095774"><ele>280.8</ele><time>2026-04-20T15:50:54.496Z</time></trkpt><trkpt lat="43.3606496" lon="11.4094613"><ele>280.6</ele><time>2026-04-20T15:50:55.496Z</time></trkpt><trkpt lat="43.3606056" lon="11.4093585"><ele>280.4</ele><time>2026-04-20T15:50:56.496Z</time></trkpt><trkpt lat="43.3605546" lon="11.4092584"><ele>280.2</ele><time>2026-04-20T15:50:57.497Z</time></trkpt><trkpt lat="43.3604969" lon="11.4091553"><ele>280.0</ele><time>2026-04-20T15:50:58.496Z</time></trkpt><trkpt lat="43.3604356" lon="11.4090495"><ele>280.0</ele><time>2026-04-20T15:50:59.496Z</time></trkpt><trkpt lat="43.3603735" lon="11.4089443"><ele>280.0</ele><time>2026-04-20T15:51:00.496Z</time></trkpt><trkpt lat="43.3603059" lon="11.4088447"><ele>280.0</ele><time>2026-04-20T15:51:01.496Z</time></trkpt><trkpt lat="43.3602291" lon="11.408756"><ele>280.0</ele><time>2026-04-20T15:51:02.496Z</time></trkpt><trkpt lat="43.3601432" lon="11.4086805"><ele>280.0</ele><time>2026-04-20T15:51:03.496Z</time></trkpt><trkpt lat="43.3600476" lon="11.408607"><ele>281.8</ele><time>2026-04-20T15:51:04.496Z</time></trkpt><trkpt lat="43.3599497" lon="11.4085339"><ele>283.6</ele><time>2026-04-20T15:51:05.496Z</time></trkpt><trkpt lat="43.3598524" lon="11.4084659"><ele>285.4</ele><time>2026-04-20T15:51:06.496Z</time></trkpt><trkpt lat="43.3597612" lon="11.4084006"><ele>287.2</ele><time>2026-04-20T15:51:07.496Z</time></trkpt><trkpt lat="43.359679" lon="11.4083422"><ele>289.0</ele><time>2026-04-20T15:51:08.497Z</time></trkpt><trkpt lat="43.359611" lon="11.408293"><ele>289.0</ele><time>2026-04-20T15:51:09.496Z</time></trkpt><trkpt lat="43.3595515" lon="11.4082475"><ele>289.0</ele><time>2026-04-20T15:51:10.496Z</time></trkpt><trkpt lat="43.3595045" lon="11.4081898"><ele>289.0</ele><time>2026-04-20T15:51:11.496Z</time></trkpt><trkpt lat="43.3594638" lon="11.4080342"><ele>289.0</ele><time>2026-04-20T15:51:13.496Z</time></trkpt><trkpt lat="43.359459" lon="11.4079465"><ele>289.0</ele><time>2026-04-20T15:51:14.497Z</time></trkpt><trkpt lat="43.3594619" lon="11.4078593"><ele>289.0</ele><time>2026-04-20T15:51:15.496Z</time></trkpt><trkpt lat="43.3594746" lon="11.4077726"><ele>289.0</ele><time>2026-04-20T15:51:16.496Z</time></trkpt><trkpt lat="43.359502" lon="11.4076878"><ele>290.0</ele><time>2026-04-20T15:51:17.497Z</time></trkpt><trkpt lat="43.3595465" lon="11.4076041"><ele>291.0</ele><time>2026-04-20T15:51:18.496Z</time></trkpt><trkpt lat="43.3596024" lon="11.4075287"><ele>292.0</ele><time>2026-04-20T15:51:19.496Z</time></trkpt><trkpt lat="43.3596645" lon="11.4074637"><ele>293.0</ele><time>2026-04-20T15:51:20.496Z</time></trkpt><trkpt lat="43.3597314" lon="11.4074166"><ele>294.0</ele><time>2026-04-20T15:51:21.497Z</time></trkpt><trkpt lat="43.3598042" lon="11.4073851"><ele>295.0</ele><time>2026-04-20T15:51:22.496Z</time></trkpt><trkpt lat="43.3598788" lon="11.4073744"><ele>295.0</ele><time>2026-04-20T15:51:23.496Z</time></trkpt><trkpt lat="43.3599572" lon="11.4073896"><ele>295.0</ele><time>2026-04-20T15:51:24.497Z</time></trkpt><trkpt lat="43.3600384" lon="11.4074193"><ele>295.0</ele><time>2026-04-20T15:51:25.497Z</time></trkpt><trkpt lat="43.3601218" lon="11.4074489"><ele>295.0</ele><time>2026-04-20T15:51:26.496Z</time></trkpt><trkpt lat="43.3602097" lon="11.4074784"><ele>295.0</ele><time>2026-04-20T15:51:27.496Z</time></trkpt><trkpt lat="43.3602962" lon="11.4075041"><ele>295.0</ele><time>2026-04-20T15:51:28.496Z</time></trkpt><trkpt lat="43.3603865" lon="11.4075293"><ele>295.0</ele><time>2026-04-20T15:51:29.497Z</time></trkpt><trkpt lat="43.360478" lon="11.4075513"><ele>295.0</ele><time>2026-04-20T15:51:30.497Z</time></trkpt><trkpt lat="43.3605705" lon="11.4075705"><ele>295.0</ele><time>2026-04-20T15:51:31.497Z</time></trkpt><trkpt lat="43.3606623" lon="11.4075847"><ele>295.0</ele><time>2026-04-20T15:51:32.498Z</time></trkpt><trkpt lat="43.360753" lon="11.4075933"><ele>295.0</ele><time>2026-04-20T15:51:33.497Z</time></trkpt><trkpt lat="43.3608429" lon="11.4075967"><ele>295.6</ele><time>2026-04-20T15:51:34.497Z</time></trkpt><trkpt lat="43.3609352" lon="11.4075952"><ele>296.2</ele><time>2026-04-20T15:51:35.498Z</time></trkpt><trkpt lat="43.3610299" lon="11.4075879"><ele>296.8</ele><time>2026-04-20T15:51:36.497Z</time></trkpt><trkpt lat="43.3611274" lon="11.4075754"><ele>297.4</ele><time>2026-04-20T15:51:37.497Z</time></trkpt><trkpt lat="43.361226" lon="11.4075605"><ele>298.0</ele><time>2026-04-20T15:51:38.497Z</time></trkpt><trkpt lat="43.3613249" lon="11.4075448"><ele>299.6</ele><time>2026-04-20T15:51:39.497Z</time></trkpt><trkpt lat="43.3614237" lon="11.4075258"><ele>301.20000000000005</ele><time>2026-04-20T15:51:40.497Z</time></trkpt><trkpt lat="43.3615229" lon="11.4075041"><ele>302.8</ele><time>2026-04-20T15:51:41.497Z</time></trkpt><trkpt lat="43.3616222" lon="11.4074792"><ele>304.40000000000003</ele><time>2026-04-20T15:51:42.497Z</time></trkpt><trkpt lat="43.3617221" lon="11.4074501"><ele>306.0</ele><time>2026-04-20T15:51:43.497Z</time></trkpt><trkpt lat="43.3618221" lon="11.4074205"><ele>306.0</ele><time>2026-04-20T15:51:44.498Z</time></trkpt><trkpt lat="43.3619193" lon="11.4073894"><ele>306.0</ele><time>2026-04-20T15:51:45.497Z</time></trkpt><trkpt lat="43.3620172" lon="11.4073572"><ele>306.0</ele><time>2026-04-20T15:51:46.498Z</time></trkpt><trkpt lat="43.3621253" lon="11.4073252"><ele>306.0</ele><time>2026-04-20T15:51:47.497Z</time></trkpt><trkpt lat="43.3622447" lon="11.4072906"><ele>306.0</ele><time>2026-04-20T15:51:48.497Z</time></trkpt><trkpt lat="43.3623758" lon="11.4072513"><ele>307.25</ele><time>2026-04-20T15:51:49.498Z</time></trkpt><trkpt lat="43.3625192" lon="11.4072018"><ele>308.5</ele><time>2026-04-20T15:51:50.497Z</time></trkpt><trkpt lat="43.3626649" lon="11.4071461"><ele>309.75</ele><time>2026-04-20T15:51:51.497Z</time></trkpt><trkpt lat="43.3627963" lon="11.4070877"><ele>311.0</ele><time>2026-04-20T15:51:52.497Z</time></trkpt><trkpt lat="43.3629033" lon="11.407038"><ele>311.0</ele><time>2026-04-20T15:51:53.498Z</time></trkpt><trkpt lat="43.3629952" lon="11.4069887"><ele>311.0</ele><time>2026-04-20T15:51:54.498Z</time></trkpt><trkpt lat="43.3630798" lon="11.4069335"><ele>311.0</ele><time>2026-04-20T15:51:55.498Z</time></trkpt><trkpt lat="43.3631734" lon="11.4068751"><ele>311.0</ele><time>2026-04-20T15:51:56.497Z</time></trkpt><trkpt lat="43.3632724" lon="11.4068145"><ele>311.0</ele><time>2026-04-20T15:51:57.497Z</time></trkpt><trkpt lat="43.3633745" lon="11.4067511"><ele>313.0</ele><time>2026-04-20T15:51:58.498Z</time></trkpt><trkpt lat="43.3634769" lon="11.4066855"><ele>315.0</ele><time>2026-04-20T15:51:59.498Z</time></trkpt><trkpt lat="43.3635799" lon="11.4066214"><ele>317.0</ele><time>2026-04-20T15:52:00.497Z</time></trkpt><trkpt lat="43.3636816" lon="11.4065543"><ele>319.0</ele><time>2026-04-20T15:52:01.498Z</time></trkpt><trkpt lat="43.3637823" lon="11.4064828"><ele>321.25</ele><time>2026-04-20T15:52:02.497Z</time></trkpt><trkpt lat="43.3638829" lon="11.4064106"><ele>323.5</ele><time>2026-04-20T15:52:03.497Z</time></trkpt><trkpt lat="43.3639836" lon="11.4063389"><ele>325.75</ele><time>2026-04-20T15:52:04.497Z</time></trkpt><trkpt lat="43.3640844" lon="11.4062671"><ele>328.0</ele><time>2026-04-20T15:52:05.497Z</time></trkpt><trkpt lat="43.3641845" lon="11.4061969"><ele>328.16666666666663</ele><time>2026-04-20T15:52:06.497Z</time></trkpt><trkpt lat="43.3642832" lon="11.4061301"><ele>328.3333333333333</ele><time>2026-04-20T15:52:07.497Z</time></trkpt><trkpt lat="43.3643758" lon="11.40607"><ele>328.5</ele><time>2026-04-20T15:52:08.498Z</time></trkpt><trkpt lat="43.3644554" lon="11.406022"><ele>328.6666666666667</ele><time>2026-04-20T15:52:09.498Z</time></trkpt><trkpt lat="43.36453" lon="11.4059865"><ele>328.83333333333337</ele><time>2026-04-20T15:52:10.497Z</time></trkpt><trkpt lat="43.3645954" lon="11.4059786"><ele>329.0</ele><time>2026-04-20T15:52:11.497Z</time></trkpt><trkpt lat="43.3646571" lon="11.406006"><ele>330.6666666666667</ele><time>2026-04-20T15:52:12.497Z</time></trkpt><trkpt lat="43.3647204" lon="11.4060701"><ele>332.33333333333337</ele><time>2026-04-20T15:52:13.497Z</time></trkpt><trkpt lat="43.3647747" lon="11.406157"><ele>334.0</ele><time>2026-04-20T15:52:14.498Z</time></trkpt><trkpt lat="43.3648258" lon="11.4062474"><ele>335.6666666666667</ele><time>2026-04-20T15:52:15.497Z</time></trkpt><trkpt lat="43.3648783" lon="11.4063347"><ele>337.3333333333333</ele><time>2026-04-20T15:52:16.498Z</time></trkpt><trkpt lat="43.3649283" lon="11.406405"><ele>339.0</ele><time>2026-04-20T15:52:17.498Z</time></trkpt><trkpt lat="43.365039" lon="11.4064918"><ele>339.0</ele><time>2026-04-20T15:52:19.497Z</time></trkpt><trkpt lat="43.3651017" lon="11.4065041"><ele>339.0</ele><time>2026-04-20T15:52:20.498Z</time></trkpt><trkpt lat="43.3651695" lon="11.4065031"><ele>339.0</ele><time>2026-04-20T15:52:21.498Z</time></trkpt><trkpt lat="43.3652486" lon="11.4064759"><ele>339.0</ele><time>2026-04-20T15:52:22.498Z</time></trkpt><trkpt lat="43.365338" lon="11.4064309"><ele>339.0</ele><time>2026-04-20T15:52:23.498Z</time></trkpt><trkpt lat="43.3654307" lon="11.4063855"><ele>339.0</ele><time>2026-04-20T15:52:24.498Z</time></trkpt><trkpt lat="43.3655326" lon="11.4063418"><ele>339.8333333333333</ele><time>2026-04-20T15:52:25.498Z</time></trkpt><trkpt lat="43.3656332" lon="11.4063063"><ele>340.6666666666667</ele><time>2026-04-20T15:52:26.498Z</time></trkpt><trkpt lat="43.3657255" lon="11.4062729"><ele>341.5</ele><time>2026-04-20T15:52:27.498Z</time></trkpt><trkpt lat="43.3658082" lon="11.4062378"><ele>342.33333333333337</ele><time>2026-04-20T15:52:28.498Z</time></trkpt><trkpt lat="43.3658785" lon="11.4061924"><ele>343.1666666666667</ele><time>2026-04-20T15:52:29.498Z</time></trkpt><trkpt lat="43.3659399" lon="11.4061248"><ele>344.0</ele><time>2026-04-20T15:52:30.498Z</time></trkpt><trkpt lat="43.3659918" lon="11.4060343"><ele>344.0</ele><time>2026-04-20T15:52:31.498Z</time></trkpt><trkpt lat="43.3660332" lon="11.4059114"><ele>344.0</ele><time>2026-04-20T15:52:32.498Z</time></trkpt><trkpt lat="43.3660742" lon="11.4057765"><ele>344.0</ele><time>2026-04-20T15:52:33.498Z</time></trkpt><trkpt lat="43.3661205" lon="11.4056464"><ele>344.0</ele><time>2026-04-20T15:52:34.498Z</time></trkpt><trkpt lat="43.3661722" lon="11.4055216"><ele>344.0</ele><time>2026-04-20T15:52:35.498Z</time></trkpt><trkpt lat="43.3662265" lon="11.4053976"><ele>344.0</ele><time>2026-04-20T15:52:36.498Z</time></trkpt><trkpt lat="43.36628" lon="11.4052739"><ele>344.0</ele><time>2026-04-20T15:52:37.498Z</time></trkpt><trkpt lat="43.3663305" lon="11.4051483"><ele>344.0</ele><time>2026-04-20T15:52:38.499Z</time></trkpt><trkpt lat="43.3663768" lon="11.405022"><ele>344.0</ele><time>2026-04-20T15:52:39.498Z</time></trkpt><trkpt lat="43.3664261" lon="11.4048958"><ele>344.0</ele><time>2026-04-20T15:52:40.498Z</time></trkpt><trkpt lat="43.3664845" lon="11.4047719"><ele>345.25</ele><time>2026-04-20T15:52:41.498Z</time></trkpt><trkpt lat="43.3665542" lon="11.4046575"><ele>346.5</ele><time>2026-04-20T15:52:42.498Z</time></trkpt><trkpt lat="43.3666341" lon="11.4045522"><ele>347.75</ele><time>2026-04-20T15:52:43.498Z</time></trkpt><trkpt lat="43.3667248" lon="11.4044537"><ele>349.0</ele><time>2026-04-20T15:52:44.498Z</time></trkpt><trkpt lat="43.3668257" lon="11.4043715"><ele>349.0</ele><time>2026-04-20T15:52:45.499Z</time></trkpt><trkpt lat="43.3669351" lon="11.4043108"><ele>349.0</ele><time>2026-04-20T15:52:46.498Z</time></trkpt><trkpt lat="43.3670543" lon="11.4042731"><ele>349.0</ele><time>2026-04-20T15:52:47.498Z</time></trkpt><trkpt lat="43.3671782" lon="11.4042507"><ele>349.0</ele><time>2026-04-20T15:52:48.498Z</time></trkpt><trkpt lat="43.3673026" lon="11.4042454"><ele>349.0</ele><time>2026-04-20T15:52:49.498Z</time></trkpt><trkpt lat="43.3674327" lon="11.4042611"><ele>349.0</ele><time>2026-04-20T15:52:50.498Z</time></trkpt><trkpt lat="43.3675701" lon="11.4042963"><ele>349.0</ele><time>2026-04-20T15:52:51.498Z</time></trkpt><trkpt lat="43.3677104" lon="11.4043343"><ele>349.0</ele><time>2026-04-20T15:52:52.498Z</time></trkpt><trkpt lat="43.3678489" lon="11.4043659"><ele>349.0</ele><time>2026-04-20T15:52:53.498Z</time></trkpt><trkpt lat="43.3679828" lon="11.4043919"><ele>349.0</ele><time>2026-04-20T15:52:54.498Z</time></trkpt><trkpt lat="43.368116" lon="11.4044164"><ele>349.0</ele><time>2026-04-20T15:52:55.498Z</time></trkpt><trkpt lat="43.3682538" lon="11.4044436"><ele>349.0</ele><time>2026-04-20T15:52:56.498Z</time></trkpt><trkpt lat="43.3683941" lon="11.4044721"><ele>349.75</ele><time>2026-04-20T15:52:57.499Z</time></trkpt><trkpt lat="43.3685316" lon="11.4044989"><ele>350.5</ele><time>2026-04-20T15:52:58.499Z</time></trkpt><trkpt lat="43.3686556" lon="11.404519"><ele>351.25</ele><time>2026-04-20T15:52:59.498Z</time></trkpt><trkpt lat="43.3687644" lon="11.4045332"><ele>352.0</ele><time>2026-04-20T15:53:00.498Z</time></trkpt><trkpt lat="43.3688602" lon="11.404537"><ele>352.6</ele><time>2026-04-20T15:53:01.499Z</time></trkpt><trkpt lat="43.3689534" lon="11.4045332"><ele>353.20000000000005</ele><time>2026-04-20T15:53:02.498Z</time></trkpt><trkpt lat="43.3690495" lon="11.4045202"><ele>353.8</ele><time>2026-04-20T15:53:03.498Z</time></trkpt><trkpt lat="43.3691516" lon="11.4045056"><ele>354.4</ele><time>2026-04-20T15:53:04.498Z</time></trkpt><trkpt lat="43.3692546" lon="11.4044897"><ele>355.0</ele><time>2026-04-20T15:53:05.499Z</time></trkpt><trkpt lat="43.3693609" lon="11.4044772"><ele>355.0</ele><time>2026-04-20T15:53:06.498Z</time></trkpt><trkpt lat="43.3694696" lon="11.4044737"><ele>355.0</ele><time>2026-04-20T15:53:07.498Z</time></trkpt><trkpt lat="43.3695806" lon="11.4044785"><ele>355.0</ele><time>2026-04-20T15:53:08.499Z</time></trkpt><trkpt lat="43.369694" lon="11.4044874"><ele>355.0</ele><time>2026-04-20T15:53:09.499Z</time></trkpt><trkpt lat="43.3698041" lon="11.4044944"><ele>355.0</ele><time>2026-04-20T15:53:10.499Z</time></trkpt><trkpt lat="43.3699107" lon="11.4044976"><ele>356.2</ele><time>2026-04-20T15:53:11.499Z</time></trkpt><trkpt lat="43.3700161" lon="11.4044992"><ele>357.4</ele><time>2026-04-20T15:53:12.5Z</time></trkpt><trkpt lat="43.3701222" lon="11.4045024"><ele>358.6</ele><time>2026-04-20T15:53:13.499Z</time></trkpt><trkpt lat="43.3702304" lon="11.4045092"><ele>359.8</ele><time>2026-04-20T15:53:14.499Z</time></trkpt><trkpt lat="43.3703358" lon="11.4045152"><ele>361.0</ele><time>2026-04-20T15:53:15.499Z</time></trkpt><trkpt lat="43.3704342" lon="11.4045225"><ele>361.8333333333333</ele><time>2026-04-20T15:53:16.499Z</time></trkpt><trkpt lat="43.3705282" lon="11.4045259"><ele>362.66666666666663</ele><time>2026-04-20T15:53:17.499Z</time></trkpt><trkpt lat="43.370619" lon="11.4045181"><ele>363.5</ele><time>2026-04-20T15:53:18.5Z</time></trkpt><trkpt lat="43.3707063" lon="11.4044929"><ele>364.3333333333333</ele><time>2026-04-20T15:53:19.499Z</time></trkpt><trkpt lat="43.3707891" lon="11.4044513"><ele>365.1666666666667</ele><time>2026-04-20T15:53:20.499Z</time></trkpt><trkpt lat="43.3708671" lon="11.4043983"><ele>366.0</ele><time>2026-04-20T15:53:21.499Z</time></trkpt><trkpt lat="43.3709369" lon="11.4043299"><ele>366.0</ele><time>2026-04-20T15:53:22.499Z</time></trkpt><trkpt lat="43.3709957" lon="11.4042506"><ele>366.0</ele><time>2026-04-20T15:53:23.499Z</time></trkpt><trkpt lat="43.3710459" lon="11.4041566"><ele>366.0</ele><time>2026-04-20T15:53:24.499Z</time></trkpt><trkpt lat="43.371091" lon="11.4040507"><ele>366.0</ele><time>2026-04-20T15:53:25.499Z</time></trkpt><trkpt lat="43.3711338" lon="11.4039347"><ele>366.0</ele><time>2026-04-20T15:53:26.499Z</time></trkpt><trkpt lat="43.3711768" lon="11.4038186"><ele>366.0</ele><time>2026-04-20T15:53:27.499Z</time></trkpt><trkpt lat="43.3712208" lon="11.403708"><ele>366.4</ele><time>2026-04-20T15:53:28.5Z</time></trkpt><trkpt lat="43.3712686" lon="11.4035926"><ele>366.8</ele><time>2026-04-20T15:53:29.499Z</time></trkpt><trkpt lat="43.3713166" lon="11.4034744"><ele>367.2</ele><time>2026-04-20T15:53:30.499Z</time></trkpt><trkpt lat="43.3713662" lon="11.4033523"><ele>367.59999999999997</ele><time>2026-04-20T15:53:31.499Z</time></trkpt><trkpt lat="43.371424" lon="11.4032181"><ele>368.0</ele><time>2026-04-20T15:53:32.499Z</time></trkpt><trkpt lat="43.3714883" lon="11.403076"><ele>370.2</ele><time>2026-04-20T15:53:33.499Z</time></trkpt><trkpt lat="43.3715502" lon="11.402933"><ele>372.4</ele><time>2026-04-20T15:53:34.5Z</time></trkpt><trkpt lat="43.3716051" lon="11.4028018"><ele>374.59999999999997</ele><time>2026-04-20T15:53:35.5Z</time></trkpt><trkpt lat="43.3716546" lon="11.4026824"><ele>376.79999999999995</ele><time>2026-04-20T15:53:36.499Z</time></trkpt><trkpt lat="43.3717028" lon="11.4025644"><ele>379.0</ele><time>2026-04-20T15:53:37.499Z</time></trkpt><trkpt lat="43.3717546" lon="11.4024416"><ele>379.0</ele><time>2026-04-20T15:53:38.5Z</time></trkpt><trkpt lat="43.37181" lon="11.4023065"><ele>379.0</ele><time>2026-04-20T15:53:39.5Z</time></trkpt><trkpt lat="43.3718571" lon="11.4021599"><ele>379.0</ele><time>2026-04-20T15:53:40.499Z</time></trkpt><trkpt lat="43.3718786" lon="11.4019992"><ele>379.0</ele><time>2026-04-20T15:53:41.499Z</time></trkpt><trkpt lat="43.3718853" lon="11.4018488"><ele>379.4</ele><time>2026-04-20T15:53:42.5Z</time></trkpt><trkpt lat="43.3718962" lon="11.4017222"><ele>379.79999999999995</ele><time>2026-04-20T15:53:43.499Z</time></trkpt><trkpt lat="43.3719289" lon="11.4016099"><ele>380.20000000000005</ele><time>2026-04-20T15:53:44.499Z</time></trkpt><trkpt lat="43.3719869" lon="11.4015032"><ele>380.6</ele><time>2026-04-20T15:53:45.499Z</time></trkpt><trkpt lat="43.3720769" lon="11.4014002"><ele>381.0</ele><time>2026-04-20T15:53:46.499Z</time></trkpt><trkpt lat="43.3721815" lon="11.401306"><ele>382.25</ele><time>2026-04-20T15:53:47.5Z</time></trkpt><trkpt lat="43.3722964" lon="11.4012107"><ele>383.5</ele><time>2026-04-20T15:53:48.499Z</time></trkpt><trkpt lat="43.3724035" lon="11.4011164"><ele>384.75</ele><time>2026-04-20T15:53:49.499Z</time></trkpt><trkpt lat="43.3725029" lon="11.4010222"><ele>386.0</ele><time>2026-04-20T15:53:50.499Z</time></trkpt><trkpt lat="43.3725888" lon="11.4009407"><ele>386.0</ele><time>2026-04-20T15:53:51.5Z</time></trkpt><trkpt lat="43.3726632" lon="11.4008584"><ele>386.0</ele><time>2026-04-20T15:53:52.5Z</time></trkpt><trkpt lat="43.3727403" lon="11.4007679"><ele>386.0</ele><time>2026-04-20T15:53:53.5Z</time></trkpt><trkpt lat="43.3728234" lon="11.400671"><ele>386.0</ele><time>2026-04-20T15:53:54.499Z</time></trkpt><trkpt lat="43.3729087" lon="11.400572"><ele>386.0</ele><time>2026-04-20T15:53:55.5Z</time></trkpt><trkpt lat="43.3729924" lon="11.4004764"><ele>385.4</ele><time>2026-04-20T15:53:56.499Z</time></trkpt><trkpt lat="43.3730753" lon="11.4003893"><ele>384.8</ele><time>2026-04-20T15:53:57.499Z</time></trkpt><trkpt lat="43.3731601" lon="11.4003125"><ele>384.2</ele><time>2026-04-20T15:53:58.501Z</time></trkpt><trkpt lat="43.3732516" lon="11.4002423"><ele>383.59999999999997</ele><time>2026-04-20T15:53:59.5Z</time></trkpt><trkpt lat="43.3733515" lon="11.4001803"><ele>383.0</ele><time>2026-04-20T15:54:00.501Z</time></trkpt><trkpt lat="43.3734588" lon="11.4001275"><ele>383.0</ele><time>2026-04-20T15:54:01.5Z</time></trkpt><trkpt lat="43.3735682" lon="11.4000846"><ele>383.0</ele><time>2026-04-20T15:54:02.501Z</time></trkpt><trkpt lat="43.3736759" lon="11.4000459"><ele>383.0</ele><time>2026-04-20T15:54:03.5Z</time></trkpt><trkpt lat="43.3737793" lon="11.4000053"><ele>383.0</ele><time>2026-04-20T15:54:04.5Z</time></trkpt><trkpt lat="43.3738805" lon="11.3999609"><ele>383.0</ele><time>2026-04-20T15:54:05.5Z</time></trkpt><trkpt lat="43.3739797" lon="11.399913"><ele>383.0</ele><time>2026-04-20T15:54:06.5Z</time></trkpt><trkpt lat="43.3740772" lon="11.3998602"><ele>383.0</ele><time>2026-04-20T15:54:07.5Z</time></trkpt><trkpt lat="43.3741734" lon="11.3997987"><ele>383.0</ele><time>2026-04-20T15:54:08.501Z</time></trkpt><trkpt lat="43.3742648" lon="11.3997282"><ele>383.0</ele><time>2026-04-20T15:54:09.501Z</time></trkpt><trkpt lat="43.3743511" lon="11.3996486"><ele>383.0</ele><time>2026-04-20T15:54:10.5Z</time></trkpt><trkpt lat="43.3744367" lon="11.399561"><ele>382.79999999999995</ele><time>2026-04-20T15:54:11.501Z</time></trkpt><trkpt lat="43.3745201" lon="11.3994714"><ele>382.6</ele><time>2026-04-20T15:54:12.5Z</time></trkpt><trkpt lat="43.3746007" lon="11.399385"><ele>382.4</ele><time>2026-04-20T15:54:13.5Z</time></trkpt><trkpt lat="43.3746833" lon="11.3992952"><ele>382.20000000000005</ele><time>2026-04-20T15:54:14.501Z</time></trkpt><trkpt lat="43.3747664" lon="11.399203"><ele>382.0</ele><time>2026-04-20T15:54:15.5Z</time></trkpt><trkpt lat="43.3748495" lon="11.399109"><ele>382.0</ele><time>2026-04-20T15:54:16.501Z</time></trkpt><trkpt lat="43.3749349" lon="11.3990106"><ele>382.0</ele><time>2026-04-20T15:54:17.501Z</time></trkpt><trkpt lat="43.3750183" lon="11.3989139"><ele>382.0</ele><time>2026-04-20T15:54:18.5Z</time></trkpt><trkpt lat="43.3751006" lon="11.3988194"><ele>382.0</ele><time>2026-04-20T15:54:19.5Z</time></trkpt><trkpt lat="43.3751846" lon="11.3987287"><ele>382.0</ele><time>2026-04-20T15:54:20.5Z</time></trkpt><trkpt lat="43.3752738" lon="11.3986473"><ele>382.20000000000005</ele><time>2026-04-20T15:54:21.5Z</time></trkpt><trkpt lat="43.3753667" lon="11.398576"><ele>382.4</ele><time>2026-04-20T15:54:22.5Z</time></trkpt><trkpt lat="43.3754601" lon="11.3985121"><ele>382.6</ele><time>2026-04-20T15:54:23.5Z</time></trkpt><trkpt lat="43.3755537" lon="11.3984529"><ele>382.79999999999995</ele><time>2026-04-20T15:54:24.5Z</time></trkpt><trkpt lat="43.3756512" lon="11.3984028"><ele>383.0</ele><time>2026-04-20T15:54:25.501Z</time></trkpt><trkpt lat="43.3757551" lon="11.3983617"><ele>383.0</ele><time>2026-04-20T15:54:26.5Z</time></trkpt><trkpt lat="43.375866" lon="11.3983223"><ele>383.0</ele><time>2026-04-20T15:54:27.5Z</time></trkpt><trkpt lat="43.3759852" lon="11.3982817"><ele>383.0</ele><time>2026-04-20T15:54:28.5Z</time></trkpt><trkpt lat="43.3761094" lon="11.3982386"><ele>383.0</ele><time>2026-04-20T15:54:29.501Z</time></trkpt><trkpt lat="43.3762369" lon="11.3981932"><ele>382.5</ele><time>2026-04-20T15:54:30.5Z</time></trkpt><trkpt lat="43.3763653" lon="11.398145"><ele>382.0</ele><time>2026-04-20T15:54:31.501Z</time></trkpt><trkpt lat="43.3764934" lon="11.3980932"><ele>381.5</ele><time>2026-04-20T15:54:32.5Z</time></trkpt><trkpt lat="43.3766187" lon="11.3980334"><ele>381.0</ele><time>2026-04-20T15:54:33.5Z</time></trkpt><trkpt lat="43.3767319" lon="11.3979518"><ele>382.5</ele><time>2026-04-20T15:54:34.5Z</time></trkpt><trkpt lat="43.3768252" lon="11.3978519"><ele>384.0</ele><time>2026-04-20T15:54:35.5Z</time></trkpt><trkpt lat="43.3769141" lon="11.3977457"><ele>385.5</ele><time>2026-04-20T15:54:36.5Z</time></trkpt><trkpt lat="43.377011" lon="11.3976365"><ele>387.0</ele><time>2026-04-20T15:54:37.5Z</time></trkpt><trkpt lat="43.377122" lon="11.3975229"><ele>386.75</ele><time>2026-04-20T15:54:38.5Z</time></trkpt><trkpt lat="43.3772373" lon="11.3974156"><ele>386.5</ele><time>2026-04-20T15:54:39.5Z</time></trkpt><trkpt lat="43.3773467" lon="11.3973223"><ele>386.25</ele><time>2026-04-20T15:54:40.5Z</time></trkpt><trkpt lat="43.3774552" lon="11.397238"><ele>386.0</ele><time>2026-04-20T15:54:41.5Z</time></trkpt><trkpt lat="43.3775699" lon="11.3971635"><ele>386.75</ele><time>2026-04-20T15:54:42.5Z</time></trkpt><trkpt lat="43.3777023" lon="11.3971094"><ele>387.5</ele><time>2026-04-20T15:54:43.5Z</time></trkpt><trkpt lat="43.3778542" lon="11.3970861"><ele>388.25</ele><time>2026-04-20T15:54:44.5Z</time></trkpt><trkpt lat="43.3780068" lon="11.397079"><ele>389.0</ele><time>2026-04-20T15:54:45.501Z</time></trkpt><trkpt lat="43.3781589" lon="11.3970581"><ele>390.25</ele><time>2026-04-20T15:54:46.501Z</time></trkpt><trkpt lat="43.3783084" lon="11.3970176"><ele>391.5</ele><time>2026-04-20T15:54:47.501Z</time></trkpt><trkpt lat="43.3784442" lon="11.3969667"><ele>392.75</ele><time>2026-04-20T15:54:48.501Z</time></trkpt><trkpt lat="43.3785645" lon="11.3969186"><ele>394.0</ele><time>2026-04-20T15:54:49.501Z</time></trkpt><trkpt lat="43.3786762" lon="11.3968731"><ele>394.0</ele><time>2026-04-20T15:54:50.501Z</time></trkpt><trkpt lat="43.378788" lon="11.3968275"><ele>394.0</ele><time>2026-04-20T15:54:51.501Z</time></trkpt><trkpt lat="43.3789151" lon="11.3967759"><ele>394.0</ele><time>2026-04-20T15:54:52.501Z</time></trkpt><trkpt lat="43.3790615" lon="11.3967213"><ele>394.0</ele><time>2026-04-20T15:54:53.501Z</time></trkpt><trkpt lat="43.3792196" lon="11.3966673"><ele>396.0</ele><time>2026-04-20T15:54:54.501Z</time></trkpt><trkpt lat="43.379388" lon="11.3966183"><ele>398.0</ele><time>2026-04-20T15:54:55.501Z</time></trkpt><trkpt lat="43.3795623" lon="11.3965699"><ele>400.0</ele><time>2026-04-20T15:54:56.501Z</time></trkpt><trkpt lat="43.3797315" lon="11.3965257"><ele>401.33333333333337</ele><time>2026-04-20T15:54:57.501Z</time></trkpt><trkpt lat="43.3798992" lon="11.3964889"><ele>402.66666666666663</ele><time>2026-04-20T15:54:58.501Z</time></trkpt><trkpt lat="43.3800693" lon="11.3964595"><ele>404.0</ele><time>2026-04-20T15:54:59.501Z</time></trkpt><trkpt lat="43.3802368" lon="11.3964255"><ele>404.0</ele><time>2026-04-20T15:55:00.501Z</time></trkpt><trkpt lat="43.3804004" lon="11.3963857"><ele>404.0</ele><time>2026-04-20T15:55:01.501Z</time></trkpt><trkpt lat="43.380552" lon="11.3963459"><ele>404.0</ele><time>2026-04-20T15:55:02.501Z</time></trkpt><trkpt lat="43.3806939" lon="11.396311"><ele>405.3333333333333</ele><time>2026-04-20T15:55:03.501Z</time></trkpt><trkpt lat="43.3808403" lon="11.3962809"><ele>406.66666666666663</ele><time>2026-04-20T15:55:04.501Z</time></trkpt><trkpt lat="43.3809918" lon="11.3962607"><ele>408.0</ele><time>2026-04-20T15:55:05.502Z</time></trkpt><trkpt lat="43.3811469" lon="11.3962566"><ele>408.0</ele><time>2026-04-20T15:55:06.501Z</time></trkpt><trkpt lat="43.381305" lon="11.3962617"><ele>408.0</ele><time>2026-04-20T15:55:07.501Z</time></trkpt><trkpt lat="43.3814587" lon="11.3962653"><ele>408.0</ele><time>2026-04-20T15:55:08.501Z</time></trkpt><trkpt lat="43.3815946" lon="11.3962567"><ele>408.0</ele><time>2026-04-20T15:55:09.501Z</time></trkpt><trkpt lat="43.3817191" lon="11.396239"><ele>408.5</ele><time>2026-04-20T15:55:10.501Z</time></trkpt><trkpt lat="43.3818365" lon="11.3962186"><ele>409.0</ele><time>2026-04-20T15:55:11.502Z</time></trkpt><trkpt lat="43.3819545" lon="11.3961976"><ele>409.5</ele><time>2026-04-20T15:55:12.501Z</time></trkpt><trkpt lat="43.3820717" lon="11.3961777"><ele>410.0</ele><time>2026-04-20T15:55:13.502Z</time></trkpt><trkpt lat="43.3821938" lon="11.3961552"><ele>411.0</ele><time>2026-04-20T15:55:14.501Z</time></trkpt><trkpt lat="43.3823149" lon="11.3961286"><ele>412.0</ele><time>2026-04-20T15:55:15.501Z</time></trkpt><trkpt lat="43.3824373" lon="11.3960959"><ele>413.0</ele><time>2026-04-20T15:55:16.501Z</time></trkpt><trkpt lat="43.3825585" lon="11.3960584"><ele>414.0</ele><time>2026-04-20T15:55:17.501Z</time></trkpt><trkpt lat="43.3826804" lon="11.3960208"><ele>414.0</ele><time>2026-04-20T15:55:18.502Z</time></trkpt><trkpt lat="43.3828031" lon="11.3959833"><ele>414.0</ele><time>2026-04-20T15:55:19.501Z</time></trkpt><trkpt lat="43.3829277" lon="11.3959408"><ele>414.0</ele><time>2026-04-20T15:55:20.501Z</time></trkpt><trkpt lat="43.3830539" lon="11.3958948"><ele>414.0</ele><time>2026-04-20T15:55:21.502Z</time></trkpt><trkpt lat="43.3831826" lon="11.3958466"><ele>415.0</ele><time>2026-04-20T15:55:22.502Z</time></trkpt><trkpt lat="43.3833087" lon="11.3957989"><ele>416.0</ele><time>2026-04-20T15:55:23.501Z</time></trkpt><trkpt lat="43.3834357" lon="11.3957522"><ele>417.0</ele><time>2026-04-20T15:55:24.501Z</time></trkpt><trkpt lat="43.3835593" lon="11.3957054"><ele>418.0</ele><time>2026-04-20T15:55:25.501Z</time></trkpt><trkpt lat="43.3836797" lon="11.3956587"><ele>418.0</ele><time>2026-04-20T15:55:26.501Z</time></trkpt><trkpt lat="43.383801" lon="11.3956111"><ele>418.0</ele><time>2026-04-20T15:55:27.501Z</time></trkpt><trkpt lat="43.3839193" lon="11.3955648"><ele>418.0</ele><time>2026-04-20T15:55:28.501Z</time></trkpt><trkpt lat="43.3840283" lon="11.3955226"><ele>418.0</ele><time>2026-04-20T15:55:29.502Z</time></trkpt><trkpt lat="43.384126" lon="11.3954872"><ele>417.59999999999997</ele><time>2026-04-20T15:55:30.502Z</time></trkpt><trkpt lat="43.3842184" lon="11.3954544"><ele>417.2</ele><time>2026-04-20T15:55:31.501Z</time></trkpt><trkpt lat="43.3843124" lon="11.3954184"><ele>416.8</ele><time>2026-04-20T15:55:32.501Z</time></trkpt><trkpt lat="43.3844128" lon="11.3953767"><ele>416.4</ele><time>2026-04-20T15:55:33.501Z</time></trkpt><trkpt lat="43.3845094" lon="11.3953304"><ele>416.0</ele><time>2026-04-20T15:55:34.502Z</time></trkpt><trkpt lat="43.3845966" lon="11.3952735"><ele>416.0</ele><time>2026-04-20T15:55:35.502Z</time></trkpt><trkpt lat="43.3846775" lon="11.3951983"><ele>416.0</ele><time>2026-04-20T15:55:36.502Z</time></trkpt><trkpt lat="43.3847568" lon="11.3950967"><ele>416.0</ele><time>2026-04-20T15:55:37.502Z</time></trkpt><trkpt lat="43.3848324" lon="11.3949774"><ele>416.0</ele><time>2026-04-20T15:55:38.502Z</time></trkpt><trkpt lat="43.3849066" lon="11.3948515"><ele>416.0</ele><time>2026-04-20T15:55:39.503Z</time></trkpt><trkpt lat="43.3849824" lon="11.3947247"><ele>418.25</ele><time>2026-04-20T15:55:40.502Z</time></trkpt><trkpt lat="43.3850638" lon="11.3945965"><ele>420.5</ele><time>2026-04-20T15:55:41.503Z</time></trkpt><trkpt lat="43.3851505" lon="11.3944667"><ele>422.75</ele><time>2026-04-20T15:55:42.502Z</time></trkpt><trkpt lat="43.3852406" lon="11.3943355"><ele>425.0</ele><time>2026-04-20T15:55:43.502Z</time></trkpt><trkpt lat="43.3853314" lon="11.3942035"><ele>425.0</ele><time>2026-04-20T15:55:44.502Z</time></trkpt><trkpt lat="43.3854216" lon="11.3940692"><ele>425.0</ele><time>2026-04-20T15:55:45.502Z</time></trkpt><trkpt lat="43.3855112" lon="11.393935"><ele>425.0</ele><time>2026-04-20T15:55:46.502Z</time></trkpt><trkpt lat="43.3856038" lon="11.3937968"><ele>425.0</ele><time>2026-04-20T15:55:47.502Z</time></trkpt><trkpt lat="43.385695" lon="11.3936624"><ele>425.75</ele><time>2026-04-20T15:55:48.502Z</time></trkpt><trkpt lat="43.3857857" lon="11.3935262"><ele>426.5</ele><time>2026-04-20T15:55:49.502Z</time></trkpt><trkpt lat="43.3858782" lon="11.3933883"><ele>427.25</ele><time>2026-04-20T15:55:50.502Z</time></trkpt><trkpt lat="43.3859702" lon="11.393251"><ele>428.0</ele><time>2026-04-20T15:55:51.502Z</time></trkpt><trkpt lat="43.3860611" lon="11.3931137"><ele>428.0</ele><time>2026-04-20T15:55:52.502Z</time></trkpt><trkpt lat="43.3861548" lon="11.3929773"><ele>428.0</ele><time>2026-04-20T15:55:53.502Z</time></trkpt><trkpt lat="43.3862471" lon="11.3928444"><ele>428.0</ele><time>2026-04-20T15:55:54.503Z</time></trkpt><trkpt lat="43.386343" lon="11.3927205"><ele>428.0</ele><time>2026-04-20T15:55:55.503Z</time></trkpt><trkpt lat="43.3864511" lon="11.3925997"><ele>428.75</ele><time>2026-04-20T15:55:56.502Z</time></trkpt><trkpt lat="43.386562" lon="11.392498"><ele>429.5</ele><time>2026-04-20T15:55:57.502Z</time></trkpt><trkpt lat="43.386672" lon="11.3924026"><ele>430.25</ele><time>2026-04-20T15:55:58.502Z</time></trkpt><trkpt lat="43.3867803" lon="11.3923027"><ele>431.0</ele><time>2026-04-20T15:55:59.502Z</time></trkpt><trkpt lat="43.3868864" lon="11.3921965"><ele>430.75</ele><time>2026-04-20T15:56:00.502Z</time></trkpt><trkpt lat="43.386983" lon="11.3920816"><ele>430.5</ele><time>2026-04-20T15:56:01.502Z</time></trkpt><trkpt lat="43.3870757" lon="11.3919525"><ele>430.25</ele><time>2026-04-20T15:56:02.502Z</time></trkpt><trkpt lat="43.3871654" lon="11.3918174"><ele>430.0</ele><time>2026-04-20T15:56:03.503Z</time></trkpt><trkpt lat="43.3872514" lon="11.3916777"><ele>431.0</ele><time>2026-04-20T15:56:04.502Z</time></trkpt><trkpt lat="43.3873401" lon="11.391537"><ele>432.0</ele><time>2026-04-20T15:56:05.502Z</time></trkpt><trkpt lat="43.3874286" lon="11.3913991"><ele>433.0</ele><time>2026-04-20T15:56:06.502Z</time></trkpt><trkpt lat="43.3875185" lon="11.3912606"><ele>434.0</ele><time>2026-04-20T15:56:07.502Z</time></trkpt><trkpt lat="43.3876109" lon="11.39112"><ele>434.5</ele><time>2026-04-20T15:56:08.502Z</time></trkpt><trkpt lat="43.3877043" lon="11.3909802"><ele>435.0</ele><time>2026-04-20T15:56:09.502Z</time></trkpt><trkpt lat="43.3877977" lon="11.3908407"><ele>435.5</ele><time>2026-04-20T15:56:10.502Z</time></trkpt><trkpt lat="43.3878866" lon="11.3907059"><ele>436.0</ele><time>2026-04-20T15:56:11.502Z</time></trkpt><trkpt lat="43.3879677" lon="11.390582"><ele>434.4</ele><time>2026-04-20T15:56:12.502Z</time></trkpt><trkpt lat="43.388035" lon="11.3904696"><ele>432.8</ele><time>2026-04-20T15:56:13.502Z</time></trkpt><trkpt lat="43.3880852" lon="11.3903606"><ele>431.19999999999993</ele><time>2026-04-20T15:56:14.502Z</time></trkpt><trkpt lat="43.3881159" lon="11.3902401"><ele>429.59999999999997</ele><time>2026-04-20T15:56:15.502Z</time></trkpt><trkpt lat="43.3881331" lon="11.3900914"><ele>428.0</ele><time>2026-04-20T15:56:16.502Z</time></trkpt><trkpt lat="43.3881453" lon="11.3899261"><ele>428.0</ele><time>2026-04-20T15:56:17.502Z</time></trkpt><trkpt lat="43.3881673" lon="11.3897643"><ele>428.0</ele><time>2026-04-20T15:56:18.502Z</time></trkpt><trkpt lat="43.388206" lon="11.3896027"><ele>428.0</ele><time>2026-04-20T15:56:19.502Z</time></trkpt><trkpt lat="43.3882646" lon="11.3894392"><ele>428.0</ele><time>2026-04-20T15:56:20.503Z</time></trkpt><trkpt lat="43.3883337" lon="11.3892791"><ele>427.75</ele><time>2026-04-20T15:56:21.502Z</time></trkpt><trkpt lat="43.3884032" lon="11.3891235"><ele>427.5</ele><time>2026-04-20T15:56:22.502Z</time></trkpt><trkpt lat="43.3884717" lon="11.388971"><ele>427.25</ele><time>2026-04-20T15:56:23.503Z</time></trkpt><trkpt lat="43.3885411" lon="11.3888198"><ele>427.0</ele><time>2026-04-20T15:56:24.503Z</time></trkpt><trkpt lat="43.3886101" lon="11.388665"><ele>427.5</ele><time>2026-04-20T15:56:25.503Z</time></trkpt><trkpt lat="43.3886804" lon="11.3885067"><ele>428.0</ele><time>2026-04-20T15:56:26.503Z</time></trkpt><trkpt lat="43.3887517" lon="11.3883481"><ele>428.5</ele><time>2026-04-20T15:56:27.503Z</time></trkpt><trkpt lat="43.3888235" lon="11.3881881"><ele>429.0</ele><time>2026-04-20T15:56:28.503Z</time></trkpt><trkpt lat="43.388891" lon="11.388033"><ele>427.25</ele><time>2026-04-20T15:56:29.503Z</time></trkpt><trkpt lat="43.3889536" lon="11.387885"><ele>425.5</ele><time>2026-04-20T15:56:30.503Z</time></trkpt><trkpt lat="43.3890116" lon="11.3877385"><ele>423.75</ele><time>2026-04-20T15:56:31.503Z</time></trkpt><trkpt lat="43.3890687" lon="11.3875872"><ele>422.0</ele><time>2026-04-20T15:56:32.503Z</time></trkpt><trkpt lat="43.3891278" lon="11.3874318"><ele>422.0</ele><time>2026-04-20T15:56:33.503Z</time></trkpt><trkpt lat="43.3891947" lon="11.3872734"><ele>422.0</ele><time>2026-04-20T15:56:34.503Z</time></trkpt><trkpt lat="43.3892688" lon="11.3871225"><ele>422.0</ele><time>2026-04-20T15:56:35.503Z</time></trkpt><trkpt lat="43.3893431" lon="11.3869863"><ele>422.0</ele><time>2026-04-20T15:56:36.504Z</time></trkpt><trkpt lat="43.389413" lon="11.3868589"><ele>422.0</ele><time>2026-04-20T15:56:37.503Z</time></trkpt><trkpt lat="43.3894768" lon="11.3867338"><ele>422.0</ele><time>2026-04-20T15:56:38.503Z</time></trkpt><trkpt lat="43.389539" lon="11.3866016"><ele>422.0</ele><time>2026-04-20T15:56:39.503Z</time></trkpt><trkpt lat="43.3895985" lon="11.3864721"><ele>422.0</ele><time>2026-04-20T15:56:40.503Z</time></trkpt><trkpt lat="43.3896504" lon="11.3863505"><ele>422.0</ele><time>2026-04-20T15:56:41.503Z</time></trkpt><trkpt lat="43.3896956" lon="11.3862397"><ele>421.99999999999994</ele><time>2026-04-20T15:56:42.503Z</time></trkpt><trkpt lat="43.3897349" lon="11.3861308"><ele>422.0</ele><time>2026-04-20T15:56:43.503Z</time></trkpt><trkpt lat="43.3897702" lon="11.3860201"><ele>422.0</ele><time>2026-04-20T15:56:44.503Z</time></trkpt><trkpt lat="43.3898003" lon="11.3859165"><ele>422.0</ele><time>2026-04-20T15:56:45.504Z</time></trkpt><trkpt lat="43.3898289" lon="11.3858195"><ele>421.99999999999994</ele><time>2026-04-20T15:56:46.503Z</time></trkpt><trkpt lat="43.3898633" lon="11.3857289"><ele>422.0</ele><time>2026-04-20T15:56:47.503Z</time></trkpt><trkpt lat="43.3899142" lon="11.3856426"><ele>422.0</ele><time>2026-04-20T15:56:48.504Z</time></trkpt><trkpt lat="43.3899895" lon="11.3855648"><ele>422.0</ele><time>2026-04-20T15:56:49.503Z</time></trkpt><trkpt lat="43.3901016" lon="11.3854968"><ele>422.0</ele><time>2026-04-20T15:56:50.503Z</time></trkpt><trkpt lat="43.3902494" lon="11.3854225"><ele>422.0</ele><time>2026-04-20T15:56:51.503Z</time></trkpt><trkpt lat="43.3904093" lon="11.3853232"><ele>422.66666666666663</ele><time>2026-04-20T15:56:52.504Z</time></trkpt><trkpt lat="43.3905761" lon="11.3852135"><ele>423.33333333333337</ele><time>2026-04-20T15:56:53.503Z</time></trkpt><trkpt lat="43.3907403" lon="11.3850923"><ele>424.0</ele><time>2026-04-20T15:56:54.503Z</time></trkpt><trkpt lat="43.3908939" lon="11.3849615"><ele>424.0</ele><time>2026-04-20T15:56:55.504Z</time></trkpt><trkpt lat="43.3910452" lon="11.3848283"><ele>424.0</ele><time>2026-04-20T15:56:56.503Z</time></trkpt><trkpt lat="43.3911945" lon="11.384699"><ele>424.0</ele><time>2026-04-20T15:56:57.503Z</time></trkpt><trkpt lat="43.3913373" lon="11.3845742"><ele>424.25</ele><time>2026-04-20T15:56:58.503Z</time></trkpt><trkpt lat="43.3914646" lon="11.3844626"><ele>424.5</ele><time>2026-04-20T15:56:59.504Z</time></trkpt><trkpt lat="43.3915814" lon="11.3843632"><ele>424.75</ele><time>2026-04-20T15:57:00.503Z</time></trkpt><trkpt lat="43.3916879" lon="11.3842628"><ele>425.0</ele><time>2026-04-20T15:57:01.503Z</time></trkpt><trkpt lat="43.3917863" lon="11.3841542"><ele>425.0</ele><time>2026-04-20T15:57:02.503Z</time></trkpt><trkpt lat="43.3918711" lon="11.3840266"><ele>425.0</ele><time>2026-04-20T15:57:03.503Z</time></trkpt><trkpt lat="43.3919374" lon="11.3838744"><ele>425.0</ele><time>2026-04-20T15:57:04.503Z</time></trkpt><trkpt lat="43.3919823" lon="11.3836835"><ele>425.0</ele><time>2026-04-20T15:57:05.503Z</time></trkpt><trkpt lat="43.3920048" lon="11.3834651"><ele>425.0</ele><time>2026-04-20T15:57:06.503Z</time></trkpt><trkpt lat="43.3920157" lon="11.3832395"><ele>425.0</ele><time>2026-04-20T15:57:07.503Z</time></trkpt><trkpt lat="43.3920306" lon="11.383024"><ele>425.0</ele><time>2026-04-20T15:57:08.504Z</time></trkpt><trkpt lat="43.3920708" lon="11.3828356"><ele>425.0</ele><time>2026-04-20T15:57:09.503Z</time></trkpt><trkpt lat="43.3921436" lon="11.3826808"><ele>425.0</ele><time>2026-04-20T15:57:10.503Z</time></trkpt><trkpt lat="43.3922522" lon="11.3825493"><ele>425.0</ele><time>2026-04-20T15:57:11.505Z</time></trkpt><trkpt lat="43.3923816" lon="11.3824289"><ele>425.0</ele><time>2026-04-20T15:57:12.504Z</time></trkpt><trkpt lat="43.392524" lon="11.3823128"><ele>425.0</ele><time>2026-04-20T15:57:13.504Z</time></trkpt><trkpt lat="43.3926781" lon="11.3821963"><ele>425.0</ele><time>2026-04-20T15:57:14.504Z</time></trkpt><trkpt lat="43.3928275" lon="11.3820753"><ele>425.0</ele><time>2026-04-20T15:57:15.505Z</time></trkpt><trkpt lat="43.392978" lon="11.3819568"><ele>423.66666666666663</ele><time>2026-04-20T15:57:16.505Z</time></trkpt><trkpt lat="43.3931289" lon="11.3818401"><ele>422.33333333333337</ele><time>2026-04-20T15:57:17.505Z</time></trkpt><trkpt lat="43.3932678" lon="11.3817266"><ele>421.0</ele><time>2026-04-20T15:57:18.505Z</time></trkpt><trkpt lat="43.3933989" lon="11.3816207"><ele>421.0</ele><time>2026-04-20T15:57:19.504Z</time></trkpt><trkpt lat="43.3935261" lon="11.3815285"><ele>421.0</ele><time>2026-04-20T15:57:20.504Z</time></trkpt><trkpt lat="43.3936551" lon="11.3814395"><ele>421.0</ele><time>2026-04-20T15:57:21.504Z</time></trkpt><trkpt lat="43.3937862" lon="11.3813475"><ele>421.0</ele><time>2026-04-20T15:57:22.504Z</time></trkpt><trkpt lat="43.3939276" lon="11.3812636"><ele>419.0</ele><time>2026-04-20T15:57:23.504Z</time></trkpt><trkpt lat="43.3940812" lon="11.381187"><ele>417.0</ele><time>2026-04-20T15:57:24.504Z</time></trkpt><trkpt lat="43.3942455" lon="11.3811208"><ele>415.0</ele><time>2026-04-20T15:57:25.504Z</time></trkpt><trkpt lat="43.3944169" lon="11.3810648"><ele>415.0</ele><time>2026-04-20T15:57:26.504Z</time></trkpt><trkpt lat="43.3945861" lon="11.3810185"><ele>415.0</ele><time>2026-04-20T15:57:27.504Z</time></trkpt><trkpt lat="43.3947511" lon="11.3809904"><ele>415.0</ele><time>2026-04-20T15:57:28.504Z</time></trkpt><trkpt lat="43.3949035" lon="11.3809727"><ele>415.33333333333337</ele><time>2026-04-20T15:57:29.504Z</time></trkpt><trkpt lat="43.3950548" lon="11.3809654"><ele>415.66666666666663</ele><time>2026-04-20T15:57:30.504Z</time></trkpt><trkpt lat="43.3952086" lon="11.3809687"><ele>416.0</ele><time>2026-04-20T15:57:31.504Z</time></trkpt><trkpt lat="43.3953602" lon="11.3809913"><ele>414.66666666666663</ele><time>2026-04-20T15:57:32.504Z</time></trkpt><trkpt lat="43.3955092" lon="11.381019"><ele>413.33333333333337</ele><time>2026-04-20T15:57:33.504Z</time></trkpt><trkpt lat="43.3956637" lon="11.3810469"><ele>412.0</ele><time>2026-04-20T15:57:34.504Z</time></trkpt><trkpt lat="43.3958083" lon="11.3810667"><ele>412.0</ele><time>2026-04-20T15:57:35.504Z</time></trkpt><trkpt lat="43.3959456" lon="11.3810701"><ele>412.0</ele><time>2026-04-20T15:57:36.505Z</time></trkpt><trkpt lat="43.3960688" lon="11.3810463"><ele>412.0</ele><time>2026-04-20T15:57:37.504Z</time></trkpt><trkpt lat="43.3961836" lon="11.3809947"><ele>412.0</ele><time>2026-04-20T15:57:38.504Z</time></trkpt><trkpt lat="43.3963004" lon="11.3809123"><ele>411.25</ele><time>2026-04-20T15:57:39.504Z</time></trkpt><trkpt lat="43.3964076" lon="11.3808022"><ele>410.5</ele><time>2026-04-20T15:57:40.504Z</time></trkpt><trkpt lat="43.3964992" lon="11.3806785"><ele>409.75</ele><time>2026-04-20T15:57:41.504Z</time></trkpt><trkpt lat="43.3965682" lon="11.3805204"><ele>409.0</ele><time>2026-04-20T15:57:42.504Z</time></trkpt><trkpt lat="43.396616" lon="11.3803387"><ele>409.0</ele><time>2026-04-20T15:57:43.504Z</time></trkpt><trkpt lat="43.3966523" lon="11.3801485"><ele>409.0</ele><time>2026-04-20T15:57:44.504Z</time></trkpt><trkpt lat="43.3966777" lon="11.3799491"><ele>409.0</ele><time>2026-04-20T15:57:45.505Z</time></trkpt><trkpt lat="43.396703" lon="11.3797592"><ele>409.0</ele><time>2026-04-20T15:57:46.504Z</time></trkpt><trkpt lat="43.3967323" lon="11.3795728"><ele>410.25</ele><time>2026-04-20T15:57:47.505Z</time></trkpt><trkpt lat="43.3967632" lon="11.379396"><ele>411.5</ele><time>2026-04-20T15:57:48.504Z</time></trkpt><trkpt lat="43.3967952" lon="11.3792275"><ele>412.75</ele><time>2026-04-20T15:57:49.504Z</time></trkpt><trkpt lat="43.3968262" lon="11.3790698"><ele>414.0</ele><time>2026-04-20T15:57:50.504Z</time></trkpt><trkpt lat="43.3968538" lon="11.3789283"><ele>414.79999999999995</ele><time>2026-04-20T15:57:51.505Z</time></trkpt><trkpt lat="43.3968798" lon="11.3788038"><ele>415.59999999999997</ele><time>2026-04-20T15:57:52.504Z</time></trkpt><trkpt lat="43.3969132" lon="11.3786825"><ele>416.4</ele><time>2026-04-20T15:57:53.504Z</time></trkpt><trkpt lat="43.3969601" lon="11.3785623"><ele>417.2</ele><time>2026-04-20T15:57:54.504Z</time></trkpt><trkpt lat="43.3970224" lon="11.3784477"><ele>418.0</ele><time>2026-04-20T15:57:55.504Z</time></trkpt><trkpt lat="43.3970907" lon="11.3783326"><ele>418.0</ele><time>2026-04-20T15:57:56.505Z</time></trkpt><trkpt lat="43.3971565" lon="11.378219"><ele>418.0</ele><time>2026-04-20T15:57:57.504Z</time></trkpt><trkpt lat="43.3972231" lon="11.3781085"><ele>418.0</ele><time>2026-04-20T15:57:58.504Z</time></trkpt><trkpt lat="43.3972867" lon="11.3779941"><ele>418.0</ele><time>2026-04-20T15:57:59.504Z</time></trkpt><trkpt lat="43.3973504" lon="11.3778841"><ele>418.0</ele><time>2026-04-20T15:58:00.505Z</time></trkpt><trkpt lat="43.3974166" lon="11.3777686"><ele>418.25</ele><time>2026-04-20T15:58:01.505Z</time></trkpt><trkpt lat="43.3974847" lon="11.3776509"><ele>418.5</ele><time>2026-04-20T15:58:02.506Z</time></trkpt><trkpt lat="43.3975606" lon="11.377533"><ele>418.75</ele><time>2026-04-20T15:58:03.505Z</time></trkpt><trkpt lat="43.3976362" lon="11.3774166"><ele>419.0</ele><time>2026-04-20T15:58:04.505Z</time></trkpt><trkpt lat="43.397712" lon="11.3773013"><ele>418.6</ele><time>2026-04-20T15:58:05.506Z</time></trkpt><trkpt lat="43.3977864" lon="11.3771855"><ele>418.2</ele><time>2026-04-20T15:58:06.505Z</time></trkpt><trkpt lat="43.3978599" lon="11.3770752"><ele>417.8</ele><time>2026-04-20T15:58:07.505Z</time></trkpt><trkpt lat="43.3979369" lon="11.3769685"><ele>417.40000000000003</ele><time>2026-04-20T15:58:08.505Z</time></trkpt><trkpt lat="43.398016" lon="11.376865"><ele>417.0</ele><time>2026-04-20T15:58:09.505Z</time></trkpt><trkpt lat="43.3980983" lon="11.376763"><ele>417.8</ele><time>2026-04-20T15:58:10.505Z</time></trkpt><trkpt lat="43.3981823" lon="11.376666"><ele>418.6</ele><time>2026-04-20T15:58:11.505Z</time></trkpt><trkpt lat="43.3982664" lon="11.3765683"><ele>419.40000000000003</ele><time>2026-04-20T15:58:12.505Z</time></trkpt><trkpt lat="43.3983522" lon="11.3764709"><ele>420.20000000000005</ele><time>2026-04-20T15:58:13.505Z</time></trkpt><trkpt lat="43.3984399" lon="11.376384"><ele>421.0</ele><time>2026-04-20T15:58:14.505Z</time></trkpt><trkpt lat="43.3985317" lon="11.3763016"><ele>421.4</ele><time>2026-04-20T15:58:15.505Z</time></trkpt><trkpt lat="43.398625" lon="11.3762259"><ele>421.8</ele><time>2026-04-20T15:58:16.506Z</time></trkpt><trkpt lat="43.3987186" lon="11.3761618"><ele>422.2</ele><time>2026-04-20T15:58:17.505Z</time></trkpt><trkpt lat="43.3988135" lon="11.3761094"><ele>422.59999999999997</ele><time>2026-04-20T15:58:18.505Z</time></trkpt><trkpt lat="43.3989031" lon="11.3760665"><ele>423.0</ele><time>2026-04-20T15:58:19.505Z</time></trkpt><trkpt lat="43.3990002" lon="11.3760328"><ele>424.0</ele><time>2026-04-20T15:58:20.505Z</time></trkpt><trkpt lat="43.3990973" lon="11.3760092"><ele>425.0</ele><time>2026-04-20T15:58:21.506Z</time></trkpt><trkpt lat="43.399196" lon="11.3759908"><ele>425.99999999999994</ele><time>2026-04-20T15:58:22.505Z</time></trkpt><trkpt lat="43.3992904" lon="11.3759704"><ele>427.0</ele><time>2026-04-20T15:58:23.505Z</time></trkpt><trkpt lat="43.399376" lon="11.3759399"><ele>428.0</ele><time>2026-04-20T15:58:24.505Z</time></trkpt><trkpt lat="43.3994495" lon="11.3758986"><ele>428.0</ele><time>2026-04-20T15:58:25.505Z</time></trkpt><trkpt lat="43.3995194" lon="11.3758402"><ele>427.99999999999994</ele><time>2026-04-20T15:58:26.505Z</time></trkpt><trkpt lat="43.3995849" lon="11.3757671"><ele>427.99999999999994</ele><time>2026-04-20T15:58:27.506Z</time></trkpt><trkpt lat="43.3996483" lon="11.375679"><ele>428.0</ele><time>2026-04-20T15:58:28.505Z</time></trkpt><trkpt lat="43.3997091" lon="11.3755749"><ele>428.0</ele><time>2026-04-20T15:58:29.505Z</time></trkpt><trkpt lat="43.3997686" lon="11.375465"><ele>429.59999999999997</ele><time>2026-04-20T15:58:30.505Z</time></trkpt><trkpt lat="43.3998223" lon="11.3753564"><ele>431.19999999999993</ele><time>2026-04-20T15:58:31.505Z</time></trkpt><trkpt lat="43.3998764" lon="11.3752491"><ele>432.8</ele><time>2026-04-20T15:58:32.506Z</time></trkpt><trkpt lat="43.3999309" lon="11.3751432"><ele>434.4</ele><time>2026-04-20T15:58:33.505Z</time></trkpt><trkpt lat="43.3999899" lon="11.3750365"><ele>436.0</ele><time>2026-04-20T15:58:34.505Z</time></trkpt><trkpt lat="43.400056" lon="11.374932"><ele>436.0</ele><time>2026-04-20T15:58:35.505Z</time></trkpt><trkpt lat="43.400123" lon="11.3748259"><ele>436.0</ele><time>2026-04-20T15:58:36.506Z</time></trkpt><trkpt lat="43.4001871" lon="11.3747234"><ele>436.0</ele><time>2026-04-20T15:58:37.506Z</time></trkpt><trkpt lat="43.4002514" lon="11.3746227"><ele>436.0</ele><time>2026-04-20T15:58:38.505Z</time></trkpt><trkpt lat="43.4003138" lon="11.3745299"><ele>436.0</ele><time>2026-04-20T15:58:39.505Z</time></trkpt><trkpt lat="43.4003697" lon="11.3744489"><ele>436.00000000000006</ele><time>2026-04-20T15:58:40.506Z</time></trkpt><trkpt lat="43.4004096" lon="11.3743784"><ele>436.0</ele><time>2026-04-20T15:58:41.505Z</time></trkpt><trkpt lat="43.400476" lon="11.3742478"><ele>436.0</ele><time>2026-04-20T15:58:43.505Z</time></trkpt><trkpt lat="43.4005139" lon="11.3741606"><ele>436.0</ele><time>2026-04-20T15:58:44.505Z</time></trkpt><trkpt lat="43.400545" lon="11.3740567"><ele>436.00000000000006</ele><time>2026-04-20T15:58:45.505Z</time></trkpt><trkpt lat="43.4005729" lon="11.373948"><ele>436.0</ele><time>2026-04-20T15:58:46.506Z</time></trkpt><trkpt lat="43.4005902" lon="11.3738525"><ele>436.4</ele><time>2026-04-20T15:58:47.506Z</time></trkpt><trkpt lat="43.4006177" lon="11.3736799"><ele>436.8</ele><time>2026-04-20T15:58:49.506Z</time></trkpt><trkpt lat="43.4006389" lon="11.3735757"><ele>437.19999999999993</ele><time>2026-04-20T15:58:50.506Z</time></trkpt><trkpt lat="43.4006665" lon="11.3734779"><ele>437.59999999999997</ele><time>2026-04-20T15:58:51.507Z</time></trkpt><trkpt lat="43.4007033" lon="11.3733799"><ele>438.0</ele><time>2026-04-20T15:58:52.506Z</time></trkpt><trkpt lat="43.4007478" lon="11.3732775"><ele>438.0</ele><time>2026-04-20T15:58:53.507Z</time></trkpt><trkpt lat="43.4008" lon="11.3731818"><ele>438.0</ele><time>2026-04-20T15:58:54.506Z</time></trkpt><trkpt lat="43.4008559" lon="11.3731037"><ele>438.0</ele><time>2026-04-20T15:58:55.506Z</time></trkpt><trkpt lat="43.4009129" lon="11.3730387"><ele>438.0</ele><time>2026-04-20T15:58:56.506Z</time></trkpt><trkpt lat="43.4009699" lon="11.3729787"><ele>438.0</ele><time>2026-04-20T15:58:57.506Z</time></trkpt><trkpt lat="43.4010257" lon="11.3729195"><ele>438.0</ele><time>2026-04-20T15:58:58.506Z</time></trkpt><trkpt lat="43.4010819" lon="11.3728521"><ele>437.7142857142857</ele><time>2026-04-20T15:58:59.506Z</time></trkpt><trkpt lat="43.4011355" lon="11.3727849"><ele>437.4285714285714</ele><time>2026-04-20T15:59:00.506Z</time></trkpt><trkpt lat="43.4011837" lon="11.3727148"><ele>437.1428571428571</ele><time>2026-04-20T15:59:01.506Z</time></trkpt><trkpt lat="43.4012241" lon="11.3726421"><ele>436.8571428571429</ele><time>2026-04-20T15:59:02.506Z</time></trkpt><trkpt lat="43.4012561" lon="11.3725573"><ele>436.57142857142856</ele><time>2026-04-20T15:59:03.506Z</time></trkpt><trkpt lat="43.401278" lon="11.3724723"><ele>436.2857142857143</ele><time>2026-04-20T15:59:04.507Z</time></trkpt><trkpt lat="43.4012903" lon="11.3723777"><ele>436.0</ele><time>2026-04-20T15:59:05.506Z</time></trkpt><trkpt lat="43.4012942" lon="11.3722717"><ele>435.6</ele><time>2026-04-20T15:59:06.506Z</time></trkpt><trkpt lat="43.4012891" lon="11.3721489"><ele>435.20000000000005</ele><time>2026-04-20T15:59:07.506Z</time></trkpt><trkpt lat="43.4012835" lon="11.3720229"><ele>434.79999999999995</ele><time>2026-04-20T15:59:08.507Z</time></trkpt><trkpt lat="43.4012818" lon="11.3718879"><ele>434.4</ele><time>2026-04-20T15:59:09.506Z</time></trkpt><trkpt lat="43.4012799" lon="11.3717499"><ele>434.0</ele><time>2026-04-20T15:59:10.507Z</time></trkpt><trkpt lat="43.4012779" lon="11.3716047"><ele>434.0</ele><time>2026-04-20T15:59:11.506Z</time></trkpt><trkpt lat="43.4012688" lon="11.3714572"><ele>434.0</ele><time>2026-04-20T15:59:12.506Z</time></trkpt><trkpt lat="43.4012625" lon="11.3713099"><ele>434.0</ele><time>2026-04-20T15:59:13.506Z</time></trkpt><trkpt lat="43.4012636" lon="11.3711655"><ele>434.0</ele><time>2026-04-20T15:59:14.506Z</time></trkpt><trkpt lat="43.4012727" lon="11.3710136"><ele>434.0</ele><time>2026-04-20T15:59:15.506Z</time></trkpt><trkpt lat="43.4012867" lon="11.3708607"><ele>433.0</ele><time>2026-04-20T15:59:16.507Z</time></trkpt><trkpt lat="43.4013096" lon="11.3706978"><ele>432.0</ele><time>2026-04-20T15:59:17.506Z</time></trkpt><trkpt lat="43.4013463" lon="11.3705414"><ele>431.0</ele><time>2026-04-20T15:59:18.506Z</time></trkpt><trkpt lat="43.4013927" lon="11.3703944"><ele>430.0</ele><time>2026-04-20T15:59:19.506Z</time></trkpt><trkpt lat="43.401448" lon="11.3702485"><ele>430.0</ele><time>2026-04-20T15:59:20.506Z</time></trkpt><trkpt lat="43.4014998" lon="11.3701042"><ele>430.0</ele><time>2026-04-20T15:59:21.506Z</time></trkpt><trkpt lat="43.4015466" lon="11.3699624"><ele>430.0</ele><time>2026-04-20T15:59:22.506Z</time></trkpt><trkpt lat="43.4015874" lon="11.3698147"><ele>430.0</ele><time>2026-04-20T15:59:23.506Z</time></trkpt><trkpt lat="43.4016212" lon="11.3696603"><ele>430.0</ele><time>2026-04-20T15:59:24.506Z</time></trkpt><trkpt lat="43.4016497" lon="11.3695004"><ele>430.0</ele><time>2026-04-20T15:59:25.506Z</time></trkpt><trkpt lat="43.4016733" lon="11.369342"><ele>430.0</ele><time>2026-04-20T15:59:26.506Z</time></trkpt><trkpt lat="43.401694" lon="11.3691901"><ele>430.0</ele><time>2026-04-20T15:59:27.506Z</time></trkpt><trkpt lat="43.4017133" lon="11.3690401"><ele>430.0</ele><time>2026-04-20T15:59:28.506Z</time></trkpt><trkpt lat="43.4017269" lon="11.3688865"><ele>430.0</ele><time>2026-04-20T15:59:29.506Z</time></trkpt><trkpt lat="43.4017304" lon="11.3687383"><ele>430.0</ele><time>2026-04-20T15:59:30.506Z</time></trkpt><trkpt lat="43.4017219" lon="11.368594"><ele>430.0</ele><time>2026-04-20T15:59:31.506Z</time></trkpt><trkpt lat="43.401701" lon="11.3684459"><ele>430.0</ele><time>2026-04-20T15:59:32.507Z</time></trkpt><trkpt lat="43.4016781" lon="11.3682954"><ele>430.5</ele><time>2026-04-20T15:59:33.507Z</time></trkpt><trkpt lat="43.4016595" lon="11.3681419"><ele>431.0</ele><time>2026-04-20T15:59:34.506Z</time></trkpt><trkpt lat="43.401646" lon="11.3679842"><ele>431.5</ele><time>2026-04-20T15:59:35.506Z</time></trkpt><trkpt lat="43.4016321" lon="11.3678269"><ele>432.0</ele><time>2026-04-20T15:59:36.507Z</time></trkpt><trkpt lat="43.4016179" lon="11.3676716"><ele>432.40000000000003</ele><time>2026-04-20T15:59:37.507Z</time></trkpt><trkpt lat="43.4016046" lon="11.3675158"><ele>432.80000000000007</ele><time>2026-04-20T15:59:38.507Z</time></trkpt><trkpt lat="43.401592" lon="11.3673616"><ele>433.2</ele><time>2026-04-20T15:59:39.508Z</time></trkpt><trkpt lat="43.4015773" lon="11.3672192"><ele>433.6</ele><time>2026-04-20T15:59:40.507Z</time></trkpt><trkpt lat="43.4015594" lon="11.367093"><ele>434.0</ele><time>2026-04-20T15:59:41.507Z</time></trkpt><trkpt lat="43.4015353" lon="11.3669789"><ele>434.2</ele><time>2026-04-20T15:59:42.507Z</time></trkpt><trkpt lat="43.4014985" lon="11.3668714"><ele>434.4</ele><time>2026-04-20T15:59:43.507Z</time></trkpt><trkpt lat="43.4014471" lon="11.3667616"><ele>434.6</ele><time>2026-04-20T15:59:44.507Z</time></trkpt><trkpt lat="43.4013929" lon="11.3666588"><ele>434.8</ele><time>2026-04-20T15:59:45.507Z</time></trkpt><trkpt lat="43.4013417" lon="11.3665472"><ele>435.0</ele><time>2026-04-20T15:59:46.507Z</time></trkpt><trkpt lat="43.4013005" lon="11.3664333"><ele>436.2</ele><time>2026-04-20T15:59:47.507Z</time></trkpt><trkpt lat="43.4012639" lon="11.3663049"><ele>437.4</ele><time>2026-04-20T15:59:48.507Z</time></trkpt><trkpt lat="43.4012378" lon="11.3661753"><ele>438.6</ele><time>2026-04-20T15:59:49.507Z</time></trkpt><trkpt lat="43.4012198" lon="11.3660366"><ele>439.8</ele><time>2026-04-20T15:59:50.508Z</time></trkpt><trkpt lat="43.4012046" lon="11.3659002"><ele>441.0</ele><time>2026-04-20T15:59:51.507Z</time></trkpt><trkpt lat="43.4011865" lon="11.3657652"><ele>441.0</ele><time>2026-04-20T15:59:52.507Z</time></trkpt><trkpt lat="43.4011659" lon="11.3656352"><ele>441.0</ele><time>2026-04-20T15:59:53.507Z</time></trkpt><trkpt lat="43.401145" lon="11.3655159"><ele>441.0</ele><time>2026-04-20T15:59:54.507Z</time></trkpt><trkpt lat="43.4011269" lon="11.3654081"><ele>441.0</ele><time>2026-04-20T15:59:55.508Z</time></trkpt><trkpt lat="43.4011113" lon="11.3653022"><ele>441.0</ele><time>2026-04-20T15:59:56.507Z</time></trkpt><trkpt lat="43.4010943" lon="11.3651867"><ele>441.0</ele><time>2026-04-20T15:59:57.507Z</time></trkpt><trkpt lat="43.4010778" lon="11.365068"><ele>440.8</ele><time>2026-04-20T15:59:58.507Z</time></trkpt><trkpt lat="43.4010606" lon="11.3649384"><ele>440.6</ele><time>2026-04-20T15:59:59.507Z</time></trkpt><trkpt lat="43.4010467" lon="11.3648079"><ele>440.4</ele><time>2026-04-20T16:00:00.507Z</time></trkpt><trkpt lat="43.4010276" lon="11.3646771"><ele>440.2</ele><time>2026-04-20T16:00:01.507Z</time></trkpt><trkpt lat="43.4009944" lon="11.3645492"><ele>440.0</ele><time>2026-04-20T16:00:02.507Z</time></trkpt><trkpt lat="43.4009459" lon="11.3644359"><ele>439.99999999999994</ele><time>2026-04-20T16:00:03.507Z</time></trkpt><trkpt lat="43.4008895" lon="11.3643231"><ele>440.0</ele><time>2026-04-20T16:00:04.508Z</time></trkpt><trkpt lat="43.4008356" lon="11.3642118"><ele>440.0</ele><time>2026-04-20T16:00:05.507Z</time></trkpt><trkpt lat="43.4007984" lon="11.3641086"><ele>440.0</ele><time>2026-04-20T16:00:06.507Z</time></trkpt><trkpt lat="43.4007758" lon="11.3640042"><ele>439.99999999999994</ele><time>2026-04-20T16:00:07.508Z</time></trkpt><trkpt lat="43.4007619" lon="11.3638986"><ele>440.0</ele><time>2026-04-20T16:00:08.508Z</time></trkpt><trkpt lat="43.4007591" lon="11.3637855"><ele>439.99999999999994</ele><time>2026-04-20T16:00:09.508Z</time></trkpt><trkpt lat="43.4007682" lon="11.363676"><ele>440.0</ele><time>2026-04-20T16:00:10.508Z</time></trkpt><trkpt lat="43.4007907" lon="11.3635703"><ele>440.0</ele><time>2026-04-20T16:00:11.507Z</time></trkpt><trkpt lat="43.4008259" lon="11.3634697"><ele>440.0</ele><time>2026-04-20T16:00:12.507Z</time></trkpt><trkpt lat="43.4008764" lon="11.3633783"><ele>439.99999999999994</ele><time>2026-04-20T16:00:13.507Z</time></trkpt><trkpt lat="43.4009387" lon="11.3632996"><ele>440.0</ele><time>2026-04-20T16:00:14.507Z</time></trkpt><trkpt lat="43.4010064" lon="11.3632418"><ele>439.99999999999994</ele><time>2026-04-20T16:00:15.508Z</time></trkpt><trkpt lat="43.4010853" lon="11.3631999"><ele>440.0</ele><time>2026-04-20T16:00:16.507Z</time></trkpt><trkpt lat="43.4011678" lon="11.3631714"><ele>440.0</ele><time>2026-04-20T16:00:17.507Z</time></trkpt><trkpt lat="43.4012521" lon="11.3631304"><ele>440.0</ele><time>2026-04-20T16:00:18.508Z</time></trkpt><trkpt lat="43.4013234" lon="11.363075"><ele>439.99999999999994</ele><time>2026-04-20T16:00:19.507Z</time></trkpt><trkpt lat="43.4013756" lon="11.3629966"><ele>440.0</ele><time>2026-04-20T16:00:20.507Z</time></trkpt><trkpt lat="43.4014125" lon="11.3629038"><ele>441.8</ele><time>2026-04-20T16:00:21.508Z</time></trkpt><trkpt lat="43.4014315" lon="11.3627859"><ele>443.6</ele><time>2026-04-20T16:00:22.507Z</time></trkpt><trkpt lat="43.4014344" lon="11.3626516"><ele>445.4</ele><time>2026-04-20T16:00:23.508Z</time></trkpt><trkpt lat="43.4014257" lon="11.3625189"><ele>447.2</ele><time>2026-04-20T16:00:24.509Z</time></trkpt><trkpt lat="43.4014038" lon="11.3623941"><ele>449.0</ele><time>2026-04-20T16:00:25.508Z</time></trkpt><trkpt lat="43.4013726" lon="11.362272"><ele>448.16666666666663</ele><time>2026-04-20T16:00:26.508Z</time></trkpt><trkpt lat="43.4013371" lon="11.3621716"><ele>447.3333333333333</ele><time>2026-04-20T16:00:27.509Z</time></trkpt><trkpt lat="43.4013152" lon="11.3620812"><ele>446.5</ele><time>2026-04-20T16:00:28.508Z</time></trkpt><trkpt lat="43.4013392" lon="11.3619193"><ele>445.66666666666663</ele><time>2026-04-20T16:00:30.509Z</time></trkpt><trkpt lat="43.4013894" lon="11.3618452"><ele>444.8333333333333</ele><time>2026-04-20T16:00:31.508Z</time></trkpt><trkpt lat="43.4014611" lon="11.3617725"><ele>444.0</ele><time>2026-04-20T16:00:32.509Z</time></trkpt><trkpt lat="43.4015459" lon="11.361693"><ele>444.0</ele><time>2026-04-20T16:00:33.508Z</time></trkpt><trkpt lat="43.4016418" lon="11.3616049"><ele>444.0</ele><time>2026-04-20T16:00:34.508Z</time></trkpt><trkpt lat="43.4017346" lon="11.3615126"><ele>444.0</ele><time>2026-04-20T16:00:35.508Z</time></trkpt><trkpt lat="43.4018195" lon="11.3614178"><ele>444.0</ele><time>2026-04-20T16:00:36.508Z</time></trkpt><trkpt lat="43.4018968" lon="11.3613146"><ele>444.0</ele><time>2026-04-20T16:00:37.508Z</time></trkpt><trkpt lat="43.4019728" lon="11.3612173"><ele>443.4</ele><time>2026-04-20T16:00:38.508Z</time></trkpt><trkpt lat="43.4020467" lon="11.3611259"><ele>442.79999999999995</ele><time>2026-04-20T16:00:39.508Z</time></trkpt><trkpt lat="43.4021264" lon="11.3610361"><ele>442.20000000000005</ele><time>2026-04-20T16:00:40.508Z</time></trkpt><trkpt lat="43.402206" lon="11.3609592"><ele>441.6</ele><time>2026-04-20T16:00:41.508Z</time></trkpt><trkpt lat="43.4022775" lon="11.3609021"><ele>441.0</ele><time>2026-04-20T16:00:42.508Z</time></trkpt><trkpt lat="43.4023525" lon="11.3608649"><ele>441.0</ele><time>2026-04-20T16:00:43.508Z</time></trkpt><trkpt lat="43.4024364" lon="11.3608482"><ele>441.0</ele><time>2026-04-20T16:00:44.509Z</time></trkpt><trkpt lat="43.4025293" lon="11.3608544"><ele>441.0</ele><time>2026-04-20T16:00:45.508Z</time></trkpt><trkpt lat="43.4026269" lon="11.3608745"><ele>441.0</ele><time>2026-04-20T16:00:46.508Z</time></trkpt><trkpt lat="43.402727" lon="11.3609095"><ele>441.0</ele><time>2026-04-20T16:00:47.508Z</time></trkpt><trkpt lat="43.4028238" lon="11.3609452"><ele>441.0</ele><time>2026-04-20T16:00:48.508Z</time></trkpt><trkpt lat="43.4029052" lon="11.3609627"><ele>441.0</ele><time>2026-04-20T16:00:49.508Z</time></trkpt><trkpt lat="43.4029819" lon="11.3609601"><ele>441.0</ele><time>2026-04-20T16:00:50.509Z</time></trkpt><trkpt lat="43.4030678" lon="11.3609308"><ele>441.0</ele><time>2026-04-20T16:00:51.508Z</time></trkpt><trkpt lat="43.4031583" lon="11.3608906"><ele>441.0</ele><time>2026-04-20T16:00:52.508Z</time></trkpt><trkpt lat="43.4032452" lon="11.3608577"><ele>441.0</ele><time>2026-04-20T16:00:53.509Z</time></trkpt><trkpt lat="43.403324" lon="11.3608327"><ele>440.6666666666667</ele><time>2026-04-20T16:00:54.508Z</time></trkpt><trkpt lat="43.403392" lon="11.3608087"><ele>440.33333333333337</ele><time>2026-04-20T16:00:55.508Z</time></trkpt><trkpt lat="43.4034908" lon="11.3607109"><ele>440.0</ele><time>2026-04-20T16:00:57.508Z</time></trkpt><trkpt lat="43.4035304" lon="11.3606135"><ele>439.6666666666667</ele><time>2026-04-20T16:00:58.508Z</time></trkpt><trkpt lat="43.4035427" lon="11.3605155"><ele>439.33333333333337</ele><time>2026-04-20T16:00:59.509Z</time></trkpt><trkpt lat="43.4035345" lon="11.3604"><ele>439.0</ele><time>2026-04-20T16:01:00.508Z</time></trkpt><trkpt lat="43.4035166" lon="11.3602842"><ele>439.0</ele><time>2026-04-20T16:01:01.509Z</time></trkpt><trkpt lat="43.4035032" lon="11.3601628"><ele>439.0</ele><time>2026-04-20T16:01:02.509Z</time></trkpt><trkpt lat="43.4035003" lon="11.3600318"><ele>439.0</ele><time>2026-04-20T16:01:03.508Z</time></trkpt><trkpt lat="43.4035079" lon="11.3598991"><ele>439.0</ele><time>2026-04-20T16:01:04.509Z</time></trkpt><trkpt lat="43.4035324" lon="11.3597735"><ele>439.0</ele><time>2026-04-20T16:01:05.508Z</time></trkpt><trkpt lat="43.4035648" lon="11.3596575"><ele>440.00000000000006</ele><time>2026-04-20T16:01:06.508Z</time></trkpt><trkpt lat="43.4035884" lon="11.3595462"><ele>441.0</ele><time>2026-04-20T16:01:07.509Z</time></trkpt><trkpt lat="43.4036013" lon="11.3594365"><ele>442.0</ele><time>2026-04-20T16:01:08.509Z</time></trkpt><trkpt lat="43.4035999" lon="11.3593259"><ele>443.0</ele><time>2026-04-20T16:01:09.508Z</time></trkpt><trkpt lat="43.40358" lon="11.3592219"><ele>444.00000000000006</ele><time>2026-04-20T16:01:10.508Z</time></trkpt><trkpt lat="43.4035382" lon="11.3591261"><ele>445.0</ele><time>2026-04-20T16:01:11.51Z</time></trkpt><trkpt lat="43.4034814" lon="11.3590435"><ele>445.00000000000006</ele><time>2026-04-20T16:01:12.509Z</time></trkpt><trkpt lat="43.4034129" lon="11.3589751"><ele>445.0</ele><time>2026-04-20T16:01:13.509Z</time></trkpt><trkpt lat="43.4033362" lon="11.3589298"><ele>445.0</ele><time>2026-04-20T16:01:14.51Z</time></trkpt><trkpt lat="43.4032503" lon="11.3589024"><ele>445.0</ele><time>2026-04-20T16:01:15.509Z</time></trkpt><trkpt lat="43.4031625" lon="11.358886"><ele>445.00000000000006</ele><time>2026-04-20T16:01:16.51Z</time></trkpt><trkpt lat="43.4030802" lon="11.3588613"><ele>445.0</ele><time>2026-04-20T16:01:17.51Z</time></trkpt><trkpt lat="43.4030107" lon="11.358826"><ele>444.50000000000006</ele><time>2026-04-20T16:01:18.509Z</time></trkpt><trkpt lat="43.4029507" lon="11.3587563"><ele>444.0</ele><time>2026-04-20T16:01:19.509Z</time></trkpt><trkpt lat="43.4029023" lon="11.3586564"><ele>443.5</ele><time>2026-04-20T16:01:20.509Z</time></trkpt><trkpt lat="43.4028707" lon="11.3585394"><ele>443.0</ele><time>2026-04-20T16:01:21.509Z</time></trkpt><trkpt lat="43.4028501" lon="11.3584212"><ele>442.50000000000006</ele><time>2026-04-20T16:01:22.509Z</time></trkpt><trkpt lat="43.402833" lon="11.3582941"><ele>442.0</ele><time>2026-04-20T16:01:23.51Z</time></trkpt><trkpt lat="43.4028159" lon="11.3581572"><ele>442.1666666666667</ele><time>2026-04-20T16:01:24.509Z</time></trkpt><trkpt lat="43.4027959" lon="11.3580094"><ele>442.33333333333337</ele><time>2026-04-20T16:01:25.509Z</time></trkpt><trkpt lat="43.4027733" lon="11.3578728"><ele>442.5</ele><time>2026-04-20T16:01:26.509Z</time></trkpt><trkpt lat="43.4027548" lon="11.3577568"><ele>442.66666666666663</ele><time>2026-04-20T16:01:27.51Z</time></trkpt><trkpt lat="43.4027418" lon="11.3576501"><ele>442.8333333333333</ele><time>2026-04-20T16:01:28.509Z</time></trkpt><trkpt lat="43.4027438" lon="11.3575522"><ele>443.0</ele><time>2026-04-20T16:01:29.51Z</time></trkpt><trkpt lat="43.402767" lon="11.3574486"><ele>442.99999999999994</ele><time>2026-04-20T16:01:30.509Z</time></trkpt><trkpt lat="43.4028051" lon="11.3573501"><ele>443.0</ele><time>2026-04-20T16:01:31.509Z</time></trkpt><trkpt lat="43.4028609" lon="11.3572629"><ele>443.0</ele><time>2026-04-20T16:01:32.509Z</time></trkpt><trkpt lat="43.4029364" lon="11.3571914"><ele>443.0</ele><time>2026-04-20T16:01:33.509Z</time></trkpt><trkpt lat="43.4030178" lon="11.3571389"><ele>442.99999999999994</ele><time>2026-04-20T16:01:34.509Z</time></trkpt><trkpt lat="43.4031027" lon="11.3571074"><ele>443.0</ele><time>2026-04-20T16:01:35.51Z</time></trkpt><trkpt lat="43.4031898" lon="11.3570958"><ele>443.66666666666663</ele><time>2026-04-20T16:01:36.51Z</time></trkpt><trkpt lat="43.4032839" lon="11.3571055"><ele>444.3333333333333</ele><time>2026-04-20T16:01:37.509Z</time></trkpt><trkpt lat="43.4033788" lon="11.357126"><ele>445.0</ele><time>2026-04-20T16:01:38.509Z</time></trkpt><trkpt lat="43.4034668" lon="11.3571397"><ele>445.66666666666663</ele><time>2026-04-20T16:01:39.509Z</time></trkpt><trkpt lat="43.4035485" lon="11.3571361"><ele>446.3333333333333</ele><time>2026-04-20T16:01:40.51Z</time></trkpt><trkpt lat="43.4036316" lon="11.357117"><ele>447.0</ele><time>2026-04-20T16:01:41.51Z</time></trkpt><trkpt lat="43.4037086" lon="11.357091"><ele>446.99999999999994</ele><time>2026-04-20T16:01:42.509Z</time></trkpt><trkpt lat="43.4037708" lon="11.3570541"><ele>447.0</ele><time>2026-04-20T16:01:43.51Z</time></trkpt><trkpt lat="43.4038201" lon="11.3569919"><ele>447.0</ele><time>2026-04-20T16:01:44.51Z</time></trkpt><trkpt lat="43.4038536" lon="11.3569088"><ele>447.0</ele><time>2026-04-20T16:01:45.509Z</time></trkpt><trkpt lat="43.403876" lon="11.3567981"><ele>447.0</ele><time>2026-04-20T16:01:46.51Z</time></trkpt><trkpt lat="43.4038738" lon="11.3566852"><ele>446.99999999999994</ele><time>2026-04-20T16:01:47.51Z</time></trkpt><trkpt lat="43.4038454" lon="11.3565917"><ele>447.0</ele><time>2026-04-20T16:01:48.509Z</time></trkpt><trkpt lat="43.4037988" lon="11.356506"><ele>447.0</ele><time>2026-04-20T16:01:49.51Z</time></trkpt><trkpt lat="43.4037364" lon="11.356414"><ele>447.00000000000006</ele><time>2026-04-20T16:01:50.509Z</time></trkpt><trkpt lat="43.4036704" lon="11.3563261"><ele>447.00000000000006</ele><time>2026-04-20T16:01:51.509Z</time></trkpt><trkpt lat="43.4036124" lon="11.356247"><ele>447.0</ele><time>2026-04-20T16:01:52.509Z</time></trkpt><trkpt lat="43.4035758" lon="11.3561639"><ele>447.0</ele><time>2026-04-20T16:01:53.509Z</time></trkpt><trkpt lat="43.4035819" lon="11.3560021"><ele>446.8</ele><time>2026-04-20T16:01:55.509Z</time></trkpt><trkpt lat="43.4036214" lon="11.3559176"><ele>446.6</ele><time>2026-04-20T16:01:56.509Z</time></trkpt><trkpt lat="43.4036929" lon="11.3558422"><ele>446.40000000000003</ele><time>2026-04-20T16:01:57.509Z</time></trkpt><trkpt lat="43.4037922" lon="11.355774"><ele>446.20000000000005</ele><time>2026-04-20T16:01:58.51Z</time></trkpt><trkpt lat="43.4038963" lon="11.3557062"><ele>446.0</ele><time>2026-04-20T16:01:59.511Z</time></trkpt><trkpt lat="43.4039913" lon="11.355649"><ele>447.20000000000005</ele><time>2026-04-20T16:02:00.511Z</time></trkpt><trkpt lat="43.4040706" lon="11.3556039"><ele>448.40000000000003</ele><time>2026-04-20T16:02:01.511Z</time></trkpt><trkpt lat="43.4041524" lon="11.3555743"><ele>449.6</ele><time>2026-04-20T16:02:02.51Z</time></trkpt><trkpt lat="43.4042381" lon="11.355566"><ele>450.8</ele><time>2026-04-20T16:02:03.51Z</time></trkpt><trkpt lat="43.4043407" lon="11.3555748"><ele>452.0</ele><time>2026-04-20T16:02:04.51Z</time></trkpt><trkpt lat="43.4044407" lon="11.3556064"><ele>452.0</ele><time>2026-04-20T16:02:05.51Z</time></trkpt><trkpt lat="43.4045417" lon="11.3556432"><ele>452.00000000000006</ele><time>2026-04-20T16:02:06.51Z</time></trkpt><trkpt lat="43.4046352" lon="11.355684"><ele>452.00000000000006</ele><time>2026-04-20T16:02:07.51Z</time></trkpt><trkpt lat="43.4047235" lon="11.3557442"><ele>452.0</ele><time>2026-04-20T16:02:08.51Z</time></trkpt><trkpt lat="43.4048074" lon="11.355818"><ele>452.0</ele><time>2026-04-20T16:02:09.51Z</time></trkpt><trkpt lat="43.4048886" lon="11.3559046"><ele>452.66666666666663</ele><time>2026-04-20T16:02:10.51Z</time></trkpt><trkpt lat="43.4049699" lon="11.3559855"><ele>453.3333333333333</ele><time>2026-04-20T16:02:11.51Z</time></trkpt><trkpt lat="43.405045" lon="11.3560514"><ele>454.0</ele><time>2026-04-20T16:02:12.511Z</time></trkpt><trkpt lat="43.4051151" lon="11.3561016"><ele>454.66666666666663</ele><time>2026-04-20T16:02:13.51Z</time></trkpt><trkpt lat="43.4051775" lon="11.3561341"><ele>455.3333333333333</ele><time>2026-04-20T16:02:14.51Z</time></trkpt><trkpt lat="43.4052837" lon="11.3561231"><ele>456.0</ele><time>2026-04-20T16:02:16.51Z</time></trkpt><trkpt lat="43.4053714" lon="11.3560186"><ele>456.0</ele><time>2026-04-20T16:02:18.51Z</time></trkpt><trkpt lat="43.4054009" lon="11.3559335"><ele>456.0</ele><time>2026-04-20T16:02:19.511Z</time></trkpt><trkpt lat="43.4054212" lon="11.3558394"><ele>456.0</ele><time>2026-04-20T16:02:20.511Z</time></trkpt><trkpt lat="43.4054375" lon="11.3557302"><ele>456.0</ele><time>2026-04-20T16:02:21.51Z</time></trkpt><trkpt lat="43.4054559" lon="11.3556157"><ele>456.0</ele><time>2026-04-20T16:02:22.511Z</time></trkpt><trkpt lat="43.4054866" lon="11.3555073"><ele>456.0</ele><time>2026-04-20T16:02:23.51Z</time></trkpt><trkpt lat="43.4055307" lon="11.3554337"><ele>455.5</ele><time>2026-04-20T16:02:24.51Z</time></trkpt><trkpt lat="43.405591" lon="11.3553892"><ele>455.0</ele><time>2026-04-20T16:02:25.51Z</time></trkpt><trkpt lat="43.4056644" lon="11.3553789"><ele>454.5</ele><time>2026-04-20T16:02:26.51Z</time></trkpt><trkpt lat="43.4057447" lon="11.3554006"><ele>454.0</ele><time>2026-04-20T16:02:27.51Z</time></trkpt><trkpt lat="43.4058188" lon="11.3554387"><ele>453.5</ele><time>2026-04-20T16:02:28.51Z</time></trkpt><trkpt lat="43.4058933" lon="11.3554983"><ele>453.0</ele><time>2026-04-20T16:02:29.51Z</time></trkpt><trkpt lat="43.4059756" lon="11.3555764"><ele>455.0</ele><time>2026-04-20T16:02:30.51Z</time></trkpt><trkpt lat="43.406061" lon="11.3556564"><ele>456.99999999999994</ele><time>2026-04-20T16:02:31.51Z</time></trkpt><trkpt lat="43.4061399" lon="11.3557348"><ele>458.99999999999994</ele><time>2026-04-20T16:02:32.51Z</time></trkpt><trkpt lat="43.4062207" lon="11.3558176"><ele>461.0</ele><time>2026-04-20T16:02:33.51Z</time></trkpt><trkpt lat="43.4062919" lon="11.3558965"><ele>463.0</ele><time>2026-04-20T16:02:34.51Z</time></trkpt><trkpt lat="43.4063543" lon="11.355966"><ele>463.75</ele><time>2026-04-20T16:02:35.51Z</time></trkpt><trkpt lat="43.406454" lon="11.3560594"><ele>464.5</ele><time>2026-04-20T16:02:37.51Z</time></trkpt><trkpt lat="43.4065412" lon="11.3561072"><ele>465.25</ele><time>2026-04-20T16:02:39.51Z</time></trkpt><trkpt lat="43.4066444" lon="11.3560467"><ele>466.0</ele><time>2026-04-20T16:02:41.51Z</time></trkpt><trkpt lat="43.4067022" lon="11.3558949"><ele>466.00000000000006</ele><time>2026-04-20T16:02:43.51Z</time></trkpt><trkpt lat="43.4067105" lon="11.3558076"><ele>466.0</ele><time>2026-04-20T16:02:44.51Z</time></trkpt><trkpt lat="43.406705" lon="11.3557197"><ele>466.0</ele><time>2026-04-20T16:02:45.51Z</time></trkpt><trkpt lat="43.4066825" lon="11.3556325"><ele>466.0</ele><time>2026-04-20T16:02:46.511Z</time></trkpt><trkpt lat="43.4066555" lon="11.3555222"><ele>466.00000000000006</ele><time>2026-04-20T16:02:47.511Z</time></trkpt><trkpt lat="43.4066252" lon="11.3553996"><ele>466.0</ele><time>2026-04-20T16:02:48.511Z</time></trkpt><trkpt lat="43.4065999" lon="11.35527"><ele>465.33333333333337</ele><time>2026-04-20T16:02:49.511Z</time></trkpt><trkpt lat="43.4065833" lon="11.3551346"><ele>464.6666666666667</ele><time>2026-04-20T16:02:50.511Z</time></trkpt><trkpt lat="43.4065685" lon="11.3550092"><ele>464.0</ele><time>2026-04-20T16:02:51.511Z</time></trkpt><trkpt lat="43.4065645" lon="11.3548987"><ele>463.33333333333337</ele><time>2026-04-20T16:02:52.511Z</time></trkpt><trkpt lat="43.4065825" lon="11.3547994"><ele>462.6666666666667</ele><time>2026-04-20T16:02:53.511Z</time></trkpt><trkpt lat="43.4066253" lon="11.3547149"><ele>462.0</ele><time>2026-04-20T16:02:54.511Z</time></trkpt><trkpt lat="43.4066877" lon="11.3546426"><ele>460.6</ele><time>2026-04-20T16:02:55.511Z</time></trkpt><trkpt lat="43.406763" lon="11.3545821"><ele>459.20000000000005</ele><time>2026-04-20T16:02:56.511Z</time></trkpt><trkpt lat="43.4068498" lon="11.3545253"><ele>457.8</ele><time>2026-04-20T16:02:57.511Z</time></trkpt><trkpt lat="43.4069409" lon="11.3544648"><ele>456.4</ele><time>2026-04-20T16:02:58.511Z</time></trkpt><trkpt lat="43.4070346" lon="11.3544059"><ele>455.0</ele><time>2026-04-20T16:02:59.511Z</time></trkpt><trkpt lat="43.4071269" lon="11.3543624"><ele>457.0</ele><time>2026-04-20T16:03:00.512Z</time></trkpt><trkpt lat="43.407219" lon="11.3543419"><ele>459.0</ele><time>2026-04-20T16:03:01.511Z</time></trkpt><trkpt lat="43.4073085" lon="11.354344"><ele>461.0</ele><time>2026-04-20T16:03:02.511Z</time></trkpt><trkpt lat="43.4073969" lon="11.3543777"><ele>463.0</ele><time>2026-04-20T16:03:03.511Z</time></trkpt><trkpt lat="43.4074766" lon="11.3544291"><ele>465.0</ele><time>2026-04-20T16:03:04.512Z</time></trkpt><trkpt lat="43.4075922" lon="11.3544518"><ele>465.0</ele><time>2026-04-20T16:03:06.512Z</time></trkpt><trkpt lat="43.407671" lon="11.3543656"><ele>465.0</ele><time>2026-04-20T16:03:08.512Z</time></trkpt><trkpt lat="43.4077054" lon="11.3541916"><ele>465.0</ele><time>2026-04-20T16:03:10.511Z</time></trkpt><trkpt lat="43.4077228" lon="11.3540865"><ele>465.0</ele><time>2026-04-20T16:03:11.511Z</time></trkpt><trkpt lat="43.4077476" lon="11.3539778"><ele>465.0</ele><time>2026-04-20T16:03:12.511Z</time></trkpt><trkpt lat="43.4077829" lon="11.3538728"><ele>464.1666666666667</ele><time>2026-04-20T16:03:13.511Z</time></trkpt><trkpt lat="43.4078389" lon="11.3537951"><ele>463.33333333333337</ele><time>2026-04-20T16:03:14.512Z</time></trkpt><trkpt lat="43.4079193" lon="11.3537556"><ele>462.5</ele><time>2026-04-20T16:03:15.512Z</time></trkpt><trkpt lat="43.4080038" lon="11.3537496"><ele>461.6666666666667</ele><time>2026-04-20T16:03:16.511Z</time></trkpt><trkpt lat="43.4080824" lon="11.3537779"><ele>460.83333333333337</ele><time>2026-04-20T16:03:17.512Z</time></trkpt><trkpt lat="43.4081553" lon="11.3538324"><ele>460.0</ele><time>2026-04-20T16:03:18.512Z</time></trkpt><trkpt lat="43.4082245" lon="11.3539068"><ele>462.4</ele><time>2026-04-20T16:03:19.511Z</time></trkpt><trkpt lat="43.4082879" lon="11.3539997"><ele>464.8</ele><time>2026-04-20T16:03:20.511Z</time></trkpt><trkpt lat="43.4083489" lon="11.3540806"><ele>467.20000000000005</ele><time>2026-04-20T16:03:21.511Z</time></trkpt><trkpt lat="43.4084069" lon="11.3541412"><ele>469.6</ele><time>2026-04-20T16:03:22.511Z</time></trkpt><trkpt lat="43.4085122" lon="11.3541905"><ele>472.0</ele><time>2026-04-20T16:03:24.512Z</time></trkpt><trkpt lat="43.4086312" lon="11.3541554"><ele>472.00000000000006</ele><time>2026-04-20T16:03:26.512Z</time></trkpt><trkpt lat="43.4086864" lon="11.3540948"><ele>472.0</ele><time>2026-04-20T16:03:27.511Z</time></trkpt><trkpt lat="43.4087331" lon="11.3540054"><ele>472.0</ele><time>2026-04-20T16:03:28.511Z</time></trkpt><trkpt lat="43.4087612" lon="11.3539025"><ele>472.0</ele><time>2026-04-20T16:03:29.511Z</time></trkpt><trkpt lat="43.4087742" lon="11.3537938"><ele>472.00000000000006</ele><time>2026-04-20T16:03:30.512Z</time></trkpt><trkpt lat="43.4087807" lon="11.353677"><ele>472.0</ele><time>2026-04-20T16:03:31.512Z</time></trkpt><trkpt lat="43.4087859" lon="11.3535599"><ele>471.33333333333337</ele><time>2026-04-20T16:03:32.511Z</time></trkpt><trkpt lat="43.4087977" lon="11.3534468"><ele>470.6666666666667</ele><time>2026-04-20T16:03:33.513Z</time></trkpt><trkpt lat="43.4088252" lon="11.3533519"><ele>470.0</ele><time>2026-04-20T16:03:34.512Z</time></trkpt><trkpt lat="43.4088789" lon="11.353274"><ele>469.33333333333337</ele><time>2026-04-20T16:03:35.512Z</time></trkpt><trkpt lat="43.4089527" lon="11.3532189"><ele>468.6666666666667</ele><time>2026-04-20T16:03:36.512Z</time></trkpt><trkpt lat="43.4090453" lon="11.3531954"><ele>468.0</ele><time>2026-04-20T16:03:37.512Z</time></trkpt><trkpt lat="43.4091406" lon="11.3531845"><ele>468.0</ele><time>2026-04-20T16:03:38.513Z</time></trkpt><trkpt lat="43.4092327" lon="11.3531817"><ele>468.0</ele><time>2026-04-20T16:03:39.512Z</time></trkpt><trkpt lat="43.4093274" lon="11.3531948"><ele>468.0</ele><time>2026-04-20T16:03:40.512Z</time></trkpt><trkpt lat="43.4094202" lon="11.3532284"><ele>468.0</ele><time>2026-04-20T16:03:41.512Z</time></trkpt><trkpt lat="43.4095013" lon="11.3532752"><ele>468.0</ele><time>2026-04-20T16:03:42.512Z</time></trkpt><trkpt lat="43.4095677" lon="11.3533197"><ele>468.0</ele><time>2026-04-20T16:03:43.513Z</time></trkpt><trkpt lat="43.4096742" lon="11.3533577"><ele>468.1666666666667</ele><time>2026-04-20T16:03:45.513Z</time></trkpt><trkpt lat="43.4097702" lon="11.3532892"><ele>468.33333333333337</ele><time>2026-04-20T16:03:47.512Z</time></trkpt><trkpt lat="43.4098049" lon="11.3532076"><ele>468.5</ele><time>2026-04-20T16:03:48.512Z</time></trkpt><trkpt lat="43.4098278" lon="11.3531051"><ele>468.6666666666667</ele><time>2026-04-20T16:03:49.512Z</time></trkpt><trkpt lat="43.4098336" lon="11.3530045"><ele>468.83333333333337</ele><time>2026-04-20T16:03:50.512Z</time></trkpt><trkpt lat="43.4098359" lon="11.3529041"><ele>469.0</ele><time>2026-04-20T16:03:51.512Z</time></trkpt><trkpt lat="43.4098485" lon="11.352814"><ele>469.00000000000006</ele><time>2026-04-20T16:03:52.513Z</time></trkpt><trkpt lat="43.4098865" lon="11.352724"><ele>469.0</ele><time>2026-04-20T16:03:53.512Z</time></trkpt><trkpt lat="43.4099462" lon="11.3526441"><ele>469.0</ele><time>2026-04-20T16:03:54.512Z</time></trkpt><trkpt lat="43.4100086" lon="11.3525728"><ele>469.0</ele><time>2026-04-20T16:03:55.512Z</time></trkpt><trkpt lat="43.4100694" lon="11.3525075"><ele>469.00000000000006</ele><time>2026-04-20T16:03:56.512Z</time></trkpt><trkpt lat="43.4101176" lon="11.352451"><ele>469.0</ele><time>2026-04-20T16:03:57.512Z</time></trkpt><trkpt lat="43.4101994" lon="11.3523587"><ele>469.0</ele><time>2026-04-20T16:03:59.513Z</time></trkpt><trkpt lat="43.4103293" lon="11.3523108"><ele>469.0</ele><time>2026-04-20T16:04:01.513Z</time></trkpt><trkpt lat="43.4104247" lon="11.352295"><ele>469.0</ele><time>2026-04-20T16:04:02.512Z</time></trkpt><trkpt lat="43.4105389" lon="11.3522755"><ele>469.0</ele><time>2026-04-20T16:04:03.512Z</time></trkpt><trkpt lat="43.4106655" lon="11.3522494"><ele>469.5</ele><time>2026-04-20T16:04:04.513Z</time></trkpt><trkpt lat="43.4108013" lon="11.3522134"><ele>470.0</ele><time>2026-04-20T16:04:05.512Z</time></trkpt><trkpt lat="43.4109442" lon="11.3521776"><ele>470.5</ele><time>2026-04-20T16:04:06.513Z</time></trkpt><trkpt lat="43.4110811" lon="11.3521449"><ele>471.0</ele><time>2026-04-20T16:04:07.513Z</time></trkpt><trkpt lat="43.4112139" lon="11.3521115"><ele>469.66666666666663</ele><time>2026-04-20T16:04:08.512Z</time></trkpt><trkpt lat="43.4113608" lon="11.3520745"><ele>468.3333333333333</ele><time>2026-04-20T16:04:09.512Z</time></trkpt><trkpt lat="43.4115188" lon="11.3520332"><ele>467.0</ele><time>2026-04-20T16:04:10.512Z</time></trkpt><trkpt lat="43.4116795" lon="11.3519884"><ele>467.0</ele><time>2026-04-20T16:04:11.512Z</time></trkpt><trkpt lat="43.4118441" lon="11.3519434"><ele>467.0</ele><time>2026-04-20T16:04:12.513Z</time></trkpt><trkpt lat="43.4120123" lon="11.3518984"><ele>467.0</ele><time>2026-04-20T16:04:13.512Z</time></trkpt><trkpt lat="43.4121788" lon="11.3518572"><ele>468.25</ele><time>2026-04-20T16:04:14.513Z</time></trkpt><trkpt lat="43.4123342" lon="11.3518223"><ele>469.5</ele><time>2026-04-20T16:04:15.513Z</time></trkpt><trkpt lat="43.4124706" lon="11.3517865"><ele>470.75</ele><time>2026-04-20T16:04:16.512Z</time></trkpt><trkpt lat="43.4125939" lon="11.3517536"><ele>472.0</ele><time>2026-04-20T16:04:17.512Z</time></trkpt><trkpt lat="43.4127139" lon="11.3517151"><ele>472.0</ele><time>2026-04-20T16:04:18.513Z</time></trkpt><trkpt lat="43.4128372" lon="11.3516593"><ele>472.0</ele><time>2026-04-20T16:04:19.512Z</time></trkpt><trkpt lat="43.4129636" lon="11.3515719"><ele>472.0</ele><time>2026-04-20T16:04:20.512Z</time></trkpt><trkpt lat="43.4130892" lon="11.3514458"><ele>472.0</ele><time>2026-04-20T16:04:21.513Z</time></trkpt><trkpt lat="43.4132109" lon="11.3512888"><ele>474.6666666666667</ele><time>2026-04-20T16:04:22.513Z</time></trkpt><trkpt lat="43.4133226" lon="11.3511221"><ele>477.33333333333337</ele><time>2026-04-20T16:04:23.513Z</time></trkpt><trkpt lat="43.4134303" lon="11.3509564"><ele>480.0</ele><time>2026-04-20T16:04:24.513Z</time></trkpt><trkpt lat="43.4135379" lon="11.3507945"><ele>480.0</ele><time>2026-04-20T16:04:25.514Z</time></trkpt><trkpt lat="43.4136404" lon="11.3506403"><ele>480.0</ele><time>2026-04-20T16:04:26.513Z</time></trkpt><trkpt lat="43.4137374" lon="11.3505002"><ele>480.0</ele><time>2026-04-20T16:04:27.513Z</time></trkpt><trkpt lat="43.4138268" lon="11.3503803"><ele>480.0</ele><time>2026-04-20T16:04:28.514Z</time></trkpt><trkpt lat="43.4139137" lon="11.350296"><ele>482.8</ele><time>2026-04-20T16:04:29.513Z</time></trkpt><trkpt lat="43.4140011" lon="11.3502594"><ele>485.6</ele><time>2026-04-20T16:04:30.513Z</time></trkpt><trkpt lat="43.4141064" lon="11.3502598"><ele>488.4</ele><time>2026-04-20T16:04:31.513Z</time></trkpt><trkpt lat="43.4142241" lon="11.350317"><ele>491.2</ele><time>2026-04-20T16:04:32.513Z</time></trkpt><trkpt lat="43.4143289" lon="11.3503903"><ele>494.0</ele><time>2026-04-20T16:04:33.514Z</time></trkpt><trkpt lat="43.414412" lon="11.3504424"><ele>494.0</ele><time>2026-04-20T16:04:34.513Z</time></trkpt><trkpt lat="43.4144965" lon="11.3504654"><ele>494.0</ele><time>2026-04-20T16:04:35.513Z</time></trkpt><trkpt lat="43.4145858" lon="11.3504701"><ele>494.0</ele><time>2026-04-20T16:04:36.513Z</time></trkpt><trkpt lat="43.4146505" lon="11.3504112"><ele>494.0</ele><time>2026-04-20T16:04:37.513Z</time></trkpt><trkpt lat="43.4146938" lon="11.3503056"><ele>494.0</ele><time>2026-04-20T16:04:38.514Z</time></trkpt><trkpt lat="43.4147069" lon="11.3501567"><ele>493.25</ele><time>2026-04-20T16:04:39.513Z</time></trkpt><trkpt lat="43.4146979" lon="11.3499811"><ele>492.5</ele><time>2026-04-20T16:04:40.513Z</time></trkpt><trkpt lat="43.4146858" lon="11.349806"><ele>491.75</ele><time>2026-04-20T16:04:41.513Z</time></trkpt><trkpt lat="43.4146766" lon="11.3496363"><ele>491.0</ele><time>2026-04-20T16:04:42.513Z</time></trkpt><trkpt lat="43.4146749" lon="11.3494584"><ele>491.0</ele><time>2026-04-20T16:04:43.513Z</time></trkpt><trkpt lat="43.4146835" lon="11.3492889"><ele>491.0</ele><time>2026-04-20T16:04:44.513Z</time></trkpt><trkpt lat="43.4147276" lon="11.3491429"><ele>491.0</ele><time>2026-04-20T16:04:45.513Z</time></trkpt><trkpt lat="43.4148009" lon="11.3490141"><ele>491.0</ele><time>2026-04-20T16:04:46.513Z</time></trkpt><trkpt lat="43.4149106" lon="11.3488933"><ele>493.75</ele><time>2026-04-20T16:04:47.513Z</time></trkpt><trkpt lat="43.4150295" lon="11.3488043"><ele>496.5</ele><time>2026-04-20T16:04:48.513Z</time></trkpt><trkpt lat="43.4151371" lon="11.3487484"><ele>499.25</ele><time>2026-04-20T16:04:49.513Z</time></trkpt><trkpt lat="43.4152455" lon="11.3487345"><ele>502.0</ele><time>2026-04-20T16:04:50.514Z</time></trkpt><trkpt lat="43.4153681" lon="11.3487478"><ele>502.33333333333337</ele><time>2026-04-20T16:04:51.513Z</time></trkpt><trkpt lat="43.4154997" lon="11.3487918"><ele>502.66666666666663</ele><time>2026-04-20T16:04:52.513Z</time></trkpt><trkpt lat="43.4156585" lon="11.3488643"><ele>503.0</ele><time>2026-04-20T16:04:53.513Z</time></trkpt><trkpt lat="43.4158195" lon="11.3489219"><ele>503.0</ele><time>2026-04-20T16:04:54.513Z</time></trkpt><trkpt lat="43.4159583" lon="11.3489352"><ele>503.0</ele><time>2026-04-20T16:04:55.513Z</time></trkpt><trkpt lat="43.4161034" lon="11.3489008"><ele>503.0</ele><time>2026-04-20T16:04:56.513Z</time></trkpt><trkpt lat="43.4162534" lon="11.3488579"><ele>503.0</ele><time>2026-04-20T16:04:57.513Z</time></trkpt><trkpt lat="43.4165699" lon="11.3488089"><ele>503.5</ele><time>2026-04-20T16:04:59.513Z</time></trkpt><trkpt lat="43.4167139" lon="11.3487904"><ele>504.0</ele><time>2026-04-20T16:05:00.514Z</time></trkpt><trkpt lat="43.4168417" lon="11.3487657"><ele>504.5</ele><time>2026-04-20T16:05:01.513Z</time></trkpt><trkpt lat="43.4169567" lon="11.3487212"><ele>505.0</ele><time>2026-04-20T16:05:02.514Z</time></trkpt><trkpt lat="43.4170576" lon="11.3486505"><ele>505.0</ele><time>2026-04-20T16:05:03.514Z</time></trkpt><trkpt lat="43.4171508" lon="11.3485713"><ele>505.0</ele><time>2026-04-20T16:05:04.513Z</time></trkpt><trkpt lat="43.4172211" lon="11.3484795"><ele>505.0</ele><time>2026-04-20T16:05:05.513Z</time></trkpt><trkpt lat="43.4172128" lon="11.3482175"><ele>505.0</ele><time>2026-04-20T16:05:07.513Z</time></trkpt><trkpt lat="43.4171829" lon="11.3480742"><ele>506.2</ele><time>2026-04-20T16:05:08.514Z</time></trkpt><trkpt lat="43.4171523" lon="11.3479263"><ele>507.4</ele><time>2026-04-20T16:05:09.513Z</time></trkpt><trkpt lat="43.4171375" lon="11.3477723"><ele>508.6</ele><time>2026-04-20T16:05:10.514Z</time></trkpt><trkpt lat="43.4171387" lon="11.3476196"><ele>509.8</ele><time>2026-04-20T16:05:11.514Z</time></trkpt><trkpt lat="43.4171637" lon="11.3474822"><ele>511.0</ele><time>2026-04-20T16:05:12.514Z</time></trkpt><trkpt lat="43.4172157" lon="11.3473669"><ele>511.0</ele><time>2026-04-20T16:05:13.514Z</time></trkpt><trkpt lat="43.4172759" lon="11.3472557"><ele>511.0</ele><time>2026-04-20T16:05:14.514Z</time></trkpt><trkpt lat="43.4173688" lon="11.3471565"><ele>511.0</ele><time>2026-04-20T16:05:15.514Z</time></trkpt><trkpt lat="43.417471" lon="11.3470547"><ele>511.0</ele><time>2026-04-20T16:05:16.514Z</time></trkpt><trkpt lat="43.4175805" lon="11.3469533"><ele>511.0</ele><time>2026-04-20T16:05:17.515Z</time></trkpt><trkpt lat="43.4176924" lon="11.346853"><ele>511.0</ele><time>2026-04-20T16:05:18.515Z</time></trkpt><trkpt lat="43.4178099" lon="11.3467536"><ele>511.0</ele><time>2026-04-20T16:05:19.514Z</time></trkpt><trkpt lat="43.4179356" lon="11.3466634"><ele>511.0</ele><time>2026-04-20T16:05:20.514Z</time></trkpt><trkpt lat="43.4180681" lon="11.3465914"><ele>508.0</ele><time>2026-04-20T16:05:21.514Z</time></trkpt><trkpt lat="43.4182" lon="11.3465407"><ele>505.0</ele><time>2026-04-20T16:05:22.514Z</time></trkpt><trkpt lat="43.4183277" lon="11.3464989"><ele>502.0</ele><time>2026-04-20T16:05:23.514Z</time></trkpt><trkpt lat="43.4184521" lon="11.3464694"><ele>499.0</ele><time>2026-04-20T16:05:24.515Z</time></trkpt><trkpt lat="43.4185786" lon="11.3464503"><ele>499.0</ele><time>2026-04-20T16:05:25.514Z</time></trkpt><trkpt lat="43.4187079" lon="11.3464457"><ele>499.0</ele><time>2026-04-20T16:05:26.514Z</time></trkpt><trkpt lat="43.4188313" lon="11.3464608"><ele>499.0</ele><time>2026-04-20T16:05:27.514Z</time></trkpt><trkpt lat="43.4189562" lon="11.3465171"><ele>499.0</ele><time>2026-04-20T16:05:28.514Z</time></trkpt><trkpt lat="43.4190794" lon="11.346626"><ele>499.5</ele><time>2026-04-20T16:05:29.514Z</time></trkpt><trkpt lat="43.41919" lon="11.3467584"><ele>500.0</ele><time>2026-04-20T16:05:30.514Z</time></trkpt><trkpt lat="43.4192943" lon="11.3468659"><ele>500.5</ele><time>2026-04-20T16:05:31.515Z</time></trkpt><trkpt lat="43.4193978" lon="11.3469429"><ele>501.0</ele><time>2026-04-20T16:05:32.514Z</time></trkpt><trkpt lat="43.4194983" lon="11.3469958"><ele>501.0</ele><time>2026-04-20T16:05:33.514Z</time></trkpt><trkpt lat="43.4195948" lon="11.3470264"><ele>501.0</ele><time>2026-04-20T16:05:34.514Z</time></trkpt><trkpt lat="43.4196889" lon="11.3470326"><ele>501.0</ele><time>2026-04-20T16:05:35.514Z</time></trkpt><trkpt lat="43.4197785" lon="11.3470174"><ele>501.0</ele><time>2026-04-20T16:05:36.514Z</time></trkpt><trkpt lat="43.4198691" lon="11.3470016"><ele>501.0</ele><time>2026-04-20T16:05:37.514Z</time></trkpt><trkpt lat="43.4199618" lon="11.3469888"><ele>500.20000000000005</ele><time>2026-04-20T16:05:38.514Z</time></trkpt><trkpt lat="43.4200582" lon="11.3469968"><ele>499.40000000000003</ele><time>2026-04-20T16:05:39.514Z</time></trkpt><trkpt lat="43.4201561" lon="11.347026"><ele>498.6</ele><time>2026-04-20T16:05:40.515Z</time></trkpt><trkpt lat="43.4202497" lon="11.3470773"><ele>497.8</ele><time>2026-04-20T16:05:41.514Z</time></trkpt><trkpt lat="43.4203407" lon="11.3471474"><ele>497.0</ele><time>2026-04-20T16:05:42.514Z</time></trkpt><trkpt lat="43.4204228" lon="11.3472194"><ele>498.0</ele><time>2026-04-20T16:05:43.514Z</time></trkpt><trkpt lat="43.4204995" lon="11.3472793"><ele>499.0</ele><time>2026-04-20T16:05:44.514Z</time></trkpt><trkpt lat="43.4205758" lon="11.3473043"><ele>500.0</ele><time>2026-04-20T16:05:45.514Z</time></trkpt><trkpt lat="43.4206641" lon="11.3473006"><ele>501.0</ele><time>2026-04-20T16:05:46.514Z</time></trkpt><trkpt lat="43.4208919" lon="11.3472982"><ele>501.0</ele><time>2026-04-20T16:05:48.514Z</time></trkpt><trkpt lat="43.4209963" lon="11.3473122"><ele>501.0</ele><time>2026-04-20T16:05:49.514Z</time></trkpt><trkpt lat="43.4210919" lon="11.3473343"><ele>501.0</ele><time>2026-04-20T16:05:50.514Z</time></trkpt><trkpt lat="43.4211759" lon="11.3473765"><ele>501.0</ele><time>2026-04-20T16:05:51.514Z</time></trkpt><trkpt lat="43.4212468" lon="11.3474337"><ele>501.0</ele><time>2026-04-20T16:05:52.514Z</time></trkpt><trkpt lat="43.4213025" lon="11.3475031"><ele>501.0</ele><time>2026-04-20T16:05:53.515Z</time></trkpt><trkpt lat="43.4213491" lon="11.3475757"><ele>501.0</ele><time>2026-04-20T16:05:54.514Z</time></trkpt><trkpt lat="43.4213707" lon="11.3476687"><ele>501.0</ele><time>2026-04-20T16:05:55.514Z</time></trkpt><trkpt lat="43.42138" lon="11.3477807"><ele>501.0</ele><time>2026-04-20T16:05:56.514Z</time></trkpt><trkpt lat="43.421381" lon="11.347905"><ele>501.0</ele><time>2026-04-20T16:05:57.514Z</time></trkpt><trkpt lat="43.4213791" lon="11.3480393"><ele>501.0</ele><time>2026-04-20T16:05:58.515Z</time></trkpt><trkpt lat="43.4213734" lon="11.3481803"><ele>501.0</ele><time>2026-04-20T16:05:59.515Z</time></trkpt><trkpt lat="43.4213568" lon="11.3483318"><ele>501.75</ele><time>2026-04-20T16:06:00.515Z</time></trkpt><trkpt lat="43.4213327" lon="11.3484908"><ele>502.5</ele><time>2026-04-20T16:06:01.515Z</time></trkpt><trkpt lat="43.421314" lon="11.3486536"><ele>503.25</ele><time>2026-04-20T16:06:02.515Z</time></trkpt><trkpt lat="43.4213042" lon="11.3488136"><ele>504.0</ele><time>2026-04-20T16:06:03.515Z</time></trkpt><trkpt lat="43.4213016" lon="11.3489725"><ele>502.79999999999995</ele><time>2026-04-20T16:06:04.516Z</time></trkpt><trkpt lat="43.4213036" lon="11.3491259"><ele>501.59999999999997</ele><time>2026-04-20T16:06:05.515Z</time></trkpt><trkpt lat="43.4213113" lon="11.3492614"><ele>500.4</ele><time>2026-04-20T16:06:06.515Z</time></trkpt><trkpt lat="43.4213323" lon="11.3493794"><ele>499.2</ele><time>2026-04-20T16:06:07.515Z</time></trkpt><trkpt lat="43.4213741" lon="11.3494765"><ele>498.0</ele><time>2026-04-20T16:06:08.516Z</time></trkpt><trkpt lat="43.4214381" lon="11.3495408"><ele>498.0</ele><time>2026-04-20T16:06:09.515Z</time></trkpt><trkpt lat="43.4215191" lon="11.349569"><ele>497.99999999999994</ele><time>2026-04-20T16:06:10.515Z</time></trkpt><trkpt lat="43.4216108" lon="11.3495636"><ele>497.99999999999994</ele><time>2026-04-20T16:06:11.515Z</time></trkpt><trkpt lat="43.4217045" lon="11.3495402"><ele>498.0</ele><time>2026-04-20T16:06:12.516Z</time></trkpt><trkpt lat="43.4217947" lon="11.349521"><ele>498.0</ele><time>2026-04-20T16:06:13.516Z</time></trkpt><trkpt lat="43.421889" lon="11.3495413"><ele>498.0</ele><time>2026-04-20T16:06:14.515Z</time></trkpt><trkpt lat="43.4219735" lon="11.3495938"><ele>497.99999999999994</ele><time>2026-04-20T16:06:15.515Z</time></trkpt><trkpt lat="43.4220582" lon="11.3496572"><ele>497.99999999999994</ele><time>2026-04-20T16:06:16.516Z</time></trkpt><trkpt lat="43.4221253" lon="11.349739"><ele>498.0</ele><time>2026-04-20T16:06:17.515Z</time></trkpt><trkpt lat="43.4221937" lon="11.3498183"><ele>498.0</ele><time>2026-04-20T16:06:18.515Z</time></trkpt><trkpt lat="43.4222637" lon="11.3498963"><ele>495.6666666666667</ele><time>2026-04-20T16:06:19.515Z</time></trkpt><trkpt lat="43.4223349" lon="11.3499593"><ele>493.33333333333337</ele><time>2026-04-20T16:06:20.516Z</time></trkpt><trkpt lat="43.4224143" lon="11.3500058"><ele>491.0</ele><time>2026-04-20T16:06:21.515Z</time></trkpt><trkpt lat="43.4224921" lon="11.3500527"><ele>488.6666666666667</ele><time>2026-04-20T16:06:22.515Z</time></trkpt><trkpt lat="43.4225668" lon="11.3501024"><ele>486.33333333333337</ele><time>2026-04-20T16:06:23.516Z</time></trkpt><trkpt lat="43.4226424" lon="11.3501575"><ele>484.0</ele><time>2026-04-20T16:06:24.515Z</time></trkpt><trkpt lat="43.422706" lon="11.3502215"><ele>484.00000000000006</ele><time>2026-04-20T16:06:25.515Z</time></trkpt><trkpt lat="43.4227512" lon="11.3503057"><ele>484.0</ele><time>2026-04-20T16:06:26.515Z</time></trkpt><trkpt lat="43.4227916" lon="11.3503936"><ele>484.0</ele><time>2026-04-20T16:06:27.515Z</time></trkpt><trkpt lat="43.4228353" lon="11.3505419"><ele>484.0</ele><time>2026-04-20T16:06:29.516Z</time></trkpt><trkpt lat="43.4228706" lon="11.3506605"><ele>484.00000000000006</ele><time>2026-04-20T16:06:31.515Z</time></trkpt><trkpt lat="43.4229375" lon="11.3507027"><ele>484.0</ele><time>2026-04-20T16:06:33.516Z</time></trkpt><trkpt lat="43.4230407" lon="11.3506601"><ele>482.6666666666667</ele><time>2026-04-20T16:06:35.515Z</time></trkpt><trkpt lat="43.4231468" lon="11.350541"><ele>481.33333333333337</ele><time>2026-04-20T16:06:37.515Z</time></trkpt><trkpt lat="43.4232003" lon="11.3504631"><ele>480.0</ele><time>2026-04-20T16:06:38.515Z</time></trkpt><trkpt lat="43.4232552" lon="11.3503948"><ele>478.66666666666663</ele><time>2026-04-20T16:06:39.515Z</time></trkpt><trkpt lat="43.4233203" lon="11.350346"><ele>477.3333333333333</ele><time>2026-04-20T16:06:40.516Z</time></trkpt><trkpt lat="43.4233853" lon="11.3503174"><ele>476.0</ele><time>2026-04-20T16:06:41.515Z</time></trkpt><trkpt lat="43.4234521" lon="11.3502953"><ele>475.99999999999994</ele><time>2026-04-20T16:06:42.515Z</time></trkpt><trkpt lat="43.4235219" lon="11.3502717"><ele>476.0</ele><time>2026-04-20T16:06:43.515Z</time></trkpt><trkpt lat="43.4235943" lon="11.3502382"><ele>476.0</ele><time>2026-04-20T16:06:44.516Z</time></trkpt><trkpt lat="43.4236661" lon="11.3502083"><ele>476.0</ele><time>2026-04-20T16:06:45.516Z</time></trkpt><trkpt lat="43.4237346" lon="11.3501917"><ele>475.99999999999994</ele><time>2026-04-20T16:06:46.516Z</time></trkpt><trkpt lat="43.4237979" lon="11.3501889"><ele>476.0</ele><time>2026-04-20T16:06:47.516Z</time></trkpt><trkpt lat="43.423915" lon="11.3502296"><ele>473.6</ele><time>2026-04-20T16:06:49.516Z</time></trkpt><trkpt lat="43.4239839" lon="11.3503563"><ele>471.20000000000005</ele><time>2026-04-20T16:06:51.516Z</time></trkpt><trkpt lat="43.4239992" lon="11.3504639"><ele>468.79999999999995</ele><time>2026-04-20T16:06:52.516Z</time></trkpt><trkpt lat="43.4239977" lon="11.3505912"><ele>466.4</ele><time>2026-04-20T16:06:53.516Z</time></trkpt><trkpt lat="43.4239926" lon="11.3507266"><ele>464.0</ele><time>2026-04-20T16:06:54.516Z</time></trkpt><trkpt lat="43.4239865" lon="11.3508605"><ele>461.79999999999995</ele><time>2026-04-20T16:06:55.516Z</time></trkpt><trkpt lat="43.4239822" lon="11.350984"><ele>459.59999999999997</ele><time>2026-04-20T16:06:56.516Z</time></trkpt><trkpt lat="43.4239749" lon="11.3511041"><ele>457.4</ele><time>2026-04-20T16:06:57.516Z</time></trkpt><trkpt lat="43.4239548" lon="11.3512292"><ele>455.2</ele><time>2026-04-20T16:06:58.516Z</time></trkpt><trkpt lat="43.4239258" lon="11.3513551"><ele>453.0</ele><time>2026-04-20T16:06:59.516Z</time></trkpt><trkpt lat="43.42389" lon="11.3514812"><ele>452.8333333333333</ele><time>2026-04-20T16:07:00.517Z</time></trkpt><trkpt lat="43.4238504" lon="11.3515986"><ele>452.66666666666663</ele><time>2026-04-20T16:07:01.516Z</time></trkpt><trkpt lat="43.4238117" lon="11.3517055"><ele>452.5</ele><time>2026-04-20T16:07:02.516Z</time></trkpt><trkpt lat="43.423769" lon="11.3518147"><ele>452.3333333333333</ele><time>2026-04-20T16:07:03.516Z</time></trkpt><trkpt lat="43.4237256" lon="11.3519248"><ele>452.16666666666663</ele><time>2026-04-20T16:07:04.516Z</time></trkpt><trkpt lat="43.4236886" lon="11.352031"><ele>452.0</ele><time>2026-04-20T16:07:05.516Z</time></trkpt><trkpt lat="43.4236636" lon="11.3521388"><ele>450.20000000000005</ele><time>2026-04-20T16:07:06.516Z</time></trkpt><trkpt lat="43.42365" lon="11.3522546"><ele>448.40000000000003</ele><time>2026-04-20T16:07:07.517Z</time></trkpt><trkpt lat="43.4236488" lon="11.352379"><ele>446.59999999999997</ele><time>2026-04-20T16:07:08.516Z</time></trkpt><trkpt lat="43.4236593" lon="11.3525117"><ele>444.79999999999995</ele><time>2026-04-20T16:07:09.516Z</time></trkpt><trkpt lat="43.4236801" lon="11.3526475"><ele>443.0</ele><time>2026-04-20T16:07:10.516Z</time></trkpt><trkpt lat="43.4236993" lon="11.3527809"><ele>443.0</ele><time>2026-04-20T16:07:11.516Z</time></trkpt><trkpt lat="43.4237181" lon="11.3529143"><ele>442.99999999999994</ele><time>2026-04-20T16:07:12.516Z</time></trkpt><trkpt lat="43.4237375" lon="11.3530449"><ele>442.99999999999994</ele><time>2026-04-20T16:07:13.517Z</time></trkpt><trkpt lat="43.4237561" lon="11.3531765"><ele>443.0</ele><time>2026-04-20T16:07:14.516Z</time></trkpt><trkpt lat="43.4237729" lon="11.3533039"><ele>443.0</ele><time>2026-04-20T16:07:15.516Z</time></trkpt><trkpt lat="43.4237878" lon="11.353425"><ele>443.66666666666663</ele><time>2026-04-20T16:07:16.516Z</time></trkpt><trkpt lat="43.4238015" lon="11.3535424"><ele>444.3333333333333</ele><time>2026-04-20T16:07:17.516Z</time></trkpt><trkpt lat="43.4238112" lon="11.3536511"><ele>445.0</ele><time>2026-04-20T16:07:18.516Z</time></trkpt><trkpt lat="43.4238167" lon="11.3537516"><ele>445.66666666666663</ele><time>2026-04-20T16:07:19.516Z</time></trkpt><trkpt lat="43.42382" lon="11.3538404"><ele>446.3333333333333</ele><time>2026-04-20T16:07:20.517Z</time></trkpt><trkpt lat="43.4238356" lon="11.3540053"><ele>447.0</ele><time>2026-04-20T16:07:22.516Z</time></trkpt><trkpt lat="43.423866" lon="11.3541556"><ele>445.0</ele><time>2026-04-20T16:07:24.516Z</time></trkpt><trkpt lat="43.4239082" lon="11.354308"><ele>443.0</ele><time>2026-04-20T16:07:26.516Z</time></trkpt><trkpt lat="43.4239731" lon="11.354443"><ele>441.0</ele><time>2026-04-20T16:07:28.516Z</time></trkpt><trkpt lat="43.4240161" lon="11.3545164"><ele>439.0</ele><time>2026-04-20T16:07:29.517Z</time></trkpt><trkpt lat="43.4240593" lon="11.3545923"><ele>437.0</ele><time>2026-04-20T16:07:30.516Z</time></trkpt><trkpt lat="43.4241048" lon="11.354671"><ele>435.0</ele><time>2026-04-20T16:07:31.516Z</time></trkpt><trkpt lat="43.4241552" lon="11.3547505"><ele>431.8</ele><time>2026-04-20T16:07:32.516Z</time></trkpt><trkpt lat="43.4242109" lon="11.3548137"><ele>428.6</ele><time>2026-04-20T16:07:33.517Z</time></trkpt><trkpt lat="43.4242983" lon="11.3548641"><ele>425.4</ele><time>2026-04-20T16:07:34.517Z</time></trkpt><trkpt lat="43.4244119" lon="11.3548881"><ele>422.2</ele><time>2026-04-20T16:07:35.517Z</time></trkpt><trkpt lat="43.4245265" lon="11.3548891"><ele>419.0</ele><time>2026-04-20T16:07:36.518Z</time></trkpt><trkpt lat="43.4246439" lon="11.3548892"><ele>419.8333333333333</ele><time>2026-04-20T16:07:37.517Z</time></trkpt><trkpt lat="43.424751" lon="11.3548897"><ele>420.66666666666663</ele><time>2026-04-20T16:07:38.518Z</time></trkpt><trkpt lat="43.4248424" lon="11.3548878"><ele>421.5</ele><time>2026-04-20T16:07:39.517Z</time></trkpt><trkpt lat="43.4249183" lon="11.3548793"><ele>422.33333333333337</ele><time>2026-04-20T16:07:40.517Z</time></trkpt><trkpt lat="43.4249849" lon="11.354841"><ele>423.1666666666667</ele><time>2026-04-20T16:07:41.517Z</time></trkpt><trkpt lat="43.4250308" lon="11.3547721"><ele>424.0</ele><time>2026-04-20T16:07:42.517Z</time></trkpt><trkpt lat="43.4250531" lon="11.3546666"><ele>424.1666666666667</ele><time>2026-04-20T16:07:43.517Z</time></trkpt><trkpt lat="43.425069" lon="11.3545373"><ele>424.33333333333337</ele><time>2026-04-20T16:07:44.517Z</time></trkpt><trkpt lat="43.4250935" lon="11.3544289"><ele>424.5</ele><time>2026-04-20T16:07:45.517Z</time></trkpt><trkpt lat="43.4251414" lon="11.3543686"><ele>424.66666666666663</ele><time>2026-04-20T16:07:46.517Z</time></trkpt><trkpt lat="43.4252149" lon="11.3543483"><ele>424.8333333333333</ele><time>2026-04-20T16:07:47.517Z</time></trkpt><trkpt lat="43.4253052" lon="11.3543475"><ele>425.0</ele><time>2026-04-20T16:07:48.517Z</time></trkpt><trkpt lat="43.4253988" lon="11.3543499"><ele>421.4</ele><time>2026-04-20T16:07:49.518Z</time></trkpt><trkpt lat="43.425479" lon="11.3543318"><ele>417.8</ele><time>2026-04-20T16:07:50.517Z</time></trkpt><trkpt lat="43.4255639" lon="11.354279"><ele>414.20000000000005</ele><time>2026-04-20T16:07:51.517Z</time></trkpt><trkpt lat="43.4256648" lon="11.354184"><ele>410.6</ele><time>2026-04-20T16:07:52.517Z</time></trkpt><trkpt lat="43.4257397" lon="11.3540675"><ele>407.0</ele><time>2026-04-20T16:07:53.517Z</time></trkpt><trkpt lat="43.4257965" lon="11.3539308"><ele>405.0</ele><time>2026-04-20T16:07:54.517Z</time></trkpt><trkpt lat="43.4258124" lon="11.3536919"><ele>403.0</ele><time>2026-04-20T16:07:55.518Z</time></trkpt><trkpt lat="43.4258014" lon="11.3535309"><ele>401.0</ele><time>2026-04-20T16:07:56.517Z</time></trkpt><trkpt lat="43.4257795" lon="11.3533928"><ele>399.0</ele><time>2026-04-20T16:07:57.517Z</time></trkpt><trkpt lat="43.4257616" lon="11.3532765"><ele>399.0</ele><time>2026-04-20T16:07:58.517Z</time></trkpt><trkpt lat="43.4257524" lon="11.3531621"><ele>399.0</ele><time>2026-04-20T16:07:59.517Z</time></trkpt><trkpt lat="43.4257524" lon="11.3530531"><ele>399.0</ele><time>2026-04-20T16:08:00.517Z</time></trkpt><trkpt lat="43.4257602" lon="11.3529397"><ele>399.0</ele><time>2026-04-20T16:08:01.517Z</time></trkpt><trkpt lat="43.4257711" lon="11.3528219"><ele>399.0</ele><time>2026-04-20T16:08:02.517Z</time></trkpt><trkpt lat="43.4257879" lon="11.3527041"><ele>399.0</ele><time>2026-04-20T16:08:03.517Z</time></trkpt><trkpt lat="43.4258089" lon="11.3525825"><ele>399.3333333333333</ele><time>2026-04-20T16:08:04.517Z</time></trkpt><trkpt lat="43.425837" lon="11.3524634"><ele>399.66666666666663</ele><time>2026-04-20T16:08:05.517Z</time></trkpt><trkpt lat="43.4258688" lon="11.352348"><ele>400.0</ele><time>2026-04-20T16:08:06.518Z</time></trkpt><trkpt lat="43.4259045" lon="11.3522404"><ele>400.3333333333333</ele><time>2026-04-20T16:08:07.517Z</time></trkpt><trkpt lat="43.4259518" lon="11.3521489"><ele>400.66666666666663</ele><time>2026-04-20T16:08:08.517Z</time></trkpt><trkpt lat="43.4260129" lon="11.3520664"><ele>401.0</ele><time>2026-04-20T16:08:09.517Z</time></trkpt><trkpt lat="43.4260885" lon="11.3519969"><ele>402.0</ele><time>2026-04-20T16:08:10.517Z</time></trkpt><trkpt lat="43.4261741" lon="11.3519393"><ele>403.0</ele><time>2026-04-20T16:08:11.517Z</time></trkpt><trkpt lat="43.4262548" lon="11.3518781"><ele>404.0</ele><time>2026-04-20T16:08:12.518Z</time></trkpt><trkpt lat="43.4263306" lon="11.3518079"><ele>405.0</ele><time>2026-04-20T16:08:13.517Z</time></trkpt><trkpt lat="43.4263961" lon="11.351725"><ele>406.0</ele><time>2026-04-20T16:08:14.518Z</time></trkpt><trkpt lat="43.4264615" lon="11.3516438"><ele>404.00000000000006</ele><time>2026-04-20T16:08:15.518Z</time></trkpt><trkpt lat="43.4265246" lon="11.3515597"><ele>402.0</ele><time>2026-04-20T16:08:16.517Z</time></trkpt><trkpt lat="43.4265832" lon="11.3514818"><ele>400.0</ele><time>2026-04-20T16:08:17.517Z</time></trkpt><trkpt lat="43.426631" lon="11.3514047"><ele>398.0</ele><time>2026-04-20T16:08:18.518Z</time></trkpt><trkpt lat="43.426673" lon="11.3513184"><ele>396.00000000000006</ele><time>2026-04-20T16:08:19.517Z</time></trkpt><trkpt lat="43.4267115" lon="11.3512279"><ele>394.0</ele><time>2026-04-20T16:08:20.518Z</time></trkpt><trkpt lat="43.4267443" lon="11.3511417"><ele>394.00000000000006</ele><time>2026-04-20T16:08:21.518Z</time></trkpt><trkpt lat="43.4267796" lon="11.3510615"><ele>394.0</ele><time>2026-04-20T16:08:22.518Z</time></trkpt><trkpt lat="43.4268179" lon="11.3509812"><ele>394.0</ele><time>2026-04-20T16:08:23.518Z</time></trkpt><trkpt lat="43.4268476" lon="11.3509013"><ele>394.0</ele><time>2026-04-20T16:08:24.518Z</time></trkpt><trkpt lat="43.4268957" lon="11.3507522"><ele>394.00000000000006</ele><time>2026-04-20T16:08:26.519Z</time></trkpt><trkpt lat="43.4269568" lon="11.3506129"><ele>394.0</ele><time>2026-04-20T16:08:28.518Z</time></trkpt><trkpt lat="43.4270506" lon="11.3505056"><ele>394.33333333333337</ele><time>2026-04-20T16:08:30.519Z</time></trkpt><trkpt lat="43.4271148" lon="11.3504683"><ele>394.6666666666667</ele><time>2026-04-20T16:08:31.518Z</time></trkpt><trkpt lat="43.4271861" lon="11.3504337"><ele>395.0</ele><time>2026-04-20T16:08:32.519Z</time></trkpt><trkpt lat="43.4272713" lon="11.3503958"><ele>395.33333333333337</ele><time>2026-04-20T16:08:33.518Z</time></trkpt><trkpt lat="43.4273723" lon="11.3503618"><ele>395.6666666666667</ele><time>2026-04-20T16:08:34.519Z</time></trkpt><trkpt lat="43.4274768" lon="11.3503317"><ele>396.0</ele><time>2026-04-20T16:08:35.519Z</time></trkpt><trkpt lat="43.4275732" lon="11.3502997"><ele>392.4</ele><time>2026-04-20T16:08:36.519Z</time></trkpt><trkpt lat="43.4276782" lon="11.3502694"><ele>388.8</ele><time>2026-04-20T16:08:37.518Z</time></trkpt><trkpt lat="43.4277826" lon="11.3502318"><ele>385.2</ele><time>2026-04-20T16:08:38.518Z</time></trkpt><trkpt lat="43.42788" lon="11.3501692"><ele>381.59999999999997</ele><time>2026-04-20T16:08:39.518Z</time></trkpt><trkpt lat="43.4279699" lon="11.3500964"><ele>378.0</ele><time>2026-04-20T16:08:40.518Z</time></trkpt><trkpt lat="43.4280597" lon="11.3500411"><ele>377.79999999999995</ele><time>2026-04-20T16:08:41.519Z</time></trkpt><trkpt lat="43.4281578" lon="11.3500059"><ele>377.6</ele><time>2026-04-20T16:08:42.519Z</time></trkpt><trkpt lat="43.4282582" lon="11.3499975"><ele>377.4</ele><time>2026-04-20T16:08:43.518Z</time></trkpt><trkpt lat="43.4283565" lon="11.3500083"><ele>377.20000000000005</ele><time>2026-04-20T16:08:44.518Z</time></trkpt><trkpt lat="43.4284469" lon="11.3500268"><ele>377.0</ele><time>2026-04-20T16:08:45.518Z</time></trkpt><trkpt lat="43.4285219" lon="11.3500522"><ele>377.0</ele><time>2026-04-20T16:08:46.518Z</time></trkpt><trkpt lat="43.4285899" lon="11.3500974"><ele>377.0</ele><time>2026-04-20T16:08:47.518Z</time></trkpt><trkpt lat="43.428667" lon="11.3501645"><ele>377.0</ele><time>2026-04-20T16:08:48.518Z</time></trkpt><trkpt lat="43.4287502" lon="11.3502435"><ele>377.0</ele><time>2026-04-20T16:08:49.518Z</time></trkpt><trkpt lat="43.4288335" lon="11.3503215"><ele>377.0</ele><time>2026-04-20T16:08:50.518Z</time></trkpt><trkpt lat="43.4289225" lon="11.3503884"><ele>377.0</ele><time>2026-04-20T16:08:51.518Z</time></trkpt><trkpt lat="43.4290079" lon="11.3504521"><ele>377.0</ele><time>2026-04-20T16:08:52.518Z</time></trkpt><trkpt lat="43.4290928" lon="11.3505136"><ele>377.0</ele><time>2026-04-20T16:08:53.518Z</time></trkpt><trkpt lat="43.4291758" lon="11.3505733"><ele>377.0</ele><time>2026-04-20T16:08:54.518Z</time></trkpt><trkpt lat="43.429265" lon="11.3506309"><ele>377.0</ele><time>2026-04-20T16:08:55.518Z</time></trkpt><trkpt lat="43.4293576" lon="11.3506923"><ele>377.40000000000003</ele><time>2026-04-20T16:08:56.518Z</time></trkpt><trkpt lat="43.4294519" lon="11.3507586"><ele>377.8</ele><time>2026-04-20T16:08:57.518Z</time></trkpt><trkpt lat="43.4295404" lon="11.3508239"><ele>378.2</ele><time>2026-04-20T16:08:58.519Z</time></trkpt><trkpt lat="43.4296212" lon="11.3508761"><ele>378.6</ele><time>2026-04-20T16:08:59.518Z</time></trkpt><trkpt lat="43.4297042" lon="11.3509108"><ele>379.0</ele><time>2026-04-20T16:09:00.519Z</time></trkpt><trkpt lat="43.4297905" lon="11.3509211"><ele>379.0</ele><time>2026-04-20T16:09:01.518Z</time></trkpt><trkpt lat="43.429879" lon="11.3509095"><ele>379.0</ele><time>2026-04-20T16:09:02.518Z</time></trkpt><trkpt lat="43.4299661" lon="11.3508827"><ele>379.0</ele><time>2026-04-20T16:09:03.519Z</time></trkpt><trkpt lat="43.4300572" lon="11.35086"><ele>379.0</ele><time>2026-04-20T16:09:04.519Z</time></trkpt><trkpt lat="43.4301544" lon="11.3508463"><ele>379.0</ele><time>2026-04-20T16:09:05.518Z</time></trkpt><trkpt lat="43.4302597" lon="11.350842"><ele>379.0</ele><time>2026-04-20T16:09:06.519Z</time></trkpt><trkpt lat="43.4303738" lon="11.3508463"><ele>379.0</ele><time>2026-04-20T16:09:07.519Z</time></trkpt><trkpt lat="43.4304819" lon="11.350861"><ele>379.0</ele><time>2026-04-20T16:09:08.519Z</time></trkpt><trkpt lat="43.4305805" lon="11.3508875"><ele>379.0</ele><time>2026-04-20T16:09:09.519Z</time></trkpt><trkpt lat="43.4306724" lon="11.3509155"><ele>379.0</ele><time>2026-04-20T16:09:10.519Z</time></trkpt><trkpt lat="43.4307655" lon="11.350935"><ele>379.6</ele><time>2026-04-20T16:09:11.519Z</time></trkpt><trkpt lat="43.4308596" lon="11.3509348"><ele>380.2</ele><time>2026-04-20T16:09:12.52Z</time></trkpt><trkpt lat="43.4309502" lon="11.3509107"><ele>380.8</ele><time>2026-04-20T16:09:13.52Z</time></trkpt><trkpt lat="43.4310425" lon="11.3508636"><ele>381.40000000000003</ele><time>2026-04-20T16:09:14.52Z</time></trkpt><trkpt lat="43.4311265" lon="11.3508003"><ele>382.0</ele><time>2026-04-20T16:09:15.519Z</time></trkpt><trkpt lat="43.4311996" lon="11.3507295"><ele>382.0</ele><time>2026-04-20T16:09:16.519Z</time></trkpt><trkpt lat="43.4312584" lon="11.350672"><ele>382.0</ele><time>2026-04-20T16:09:17.519Z</time></trkpt><trkpt lat="43.4313655" lon="11.3506326"><ele>382.0</ele><time>2026-04-20T16:09:19.52Z</time></trkpt><trkpt lat="43.4314794" lon="11.3507027"><ele>382.0</ele><time>2026-04-20T16:09:21.519Z</time></trkpt><trkpt lat="43.4315184" lon="11.350777"><ele>382.0</ele><time>2026-04-20T16:09:22.519Z</time></trkpt><trkpt lat="43.4315473" lon="11.3508582"><ele>382.0</ele><time>2026-04-20T16:09:23.519Z</time></trkpt><trkpt lat="43.4315794" lon="11.350938"><ele>384.3333333333333</ele><time>2026-04-20T16:09:24.52Z</time></trkpt><trkpt lat="43.4316196" lon="11.35101"><ele>386.66666666666663</ele><time>2026-04-20T16:09:25.519Z</time></trkpt><trkpt lat="43.4316693" lon="11.3510809"><ele>389.0</ele><time>2026-04-20T16:09:26.519Z</time></trkpt><trkpt lat="43.4317262" lon="11.3511478"><ele>391.3333333333333</ele><time>2026-04-20T16:09:27.519Z</time></trkpt><trkpt lat="43.4317887" lon="11.3512074"><ele>393.6666666666667</ele><time>2026-04-20T16:09:28.519Z</time></trkpt><trkpt lat="43.4318455" lon="11.3512501"><ele>396.0</ele><time>2026-04-20T16:09:29.519Z</time></trkpt><trkpt lat="43.4319632" lon="11.3513293"><ele>396.0</ele><time>2026-04-20T16:09:31.519Z</time></trkpt><trkpt lat="43.4320301" lon="11.3513603"><ele>396.0</ele><time>2026-04-20T16:09:32.52Z</time></trkpt><trkpt lat="43.4320991" lon="11.3513776"><ele>396.0</ele><time>2026-04-20T16:09:33.52Z</time></trkpt><trkpt lat="43.4321753" lon="11.3513884"><ele>396.0</ele><time>2026-04-20T16:09:34.52Z</time></trkpt><trkpt lat="43.4322539" lon="11.3513981"><ele>396.0</ele><time>2026-04-20T16:09:35.519Z</time></trkpt><trkpt lat="43.4323319" lon="11.3514021"><ele>396.0</ele><time>2026-04-20T16:09:36.519Z</time></trkpt><trkpt lat="43.4324098" lon="11.3514084"><ele>396.1666666666667</ele><time>2026-04-20T16:09:37.52Z</time></trkpt><trkpt lat="43.4324895" lon="11.3514175"><ele>396.33333333333337</ele><time>2026-04-20T16:09:38.519Z</time></trkpt><trkpt lat="43.4325702" lon="11.3514269"><ele>396.5</ele><time>2026-04-20T16:09:39.519Z</time></trkpt><trkpt lat="43.4326454" lon="11.3514311"><ele>396.6666666666667</ele><time>2026-04-20T16:09:40.52Z</time></trkpt><trkpt lat="43.4327255" lon="11.3514154"><ele>396.83333333333337</ele><time>2026-04-20T16:09:41.519Z</time></trkpt><trkpt lat="43.4328057" lon="11.3513781"><ele>397.0</ele><time>2026-04-20T16:09:42.519Z</time></trkpt><trkpt lat="43.4328891" lon="11.3513218"><ele>393.8</ele><time>2026-04-20T16:09:43.519Z</time></trkpt><trkpt lat="43.4329744" lon="11.3512598"><ele>390.6</ele><time>2026-04-20T16:09:44.52Z</time></trkpt><trkpt lat="43.4330585" lon="11.3511932"><ele>387.40000000000003</ele><time>2026-04-20T16:09:45.52Z</time></trkpt><trkpt lat="43.4331398" lon="11.3511241"><ele>384.20000000000005</ele><time>2026-04-20T16:09:46.52Z</time></trkpt><trkpt lat="43.4332207" lon="11.3510568"><ele>381.0</ele><time>2026-04-20T16:09:47.52Z</time></trkpt><trkpt lat="43.4333009" lon="11.3509815"><ele>381.0</ele><time>2026-04-20T16:09:48.519Z</time></trkpt><trkpt lat="43.4333794" lon="11.350907"><ele>381.0</ele><time>2026-04-20T16:09:49.519Z</time></trkpt><trkpt lat="43.4334578" lon="11.3508314"><ele>381.0</ele><time>2026-04-20T16:09:50.519Z</time></trkpt><trkpt lat="43.4335366" lon="11.3507488"><ele>381.0</ele><time>2026-04-20T16:09:51.519Z</time></trkpt><trkpt lat="43.4336099" lon="11.3506666"><ele>381.0</ele><time>2026-04-20T16:09:52.519Z</time></trkpt><trkpt lat="43.4336798" lon="11.3505851"><ele>381.20000000000005</ele><time>2026-04-20T16:09:53.519Z</time></trkpt><trkpt lat="43.4337532" lon="11.350501"><ele>381.40000000000003</ele><time>2026-04-20T16:09:54.52Z</time></trkpt><trkpt lat="43.4338309" lon="11.3504135"><ele>381.6</ele><time>2026-04-20T16:09:55.521Z</time></trkpt><trkpt lat="43.4339097" lon="11.3503261"><ele>381.8</ele><time>2026-04-20T16:09:56.52Z</time></trkpt><trkpt lat="43.4339868" lon="11.3502324"><ele>382.0</ele><time>2026-04-20T16:09:57.52Z</time></trkpt><trkpt lat="43.4340627" lon="11.3501435"><ele>382.0</ele><time>2026-04-20T16:09:58.52Z</time></trkpt><trkpt lat="43.4341362" lon="11.3500552"><ele>382.0</ele><time>2026-04-20T16:09:59.52Z</time></trkpt><trkpt lat="43.4342036" lon="11.3499688"><ele>382.0</ele><time>2026-04-20T16:10:00.52Z</time></trkpt><trkpt lat="43.4342667" lon="11.3498849"><ele>382.0</ele><time>2026-04-20T16:10:01.52Z</time></trkpt><trkpt lat="43.4343194" lon="11.3498012"><ele>382.0</ele><time>2026-04-20T16:10:02.52Z</time></trkpt><trkpt lat="43.4343636" lon="11.3497064"><ele>382.0</ele><time>2026-04-20T16:10:03.52Z</time></trkpt><trkpt lat="43.4344077" lon="11.3495933"><ele>383.66666666666663</ele><time>2026-04-20T16:10:04.52Z</time></trkpt><trkpt lat="43.4344492" lon="11.3494759"><ele>385.3333333333333</ele><time>2026-04-20T16:10:05.52Z</time></trkpt><trkpt lat="43.4344876" lon="11.3493594"><ele>387.0</ele><time>2026-04-20T16:10:06.52Z</time></trkpt><trkpt lat="43.4345246" lon="11.349248"><ele>388.66666666666663</ele><time>2026-04-20T16:10:07.52Z</time></trkpt><trkpt lat="43.4345584" lon="11.349144"><ele>390.3333333333333</ele><time>2026-04-20T16:10:08.521Z</time></trkpt><trkpt lat="43.4345904" lon="11.3490392"><ele>392.0</ele><time>2026-04-20T16:10:09.52Z</time></trkpt><trkpt lat="43.4346186" lon="11.3489377"><ele>390.66666666666663</ele><time>2026-04-20T16:10:10.52Z</time></trkpt><trkpt lat="43.434652" lon="11.3488516"><ele>389.3333333333333</ele><time>2026-04-20T16:10:11.52Z</time></trkpt><trkpt lat="43.4346976" lon="11.3487851"><ele>388.0</ele><time>2026-04-20T16:10:12.52Z</time></trkpt><trkpt lat="43.4347629" lon="11.3487304"><ele>386.66666666666663</ele><time>2026-04-20T16:10:13.52Z</time></trkpt><trkpt lat="43.4348398" lon="11.3486988"><ele>385.3333333333333</ele><time>2026-04-20T16:10:14.52Z</time></trkpt><trkpt lat="43.4349228" lon="11.3487003"><ele>384.0</ele><time>2026-04-20T16:10:15.52Z</time></trkpt><trkpt lat="43.4350045" lon="11.3487378"><ele>384.0</ele><time>2026-04-20T16:10:16.52Z</time></trkpt><trkpt lat="43.4350781" lon="11.3487853"><ele>384.0</ele><time>2026-04-20T16:10:17.52Z</time></trkpt><trkpt lat="43.4351433" lon="11.3488194"><ele>384.0</ele><time>2026-04-20T16:10:18.52Z</time></trkpt><trkpt lat="43.4352139" lon="11.3488311"><ele>384.0</ele><time>2026-04-20T16:10:19.52Z</time></trkpt><trkpt lat="43.4352924" lon="11.3488192"><ele>384.0</ele><time>2026-04-20T16:10:20.52Z</time></trkpt><trkpt lat="43.435385" lon="11.3487928"><ele>384.0</ele><time>2026-04-20T16:10:21.52Z</time></trkpt><trkpt lat="43.4354828" lon="11.3487634"><ele>383.79999999999995</ele><time>2026-04-20T16:10:22.521Z</time></trkpt><trkpt lat="43.4355782" lon="11.3487321"><ele>383.59999999999997</ele><time>2026-04-20T16:10:23.52Z</time></trkpt><trkpt lat="43.4356686" lon="11.3486952"><ele>383.4</ele><time>2026-04-20T16:10:24.52Z</time></trkpt><trkpt lat="43.4357568" lon="11.3486678"><ele>383.2</ele><time>2026-04-20T16:10:25.521Z</time></trkpt><trkpt lat="43.4358415" lon="11.348659"><ele>383.0</ele><time>2026-04-20T16:10:26.52Z</time></trkpt><trkpt lat="43.4359272" lon="11.3486797"><ele>383.0</ele><time>2026-04-20T16:10:27.521Z</time></trkpt><trkpt lat="43.4360158" lon="11.3487215"><ele>383.0</ele><time>2026-04-20T16:10:28.52Z</time></trkpt><trkpt lat="43.4361086" lon="11.3487822"><ele>383.0</ele><time>2026-04-20T16:10:29.52Z</time></trkpt><trkpt lat="43.4361948" lon="11.3488469"><ele>383.0</ele><time>2026-04-20T16:10:30.52Z</time></trkpt><trkpt lat="43.4362804" lon="11.34892"><ele>383.0</ele><time>2026-04-20T16:10:31.52Z</time></trkpt><trkpt lat="43.4363637" lon="11.3489968"><ele>381.33333333333337</ele><time>2026-04-20T16:10:32.52Z</time></trkpt><trkpt lat="43.4364366" lon="11.3490736"><ele>379.6666666666667</ele><time>2026-04-20T16:10:33.52Z</time></trkpt><trkpt lat="43.4365082" lon="11.3491502"><ele>378.0</ele><time>2026-04-20T16:10:34.52Z</time></trkpt><trkpt lat="43.4365797" lon="11.3492316"><ele>376.3333333333333</ele><time>2026-04-20T16:10:35.52Z</time></trkpt><trkpt lat="43.4366496" lon="11.349304"><ele>374.66666666666663</ele><time>2026-04-20T16:10:36.52Z</time></trkpt><trkpt lat="43.436715" lon="11.3493655"><ele>373.0</ele><time>2026-04-20T16:10:37.52Z</time></trkpt><trkpt lat="43.4367811" lon="11.3494005"><ele>373.0</ele><time>2026-04-20T16:10:38.52Z</time></trkpt><trkpt lat="43.4368536" lon="11.349413"><ele>373.0</ele><time>2026-04-20T16:10:39.52Z</time></trkpt><trkpt lat="43.4369186" lon="11.3494022"><ele>373.0</ele><time>2026-04-20T16:10:40.521Z</time></trkpt><trkpt lat="43.4369798" lon="11.3493743"><ele>373.0</ele><time>2026-04-20T16:10:41.521Z</time></trkpt><trkpt lat="43.4370357" lon="11.3493315"><ele>373.0</ele><time>2026-04-20T16:10:42.521Z</time></trkpt><trkpt lat="43.437092" lon="11.349273"><ele>373.0</ele><time>2026-04-20T16:10:43.522Z</time></trkpt><trkpt lat="43.4371419" lon="11.3491851"><ele>373.0</ele><time>2026-04-20T16:10:44.521Z</time></trkpt><trkpt lat="43.4371833" lon="11.3490817"><ele>372.59999999999997</ele><time>2026-04-20T16:10:45.521Z</time></trkpt><trkpt lat="43.4372121" lon="11.3489679"><ele>372.2</ele><time>2026-04-20T16:10:46.521Z</time></trkpt><trkpt lat="43.4372406" lon="11.3488462"><ele>371.8</ele><time>2026-04-20T16:10:47.522Z</time></trkpt><trkpt lat="43.4372665" lon="11.3487051"><ele>371.4</ele><time>2026-04-20T16:10:48.521Z</time></trkpt><trkpt lat="43.4373002" lon="11.3485758"><ele>371.0</ele><time>2026-04-20T16:10:49.521Z</time></trkpt><trkpt lat="43.4373415" lon="11.3484728"><ele>372.20000000000005</ele><time>2026-04-20T16:10:50.521Z</time></trkpt><trkpt lat="43.4374044" lon="11.3483926"><ele>373.40000000000003</ele><time>2026-04-20T16:10:51.522Z</time></trkpt><trkpt lat="43.4374916" lon="11.348344"><ele>374.6</ele><time>2026-04-20T16:10:52.521Z</time></trkpt><trkpt lat="43.4375903" lon="11.3483305"><ele>375.8</ele><time>2026-04-20T16:10:53.521Z</time></trkpt><trkpt lat="43.437697" lon="11.3483554"><ele>377.0</ele><time>2026-04-20T16:10:54.522Z</time></trkpt><trkpt lat="43.437789" lon="11.3484149"><ele>377.0</ele><time>2026-04-20T16:10:55.521Z</time></trkpt><trkpt lat="43.4378607" lon="11.3485079"><ele>377.0</ele><time>2026-04-20T16:10:56.522Z</time></trkpt><trkpt lat="43.437916" lon="11.3486418"><ele>377.0</ele><time>2026-04-20T16:10:57.521Z</time></trkpt><trkpt lat="43.4379511" lon="11.3488073"><ele>377.0</ele><time>2026-04-20T16:10:58.521Z</time></trkpt><trkpt lat="43.4379762" lon="11.3489904"><ele>378.75</ele><time>2026-04-20T16:10:59.521Z</time></trkpt><trkpt lat="43.4380049" lon="11.3491888"><ele>380.5</ele><time>2026-04-20T16:11:00.521Z</time></trkpt><trkpt lat="43.438049" lon="11.3493718"><ele>382.25</ele><time>2026-04-20T16:11:01.522Z</time></trkpt><trkpt lat="43.4381127" lon="11.3495311"><ele>384.0</ele><time>2026-04-20T16:11:02.522Z</time></trkpt><trkpt lat="43.4381969" lon="11.3496625"><ele>381.75</ele><time>2026-04-20T16:11:03.521Z</time></trkpt><trkpt lat="43.4382879" lon="11.3497641"><ele>379.5</ele><time>2026-04-20T16:11:04.522Z</time></trkpt><trkpt lat="43.4383832" lon="11.3498423"><ele>377.25</ele><time>2026-04-20T16:11:05.521Z</time></trkpt><trkpt lat="43.4384929" lon="11.3499131"><ele>375.0</ele><time>2026-04-20T16:11:06.522Z</time></trkpt><trkpt lat="43.4386201" lon="11.349975"><ele>375.0</ele><time>2026-04-20T16:11:07.521Z</time></trkpt><trkpt lat="43.4387562" lon="11.3500269"><ele>375.0</ele><time>2026-04-20T16:11:08.521Z</time></trkpt><trkpt lat="43.4388844" lon="11.3500739"><ele>375.0</ele><time>2026-04-20T16:11:09.522Z</time></trkpt><trkpt lat="43.4389818" lon="11.3501074"><ele>375.0</ele><time>2026-04-20T16:11:10.521Z</time></trkpt><trkpt lat="43.4390575" lon="11.3501374"><ele>375.4</ele><time>2026-04-20T16:11:11.522Z</time></trkpt><trkpt lat="43.4391381" lon="11.3501692"><ele>375.8</ele><time>2026-04-20T16:11:12.521Z</time></trkpt><trkpt lat="43.4392271" lon="11.3502065"><ele>376.20000000000005</ele><time>2026-04-20T16:11:13.521Z</time></trkpt><trkpt lat="43.4393214" lon="11.3502453"><ele>376.6</ele><time>2026-04-20T16:11:14.521Z</time></trkpt><trkpt lat="43.4394174" lon="11.3502857"><ele>377.0</ele><time>2026-04-20T16:11:15.521Z</time></trkpt><trkpt lat="43.439516" lon="11.3503262"><ele>377.0</ele><time>2026-04-20T16:11:16.521Z</time></trkpt><trkpt lat="43.4396148" lon="11.3503663"><ele>377.0</ele><time>2026-04-20T16:11:17.521Z</time></trkpt><trkpt lat="43.439719" lon="11.3504162"><ele>377.0</ele><time>2026-04-20T16:11:18.522Z</time></trkpt><trkpt lat="43.4398201" lon="11.3504694"><ele>377.0</ele><time>2026-04-20T16:11:19.521Z</time></trkpt><trkpt lat="43.4399116" lon="11.3505248"><ele>377.0</ele><time>2026-04-20T16:11:20.521Z</time></trkpt><trkpt lat="43.4399943" lon="11.3505892"><ele>376.33333333333337</ele><time>2026-04-20T16:11:21.522Z</time></trkpt><trkpt lat="43.4400712" lon="11.3506557"><ele>375.6666666666667</ele><time>2026-04-20T16:11:22.521Z</time></trkpt><trkpt lat="43.4401358" lon="11.3507243"><ele>375.0</ele><time>2026-04-20T16:11:23.521Z</time></trkpt><trkpt lat="43.440193" lon="11.3507951"><ele>374.3333333333333</ele><time>2026-04-20T16:11:24.522Z</time></trkpt><trkpt lat="43.4402397" lon="11.3508749"><ele>373.66666666666663</ele><time>2026-04-20T16:11:25.521Z</time></trkpt><trkpt lat="43.440281" lon="11.3509748"><ele>373.0</ele><time>2026-04-20T16:11:26.521Z</time></trkpt><trkpt lat="43.4403134" lon="11.3510868"><ele>373.0</ele><time>2026-04-20T16:11:27.522Z</time></trkpt><trkpt lat="43.4403408" lon="11.3512012"><ele>373.0</ele><time>2026-04-20T16:11:28.521Z</time></trkpt><trkpt lat="43.4403709" lon="11.3513126"><ele>373.0</ele><time>2026-04-20T16:11:29.522Z</time></trkpt><trkpt lat="43.4404067" lon="11.3514141"><ele>373.0</ele><time>2026-04-20T16:11:30.522Z</time></trkpt><trkpt lat="43.4404499" lon="11.3515005"><ele>373.0</ele><time>2026-04-20T16:11:31.522Z</time></trkpt><trkpt lat="43.4404889" lon="11.3515705"><ele>373.0</ele><time>2026-04-20T16:11:32.522Z</time></trkpt><trkpt lat="43.4405501" lon="11.3516976"><ele>373.0</ele><time>2026-04-20T16:11:34.522Z</time></trkpt><trkpt lat="43.4405688" lon="11.3518834"><ele>373.0</ele><time>2026-04-20T16:11:36.522Z</time></trkpt><trkpt lat="43.4405696" lon="11.3520165"><ele>373.0</ele><time>2026-04-20T16:11:37.522Z</time></trkpt><trkpt lat="43.440575" lon="11.3521421"><ele>373.0</ele><time>2026-04-20T16:11:38.522Z</time></trkpt><trkpt lat="43.44059" lon="11.352264"><ele>373.0</ele><time>2026-04-20T16:11:39.522Z</time></trkpt><trkpt lat="43.4406097" lon="11.3523848"><ele>371.79999999999995</ele><time>2026-04-20T16:11:40.522Z</time></trkpt><trkpt lat="43.4406323" lon="11.3525049"><ele>370.6</ele><time>2026-04-20T16:11:41.522Z</time></trkpt><trkpt lat="43.4406529" lon="11.3526226"><ele>369.4</ele><time>2026-04-20T16:11:42.522Z</time></trkpt><trkpt lat="43.4406721" lon="11.3527441"><ele>368.20000000000005</ele><time>2026-04-20T16:11:43.522Z</time></trkpt><trkpt lat="43.4406893" lon="11.3528789"><ele>367.0</ele><time>2026-04-20T16:11:44.522Z</time></trkpt><trkpt lat="43.4407051" lon="11.3530178"><ele>365.8</ele><time>2026-04-20T16:11:45.523Z</time></trkpt><trkpt lat="43.44072" lon="11.3531549"><ele>364.6</ele><time>2026-04-20T16:11:46.523Z</time></trkpt><trkpt lat="43.4407335" lon="11.3532878"><ele>363.40000000000003</ele><time>2026-04-20T16:11:47.522Z</time></trkpt><trkpt lat="43.4407466" lon="11.3534201"><ele>362.20000000000005</ele><time>2026-04-20T16:11:48.523Z</time></trkpt><trkpt lat="43.4407613" lon="11.353552"><ele>361.0</ele><time>2026-04-20T16:11:49.522Z</time></trkpt><trkpt lat="43.4407757" lon="11.3536856"><ele>361.0</ele><time>2026-04-20T16:11:50.522Z</time></trkpt><trkpt lat="43.4407882" lon="11.3538218"><ele>361.0</ele><time>2026-04-20T16:11:51.522Z</time></trkpt><trkpt lat="43.4407996" lon="11.3539548"><ele>361.0</ele><time>2026-04-20T16:11:52.522Z</time></trkpt><trkpt lat="43.4408152" lon="11.3540831"><ele>361.0</ele><time>2026-04-20T16:11:53.523Z</time></trkpt><trkpt lat="43.4408409" lon="11.354208"><ele>361.0</ele><time>2026-04-20T16:11:54.522Z</time></trkpt><trkpt lat="43.4408724" lon="11.3543412"><ele>359.8</ele><time>2026-04-20T16:11:55.522Z</time></trkpt><trkpt lat="43.440906" lon="11.3544784"><ele>358.6</ele><time>2026-04-20T16:11:56.522Z</time></trkpt><trkpt lat="43.4409374" lon="11.354622"><ele>357.4</ele><time>2026-04-20T16:11:57.522Z</time></trkpt><trkpt lat="43.4409645" lon="11.3547598"><ele>356.2</ele><time>2026-04-20T16:11:58.522Z</time></trkpt><trkpt lat="43.4409885" lon="11.354888"><ele>355.0</ele><time>2026-04-20T16:11:59.522Z</time></trkpt><trkpt lat="43.4410105" lon="11.3550043"><ele>354.66666666666663</ele><time>2026-04-20T16:12:00.523Z</time></trkpt><trkpt lat="43.4410279" lon="11.3551127"><ele>354.3333333333333</ele><time>2026-04-20T16:12:01.522Z</time></trkpt><trkpt lat="43.4410375" lon="11.3552172"><ele>354.0</ele><time>2026-04-20T16:12:02.522Z</time></trkpt><trkpt lat="43.4410389" lon="11.3553076"><ele>353.6666666666667</ele><time>2026-04-20T16:12:03.523Z</time></trkpt><trkpt lat="43.4410258" lon="11.3554443"><ele>353.33333333333337</ele><time>2026-04-20T16:12:05.522Z</time></trkpt><trkpt lat="43.4409964" lon="11.3555588"><ele>353.0</ele><time>2026-04-20T16:12:07.522Z</time></trkpt><trkpt lat="43.440957" lon="11.3556712"><ele>352.79999999999995</ele><time>2026-04-20T16:12:09.522Z</time></trkpt><trkpt lat="43.4409564" lon="11.3557942"><ele>352.6</ele><time>2026-04-20T16:12:11.523Z</time></trkpt><trkpt lat="43.4410349" lon="11.3558763"><ele>352.4</ele><time>2026-04-20T16:12:13.522Z</time></trkpt><trkpt lat="43.4411413" lon="11.3558783"><ele>352.20000000000005</ele><time>2026-04-20T16:12:15.523Z</time></trkpt><trkpt lat="43.4412501" lon="11.3558214"><ele>352.0</ele><time>2026-04-20T16:12:17.523Z</time></trkpt><trkpt lat="43.4413433" lon="11.3557372"><ele>352.75</ele><time>2026-04-20T16:12:19.523Z</time></trkpt><trkpt lat="43.4414225" lon="11.3556254"><ele>353.5</ele><time>2026-04-20T16:12:21.523Z</time></trkpt><trkpt lat="43.4414967" lon="11.3554913"><ele>354.25</ele><time>2026-04-20T16:12:23.524Z</time></trkpt><trkpt lat="43.4415797" lon="11.3553832"><ele>355.0</ele><time>2026-04-20T16:12:25.524Z</time></trkpt><trkpt lat="43.4416728" lon="11.3553239"><ele>355.0</ele><time>2026-04-20T16:12:27.524Z</time></trkpt><trkpt lat="43.4417922" lon="11.3553082"><ele>355.0</ele><time>2026-04-20T16:12:29.523Z</time></trkpt><trkpt lat="43.4418655" lon="11.3553028"><ele>355.0</ele><time>2026-04-20T16:12:30.523Z</time></trkpt><trkpt lat="43.4419415" lon="11.3553087"><ele>355.0</ele><time>2026-04-20T16:12:31.523Z</time></trkpt><trkpt lat="43.4420176" lon="11.3553095"><ele>355.0</ele><time>2026-04-20T16:12:32.523Z</time></trkpt><trkpt lat="43.4420906" lon="11.3553068"><ele>355.0</ele><time>2026-04-20T16:12:33.523Z</time></trkpt><trkpt lat="43.4421569" lon="11.3552933"><ele>351.8333333333333</ele><time>2026-04-20T16:12:34.523Z</time></trkpt><trkpt lat="43.4422197" lon="11.3552744"><ele>348.66666666666663</ele><time>2026-04-20T16:12:35.523Z</time></trkpt><trkpt lat="43.4423335" lon="11.3552077"><ele>345.5</ele><time>2026-04-20T16:12:37.524Z</time></trkpt><trkpt lat="43.4423895" lon="11.3551594"><ele>342.3333333333333</ele><time>2026-04-20T16:12:38.524Z</time></trkpt><trkpt lat="43.4424465" lon="11.3551034"><ele>339.1666666666667</ele><time>2026-04-20T16:12:39.523Z</time></trkpt><trkpt lat="43.4425098" lon="11.3550418"><ele>336.0</ele><time>2026-04-20T16:12:40.523Z</time></trkpt><trkpt lat="43.4425773" lon="11.3549761"><ele>336.0</ele><time>2026-04-20T16:12:41.523Z</time></trkpt><trkpt lat="43.4426499" lon="11.354911"><ele>336.0</ele><time>2026-04-20T16:12:42.523Z</time></trkpt><trkpt lat="43.4427242" lon="11.3548484"><ele>336.0</ele><time>2026-04-20T16:12:43.523Z</time></trkpt><trkpt lat="43.4428002" lon="11.354792"><ele>336.0</ele><time>2026-04-20T16:12:44.524Z</time></trkpt><trkpt lat="43.4428801" lon="11.3547436"><ele>336.0</ele><time>2026-04-20T16:12:45.523Z</time></trkpt><trkpt lat="43.4429648" lon="11.3546956"><ele>336.0</ele><time>2026-04-20T16:12:46.523Z</time></trkpt><trkpt lat="43.4430537" lon="11.3546489"><ele>335.6</ele><time>2026-04-20T16:12:47.524Z</time></trkpt><trkpt lat="43.4431411" lon="11.3546044"><ele>335.20000000000005</ele><time>2026-04-20T16:12:48.524Z</time></trkpt><trkpt lat="43.4432311" lon="11.3545483"><ele>334.79999999999995</ele><time>2026-04-20T16:12:49.523Z</time></trkpt><trkpt lat="43.4433172" lon="11.3544902"><ele>334.4</ele><time>2026-04-20T16:12:50.523Z</time></trkpt><trkpt lat="43.4434089" lon="11.3544258"><ele>334.0</ele><time>2026-04-20T16:12:51.523Z</time></trkpt><trkpt lat="43.4435011" lon="11.3543629"><ele>334.0</ele><time>2026-04-20T16:12:52.524Z</time></trkpt><trkpt lat="43.4435956" lon="11.3543029"><ele>334.0</ele><time>2026-04-20T16:12:53.523Z</time></trkpt><trkpt lat="43.4436898" lon="11.35424"><ele>334.0</ele><time>2026-04-20T16:12:54.524Z</time></trkpt><trkpt lat="43.4437837" lon="11.3541784"><ele>334.0</ele><time>2026-04-20T16:12:55.523Z</time></trkpt><trkpt lat="43.4438775" lon="11.3541182"><ele>334.0</ele><time>2026-04-20T16:12:56.523Z</time></trkpt><trkpt lat="43.4439656" lon="11.3540607"><ele>335.4</ele><time>2026-04-20T16:12:57.523Z</time></trkpt><trkpt lat="43.4440417" lon="11.3540082"><ele>336.79999999999995</ele><time>2026-04-20T16:12:58.524Z</time></trkpt><trkpt lat="43.4441174" lon="11.3539596"><ele>338.20000000000005</ele><time>2026-04-20T16:12:59.523Z</time></trkpt><trkpt lat="43.4442002" lon="11.3539154"><ele>339.6</ele><time>2026-04-20T16:13:00.524Z</time></trkpt><trkpt lat="43.4442927" lon="11.3538804"><ele>341.0</ele><time>2026-04-20T16:13:01.523Z</time></trkpt><trkpt lat="43.4443907" lon="11.3538544"><ele>341.0</ele><time>2026-04-20T16:13:02.524Z</time></trkpt><trkpt lat="43.4444785" lon="11.3538294"><ele>341.0</ele><time>2026-04-20T16:13:03.524Z</time></trkpt><trkpt lat="43.4445537" lon="11.3538058"><ele>341.0</ele><time>2026-04-20T16:13:04.525Z</time></trkpt><trkpt lat="43.4446206" lon="11.3537875"><ele>341.0</ele><time>2026-04-20T16:13:05.525Z</time></trkpt><trkpt lat="43.4447331" lon="11.3537603"><ele>341.0</ele><time>2026-04-20T16:13:07.524Z</time></trkpt><trkpt lat="43.4448354" lon="11.353771"><ele>338.83333333333337</ele><time>2026-04-20T16:13:09.524Z</time></trkpt><trkpt lat="43.4449095" lon="11.3538926"><ele>336.6666666666667</ele><time>2026-04-20T16:13:11.525Z</time></trkpt><trkpt lat="43.4449232" lon="11.353987"><ele>334.5</ele><time>2026-04-20T16:13:12.524Z</time></trkpt><trkpt lat="43.4449249" lon="11.3541022"><ele>332.3333333333333</ele><time>2026-04-20T16:13:13.524Z</time></trkpt><trkpt lat="43.4449281" lon="11.3542194"><ele>330.16666666666663</ele><time>2026-04-20T16:13:14.524Z</time></trkpt><trkpt lat="43.4449371" lon="11.3543356"><ele>328.0</ele><time>2026-04-20T16:13:15.524Z</time></trkpt><trkpt lat="43.4449603" lon="11.3544424"><ele>328.0</ele><time>2026-04-20T16:13:16.524Z</time></trkpt><trkpt lat="43.444993" lon="11.3545346"><ele>328.0</ele><time>2026-04-20T16:13:17.524Z</time></trkpt><trkpt lat="43.4450328" lon="11.3546161"><ele>328.0</ele><time>2026-04-20T16:13:18.524Z</time></trkpt><trkpt lat="43.4450807" lon="11.3547011"><ele>328.0</ele><time>2026-04-20T16:13:19.524Z</time></trkpt><trkpt lat="43.4451377" lon="11.3547793"><ele>328.0</ele><time>2026-04-20T16:13:20.524Z</time></trkpt><trkpt lat="43.4452032" lon="11.3548616"><ele>328.0</ele><time>2026-04-20T16:13:21.524Z</time></trkpt><trkpt lat="43.4452706" lon="11.3549324"><ele>327.66666666666663</ele><time>2026-04-20T16:13:22.524Z</time></trkpt><trkpt lat="43.4453371" lon="11.3549897"><ele>327.3333333333333</ele><time>2026-04-20T16:13:23.525Z</time></trkpt><trkpt lat="43.4454106" lon="11.3550442"><ele>327.0</ele><time>2026-04-20T16:13:24.525Z</time></trkpt><trkpt lat="43.4454867" lon="11.355095"><ele>326.6666666666667</ele><time>2026-04-20T16:13:25.524Z</time></trkpt><trkpt lat="43.4455589" lon="11.3551377"><ele>326.33333333333337</ele><time>2026-04-20T16:13:26.524Z</time></trkpt><trkpt lat="43.4456278" lon="11.3551674"><ele>326.0</ele><time>2026-04-20T16:13:27.524Z</time></trkpt><trkpt lat="43.4457021" lon="11.355194"><ele>327.20000000000005</ele><time>2026-04-20T16:13:28.524Z</time></trkpt><trkpt lat="43.4457847" lon="11.3552088"><ele>328.40000000000003</ele><time>2026-04-20T16:13:29.524Z</time></trkpt><trkpt lat="43.4458712" lon="11.3552195"><ele>329.6</ele><time>2026-04-20T16:13:30.524Z</time></trkpt><trkpt lat="43.4459652" lon="11.3552259"><ele>330.8</ele><time>2026-04-20T16:13:31.524Z</time></trkpt><trkpt lat="43.4460605" lon="11.3552332"><ele>332.0</ele><time>2026-04-20T16:13:32.525Z</time></trkpt><trkpt lat="43.4461554" lon="11.3552444"><ele>332.0</ele><time>2026-04-20T16:13:33.525Z</time></trkpt><trkpt lat="43.4462493" lon="11.355256"><ele>332.0</ele><time>2026-04-20T16:13:34.525Z</time></trkpt><trkpt lat="43.4463427" lon="11.355269"><ele>332.0</ele><time>2026-04-20T16:13:35.524Z</time></trkpt><trkpt lat="43.4464335" lon="11.3552791"><ele>332.0</ele><time>2026-04-20T16:13:36.524Z</time></trkpt><trkpt lat="43.4465265" lon="11.3552836"><ele>332.0</ele><time>2026-04-20T16:13:37.524Z</time></trkpt><trkpt lat="43.4466245" lon="11.3552975"><ele>333.0</ele><time>2026-04-20T16:13:38.524Z</time></trkpt><trkpt lat="43.4467206" lon="11.3553181"><ele>334.0</ele><time>2026-04-20T16:13:39.524Z</time></trkpt><trkpt lat="43.446814" lon="11.3553447"><ele>335.0</ele><time>2026-04-20T16:13:40.525Z</time></trkpt><trkpt lat="43.4469058" lon="11.3553683"><ele>336.0</ele><time>2026-04-20T16:13:41.524Z</time></trkpt><trkpt lat="43.4469983" lon="11.3553892"><ele>337.0</ele><time>2026-04-20T16:13:42.524Z</time></trkpt><trkpt lat="43.4470997" lon="11.3554089"><ele>335.8</ele><time>2026-04-20T16:13:43.525Z</time></trkpt><trkpt lat="43.4472" lon="11.355428"><ele>334.6</ele><time>2026-04-20T16:13:44.524Z</time></trkpt><trkpt lat="43.4472977" lon="11.3554488"><ele>333.40000000000003</ele><time>2026-04-20T16:13:45.524Z</time></trkpt><trkpt lat="43.4473986" lon="11.3554696"><ele>332.20000000000005</ele><time>2026-04-20T16:13:46.525Z</time></trkpt><trkpt lat="43.4475006" lon="11.3555014"><ele>331.0</ele><time>2026-04-20T16:13:47.524Z</time></trkpt><trkpt lat="43.4476028" lon="11.3555394"><ele>331.0</ele><time>2026-04-20T16:13:48.524Z</time></trkpt><trkpt lat="43.4477031" lon="11.3555911"><ele>331.0</ele><time>2026-04-20T16:13:49.526Z</time></trkpt><trkpt lat="43.4478001" lon="11.3556497"><ele>331.0</ele><time>2026-04-20T16:13:50.525Z</time></trkpt><trkpt lat="43.4478939" lon="11.3557136"><ele>331.0</ele><time>2026-04-20T16:13:51.525Z</time></trkpt><trkpt lat="43.4479877" lon="11.3557733"><ele>331.0</ele><time>2026-04-20T16:13:52.526Z</time></trkpt><trkpt lat="43.4480838" lon="11.3558361"><ele>332.0</ele><time>2026-04-20T16:13:53.525Z</time></trkpt><trkpt lat="43.44818" lon="11.3558948"><ele>333.0</ele><time>2026-04-20T16:13:54.525Z</time></trkpt><trkpt lat="43.4482766" lon="11.3559557"><ele>334.0</ele><time>2026-04-20T16:13:55.525Z</time></trkpt><trkpt lat="43.4483759" lon="11.3560171"><ele>335.0</ele><time>2026-04-20T16:13:56.525Z</time></trkpt><trkpt lat="43.4484759" lon="11.3560777"><ele>336.0</ele><time>2026-04-20T16:13:57.525Z</time></trkpt><trkpt lat="43.4485789" lon="11.3561376"><ele>336.0</ele><time>2026-04-20T16:13:58.525Z</time></trkpt><trkpt lat="43.4486856" lon="11.3561959"><ele>336.0</ele><time>2026-04-20T16:13:59.525Z</time></trkpt><trkpt lat="43.4488003" lon="11.3562624"><ele>336.0</ele><time>2026-04-20T16:14:00.525Z</time></trkpt><trkpt lat="43.4489111" lon="11.3563357"><ele>336.0</ele><time>2026-04-20T16:14:01.525Z</time></trkpt><trkpt lat="43.4490089" lon="11.3564088"><ele>335.3333333333333</ele><time>2026-04-20T16:14:02.525Z</time></trkpt><trkpt lat="43.4490902" lon="11.3564818"><ele>334.6666666666667</ele><time>2026-04-20T16:14:03.526Z</time></trkpt><trkpt lat="43.4491565" lon="11.356555"><ele>334.0</ele><time>2026-04-20T16:14:04.525Z</time></trkpt><trkpt lat="43.449223" lon="11.3566198"><ele>333.33333333333337</ele><time>2026-04-20T16:14:05.525Z</time></trkpt><trkpt lat="43.4492954" lon="11.356673"><ele>332.6666666666667</ele><time>2026-04-20T16:14:06.525Z</time></trkpt><trkpt lat="43.4493666" lon="11.3567024"><ele>332.0</ele><time>2026-04-20T16:14:07.525Z</time></trkpt><trkpt lat="43.4494495" lon="11.3567183"><ele>332.0</ele><time>2026-04-20T16:14:08.525Z</time></trkpt><trkpt lat="43.4495438" lon="11.3567298"><ele>332.0</ele><time>2026-04-20T16:14:09.525Z</time></trkpt><trkpt lat="43.4496399" lon="11.3567462"><ele>332.0</ele><time>2026-04-20T16:14:10.525Z</time></trkpt><trkpt lat="43.4497323" lon="11.3567629"><ele>332.0</ele><time>2026-04-20T16:14:11.525Z</time></trkpt><trkpt lat="43.4498185" lon="11.356779"><ele>332.0</ele><time>2026-04-20T16:14:12.525Z</time></trkpt><trkpt lat="43.4499014" lon="11.3567835"><ele>333.33333333333337</ele><time>2026-04-20T16:14:13.525Z</time></trkpt><trkpt lat="43.4499823" lon="11.3567754"><ele>334.6666666666667</ele><time>2026-04-20T16:14:14.525Z</time></trkpt><trkpt lat="43.4500619" lon="11.3567525"><ele>336.0</ele><time>2026-04-20T16:14:15.525Z</time></trkpt><trkpt lat="43.4501364" lon="11.3567116"><ele>337.3333333333333</ele><time>2026-04-20T16:14:16.525Z</time></trkpt><trkpt lat="43.4502107" lon="11.3566531"><ele>338.66666666666663</ele><time>2026-04-20T16:14:17.525Z</time></trkpt><trkpt lat="43.4502817" lon="11.3565877"><ele>340.0</ele><time>2026-04-20T16:14:18.525Z</time></trkpt><trkpt lat="43.4503688" lon="11.3565041"><ele>339.6</ele><time>2026-04-20T16:14:19.526Z</time></trkpt><trkpt lat="43.4504581" lon="11.3564312"><ele>339.2</ele><time>2026-04-20T16:14:20.525Z</time></trkpt><trkpt lat="43.4505551" lon="11.3563394"><ele>338.79999999999995</ele><time>2026-04-20T16:14:21.525Z</time></trkpt><trkpt lat="43.4506272" lon="11.3562673"><ele>338.4</ele><time>2026-04-20T16:14:22.525Z</time></trkpt><trkpt lat="43.4506845" lon="11.3561974"><ele>338.0</ele><time>2026-04-20T16:14:23.526Z</time></trkpt><trkpt lat="43.450744" lon="11.3561298"><ele>339.5</ele><time>2026-04-20T16:14:24.525Z</time></trkpt><trkpt lat="43.4508083" lon="11.3560527"><ele>341.0</ele><time>2026-04-20T16:14:25.526Z</time></trkpt><trkpt lat="43.4508753" lon="11.3559682"><ele>342.5</ele><time>2026-04-20T16:14:26.525Z</time></trkpt><trkpt lat="43.4509389" lon="11.3558841"><ele>344.0</ele><time>2026-04-20T16:14:27.525Z</time></trkpt><trkpt lat="43.4509994" lon="11.3558046"><ele>345.5</ele><time>2026-04-20T16:14:28.525Z</time></trkpt><trkpt lat="43.4510604" lon="11.3557307"><ele>347.0</ele><time>2026-04-20T16:14:29.525Z</time></trkpt><trkpt lat="43.4511282" lon="11.3556615"><ele>347.0</ele><time>2026-04-20T16:14:30.525Z</time></trkpt><trkpt lat="43.4512112" lon="11.3555974"><ele>347.0</ele><time>2026-04-20T16:14:31.525Z</time></trkpt><trkpt lat="43.4513068" lon="11.3555375"><ele>347.0</ele><time>2026-04-20T16:14:32.525Z</time></trkpt><trkpt lat="43.4514002" lon="11.3554796"><ele>347.0</ele><time>2026-04-20T16:14:33.526Z</time></trkpt><trkpt lat="43.4514823" lon="11.3554232"><ele>347.0</ele><time>2026-04-20T16:14:34.526Z</time></trkpt><trkpt lat="43.4515587" lon="11.3553697"><ele>347.40000000000003</ele><time>2026-04-20T16:14:35.525Z</time></trkpt><trkpt lat="43.4516342" lon="11.3553225"><ele>347.8</ele><time>2026-04-20T16:14:36.526Z</time></trkpt><trkpt lat="43.4517172" lon="11.3552867"><ele>348.2</ele><time>2026-04-20T16:14:37.527Z</time></trkpt><trkpt lat="43.451814" lon="11.3552685"><ele>348.6</ele><time>2026-04-20T16:14:38.526Z</time></trkpt><trkpt lat="43.4519113" lon="11.3552644"><ele>349.0</ele><time>2026-04-20T16:14:39.526Z</time></trkpt><trkpt lat="43.4520031" lon="11.3552516"><ele>349.0</ele><time>2026-04-20T16:14:40.527Z</time></trkpt><trkpt lat="43.4520931" lon="11.3552276"><ele>349.0</ele><time>2026-04-20T16:14:41.526Z</time></trkpt><trkpt lat="43.4521861" lon="11.3551941"><ele>349.0</ele><time>2026-04-20T16:14:42.526Z</time></trkpt><trkpt lat="43.4522829" lon="11.3551536"><ele>349.0</ele><time>2026-04-20T16:14:43.526Z</time></trkpt><trkpt lat="43.4523831" lon="11.3551064"><ele>349.0</ele><time>2026-04-20T16:14:44.526Z</time></trkpt><trkpt lat="43.4524815" lon="11.3550593"><ele>347.6</ele><time>2026-04-20T16:14:45.526Z</time></trkpt><trkpt lat="43.4525811" lon="11.3550106"><ele>346.2</ele><time>2026-04-20T16:14:46.526Z</time></trkpt><trkpt lat="43.4526832" lon="11.3549524"><ele>344.8</ele><time>2026-04-20T16:14:47.527Z</time></trkpt><trkpt lat="43.4527859" lon="11.354891"><ele>343.40000000000003</ele><time>2026-04-20T16:14:48.526Z</time></trkpt><trkpt lat="43.4528916" lon="11.3548239"><ele>342.0</ele><time>2026-04-20T16:14:49.527Z</time></trkpt><trkpt lat="43.4529978" lon="11.3547563"><ele>342.40000000000003</ele><time>2026-04-20T16:14:50.526Z</time></trkpt><trkpt lat="43.4531045" lon="11.35469"><ele>342.8</ele><time>2026-04-20T16:14:51.526Z</time></trkpt><trkpt lat="43.4532107" lon="11.3546317"><ele>343.2</ele><time>2026-04-20T16:14:52.527Z</time></trkpt><trkpt lat="43.4533098" lon="11.354583"><ele>343.6</ele><time>2026-04-20T16:14:53.526Z</time></trkpt><trkpt lat="43.4534041" lon="11.3545385"><ele>344.0</ele><time>2026-04-20T16:14:54.527Z</time></trkpt><trkpt lat="43.4534939" lon="11.3544914"><ele>344.0</ele><time>2026-04-20T16:14:55.526Z</time></trkpt><trkpt lat="43.4535853" lon="11.3544456"><ele>344.0</ele><time>2026-04-20T16:14:56.526Z</time></trkpt><trkpt lat="43.4536773" lon="11.3543976"><ele>344.0</ele><time>2026-04-20T16:14:57.526Z</time></trkpt><trkpt lat="43.4537625" lon="11.3543496"><ele>344.0</ele><time>2026-04-20T16:14:58.526Z</time></trkpt><trkpt lat="43.4538381" lon="11.3543036"><ele>344.0</ele><time>2026-04-20T16:14:59.526Z</time></trkpt><trkpt lat="43.4539007" lon="11.3542735"><ele>344.0</ele><time>2026-04-20T16:15:00.526Z</time></trkpt><trkpt lat="43.4539938" lon="11.3542419"><ele>342.6666666666667</ele><time>2026-04-20T16:15:02.526Z</time></trkpt><trkpt lat="43.4541015" lon="11.3542665"><ele>341.33333333333337</ele><time>2026-04-20T16:15:04.526Z</time></trkpt><trkpt lat="43.4541688" lon="11.354308"><ele>340.0</ele><time>2026-04-20T16:15:05.526Z</time></trkpt><trkpt lat="43.4542471" lon="11.3543532"><ele>338.6666666666667</ele><time>2026-04-20T16:15:06.526Z</time></trkpt><trkpt lat="43.4543237" lon="11.3543746"><ele>337.3333333333333</ele><time>2026-04-20T16:15:07.526Z</time></trkpt><trkpt lat="43.4544066" lon="11.3543639"><ele>336.0</ele><time>2026-04-20T16:15:08.526Z</time></trkpt><trkpt lat="43.4544839" lon="11.3543217"><ele>336.0</ele><time>2026-04-20T16:15:09.526Z</time></trkpt><trkpt lat="43.4545641" lon="11.3542634"><ele>336.0</ele><time>2026-04-20T16:15:10.526Z</time></trkpt><trkpt lat="43.4546478" lon="11.354199"><ele>336.0</ele><time>2026-04-20T16:15:11.526Z</time></trkpt><trkpt lat="43.4547337" lon="11.3541366"><ele>336.0</ele><time>2026-04-20T16:15:12.527Z</time></trkpt><trkpt lat="43.4548203" lon="11.3540799"><ele>336.0</ele><time>2026-04-20T16:15:13.526Z</time></trkpt><trkpt lat="43.4549078" lon="11.3540348"><ele>337.1666666666667</ele><time>2026-04-20T16:15:14.526Z</time></trkpt><trkpt lat="43.4549964" lon="11.3540004"><ele>338.3333333333333</ele><time>2026-04-20T16:15:15.527Z</time></trkpt><trkpt lat="43.4550871" lon="11.3539733"><ele>339.5</ele><time>2026-04-20T16:15:16.526Z</time></trkpt><trkpt lat="43.4551784" lon="11.3539513"><ele>340.66666666666663</ele><time>2026-04-20T16:15:17.526Z</time></trkpt><trkpt lat="43.4552568" lon="11.3539308"><ele>341.8333333333333</ele><time>2026-04-20T16:15:18.526Z</time></trkpt><trkpt lat="43.4553249" lon="11.3539094"><ele>343.0</ele><time>2026-04-20T16:15:19.526Z</time></trkpt><trkpt lat="43.4554568" lon="11.3538934"><ele>343.4</ele><time>2026-04-20T16:15:21.527Z</time></trkpt><trkpt lat="43.4555427" lon="11.3539163"><ele>343.79999999999995</ele><time>2026-04-20T16:15:22.527Z</time></trkpt><trkpt lat="43.4556335" lon="11.3539583"><ele>344.2</ele><time>2026-04-20T16:15:23.527Z</time></trkpt><trkpt lat="43.4557278" lon="11.3540044"><ele>344.6</ele><time>2026-04-20T16:15:24.527Z</time></trkpt><trkpt lat="43.4558233" lon="11.354049"><ele>345.0</ele><time>2026-04-20T16:15:25.527Z</time></trkpt><trkpt lat="43.4559222" lon="11.3540887"><ele>345.0</ele><time>2026-04-20T16:15:26.527Z</time></trkpt><trkpt lat="43.4560234" lon="11.3541238"><ele>345.0</ele><time>2026-04-20T16:15:27.527Z</time></trkpt><trkpt lat="43.4561293" lon="11.354152"><ele>345.0</ele><time>2026-04-20T16:15:28.527Z</time></trkpt><trkpt lat="43.4562299" lon="11.3541729"><ele>345.0</ele><time>2026-04-20T16:15:29.528Z</time></trkpt><trkpt lat="43.4563266" lon="11.3541862"><ele>345.0</ele><time>2026-04-20T16:15:30.527Z</time></trkpt><trkpt lat="43.4564172" lon="11.3541967"><ele>345.2</ele><time>2026-04-20T16:15:31.528Z</time></trkpt><trkpt lat="43.4565103" lon="11.3542086"><ele>345.4</ele><time>2026-04-20T16:15:32.527Z</time></trkpt><trkpt lat="43.4566034" lon="11.3542197"><ele>345.6</ele><time>2026-04-20T16:15:33.527Z</time></trkpt><trkpt lat="43.4566942" lon="11.3542359"><ele>345.8</ele><time>2026-04-20T16:15:34.527Z</time></trkpt><trkpt lat="43.4567842" lon="11.3542561"><ele>346.0</ele><time>2026-04-20T16:15:35.527Z</time></trkpt><trkpt lat="43.4568767" lon="11.3542776"><ele>346.0</ele><time>2026-04-20T16:15:36.527Z</time></trkpt><trkpt lat="43.4569662" lon="11.3542937"><ele>346.0</ele><time>2026-04-20T16:15:37.528Z</time></trkpt><trkpt lat="43.4570544" lon="11.3543154"><ele>346.0</ele><time>2026-04-20T16:15:38.527Z</time></trkpt><trkpt lat="43.4571475" lon="11.3543454"><ele>346.0</ele><time>2026-04-20T16:15:39.527Z</time></trkpt><trkpt lat="43.457249" lon="11.3543847"><ele>346.0</ele><time>2026-04-20T16:15:40.527Z</time></trkpt><trkpt lat="43.4573502" lon="11.3544362"><ele>347.8</ele><time>2026-04-20T16:15:41.527Z</time></trkpt><trkpt lat="43.4574538" lon="11.3544987"><ele>349.6</ele><time>2026-04-20T16:15:42.528Z</time></trkpt><trkpt lat="43.4575475" lon="11.3545554"><ele>351.4</ele><time>2026-04-20T16:15:43.527Z</time></trkpt><trkpt lat="43.457641" lon="11.3546059"><ele>353.2</ele><time>2026-04-20T16:15:44.528Z</time></trkpt><trkpt lat="43.4577417" lon="11.3546487"><ele>355.0</ele><time>2026-04-20T16:15:45.527Z</time></trkpt><trkpt lat="43.4578393" lon="11.3546748"><ele>355.0</ele><time>2026-04-20T16:15:46.527Z</time></trkpt><trkpt lat="43.457937" lon="11.3547031"><ele>355.0</ele><time>2026-04-20T16:15:47.527Z</time></trkpt><trkpt lat="43.4580288" lon="11.3547355"><ele>355.0</ele><time>2026-04-20T16:15:48.527Z</time></trkpt><trkpt lat="43.4581163" lon="11.3547707"><ele>355.0</ele><time>2026-04-20T16:15:49.527Z</time></trkpt><trkpt lat="43.458193" lon="11.3548137"><ele>355.0</ele><time>2026-04-20T16:15:50.527Z</time></trkpt><trkpt lat="43.45827" lon="11.3548804"><ele>354.0</ele><time>2026-04-20T16:15:51.527Z</time></trkpt><trkpt lat="43.4583513" lon="11.3549704"><ele>353.0</ele><time>2026-04-20T16:15:52.528Z</time></trkpt><trkpt lat="43.4584359" lon="11.3550654"><ele>352.0</ele><time>2026-04-20T16:15:53.528Z</time></trkpt><trkpt lat="43.4585187" lon="11.3551552"><ele>351.0</ele><time>2026-04-20T16:15:54.527Z</time></trkpt><trkpt lat="43.4586055" lon="11.3552292"><ele>350.0</ele><time>2026-04-20T16:15:55.527Z</time></trkpt><trkpt lat="43.4586942" lon="11.355295"><ele>350.0</ele><time>2026-04-20T16:15:56.527Z</time></trkpt><trkpt lat="43.458782" lon="11.3553534"><ele>350.0</ele><time>2026-04-20T16:15:57.527Z</time></trkpt><trkpt lat="43.4588692" lon="11.3554044"><ele>350.0</ele><time>2026-04-20T16:15:58.527Z</time></trkpt><trkpt lat="43.4589588" lon="11.3554418"><ele>350.0</ele><time>2026-04-20T16:15:59.527Z</time></trkpt><trkpt lat="43.4590521" lon="11.3554681"><ele>350.0</ele><time>2026-04-20T16:16:00.528Z</time></trkpt><trkpt lat="43.459142" lon="11.3554866"><ele>349.83333333333337</ele><time>2026-04-20T16:16:01.527Z</time></trkpt><trkpt lat="43.4592252" lon="11.355504"><ele>349.6666666666667</ele><time>2026-04-20T16:16:02.528Z</time></trkpt><trkpt lat="43.459306" lon="11.3555233"><ele>349.5</ele><time>2026-04-20T16:16:03.527Z</time></trkpt><trkpt lat="43.4593842" lon="11.3555456"><ele>349.3333333333333</ele><time>2026-04-20T16:16:04.527Z</time></trkpt><trkpt lat="43.4594577" lon="11.3555632"><ele>349.16666666666663</ele><time>2026-04-20T16:16:05.528Z</time></trkpt><trkpt lat="43.4595331" lon="11.35558"><ele>349.0</ele><time>2026-04-20T16:16:06.527Z</time></trkpt><trkpt lat="43.4596091" lon="11.3555876"><ele>349.4</ele><time>2026-04-20T16:16:07.527Z</time></trkpt><trkpt lat="43.4596959" lon="11.355597"><ele>349.79999999999995</ele><time>2026-04-20T16:16:08.528Z</time></trkpt><trkpt lat="43.4597903" lon="11.3555983"><ele>350.20000000000005</ele><time>2026-04-20T16:16:09.528Z</time></trkpt><trkpt lat="43.459883" lon="11.3555942"><ele>350.6</ele><time>2026-04-20T16:16:10.528Z</time></trkpt><trkpt lat="43.4599725" lon="11.3555709"><ele>351.0</ele><time>2026-04-20T16:16:11.528Z</time></trkpt><trkpt lat="43.460064" lon="11.3555368"><ele>351.6</ele><time>2026-04-20T16:16:12.528Z</time></trkpt><trkpt lat="43.4601513" lon="11.3555042"><ele>352.20000000000005</ele><time>2026-04-20T16:16:13.528Z</time></trkpt><trkpt lat="43.4602398" lon="11.3554938"><ele>352.79999999999995</ele><time>2026-04-20T16:16:14.528Z</time></trkpt><trkpt lat="43.4603292" lon="11.3555061"><ele>353.4</ele><time>2026-04-20T16:16:15.528Z</time></trkpt><trkpt lat="43.460418" lon="11.3555369"><ele>354.0</ele><time>2026-04-20T16:16:16.528Z</time></trkpt><trkpt lat="43.4605066" lon="11.3555681"><ele>354.0</ele><time>2026-04-20T16:16:17.528Z</time></trkpt><trkpt lat="43.4605984" lon="11.3555976"><ele>354.0</ele><time>2026-04-20T16:16:18.529Z</time></trkpt><trkpt lat="43.4606824" lon="11.3556171"><ele>354.0</ele><time>2026-04-20T16:16:19.529Z</time></trkpt><trkpt lat="43.4607623" lon="11.35563"><ele>354.0</ele><time>2026-04-20T16:16:20.528Z</time></trkpt><trkpt lat="43.4608447" lon="11.3556302"><ele>354.0</ele><time>2026-04-20T16:16:21.528Z</time></trkpt><trkpt lat="43.4609279" lon="11.3556184"><ele>354.0</ele><time>2026-04-20T16:16:22.528Z</time></trkpt><trkpt lat="43.4610135" lon="11.355595"><ele>354.0</ele><time>2026-04-20T16:16:23.529Z</time></trkpt><trkpt lat="43.4611028" lon="11.3555756"><ele>354.0</ele><time>2026-04-20T16:16:24.528Z</time></trkpt><trkpt lat="43.4611927" lon="11.3555527"><ele>354.0</ele><time>2026-04-20T16:16:25.529Z</time></trkpt><trkpt lat="43.4612828" lon="11.3555323"><ele>354.0</ele><time>2026-04-20T16:16:26.528Z</time></trkpt><trkpt lat="43.4613662" lon="11.3555201"><ele>354.0</ele><time>2026-04-20T16:16:27.528Z</time></trkpt><trkpt lat="43.4614412" lon="11.3555262"><ele>354.0</ele><time>2026-04-20T16:16:28.528Z</time></trkpt><trkpt lat="43.4615101" lon="11.3555508"><ele>354.3333333333333</ele><time>2026-04-20T16:16:29.529Z</time></trkpt><trkpt lat="43.461584" lon="11.3555904"><ele>354.6666666666667</ele><time>2026-04-20T16:16:30.528Z</time></trkpt><trkpt lat="43.4616635" lon="11.3556427"><ele>355.0</ele><time>2026-04-20T16:16:31.528Z</time></trkpt><trkpt lat="43.4617365" lon="11.3557015"><ele>355.33333333333337</ele><time>2026-04-20T16:16:32.528Z</time></trkpt><trkpt lat="43.4618069" lon="11.3557629"><ele>355.6666666666667</ele><time>2026-04-20T16:16:33.529Z</time></trkpt><trkpt lat="43.4618735" lon="11.3558224"><ele>356.0</ele><time>2026-04-20T16:16:34.529Z</time></trkpt><trkpt lat="43.4619424" lon="11.3558864"><ele>356.0</ele><time>2026-04-20T16:16:35.528Z</time></trkpt><trkpt lat="43.4620202" lon="11.3559624"><ele>356.0</ele><time>2026-04-20T16:16:36.528Z</time></trkpt><trkpt lat="43.4621035" lon="11.3560495"><ele>356.0</ele><time>2026-04-20T16:16:37.528Z</time></trkpt><trkpt lat="43.4621869" lon="11.3561399"><ele>356.0</ele><time>2026-04-20T16:16:38.528Z</time></trkpt><trkpt lat="43.4622705" lon="11.3562275"><ele>356.0</ele><time>2026-04-20T16:16:39.529Z</time></trkpt><trkpt lat="43.4623537" lon="11.3563077"><ele>355.8</ele><time>2026-04-20T16:16:40.528Z</time></trkpt><trkpt lat="43.4624382" lon="11.356379"><ele>355.6</ele><time>2026-04-20T16:16:41.529Z</time></trkpt><trkpt lat="43.4625235" lon="11.3564453"><ele>355.4</ele><time>2026-04-20T16:16:42.529Z</time></trkpt><trkpt lat="43.4626146" lon="11.3565232"><ele>355.2</ele><time>2026-04-20T16:16:43.529Z</time></trkpt><trkpt lat="43.4626999" lon="11.356601"><ele>355.0</ele><time>2026-04-20T16:16:44.529Z</time></trkpt><trkpt lat="43.4627835" lon="11.3566767"><ele>355.0</ele><time>2026-04-20T16:16:45.529Z</time></trkpt><trkpt lat="43.4628556" lon="11.3567522"><ele>355.0</ele><time>2026-04-20T16:16:46.529Z</time></trkpt><trkpt lat="43.4629183" lon="11.3568195"><ele>355.0</ele><time>2026-04-20T16:16:47.528Z</time></trkpt><trkpt lat="43.4629742" lon="11.3568826"><ele>355.0</ele><time>2026-04-20T16:16:48.528Z</time></trkpt><trkpt lat="43.4630295" lon="11.3569379"><ele>355.0</ele><time>2026-04-20T16:16:49.528Z</time></trkpt><trkpt lat="43.4630861" lon="11.3569792"><ele>355.0</ele><time>2026-04-20T16:16:50.528Z</time></trkpt><trkpt lat="43.4631503" lon="11.3570103"><ele>355.0</ele><time>2026-04-20T16:16:51.528Z</time></trkpt><trkpt lat="43.463217" lon="11.3570246"><ele>357.16666666666663</ele><time>2026-04-20T16:16:52.528Z</time></trkpt><trkpt lat="43.4632914" lon="11.357026"><ele>359.3333333333333</ele><time>2026-04-20T16:16:53.528Z</time></trkpt><trkpt lat="43.4633696" lon="11.3570217"><ele>361.5</ele><time>2026-04-20T16:16:54.528Z</time></trkpt><trkpt lat="43.4634547" lon="11.3570238"><ele>363.6666666666667</ele><time>2026-04-20T16:16:55.528Z</time></trkpt><trkpt lat="43.4635353" lon="11.3570397"><ele>365.83333333333337</ele><time>2026-04-20T16:16:56.529Z</time></trkpt><trkpt lat="43.4636211" lon="11.3570645"><ele>368.0</ele><time>2026-04-20T16:16:57.529Z</time></trkpt><trkpt lat="43.4637069" lon="11.3570838"><ele>367.2</ele><time>2026-04-20T16:16:58.529Z</time></trkpt><trkpt lat="43.4637949" lon="11.3570966"><ele>366.4</ele><time>2026-04-20T16:16:59.53Z</time></trkpt><trkpt lat="43.4638914" lon="11.3571102"><ele>365.59999999999997</ele><time>2026-04-20T16:17:00.529Z</time></trkpt><trkpt lat="43.4639887" lon="11.3571376"><ele>364.79999999999995</ele><time>2026-04-20T16:17:01.529Z</time></trkpt><trkpt lat="43.464088" lon="11.3571954"><ele>364.0</ele><time>2026-04-20T16:17:02.53Z</time></trkpt><trkpt lat="43.464182" lon="11.3572761"><ele>364.0</ele><time>2026-04-20T16:17:03.529Z</time></trkpt><trkpt lat="43.4642633" lon="11.3573526"><ele>364.0</ele><time>2026-04-20T16:17:04.529Z</time></trkpt><trkpt lat="43.4643407" lon="11.3574226"><ele>364.0</ele><time>2026-04-20T16:17:05.529Z</time></trkpt><trkpt lat="43.4644114" lon="11.3574914"><ele>364.0</ele><time>2026-04-20T16:17:06.53Z</time></trkpt><trkpt lat="43.4644797" lon="11.3575815"><ele>364.0</ele><time>2026-04-20T16:17:07.53Z</time></trkpt><trkpt lat="43.4645428" lon="11.3576901"><ele>364.0</ele><time>2026-04-20T16:17:08.529Z</time></trkpt><trkpt lat="43.4646032" lon="11.3577925"><ele>364.0</ele><time>2026-04-20T16:17:09.529Z</time></trkpt><trkpt lat="43.4646554" lon="11.3578912"><ele>364.0</ele><time>2026-04-20T16:17:10.529Z</time></trkpt><trkpt lat="43.4647071" lon="11.3580053"><ele>364.0</ele><time>2026-04-20T16:17:11.53Z</time></trkpt><trkpt lat="43.464753" lon="11.3581278"><ele>364.0</ele><time>2026-04-20T16:17:12.529Z</time></trkpt><trkpt lat="43.464798" lon="11.3582675"><ele>364.2</ele><time>2026-04-20T16:17:13.529Z</time></trkpt><trkpt lat="43.4648332" lon="11.3584082"><ele>364.4</ele><time>2026-04-20T16:17:14.529Z</time></trkpt><trkpt lat="43.464864" lon="11.3585529"><ele>364.6</ele><time>2026-04-20T16:17:15.529Z</time></trkpt><trkpt lat="43.4648869" lon="11.3586919"><ele>364.8</ele><time>2026-04-20T16:17:16.53Z</time></trkpt><trkpt lat="43.4649104" lon="11.3588307"><ele>365.0</ele><time>2026-04-20T16:17:17.529Z</time></trkpt><trkpt lat="43.4649299" lon="11.3589647"><ele>365.0</ele><time>2026-04-20T16:17:18.529Z</time></trkpt><trkpt lat="43.4649466" lon="11.3591013"><ele>365.0</ele><time>2026-04-20T16:17:19.53Z</time></trkpt><trkpt lat="43.4649619" lon="11.3592348"><ele>365.0</ele><time>2026-04-20T16:17:20.529Z</time></trkpt><trkpt lat="43.4649794" lon="11.359361"><ele>365.0</ele><time>2026-04-20T16:17:21.529Z</time></trkpt><trkpt lat="43.4650034" lon="11.359481"><ele>365.0</ele><time>2026-04-20T16:17:22.529Z</time></trkpt><trkpt lat="43.4650315" lon="11.359588"><ele>365.0</ele><time>2026-04-20T16:17:23.529Z</time></trkpt><trkpt lat="43.4650674" lon="11.359698"><ele>365.0</ele><time>2026-04-20T16:17:24.529Z</time></trkpt><trkpt lat="43.4651094" lon="11.3598092"><ele>365.0</ele><time>2026-04-20T16:17:25.529Z</time></trkpt><trkpt lat="43.4651502" lon="11.3599135"><ele>365.0</ele><time>2026-04-20T16:17:26.53Z</time></trkpt><trkpt lat="43.4651953" lon="11.3600031"><ele>365.0</ele><time>2026-04-20T16:17:27.529Z</time></trkpt><trkpt lat="43.465248" lon="11.3600872"><ele>365.0</ele><time>2026-04-20T16:17:28.529Z</time></trkpt><trkpt lat="43.46531" lon="11.3601623"><ele>364.6666666666667</ele><time>2026-04-20T16:17:29.53Z</time></trkpt><trkpt lat="43.4653808" lon="11.3602397"><ele>364.33333333333337</ele><time>2026-04-20T16:17:30.529Z</time></trkpt><trkpt lat="43.4654529" lon="11.3603186"><ele>364.0</ele><time>2026-04-20T16:17:31.529Z</time></trkpt><trkpt lat="43.4655129" lon="11.3604051"><ele>363.6666666666667</ele><time>2026-04-20T16:17:32.53Z</time></trkpt><trkpt lat="43.4655601" lon="11.3605018"><ele>363.3333333333333</ele><time>2026-04-20T16:17:33.529Z</time></trkpt><trkpt lat="43.4656" lon="11.3606027"><ele>363.0</ele><time>2026-04-20T16:17:34.529Z</time></trkpt><trkpt lat="43.4656402" lon="11.3607056"><ele>364.1666666666667</ele><time>2026-04-20T16:17:35.529Z</time></trkpt><trkpt lat="43.4656853" lon="11.3607984"><ele>365.3333333333333</ele><time>2026-04-20T16:17:36.53Z</time></trkpt><trkpt lat="43.4657382" lon="11.3608797"><ele>366.5</ele><time>2026-04-20T16:17:37.53Z</time></trkpt><trkpt lat="43.4658024" lon="11.3609466"><ele>367.66666666666663</ele><time>2026-04-20T16:17:38.529Z</time></trkpt><trkpt lat="43.465878" lon="11.3610038"><ele>368.8333333333333</ele><time>2026-04-20T16:17:39.529Z</time></trkpt><trkpt lat="43.4659677" lon="11.3610636"><ele>370.0</ele><time>2026-04-20T16:17:40.529Z</time></trkpt><trkpt lat="43.4660515" lon="11.361127"><ele>370.0</ele><time>2026-04-20T16:17:41.529Z</time></trkpt><trkpt lat="43.4661206" lon="11.3612011"><ele>370.0</ele><time>2026-04-20T16:17:42.529Z</time></trkpt><trkpt lat="43.4661779" lon="11.3612989"><ele>370.0</ele><time>2026-04-20T16:17:43.529Z</time></trkpt><trkpt lat="43.4662182" lon="11.3614164"><ele>370.0</ele><time>2026-04-20T16:17:44.53Z</time></trkpt><trkpt lat="43.4662488" lon="11.3615509"><ele>370.0</ele><time>2026-04-20T16:17:45.53Z</time></trkpt><trkpt lat="43.4662777" lon="11.3616909"><ele>369.8</ele><time>2026-04-20T16:17:46.53Z</time></trkpt><trkpt lat="43.4663111" lon="11.3618316"><ele>369.6</ele><time>2026-04-20T16:17:47.53Z</time></trkpt><trkpt lat="43.4663443" lon="11.3619626"><ele>369.4</ele><time>2026-04-20T16:17:48.531Z</time></trkpt><trkpt lat="43.4663818" lon="11.362089"><ele>369.2</ele><time>2026-04-20T16:17:49.531Z</time></trkpt><trkpt lat="43.4664263" lon="11.3622138"><ele>369.0</ele><time>2026-04-20T16:17:50.531Z</time></trkpt><trkpt lat="43.4664768" lon="11.3623362"><ele>369.0</ele><time>2026-04-20T16:17:51.53Z</time></trkpt><trkpt lat="43.4665303" lon="11.3624546"><ele>369.0</ele><time>2026-04-20T16:17:52.531Z</time></trkpt><trkpt lat="43.4665814" lon="11.3625609"><ele>369.0</ele><time>2026-04-20T16:17:53.531Z</time></trkpt><trkpt lat="43.4666338" lon="11.3626519"><ele>369.0</ele><time>2026-04-20T16:17:54.53Z</time></trkpt><trkpt lat="43.466689" lon="11.3627346"><ele>369.0</ele><time>2026-04-20T16:17:55.53Z</time></trkpt><trkpt lat="43.466747" lon="11.3628151"><ele>369.0</ele><time>2026-04-20T16:17:56.53Z</time></trkpt><trkpt lat="43.4667972" lon="11.3628968"><ele>369.0</ele><time>2026-04-20T16:17:57.531Z</time></trkpt><trkpt lat="43.4668339" lon="11.3629846"><ele>369.0</ele><time>2026-04-20T16:17:58.53Z</time></trkpt><trkpt lat="43.4668485" lon="11.3630873"><ele>369.0</ele><time>2026-04-20T16:17:59.53Z</time></trkpt><trkpt lat="43.4668426" lon="11.3632009"><ele>369.0</ele><time>2026-04-20T16:18:00.531Z</time></trkpt><trkpt lat="43.466819" lon="11.3633285"><ele>369.0</ele><time>2026-04-20T16:18:01.53Z</time></trkpt><trkpt lat="43.4667843" lon="11.3634557"><ele>369.0</ele><time>2026-04-20T16:18:02.531Z</time></trkpt><trkpt lat="43.4667421" lon="11.3635846"><ele>369.0</ele><time>2026-04-20T16:18:03.531Z</time></trkpt><trkpt lat="43.466704" lon="11.3637103"><ele>369.0</ele><time>2026-04-20T16:18:04.53Z</time></trkpt><trkpt lat="43.4666718" lon="11.3638339"><ele>369.0</ele><time>2026-04-20T16:18:05.531Z</time></trkpt><trkpt lat="43.4666426" lon="11.3639611"><ele>369.0</ele><time>2026-04-20T16:18:06.53Z</time></trkpt><trkpt lat="43.4666142" lon="11.3640888"><ele>369.0</ele><time>2026-04-20T16:18:07.53Z</time></trkpt><trkpt lat="43.4665863" lon="11.3642262"><ele>369.0</ele><time>2026-04-20T16:18:08.53Z</time></trkpt><trkpt lat="43.4665551" lon="11.3643688"><ele>369.0</ele><time>2026-04-20T16:18:09.53Z</time></trkpt><trkpt lat="43.4665232" lon="11.3645185"><ele>369.0</ele><time>2026-04-20T16:18:10.53Z</time></trkpt><trkpt lat="43.4664911" lon="11.3646715"><ele>369.0</ele><time>2026-04-20T16:18:11.53Z</time></trkpt><trkpt lat="43.4664593" lon="11.364827"><ele>369.25</ele><time>2026-04-20T16:18:12.53Z</time></trkpt><trkpt lat="43.4664267" lon="11.3649844"><ele>369.5</ele><time>2026-04-20T16:18:13.53Z</time></trkpt><trkpt lat="43.4663923" lon="11.3651459"><ele>369.75</ele><time>2026-04-20T16:18:14.53Z</time></trkpt><trkpt lat="43.4663564" lon="11.3653121"><ele>370.0</ele><time>2026-04-20T16:18:15.53Z</time></trkpt><trkpt lat="43.4663207" lon="11.3654816"><ele>369.5</ele><time>2026-04-20T16:18:16.531Z</time></trkpt><trkpt lat="43.4662848" lon="11.3656518"><ele>369.0</ele><time>2026-04-20T16:18:17.53Z</time></trkpt><trkpt lat="43.4662464" lon="11.3658215"><ele>368.5</ele><time>2026-04-20T16:18:18.53Z</time></trkpt><trkpt lat="43.4662071" lon="11.365992"><ele>368.0</ele><time>2026-04-20T16:18:19.53Z</time></trkpt><trkpt lat="43.4661681" lon="11.3661621"><ele>368.0</ele><time>2026-04-20T16:18:20.53Z</time></trkpt><trkpt lat="43.4661305" lon="11.366337"><ele>368.0</ele><time>2026-04-20T16:18:21.53Z</time></trkpt><trkpt lat="43.4660934" lon="11.3665152"><ele>368.0</ele><time>2026-04-20T16:18:22.53Z</time></trkpt><trkpt lat="43.466057" lon="11.3666942"><ele>368.0</ele><time>2026-04-20T16:18:23.53Z</time></trkpt><trkpt lat="43.466019" lon="11.3668749"><ele>368.25</ele><time>2026-04-20T16:18:24.531Z</time></trkpt><trkpt lat="43.4659787" lon="11.3670612"><ele>368.5</ele><time>2026-04-20T16:18:25.53Z</time></trkpt><trkpt lat="43.4659379" lon="11.3672452"><ele>368.75</ele><time>2026-04-20T16:18:26.53Z</time></trkpt><trkpt lat="43.4658991" lon="11.36743"><ele>369.0</ele><time>2026-04-20T16:18:27.53Z</time></trkpt><trkpt lat="43.4658627" lon="11.3676083"><ele>369.5</ele><time>2026-04-20T16:18:28.532Z</time></trkpt><trkpt lat="43.4658281" lon="11.3677779"><ele>370.0</ele><time>2026-04-20T16:18:29.53Z</time></trkpt><trkpt lat="43.4657944" lon="11.3679285"><ele>370.5</ele><time>2026-04-20T16:18:30.53Z</time></trkpt><trkpt lat="43.4657628" lon="11.3680734"><ele>371.0</ele><time>2026-04-20T16:18:31.531Z</time></trkpt><trkpt lat="43.4657364" lon="11.3682095"><ele>371.6</ele><time>2026-04-20T16:18:32.531Z</time></trkpt><trkpt lat="43.4657186" lon="11.3683361"><ele>372.20000000000005</ele><time>2026-04-20T16:18:33.531Z</time></trkpt><trkpt lat="43.4657125" lon="11.3684602"><ele>372.79999999999995</ele><time>2026-04-20T16:18:34.531Z</time></trkpt><trkpt lat="43.4657185" lon="11.3685906"><ele>373.4</ele><time>2026-04-20T16:18:35.531Z</time></trkpt><trkpt lat="43.465736" lon="11.3687336"><ele>374.0</ele><time>2026-04-20T16:18:36.531Z</time></trkpt><trkpt lat="43.4657627" lon="11.3688823"><ele>374.0</ele><time>2026-04-20T16:18:37.531Z</time></trkpt><trkpt lat="43.465797" lon="11.3690323"><ele>374.0</ele><time>2026-04-20T16:18:38.531Z</time></trkpt><trkpt lat="43.4658362" lon="11.3691862"><ele>374.0</ele><time>2026-04-20T16:18:39.531Z</time></trkpt><trkpt lat="43.4658776" lon="11.369344"><ele>374.0</ele><time>2026-04-20T16:18:40.531Z</time></trkpt><trkpt lat="43.4659188" lon="11.3695003"><ele>374.0</ele><time>2026-04-20T16:18:41.531Z</time></trkpt><trkpt lat="43.4659625" lon="11.3696581"><ele>374.0</ele><time>2026-04-20T16:18:42.531Z</time></trkpt><trkpt lat="43.4660088" lon="11.3698092"><ele>374.0</ele><time>2026-04-20T16:18:43.531Z</time></trkpt><trkpt lat="43.4660575" lon="11.3699504"><ele>374.0</ele><time>2026-04-20T16:18:44.531Z</time></trkpt><trkpt lat="43.4661113" lon="11.3700849"><ele>374.5</ele><time>2026-04-20T16:18:45.531Z</time></trkpt><trkpt lat="43.4661714" lon="11.3702096"><ele>375.0</ele><time>2026-04-20T16:18:46.532Z</time></trkpt><trkpt lat="43.4662367" lon="11.3703374"><ele>375.5</ele><time>2026-04-20T16:18:47.532Z</time></trkpt><trkpt lat="43.4663034" lon="11.3704687"><ele>376.0</ele><time>2026-04-20T16:18:48.531Z</time></trkpt><trkpt lat="43.4663751" lon="11.3706036"><ele>376.75</ele><time>2026-04-20T16:18:49.531Z</time></trkpt><trkpt lat="43.4664503" lon="11.3707323"><ele>377.5</ele><time>2026-04-20T16:18:50.531Z</time></trkpt><trkpt lat="43.4665299" lon="11.3708564"><ele>378.25</ele><time>2026-04-20T16:18:51.531Z</time></trkpt><trkpt lat="43.4666083" lon="11.3709726"><ele>379.0</ele><time>2026-04-20T16:18:52.532Z</time></trkpt><trkpt lat="43.4666807" lon="11.3710808"><ele>379.0</ele><time>2026-04-20T16:18:53.531Z</time></trkpt><trkpt lat="43.4667469" lon="11.3711684"><ele>379.0</ele><time>2026-04-20T16:18:54.531Z</time></trkpt><trkpt lat="43.4668126" lon="11.3712402"><ele>379.0</ele><time>2026-04-20T16:18:55.531Z</time></trkpt><trkpt lat="43.4668901" lon="11.3713062"><ele>379.0</ele><time>2026-04-20T16:18:56.531Z</time></trkpt><trkpt lat="43.4669777" lon="11.371367"><ele>379.0</ele><time>2026-04-20T16:18:57.531Z</time></trkpt><trkpt lat="43.4670679" lon="11.3714191"><ele>379.2</ele><time>2026-04-20T16:18:58.532Z</time></trkpt><trkpt lat="43.4671585" lon="11.371473"><ele>379.4</ele><time>2026-04-20T16:18:59.531Z</time></trkpt><trkpt lat="43.4672411" lon="11.3715312"><ele>379.6</ele><time>2026-04-20T16:19:00.531Z</time></trkpt><trkpt lat="43.4673206" lon="11.3715921"><ele>379.8</ele><time>2026-04-20T16:19:01.531Z</time></trkpt><trkpt lat="43.4673932" lon="11.3716605"><ele>380.0</ele><time>2026-04-20T16:19:02.532Z</time></trkpt><trkpt lat="43.4674562" lon="11.3717321"><ele>380.0</ele><time>2026-04-20T16:19:03.532Z</time></trkpt><trkpt lat="43.467514" lon="11.3718222"><ele>380.0</ele><time>2026-04-20T16:19:04.531Z</time></trkpt><trkpt lat="43.467566" lon="11.3719347"><ele>380.0</ele><time>2026-04-20T16:19:05.531Z</time></trkpt><trkpt lat="43.4676152" lon="11.3720607"><ele>380.0</ele><time>2026-04-20T16:19:06.531Z</time></trkpt><trkpt lat="43.4676624" lon="11.3721934"><ele>380.0</ele><time>2026-04-20T16:19:07.531Z</time></trkpt><trkpt lat="43.4677065" lon="11.372323"><ele>379.33333333333337</ele><time>2026-04-20T16:19:08.531Z</time></trkpt><trkpt lat="43.4677483" lon="11.3724495"><ele>378.6666666666667</ele><time>2026-04-20T16:19:09.531Z</time></trkpt><trkpt lat="43.4677872" lon="11.3725653"><ele>378.0</ele><time>2026-04-20T16:19:10.531Z</time></trkpt><trkpt lat="43.4678179" lon="11.3726752"><ele>377.3333333333333</ele><time>2026-04-20T16:19:11.531Z</time></trkpt><trkpt lat="43.4678379" lon="11.3727783"><ele>376.66666666666663</ele><time>2026-04-20T16:19:12.531Z</time></trkpt><trkpt lat="43.4678474" lon="11.3728811"><ele>376.0</ele><time>2026-04-20T16:19:13.531Z</time></trkpt><trkpt lat="43.4678511" lon="11.3729736"><ele>376.20000000000005</ele><time>2026-04-20T16:19:14.531Z</time></trkpt><trkpt lat="43.4678598" lon="11.3731066"><ele>376.40000000000003</ele><time>2026-04-20T16:19:16.532Z</time></trkpt><trkpt lat="43.4678761" lon="11.3732244"><ele>376.6</ele><time>2026-04-20T16:19:19.532Z</time></trkpt><trkpt lat="43.4679887" lon="11.3733313"><ele>376.8</ele><time>2026-04-20T16:19:21.532Z</time></trkpt><trkpt lat="43.4680837" lon="11.3733696"><ele>377.0</ele><time>2026-04-20T16:19:22.532Z</time></trkpt><trkpt lat="43.4681942" lon="11.3734086"><ele>378.5</ele><time>2026-04-20T16:19:23.532Z</time></trkpt><trkpt lat="43.4683035" lon="11.3734484"><ele>380.0</ele><time>2026-04-20T16:19:24.532Z</time></trkpt><trkpt lat="43.4684214" lon="11.3735092"><ele>381.5</ele><time>2026-04-20T16:19:25.532Z</time></trkpt><trkpt lat="43.4685403" lon="11.3735936"><ele>383.0</ele><time>2026-04-20T16:19:26.532Z</time></trkpt><trkpt lat="43.4686518" lon="11.3737169"><ele>383.0</ele><time>2026-04-20T16:19:27.532Z</time></trkpt><trkpt lat="43.4687505" lon="11.3738722"><ele>383.0</ele><time>2026-04-20T16:19:28.533Z</time></trkpt><trkpt lat="43.4688413" lon="11.3740224"><ele>383.0</ele><time>2026-04-20T16:19:29.533Z</time></trkpt><trkpt lat="43.4689322" lon="11.3741441"><ele>383.0</ele><time>2026-04-20T16:19:30.532Z</time></trkpt><trkpt lat="43.4690349" lon="11.3742297"><ele>383.5</ele><time>2026-04-20T16:19:31.532Z</time></trkpt><trkpt lat="43.4691556" lon="11.3742785"><ele>384.0</ele><time>2026-04-20T16:19:32.532Z</time></trkpt><trkpt lat="43.469295" lon="11.3742976"><ele>384.5</ele><time>2026-04-20T16:19:33.533Z</time></trkpt><trkpt lat="43.4694529" lon="11.374297"><ele>385.0</ele><time>2026-04-20T16:19:34.533Z</time></trkpt><trkpt lat="43.4696244" lon="11.3742836"><ele>387.33333333333337</ele><time>2026-04-20T16:19:35.532Z</time></trkpt><trkpt lat="43.4698052" lon="11.3742775"><ele>389.66666666666663</ele><time>2026-04-20T16:19:36.532Z</time></trkpt><trkpt lat="43.4699879" lon="11.3742787"><ele>392.0</ele><time>2026-04-20T16:19:37.532Z</time></trkpt><trkpt lat="43.4701741" lon="11.3742836"><ele>392.0</ele><time>2026-04-20T16:19:38.532Z</time></trkpt><trkpt lat="43.4703553" lon="11.3742937"><ele>392.0</ele><time>2026-04-20T16:19:39.533Z</time></trkpt><trkpt lat="43.4705342" lon="11.3743053"><ele>392.0</ele><time>2026-04-20T16:19:40.532Z</time></trkpt><trkpt lat="43.4707072" lon="11.3743035"><ele>393.0</ele><time>2026-04-20T16:19:41.532Z</time></trkpt><trkpt lat="43.4708814" lon="11.3742904"><ele>394.0</ele><time>2026-04-20T16:19:42.532Z</time></trkpt><trkpt lat="43.4710655" lon="11.3742632"><ele>395.0</ele><time>2026-04-20T16:19:43.532Z</time></trkpt><trkpt lat="43.4712538" lon="11.3742148"><ele>395.66666666666663</ele><time>2026-04-20T16:19:44.532Z</time></trkpt><trkpt lat="43.4714454" lon="11.3741521"><ele>396.33333333333337</ele><time>2026-04-20T16:19:45.532Z</time></trkpt><trkpt lat="43.4716433" lon="11.3740854"><ele>397.0</ele><time>2026-04-20T16:19:46.532Z</time></trkpt><trkpt lat="43.4718393" lon="11.374022"><ele>397.0</ele><time>2026-04-20T16:19:47.532Z</time></trkpt><trkpt lat="43.4720232" lon="11.3739699"><ele>397.0</ele><time>2026-04-20T16:19:48.533Z</time></trkpt><trkpt lat="43.4721899" lon="11.3739319"><ele>397.0</ele><time>2026-04-20T16:19:49.533Z</time></trkpt><trkpt lat="43.4723429" lon="11.3739245"><ele>399.0</ele><time>2026-04-20T16:19:50.532Z</time></trkpt><trkpt lat="43.4724992" lon="11.3739509"><ele>401.0</ele><time>2026-04-20T16:19:51.532Z</time></trkpt><trkpt lat="43.4726549" lon="11.3740263"><ele>403.0</ele><time>2026-04-20T16:19:52.532Z</time></trkpt><trkpt lat="43.4728154" lon="11.3741319"><ele>406.6666666666667</ele><time>2026-04-20T16:19:53.532Z</time></trkpt><trkpt lat="43.4729757" lon="11.3742343"><ele>410.33333333333337</ele><time>2026-04-20T16:19:54.532Z</time></trkpt><trkpt lat="43.4731253" lon="11.3743183"><ele>414.0</ele><time>2026-04-20T16:19:55.532Z</time></trkpt><trkpt lat="43.473257" lon="11.3743888"><ele>414.0</ele><time>2026-04-20T16:19:56.532Z</time></trkpt><trkpt lat="43.473382" lon="11.3744178"><ele>414.0</ele><time>2026-04-20T16:19:57.532Z</time></trkpt><trkpt lat="43.4735098" lon="11.3744084"><ele>414.0</ele><time>2026-04-20T16:19:58.532Z</time></trkpt><trkpt lat="43.4736363" lon="11.374355"><ele>414.0</ele><time>2026-04-20T16:19:59.532Z</time></trkpt><trkpt lat="43.4737516" lon="11.3742588"><ele>414.0</ele><time>2026-04-20T16:20:00.532Z</time></trkpt><trkpt lat="43.4738493" lon="11.3741223"><ele>414.0</ele><time>2026-04-20T16:20:01.532Z</time></trkpt><trkpt lat="43.4739329" lon="11.3739582"><ele>414.0</ele><time>2026-04-20T16:20:02.533Z</time></trkpt><trkpt lat="43.4740157" lon="11.3737937"><ele>414.0</ele><time>2026-04-20T16:20:03.532Z</time></trkpt><trkpt lat="43.4741162" lon="11.3736537"><ele>417.0</ele><time>2026-04-20T16:20:04.534Z</time></trkpt><trkpt lat="43.4742249" lon="11.3735719"><ele>420.0</ele><time>2026-04-20T16:20:05.533Z</time></trkpt><trkpt lat="43.4743369" lon="11.3735305"><ele>423.0</ele><time>2026-04-20T16:20:06.533Z</time></trkpt><trkpt lat="43.4744361" lon="11.3735313"><ele>426.0</ele><time>2026-04-20T16:20:07.533Z</time></trkpt><trkpt lat="43.4745311" lon="11.373577"><ele>429.0</ele><time>2026-04-20T16:20:08.533Z</time></trkpt><trkpt lat="43.4746225" lon="11.3736538"><ele>430.0</ele><time>2026-04-20T16:20:09.534Z</time></trkpt><trkpt lat="43.4747056" lon="11.3737546"><ele>431.0</ele><time>2026-04-20T16:20:10.534Z</time></trkpt><trkpt lat="43.474785" lon="11.373862"><ele>432.0</ele><time>2026-04-20T16:20:11.533Z</time></trkpt><trkpt lat="43.4748749" lon="11.3739278"><ele>433.0</ele><time>2026-04-20T16:20:12.534Z</time></trkpt><trkpt lat="43.4749814" lon="11.3739481"><ele>434.0</ele><time>2026-04-20T16:20:13.533Z</time></trkpt><trkpt lat="43.4751141" lon="11.3739474"><ele>431.3333333333333</ele><time>2026-04-20T16:20:14.533Z</time></trkpt><trkpt lat="43.4752678" lon="11.3739251"><ele>428.66666666666663</ele><time>2026-04-20T16:20:15.534Z</time></trkpt><trkpt lat="43.4754262" lon="11.3738988"><ele>426.0</ele><time>2026-04-20T16:20:16.533Z</time></trkpt><trkpt lat="43.475592" lon="11.373865"><ele>430.66666666666663</ele><time>2026-04-20T16:20:17.533Z</time></trkpt><trkpt lat="43.4757549" lon="11.3738458"><ele>435.3333333333333</ele><time>2026-04-20T16:20:18.533Z</time></trkpt><trkpt lat="43.4759361" lon="11.3738174"><ele>440.0</ele><time>2026-04-20T16:20:19.533Z</time></trkpt><trkpt lat="43.4760977" lon="11.3737943"><ele>440.0</ele><time>2026-04-20T16:20:20.533Z</time></trkpt><trkpt lat="43.4762321" lon="11.3737807"><ele>440.0</ele><time>2026-04-20T16:20:21.533Z</time></trkpt><trkpt lat="43.4763506" lon="11.3737612"><ele>440.0</ele><time>2026-04-20T16:20:22.533Z</time></trkpt><trkpt lat="43.4764377" lon="11.3737075"><ele>440.0</ele><time>2026-04-20T16:20:23.533Z</time></trkpt><trkpt lat="43.4765094" lon="11.3736072"><ele>438.5</ele><time>2026-04-20T16:20:24.533Z</time></trkpt><trkpt lat="43.4765551" lon="11.3734581"><ele>437.0</ele><time>2026-04-20T16:20:25.533Z</time></trkpt><trkpt lat="43.4765857" lon="11.3732855"><ele>435.5</ele><time>2026-04-20T16:20:26.533Z</time></trkpt><trkpt lat="43.4765991" lon="11.3730978"><ele>434.0</ele><time>2026-04-20T16:20:27.533Z</time></trkpt><trkpt lat="43.4766202" lon="11.372893"><ele>437.0</ele><time>2026-04-20T16:20:28.533Z</time></trkpt><trkpt lat="43.4766487" lon="11.3726912"><ele>440.0</ele><time>2026-04-20T16:20:29.533Z</time></trkpt><trkpt lat="43.4766771" lon="11.3724994"><ele>443.0</ele><time>2026-04-20T16:20:30.534Z</time></trkpt><trkpt lat="43.4766959" lon="11.372332"><ele>446.0</ele><time>2026-04-20T16:20:31.533Z</time></trkpt><trkpt lat="43.4767146" lon="11.3721849"><ele>447.8</ele><time>2026-04-20T16:20:32.533Z</time></trkpt><trkpt lat="43.4767438" lon="11.3720518"><ele>449.6</ele><time>2026-04-20T16:20:33.533Z</time></trkpt><trkpt lat="43.4767897" lon="11.3719425"><ele>451.4</ele><time>2026-04-20T16:20:34.534Z</time></trkpt><trkpt lat="43.4768691" lon="11.3718562"><ele>453.2</ele><time>2026-04-20T16:20:35.533Z</time></trkpt><trkpt lat="43.4769695" lon="11.371812"><ele>455.0</ele><time>2026-04-20T16:20:36.534Z</time></trkpt><trkpt lat="43.4770884" lon="11.3718029"><ele>455.5</ele><time>2026-04-20T16:20:37.533Z</time></trkpt><trkpt lat="43.4772143" lon="11.3718503"><ele>456.0</ele><time>2026-04-20T16:20:38.533Z</time></trkpt><trkpt lat="43.4773343" lon="11.3719204"><ele>456.5</ele><time>2026-04-20T16:20:39.533Z</time></trkpt><trkpt lat="43.4774637" lon="11.3719879"><ele>457.0</ele><time>2026-04-20T16:20:40.533Z</time></trkpt><trkpt lat="43.4775979" lon="11.3720334"><ele>457.0</ele><time>2026-04-20T16:20:41.533Z</time></trkpt><trkpt lat="43.4777375" lon="11.3720224"><ele>457.0</ele><time>2026-04-20T16:20:42.533Z</time></trkpt><trkpt lat="43.4778607" lon="11.37199"><ele>457.0</ele><time>2026-04-20T16:20:43.533Z</time></trkpt><trkpt lat="43.477972" lon="11.3719437"><ele>457.0</ele><time>2026-04-20T16:20:44.534Z</time></trkpt><trkpt lat="43.4780879" lon="11.3718573"><ele>456.25</ele><time>2026-04-20T16:20:45.534Z</time></trkpt><trkpt lat="43.4781788" lon="11.3717324"><ele>455.5</ele><time>2026-04-20T16:20:46.534Z</time></trkpt><trkpt lat="43.4782401" lon="11.3715746"><ele>454.75</ele><time>2026-04-20T16:20:47.533Z</time></trkpt><trkpt lat="43.4782592" lon="11.3714126"><ele>454.0</ele><time>2026-04-20T16:20:48.535Z</time></trkpt><trkpt lat="43.4782439" lon="11.3712313"><ele>456.25</ele><time>2026-04-20T16:20:49.533Z</time></trkpt><trkpt lat="43.4782014" lon="11.3710522"><ele>458.5</ele><time>2026-04-20T16:20:50.533Z</time></trkpt><trkpt lat="43.47815" lon="11.3708657"><ele>460.75</ele><time>2026-04-20T16:20:51.533Z</time></trkpt><trkpt lat="43.4780967" lon="11.3706728"><ele>463.0</ele><time>2026-04-20T16:20:52.534Z</time></trkpt><trkpt lat="43.4780426" lon="11.3704677"><ele>464.59999999999997</ele><time>2026-04-20T16:20:53.535Z</time></trkpt><trkpt lat="43.4779954" lon="11.3702704"><ele>466.19999999999993</ele><time>2026-04-20T16:20:54.534Z</time></trkpt><trkpt lat="43.4779582" lon="11.3700984"><ele>467.8</ele><time>2026-04-20T16:20:55.535Z</time></trkpt><trkpt lat="43.4779411" lon="11.3699715"><ele>469.4</ele><time>2026-04-20T16:20:56.535Z</time></trkpt><trkpt lat="43.4779475" lon="11.3698692"><ele>471.0</ele><time>2026-04-20T16:20:57.534Z</time></trkpt><trkpt lat="43.4780064" lon="11.3697972"><ele>471.0</ele><time>2026-04-20T16:20:58.534Z</time></trkpt><trkpt lat="43.4780994" lon="11.3697458"><ele>471.0</ele><time>2026-04-20T16:20:59.534Z</time></trkpt><trkpt lat="43.4782196" lon="11.3697403"><ele>471.0</ele><time>2026-04-20T16:21:00.534Z</time></trkpt><trkpt lat="43.4783535" lon="11.3697714"><ele>471.0</ele><time>2026-04-20T16:21:01.534Z</time></trkpt><trkpt lat="43.4784837" lon="11.3698056"><ele>471.0</ele><time>2026-04-20T16:21:02.535Z</time></trkpt><trkpt lat="43.4786081" lon="11.3698138"><ele>471.0</ele><time>2026-04-20T16:21:03.534Z</time></trkpt><trkpt lat="43.4787213" lon="11.3697756"><ele>471.0</ele><time>2026-04-20T16:21:04.535Z</time></trkpt><trkpt lat="43.4788271" lon="11.3696783"><ele>471.0</ele><time>2026-04-20T16:21:05.534Z</time></trkpt><trkpt lat="43.4789358" lon="11.3695332"><ele>474.33333333333337</ele><time>2026-04-20T16:21:06.534Z</time></trkpt><trkpt lat="43.4790443" lon="11.3693544"><ele>477.6666666666667</ele><time>2026-04-20T16:21:07.535Z</time></trkpt><trkpt lat="43.4791516" lon="11.3691774"><ele>481.0</ele><time>2026-04-20T16:21:08.535Z</time></trkpt><trkpt lat="43.4792655" lon="11.3690038"><ele>481.33333333333337</ele><time>2026-04-20T16:21:09.535Z</time></trkpt><trkpt lat="43.4793855" lon="11.3688243"><ele>481.66666666666663</ele><time>2026-04-20T16:21:10.534Z</time></trkpt><trkpt lat="43.4795077" lon="11.3686429"><ele>482.0</ele><time>2026-04-20T16:21:11.534Z</time></trkpt><trkpt lat="43.4796354" lon="11.36846"><ele>482.0</ele><time>2026-04-20T16:21:12.534Z</time></trkpt><trkpt lat="43.479762" lon="11.3682842"><ele>482.0</ele><time>2026-04-20T16:21:13.534Z</time></trkpt><trkpt lat="43.479885" lon="11.3681141"><ele>482.0</ele><time>2026-04-20T16:21:14.534Z</time></trkpt><trkpt lat="43.4799986" lon="11.3679534"><ele>485.5</ele><time>2026-04-20T16:21:15.534Z</time></trkpt><trkpt lat="43.4800983" lon="11.3678091"><ele>489.0</ele><time>2026-04-20T16:21:16.534Z</time></trkpt><trkpt lat="43.4801948" lon="11.3676864"><ele>492.5</ele><time>2026-04-20T16:21:17.534Z</time></trkpt><trkpt lat="43.4802873" lon="11.3676029"><ele>496.0</ele><time>2026-04-20T16:21:18.534Z</time></trkpt><trkpt lat="43.4803866" lon="11.3675806"><ele>494.8</ele><time>2026-04-20T16:21:19.534Z</time></trkpt><trkpt lat="43.480497" lon="11.3676306"><ele>493.6</ele><time>2026-04-20T16:21:20.535Z</time></trkpt><trkpt lat="43.4806027" lon="11.3677156"><ele>492.4</ele><time>2026-04-20T16:21:21.534Z</time></trkpt><trkpt lat="43.4806962" lon="11.3677476"><ele>491.2</ele><time>2026-04-20T16:21:22.535Z</time></trkpt><trkpt lat="43.4807861" lon="11.3677218"><ele>490.0</ele><time>2026-04-20T16:21:23.534Z</time></trkpt><trkpt lat="43.4808752" lon="11.3676257"><ele>490.0</ele><time>2026-04-20T16:21:24.534Z</time></trkpt><trkpt lat="43.4809497" lon="11.3674729"><ele>490.0</ele><time>2026-04-20T16:21:25.534Z</time></trkpt><trkpt lat="43.4810238" lon="11.3673097"><ele>490.0</ele><time>2026-04-20T16:21:26.534Z</time></trkpt><trkpt lat="43.4811127" lon="11.3671704"><ele>490.0</ele><time>2026-04-20T16:21:27.535Z</time></trkpt><trkpt lat="43.4812224" lon="11.3670932"><ele>491.5</ele><time>2026-04-20T16:21:28.534Z</time></trkpt><trkpt lat="43.4813475" lon="11.3670642"><ele>493.0</ele><time>2026-04-20T16:21:29.534Z</time></trkpt><trkpt lat="43.4814834" lon="11.3670797"><ele>494.5</ele><time>2026-04-20T16:21:30.534Z</time></trkpt><trkpt lat="43.4815978" lon="11.3670978"><ele>496.0</ele><time>2026-04-20T16:21:31.534Z</time></trkpt><trkpt lat="43.4817025" lon="11.367098"><ele>496.0</ele><time>2026-04-20T16:21:32.534Z</time></trkpt><trkpt lat="43.481801" lon="11.3670539"><ele>496.0</ele><time>2026-04-20T16:21:33.534Z</time></trkpt><trkpt lat="43.4818954" lon="11.3669685"><ele>496.0</ele><time>2026-04-20T16:21:34.534Z</time></trkpt><trkpt lat="43.4819873" lon="11.3668449"><ele>496.0</ele><time>2026-04-20T16:21:35.534Z</time></trkpt><trkpt lat="43.4820677" lon="11.3667025"><ele>495.20000000000005</ele><time>2026-04-20T16:21:36.534Z</time></trkpt><trkpt lat="43.4821388" lon="11.3665709"><ele>494.40000000000003</ele><time>2026-04-20T16:21:37.534Z</time></trkpt><trkpt lat="43.482217" lon="11.3664622"><ele>493.6</ele><time>2026-04-20T16:21:38.534Z</time></trkpt><trkpt lat="43.4822995" lon="11.3663891"><ele>492.8</ele><time>2026-04-20T16:21:39.534Z</time></trkpt><trkpt lat="43.4823912" lon="11.3663554"><ele>492.0</ele><time>2026-04-20T16:21:40.535Z</time></trkpt><trkpt lat="43.4824969" lon="11.3663576"><ele>492.0</ele><time>2026-04-20T16:21:41.535Z</time></trkpt><trkpt lat="43.4826064" lon="11.3663944"><ele>492.00000000000006</ele><time>2026-04-20T16:21:42.535Z</time></trkpt><trkpt lat="43.4827058" lon="11.3664293"><ele>492.00000000000006</ele><time>2026-04-20T16:21:43.536Z</time></trkpt><trkpt lat="43.4827975" lon="11.3664611"><ele>492.0</ele><time>2026-04-20T16:21:44.535Z</time></trkpt><trkpt lat="43.4828906" lon="11.3664842"><ele>492.0</ele><time>2026-04-20T16:21:45.535Z</time></trkpt><trkpt lat="43.4829832" lon="11.366501"><ele>492.20000000000005</ele><time>2026-04-20T16:21:46.535Z</time></trkpt><trkpt lat="43.4830741" lon="11.3665108"><ele>492.40000000000003</ele><time>2026-04-20T16:21:47.535Z</time></trkpt><trkpt lat="43.4831611" lon="11.3664968"><ele>492.59999999999997</ele><time>2026-04-20T16:21:48.535Z</time></trkpt><trkpt lat="43.4832521" lon="11.3664467"><ele>492.79999999999995</ele><time>2026-04-20T16:21:49.535Z</time></trkpt><trkpt lat="43.4833399" lon="11.366377"><ele>493.0</ele><time>2026-04-20T16:21:50.536Z</time></trkpt><trkpt lat="43.4834266" lon="11.3662766"><ele>494.59999999999997</ele><time>2026-04-20T16:21:51.535Z</time></trkpt><trkpt lat="43.4835042" lon="11.3661641"><ele>496.19999999999993</ele><time>2026-04-20T16:21:52.536Z</time></trkpt><trkpt lat="43.4835715" lon="11.3660534"><ele>497.8</ele><time>2026-04-20T16:21:53.535Z</time></trkpt><trkpt lat="43.4836367" lon="11.3659473"><ele>499.4</ele><time>2026-04-20T16:21:54.536Z</time></trkpt><trkpt lat="43.4837001" lon="11.365845"><ele>501.0</ele><time>2026-04-20T16:21:55.536Z</time></trkpt><trkpt lat="43.4837649" lon="11.3657432"><ele>501.0</ele><time>2026-04-20T16:21:56.535Z</time></trkpt><trkpt lat="43.4838246" lon="11.3656494"><ele>501.0</ele><time>2026-04-20T16:21:57.535Z</time></trkpt><trkpt lat="43.4838812" lon="11.3655823"><ele>501.0</ele><time>2026-04-20T16:21:58.535Z</time></trkpt><trkpt lat="43.4839373" lon="11.3655379"><ele>501.0</ele><time>2026-04-20T16:21:59.535Z</time></trkpt><trkpt lat="43.484036" lon="11.3655004"><ele>501.0</ele><time>2026-04-20T16:22:01.535Z</time></trkpt><trkpt lat="43.4841038" lon="11.365513"><ele>501.0</ele><time>2026-04-20T16:22:02.535Z</time></trkpt><trkpt lat="43.484188" lon="11.3655596"><ele>501.0</ele><time>2026-04-20T16:22:03.535Z</time></trkpt><trkpt lat="43.4842725" lon="11.3656338"><ele>501.0</ele><time>2026-04-20T16:22:04.535Z</time></trkpt><trkpt lat="43.4843394" lon="11.3657163"><ele>501.0</ele><time>2026-04-20T16:22:05.535Z</time></trkpt><trkpt lat="43.4843908" lon="11.365796"><ele>501.0</ele><time>2026-04-20T16:22:06.535Z</time></trkpt><trkpt lat="43.4844261" lon="11.3658893"><ele>501.0</ele><time>2026-04-20T16:22:07.535Z</time></trkpt><trkpt lat="43.484443" lon="11.3660027"><ele>501.0</ele><time>2026-04-20T16:22:08.535Z</time></trkpt><trkpt lat="43.4844307" lon="11.3661409"><ele>501.0</ele><time>2026-04-20T16:22:09.535Z</time></trkpt><trkpt lat="43.4843961" lon="11.3662913"><ele>501.0</ele><time>2026-04-20T16:22:10.535Z</time></trkpt><trkpt lat="43.4843651" lon="11.3664301"><ele>501.0</ele><time>2026-04-20T16:22:11.535Z</time></trkpt><trkpt lat="43.4843424" lon="11.3665582"><ele>501.0</ele><time>2026-04-20T16:22:12.535Z</time></trkpt><trkpt lat="43.4843316" lon="11.3666783"><ele>501.0</ele><time>2026-04-20T16:22:13.535Z</time></trkpt><trkpt lat="43.4843374" lon="11.3667862"><ele>500.0</ele><time>2026-04-20T16:22:14.535Z</time></trkpt><trkpt lat="43.4843591" lon="11.366888"><ele>499.0</ele><time>2026-04-20T16:22:15.535Z</time></trkpt><trkpt lat="43.4843925" lon="11.3669787"><ele>498.0</ele><time>2026-04-20T16:22:16.535Z</time></trkpt><trkpt lat="43.4844278" lon="11.3670772"><ele>497.0</ele><time>2026-04-20T16:22:17.535Z</time></trkpt><trkpt lat="43.4844639" lon="11.3671932"><ele>496.0</ele><time>2026-04-20T16:22:18.535Z</time></trkpt><trkpt lat="43.4845016" lon="11.3673338"><ele>495.0</ele><time>2026-04-20T16:22:19.535Z</time></trkpt><trkpt lat="43.4845391" lon="11.3674954"><ele>494.75</ele><time>2026-04-20T16:22:20.535Z</time></trkpt><trkpt lat="43.4845762" lon="11.3676654"><ele>494.5</ele><time>2026-04-20T16:22:21.535Z</time></trkpt><trkpt lat="43.4846089" lon="11.3678458"><ele>494.25</ele><time>2026-04-20T16:22:22.535Z</time></trkpt><trkpt lat="43.4846345" lon="11.3680412"><ele>494.0</ele><time>2026-04-20T16:22:23.535Z</time></trkpt><trkpt lat="43.4846562" lon="11.3682374"><ele>496.0</ele><time>2026-04-20T16:22:24.535Z</time></trkpt><trkpt lat="43.4846801" lon="11.3684261"><ele>498.0</ele><time>2026-04-20T16:22:25.535Z</time></trkpt><trkpt lat="43.484702" lon="11.3686092"><ele>500.0</ele><time>2026-04-20T16:22:26.536Z</time></trkpt><trkpt lat="43.4847206" lon="11.3687826"><ele>502.0</ele><time>2026-04-20T16:22:27.536Z</time></trkpt><trkpt lat="43.4847377" lon="11.3689454"><ele>503.25</ele><time>2026-04-20T16:22:28.536Z</time></trkpt><trkpt lat="43.4847597" lon="11.3690944"><ele>504.5</ele><time>2026-04-20T16:22:29.536Z</time></trkpt><trkpt lat="43.4847941" lon="11.3692443"><ele>505.75</ele><time>2026-04-20T16:22:30.536Z</time></trkpt><trkpt lat="43.4848426" lon="11.3693903"><ele>507.0</ele><time>2026-04-20T16:22:31.537Z</time></trkpt><trkpt lat="43.4849232" lon="11.3695325"><ele>507.0</ele><time>2026-04-20T16:22:32.537Z</time></trkpt><trkpt lat="43.4850287" lon="11.3696605"><ele>507.0</ele><time>2026-04-20T16:22:33.536Z</time></trkpt><trkpt lat="43.485143" lon="11.3697677"><ele>507.0</ele><time>2026-04-20T16:22:34.537Z</time></trkpt><trkpt lat="43.4852556" lon="11.3698495"><ele>507.0</ele><time>2026-04-20T16:22:35.536Z</time></trkpt><trkpt lat="43.4853714" lon="11.3699069"><ele>508.0</ele><time>2026-04-20T16:22:36.537Z</time></trkpt><trkpt lat="43.4854839" lon="11.3699384"><ele>509.00000000000006</ele><time>2026-04-20T16:22:37.536Z</time></trkpt><trkpt lat="43.4855814" lon="11.3699568"><ele>510.00000000000006</ele><time>2026-04-20T16:22:38.537Z</time></trkpt><trkpt lat="43.4856651" lon="11.3699809"><ele>511.0</ele><time>2026-04-20T16:22:39.536Z</time></trkpt><trkpt lat="43.4857423" lon="11.3700176"><ele>512.0</ele><time>2026-04-20T16:22:40.536Z</time></trkpt><trkpt lat="43.4858136" lon="11.3700776"><ele>512.0</ele><time>2026-04-20T16:22:41.536Z</time></trkpt><trkpt lat="43.4858871" lon="11.3701669"><ele>512.0</ele><time>2026-04-20T16:22:42.537Z</time></trkpt><trkpt lat="43.485957" lon="11.3702633"><ele>512.0</ele><time>2026-04-20T16:22:43.536Z</time></trkpt><trkpt lat="43.4860249" lon="11.3704141"><ele>512.0</ele><time>2026-04-20T16:22:44.536Z</time></trkpt><trkpt lat="43.4860844" lon="11.3705702"><ele>513.75</ele><time>2026-04-20T16:22:45.537Z</time></trkpt><trkpt lat="43.4861299" lon="11.3707451"><ele>515.5</ele><time>2026-04-20T16:22:46.536Z</time></trkpt><trkpt lat="43.4861688" lon="11.3709312"><ele>517.25</ele><time>2026-04-20T16:22:47.536Z</time></trkpt><trkpt lat="43.4862048" lon="11.3711113"><ele>519.0</ele><time>2026-04-20T16:22:48.536Z</time></trkpt><trkpt lat="43.4862413" lon="11.3712798"><ele>515.25</ele><time>2026-04-20T16:22:49.536Z</time></trkpt><trkpt lat="43.4862725" lon="11.3714492"><ele>511.5</ele><time>2026-04-20T16:22:50.536Z</time></trkpt><trkpt lat="43.4862961" lon="11.3716227"><ele>507.75</ele><time>2026-04-20T16:22:51.536Z</time></trkpt><trkpt lat="43.4863151" lon="11.3718034"><ele>504.0</ele><time>2026-04-20T16:22:52.536Z</time></trkpt><trkpt lat="43.4863228" lon="11.3719797"><ele>504.0</ele><time>2026-04-20T16:22:53.536Z</time></trkpt><trkpt lat="43.4863261" lon="11.3721424"><ele>504.0</ele><time>2026-04-20T16:22:54.536Z</time></trkpt><trkpt lat="43.4863354" lon="11.3723108"><ele>504.0</ele><time>2026-04-20T16:22:55.536Z</time></trkpt><trkpt lat="43.4863508" lon="11.3724736"><ele>504.0</ele><time>2026-04-20T16:22:56.536Z</time></trkpt><trkpt lat="43.4863661" lon="11.3726133"><ele>505.8333333333333</ele><time>2026-04-20T16:22:57.536Z</time></trkpt><trkpt lat="43.4863796" lon="11.372728"><ele>507.66666666666663</ele><time>2026-04-20T16:22:58.536Z</time></trkpt><trkpt lat="43.4863994" lon="11.3728292"><ele>509.5</ele><time>2026-04-20T16:22:59.536Z</time></trkpt><trkpt lat="43.4864104" lon="11.3729209"><ele>511.3333333333333</ele><time>2026-04-20T16:23:00.536Z</time></trkpt><trkpt lat="43.4864161" lon="11.3730219"><ele>513.1666666666666</ele><time>2026-04-20T16:23:02.536Z</time></trkpt><trkpt lat="43.4864298" lon="11.3731338"><ele>515.0</ele><time>2026-04-20T16:23:05.537Z</time></trkpt><trkpt lat="43.4865012" lon="11.373161"><ele>517.1428571428571</ele><time>2026-04-20T16:23:07.536Z</time></trkpt><trkpt lat="43.4865699" lon="11.3731239"><ele>519.2857142857142</ele><time>2026-04-20T16:23:10.536Z</time></trkpt><trkpt lat="43.4865848" lon="11.3732211"><ele>521.4285714285713</ele><time>2026-04-20T16:23:59.537Z</time></trkpt><trkpt lat="43.4865781" lon="11.3733116"><ele>523.5714285714286</ele><time>2026-04-20T16:24:07.538Z</time></trkpt><trkpt lat="43.4866139" lon="11.3733832"><ele>525.7142857142857</ele><time>2026-04-20T16:24:13.538Z</time></trkpt><trkpt lat="43.4866681" lon="11.3734479"><ele>527.8571428571428</ele><time>2026-04-20T16:24:36.533Z</time></trkpt><trkpt lat="43.486724" lon="11.373508"><ele>530.0</ele><time>2026-04-20T16:24:42.576Z</time></trkpt><trkpt lat="43.4867397" lon="11.3735938"><ele>529.9999999999999</ele><time>2026-04-20T16:24:48.615Z</time></trkpt><trkpt lat="43.4867156" lon="11.3736804"><ele>530.0</ele><time>2026-04-20T16:24:53.595Z</time></trkpt><trkpt lat="43.4866994" lon="11.3737772"><ele>530.0</ele><time>2026-04-20T16:24:58.555Z</time></trkpt><trkpt lat="43.4866857" lon="11.3738708"><ele>530.0</ele><time>2026-04-20T16:25:03.593Z</time></trkpt><trkpt lat="43.4866997" lon="11.373968"><ele>530.0</ele><time>2026-04-20T16:25:09.615Z</time></trkpt><trkpt lat="43.4866978" lon="11.3740563"><ele>529.9999999999999</ele><time>2026-04-20T16:25:15.634Z</time></trkpt><trkpt lat="43.4866843" lon="11.3741453"><ele>530.0</ele><time>2026-04-20T16:25:21.635Z</time></trkpt><trkpt lat="43.4866549" lon="11.3742367"><ele>530.2857142857142</ele><time>2026-04-20T16:25:31.596Z</time></trkpt><trkpt lat="43.486651" lon="11.3743239"><ele>530.5714285714286</ele><time>2026-04-20T16:25:36.576Z</time></trkpt><trkpt lat="43.4866816" lon="11.3744123"><ele>530.8571428571429</ele><time>2026-04-20T16:25:42.574Z</time></trkpt><trkpt lat="43.4867375" lon="11.3744767"><ele>531.1428571428571</ele><time>2026-04-20T16:25:51.697Z</time></trkpt><trkpt lat="43.4867596" lon="11.3745635"><ele>531.4285714285714</ele><time>2026-04-20T16:25:55.658Z</time></trkpt><trkpt lat="43.486754" lon="11.3746575"><ele>531.7142857142857</ele><time>2026-04-20T16:26:00.678Z</time></trkpt><trkpt lat="43.4867868" lon="11.3747369"><ele>532.0</ele><time>2026-04-20T16:26:07.531Z</time></trkpt><trkpt lat="43.4867685" lon="11.3748279"><ele>532.0</ele><time>2026-04-20T16:26:19.66Z</time></trkpt></trkseg></trk></gpx>